<?xml version="1.0" encoding="UTF-8" standalone="no" ?>
<gpx xmlns="http://www.topografix.com/GPX/1/1" xmlns:xsi="http://www.w3.org/2001/XMLSchema-instance" xsi:schemaLocation="http://www.topografix.com/GPX/1/1 http://www.topografix.com/GPX/1/1/gpx.xsd" version="1.1" creator="VisuGPX - https://www.visugpx.com">
  <metadata>
    <name>Lac de vassiviere J3</name>
  </metadata>
  <trk>
    <name><![CDATA[Trace 1783582036000]]></name>
    <trkseg>
      <trkpt lat="45.80946" lon="1.8949">
        <ele>700.8</ele>
        <time>2026-07-09T07:27:16.000Z</time>
      </trkpt>
      <trkpt lat="45.80947" lon="1.89488">
        <ele>701.1</ele>
        <time>2026-07-09T07:27:17.000Z</time>
      </trkpt>
      <trkpt lat="45.80948" lon="1.89486">
        <ele>701.3</ele>
        <time>2026-07-09T07:27:18.000Z</time>
      </trkpt>
      <trkpt lat="45.80949" lon="1.89484">
        <ele>701.2</ele>
        <time>2026-07-09T07:27:19.000Z</time>
      </trkpt>
      <trkpt lat="45.80949" lon="1.89482">
        <ele>701.2</ele>
        <time>2026-07-09T07:27:20.000Z</time>
      </trkpt>
      <trkpt lat="45.8095" lon="1.8948">
        <ele>700.8</ele>
        <time>2026-07-09T07:27:21.000Z</time>
      </trkpt>
      <trkpt lat="45.8095" lon="1.89478">
        <ele>700.6</ele>
        <time>2026-07-09T07:27:22.000Z</time>
      </trkpt>
      <trkpt lat="45.80949" lon="1.89476">
        <ele>700.6</ele>
        <time>2026-07-09T07:27:23.000Z</time>
      </trkpt>
      <trkpt lat="45.80948" lon="1.89475">
        <ele>700.4</ele>
        <time>2026-07-09T07:27:24.000Z</time>
      </trkpt>
      <trkpt lat="45.80948" lon="1.89475">
        <ele>700.6</ele>
        <time>2026-07-09T07:27:25.000Z</time>
      </trkpt>
      <trkpt lat="45.80948" lon="1.89475">
        <ele>700.6</ele>
        <time>2026-07-09T07:27:26.000Z</time>
      </trkpt>
      <trkpt lat="45.80948" lon="1.89475">
        <ele>700.6</ele>
        <time>2026-07-09T07:27:27.000Z</time>
      </trkpt>
      <trkpt lat="45.80947" lon="1.89472">
        <ele>700.7</ele>
        <time>2026-07-09T07:27:28.000Z</time>
      </trkpt>
      <trkpt lat="45.80947" lon="1.89472">
        <ele>701.2</ele>
        <time>2026-07-09T07:27:29.000Z</time>
      </trkpt>
      <trkpt lat="45.80947" lon="1.89473">
        <ele>701.1</ele>
        <time>2026-07-09T07:27:30.000Z</time>
      </trkpt>
      <trkpt lat="45.80944" lon="1.89469">
        <ele>701.5</ele>
        <time>2026-07-09T07:27:31.000Z</time>
      </trkpt>
      <trkpt lat="45.80943" lon="1.8947">
        <ele>700.3</ele>
        <time>2026-07-09T07:27:32.000Z</time>
      </trkpt>
      <trkpt lat="45.80942" lon="1.89469">
        <ele>700.9</ele>
        <time>2026-07-09T07:27:33.000Z</time>
      </trkpt>
      <trkpt lat="45.80939" lon="1.89472">
        <ele>700.5</ele>
        <time>2026-07-09T07:27:34.000Z</time>
      </trkpt>
      <trkpt lat="45.80939" lon="1.89474">
        <ele>700.4</ele>
        <time>2026-07-09T07:27:35.000Z</time>
      </trkpt>
      <trkpt lat="45.80939" lon="1.89474">
        <ele>700.4</ele>
        <time>2026-07-09T07:27:36.000Z</time>
      </trkpt>
      <trkpt lat="45.80939" lon="1.89474">
        <ele>700.5</ele>
        <time>2026-07-09T07:27:37.000Z</time>
      </trkpt>
      <trkpt lat="45.80939" lon="1.89474">
        <ele>700.5</ele>
        <time>2026-07-09T07:27:38.000Z</time>
      </trkpt>
      <trkpt lat="45.80939" lon="1.89474">
        <ele>700.5</ele>
        <time>2026-07-09T07:27:39.000Z</time>
      </trkpt>
      <trkpt lat="45.8094" lon="1.89475">
        <ele>700.8</ele>
        <time>2026-07-09T07:27:40.000Z</time>
      </trkpt>
      <trkpt lat="45.8094" lon="1.89477">
        <ele>700.7</ele>
        <time>2026-07-09T07:27:41.000Z</time>
      </trkpt>
      <trkpt lat="45.80941" lon="1.89478">
        <ele>701</ele>
        <time>2026-07-09T07:27:42.000Z</time>
      </trkpt>
      <trkpt lat="45.80941" lon="1.89479">
        <ele>701.2</ele>
        <time>2026-07-09T07:27:43.000Z</time>
      </trkpt>
      <trkpt lat="45.80942" lon="1.89479">
        <ele>701.2</ele>
        <time>2026-07-09T07:27:44.000Z</time>
      </trkpt>
      <trkpt lat="45.80942" lon="1.89479">
        <ele>701.2</ele>
        <time>2026-07-09T07:27:45.000Z</time>
      </trkpt>
      <trkpt lat="45.80942" lon="1.89479">
        <ele>701.2</ele>
        <time>2026-07-09T07:27:46.000Z</time>
      </trkpt>
      <trkpt lat="45.80942" lon="1.8948">
        <ele>701.2</ele>
        <time>2026-07-09T07:27:47.000Z</time>
      </trkpt>
      <trkpt lat="45.80942" lon="1.8948">
        <ele>701.4</ele>
        <time>2026-07-09T07:27:48.000Z</time>
      </trkpt>
      <trkpt lat="45.80944" lon="1.89481">
        <ele>700.4</ele>
        <time>2026-07-09T07:27:49.000Z</time>
      </trkpt>
      <trkpt lat="45.80945" lon="1.89481">
        <ele>700.3</ele>
        <time>2026-07-09T07:27:50.000Z</time>
      </trkpt>
      <trkpt lat="45.80946" lon="1.89481">
        <ele>700.1</ele>
        <time>2026-07-09T07:27:51.000Z</time>
      </trkpt>
      <trkpt lat="45.80947" lon="1.89481">
        <ele>700.1</ele>
        <time>2026-07-09T07:27:52.000Z</time>
      </trkpt>
      <trkpt lat="45.80947" lon="1.89481">
        <ele>700.1</ele>
        <time>2026-07-09T07:27:53.000Z</time>
      </trkpt>
      <trkpt lat="45.80947" lon="1.89481">
        <ele>700.1</ele>
        <time>2026-07-09T07:27:54.000Z</time>
      </trkpt>
      <trkpt lat="45.80947" lon="1.89481">
        <ele>700.1</ele>
        <time>2026-07-09T07:27:55.000Z</time>
      </trkpt>
      <trkpt lat="45.80947" lon="1.89481">
        <ele>700.1</ele>
        <time>2026-07-09T07:27:56.000Z</time>
      </trkpt>
      <trkpt lat="45.80948" lon="1.89481">
        <ele>699.5</ele>
        <time>2026-07-09T07:27:57.000Z</time>
      </trkpt>
      <trkpt lat="45.80948" lon="1.89481">
        <ele>699.5</ele>
        <time>2026-07-09T07:27:58.000Z</time>
      </trkpt>
      <trkpt lat="45.80948" lon="1.89481">
        <ele>699.5</ele>
        <time>2026-07-09T07:27:59.000Z</time>
      </trkpt>
      <trkpt lat="45.80948" lon="1.89481">
        <ele>699.5</ele>
        <time>2026-07-09T07:28:00.000Z</time>
      </trkpt>
      <trkpt lat="45.80948" lon="1.89482">
        <ele>699.6</ele>
        <time>2026-07-09T07:28:01.000Z</time>
      </trkpt>
      <trkpt lat="45.8095" lon="1.89483">
        <ele>699.7</ele>
        <time>2026-07-09T07:28:02.000Z</time>
      </trkpt>
      <trkpt lat="45.80951" lon="1.89483">
        <ele>699.6</ele>
        <time>2026-07-09T07:28:03.000Z</time>
      </trkpt>
      <trkpt lat="45.80951" lon="1.89483">
        <ele>699.6</ele>
        <time>2026-07-09T07:28:04.000Z</time>
      </trkpt>
      <trkpt lat="45.80952" lon="1.89482">
        <ele>699.6</ele>
        <time>2026-07-09T07:28:05.000Z</time>
      </trkpt>
      <trkpt lat="45.80952" lon="1.89482">
        <ele>699.6</ele>
        <time>2026-07-09T07:28:06.000Z</time>
      </trkpt>
      <trkpt lat="45.80953" lon="1.89482">
        <ele>699.8</ele>
        <time>2026-07-09T07:28:07.000Z</time>
      </trkpt>
      <trkpt lat="45.80954" lon="1.89481">
        <ele>700.2</ele>
        <time>2026-07-09T07:28:08.000Z</time>
      </trkpt>
      <trkpt lat="45.80956" lon="1.89481">
        <ele>700.2</ele>
        <time>2026-07-09T07:28:09.000Z</time>
      </trkpt>
      <trkpt lat="45.80958" lon="1.8948">
        <ele>700.1</ele>
        <time>2026-07-09T07:28:10.000Z</time>
      </trkpt>
      <trkpt lat="45.80959" lon="1.89479">
        <ele>700</ele>
        <time>2026-07-09T07:28:11.000Z</time>
      </trkpt>
      <trkpt lat="45.8096" lon="1.89475">
        <ele>699.7</ele>
        <time>2026-07-09T07:28:12.000Z</time>
      </trkpt>
      <trkpt lat="45.80957" lon="1.89473">
        <ele>699.8</ele>
        <time>2026-07-09T07:28:13.000Z</time>
      </trkpt>
      <trkpt lat="45.80958" lon="1.89472">
        <ele>700.9</ele>
        <time>2026-07-09T07:28:14.000Z</time>
      </trkpt>
      <trkpt lat="45.80962" lon="1.89471">
        <ele>702</ele>
        <time>2026-07-09T07:28:15.000Z</time>
      </trkpt>
      <trkpt lat="45.80965" lon="1.89472">
        <ele>701.5</ele>
        <time>2026-07-09T07:28:16.000Z</time>
      </trkpt>
      <trkpt lat="45.80968" lon="1.89473">
        <ele>700.8</ele>
        <time>2026-07-09T07:28:17.000Z</time>
      </trkpt>
      <trkpt lat="45.8097" lon="1.89474">
        <ele>700.8</ele>
        <time>2026-07-09T07:28:18.000Z</time>
      </trkpt>
      <trkpt lat="45.80972" lon="1.89475">
        <ele>700.2</ele>
        <time>2026-07-09T07:28:19.000Z</time>
      </trkpt>
      <trkpt lat="45.80974" lon="1.89476">
        <ele>700.4</ele>
        <time>2026-07-09T07:28:20.000Z</time>
      </trkpt>
      <trkpt lat="45.80975" lon="1.89476">
        <ele>699.5</ele>
        <time>2026-07-09T07:28:21.000Z</time>
      </trkpt>
      <trkpt lat="45.80977" lon="1.89477">
        <ele>699.8</ele>
        <time>2026-07-09T07:28:22.000Z</time>
      </trkpt>
      <trkpt lat="45.80979" lon="1.89476">
        <ele>699.6</ele>
        <time>2026-07-09T07:28:23.000Z</time>
      </trkpt>
      <trkpt lat="45.8098" lon="1.89477">
        <ele>700.1</ele>
        <time>2026-07-09T07:28:24.000Z</time>
      </trkpt>
      <trkpt lat="45.80982" lon="1.89478">
        <ele>700.5</ele>
        <time>2026-07-09T07:28:25.000Z</time>
      </trkpt>
      <trkpt lat="45.80984" lon="1.89478">
        <ele>700.3</ele>
        <time>2026-07-09T07:28:26.000Z</time>
      </trkpt>
      <trkpt lat="45.80985" lon="1.89479">
        <ele>700.7</ele>
        <time>2026-07-09T07:28:27.000Z</time>
      </trkpt>
      <trkpt lat="45.80986" lon="1.89482">
        <ele>700.9</ele>
        <time>2026-07-09T07:28:28.000Z</time>
      </trkpt>
      <trkpt lat="45.80987" lon="1.89484">
        <ele>701.8</ele>
        <time>2026-07-09T07:28:29.000Z</time>
      </trkpt>
      <trkpt lat="45.80988" lon="1.89487">
        <ele>701.9</ele>
        <time>2026-07-09T07:28:30.000Z</time>
      </trkpt>
      <trkpt lat="45.80989" lon="1.89489">
        <ele>701.8</ele>
        <time>2026-07-09T07:28:31.000Z</time>
      </trkpt>
      <trkpt lat="45.8099" lon="1.89491">
        <ele>701.6</ele>
        <time>2026-07-09T07:28:32.000Z</time>
      </trkpt>
      <trkpt lat="45.80991" lon="1.89493">
        <ele>701.7</ele>
        <time>2026-07-09T07:28:33.000Z</time>
      </trkpt>
      <trkpt lat="45.80992" lon="1.89494">
        <ele>701.5</ele>
        <time>2026-07-09T07:28:34.000Z</time>
      </trkpt>
      <trkpt lat="45.80993" lon="1.89496">
        <ele>701</ele>
        <time>2026-07-09T07:28:35.000Z</time>
      </trkpt>
      <trkpt lat="45.80995" lon="1.89498">
        <ele>700.8</ele>
        <time>2026-07-09T07:28:36.000Z</time>
      </trkpt>
      <trkpt lat="45.80996" lon="1.89499">
        <ele>700.9</ele>
        <time>2026-07-09T07:28:37.000Z</time>
      </trkpt>
      <trkpt lat="45.80997" lon="1.89501">
        <ele>700.6</ele>
        <time>2026-07-09T07:28:38.000Z</time>
      </trkpt>
      <trkpt lat="45.81" lon="1.89502">
        <ele>699.4</ele>
        <time>2026-07-09T07:28:39.000Z</time>
      </trkpt>
      <trkpt lat="45.81001" lon="1.89503">
        <ele>699</ele>
        <time>2026-07-09T07:28:40.000Z</time>
      </trkpt>
      <trkpt lat="45.81003" lon="1.89503">
        <ele>699</ele>
        <time>2026-07-09T07:28:41.000Z</time>
      </trkpt>
      <trkpt lat="45.81005" lon="1.89504">
        <ele>700.1</ele>
        <time>2026-07-09T07:28:42.000Z</time>
      </trkpt>
      <trkpt lat="45.81007" lon="1.89504">
        <ele>700.7</ele>
        <time>2026-07-09T07:28:43.000Z</time>
      </trkpt>
      <trkpt lat="45.81008" lon="1.89504">
        <ele>699.9</ele>
        <time>2026-07-09T07:28:44.000Z</time>
      </trkpt>
      <trkpt lat="45.8101" lon="1.89504">
        <ele>700</ele>
        <time>2026-07-09T07:28:45.000Z</time>
      </trkpt>
      <trkpt lat="45.81012" lon="1.89504">
        <ele>701.5</ele>
        <time>2026-07-09T07:28:46.000Z</time>
      </trkpt>
      <trkpt lat="45.81013" lon="1.89504">
        <ele>701.2</ele>
        <time>2026-07-09T07:28:47.000Z</time>
      </trkpt>
      <trkpt lat="45.81015" lon="1.89504">
        <ele>702.3</ele>
        <time>2026-07-09T07:28:48.000Z</time>
      </trkpt>
      <trkpt lat="45.81017" lon="1.89505">
        <ele>702.2</ele>
        <time>2026-07-09T07:28:49.000Z</time>
      </trkpt>
      <trkpt lat="45.81018" lon="1.89505">
        <ele>702.6</ele>
        <time>2026-07-09T07:28:50.000Z</time>
      </trkpt>
      <trkpt lat="45.8102" lon="1.89506">
        <ele>702</ele>
        <time>2026-07-09T07:28:51.000Z</time>
      </trkpt>
      <trkpt lat="45.81021" lon="1.89506">
        <ele>701.9</ele>
        <time>2026-07-09T07:28:52.000Z</time>
      </trkpt>
      <trkpt lat="45.81023" lon="1.89506">
        <ele>701.6</ele>
        <time>2026-07-09T07:28:53.000Z</time>
      </trkpt>
      <trkpt lat="45.81025" lon="1.89506">
        <ele>701.4</ele>
        <time>2026-07-09T07:28:54.000Z</time>
      </trkpt>
      <trkpt lat="45.81026" lon="1.89505">
        <ele>701.7</ele>
        <time>2026-07-09T07:28:55.000Z</time>
      </trkpt>
      <trkpt lat="45.81028" lon="1.89505">
        <ele>701.5</ele>
        <time>2026-07-09T07:28:56.000Z</time>
      </trkpt>
      <trkpt lat="45.8103" lon="1.89504">
        <ele>701.8</ele>
        <time>2026-07-09T07:28:57.000Z</time>
      </trkpt>
      <trkpt lat="45.81032" lon="1.89503">
        <ele>701.8</ele>
        <time>2026-07-09T07:28:58.000Z</time>
      </trkpt>
      <trkpt lat="45.81035" lon="1.89503">
        <ele>701.9</ele>
        <time>2026-07-09T07:28:59.000Z</time>
      </trkpt>
      <trkpt lat="45.81037" lon="1.89502">
        <ele>701.5</ele>
        <time>2026-07-09T07:29:00.000Z</time>
      </trkpt>
      <trkpt lat="45.81038" lon="1.89501">
        <ele>700.2</ele>
        <time>2026-07-09T07:29:01.000Z</time>
      </trkpt>
      <trkpt lat="45.8104" lon="1.895">
        <ele>701.6</ele>
        <time>2026-07-09T07:29:02.000Z</time>
      </trkpt>
      <trkpt lat="45.81041" lon="1.895">
        <ele>701</ele>
        <time>2026-07-09T07:29:03.000Z</time>
      </trkpt>
      <trkpt lat="45.81042" lon="1.89499">
        <ele>701.5</ele>
        <time>2026-07-09T07:29:04.000Z</time>
      </trkpt>
      <trkpt lat="45.81044" lon="1.89497">
        <ele>701.4</ele>
        <time>2026-07-09T07:29:05.000Z</time>
      </trkpt>
      <trkpt lat="45.81046" lon="1.89497">
        <ele>701.2</ele>
        <time>2026-07-09T07:29:06.000Z</time>
      </trkpt>
      <trkpt lat="45.81047" lon="1.89496">
        <ele>701.1</ele>
        <time>2026-07-09T07:29:07.000Z</time>
      </trkpt>
      <trkpt lat="45.81049" lon="1.89494">
        <ele>700.7</ele>
        <time>2026-07-09T07:29:08.000Z</time>
      </trkpt>
      <trkpt lat="45.81051" lon="1.89492">
        <ele>699.4</ele>
        <time>2026-07-09T07:29:09.000Z</time>
      </trkpt>
      <trkpt lat="45.81052" lon="1.89491">
        <ele>699.7</ele>
        <time>2026-07-09T07:29:10.000Z</time>
      </trkpt>
      <trkpt lat="45.81053" lon="1.89489">
        <ele>699.2</ele>
        <time>2026-07-09T07:29:11.000Z</time>
      </trkpt>
      <trkpt lat="45.81054" lon="1.89488">
        <ele>698.9</ele>
        <time>2026-07-09T07:29:12.000Z</time>
      </trkpt>
      <trkpt lat="45.81056" lon="1.89487">
        <ele>698.3</ele>
        <time>2026-07-09T07:29:13.000Z</time>
      </trkpt>
      <trkpt lat="45.81057" lon="1.89486">
        <ele>698.1</ele>
        <time>2026-07-09T07:29:14.000Z</time>
      </trkpt>
      <trkpt lat="45.81058" lon="1.89485">
        <ele>697.9</ele>
        <time>2026-07-09T07:29:15.000Z</time>
      </trkpt>
      <trkpt lat="45.81059" lon="1.89483">
        <ele>698.4</ele>
        <time>2026-07-09T07:29:16.000Z</time>
      </trkpt>
      <trkpt lat="45.8106" lon="1.89481">
        <ele>698.7</ele>
        <time>2026-07-09T07:29:17.000Z</time>
      </trkpt>
      <trkpt lat="45.81061" lon="1.89479">
        <ele>699.4</ele>
        <time>2026-07-09T07:29:18.000Z</time>
      </trkpt>
      <trkpt lat="45.81062" lon="1.89476">
        <ele>699.9</ele>
        <time>2026-07-09T07:29:19.000Z</time>
      </trkpt>
      <trkpt lat="45.81063" lon="1.89474">
        <ele>699.8</ele>
        <time>2026-07-09T07:29:20.000Z</time>
      </trkpt>
      <trkpt lat="45.81064" lon="1.89472">
        <ele>699.9</ele>
        <time>2026-07-09T07:29:21.000Z</time>
      </trkpt>
      <trkpt lat="45.81065" lon="1.8947">
        <ele>700.4</ele>
        <time>2026-07-09T07:29:22.000Z</time>
      </trkpt>
      <trkpt lat="45.81066" lon="1.89469">
        <ele>701.4</ele>
        <time>2026-07-09T07:29:23.000Z</time>
      </trkpt>
      <trkpt lat="45.81067" lon="1.89468">
        <ele>702.6</ele>
        <time>2026-07-09T07:29:24.000Z</time>
      </trkpt>
      <trkpt lat="45.81069" lon="1.89467">
        <ele>702.4</ele>
        <time>2026-07-09T07:29:25.000Z</time>
      </trkpt>
      <trkpt lat="45.8107" lon="1.89466">
        <ele>703.9</ele>
        <time>2026-07-09T07:29:26.000Z</time>
      </trkpt>
      <trkpt lat="45.81071" lon="1.89465">
        <ele>703.9</ele>
        <time>2026-07-09T07:29:27.000Z</time>
      </trkpt>
      <trkpt lat="45.81073" lon="1.89464">
        <ele>703.8</ele>
        <time>2026-07-09T07:29:28.000Z</time>
      </trkpt>
      <trkpt lat="45.81074" lon="1.89462">
        <ele>703.3</ele>
        <time>2026-07-09T07:29:29.000Z</time>
      </trkpt>
      <trkpt lat="45.81075" lon="1.8946">
        <ele>702.9</ele>
        <time>2026-07-09T07:29:30.000Z</time>
      </trkpt>
      <trkpt lat="45.81076" lon="1.89459">
        <ele>703.3</ele>
        <time>2026-07-09T07:29:31.000Z</time>
      </trkpt>
      <trkpt lat="45.81077" lon="1.89457">
        <ele>703.5</ele>
        <time>2026-07-09T07:29:32.000Z</time>
      </trkpt>
      <trkpt lat="45.81078" lon="1.89455">
        <ele>703.7</ele>
        <time>2026-07-09T07:29:33.000Z</time>
      </trkpt>
      <trkpt lat="45.81079" lon="1.89454">
        <ele>704.1</ele>
        <time>2026-07-09T07:29:34.000Z</time>
      </trkpt>
      <trkpt lat="45.8108" lon="1.89452">
        <ele>704.6</ele>
        <time>2026-07-09T07:29:35.000Z</time>
      </trkpt>
      <trkpt lat="45.81081" lon="1.8945">
        <ele>705.7</ele>
        <time>2026-07-09T07:29:36.000Z</time>
      </trkpt>
      <trkpt lat="45.81082" lon="1.89449">
        <ele>706.3</ele>
        <time>2026-07-09T07:29:37.000Z</time>
      </trkpt>
      <trkpt lat="45.81083" lon="1.89446">
        <ele>705.9</ele>
        <time>2026-07-09T07:29:38.000Z</time>
      </trkpt>
      <trkpt lat="45.81084" lon="1.89444">
        <ele>705</ele>
        <time>2026-07-09T07:29:39.000Z</time>
      </trkpt>
      <trkpt lat="45.81085" lon="1.89441">
        <ele>706</ele>
        <time>2026-07-09T07:29:40.000Z</time>
      </trkpt>
      <trkpt lat="45.81086" lon="1.89439">
        <ele>706.1</ele>
        <time>2026-07-09T07:29:41.000Z</time>
      </trkpt>
      <trkpt lat="45.81087" lon="1.89437">
        <ele>705.8</ele>
        <time>2026-07-09T07:29:42.000Z</time>
      </trkpt>
      <trkpt lat="45.81088" lon="1.89435">
        <ele>705.8</ele>
        <time>2026-07-09T07:29:43.000Z</time>
      </trkpt>
      <trkpt lat="45.81089" lon="1.89433">
        <ele>705.9</ele>
        <time>2026-07-09T07:29:44.000Z</time>
      </trkpt>
      <trkpt lat="45.8109" lon="1.89432">
        <ele>706.6</ele>
        <time>2026-07-09T07:29:45.000Z</time>
      </trkpt>
      <trkpt lat="45.81091" lon="1.89431">
        <ele>705.7</ele>
        <time>2026-07-09T07:29:46.000Z</time>
      </trkpt>
      <trkpt lat="45.81092" lon="1.8943">
        <ele>706.1</ele>
        <time>2026-07-09T07:29:47.000Z</time>
      </trkpt>
      <trkpt lat="45.81094" lon="1.89428">
        <ele>705.5</ele>
        <time>2026-07-09T07:29:48.000Z</time>
      </trkpt>
      <trkpt lat="45.81094" lon="1.89427">
        <ele>705.7</ele>
        <time>2026-07-09T07:29:49.000Z</time>
      </trkpt>
      <trkpt lat="45.81095" lon="1.89426">
        <ele>706.2</ele>
        <time>2026-07-09T07:29:50.000Z</time>
      </trkpt>
      <trkpt lat="45.81096" lon="1.89425">
        <ele>706.1</ele>
        <time>2026-07-09T07:29:51.000Z</time>
      </trkpt>
      <trkpt lat="45.81098" lon="1.89423">
        <ele>705.5</ele>
        <time>2026-07-09T07:29:52.000Z</time>
      </trkpt>
      <trkpt lat="45.81099" lon="1.89422">
        <ele>704.5</ele>
        <time>2026-07-09T07:29:53.000Z</time>
      </trkpt>
      <trkpt lat="45.811" lon="1.8942">
        <ele>705.9</ele>
        <time>2026-07-09T07:29:54.000Z</time>
      </trkpt>
      <trkpt lat="45.811" lon="1.89418">
        <ele>707.2</ele>
        <time>2026-07-09T07:29:55.000Z</time>
      </trkpt>
      <trkpt lat="45.81101" lon="1.89416">
        <ele>706.6</ele>
        <time>2026-07-09T07:29:56.000Z</time>
      </trkpt>
      <trkpt lat="45.81102" lon="1.89414">
        <ele>706.6</ele>
        <time>2026-07-09T07:29:57.000Z</time>
      </trkpt>
      <trkpt lat="45.81103" lon="1.89412">
        <ele>706.5</ele>
        <time>2026-07-09T07:29:58.000Z</time>
      </trkpt>
      <trkpt lat="45.81104" lon="1.8941">
        <ele>706.4</ele>
        <time>2026-07-09T07:29:59.000Z</time>
      </trkpt>
      <trkpt lat="45.81104" lon="1.89408">
        <ele>705.7</ele>
        <time>2026-07-09T07:30:00.000Z</time>
      </trkpt>
      <trkpt lat="45.81105" lon="1.89406">
        <ele>705.9</ele>
        <time>2026-07-09T07:30:01.000Z</time>
      </trkpt>
      <trkpt lat="45.81107" lon="1.89403">
        <ele>705.9</ele>
        <time>2026-07-09T07:30:02.000Z</time>
      </trkpt>
      <trkpt lat="45.81107" lon="1.89401">
        <ele>705.8</ele>
        <time>2026-07-09T07:30:03.000Z</time>
      </trkpt>
      <trkpt lat="45.81108" lon="1.89399">
        <ele>705.9</ele>
        <time>2026-07-09T07:30:04.000Z</time>
      </trkpt>
      <trkpt lat="45.81108" lon="1.89397">
        <ele>705.9</ele>
        <time>2026-07-09T07:30:05.000Z</time>
      </trkpt>
      <trkpt lat="45.81109" lon="1.89395">
        <ele>706.4</ele>
        <time>2026-07-09T07:30:06.000Z</time>
      </trkpt>
      <trkpt lat="45.8111" lon="1.89394">
        <ele>707.4</ele>
        <time>2026-07-09T07:30:07.000Z</time>
      </trkpt>
      <trkpt lat="45.81111" lon="1.89392">
        <ele>708.1</ele>
        <time>2026-07-09T07:30:08.000Z</time>
      </trkpt>
      <trkpt lat="45.81111" lon="1.89391">
        <ele>707.7</ele>
        <time>2026-07-09T07:30:09.000Z</time>
      </trkpt>
      <trkpt lat="45.81112" lon="1.89388">
        <ele>708.4</ele>
        <time>2026-07-09T07:30:10.000Z</time>
      </trkpt>
      <trkpt lat="45.81113" lon="1.89386">
        <ele>708.7</ele>
        <time>2026-07-09T07:30:11.000Z</time>
      </trkpt>
      <trkpt lat="45.81114" lon="1.89385">
        <ele>708.6</ele>
        <time>2026-07-09T07:30:12.000Z</time>
      </trkpt>
      <trkpt lat="45.81114" lon="1.89384">
        <ele>709.5</ele>
        <time>2026-07-09T07:30:13.000Z</time>
      </trkpt>
      <trkpt lat="45.81115" lon="1.89382">
        <ele>710.3</ele>
        <time>2026-07-09T07:30:14.000Z</time>
      </trkpt>
      <trkpt lat="45.81116" lon="1.89379">
        <ele>710.6</ele>
        <time>2026-07-09T07:30:15.000Z</time>
      </trkpt>
      <trkpt lat="45.81116" lon="1.89377">
        <ele>710.7</ele>
        <time>2026-07-09T07:30:16.000Z</time>
      </trkpt>
      <trkpt lat="45.81117" lon="1.89375">
        <ele>713.2</ele>
        <time>2026-07-09T07:30:17.000Z</time>
      </trkpt>
      <trkpt lat="45.81118" lon="1.89373">
        <ele>712.6</ele>
        <time>2026-07-09T07:30:18.000Z</time>
      </trkpt>
      <trkpt lat="45.81118" lon="1.89372">
        <ele>712.3</ele>
        <time>2026-07-09T07:30:19.000Z</time>
      </trkpt>
      <trkpt lat="45.81119" lon="1.8937">
        <ele>711.5</ele>
        <time>2026-07-09T07:30:20.000Z</time>
      </trkpt>
      <trkpt lat="45.8112" lon="1.89368">
        <ele>711.6</ele>
        <time>2026-07-09T07:30:21.000Z</time>
      </trkpt>
      <trkpt lat="45.8112" lon="1.89366">
        <ele>711.3</ele>
        <time>2026-07-09T07:30:22.000Z</time>
      </trkpt>
      <trkpt lat="45.81121" lon="1.89364">
        <ele>710.3</ele>
        <time>2026-07-09T07:30:23.000Z</time>
      </trkpt>
      <trkpt lat="45.81121" lon="1.89362">
        <ele>710.1</ele>
        <time>2026-07-09T07:30:24.000Z</time>
      </trkpt>
      <trkpt lat="45.81122" lon="1.8936">
        <ele>710.1</ele>
        <time>2026-07-09T07:30:25.000Z</time>
      </trkpt>
      <trkpt lat="45.81122" lon="1.89357">
        <ele>710.1</ele>
        <time>2026-07-09T07:30:26.000Z</time>
      </trkpt>
      <trkpt lat="45.81122" lon="1.89354">
        <ele>710.4</ele>
        <time>2026-07-09T07:30:27.000Z</time>
      </trkpt>
      <trkpt lat="45.81122" lon="1.89352">
        <ele>709.5</ele>
        <time>2026-07-09T07:30:28.000Z</time>
      </trkpt>
      <trkpt lat="45.81121" lon="1.8935">
        <ele>708.8</ele>
        <time>2026-07-09T07:30:29.000Z</time>
      </trkpt>
      <trkpt lat="45.81122" lon="1.89348">
        <ele>708.7</ele>
        <time>2026-07-09T07:30:30.000Z</time>
      </trkpt>
      <trkpt lat="45.81122" lon="1.89345">
        <ele>709</ele>
        <time>2026-07-09T07:30:31.000Z</time>
      </trkpt>
      <trkpt lat="45.81121" lon="1.89342">
        <ele>708.4</ele>
        <time>2026-07-09T07:30:32.000Z</time>
      </trkpt>
      <trkpt lat="45.81122" lon="1.89338">
        <ele>708.8</ele>
        <time>2026-07-09T07:30:33.000Z</time>
      </trkpt>
      <trkpt lat="45.81122" lon="1.89335">
        <ele>709.5</ele>
        <time>2026-07-09T07:30:34.000Z</time>
      </trkpt>
      <trkpt lat="45.81123" lon="1.89334">
        <ele>712.1</ele>
        <time>2026-07-09T07:30:35.000Z</time>
      </trkpt>
      <trkpt lat="45.81125" lon="1.89332">
        <ele>710.4</ele>
        <time>2026-07-09T07:30:36.000Z</time>
      </trkpt>
      <trkpt lat="45.81126" lon="1.8933">
        <ele>710.7</ele>
        <time>2026-07-09T07:30:37.000Z</time>
      </trkpt>
      <trkpt lat="45.81128" lon="1.89328">
        <ele>711.5</ele>
        <time>2026-07-09T07:30:38.000Z</time>
      </trkpt>
      <trkpt lat="45.81129" lon="1.89326">
        <ele>711.6</ele>
        <time>2026-07-09T07:30:39.000Z</time>
      </trkpt>
      <trkpt lat="45.8113" lon="1.89324">
        <ele>711.9</ele>
        <time>2026-07-09T07:30:40.000Z</time>
      </trkpt>
      <trkpt lat="45.81132" lon="1.89321">
        <ele>713</ele>
        <time>2026-07-09T07:30:41.000Z</time>
      </trkpt>
      <trkpt lat="45.81136" lon="1.8932">
        <ele>713.8</ele>
        <time>2026-07-09T07:30:42.000Z</time>
      </trkpt>
      <trkpt lat="45.81138" lon="1.8932">
        <ele>715.1</ele>
        <time>2026-07-09T07:30:43.000Z</time>
      </trkpt>
      <trkpt lat="45.81141" lon="1.89321">
        <ele>714.8</ele>
        <time>2026-07-09T07:30:44.000Z</time>
      </trkpt>
      <trkpt lat="45.81143" lon="1.89321">
        <ele>715.5</ele>
        <time>2026-07-09T07:30:45.000Z</time>
      </trkpt>
      <trkpt lat="45.81145" lon="1.89321">
        <ele>715.9</ele>
        <time>2026-07-09T07:30:46.000Z</time>
      </trkpt>
      <trkpt lat="45.81147" lon="1.89322">
        <ele>716.1</ele>
        <time>2026-07-09T07:30:47.000Z</time>
      </trkpt>
      <trkpt lat="45.8115" lon="1.89322">
        <ele>714.9</ele>
        <time>2026-07-09T07:30:48.000Z</time>
      </trkpt>
      <trkpt lat="45.81151" lon="1.89322">
        <ele>715.7</ele>
        <time>2026-07-09T07:30:49.000Z</time>
      </trkpt>
      <trkpt lat="45.81153" lon="1.89322">
        <ele>716.1</ele>
        <time>2026-07-09T07:30:50.000Z</time>
      </trkpt>
      <trkpt lat="45.81154" lon="1.89322">
        <ele>718</ele>
        <time>2026-07-09T07:30:51.000Z</time>
      </trkpt>
      <trkpt lat="45.81156" lon="1.89322">
        <ele>718</ele>
        <time>2026-07-09T07:30:52.000Z</time>
      </trkpt>
      <trkpt lat="45.81157" lon="1.89321">
        <ele>717.6</ele>
        <time>2026-07-09T07:30:53.000Z</time>
      </trkpt>
      <trkpt lat="45.81158" lon="1.89318">
        <ele>717.3</ele>
        <time>2026-07-09T07:30:54.000Z</time>
      </trkpt>
      <trkpt lat="45.81159" lon="1.89316">
        <ele>716.9</ele>
        <time>2026-07-09T07:30:55.000Z</time>
      </trkpt>
      <trkpt lat="45.8116" lon="1.89314">
        <ele>717.6</ele>
        <time>2026-07-09T07:30:56.000Z</time>
      </trkpt>
      <trkpt lat="45.81162" lon="1.89312">
        <ele>717.2</ele>
        <time>2026-07-09T07:30:57.000Z</time>
      </trkpt>
      <trkpt lat="45.81163" lon="1.89311">
        <ele>716.9</ele>
        <time>2026-07-09T07:30:58.000Z</time>
      </trkpt>
      <trkpt lat="45.81164" lon="1.89309">
        <ele>717.7</ele>
        <time>2026-07-09T07:30:59.000Z</time>
      </trkpt>
      <trkpt lat="45.81164" lon="1.89306">
        <ele>716.8</ele>
        <time>2026-07-09T07:31:00.000Z</time>
      </trkpt>
      <trkpt lat="45.81164" lon="1.89303">
        <ele>716.1</ele>
        <time>2026-07-09T07:31:01.000Z</time>
      </trkpt>
      <trkpt lat="45.81164" lon="1.89301">
        <ele>714.6</ele>
        <time>2026-07-09T07:31:02.000Z</time>
      </trkpt>
      <trkpt lat="45.81163" lon="1.89299">
        <ele>714.1</ele>
        <time>2026-07-09T07:31:03.000Z</time>
      </trkpt>
      <trkpt lat="45.81162" lon="1.89297">
        <ele>714.5</ele>
        <time>2026-07-09T07:31:04.000Z</time>
      </trkpt>
      <trkpt lat="45.81162" lon="1.89295">
        <ele>714.5</ele>
        <time>2026-07-09T07:31:05.000Z</time>
      </trkpt>
      <trkpt lat="45.81161" lon="1.89292">
        <ele>714.3</ele>
        <time>2026-07-09T07:31:06.000Z</time>
      </trkpt>
      <trkpt lat="45.8116" lon="1.89291">
        <ele>714.4</ele>
        <time>2026-07-09T07:31:07.000Z</time>
      </trkpt>
      <trkpt lat="45.81159" lon="1.89289">
        <ele>713.8</ele>
        <time>2026-07-09T07:31:08.000Z</time>
      </trkpt>
      <trkpt lat="45.81158" lon="1.89287">
        <ele>713.1</ele>
        <time>2026-07-09T07:31:09.000Z</time>
      </trkpt>
      <trkpt lat="45.81156" lon="1.89286">
        <ele>713.7</ele>
        <time>2026-07-09T07:31:10.000Z</time>
      </trkpt>
      <trkpt lat="45.81154" lon="1.89285">
        <ele>713.9</ele>
        <time>2026-07-09T07:31:11.000Z</time>
      </trkpt>
      <trkpt lat="45.81152" lon="1.89283">
        <ele>713.9</ele>
        <time>2026-07-09T07:31:12.000Z</time>
      </trkpt>
      <trkpt lat="45.81149" lon="1.89282">
        <ele>712.8</ele>
        <time>2026-07-09T07:31:13.000Z</time>
      </trkpt>
      <trkpt lat="45.81148" lon="1.89282">
        <ele>712.8</ele>
        <time>2026-07-09T07:31:14.000Z</time>
      </trkpt>
      <trkpt lat="45.81146" lon="1.89282">
        <ele>712</ele>
        <time>2026-07-09T07:31:15.000Z</time>
      </trkpt>
      <trkpt lat="45.81144" lon="1.8928">
        <ele>711.6</ele>
        <time>2026-07-09T07:31:16.000Z</time>
      </trkpt>
      <trkpt lat="45.81143" lon="1.89278">
        <ele>710.7</ele>
        <time>2026-07-09T07:31:17.000Z</time>
      </trkpt>
      <trkpt lat="45.81142" lon="1.89276">
        <ele>710.5</ele>
        <time>2026-07-09T07:31:18.000Z</time>
      </trkpt>
      <trkpt lat="45.81141" lon="1.89273">
        <ele>712.6</ele>
        <time>2026-07-09T07:31:19.000Z</time>
      </trkpt>
      <trkpt lat="45.81141" lon="1.89268">
        <ele>712.9</ele>
        <time>2026-07-09T07:31:20.000Z</time>
      </trkpt>
      <trkpt lat="45.81141" lon="1.89264">
        <ele>714.1</ele>
        <time>2026-07-09T07:31:21.000Z</time>
      </trkpt>
      <trkpt lat="45.81141" lon="1.89262">
        <ele>713.1</ele>
        <time>2026-07-09T07:31:22.000Z</time>
      </trkpt>
      <trkpt lat="45.81141" lon="1.89259">
        <ele>712.5</ele>
        <time>2026-07-09T07:31:23.000Z</time>
      </trkpt>
      <trkpt lat="45.81141" lon="1.89256">
        <ele>712.4</ele>
        <time>2026-07-09T07:31:24.000Z</time>
      </trkpt>
      <trkpt lat="45.81141" lon="1.89253">
        <ele>712.5</ele>
        <time>2026-07-09T07:31:25.000Z</time>
      </trkpt>
      <trkpt lat="45.81141" lon="1.89251">
        <ele>712.6</ele>
        <time>2026-07-09T07:31:26.000Z</time>
      </trkpt>
      <trkpt lat="45.81141" lon="1.89248">
        <ele>712.7</ele>
        <time>2026-07-09T07:31:27.000Z</time>
      </trkpt>
      <trkpt lat="45.8114" lon="1.89246">
        <ele>712.4</ele>
        <time>2026-07-09T07:31:28.000Z</time>
      </trkpt>
      <trkpt lat="45.8114" lon="1.89245">
        <ele>713.6</ele>
        <time>2026-07-09T07:31:29.000Z</time>
      </trkpt>
      <trkpt lat="45.81141" lon="1.89244">
        <ele>714.3</ele>
        <time>2026-07-09T07:31:30.000Z</time>
      </trkpt>
      <trkpt lat="45.81142" lon="1.89242">
        <ele>713.9</ele>
        <time>2026-07-09T07:31:31.000Z</time>
      </trkpt>
      <trkpt lat="45.81144" lon="1.8924">
        <ele>712.6</ele>
        <time>2026-07-09T07:31:32.000Z</time>
      </trkpt>
      <trkpt lat="45.81145" lon="1.89238">
        <ele>712.7</ele>
        <time>2026-07-09T07:31:33.000Z</time>
      </trkpt>
      <trkpt lat="45.81146" lon="1.89237">
        <ele>713.4</ele>
        <time>2026-07-09T07:31:34.000Z</time>
      </trkpt>
      <trkpt lat="45.81146" lon="1.89235">
        <ele>714.1</ele>
        <time>2026-07-09T07:31:35.000Z</time>
      </trkpt>
      <trkpt lat="45.81147" lon="1.89233">
        <ele>715.3</ele>
        <time>2026-07-09T07:31:36.000Z</time>
      </trkpt>
      <trkpt lat="45.81148" lon="1.89232">
        <ele>715.4</ele>
        <time>2026-07-09T07:31:37.000Z</time>
      </trkpt>
      <trkpt lat="45.81148" lon="1.89231">
        <ele>716.1</ele>
        <time>2026-07-09T07:31:38.000Z</time>
      </trkpt>
      <trkpt lat="45.81148" lon="1.89229">
        <ele>716.6</ele>
        <time>2026-07-09T07:31:39.000Z</time>
      </trkpt>
      <trkpt lat="45.81148" lon="1.89226">
        <ele>715.8</ele>
        <time>2026-07-09T07:31:40.000Z</time>
      </trkpt>
      <trkpt lat="45.81149" lon="1.89224">
        <ele>715.6</ele>
        <time>2026-07-09T07:31:41.000Z</time>
      </trkpt>
      <trkpt lat="45.8115" lon="1.89223">
        <ele>715.6</ele>
        <time>2026-07-09T07:31:42.000Z</time>
      </trkpt>
      <trkpt lat="45.81151" lon="1.89221">
        <ele>714.7</ele>
        <time>2026-07-09T07:31:43.000Z</time>
      </trkpt>
      <trkpt lat="45.81152" lon="1.8922">
        <ele>715.5</ele>
        <time>2026-07-09T07:31:44.000Z</time>
      </trkpt>
      <trkpt lat="45.81153" lon="1.89218">
        <ele>714.5</ele>
        <time>2026-07-09T07:31:45.000Z</time>
      </trkpt>
      <trkpt lat="45.81154" lon="1.89217">
        <ele>714</ele>
        <time>2026-07-09T07:31:46.000Z</time>
      </trkpt>
      <trkpt lat="45.81155" lon="1.89216">
        <ele>714.3</ele>
        <time>2026-07-09T07:31:47.000Z</time>
      </trkpt>
      <trkpt lat="45.81156" lon="1.89214">
        <ele>715.3</ele>
        <time>2026-07-09T07:31:48.000Z</time>
      </trkpt>
      <trkpt lat="45.81158" lon="1.89212">
        <ele>713.8</ele>
        <time>2026-07-09T07:31:49.000Z</time>
      </trkpt>
      <trkpt lat="45.81159" lon="1.89211">
        <ele>713.7</ele>
        <time>2026-07-09T07:31:50.000Z</time>
      </trkpt>
      <trkpt lat="45.8116" lon="1.89209">
        <ele>714</ele>
        <time>2026-07-09T07:31:51.000Z</time>
      </trkpt>
      <trkpt lat="45.81161" lon="1.89208">
        <ele>713.8</ele>
        <time>2026-07-09T07:31:52.000Z</time>
      </trkpt>
      <trkpt lat="45.81162" lon="1.89206">
        <ele>714</ele>
        <time>2026-07-09T07:31:53.000Z</time>
      </trkpt>
      <trkpt lat="45.81163" lon="1.89204">
        <ele>713.2</ele>
        <time>2026-07-09T07:31:54.000Z</time>
      </trkpt>
      <trkpt lat="45.81164" lon="1.89202">
        <ele>713</ele>
        <time>2026-07-09T07:31:55.000Z</time>
      </trkpt>
      <trkpt lat="45.81165" lon="1.892">
        <ele>713.8</ele>
        <time>2026-07-09T07:31:56.000Z</time>
      </trkpt>
      <trkpt lat="45.81166" lon="1.89198">
        <ele>713.8</ele>
        <time>2026-07-09T07:31:57.000Z</time>
      </trkpt>
      <trkpt lat="45.81167" lon="1.89196">
        <ele>712.9</ele>
        <time>2026-07-09T07:31:58.000Z</time>
      </trkpt>
      <trkpt lat="45.81167" lon="1.89194">
        <ele>713.3</ele>
        <time>2026-07-09T07:31:59.000Z</time>
      </trkpt>
      <trkpt lat="45.81168" lon="1.89193">
        <ele>713.5</ele>
        <time>2026-07-09T07:32:00.000Z</time>
      </trkpt>
      <trkpt lat="45.81169" lon="1.89191">
        <ele>714.1</ele>
        <time>2026-07-09T07:32:01.000Z</time>
      </trkpt>
      <trkpt lat="45.8117" lon="1.89188">
        <ele>714.2</ele>
        <time>2026-07-09T07:32:02.000Z</time>
      </trkpt>
      <trkpt lat="45.81171" lon="1.89186">
        <ele>714</ele>
        <time>2026-07-09T07:32:03.000Z</time>
      </trkpt>
      <trkpt lat="45.81172" lon="1.89183">
        <ele>713.7</ele>
        <time>2026-07-09T07:32:04.000Z</time>
      </trkpt>
      <trkpt lat="45.81173" lon="1.89182">
        <ele>714.3</ele>
        <time>2026-07-09T07:32:05.000Z</time>
      </trkpt>
      <trkpt lat="45.81175" lon="1.8918">
        <ele>713.6</ele>
        <time>2026-07-09T07:32:06.000Z</time>
      </trkpt>
      <trkpt lat="45.81176" lon="1.89178">
        <ele>713.2</ele>
        <time>2026-07-09T07:32:07.000Z</time>
      </trkpt>
      <trkpt lat="45.81177" lon="1.89176">
        <ele>714.6</ele>
        <time>2026-07-09T07:32:08.000Z</time>
      </trkpt>
      <trkpt lat="45.81179" lon="1.89174">
        <ele>714.3</ele>
        <time>2026-07-09T07:32:09.000Z</time>
      </trkpt>
      <trkpt lat="45.8118" lon="1.89174">
        <ele>714.4</ele>
        <time>2026-07-09T07:32:10.000Z</time>
      </trkpt>
      <trkpt lat="45.81182" lon="1.89174">
        <ele>715.1</ele>
        <time>2026-07-09T07:32:11.000Z</time>
      </trkpt>
      <trkpt lat="45.81184" lon="1.89173">
        <ele>715.2</ele>
        <time>2026-07-09T07:32:12.000Z</time>
      </trkpt>
      <trkpt lat="45.81186" lon="1.89173">
        <ele>715.7</ele>
        <time>2026-07-09T07:32:13.000Z</time>
      </trkpt>
      <trkpt lat="45.81188" lon="1.89173">
        <ele>715.9</ele>
        <time>2026-07-09T07:32:14.000Z</time>
      </trkpt>
      <trkpt lat="45.81189" lon="1.89174">
        <ele>716</ele>
        <time>2026-07-09T07:32:15.000Z</time>
      </trkpt>
      <trkpt lat="45.81191" lon="1.89173">
        <ele>716.8</ele>
        <time>2026-07-09T07:32:16.000Z</time>
      </trkpt>
      <trkpt lat="45.81192" lon="1.89173">
        <ele>716.1</ele>
        <time>2026-07-09T07:32:17.000Z</time>
      </trkpt>
      <trkpt lat="45.81194" lon="1.89173">
        <ele>716.6</ele>
        <time>2026-07-09T07:32:18.000Z</time>
      </trkpt>
      <trkpt lat="45.81195" lon="1.89173">
        <ele>715.9</ele>
        <time>2026-07-09T07:32:19.000Z</time>
      </trkpt>
      <trkpt lat="45.81197" lon="1.89173">
        <ele>715</ele>
        <time>2026-07-09T07:32:20.000Z</time>
      </trkpt>
      <trkpt lat="45.81198" lon="1.89173">
        <ele>715.2</ele>
        <time>2026-07-09T07:32:21.000Z</time>
      </trkpt>
      <trkpt lat="45.812" lon="1.89172">
        <ele>716.3</ele>
        <time>2026-07-09T07:32:22.000Z</time>
      </trkpt>
      <trkpt lat="45.81201" lon="1.89172">
        <ele>716.7</ele>
        <time>2026-07-09T07:32:23.000Z</time>
      </trkpt>
      <trkpt lat="45.81202" lon="1.89172">
        <ele>716.4</ele>
        <time>2026-07-09T07:32:24.000Z</time>
      </trkpt>
      <trkpt lat="45.81204" lon="1.89171">
        <ele>715.2</ele>
        <time>2026-07-09T07:32:25.000Z</time>
      </trkpt>
      <trkpt lat="45.81205" lon="1.8917">
        <ele>714</ele>
        <time>2026-07-09T07:32:26.000Z</time>
      </trkpt>
      <trkpt lat="45.81207" lon="1.89169">
        <ele>712.7</ele>
        <time>2026-07-09T07:32:27.000Z</time>
      </trkpt>
      <trkpt lat="45.81208" lon="1.89169">
        <ele>712.2</ele>
        <time>2026-07-09T07:32:28.000Z</time>
      </trkpt>
      <trkpt lat="45.8121" lon="1.89168">
        <ele>712.8</ele>
        <time>2026-07-09T07:32:29.000Z</time>
      </trkpt>
      <trkpt lat="45.81212" lon="1.89167">
        <ele>712.6</ele>
        <time>2026-07-09T07:32:30.000Z</time>
      </trkpt>
      <trkpt lat="45.81213" lon="1.89167">
        <ele>713.6</ele>
        <time>2026-07-09T07:32:31.000Z</time>
      </trkpt>
      <trkpt lat="45.81214" lon="1.89166">
        <ele>714.5</ele>
        <time>2026-07-09T07:32:32.000Z</time>
      </trkpt>
      <trkpt lat="45.81216" lon="1.89164">
        <ele>715.6</ele>
        <time>2026-07-09T07:32:33.000Z</time>
      </trkpt>
      <trkpt lat="45.81218" lon="1.89163">
        <ele>717.6</ele>
        <time>2026-07-09T07:32:34.000Z</time>
      </trkpt>
      <trkpt lat="45.8122" lon="1.89162">
        <ele>718.5</ele>
        <time>2026-07-09T07:32:35.000Z</time>
      </trkpt>
      <trkpt lat="45.81221" lon="1.8916">
        <ele>719</ele>
        <time>2026-07-09T07:32:36.000Z</time>
      </trkpt>
      <trkpt lat="45.81223" lon="1.89158">
        <ele>719.4</ele>
        <time>2026-07-09T07:32:37.000Z</time>
      </trkpt>
      <trkpt lat="45.81225" lon="1.89157">
        <ele>720.3</ele>
        <time>2026-07-09T07:32:38.000Z</time>
      </trkpt>
      <trkpt lat="45.81227" lon="1.89155">
        <ele>721.3</ele>
        <time>2026-07-09T07:32:39.000Z</time>
      </trkpt>
      <trkpt lat="45.81229" lon="1.89154">
        <ele>721.8</ele>
        <time>2026-07-09T07:32:40.000Z</time>
      </trkpt>
      <trkpt lat="45.81231" lon="1.89152">
        <ele>722</ele>
        <time>2026-07-09T07:32:41.000Z</time>
      </trkpt>
      <trkpt lat="45.81233" lon="1.89152">
        <ele>721.7</ele>
        <time>2026-07-09T07:32:42.000Z</time>
      </trkpt>
      <trkpt lat="45.81234" lon="1.89151">
        <ele>722.2</ele>
        <time>2026-07-09T07:32:43.000Z</time>
      </trkpt>
      <trkpt lat="45.81236" lon="1.8915">
        <ele>723.4</ele>
        <time>2026-07-09T07:32:44.000Z</time>
      </trkpt>
      <trkpt lat="45.81238" lon="1.8915">
        <ele>723.7</ele>
        <time>2026-07-09T07:32:45.000Z</time>
      </trkpt>
      <trkpt lat="45.81241" lon="1.89149">
        <ele>723.5</ele>
        <time>2026-07-09T07:32:46.000Z</time>
      </trkpt>
      <trkpt lat="45.81243" lon="1.89148">
        <ele>724</ele>
        <time>2026-07-09T07:32:47.000Z</time>
      </trkpt>
      <trkpt lat="45.81245" lon="1.89148">
        <ele>723.9</ele>
        <time>2026-07-09T07:32:48.000Z</time>
      </trkpt>
      <trkpt lat="45.81247" lon="1.89147">
        <ele>723.8</ele>
        <time>2026-07-09T07:32:49.000Z</time>
      </trkpt>
      <trkpt lat="45.8125" lon="1.89146">
        <ele>723.9</ele>
        <time>2026-07-09T07:32:50.000Z</time>
      </trkpt>
      <trkpt lat="45.81251" lon="1.89145">
        <ele>723.4</ele>
        <time>2026-07-09T07:32:51.000Z</time>
      </trkpt>
      <trkpt lat="45.81253" lon="1.89144">
        <ele>725.8</ele>
        <time>2026-07-09T07:32:52.000Z</time>
      </trkpt>
      <trkpt lat="45.81255" lon="1.89143">
        <ele>726.9</ele>
        <time>2026-07-09T07:32:53.000Z</time>
      </trkpt>
      <trkpt lat="45.81257" lon="1.89141">
        <ele>725.7</ele>
        <time>2026-07-09T07:32:54.000Z</time>
      </trkpt>
      <trkpt lat="45.81259" lon="1.89139">
        <ele>726.8</ele>
        <time>2026-07-09T07:32:55.000Z</time>
      </trkpt>
      <trkpt lat="45.8126" lon="1.89137">
        <ele>727.1</ele>
        <time>2026-07-09T07:32:56.000Z</time>
      </trkpt>
      <trkpt lat="45.81262" lon="1.89136">
        <ele>727.5</ele>
        <time>2026-07-09T07:32:57.000Z</time>
      </trkpt>
      <trkpt lat="45.81263" lon="1.89134">
        <ele>727.6</ele>
        <time>2026-07-09T07:32:58.000Z</time>
      </trkpt>
      <trkpt lat="45.81265" lon="1.89133">
        <ele>727.8</ele>
        <time>2026-07-09T07:32:59.000Z</time>
      </trkpt>
      <trkpt lat="45.81266" lon="1.89131">
        <ele>727.6</ele>
        <time>2026-07-09T07:33:00.000Z</time>
      </trkpt>
      <trkpt lat="45.81268" lon="1.89129">
        <ele>727.3</ele>
        <time>2026-07-09T07:33:01.000Z</time>
      </trkpt>
      <trkpt lat="45.81269" lon="1.89127">
        <ele>727</ele>
        <time>2026-07-09T07:33:02.000Z</time>
      </trkpt>
      <trkpt lat="45.8127" lon="1.89125">
        <ele>726.1</ele>
        <time>2026-07-09T07:33:03.000Z</time>
      </trkpt>
      <trkpt lat="45.8127" lon="1.89123">
        <ele>725.1</ele>
        <time>2026-07-09T07:33:04.000Z</time>
      </trkpt>
      <trkpt lat="45.81271" lon="1.89121">
        <ele>724.7</ele>
        <time>2026-07-09T07:33:05.000Z</time>
      </trkpt>
      <trkpt lat="45.81272" lon="1.89119">
        <ele>724.5</ele>
        <time>2026-07-09T07:33:06.000Z</time>
      </trkpt>
      <trkpt lat="45.81273" lon="1.89116">
        <ele>725</ele>
        <time>2026-07-09T07:33:07.000Z</time>
      </trkpt>
      <trkpt lat="45.81273" lon="1.89114">
        <ele>725.1</ele>
        <time>2026-07-09T07:33:08.000Z</time>
      </trkpt>
      <trkpt lat="45.81274" lon="1.89111">
        <ele>725.2</ele>
        <time>2026-07-09T07:33:09.000Z</time>
      </trkpt>
      <trkpt lat="45.81275" lon="1.89109">
        <ele>726</ele>
        <time>2026-07-09T07:33:10.000Z</time>
      </trkpt>
      <trkpt lat="45.81276" lon="1.89107">
        <ele>726.4</ele>
        <time>2026-07-09T07:33:11.000Z</time>
      </trkpt>
      <trkpt lat="45.81277" lon="1.89105">
        <ele>726.6</ele>
        <time>2026-07-09T07:33:12.000Z</time>
      </trkpt>
      <trkpt lat="45.81278" lon="1.89103">
        <ele>726.1</ele>
        <time>2026-07-09T07:33:13.000Z</time>
      </trkpt>
      <trkpt lat="45.81278" lon="1.89101">
        <ele>725</ele>
        <time>2026-07-09T07:33:14.000Z</time>
      </trkpt>
      <trkpt lat="45.81279" lon="1.89099">
        <ele>725</ele>
        <time>2026-07-09T07:33:15.000Z</time>
      </trkpt>
      <trkpt lat="45.81279" lon="1.89096">
        <ele>725</ele>
        <time>2026-07-09T07:33:16.000Z</time>
      </trkpt>
      <trkpt lat="45.8128" lon="1.89094">
        <ele>724.7</ele>
        <time>2026-07-09T07:33:17.000Z</time>
      </trkpt>
      <trkpt lat="45.81281" lon="1.89092">
        <ele>723.9</ele>
        <time>2026-07-09T07:33:18.000Z</time>
      </trkpt>
      <trkpt lat="45.81282" lon="1.8909">
        <ele>723.9</ele>
        <time>2026-07-09T07:33:19.000Z</time>
      </trkpt>
      <trkpt lat="45.81284" lon="1.89089">
        <ele>723.7</ele>
        <time>2026-07-09T07:33:20.000Z</time>
      </trkpt>
      <trkpt lat="45.81285" lon="1.89087">
        <ele>723.7</ele>
        <time>2026-07-09T07:33:21.000Z</time>
      </trkpt>
      <trkpt lat="45.81286" lon="1.89085">
        <ele>723.9</ele>
        <time>2026-07-09T07:33:22.000Z</time>
      </trkpt>
      <trkpt lat="45.81287" lon="1.89084">
        <ele>724.2</ele>
        <time>2026-07-09T07:33:23.000Z</time>
      </trkpt>
      <trkpt lat="45.81288" lon="1.89082">
        <ele>724.9</ele>
        <time>2026-07-09T07:33:24.000Z</time>
      </trkpt>
      <trkpt lat="45.81289" lon="1.89081">
        <ele>725.3</ele>
        <time>2026-07-09T07:33:25.000Z</time>
      </trkpt>
      <trkpt lat="45.81288" lon="1.8908">
        <ele>725.1</ele>
        <time>2026-07-09T07:33:26.000Z</time>
      </trkpt>
      <trkpt lat="45.81288" lon="1.89078">
        <ele>725.3</ele>
        <time>2026-07-09T07:33:27.000Z</time>
      </trkpt>
      <trkpt lat="45.81288" lon="1.89077">
        <ele>725.1</ele>
        <time>2026-07-09T07:33:28.000Z</time>
      </trkpt>
      <trkpt lat="45.81288" lon="1.89076">
        <ele>725</ele>
        <time>2026-07-09T07:33:29.000Z</time>
      </trkpt>
      <trkpt lat="45.81288" lon="1.89075">
        <ele>725.2</ele>
        <time>2026-07-09T07:33:30.000Z</time>
      </trkpt>
      <trkpt lat="45.81289" lon="1.89074">
        <ele>724.9</ele>
        <time>2026-07-09T07:33:31.000Z</time>
      </trkpt>
      <trkpt lat="45.8129" lon="1.89072">
        <ele>724.5</ele>
        <time>2026-07-09T07:33:32.000Z</time>
      </trkpt>
      <trkpt lat="45.81291" lon="1.89071">
        <ele>724.1</ele>
        <time>2026-07-09T07:33:33.000Z</time>
      </trkpt>
      <trkpt lat="45.81292" lon="1.8907">
        <ele>723.7</ele>
        <time>2026-07-09T07:33:34.000Z</time>
      </trkpt>
      <trkpt lat="45.81294" lon="1.89069">
        <ele>723.6</ele>
        <time>2026-07-09T07:33:35.000Z</time>
      </trkpt>
      <trkpt lat="45.81295" lon="1.89069">
        <ele>722.9</ele>
        <time>2026-07-09T07:33:36.000Z</time>
      </trkpt>
      <trkpt lat="45.81297" lon="1.89068">
        <ele>722.6</ele>
        <time>2026-07-09T07:33:37.000Z</time>
      </trkpt>
      <trkpt lat="45.81299" lon="1.89067">
        <ele>722.8</ele>
        <time>2026-07-09T07:33:38.000Z</time>
      </trkpt>
      <trkpt lat="45.81301" lon="1.89066">
        <ele>721.4</ele>
        <time>2026-07-09T07:33:39.000Z</time>
      </trkpt>
      <trkpt lat="45.81303" lon="1.89064">
        <ele>721.8</ele>
        <time>2026-07-09T07:33:40.000Z</time>
      </trkpt>
      <trkpt lat="45.81305" lon="1.89062">
        <ele>722.2</ele>
        <time>2026-07-09T07:33:41.000Z</time>
      </trkpt>
      <trkpt lat="45.81307" lon="1.89061">
        <ele>722.2</ele>
        <time>2026-07-09T07:33:42.000Z</time>
      </trkpt>
      <trkpt lat="45.81309" lon="1.8906">
        <ele>721.9</ele>
        <time>2026-07-09T07:33:43.000Z</time>
      </trkpt>
      <trkpt lat="45.81311" lon="1.89057">
        <ele>722.2</ele>
        <time>2026-07-09T07:33:44.000Z</time>
      </trkpt>
      <trkpt lat="45.81314" lon="1.89056">
        <ele>722.2</ele>
        <time>2026-07-09T07:33:45.000Z</time>
      </trkpt>
      <trkpt lat="45.81316" lon="1.89055">
        <ele>722.6</ele>
        <time>2026-07-09T07:33:46.000Z</time>
      </trkpt>
      <trkpt lat="45.81318" lon="1.89054">
        <ele>723.3</ele>
        <time>2026-07-09T07:33:47.000Z</time>
      </trkpt>
      <trkpt lat="45.81318" lon="1.89054">
        <ele>723.5</ele>
        <time>2026-07-09T07:33:48.000Z</time>
      </trkpt>
      <trkpt lat="45.8132" lon="1.89053">
        <ele>724.2</ele>
        <time>2026-07-09T07:33:49.000Z</time>
      </trkpt>
      <trkpt lat="45.81321" lon="1.89053">
        <ele>725.5</ele>
        <time>2026-07-09T07:33:50.000Z</time>
      </trkpt>
      <trkpt lat="45.81323" lon="1.89053">
        <ele>727.2</ele>
        <time>2026-07-09T07:33:51.000Z</time>
      </trkpt>
      <trkpt lat="45.81324" lon="1.89052">
        <ele>726.4</ele>
        <time>2026-07-09T07:33:52.000Z</time>
      </trkpt>
      <trkpt lat="45.81324" lon="1.89052">
        <ele>726.4</ele>
        <time>2026-07-09T07:33:53.000Z</time>
      </trkpt>
      <trkpt lat="45.81326" lon="1.89051">
        <ele>726.4</ele>
        <time>2026-07-09T07:33:54.000Z</time>
      </trkpt>
      <trkpt lat="45.81329" lon="1.89049">
        <ele>726.4</ele>
        <time>2026-07-09T07:33:55.000Z</time>
      </trkpt>
      <trkpt lat="45.8133" lon="1.89048">
        <ele>727.4</ele>
        <time>2026-07-09T07:33:56.000Z</time>
      </trkpt>
      <trkpt lat="45.81332" lon="1.89047">
        <ele>728.1</ele>
        <time>2026-07-09T07:33:57.000Z</time>
      </trkpt>
      <trkpt lat="45.81333" lon="1.89046">
        <ele>728.1</ele>
        <time>2026-07-09T07:33:58.000Z</time>
      </trkpt>
      <trkpt lat="45.81334" lon="1.89046">
        <ele>729.1</ele>
        <time>2026-07-09T07:33:59.000Z</time>
      </trkpt>
      <trkpt lat="45.81336" lon="1.89045">
        <ele>729.6</ele>
        <time>2026-07-09T07:34:00.000Z</time>
      </trkpt>
      <trkpt lat="45.81337" lon="1.89045">
        <ele>730.3</ele>
        <time>2026-07-09T07:34:01.000Z</time>
      </trkpt>
      <trkpt lat="45.81338" lon="1.89045">
        <ele>730.2</ele>
        <time>2026-07-09T07:34:02.000Z</time>
      </trkpt>
      <trkpt lat="45.81339" lon="1.89045">
        <ele>730</ele>
        <time>2026-07-09T07:34:03.000Z</time>
      </trkpt>
      <trkpt lat="45.8134" lon="1.89045">
        <ele>731.1</ele>
        <time>2026-07-09T07:34:04.000Z</time>
      </trkpt>
      <trkpt lat="45.81342" lon="1.89046">
        <ele>730.6</ele>
        <time>2026-07-09T07:34:05.000Z</time>
      </trkpt>
      <trkpt lat="45.81343" lon="1.89046">
        <ele>730</ele>
        <time>2026-07-09T07:34:06.000Z</time>
      </trkpt>
      <trkpt lat="45.81344" lon="1.89047">
        <ele>730.2</ele>
        <time>2026-07-09T07:34:07.000Z</time>
      </trkpt>
      <trkpt lat="45.81344" lon="1.89048">
        <ele>729.3</ele>
        <time>2026-07-09T07:34:08.000Z</time>
      </trkpt>
      <trkpt lat="45.81345" lon="1.89049">
        <ele>729.1</ele>
        <time>2026-07-09T07:34:09.000Z</time>
      </trkpt>
      <trkpt lat="45.81346" lon="1.89049">
        <ele>728.9</ele>
        <time>2026-07-09T07:34:10.000Z</time>
      </trkpt>
      <trkpt lat="45.81347" lon="1.89052">
        <ele>730.2</ele>
        <time>2026-07-09T07:34:11.000Z</time>
      </trkpt>
      <trkpt lat="45.81349" lon="1.89054">
        <ele>729.3</ele>
        <time>2026-07-09T07:34:12.000Z</time>
      </trkpt>
      <trkpt lat="45.81351" lon="1.89056">
        <ele>729.7</ele>
        <time>2026-07-09T07:34:13.000Z</time>
      </trkpt>
      <trkpt lat="45.81352" lon="1.89058">
        <ele>729.3</ele>
        <time>2026-07-09T07:34:14.000Z</time>
      </trkpt>
      <trkpt lat="45.81354" lon="1.8906">
        <ele>729.2</ele>
        <time>2026-07-09T07:34:15.000Z</time>
      </trkpt>
      <trkpt lat="45.81355" lon="1.89062">
        <ele>729.8</ele>
        <time>2026-07-09T07:34:16.000Z</time>
      </trkpt>
      <trkpt lat="45.81356" lon="1.89064">
        <ele>729.6</ele>
        <time>2026-07-09T07:34:17.000Z</time>
      </trkpt>
      <trkpt lat="45.81357" lon="1.89066">
        <ele>730</ele>
        <time>2026-07-09T07:34:18.000Z</time>
      </trkpt>
      <trkpt lat="45.81358" lon="1.89068">
        <ele>730.4</ele>
        <time>2026-07-09T07:34:19.000Z</time>
      </trkpt>
      <trkpt lat="45.8136" lon="1.8907">
        <ele>730.6</ele>
        <time>2026-07-09T07:34:20.000Z</time>
      </trkpt>
      <trkpt lat="45.81361" lon="1.89072">
        <ele>731</ele>
        <time>2026-07-09T07:34:21.000Z</time>
      </trkpt>
      <trkpt lat="45.81362" lon="1.89074">
        <ele>731.2</ele>
        <time>2026-07-09T07:34:22.000Z</time>
      </trkpt>
      <trkpt lat="45.81363" lon="1.89076">
        <ele>731.7</ele>
        <time>2026-07-09T07:34:23.000Z</time>
      </trkpt>
      <trkpt lat="45.81364" lon="1.89078">
        <ele>731.9</ele>
        <time>2026-07-09T07:34:24.000Z</time>
      </trkpt>
      <trkpt lat="45.81366" lon="1.8908">
        <ele>732.6</ele>
        <time>2026-07-09T07:34:25.000Z</time>
      </trkpt>
      <trkpt lat="45.81367" lon="1.89082">
        <ele>732.6</ele>
        <time>2026-07-09T07:34:26.000Z</time>
      </trkpt>
      <trkpt lat="45.81368" lon="1.89084">
        <ele>732.9</ele>
        <time>2026-07-09T07:34:27.000Z</time>
      </trkpt>
      <trkpt lat="45.81369" lon="1.89086">
        <ele>733</ele>
        <time>2026-07-09T07:34:28.000Z</time>
      </trkpt>
      <trkpt lat="45.8137" lon="1.89088">
        <ele>733</ele>
        <time>2026-07-09T07:34:29.000Z</time>
      </trkpt>
      <trkpt lat="45.81371" lon="1.89089">
        <ele>733.3</ele>
        <time>2026-07-09T07:34:30.000Z</time>
      </trkpt>
      <trkpt lat="45.81372" lon="1.89091">
        <ele>733.2</ele>
        <time>2026-07-09T07:34:31.000Z</time>
      </trkpt>
      <trkpt lat="45.81374" lon="1.89092">
        <ele>733.5</ele>
        <time>2026-07-09T07:34:32.000Z</time>
      </trkpt>
      <trkpt lat="45.81375" lon="1.89093">
        <ele>733.5</ele>
        <time>2026-07-09T07:34:33.000Z</time>
      </trkpt>
      <trkpt lat="45.81377" lon="1.89095">
        <ele>733.4</ele>
        <time>2026-07-09T07:34:34.000Z</time>
      </trkpt>
      <trkpt lat="45.81378" lon="1.89096">
        <ele>733.2</ele>
        <time>2026-07-09T07:34:35.000Z</time>
      </trkpt>
      <trkpt lat="45.81379" lon="1.89097">
        <ele>732.9</ele>
        <time>2026-07-09T07:34:36.000Z</time>
      </trkpt>
      <trkpt lat="45.8138" lon="1.89099">
        <ele>732.8</ele>
        <time>2026-07-09T07:34:37.000Z</time>
      </trkpt>
      <trkpt lat="45.81381" lon="1.891">
        <ele>732.2</ele>
        <time>2026-07-09T07:34:38.000Z</time>
      </trkpt>
      <trkpt lat="45.81384" lon="1.89099">
        <ele>731.6</ele>
        <time>2026-07-09T07:34:39.000Z</time>
      </trkpt>
      <trkpt lat="45.81386" lon="1.89099">
        <ele>730.8</ele>
        <time>2026-07-09T07:34:40.000Z</time>
      </trkpt>
      <trkpt lat="45.81388" lon="1.89099">
        <ele>731.6</ele>
        <time>2026-07-09T07:34:41.000Z</time>
      </trkpt>
      <trkpt lat="45.8139" lon="1.89098">
        <ele>732.3</ele>
        <time>2026-07-09T07:34:42.000Z</time>
      </trkpt>
      <trkpt lat="45.81391" lon="1.89098">
        <ele>733.5</ele>
        <time>2026-07-09T07:34:43.000Z</time>
      </trkpt>
      <trkpt lat="45.81393" lon="1.89097">
        <ele>735.4</ele>
        <time>2026-07-09T07:34:44.000Z</time>
      </trkpt>
      <trkpt lat="45.81394" lon="1.89098">
        <ele>736.9</ele>
        <time>2026-07-09T07:34:45.000Z</time>
      </trkpt>
      <trkpt lat="45.81396" lon="1.89099">
        <ele>738.1</ele>
        <time>2026-07-09T07:34:46.000Z</time>
      </trkpt>
      <trkpt lat="45.81397" lon="1.891">
        <ele>738.9</ele>
        <time>2026-07-09T07:34:47.000Z</time>
      </trkpt>
      <trkpt lat="45.81399" lon="1.89102">
        <ele>739.9</ele>
        <time>2026-07-09T07:34:48.000Z</time>
      </trkpt>
      <trkpt lat="45.814" lon="1.89103">
        <ele>739.8</ele>
        <time>2026-07-09T07:34:49.000Z</time>
      </trkpt>
      <trkpt lat="45.81402" lon="1.89105">
        <ele>739.1</ele>
        <time>2026-07-09T07:34:50.000Z</time>
      </trkpt>
      <trkpt lat="45.81403" lon="1.89107">
        <ele>739.8</ele>
        <time>2026-07-09T07:34:51.000Z</time>
      </trkpt>
      <trkpt lat="45.81404" lon="1.89108">
        <ele>740.6</ele>
        <time>2026-07-09T07:34:52.000Z</time>
      </trkpt>
      <trkpt lat="45.81405" lon="1.89109">
        <ele>741.7</ele>
        <time>2026-07-09T07:34:53.000Z</time>
      </trkpt>
      <trkpt lat="45.81407" lon="1.89109">
        <ele>742.4</ele>
        <time>2026-07-09T07:34:54.000Z</time>
      </trkpt>
      <trkpt lat="45.81408" lon="1.8911">
        <ele>742.6</ele>
        <time>2026-07-09T07:34:55.000Z</time>
      </trkpt>
      <trkpt lat="45.81409" lon="1.89111">
        <ele>743.7</ele>
        <time>2026-07-09T07:34:56.000Z</time>
      </trkpt>
      <trkpt lat="45.8141" lon="1.89113">
        <ele>744.2</ele>
        <time>2026-07-09T07:34:57.000Z</time>
      </trkpt>
      <trkpt lat="45.81411" lon="1.89114">
        <ele>744.2</ele>
        <time>2026-07-09T07:34:58.000Z</time>
      </trkpt>
      <trkpt lat="45.81412" lon="1.89116">
        <ele>743.9</ele>
        <time>2026-07-09T07:34:59.000Z</time>
      </trkpt>
      <trkpt lat="45.81414" lon="1.89117">
        <ele>744.4</ele>
        <time>2026-07-09T07:35:00.000Z</time>
      </trkpt>
      <trkpt lat="45.81415" lon="1.89118">
        <ele>745.3</ele>
        <time>2026-07-09T07:35:01.000Z</time>
      </trkpt>
      <trkpt lat="45.81416" lon="1.89119">
        <ele>745.6</ele>
        <time>2026-07-09T07:35:02.000Z</time>
      </trkpt>
      <trkpt lat="45.81418" lon="1.8912">
        <ele>746.4</ele>
        <time>2026-07-09T07:35:03.000Z</time>
      </trkpt>
      <trkpt lat="45.81419" lon="1.89122">
        <ele>745.9</ele>
        <time>2026-07-09T07:35:04.000Z</time>
      </trkpt>
      <trkpt lat="45.8142" lon="1.89123">
        <ele>746</ele>
        <time>2026-07-09T07:35:05.000Z</time>
      </trkpt>
      <trkpt lat="45.81421" lon="1.89124">
        <ele>745.6</ele>
        <time>2026-07-09T07:35:06.000Z</time>
      </trkpt>
      <trkpt lat="45.81422" lon="1.89126">
        <ele>746.3</ele>
        <time>2026-07-09T07:35:07.000Z</time>
      </trkpt>
      <trkpt lat="45.81424" lon="1.89127">
        <ele>746.8</ele>
        <time>2026-07-09T07:35:08.000Z</time>
      </trkpt>
      <trkpt lat="45.81425" lon="1.89128">
        <ele>747.2</ele>
        <time>2026-07-09T07:35:09.000Z</time>
      </trkpt>
      <trkpt lat="45.81426" lon="1.89129">
        <ele>747.2</ele>
        <time>2026-07-09T07:35:10.000Z</time>
      </trkpt>
      <trkpt lat="45.81427" lon="1.8913">
        <ele>747.7</ele>
        <time>2026-07-09T07:35:11.000Z</time>
      </trkpt>
      <trkpt lat="45.81429" lon="1.89132">
        <ele>747.7</ele>
        <time>2026-07-09T07:35:12.000Z</time>
      </trkpt>
      <trkpt lat="45.8143" lon="1.89133">
        <ele>747.7</ele>
        <time>2026-07-09T07:35:13.000Z</time>
      </trkpt>
      <trkpt lat="45.81431" lon="1.89135">
        <ele>746.7</ele>
        <time>2026-07-09T07:35:14.000Z</time>
      </trkpt>
      <trkpt lat="45.81432" lon="1.89136">
        <ele>746.4</ele>
        <time>2026-07-09T07:35:15.000Z</time>
      </trkpt>
      <trkpt lat="45.81433" lon="1.89137">
        <ele>747.1</ele>
        <time>2026-07-09T07:35:16.000Z</time>
      </trkpt>
      <trkpt lat="45.81434" lon="1.89139">
        <ele>747.6</ele>
        <time>2026-07-09T07:35:17.000Z</time>
      </trkpt>
      <trkpt lat="45.81435" lon="1.8914">
        <ele>748.3</ele>
        <time>2026-07-09T07:35:18.000Z</time>
      </trkpt>
      <trkpt lat="45.81436" lon="1.89142">
        <ele>747.8</ele>
        <time>2026-07-09T07:35:19.000Z</time>
      </trkpt>
      <trkpt lat="45.81437" lon="1.89143">
        <ele>749</ele>
        <time>2026-07-09T07:35:20.000Z</time>
      </trkpt>
      <trkpt lat="45.81439" lon="1.89143">
        <ele>748.7</ele>
        <time>2026-07-09T07:35:21.000Z</time>
      </trkpt>
      <trkpt lat="45.8144" lon="1.89143">
        <ele>747.9</ele>
        <time>2026-07-09T07:35:22.000Z</time>
      </trkpt>
      <trkpt lat="45.81442" lon="1.89145">
        <ele>747.3</ele>
        <time>2026-07-09T07:35:23.000Z</time>
      </trkpt>
      <trkpt lat="45.81443" lon="1.89146">
        <ele>746.7</ele>
        <time>2026-07-09T07:35:24.000Z</time>
      </trkpt>
      <trkpt lat="45.81444" lon="1.89147">
        <ele>746.6</ele>
        <time>2026-07-09T07:35:25.000Z</time>
      </trkpt>
      <trkpt lat="45.81445" lon="1.89148">
        <ele>746.4</ele>
        <time>2026-07-09T07:35:26.000Z</time>
      </trkpt>
      <trkpt lat="45.81446" lon="1.8915">
        <ele>747.5</ele>
        <time>2026-07-09T07:35:27.000Z</time>
      </trkpt>
      <trkpt lat="45.81447" lon="1.89152">
        <ele>747.3</ele>
        <time>2026-07-09T07:35:28.000Z</time>
      </trkpt>
      <trkpt lat="45.81448" lon="1.89153">
        <ele>747.5</ele>
        <time>2026-07-09T07:35:29.000Z</time>
      </trkpt>
      <trkpt lat="45.8145" lon="1.89154">
        <ele>747.8</ele>
        <time>2026-07-09T07:35:30.000Z</time>
      </trkpt>
      <trkpt lat="45.81452" lon="1.89156">
        <ele>749</ele>
        <time>2026-07-09T07:35:31.000Z</time>
      </trkpt>
      <trkpt lat="45.81453" lon="1.89157">
        <ele>749.4</ele>
        <time>2026-07-09T07:35:32.000Z</time>
      </trkpt>
      <trkpt lat="45.81455" lon="1.89158">
        <ele>749</ele>
        <time>2026-07-09T07:35:33.000Z</time>
      </trkpt>
      <trkpt lat="45.81456" lon="1.89159">
        <ele>748.9</ele>
        <time>2026-07-09T07:35:34.000Z</time>
      </trkpt>
      <trkpt lat="45.81457" lon="1.89162">
        <ele>748.4</ele>
        <time>2026-07-09T07:35:35.000Z</time>
      </trkpt>
      <trkpt lat="45.81458" lon="1.89163">
        <ele>746.7</ele>
        <time>2026-07-09T07:35:36.000Z</time>
      </trkpt>
      <trkpt lat="45.81458" lon="1.89165">
        <ele>747</ele>
        <time>2026-07-09T07:35:37.000Z</time>
      </trkpt>
      <trkpt lat="45.81459" lon="1.89166">
        <ele>746.4</ele>
        <time>2026-07-09T07:35:38.000Z</time>
      </trkpt>
      <trkpt lat="45.8146" lon="1.89168">
        <ele>746.1</ele>
        <time>2026-07-09T07:35:39.000Z</time>
      </trkpt>
      <trkpt lat="45.81461" lon="1.8917">
        <ele>745.9</ele>
        <time>2026-07-09T07:35:40.000Z</time>
      </trkpt>
      <trkpt lat="45.81462" lon="1.89171">
        <ele>745.5</ele>
        <time>2026-07-09T07:35:41.000Z</time>
      </trkpt>
      <trkpt lat="45.81464" lon="1.89172">
        <ele>745.2</ele>
        <time>2026-07-09T07:35:42.000Z</time>
      </trkpt>
      <trkpt lat="45.81465" lon="1.89174">
        <ele>745.7</ele>
        <time>2026-07-09T07:35:43.000Z</time>
      </trkpt>
      <trkpt lat="45.81466" lon="1.89176">
        <ele>745.7</ele>
        <time>2026-07-09T07:35:44.000Z</time>
      </trkpt>
      <trkpt lat="45.81467" lon="1.89177">
        <ele>747</ele>
        <time>2026-07-09T07:35:45.000Z</time>
      </trkpt>
      <trkpt lat="45.81468" lon="1.89179">
        <ele>746.9</ele>
        <time>2026-07-09T07:35:46.000Z</time>
      </trkpt>
      <trkpt lat="45.81469" lon="1.8918">
        <ele>747.5</ele>
        <time>2026-07-09T07:35:47.000Z</time>
      </trkpt>
      <trkpt lat="45.8147" lon="1.89181">
        <ele>747.6</ele>
        <time>2026-07-09T07:35:48.000Z</time>
      </trkpt>
      <trkpt lat="45.81471" lon="1.89182">
        <ele>748.6</ele>
        <time>2026-07-09T07:35:49.000Z</time>
      </trkpt>
      <trkpt lat="45.81473" lon="1.89184">
        <ele>748.4</ele>
        <time>2026-07-09T07:35:50.000Z</time>
      </trkpt>
      <trkpt lat="45.81474" lon="1.89185">
        <ele>748.6</ele>
        <time>2026-07-09T07:35:51.000Z</time>
      </trkpt>
      <trkpt lat="45.81475" lon="1.89186">
        <ele>748.4</ele>
        <time>2026-07-09T07:35:52.000Z</time>
      </trkpt>
      <trkpt lat="45.81477" lon="1.89188">
        <ele>748.3</ele>
        <time>2026-07-09T07:35:53.000Z</time>
      </trkpt>
      <trkpt lat="45.81478" lon="1.89188">
        <ele>749.1</ele>
        <time>2026-07-09T07:35:54.000Z</time>
      </trkpt>
      <trkpt lat="45.81479" lon="1.89188">
        <ele>750.1</ele>
        <time>2026-07-09T07:35:55.000Z</time>
      </trkpt>
      <trkpt lat="45.81481" lon="1.89189">
        <ele>750.5</ele>
        <time>2026-07-09T07:35:56.000Z</time>
      </trkpt>
      <trkpt lat="45.81483" lon="1.8919">
        <ele>750.6</ele>
        <time>2026-07-09T07:35:57.000Z</time>
      </trkpt>
      <trkpt lat="45.81484" lon="1.8919">
        <ele>750.8</ele>
        <time>2026-07-09T07:35:58.000Z</time>
      </trkpt>
      <trkpt lat="45.81486" lon="1.89192">
        <ele>750.9</ele>
        <time>2026-07-09T07:35:59.000Z</time>
      </trkpt>
      <trkpt lat="45.81487" lon="1.89193">
        <ele>751.7</ele>
        <time>2026-07-09T07:36:00.000Z</time>
      </trkpt>
      <trkpt lat="45.81489" lon="1.89194">
        <ele>751.8</ele>
        <time>2026-07-09T07:36:01.000Z</time>
      </trkpt>
      <trkpt lat="45.8149" lon="1.89195">
        <ele>751</ele>
        <time>2026-07-09T07:36:02.000Z</time>
      </trkpt>
      <trkpt lat="45.81491" lon="1.89197">
        <ele>752.2</ele>
        <time>2026-07-09T07:36:03.000Z</time>
      </trkpt>
      <trkpt lat="45.81492" lon="1.89198">
        <ele>752.6</ele>
        <time>2026-07-09T07:36:04.000Z</time>
      </trkpt>
      <trkpt lat="45.81493" lon="1.89199">
        <ele>752.2</ele>
        <time>2026-07-09T07:36:05.000Z</time>
      </trkpt>
      <trkpt lat="45.81494" lon="1.89201">
        <ele>752.6</ele>
        <time>2026-07-09T07:36:06.000Z</time>
      </trkpt>
      <trkpt lat="45.81496" lon="1.89203">
        <ele>752.4</ele>
        <time>2026-07-09T07:36:07.000Z</time>
      </trkpt>
      <trkpt lat="45.81497" lon="1.89204">
        <ele>752.4</ele>
        <time>2026-07-09T07:36:08.000Z</time>
      </trkpt>
      <trkpt lat="45.81498" lon="1.89205">
        <ele>752.4</ele>
        <time>2026-07-09T07:36:09.000Z</time>
      </trkpt>
      <trkpt lat="45.81499" lon="1.89206">
        <ele>752</ele>
        <time>2026-07-09T07:36:10.000Z</time>
      </trkpt>
      <trkpt lat="45.815" lon="1.89208">
        <ele>750.7</ele>
        <time>2026-07-09T07:36:11.000Z</time>
      </trkpt>
      <trkpt lat="45.81502" lon="1.8921">
        <ele>750.3</ele>
        <time>2026-07-09T07:36:12.000Z</time>
      </trkpt>
      <trkpt lat="45.81503" lon="1.89211">
        <ele>750.2</ele>
        <time>2026-07-09T07:36:13.000Z</time>
      </trkpt>
      <trkpt lat="45.81504" lon="1.89212">
        <ele>750.2</ele>
        <time>2026-07-09T07:36:14.000Z</time>
      </trkpt>
      <trkpt lat="45.81505" lon="1.89213">
        <ele>749</ele>
        <time>2026-07-09T07:36:15.000Z</time>
      </trkpt>
      <trkpt lat="45.81506" lon="1.89214">
        <ele>748</ele>
        <time>2026-07-09T07:36:16.000Z</time>
      </trkpt>
      <trkpt lat="45.81507" lon="1.89215">
        <ele>748</ele>
        <time>2026-07-09T07:36:17.000Z</time>
      </trkpt>
      <trkpt lat="45.81508" lon="1.89217">
        <ele>748.4</ele>
        <time>2026-07-09T07:36:18.000Z</time>
      </trkpt>
      <trkpt lat="45.8151" lon="1.89218">
        <ele>747.7</ele>
        <time>2026-07-09T07:36:19.000Z</time>
      </trkpt>
      <trkpt lat="45.81511" lon="1.89219">
        <ele>747.9</ele>
        <time>2026-07-09T07:36:20.000Z</time>
      </trkpt>
      <trkpt lat="45.81512" lon="1.89221">
        <ele>747</ele>
        <time>2026-07-09T07:36:21.000Z</time>
      </trkpt>
      <trkpt lat="45.81513" lon="1.89222">
        <ele>747.7</ele>
        <time>2026-07-09T07:36:22.000Z</time>
      </trkpt>
      <trkpt lat="45.81515" lon="1.89224">
        <ele>747.7</ele>
        <time>2026-07-09T07:36:23.000Z</time>
      </trkpt>
      <trkpt lat="45.81516" lon="1.89225">
        <ele>747.4</ele>
        <time>2026-07-09T07:36:24.000Z</time>
      </trkpt>
      <trkpt lat="45.81517" lon="1.89226">
        <ele>747.6</ele>
        <time>2026-07-09T07:36:25.000Z</time>
      </trkpt>
      <trkpt lat="45.81519" lon="1.89227">
        <ele>747.6</ele>
        <time>2026-07-09T07:36:26.000Z</time>
      </trkpt>
      <trkpt lat="45.8152" lon="1.89228">
        <ele>747.6</ele>
        <time>2026-07-09T07:36:27.000Z</time>
      </trkpt>
      <trkpt lat="45.8152" lon="1.89229">
        <ele>748.8</ele>
        <time>2026-07-09T07:36:28.000Z</time>
      </trkpt>
      <trkpt lat="45.81521" lon="1.89231">
        <ele>749.5</ele>
        <time>2026-07-09T07:36:29.000Z</time>
      </trkpt>
      <trkpt lat="45.81522" lon="1.89232">
        <ele>748.8</ele>
        <time>2026-07-09T07:36:30.000Z</time>
      </trkpt>
      <trkpt lat="45.81523" lon="1.89233">
        <ele>750.2</ele>
        <time>2026-07-09T07:36:31.000Z</time>
      </trkpt>
      <trkpt lat="45.81524" lon="1.89234">
        <ele>749.6</ele>
        <time>2026-07-09T07:36:32.000Z</time>
      </trkpt>
      <trkpt lat="45.81526" lon="1.89236">
        <ele>749.7</ele>
        <time>2026-07-09T07:36:33.000Z</time>
      </trkpt>
      <trkpt lat="45.81527" lon="1.89237">
        <ele>749.8</ele>
        <time>2026-07-09T07:36:34.000Z</time>
      </trkpt>
      <trkpt lat="45.81529" lon="1.89238">
        <ele>750.6</ele>
        <time>2026-07-09T07:36:35.000Z</time>
      </trkpt>
      <trkpt lat="45.8153" lon="1.8924">
        <ele>750.9</ele>
        <time>2026-07-09T07:36:36.000Z</time>
      </trkpt>
      <trkpt lat="45.81532" lon="1.89242">
        <ele>751.6</ele>
        <time>2026-07-09T07:36:37.000Z</time>
      </trkpt>
      <trkpt lat="45.81533" lon="1.89243">
        <ele>751.9</ele>
        <time>2026-07-09T07:36:38.000Z</time>
      </trkpt>
      <trkpt lat="45.81535" lon="1.89244">
        <ele>752.6</ele>
        <time>2026-07-09T07:36:39.000Z</time>
      </trkpt>
      <trkpt lat="45.81536" lon="1.89246">
        <ele>753.4</ele>
        <time>2026-07-09T07:36:40.000Z</time>
      </trkpt>
      <trkpt lat="45.81538" lon="1.89247">
        <ele>753.6</ele>
        <time>2026-07-09T07:36:41.000Z</time>
      </trkpt>
      <trkpt lat="45.81539" lon="1.89248">
        <ele>754.1</ele>
        <time>2026-07-09T07:36:42.000Z</time>
      </trkpt>
      <trkpt lat="45.8154" lon="1.89249">
        <ele>753.3</ele>
        <time>2026-07-09T07:36:43.000Z</time>
      </trkpt>
      <trkpt lat="45.81542" lon="1.8925">
        <ele>753.4</ele>
        <time>2026-07-09T07:36:44.000Z</time>
      </trkpt>
      <trkpt lat="45.81544" lon="1.89251">
        <ele>753.7</ele>
        <time>2026-07-09T07:36:45.000Z</time>
      </trkpt>
      <trkpt lat="45.81546" lon="1.89252">
        <ele>755.3</ele>
        <time>2026-07-09T07:36:46.000Z</time>
      </trkpt>
      <trkpt lat="45.81548" lon="1.89253">
        <ele>755.1</ele>
        <time>2026-07-09T07:36:47.000Z</time>
      </trkpt>
      <trkpt lat="45.81549" lon="1.89254">
        <ele>755</ele>
        <time>2026-07-09T07:36:48.000Z</time>
      </trkpt>
      <trkpt lat="45.81551" lon="1.89255">
        <ele>755</ele>
        <time>2026-07-09T07:36:49.000Z</time>
      </trkpt>
      <trkpt lat="45.81552" lon="1.89256">
        <ele>755.6</ele>
        <time>2026-07-09T07:36:50.000Z</time>
      </trkpt>
      <trkpt lat="45.81554" lon="1.89257">
        <ele>755.7</ele>
        <time>2026-07-09T07:36:51.000Z</time>
      </trkpt>
      <trkpt lat="45.81555" lon="1.89258">
        <ele>756.5</ele>
        <time>2026-07-09T07:36:52.000Z</time>
      </trkpt>
      <trkpt lat="45.81557" lon="1.89259">
        <ele>756.7</ele>
        <time>2026-07-09T07:36:53.000Z</time>
      </trkpt>
      <trkpt lat="45.81559" lon="1.8926">
        <ele>756.2</ele>
        <time>2026-07-09T07:36:54.000Z</time>
      </trkpt>
      <trkpt lat="45.8156" lon="1.89261">
        <ele>756</ele>
        <time>2026-07-09T07:36:55.000Z</time>
      </trkpt>
      <trkpt lat="45.81561" lon="1.89263">
        <ele>756.6</ele>
        <time>2026-07-09T07:36:56.000Z</time>
      </trkpt>
      <trkpt lat="45.81563" lon="1.89263">
        <ele>756.2</ele>
        <time>2026-07-09T07:36:57.000Z</time>
      </trkpt>
      <trkpt lat="45.81565" lon="1.89264">
        <ele>756</ele>
        <time>2026-07-09T07:36:58.000Z</time>
      </trkpt>
      <trkpt lat="45.81567" lon="1.89265">
        <ele>756.2</ele>
        <time>2026-07-09T07:36:59.000Z</time>
      </trkpt>
      <trkpt lat="45.81568" lon="1.89265">
        <ele>756.1</ele>
        <time>2026-07-09T07:37:00.000Z</time>
      </trkpt>
      <trkpt lat="45.8157" lon="1.89266">
        <ele>756.5</ele>
        <time>2026-07-09T07:37:01.000Z</time>
      </trkpt>
      <trkpt lat="45.81572" lon="1.89267">
        <ele>757.4</ele>
        <time>2026-07-09T07:37:02.000Z</time>
      </trkpt>
      <trkpt lat="45.81574" lon="1.89267">
        <ele>757.6</ele>
        <time>2026-07-09T07:37:03.000Z</time>
      </trkpt>
      <trkpt lat="45.81576" lon="1.89268">
        <ele>757.6</ele>
        <time>2026-07-09T07:37:04.000Z</time>
      </trkpt>
      <trkpt lat="45.81578" lon="1.89269">
        <ele>757.4</ele>
        <time>2026-07-09T07:37:05.000Z</time>
      </trkpt>
      <trkpt lat="45.81579" lon="1.8927">
        <ele>757.9</ele>
        <time>2026-07-09T07:37:06.000Z</time>
      </trkpt>
      <trkpt lat="45.81581" lon="1.89271">
        <ele>757.1</ele>
        <time>2026-07-09T07:37:07.000Z</time>
      </trkpt>
      <trkpt lat="45.81582" lon="1.89271">
        <ele>757.1</ele>
        <time>2026-07-09T07:37:08.000Z</time>
      </trkpt>
      <trkpt lat="45.81584" lon="1.89272">
        <ele>757.7</ele>
        <time>2026-07-09T07:37:09.000Z</time>
      </trkpt>
      <trkpt lat="45.81585" lon="1.89273">
        <ele>757.3</ele>
        <time>2026-07-09T07:37:10.000Z</time>
      </trkpt>
      <trkpt lat="45.81586" lon="1.89273">
        <ele>756.7</ele>
        <time>2026-07-09T07:37:11.000Z</time>
      </trkpt>
      <trkpt lat="45.81588" lon="1.89274">
        <ele>756.7</ele>
        <time>2026-07-09T07:37:12.000Z</time>
      </trkpt>
      <trkpt lat="45.81589" lon="1.89275">
        <ele>756.4</ele>
        <time>2026-07-09T07:37:13.000Z</time>
      </trkpt>
      <trkpt lat="45.81591" lon="1.89275">
        <ele>756.4</ele>
        <time>2026-07-09T07:37:14.000Z</time>
      </trkpt>
      <trkpt lat="45.81592" lon="1.89275">
        <ele>756</ele>
        <time>2026-07-09T07:37:15.000Z</time>
      </trkpt>
      <trkpt lat="45.81593" lon="1.89276">
        <ele>755.3</ele>
        <time>2026-07-09T07:37:16.000Z</time>
      </trkpt>
      <trkpt lat="45.81595" lon="1.89277">
        <ele>756.5</ele>
        <time>2026-07-09T07:37:17.000Z</time>
      </trkpt>
      <trkpt lat="45.81596" lon="1.89278">
        <ele>756.8</ele>
        <time>2026-07-09T07:37:18.000Z</time>
      </trkpt>
      <trkpt lat="45.81598" lon="1.89279">
        <ele>756.5</ele>
        <time>2026-07-09T07:37:19.000Z</time>
      </trkpt>
      <trkpt lat="45.81599" lon="1.8928">
        <ele>756.3</ele>
        <time>2026-07-09T07:37:20.000Z</time>
      </trkpt>
      <trkpt lat="45.81601" lon="1.89281">
        <ele>756</ele>
        <time>2026-07-09T07:37:21.000Z</time>
      </trkpt>
      <trkpt lat="45.81602" lon="1.89281">
        <ele>756.6</ele>
        <time>2026-07-09T07:37:22.000Z</time>
      </trkpt>
      <trkpt lat="45.81604" lon="1.89282">
        <ele>756.9</ele>
        <time>2026-07-09T07:37:23.000Z</time>
      </trkpt>
      <trkpt lat="45.81605" lon="1.89283">
        <ele>756.8</ele>
        <time>2026-07-09T07:37:24.000Z</time>
      </trkpt>
      <trkpt lat="45.81607" lon="1.89284">
        <ele>756.7</ele>
        <time>2026-07-09T07:37:25.000Z</time>
      </trkpt>
      <trkpt lat="45.81608" lon="1.89285">
        <ele>756.4</ele>
        <time>2026-07-09T07:37:26.000Z</time>
      </trkpt>
      <trkpt lat="45.8161" lon="1.89286">
        <ele>756.7</ele>
        <time>2026-07-09T07:37:27.000Z</time>
      </trkpt>
      <trkpt lat="45.81611" lon="1.89287">
        <ele>757</ele>
        <time>2026-07-09T07:37:28.000Z</time>
      </trkpt>
      <trkpt lat="45.81612" lon="1.89288">
        <ele>757.2</ele>
        <time>2026-07-09T07:37:29.000Z</time>
      </trkpt>
      <trkpt lat="45.81614" lon="1.8929">
        <ele>758.6</ele>
        <time>2026-07-09T07:37:30.000Z</time>
      </trkpt>
      <trkpt lat="45.81615" lon="1.8929">
        <ele>758.9</ele>
        <time>2026-07-09T07:37:31.000Z</time>
      </trkpt>
      <trkpt lat="45.81617" lon="1.89291">
        <ele>758.3</ele>
        <time>2026-07-09T07:37:32.000Z</time>
      </trkpt>
      <trkpt lat="45.81618" lon="1.89293">
        <ele>758.6</ele>
        <time>2026-07-09T07:37:33.000Z</time>
      </trkpt>
      <trkpt lat="45.81619" lon="1.89293">
        <ele>758.8</ele>
        <time>2026-07-09T07:37:34.000Z</time>
      </trkpt>
      <trkpt lat="45.81621" lon="1.89295">
        <ele>759.5</ele>
        <time>2026-07-09T07:37:35.000Z</time>
      </trkpt>
      <trkpt lat="45.81622" lon="1.89296">
        <ele>758.8</ele>
        <time>2026-07-09T07:37:36.000Z</time>
      </trkpt>
      <trkpt lat="45.81624" lon="1.89296">
        <ele>758.5</ele>
        <time>2026-07-09T07:37:37.000Z</time>
      </trkpt>
      <trkpt lat="45.81625" lon="1.89296">
        <ele>758.9</ele>
        <time>2026-07-09T07:37:38.000Z</time>
      </trkpt>
      <trkpt lat="45.81626" lon="1.89297">
        <ele>758.8</ele>
        <time>2026-07-09T07:37:39.000Z</time>
      </trkpt>
      <trkpt lat="45.81628" lon="1.89298">
        <ele>759.4</ele>
        <time>2026-07-09T07:37:40.000Z</time>
      </trkpt>
      <trkpt lat="45.8163" lon="1.89299">
        <ele>760.1</ele>
        <time>2026-07-09T07:37:41.000Z</time>
      </trkpt>
      <trkpt lat="45.81631" lon="1.89299">
        <ele>759.5</ele>
        <time>2026-07-09T07:37:42.000Z</time>
      </trkpt>
      <trkpt lat="45.81633" lon="1.893">
        <ele>759.2</ele>
        <time>2026-07-09T07:37:43.000Z</time>
      </trkpt>
      <trkpt lat="45.81634" lon="1.893">
        <ele>759.3</ele>
        <time>2026-07-09T07:37:44.000Z</time>
      </trkpt>
      <trkpt lat="45.81635" lon="1.893">
        <ele>758.9</ele>
        <time>2026-07-09T07:37:45.000Z</time>
      </trkpt>
      <trkpt lat="45.81637" lon="1.89301">
        <ele>758.8</ele>
        <time>2026-07-09T07:37:46.000Z</time>
      </trkpt>
      <trkpt lat="45.81638" lon="1.89302">
        <ele>758.6</ele>
        <time>2026-07-09T07:37:47.000Z</time>
      </trkpt>
      <trkpt lat="45.8164" lon="1.89303">
        <ele>758.2</ele>
        <time>2026-07-09T07:37:48.000Z</time>
      </trkpt>
      <trkpt lat="45.81642" lon="1.89304">
        <ele>758.7</ele>
        <time>2026-07-09T07:37:49.000Z</time>
      </trkpt>
      <trkpt lat="45.81643" lon="1.89304">
        <ele>758.4</ele>
        <time>2026-07-09T07:37:50.000Z</time>
      </trkpt>
      <trkpt lat="45.81645" lon="1.89304">
        <ele>758.2</ele>
        <time>2026-07-09T07:37:51.000Z</time>
      </trkpt>
      <trkpt lat="45.81646" lon="1.89305">
        <ele>758.5</ele>
        <time>2026-07-09T07:37:52.000Z</time>
      </trkpt>
      <trkpt lat="45.81648" lon="1.89306">
        <ele>759</ele>
        <time>2026-07-09T07:37:53.000Z</time>
      </trkpt>
      <trkpt lat="45.81649" lon="1.89307">
        <ele>759</ele>
        <time>2026-07-09T07:37:54.000Z</time>
      </trkpt>
      <trkpt lat="45.81651" lon="1.89307">
        <ele>759.6</ele>
        <time>2026-07-09T07:37:55.000Z</time>
      </trkpt>
      <trkpt lat="45.81652" lon="1.89308">
        <ele>758.2</ele>
        <time>2026-07-09T07:37:56.000Z</time>
      </trkpt>
      <trkpt lat="45.81654" lon="1.89309">
        <ele>758.3</ele>
        <time>2026-07-09T07:37:57.000Z</time>
      </trkpt>
      <trkpt lat="45.81655" lon="1.8931">
        <ele>758.9</ele>
        <time>2026-07-09T07:37:58.000Z</time>
      </trkpt>
      <trkpt lat="45.81657" lon="1.89311">
        <ele>758.7</ele>
        <time>2026-07-09T07:37:59.000Z</time>
      </trkpt>
      <trkpt lat="45.81658" lon="1.89312">
        <ele>759.2</ele>
        <time>2026-07-09T07:38:00.000Z</time>
      </trkpt>
      <trkpt lat="45.8166" lon="1.89312">
        <ele>759.6</ele>
        <time>2026-07-09T07:38:01.000Z</time>
      </trkpt>
      <trkpt lat="45.81661" lon="1.89313">
        <ele>759.9</ele>
        <time>2026-07-09T07:38:02.000Z</time>
      </trkpt>
      <trkpt lat="45.81663" lon="1.89314">
        <ele>759.8</ele>
        <time>2026-07-09T07:38:03.000Z</time>
      </trkpt>
      <trkpt lat="45.81664" lon="1.89315">
        <ele>760.1</ele>
        <time>2026-07-09T07:38:04.000Z</time>
      </trkpt>
      <trkpt lat="45.81666" lon="1.89316">
        <ele>759.8</ele>
        <time>2026-07-09T07:38:05.000Z</time>
      </trkpt>
      <trkpt lat="45.81668" lon="1.89317">
        <ele>760.1</ele>
        <time>2026-07-09T07:38:06.000Z</time>
      </trkpt>
      <trkpt lat="45.81669" lon="1.89319">
        <ele>759.7</ele>
        <time>2026-07-09T07:38:07.000Z</time>
      </trkpt>
      <trkpt lat="45.81671" lon="1.8932">
        <ele>760.3</ele>
        <time>2026-07-09T07:38:08.000Z</time>
      </trkpt>
      <trkpt lat="45.81673" lon="1.89321">
        <ele>760.6</ele>
        <time>2026-07-09T07:38:09.000Z</time>
      </trkpt>
      <trkpt lat="45.81674" lon="1.89323">
        <ele>760.6</ele>
        <time>2026-07-09T07:38:10.000Z</time>
      </trkpt>
      <trkpt lat="45.81675" lon="1.89325">
        <ele>760.8</ele>
        <time>2026-07-09T07:38:11.000Z</time>
      </trkpt>
      <trkpt lat="45.81677" lon="1.89326">
        <ele>759.7</ele>
        <time>2026-07-09T07:38:12.000Z</time>
      </trkpt>
      <trkpt lat="45.81678" lon="1.89327">
        <ele>760</ele>
        <time>2026-07-09T07:38:13.000Z</time>
      </trkpt>
      <trkpt lat="45.81679" lon="1.89329">
        <ele>759.6</ele>
        <time>2026-07-09T07:38:14.000Z</time>
      </trkpt>
      <trkpt lat="45.8168" lon="1.8933">
        <ele>759</ele>
        <time>2026-07-09T07:38:15.000Z</time>
      </trkpt>
      <trkpt lat="45.81681" lon="1.89331">
        <ele>758.7</ele>
        <time>2026-07-09T07:38:16.000Z</time>
      </trkpt>
      <trkpt lat="45.81683" lon="1.89333">
        <ele>758.5</ele>
        <time>2026-07-09T07:38:17.000Z</time>
      </trkpt>
      <trkpt lat="45.81685" lon="1.89335">
        <ele>759</ele>
        <time>2026-07-09T07:38:18.000Z</time>
      </trkpt>
      <trkpt lat="45.81686" lon="1.89336">
        <ele>759.3</ele>
        <time>2026-07-09T07:38:19.000Z</time>
      </trkpt>
      <trkpt lat="45.81688" lon="1.89338">
        <ele>761</ele>
        <time>2026-07-09T07:38:20.000Z</time>
      </trkpt>
      <trkpt lat="45.81689" lon="1.89339">
        <ele>761.2</ele>
        <time>2026-07-09T07:38:21.000Z</time>
      </trkpt>
      <trkpt lat="45.8169" lon="1.89341">
        <ele>761.1</ele>
        <time>2026-07-09T07:38:22.000Z</time>
      </trkpt>
      <trkpt lat="45.81691" lon="1.89343">
        <ele>761.4</ele>
        <time>2026-07-09T07:38:23.000Z</time>
      </trkpt>
      <trkpt lat="45.81692" lon="1.89345">
        <ele>761.2</ele>
        <time>2026-07-09T07:38:24.000Z</time>
      </trkpt>
      <trkpt lat="45.81693" lon="1.89346">
        <ele>761.1</ele>
        <time>2026-07-09T07:38:25.000Z</time>
      </trkpt>
      <trkpt lat="45.81695" lon="1.89347">
        <ele>760.9</ele>
        <time>2026-07-09T07:38:26.000Z</time>
      </trkpt>
      <trkpt lat="45.81696" lon="1.89349">
        <ele>761</ele>
        <time>2026-07-09T07:38:27.000Z</time>
      </trkpt>
      <trkpt lat="45.81697" lon="1.8935">
        <ele>761.3</ele>
        <time>2026-07-09T07:38:28.000Z</time>
      </trkpt>
      <trkpt lat="45.81698" lon="1.89351">
        <ele>760.9</ele>
        <time>2026-07-09T07:38:29.000Z</time>
      </trkpt>
      <trkpt lat="45.817" lon="1.89353">
        <ele>760.7</ele>
        <time>2026-07-09T07:38:30.000Z</time>
      </trkpt>
      <trkpt lat="45.81701" lon="1.89355">
        <ele>760.5</ele>
        <time>2026-07-09T07:38:31.000Z</time>
      </trkpt>
      <trkpt lat="45.81702" lon="1.89356">
        <ele>760.4</ele>
        <time>2026-07-09T07:38:32.000Z</time>
      </trkpt>
      <trkpt lat="45.81703" lon="1.89357">
        <ele>760.1</ele>
        <time>2026-07-09T07:38:33.000Z</time>
      </trkpt>
      <trkpt lat="45.81704" lon="1.8936">
        <ele>760.4</ele>
        <time>2026-07-09T07:38:34.000Z</time>
      </trkpt>
      <trkpt lat="45.81706" lon="1.89362">
        <ele>760.4</ele>
        <time>2026-07-09T07:38:35.000Z</time>
      </trkpt>
      <trkpt lat="45.81707" lon="1.89363">
        <ele>760.2</ele>
        <time>2026-07-09T07:38:36.000Z</time>
      </trkpt>
      <trkpt lat="45.81708" lon="1.89365">
        <ele>759.7</ele>
        <time>2026-07-09T07:38:37.000Z</time>
      </trkpt>
      <trkpt lat="45.81709" lon="1.89366">
        <ele>759.6</ele>
        <time>2026-07-09T07:38:38.000Z</time>
      </trkpt>
      <trkpt lat="45.8171" lon="1.89368">
        <ele>759</ele>
        <time>2026-07-09T07:38:39.000Z</time>
      </trkpt>
      <trkpt lat="45.81711" lon="1.89369">
        <ele>758.7</ele>
        <time>2026-07-09T07:38:40.000Z</time>
      </trkpt>
      <trkpt lat="45.81712" lon="1.89371">
        <ele>758.8</ele>
        <time>2026-07-09T07:38:41.000Z</time>
      </trkpt>
      <trkpt lat="45.81714" lon="1.89372">
        <ele>758.9</ele>
        <time>2026-07-09T07:38:42.000Z</time>
      </trkpt>
      <trkpt lat="45.81714" lon="1.89374">
        <ele>759.1</ele>
        <time>2026-07-09T07:38:43.000Z</time>
      </trkpt>
      <trkpt lat="45.81715" lon="1.89376">
        <ele>758.9</ele>
        <time>2026-07-09T07:38:44.000Z</time>
      </trkpt>
      <trkpt lat="45.81716" lon="1.89378">
        <ele>758.8</ele>
        <time>2026-07-09T07:38:45.000Z</time>
      </trkpt>
      <trkpt lat="45.81717" lon="1.89379">
        <ele>758.5</ele>
        <time>2026-07-09T07:38:46.000Z</time>
      </trkpt>
      <trkpt lat="45.81718" lon="1.89381">
        <ele>758.6</ele>
        <time>2026-07-09T07:38:47.000Z</time>
      </trkpt>
      <trkpt lat="45.81719" lon="1.89383">
        <ele>758.7</ele>
        <time>2026-07-09T07:38:48.000Z</time>
      </trkpt>
      <trkpt lat="45.8172" lon="1.89385">
        <ele>759.3</ele>
        <time>2026-07-09T07:38:49.000Z</time>
      </trkpt>
      <trkpt lat="45.81721" lon="1.89388">
        <ele>759.6</ele>
        <time>2026-07-09T07:38:50.000Z</time>
      </trkpt>
      <trkpt lat="45.81722" lon="1.8939">
        <ele>760.2</ele>
        <time>2026-07-09T07:38:51.000Z</time>
      </trkpt>
      <trkpt lat="45.81723" lon="1.89392">
        <ele>760.3</ele>
        <time>2026-07-09T07:38:52.000Z</time>
      </trkpt>
      <trkpt lat="45.81724" lon="1.89395">
        <ele>760.6</ele>
        <time>2026-07-09T07:38:53.000Z</time>
      </trkpt>
      <trkpt lat="45.81724" lon="1.89397">
        <ele>760.7</ele>
        <time>2026-07-09T07:38:54.000Z</time>
      </trkpt>
      <trkpt lat="45.81725" lon="1.89399">
        <ele>761</ele>
        <time>2026-07-09T07:38:55.000Z</time>
      </trkpt>
      <trkpt lat="45.81726" lon="1.89401">
        <ele>761.1</ele>
        <time>2026-07-09T07:38:56.000Z</time>
      </trkpt>
      <trkpt lat="45.81727" lon="1.89403">
        <ele>761.1</ele>
        <time>2026-07-09T07:38:57.000Z</time>
      </trkpt>
      <trkpt lat="45.81728" lon="1.89406">
        <ele>761</ele>
        <time>2026-07-09T07:38:58.000Z</time>
      </trkpt>
      <trkpt lat="45.81728" lon="1.89407">
        <ele>760.7</ele>
        <time>2026-07-09T07:38:59.000Z</time>
      </trkpt>
      <trkpt lat="45.81729" lon="1.89409">
        <ele>760.8</ele>
        <time>2026-07-09T07:39:00.000Z</time>
      </trkpt>
      <trkpt lat="45.8173" lon="1.89412">
        <ele>760.7</ele>
        <time>2026-07-09T07:39:01.000Z</time>
      </trkpt>
      <trkpt lat="45.81731" lon="1.89414">
        <ele>760.2</ele>
        <time>2026-07-09T07:39:02.000Z</time>
      </trkpt>
      <trkpt lat="45.81731" lon="1.89416">
        <ele>760</ele>
        <time>2026-07-09T07:39:03.000Z</time>
      </trkpt>
      <trkpt lat="45.81732" lon="1.89419">
        <ele>760.2</ele>
        <time>2026-07-09T07:39:04.000Z</time>
      </trkpt>
      <trkpt lat="45.81732" lon="1.89421">
        <ele>760.7</ele>
        <time>2026-07-09T07:39:05.000Z</time>
      </trkpt>
      <trkpt lat="45.81733" lon="1.89423">
        <ele>760.9</ele>
        <time>2026-07-09T07:39:06.000Z</time>
      </trkpt>
      <trkpt lat="45.81733" lon="1.89425">
        <ele>761</ele>
        <time>2026-07-09T07:39:07.000Z</time>
      </trkpt>
      <trkpt lat="45.81734" lon="1.89428">
        <ele>761.6</ele>
        <time>2026-07-09T07:39:08.000Z</time>
      </trkpt>
      <trkpt lat="45.81735" lon="1.8943">
        <ele>761.6</ele>
        <time>2026-07-09T07:39:09.000Z</time>
      </trkpt>
      <trkpt lat="45.81735" lon="1.89431">
        <ele>761.6</ele>
        <time>2026-07-09T07:39:10.000Z</time>
      </trkpt>
      <trkpt lat="45.81736" lon="1.89433">
        <ele>762</ele>
        <time>2026-07-09T07:39:11.000Z</time>
      </trkpt>
      <trkpt lat="45.81737" lon="1.89435">
        <ele>761.8</ele>
        <time>2026-07-09T07:39:12.000Z</time>
      </trkpt>
      <trkpt lat="45.81738" lon="1.89437">
        <ele>761.4</ele>
        <time>2026-07-09T07:39:13.000Z</time>
      </trkpt>
      <trkpt lat="45.81738" lon="1.8944">
        <ele>761.6</ele>
        <time>2026-07-09T07:39:14.000Z</time>
      </trkpt>
      <trkpt lat="45.81739" lon="1.89442">
        <ele>761.2</ele>
        <time>2026-07-09T07:39:15.000Z</time>
      </trkpt>
      <trkpt lat="45.8174" lon="1.89445">
        <ele>761.2</ele>
        <time>2026-07-09T07:39:16.000Z</time>
      </trkpt>
      <trkpt lat="45.8174" lon="1.89447">
        <ele>761</ele>
        <time>2026-07-09T07:39:17.000Z</time>
      </trkpt>
      <trkpt lat="45.81741" lon="1.8945">
        <ele>760.8</ele>
        <time>2026-07-09T07:39:18.000Z</time>
      </trkpt>
      <trkpt lat="45.81742" lon="1.89452">
        <ele>760.5</ele>
        <time>2026-07-09T07:39:19.000Z</time>
      </trkpt>
      <trkpt lat="45.81742" lon="1.89454">
        <ele>760.5</ele>
        <time>2026-07-09T07:39:20.000Z</time>
      </trkpt>
      <trkpt lat="45.81743" lon="1.89457">
        <ele>760.4</ele>
        <time>2026-07-09T07:39:21.000Z</time>
      </trkpt>
      <trkpt lat="45.81744" lon="1.89459">
        <ele>760.6</ele>
        <time>2026-07-09T07:39:22.000Z</time>
      </trkpt>
      <trkpt lat="45.81744" lon="1.89461">
        <ele>760.8</ele>
        <time>2026-07-09T07:39:23.000Z</time>
      </trkpt>
      <trkpt lat="45.81745" lon="1.89464">
        <ele>760</ele>
        <time>2026-07-09T07:39:24.000Z</time>
      </trkpt>
      <trkpt lat="45.81745" lon="1.89466">
        <ele>759.6</ele>
        <time>2026-07-09T07:39:25.000Z</time>
      </trkpt>
      <trkpt lat="45.81745" lon="1.89469">
        <ele>759.2</ele>
        <time>2026-07-09T07:39:26.000Z</time>
      </trkpt>
      <trkpt lat="45.81746" lon="1.89472">
        <ele>759.3</ele>
        <time>2026-07-09T07:39:27.000Z</time>
      </trkpt>
      <trkpt lat="45.81746" lon="1.89475">
        <ele>759.7</ele>
        <time>2026-07-09T07:39:28.000Z</time>
      </trkpt>
      <trkpt lat="45.81747" lon="1.89478">
        <ele>759.9</ele>
        <time>2026-07-09T07:39:29.000Z</time>
      </trkpt>
      <trkpt lat="45.81747" lon="1.8948">
        <ele>759.8</ele>
        <time>2026-07-09T07:39:30.000Z</time>
      </trkpt>
      <trkpt lat="45.81748" lon="1.89482">
        <ele>759.6</ele>
        <time>2026-07-09T07:39:31.000Z</time>
      </trkpt>
      <trkpt lat="45.81748" lon="1.89484">
        <ele>759.5</ele>
        <time>2026-07-09T07:39:32.000Z</time>
      </trkpt>
      <trkpt lat="45.81749" lon="1.89486">
        <ele>759.3</ele>
        <time>2026-07-09T07:39:33.000Z</time>
      </trkpt>
      <trkpt lat="45.81749" lon="1.89488">
        <ele>759.1</ele>
        <time>2026-07-09T07:39:34.000Z</time>
      </trkpt>
      <trkpt lat="45.8175" lon="1.89491">
        <ele>759.2</ele>
        <time>2026-07-09T07:39:35.000Z</time>
      </trkpt>
      <trkpt lat="45.81751" lon="1.89493">
        <ele>757.9</ele>
        <time>2026-07-09T07:39:36.000Z</time>
      </trkpt>
      <trkpt lat="45.81751" lon="1.89495">
        <ele>758.6</ele>
        <time>2026-07-09T07:39:37.000Z</time>
      </trkpt>
      <trkpt lat="45.81752" lon="1.89497">
        <ele>758</ele>
        <time>2026-07-09T07:39:38.000Z</time>
      </trkpt>
      <trkpt lat="45.81753" lon="1.89499">
        <ele>757.2</ele>
        <time>2026-07-09T07:39:39.000Z</time>
      </trkpt>
      <trkpt lat="45.81754" lon="1.89501">
        <ele>757.1</ele>
        <time>2026-07-09T07:39:40.000Z</time>
      </trkpt>
      <trkpt lat="45.81755" lon="1.89503">
        <ele>757</ele>
        <time>2026-07-09T07:39:41.000Z</time>
      </trkpt>
      <trkpt lat="45.81755" lon="1.89504">
        <ele>756</ele>
        <time>2026-07-09T07:39:42.000Z</time>
      </trkpt>
      <trkpt lat="45.81756" lon="1.89507">
        <ele>756.9</ele>
        <time>2026-07-09T07:39:43.000Z</time>
      </trkpt>
      <trkpt lat="45.81756" lon="1.89508">
        <ele>756.3</ele>
        <time>2026-07-09T07:39:44.000Z</time>
      </trkpt>
      <trkpt lat="45.81757" lon="1.89509">
        <ele>755.6</ele>
        <time>2026-07-09T07:39:45.000Z</time>
      </trkpt>
      <trkpt lat="45.81758" lon="1.89511">
        <ele>756.7</ele>
        <time>2026-07-09T07:39:46.000Z</time>
      </trkpt>
      <trkpt lat="45.81759" lon="1.89512">
        <ele>755.9</ele>
        <time>2026-07-09T07:39:47.000Z</time>
      </trkpt>
      <trkpt lat="45.8176" lon="1.89514">
        <ele>757.2</ele>
        <time>2026-07-09T07:39:48.000Z</time>
      </trkpt>
      <trkpt lat="45.8176" lon="1.89515">
        <ele>757</ele>
        <time>2026-07-09T07:39:49.000Z</time>
      </trkpt>
      <trkpt lat="45.81761" lon="1.89517">
        <ele>756.5</ele>
        <time>2026-07-09T07:39:50.000Z</time>
      </trkpt>
      <trkpt lat="45.81762" lon="1.89519">
        <ele>756.4</ele>
        <time>2026-07-09T07:39:51.000Z</time>
      </trkpt>
      <trkpt lat="45.81763" lon="1.8952">
        <ele>756.8</ele>
        <time>2026-07-09T07:39:52.000Z</time>
      </trkpt>
      <trkpt lat="45.81764" lon="1.89522">
        <ele>756.6</ele>
        <time>2026-07-09T07:39:53.000Z</time>
      </trkpt>
      <trkpt lat="45.81764" lon="1.89522">
        <ele>756.8</ele>
        <time>2026-07-09T07:39:54.000Z</time>
      </trkpt>
      <trkpt lat="45.81764" lon="1.89522">
        <ele>756.8</ele>
        <time>2026-07-09T07:39:55.000Z</time>
      </trkpt>
      <trkpt lat="45.81764" lon="1.89522">
        <ele>756.8</ele>
        <time>2026-07-09T07:39:56.000Z</time>
      </trkpt>
      <trkpt lat="45.81764" lon="1.89522">
        <ele>756.8</ele>
        <time>2026-07-09T07:39:57.000Z</time>
      </trkpt>
      <trkpt lat="45.81764" lon="1.89522">
        <ele>756.9</ele>
        <time>2026-07-09T07:39:58.000Z</time>
      </trkpt>
      <trkpt lat="45.81764" lon="1.89522">
        <ele>756.9</ele>
        <time>2026-07-09T07:39:59.000Z</time>
      </trkpt>
      <trkpt lat="45.81764" lon="1.89523">
        <ele>756.9</ele>
        <time>2026-07-09T07:40:00.000Z</time>
      </trkpt>
      <trkpt lat="45.81764" lon="1.89523">
        <ele>756.1</ele>
        <time>2026-07-09T07:40:01.000Z</time>
      </trkpt>
      <trkpt lat="45.81765" lon="1.89523">
        <ele>757.3</ele>
        <time>2026-07-09T07:40:02.000Z</time>
      </trkpt>
      <trkpt lat="45.81765" lon="1.89524">
        <ele>757</ele>
        <time>2026-07-09T07:40:03.000Z</time>
      </trkpt>
      <trkpt lat="45.81765" lon="1.89525">
        <ele>757</ele>
        <time>2026-07-09T07:40:04.000Z</time>
      </trkpt>
      <trkpt lat="45.81765" lon="1.89525">
        <ele>757.2</ele>
        <time>2026-07-09T07:40:05.000Z</time>
      </trkpt>
      <trkpt lat="45.81765" lon="1.89526">
        <ele>759</ele>
        <time>2026-07-09T07:40:06.000Z</time>
      </trkpt>
      <trkpt lat="45.81766" lon="1.89526">
        <ele>759.6</ele>
        <time>2026-07-09T07:40:07.000Z</time>
      </trkpt>
      <trkpt lat="45.81766" lon="1.89526">
        <ele>760.3</ele>
        <time>2026-07-09T07:40:08.000Z</time>
      </trkpt>
      <trkpt lat="45.81769" lon="1.89525">
        <ele>760.6</ele>
        <time>2026-07-09T07:40:09.000Z</time>
      </trkpt>
      <trkpt lat="45.8177" lon="1.89525">
        <ele>760.6</ele>
        <time>2026-07-09T07:40:10.000Z</time>
      </trkpt>
      <trkpt lat="45.8177" lon="1.89524">
        <ele>760.9</ele>
        <time>2026-07-09T07:40:11.000Z</time>
      </trkpt>
      <trkpt lat="45.8177" lon="1.89524">
        <ele>760.9</ele>
        <time>2026-07-09T07:40:12.000Z</time>
      </trkpt>
      <trkpt lat="45.8177" lon="1.89524">
        <ele>760.9</ele>
        <time>2026-07-09T07:40:13.000Z</time>
      </trkpt>
      <trkpt lat="45.8177" lon="1.89524">
        <ele>760.9</ele>
        <time>2026-07-09T07:40:14.000Z</time>
      </trkpt>
      <trkpt lat="45.8177" lon="1.89525">
        <ele>761.4</ele>
        <time>2026-07-09T07:40:15.000Z</time>
      </trkpt>
      <trkpt lat="45.8177" lon="1.89525">
        <ele>761.7</ele>
        <time>2026-07-09T07:40:16.000Z</time>
      </trkpt>
      <trkpt lat="45.81769" lon="1.89525">
        <ele>761.7</ele>
        <time>2026-07-09T07:40:17.000Z</time>
      </trkpt>
      <trkpt lat="45.81769" lon="1.89526">
        <ele>761.7</ele>
        <time>2026-07-09T07:40:18.000Z</time>
      </trkpt>
      <trkpt lat="45.81769" lon="1.89526">
        <ele>761.7</ele>
        <time>2026-07-09T07:40:19.000Z</time>
      </trkpt>
      <trkpt lat="45.81769" lon="1.89526">
        <ele>761.7</ele>
        <time>2026-07-09T07:40:20.000Z</time>
      </trkpt>
      <trkpt lat="45.81769" lon="1.89526">
        <ele>761.7</ele>
        <time>2026-07-09T07:40:21.000Z</time>
      </trkpt>
      <trkpt lat="45.81769" lon="1.89526">
        <ele>761.7</ele>
        <time>2026-07-09T07:40:22.000Z</time>
      </trkpt>
      <trkpt lat="45.81769" lon="1.89526">
        <ele>761.8</ele>
        <time>2026-07-09T07:40:23.000Z</time>
      </trkpt>
      <trkpt lat="45.81769" lon="1.89526">
        <ele>761.8</ele>
        <time>2026-07-09T07:40:24.000Z</time>
      </trkpt>
      <trkpt lat="45.81769" lon="1.89526">
        <ele>762.4</ele>
        <time>2026-07-09T07:40:25.000Z</time>
      </trkpt>
      <trkpt lat="45.81769" lon="1.89526">
        <ele>762.4</ele>
        <time>2026-07-09T07:40:26.000Z</time>
      </trkpt>
      <trkpt lat="45.81769" lon="1.89526">
        <ele>762.5</ele>
        <time>2026-07-09T07:40:27.000Z</time>
      </trkpt>
      <trkpt lat="45.81769" lon="1.89526">
        <ele>762.5</ele>
        <time>2026-07-09T07:40:28.000Z</time>
      </trkpt>
      <trkpt lat="45.81769" lon="1.89526">
        <ele>762.5</ele>
        <time>2026-07-09T07:40:29.000Z</time>
      </trkpt>
      <trkpt lat="45.81769" lon="1.89526">
        <ele>763.6</ele>
        <time>2026-07-09T07:40:30.000Z</time>
      </trkpt>
      <trkpt lat="45.81769" lon="1.89526">
        <ele>763.7</ele>
        <time>2026-07-09T07:40:31.000Z</time>
      </trkpt>
      <trkpt lat="45.81769" lon="1.89526">
        <ele>763.7</ele>
        <time>2026-07-09T07:40:32.000Z</time>
      </trkpt>
      <trkpt lat="45.81769" lon="1.89526">
        <ele>764</ele>
        <time>2026-07-09T07:40:33.000Z</time>
      </trkpt>
      <trkpt lat="45.81769" lon="1.89526">
        <ele>764</ele>
        <time>2026-07-09T07:40:34.000Z</time>
      </trkpt>
      <trkpt lat="45.81769" lon="1.89526">
        <ele>764.1</ele>
        <time>2026-07-09T07:40:35.000Z</time>
      </trkpt>
      <trkpt lat="45.81769" lon="1.89526">
        <ele>764.5</ele>
        <time>2026-07-09T07:40:36.000Z</time>
      </trkpt>
      <trkpt lat="45.81769" lon="1.89526">
        <ele>764.6</ele>
        <time>2026-07-09T07:40:37.000Z</time>
      </trkpt>
      <trkpt lat="45.81769" lon="1.89526">
        <ele>764.6</ele>
        <time>2026-07-09T07:40:38.000Z</time>
      </trkpt>
      <trkpt lat="45.81769" lon="1.89526">
        <ele>764.6</ele>
        <time>2026-07-09T07:40:39.000Z</time>
      </trkpt>
      <trkpt lat="45.81769" lon="1.89526">
        <ele>764.6</ele>
        <time>2026-07-09T07:40:40.000Z</time>
      </trkpt>
      <trkpt lat="45.81769" lon="1.89526">
        <ele>764.6</ele>
        <time>2026-07-09T07:40:41.000Z</time>
      </trkpt>
      <trkpt lat="45.81769" lon="1.89526">
        <ele>764.4</ele>
        <time>2026-07-09T07:40:42.000Z</time>
      </trkpt>
      <trkpt lat="45.81769" lon="1.89527">
        <ele>764.4</ele>
        <time>2026-07-09T07:40:43.000Z</time>
      </trkpt>
      <trkpt lat="45.81768" lon="1.89526">
        <ele>763.2</ele>
        <time>2026-07-09T07:40:44.000Z</time>
      </trkpt>
      <trkpt lat="45.81768" lon="1.89526">
        <ele>763.9</ele>
        <time>2026-07-09T07:40:45.000Z</time>
      </trkpt>
      <trkpt lat="45.81767" lon="1.89526">
        <ele>763.9</ele>
        <time>2026-07-09T07:40:46.000Z</time>
      </trkpt>
      <trkpt lat="45.81767" lon="1.89526">
        <ele>763.9</ele>
        <time>2026-07-09T07:40:47.000Z</time>
      </trkpt>
      <trkpt lat="45.81767" lon="1.89526">
        <ele>763.9</ele>
        <time>2026-07-09T07:40:48.000Z</time>
      </trkpt>
      <trkpt lat="45.81767" lon="1.89526">
        <ele>763.9</ele>
        <time>2026-07-09T07:40:49.000Z</time>
      </trkpt>
      <trkpt lat="45.81767" lon="1.89526">
        <ele>763.9</ele>
        <time>2026-07-09T07:40:50.000Z</time>
      </trkpt>
      <trkpt lat="45.81767" lon="1.89526">
        <ele>763.9</ele>
        <time>2026-07-09T07:40:51.000Z</time>
      </trkpt>
      <trkpt lat="45.81767" lon="1.89526">
        <ele>763.9</ele>
        <time>2026-07-09T07:40:52.000Z</time>
      </trkpt>
      <trkpt lat="45.81767" lon="1.89526">
        <ele>763.9</ele>
        <time>2026-07-09T07:40:53.000Z</time>
      </trkpt>
      <trkpt lat="45.81767" lon="1.89526">
        <ele>763.7</ele>
        <time>2026-07-09T07:40:54.000Z</time>
      </trkpt>
      <trkpt lat="45.81767" lon="1.89526">
        <ele>763.7</ele>
        <time>2026-07-09T07:40:55.000Z</time>
      </trkpt>
      <trkpt lat="45.81767" lon="1.89526">
        <ele>763.7</ele>
        <time>2026-07-09T07:40:56.000Z</time>
      </trkpt>
      <trkpt lat="45.81767" lon="1.89526">
        <ele>763.7</ele>
        <time>2026-07-09T07:40:57.000Z</time>
      </trkpt>
      <trkpt lat="45.81767" lon="1.89526">
        <ele>763.7</ele>
        <time>2026-07-09T07:40:58.000Z</time>
      </trkpt>
      <trkpt lat="45.81767" lon="1.89526">
        <ele>763.7</ele>
        <time>2026-07-09T07:40:59.000Z</time>
      </trkpt>
      <trkpt lat="45.81767" lon="1.89526">
        <ele>763.7</ele>
        <time>2026-07-09T07:41:00.000Z</time>
      </trkpt>
      <trkpt lat="45.81767" lon="1.89526">
        <ele>763.7</ele>
        <time>2026-07-09T07:41:01.000Z</time>
      </trkpt>
      <trkpt lat="45.81767" lon="1.89526">
        <ele>763.7</ele>
        <time>2026-07-09T07:41:02.000Z</time>
      </trkpt>
      <trkpt lat="45.81767" lon="1.89526">
        <ele>763.7</ele>
        <time>2026-07-09T07:41:03.000Z</time>
      </trkpt>
      <trkpt lat="45.81767" lon="1.89526">
        <ele>763.7</ele>
        <time>2026-07-09T07:41:04.000Z</time>
      </trkpt>
      <trkpt lat="45.81767" lon="1.89526">
        <ele>763.7</ele>
        <time>2026-07-09T07:41:05.000Z</time>
      </trkpt>
      <trkpt lat="45.81767" lon="1.89526">
        <ele>763.7</ele>
        <time>2026-07-09T07:41:06.000Z</time>
      </trkpt>
      <trkpt lat="45.81767" lon="1.89526">
        <ele>763.7</ele>
        <time>2026-07-09T07:41:07.000Z</time>
      </trkpt>
      <trkpt lat="45.81767" lon="1.89526">
        <ele>763.7</ele>
        <time>2026-07-09T07:41:08.000Z</time>
      </trkpt>
      <trkpt lat="45.81767" lon="1.89527">
        <ele>763.7</ele>
        <time>2026-07-09T07:41:09.000Z</time>
      </trkpt>
      <trkpt lat="45.81767" lon="1.89527">
        <ele>763.7</ele>
        <time>2026-07-09T07:41:10.000Z</time>
      </trkpt>
      <trkpt lat="45.81767" lon="1.89527">
        <ele>763.7</ele>
        <time>2026-07-09T07:41:11.000Z</time>
      </trkpt>
      <trkpt lat="45.81767" lon="1.89527">
        <ele>763.7</ele>
        <time>2026-07-09T07:41:12.000Z</time>
      </trkpt>
      <trkpt lat="45.81767" lon="1.89527">
        <ele>763.7</ele>
        <time>2026-07-09T07:41:13.000Z</time>
      </trkpt>
      <trkpt lat="45.81767" lon="1.89527">
        <ele>763.7</ele>
        <time>2026-07-09T07:41:14.000Z</time>
      </trkpt>
      <trkpt lat="45.81767" lon="1.89527">
        <ele>763.7</ele>
        <time>2026-07-09T07:41:15.000Z</time>
      </trkpt>
      <trkpt lat="45.81767" lon="1.89527">
        <ele>763.7</ele>
        <time>2026-07-09T07:41:16.000Z</time>
      </trkpt>
      <trkpt lat="45.81767" lon="1.89527">
        <ele>763.7</ele>
        <time>2026-07-09T07:41:17.000Z</time>
      </trkpt>
      <trkpt lat="45.81767" lon="1.89527">
        <ele>763.7</ele>
        <time>2026-07-09T07:41:18.000Z</time>
      </trkpt>
      <trkpt lat="45.81767" lon="1.89527">
        <ele>763.7</ele>
        <time>2026-07-09T07:41:19.000Z</time>
      </trkpt>
      <trkpt lat="45.81767" lon="1.89527">
        <ele>763.7</ele>
        <time>2026-07-09T07:41:20.000Z</time>
      </trkpt>
      <trkpt lat="45.81767" lon="1.89527">
        <ele>763.7</ele>
        <time>2026-07-09T07:41:21.000Z</time>
      </trkpt>
      <trkpt lat="45.81767" lon="1.89527">
        <ele>763.7</ele>
        <time>2026-07-09T07:41:22.000Z</time>
      </trkpt>
      <trkpt lat="45.81767" lon="1.89527">
        <ele>763.7</ele>
        <time>2026-07-09T07:41:23.000Z</time>
      </trkpt>
      <trkpt lat="45.81767" lon="1.89527">
        <ele>763.7</ele>
        <time>2026-07-09T07:41:24.000Z</time>
      </trkpt>
      <trkpt lat="45.81767" lon="1.89527">
        <ele>763.7</ele>
        <time>2026-07-09T07:41:25.000Z</time>
      </trkpt>
      <trkpt lat="45.81767" lon="1.89527">
        <ele>763.7</ele>
        <time>2026-07-09T07:41:26.000Z</time>
      </trkpt>
      <trkpt lat="45.81767" lon="1.89527">
        <ele>763.7</ele>
        <time>2026-07-09T07:41:27.000Z</time>
      </trkpt>
      <trkpt lat="45.81767" lon="1.89527">
        <ele>763.7</ele>
        <time>2026-07-09T07:41:28.000Z</time>
      </trkpt>
      <trkpt lat="45.81767" lon="1.89527">
        <ele>763.7</ele>
        <time>2026-07-09T07:41:29.000Z</time>
      </trkpt>
      <trkpt lat="45.81767" lon="1.89527">
        <ele>763.7</ele>
        <time>2026-07-09T07:41:30.000Z</time>
      </trkpt>
      <trkpt lat="45.81767" lon="1.89527">
        <ele>763.7</ele>
        <time>2026-07-09T07:41:31.000Z</time>
      </trkpt>
      <trkpt lat="45.81767" lon="1.89527">
        <ele>763.6</ele>
        <time>2026-07-09T07:41:32.000Z</time>
      </trkpt>
      <trkpt lat="45.81767" lon="1.89528">
        <ele>764.3</ele>
        <time>2026-07-09T07:41:33.000Z</time>
      </trkpt>
      <trkpt lat="45.81767" lon="1.89528">
        <ele>764.8</ele>
        <time>2026-07-09T07:41:34.000Z</time>
      </trkpt>
      <trkpt lat="45.81768" lon="1.89528">
        <ele>764.7</ele>
        <time>2026-07-09T07:41:35.000Z</time>
      </trkpt>
      <trkpt lat="45.81769" lon="1.89529">
        <ele>765.9</ele>
        <time>2026-07-09T07:41:36.000Z</time>
      </trkpt>
      <trkpt lat="45.81769" lon="1.89529">
        <ele>766.8</ele>
        <time>2026-07-09T07:41:37.000Z</time>
      </trkpt>
      <trkpt lat="45.8177" lon="1.8953">
        <ele>766.8</ele>
        <time>2026-07-09T07:41:38.000Z</time>
      </trkpt>
      <trkpt lat="45.8177" lon="1.89531">
        <ele>766.6</ele>
        <time>2026-07-09T07:41:39.000Z</time>
      </trkpt>
      <trkpt lat="45.81771" lon="1.89533">
        <ele>766.6</ele>
        <time>2026-07-09T07:41:40.000Z</time>
      </trkpt>
      <trkpt lat="45.81772" lon="1.89535">
        <ele>767.3</ele>
        <time>2026-07-09T07:41:41.000Z</time>
      </trkpt>
      <trkpt lat="45.81774" lon="1.89536">
        <ele>767.5</ele>
        <time>2026-07-09T07:41:42.000Z</time>
      </trkpt>
      <trkpt lat="45.81774" lon="1.89538">
        <ele>767.2</ele>
        <time>2026-07-09T07:41:43.000Z</time>
      </trkpt>
      <trkpt lat="45.81774" lon="1.89538">
        <ele>766.3</ele>
        <time>2026-07-09T07:41:44.000Z</time>
      </trkpt>
      <trkpt lat="45.81774" lon="1.89539">
        <ele>767</ele>
        <time>2026-07-09T07:41:45.000Z</time>
      </trkpt>
      <trkpt lat="45.81775" lon="1.89541">
        <ele>766.9</ele>
        <time>2026-07-09T07:41:46.000Z</time>
      </trkpt>
      <trkpt lat="45.81777" lon="1.89543">
        <ele>766.8</ele>
        <time>2026-07-09T07:41:47.000Z</time>
      </trkpt>
      <trkpt lat="45.81778" lon="1.89545">
        <ele>766.1</ele>
        <time>2026-07-09T07:41:48.000Z</time>
      </trkpt>
      <trkpt lat="45.81779" lon="1.89548">
        <ele>766.3</ele>
        <time>2026-07-09T07:41:49.000Z</time>
      </trkpt>
      <trkpt lat="45.8178" lon="1.89549">
        <ele>765.9</ele>
        <time>2026-07-09T07:41:50.000Z</time>
      </trkpt>
      <trkpt lat="45.81781" lon="1.8955">
        <ele>765.5</ele>
        <time>2026-07-09T07:41:51.000Z</time>
      </trkpt>
      <trkpt lat="45.81781" lon="1.89551">
        <ele>764.9</ele>
        <time>2026-07-09T07:41:52.000Z</time>
      </trkpt>
      <trkpt lat="45.81782" lon="1.89553">
        <ele>763.8</ele>
        <time>2026-07-09T07:41:53.000Z</time>
      </trkpt>
      <trkpt lat="45.81782" lon="1.89554">
        <ele>763.1</ele>
        <time>2026-07-09T07:41:54.000Z</time>
      </trkpt>
      <trkpt lat="45.81783" lon="1.89556">
        <ele>763</ele>
        <time>2026-07-09T07:41:55.000Z</time>
      </trkpt>
      <trkpt lat="45.81784" lon="1.89558">
        <ele>762.5</ele>
        <time>2026-07-09T07:41:56.000Z</time>
      </trkpt>
      <trkpt lat="45.81786" lon="1.89559">
        <ele>761.9</ele>
        <time>2026-07-09T07:41:57.000Z</time>
      </trkpt>
      <trkpt lat="45.81787" lon="1.8956">
        <ele>761.2</ele>
        <time>2026-07-09T07:41:58.000Z</time>
      </trkpt>
      <trkpt lat="45.81788" lon="1.89561">
        <ele>760.8</ele>
        <time>2026-07-09T07:41:59.000Z</time>
      </trkpt>
      <trkpt lat="45.8179" lon="1.89561">
        <ele>760.5</ele>
        <time>2026-07-09T07:42:00.000Z</time>
      </trkpt>
      <trkpt lat="45.81792" lon="1.89562">
        <ele>759.6</ele>
        <time>2026-07-09T07:42:01.000Z</time>
      </trkpt>
      <trkpt lat="45.81793" lon="1.89563">
        <ele>760.1</ele>
        <time>2026-07-09T07:42:02.000Z</time>
      </trkpt>
      <trkpt lat="45.81794" lon="1.89564">
        <ele>759.4</ele>
        <time>2026-07-09T07:42:03.000Z</time>
      </trkpt>
      <trkpt lat="45.81796" lon="1.89564">
        <ele>758.9</ele>
        <time>2026-07-09T07:42:04.000Z</time>
      </trkpt>
      <trkpt lat="45.81797" lon="1.89565">
        <ele>759.2</ele>
        <time>2026-07-09T07:42:05.000Z</time>
      </trkpt>
      <trkpt lat="45.81799" lon="1.89566">
        <ele>758.8</ele>
        <time>2026-07-09T07:42:06.000Z</time>
      </trkpt>
      <trkpt lat="45.818" lon="1.89567">
        <ele>758.4</ele>
        <time>2026-07-09T07:42:07.000Z</time>
      </trkpt>
      <trkpt lat="45.81801" lon="1.89568">
        <ele>758.2</ele>
        <time>2026-07-09T07:42:08.000Z</time>
      </trkpt>
      <trkpt lat="45.81802" lon="1.8957">
        <ele>757.5</ele>
        <time>2026-07-09T07:42:09.000Z</time>
      </trkpt>
      <trkpt lat="45.81804" lon="1.8957">
        <ele>757.1</ele>
        <time>2026-07-09T07:42:10.000Z</time>
      </trkpt>
      <trkpt lat="45.81805" lon="1.89572">
        <ele>757</ele>
        <time>2026-07-09T07:42:11.000Z</time>
      </trkpt>
      <trkpt lat="45.81807" lon="1.89572">
        <ele>755.2</ele>
        <time>2026-07-09T07:42:12.000Z</time>
      </trkpt>
      <trkpt lat="45.81808" lon="1.89573">
        <ele>755</ele>
        <time>2026-07-09T07:42:13.000Z</time>
      </trkpt>
      <trkpt lat="45.8181" lon="1.89573">
        <ele>753.9</ele>
        <time>2026-07-09T07:42:14.000Z</time>
      </trkpt>
      <trkpt lat="45.81811" lon="1.89574">
        <ele>754.5</ele>
        <time>2026-07-09T07:42:15.000Z</time>
      </trkpt>
      <trkpt lat="45.81813" lon="1.89575">
        <ele>754.9</ele>
        <time>2026-07-09T07:42:16.000Z</time>
      </trkpt>
      <trkpt lat="45.81814" lon="1.89576">
        <ele>755.6</ele>
        <time>2026-07-09T07:42:17.000Z</time>
      </trkpt>
      <trkpt lat="45.81816" lon="1.89578">
        <ele>755.5</ele>
        <time>2026-07-09T07:42:18.000Z</time>
      </trkpt>
      <trkpt lat="45.81817" lon="1.89578">
        <ele>755.5</ele>
        <time>2026-07-09T07:42:19.000Z</time>
      </trkpt>
      <trkpt lat="45.81819" lon="1.8958">
        <ele>755.1</ele>
        <time>2026-07-09T07:42:20.000Z</time>
      </trkpt>
      <trkpt lat="45.8182" lon="1.89582">
        <ele>755.2</ele>
        <time>2026-07-09T07:42:21.000Z</time>
      </trkpt>
      <trkpt lat="45.81822" lon="1.89583">
        <ele>754.9</ele>
        <time>2026-07-09T07:42:22.000Z</time>
      </trkpt>
      <trkpt lat="45.81824" lon="1.89584">
        <ele>754.6</ele>
        <time>2026-07-09T07:42:23.000Z</time>
      </trkpt>
      <trkpt lat="45.81826" lon="1.89584">
        <ele>754.8</ele>
        <time>2026-07-09T07:42:24.000Z</time>
      </trkpt>
      <trkpt lat="45.81827" lon="1.89584">
        <ele>754.7</ele>
        <time>2026-07-09T07:42:25.000Z</time>
      </trkpt>
      <trkpt lat="45.81829" lon="1.89585">
        <ele>755.1</ele>
        <time>2026-07-09T07:42:26.000Z</time>
      </trkpt>
      <trkpt lat="45.8183" lon="1.89585">
        <ele>755.4</ele>
        <time>2026-07-09T07:42:27.000Z</time>
      </trkpt>
      <trkpt lat="45.81832" lon="1.89586">
        <ele>755.6</ele>
        <time>2026-07-09T07:42:28.000Z</time>
      </trkpt>
      <trkpt lat="45.81833" lon="1.89587">
        <ele>755.4</ele>
        <time>2026-07-09T07:42:29.000Z</time>
      </trkpt>
      <trkpt lat="45.81835" lon="1.89588">
        <ele>755.2</ele>
        <time>2026-07-09T07:42:30.000Z</time>
      </trkpt>
      <trkpt lat="45.81836" lon="1.89588">
        <ele>755.4</ele>
        <time>2026-07-09T07:42:31.000Z</time>
      </trkpt>
      <trkpt lat="45.81838" lon="1.89589">
        <ele>755.6</ele>
        <time>2026-07-09T07:42:32.000Z</time>
      </trkpt>
      <trkpt lat="45.81839" lon="1.8959">
        <ele>755.7</ele>
        <time>2026-07-09T07:42:33.000Z</time>
      </trkpt>
      <trkpt lat="45.8184" lon="1.89591">
        <ele>755.3</ele>
        <time>2026-07-09T07:42:34.000Z</time>
      </trkpt>
      <trkpt lat="45.81842" lon="1.89592">
        <ele>755.5</ele>
        <time>2026-07-09T07:42:35.000Z</time>
      </trkpt>
      <trkpt lat="45.81843" lon="1.89593">
        <ele>756.2</ele>
        <time>2026-07-09T07:42:36.000Z</time>
      </trkpt>
      <trkpt lat="45.81844" lon="1.89595">
        <ele>757</ele>
        <time>2026-07-09T07:42:37.000Z</time>
      </trkpt>
      <trkpt lat="45.81847" lon="1.89597">
        <ele>758.3</ele>
        <time>2026-07-09T07:42:38.000Z</time>
      </trkpt>
      <trkpt lat="45.81848" lon="1.89597">
        <ele>757.9</ele>
        <time>2026-07-09T07:42:39.000Z</time>
      </trkpt>
      <trkpt lat="45.8185" lon="1.89596">
        <ele>757.3</ele>
        <time>2026-07-09T07:42:40.000Z</time>
      </trkpt>
      <trkpt lat="45.81851" lon="1.89597">
        <ele>757.6</ele>
        <time>2026-07-09T07:42:41.000Z</time>
      </trkpt>
      <trkpt lat="45.81853" lon="1.89598">
        <ele>758.1</ele>
        <time>2026-07-09T07:42:42.000Z</time>
      </trkpt>
      <trkpt lat="45.81854" lon="1.89599">
        <ele>758.4</ele>
        <time>2026-07-09T07:42:43.000Z</time>
      </trkpt>
      <trkpt lat="45.81856" lon="1.896">
        <ele>758.7</ele>
        <time>2026-07-09T07:42:44.000Z</time>
      </trkpt>
      <trkpt lat="45.81857" lon="1.89601">
        <ele>758.7</ele>
        <time>2026-07-09T07:42:45.000Z</time>
      </trkpt>
      <trkpt lat="45.81859" lon="1.89601">
        <ele>757.6</ele>
        <time>2026-07-09T07:42:46.000Z</time>
      </trkpt>
      <trkpt lat="45.81861" lon="1.89601">
        <ele>756.7</ele>
        <time>2026-07-09T07:42:47.000Z</time>
      </trkpt>
      <trkpt lat="45.81862" lon="1.89601">
        <ele>756.7</ele>
        <time>2026-07-09T07:42:48.000Z</time>
      </trkpt>
      <trkpt lat="45.81864" lon="1.89602">
        <ele>756.8</ele>
        <time>2026-07-09T07:42:49.000Z</time>
      </trkpt>
      <trkpt lat="45.81865" lon="1.89602">
        <ele>757.2</ele>
        <time>2026-07-09T07:42:50.000Z</time>
      </trkpt>
      <trkpt lat="45.81866" lon="1.89603">
        <ele>757.5</ele>
        <time>2026-07-09T07:42:51.000Z</time>
      </trkpt>
      <trkpt lat="45.81868" lon="1.89603">
        <ele>757.9</ele>
        <time>2026-07-09T07:42:52.000Z</time>
      </trkpt>
      <trkpt lat="45.81869" lon="1.89604">
        <ele>757</ele>
        <time>2026-07-09T07:42:53.000Z</time>
      </trkpt>
      <trkpt lat="45.81871" lon="1.89604">
        <ele>757.3</ele>
        <time>2026-07-09T07:42:54.000Z</time>
      </trkpt>
      <trkpt lat="45.81872" lon="1.89605">
        <ele>756.9</ele>
        <time>2026-07-09T07:42:55.000Z</time>
      </trkpt>
      <trkpt lat="45.81874" lon="1.89605">
        <ele>757.1</ele>
        <time>2026-07-09T07:42:56.000Z</time>
      </trkpt>
      <trkpt lat="45.81876" lon="1.89606">
        <ele>757.7</ele>
        <time>2026-07-09T07:42:57.000Z</time>
      </trkpt>
      <trkpt lat="45.81877" lon="1.89606">
        <ele>757.2</ele>
        <time>2026-07-09T07:42:58.000Z</time>
      </trkpt>
      <trkpt lat="45.81879" lon="1.89607">
        <ele>756.6</ele>
        <time>2026-07-09T07:42:59.000Z</time>
      </trkpt>
      <trkpt lat="45.8188" lon="1.89607">
        <ele>756.1</ele>
        <time>2026-07-09T07:43:00.000Z</time>
      </trkpt>
      <trkpt lat="45.81882" lon="1.89607">
        <ele>755.6</ele>
        <time>2026-07-09T07:43:01.000Z</time>
      </trkpt>
      <trkpt lat="45.81883" lon="1.89608">
        <ele>755.2</ele>
        <time>2026-07-09T07:43:02.000Z</time>
      </trkpt>
      <trkpt lat="45.81885" lon="1.89608">
        <ele>755.1</ele>
        <time>2026-07-09T07:43:03.000Z</time>
      </trkpt>
      <trkpt lat="45.81887" lon="1.89608">
        <ele>754.3</ele>
        <time>2026-07-09T07:43:04.000Z</time>
      </trkpt>
      <trkpt lat="45.81888" lon="1.89608">
        <ele>754.3</ele>
        <time>2026-07-09T07:43:05.000Z</time>
      </trkpt>
      <trkpt lat="45.8189" lon="1.89607">
        <ele>754.2</ele>
        <time>2026-07-09T07:43:06.000Z</time>
      </trkpt>
      <trkpt lat="45.81892" lon="1.89606">
        <ele>754.4</ele>
        <time>2026-07-09T07:43:07.000Z</time>
      </trkpt>
      <trkpt lat="45.81895" lon="1.89605">
        <ele>753.9</ele>
        <time>2026-07-09T07:43:08.000Z</time>
      </trkpt>
      <trkpt lat="45.81897" lon="1.89605">
        <ele>754.8</ele>
        <time>2026-07-09T07:43:09.000Z</time>
      </trkpt>
      <trkpt lat="45.81899" lon="1.89604">
        <ele>754.3</ele>
        <time>2026-07-09T07:43:10.000Z</time>
      </trkpt>
      <trkpt lat="45.81901" lon="1.89604">
        <ele>753.6</ele>
        <time>2026-07-09T07:43:11.000Z</time>
      </trkpt>
      <trkpt lat="45.81903" lon="1.89604">
        <ele>753.1</ele>
        <time>2026-07-09T07:43:12.000Z</time>
      </trkpt>
      <trkpt lat="45.81905" lon="1.89603">
        <ele>752.4</ele>
        <time>2026-07-09T07:43:13.000Z</time>
      </trkpt>
      <trkpt lat="45.81906" lon="1.89603">
        <ele>752.3</ele>
        <time>2026-07-09T07:43:14.000Z</time>
      </trkpt>
      <trkpt lat="45.81908" lon="1.89603">
        <ele>752</ele>
        <time>2026-07-09T07:43:15.000Z</time>
      </trkpt>
      <trkpt lat="45.8191" lon="1.89603">
        <ele>751.6</ele>
        <time>2026-07-09T07:43:16.000Z</time>
      </trkpt>
      <trkpt lat="45.81911" lon="1.89603">
        <ele>752.7</ele>
        <time>2026-07-09T07:43:17.000Z</time>
      </trkpt>
      <trkpt lat="45.81913" lon="1.89602">
        <ele>751.7</ele>
        <time>2026-07-09T07:43:18.000Z</time>
      </trkpt>
      <trkpt lat="45.81914" lon="1.89601">
        <ele>752</ele>
        <time>2026-07-09T07:43:19.000Z</time>
      </trkpt>
      <trkpt lat="45.81916" lon="1.89601">
        <ele>752.5</ele>
        <time>2026-07-09T07:43:20.000Z</time>
      </trkpt>
      <trkpt lat="45.81918" lon="1.896">
        <ele>752.9</ele>
        <time>2026-07-09T07:43:21.000Z</time>
      </trkpt>
      <trkpt lat="45.8192" lon="1.896">
        <ele>753.2</ele>
        <time>2026-07-09T07:43:22.000Z</time>
      </trkpt>
      <trkpt lat="45.81921" lon="1.89599">
        <ele>753.3</ele>
        <time>2026-07-09T07:43:23.000Z</time>
      </trkpt>
      <trkpt lat="45.81924" lon="1.89598">
        <ele>755.5</ele>
        <time>2026-07-09T07:43:24.000Z</time>
      </trkpt>
      <trkpt lat="45.81925" lon="1.89597">
        <ele>757.5</ele>
        <time>2026-07-09T07:43:25.000Z</time>
      </trkpt>
      <trkpt lat="45.81927" lon="1.89597">
        <ele>756.5</ele>
        <time>2026-07-09T07:43:26.000Z</time>
      </trkpt>
      <trkpt lat="45.81928" lon="1.89597">
        <ele>755.6</ele>
        <time>2026-07-09T07:43:27.000Z</time>
      </trkpt>
      <trkpt lat="45.8193" lon="1.89596">
        <ele>755.4</ele>
        <time>2026-07-09T07:43:28.000Z</time>
      </trkpt>
      <trkpt lat="45.81932" lon="1.89596">
        <ele>755.5</ele>
        <time>2026-07-09T07:43:29.000Z</time>
      </trkpt>
      <trkpt lat="45.81934" lon="1.89595">
        <ele>754.9</ele>
        <time>2026-07-09T07:43:30.000Z</time>
      </trkpt>
      <trkpt lat="45.81934" lon="1.89595">
        <ele>757</ele>
        <time>2026-07-09T07:43:31.000Z</time>
      </trkpt>
      <trkpt lat="45.81936" lon="1.89595">
        <ele>757.7</ele>
        <time>2026-07-09T07:43:32.000Z</time>
      </trkpt>
      <trkpt lat="45.81937" lon="1.89595">
        <ele>757.9</ele>
        <time>2026-07-09T07:43:33.000Z</time>
      </trkpt>
      <trkpt lat="45.81939" lon="1.89594">
        <ele>758.1</ele>
        <time>2026-07-09T07:43:34.000Z</time>
      </trkpt>
      <trkpt lat="45.81941" lon="1.89594">
        <ele>757.4</ele>
        <time>2026-07-09T07:43:35.000Z</time>
      </trkpt>
      <trkpt lat="45.81942" lon="1.89594">
        <ele>758</ele>
        <time>2026-07-09T07:43:36.000Z</time>
      </trkpt>
      <trkpt lat="45.81943" lon="1.89593">
        <ele>758.3</ele>
        <time>2026-07-09T07:43:37.000Z</time>
      </trkpt>
      <trkpt lat="45.81945" lon="1.89591">
        <ele>758</ele>
        <time>2026-07-09T07:43:38.000Z</time>
      </trkpt>
      <trkpt lat="45.81947" lon="1.89591">
        <ele>757.6</ele>
        <time>2026-07-09T07:43:39.000Z</time>
      </trkpt>
      <trkpt lat="45.81948" lon="1.8959">
        <ele>757.7</ele>
        <time>2026-07-09T07:43:40.000Z</time>
      </trkpt>
      <trkpt lat="45.81951" lon="1.89589">
        <ele>758</ele>
        <time>2026-07-09T07:43:41.000Z</time>
      </trkpt>
      <trkpt lat="45.81952" lon="1.89589">
        <ele>757.9</ele>
        <time>2026-07-09T07:43:42.000Z</time>
      </trkpt>
      <trkpt lat="45.81954" lon="1.89589">
        <ele>758.5</ele>
        <time>2026-07-09T07:43:43.000Z</time>
      </trkpt>
      <trkpt lat="45.81956" lon="1.89588">
        <ele>758.4</ele>
        <time>2026-07-09T07:43:44.000Z</time>
      </trkpt>
      <trkpt lat="45.81958" lon="1.89588">
        <ele>758.8</ele>
        <time>2026-07-09T07:43:45.000Z</time>
      </trkpt>
      <trkpt lat="45.81959" lon="1.89587">
        <ele>758.2</ele>
        <time>2026-07-09T07:43:46.000Z</time>
      </trkpt>
      <trkpt lat="45.81961" lon="1.89587">
        <ele>757.9</ele>
        <time>2026-07-09T07:43:47.000Z</time>
      </trkpt>
      <trkpt lat="45.81962" lon="1.89587">
        <ele>756</ele>
        <time>2026-07-09T07:43:48.000Z</time>
      </trkpt>
      <trkpt lat="45.81963" lon="1.89587">
        <ele>754.6</ele>
        <time>2026-07-09T07:43:49.000Z</time>
      </trkpt>
      <trkpt lat="45.81964" lon="1.89588">
        <ele>755.3</ele>
        <time>2026-07-09T07:43:50.000Z</time>
      </trkpt>
      <trkpt lat="45.81966" lon="1.89588">
        <ele>755.6</ele>
        <time>2026-07-09T07:43:51.000Z</time>
      </trkpt>
      <trkpt lat="45.81968" lon="1.89589">
        <ele>755.3</ele>
        <time>2026-07-09T07:43:52.000Z</time>
      </trkpt>
      <trkpt lat="45.81969" lon="1.89589">
        <ele>754.3</ele>
        <time>2026-07-09T07:43:53.000Z</time>
      </trkpt>
      <trkpt lat="45.8197" lon="1.89589">
        <ele>754</ele>
        <time>2026-07-09T07:43:54.000Z</time>
      </trkpt>
      <trkpt lat="45.81972" lon="1.8959">
        <ele>754.2</ele>
        <time>2026-07-09T07:43:55.000Z</time>
      </trkpt>
      <trkpt lat="45.81974" lon="1.89591">
        <ele>753</ele>
        <time>2026-07-09T07:43:56.000Z</time>
      </trkpt>
      <trkpt lat="45.81975" lon="1.89591">
        <ele>753.8</ele>
        <time>2026-07-09T07:43:57.000Z</time>
      </trkpt>
      <trkpt lat="45.81977" lon="1.89591">
        <ele>753.7</ele>
        <time>2026-07-09T07:43:58.000Z</time>
      </trkpt>
      <trkpt lat="45.81979" lon="1.89591">
        <ele>753.5</ele>
        <time>2026-07-09T07:43:59.000Z</time>
      </trkpt>
      <trkpt lat="45.81981" lon="1.8959">
        <ele>753.6</ele>
        <time>2026-07-09T07:44:00.000Z</time>
      </trkpt>
      <trkpt lat="45.81983" lon="1.89591">
        <ele>753.6</ele>
        <time>2026-07-09T07:44:01.000Z</time>
      </trkpt>
      <trkpt lat="45.81985" lon="1.89593">
        <ele>753</ele>
        <time>2026-07-09T07:44:02.000Z</time>
      </trkpt>
      <trkpt lat="45.81986" lon="1.89595">
        <ele>752.9</ele>
        <time>2026-07-09T07:44:03.000Z</time>
      </trkpt>
      <trkpt lat="45.81988" lon="1.89596">
        <ele>752.8</ele>
        <time>2026-07-09T07:44:04.000Z</time>
      </trkpt>
      <trkpt lat="45.81989" lon="1.89597">
        <ele>752.7</ele>
        <time>2026-07-09T07:44:05.000Z</time>
      </trkpt>
      <trkpt lat="45.8199" lon="1.89597">
        <ele>752.5</ele>
        <time>2026-07-09T07:44:06.000Z</time>
      </trkpt>
      <trkpt lat="45.81992" lon="1.89597">
        <ele>753</ele>
        <time>2026-07-09T07:44:07.000Z</time>
      </trkpt>
      <trkpt lat="45.81991" lon="1.89596">
        <ele>752.3</ele>
        <time>2026-07-09T07:44:08.000Z</time>
      </trkpt>
      <trkpt lat="45.81991" lon="1.89596">
        <ele>752.3</ele>
        <time>2026-07-09T07:44:09.000Z</time>
      </trkpt>
      <trkpt lat="45.81991" lon="1.89596">
        <ele>752.3</ele>
        <time>2026-07-09T07:44:10.000Z</time>
      </trkpt>
      <trkpt lat="45.81991" lon="1.89596">
        <ele>752.5</ele>
        <time>2026-07-09T07:44:11.000Z</time>
      </trkpt>
      <trkpt lat="45.8199" lon="1.89594">
        <ele>752.4</ele>
        <time>2026-07-09T07:44:12.000Z</time>
      </trkpt>
      <trkpt lat="45.81989" lon="1.89593">
        <ele>752.5</ele>
        <time>2026-07-09T07:44:13.000Z</time>
      </trkpt>
      <trkpt lat="45.81987" lon="1.89591">
        <ele>752.1</ele>
        <time>2026-07-09T07:44:14.000Z</time>
      </trkpt>
      <trkpt lat="45.81986" lon="1.89589">
        <ele>752</ele>
        <time>2026-07-09T07:44:15.000Z</time>
      </trkpt>
      <trkpt lat="45.81986" lon="1.89587">
        <ele>751.6</ele>
        <time>2026-07-09T07:44:16.000Z</time>
      </trkpt>
      <trkpt lat="45.81986" lon="1.89586">
        <ele>751.7</ele>
        <time>2026-07-09T07:44:17.000Z</time>
      </trkpt>
      <trkpt lat="45.81983" lon="1.89582">
        <ele>753.7</ele>
        <time>2026-07-09T07:44:18.000Z</time>
      </trkpt>
      <trkpt lat="45.81982" lon="1.89581">
        <ele>754</ele>
        <time>2026-07-09T07:44:19.000Z</time>
      </trkpt>
      <trkpt lat="45.81982" lon="1.89578">
        <ele>753.7</ele>
        <time>2026-07-09T07:44:20.000Z</time>
      </trkpt>
      <trkpt lat="45.81982" lon="1.89576">
        <ele>753.7</ele>
        <time>2026-07-09T07:44:21.000Z</time>
      </trkpt>
      <trkpt lat="45.81981" lon="1.89574">
        <ele>754</ele>
        <time>2026-07-09T07:44:22.000Z</time>
      </trkpt>
      <trkpt lat="45.81981" lon="1.89571">
        <ele>754</ele>
        <time>2026-07-09T07:44:23.000Z</time>
      </trkpt>
      <trkpt lat="45.81981" lon="1.89569">
        <ele>753.7</ele>
        <time>2026-07-09T07:44:24.000Z</time>
      </trkpt>
      <trkpt lat="45.8198" lon="1.89567">
        <ele>753.1</ele>
        <time>2026-07-09T07:44:25.000Z</time>
      </trkpt>
      <trkpt lat="45.81979" lon="1.89565">
        <ele>753.3</ele>
        <time>2026-07-09T07:44:26.000Z</time>
      </trkpt>
      <trkpt lat="45.81979" lon="1.89563">
        <ele>753.6</ele>
        <time>2026-07-09T07:44:27.000Z</time>
      </trkpt>
      <trkpt lat="45.81978" lon="1.8956">
        <ele>753.8</ele>
        <time>2026-07-09T07:44:28.000Z</time>
      </trkpt>
      <trkpt lat="45.81977" lon="1.89558">
        <ele>753.7</ele>
        <time>2026-07-09T07:44:29.000Z</time>
      </trkpt>
      <trkpt lat="45.81977" lon="1.89555">
        <ele>753.9</ele>
        <time>2026-07-09T07:44:30.000Z</time>
      </trkpt>
      <trkpt lat="45.81976" lon="1.89552">
        <ele>753.9</ele>
        <time>2026-07-09T07:44:31.000Z</time>
      </trkpt>
      <trkpt lat="45.81976" lon="1.8955">
        <ele>753.3</ele>
        <time>2026-07-09T07:44:32.000Z</time>
      </trkpt>
      <trkpt lat="45.81975" lon="1.89548">
        <ele>754.2</ele>
        <time>2026-07-09T07:44:33.000Z</time>
      </trkpt>
      <trkpt lat="45.81974" lon="1.89545">
        <ele>753.6</ele>
        <time>2026-07-09T07:44:34.000Z</time>
      </trkpt>
      <trkpt lat="45.81973" lon="1.89543">
        <ele>752.4</ele>
        <time>2026-07-09T07:44:35.000Z</time>
      </trkpt>
      <trkpt lat="45.81971" lon="1.89542">
        <ele>752.9</ele>
        <time>2026-07-09T07:44:36.000Z</time>
      </trkpt>
      <trkpt lat="45.81971" lon="1.8954">
        <ele>752.3</ele>
        <time>2026-07-09T07:44:37.000Z</time>
      </trkpt>
      <trkpt lat="45.8197" lon="1.89537">
        <ele>751.8</ele>
        <time>2026-07-09T07:44:38.000Z</time>
      </trkpt>
      <trkpt lat="45.8197" lon="1.89535">
        <ele>751.9</ele>
        <time>2026-07-09T07:44:39.000Z</time>
      </trkpt>
      <trkpt lat="45.81969" lon="1.89533">
        <ele>751.6</ele>
        <time>2026-07-09T07:44:40.000Z</time>
      </trkpt>
      <trkpt lat="45.81968" lon="1.89531">
        <ele>751.4</ele>
        <time>2026-07-09T07:44:41.000Z</time>
      </trkpt>
      <trkpt lat="45.81967" lon="1.89529">
        <ele>751.5</ele>
        <time>2026-07-09T07:44:42.000Z</time>
      </trkpt>
      <trkpt lat="45.81967" lon="1.89527">
        <ele>750.9</ele>
        <time>2026-07-09T07:44:43.000Z</time>
      </trkpt>
      <trkpt lat="45.81966" lon="1.89524">
        <ele>751</ele>
        <time>2026-07-09T07:44:44.000Z</time>
      </trkpt>
      <trkpt lat="45.81965" lon="1.89522">
        <ele>751.3</ele>
        <time>2026-07-09T07:44:45.000Z</time>
      </trkpt>
      <trkpt lat="45.81964" lon="1.89521">
        <ele>750.8</ele>
        <time>2026-07-09T07:44:46.000Z</time>
      </trkpt>
      <trkpt lat="45.81964" lon="1.89519">
        <ele>750.3</ele>
        <time>2026-07-09T07:44:47.000Z</time>
      </trkpt>
      <trkpt lat="45.81963" lon="1.89517">
        <ele>750.2</ele>
        <time>2026-07-09T07:44:48.000Z</time>
      </trkpt>
      <trkpt lat="45.81963" lon="1.89515">
        <ele>750.3</ele>
        <time>2026-07-09T07:44:49.000Z</time>
      </trkpt>
      <trkpt lat="45.81962" lon="1.89514">
        <ele>749.3</ele>
        <time>2026-07-09T07:44:50.000Z</time>
      </trkpt>
      <trkpt lat="45.81961" lon="1.89512">
        <ele>749.2</ele>
        <time>2026-07-09T07:44:51.000Z</time>
      </trkpt>
      <trkpt lat="45.81961" lon="1.8951">
        <ele>749.4</ele>
        <time>2026-07-09T07:44:52.000Z</time>
      </trkpt>
      <trkpt lat="45.8196" lon="1.89508">
        <ele>749.3</ele>
        <time>2026-07-09T07:44:53.000Z</time>
      </trkpt>
      <trkpt lat="45.81958" lon="1.89506">
        <ele>750.2</ele>
        <time>2026-07-09T07:44:54.000Z</time>
      </trkpt>
      <trkpt lat="45.81957" lon="1.89504">
        <ele>750.4</ele>
        <time>2026-07-09T07:44:55.000Z</time>
      </trkpt>
      <trkpt lat="45.81956" lon="1.89502">
        <ele>750.8</ele>
        <time>2026-07-09T07:44:56.000Z</time>
      </trkpt>
      <trkpt lat="45.81955" lon="1.895">
        <ele>750.3</ele>
        <time>2026-07-09T07:44:57.000Z</time>
      </trkpt>
      <trkpt lat="45.81954" lon="1.89498">
        <ele>750.2</ele>
        <time>2026-07-09T07:44:58.000Z</time>
      </trkpt>
      <trkpt lat="45.81952" lon="1.89496">
        <ele>750.1</ele>
        <time>2026-07-09T07:44:59.000Z</time>
      </trkpt>
      <trkpt lat="45.81949" lon="1.89496">
        <ele>749.8</ele>
        <time>2026-07-09T07:45:00.000Z</time>
      </trkpt>
      <trkpt lat="45.81947" lon="1.89496">
        <ele>749.6</ele>
        <time>2026-07-09T07:45:01.000Z</time>
      </trkpt>
      <trkpt lat="45.81944" lon="1.89496">
        <ele>749.2</ele>
        <time>2026-07-09T07:45:02.000Z</time>
      </trkpt>
      <trkpt lat="45.81941" lon="1.89496">
        <ele>749.7</ele>
        <time>2026-07-09T07:45:03.000Z</time>
      </trkpt>
      <trkpt lat="45.8194" lon="1.89494">
        <ele>749.4</ele>
        <time>2026-07-09T07:45:04.000Z</time>
      </trkpt>
      <trkpt lat="45.81938" lon="1.89491">
        <ele>749.7</ele>
        <time>2026-07-09T07:45:05.000Z</time>
      </trkpt>
      <trkpt lat="45.81937" lon="1.89489">
        <ele>749.7</ele>
        <time>2026-07-09T07:45:06.000Z</time>
      </trkpt>
      <trkpt lat="45.81935" lon="1.89488">
        <ele>749.6</ele>
        <time>2026-07-09T07:45:07.000Z</time>
      </trkpt>
      <trkpt lat="45.81934" lon="1.89486">
        <ele>749</ele>
        <time>2026-07-09T07:45:08.000Z</time>
      </trkpt>
      <trkpt lat="45.81933" lon="1.89484">
        <ele>749.8</ele>
        <time>2026-07-09T07:45:09.000Z</time>
      </trkpt>
      <trkpt lat="45.81931" lon="1.89483">
        <ele>748.8</ele>
        <time>2026-07-09T07:45:10.000Z</time>
      </trkpt>
      <trkpt lat="45.81931" lon="1.89481">
        <ele>749.2</ele>
        <time>2026-07-09T07:45:11.000Z</time>
      </trkpt>
      <trkpt lat="45.8193" lon="1.89478">
        <ele>748.5</ele>
        <time>2026-07-09T07:45:12.000Z</time>
      </trkpt>
      <trkpt lat="45.81928" lon="1.89477">
        <ele>748.2</ele>
        <time>2026-07-09T07:45:13.000Z</time>
      </trkpt>
      <trkpt lat="45.81927" lon="1.89476">
        <ele>748.1</ele>
        <time>2026-07-09T07:45:14.000Z</time>
      </trkpt>
      <trkpt lat="45.81926" lon="1.89474">
        <ele>747.7</ele>
        <time>2026-07-09T07:45:15.000Z</time>
      </trkpt>
      <trkpt lat="45.81925" lon="1.8947">
        <ele>749.9</ele>
        <time>2026-07-09T07:45:16.000Z</time>
      </trkpt>
      <trkpt lat="45.81924" lon="1.89468">
        <ele>751.8</ele>
        <time>2026-07-09T07:45:17.000Z</time>
      </trkpt>
      <trkpt lat="45.81924" lon="1.89464">
        <ele>751.1</ele>
        <time>2026-07-09T07:45:18.000Z</time>
      </trkpt>
      <trkpt lat="45.81923" lon="1.89462">
        <ele>749.5</ele>
        <time>2026-07-09T07:45:19.000Z</time>
      </trkpt>
      <trkpt lat="45.81922" lon="1.8946">
        <ele>749.8</ele>
        <time>2026-07-09T07:45:20.000Z</time>
      </trkpt>
      <trkpt lat="45.81921" lon="1.89458">
        <ele>749.7</ele>
        <time>2026-07-09T07:45:21.000Z</time>
      </trkpt>
      <trkpt lat="45.81919" lon="1.89456">
        <ele>749.4</ele>
        <time>2026-07-09T07:45:22.000Z</time>
      </trkpt>
      <trkpt lat="45.81919" lon="1.89456">
        <ele>750.5</ele>
        <time>2026-07-09T07:45:23.000Z</time>
      </trkpt>
      <trkpt lat="45.81918" lon="1.89455">
        <ele>750.4</ele>
        <time>2026-07-09T07:45:24.000Z</time>
      </trkpt>
      <trkpt lat="45.81917" lon="1.89453">
        <ele>749.7</ele>
        <time>2026-07-09T07:45:25.000Z</time>
      </trkpt>
      <trkpt lat="45.81917" lon="1.89452">
        <ele>749.8</ele>
        <time>2026-07-09T07:45:26.000Z</time>
      </trkpt>
      <trkpt lat="45.81916" lon="1.89451">
        <ele>751.2</ele>
        <time>2026-07-09T07:45:27.000Z</time>
      </trkpt>
      <trkpt lat="45.81916" lon="1.89448">
        <ele>751.5</ele>
        <time>2026-07-09T07:45:28.000Z</time>
      </trkpt>
      <trkpt lat="45.81915" lon="1.89445">
        <ele>751.6</ele>
        <time>2026-07-09T07:45:29.000Z</time>
      </trkpt>
      <trkpt lat="45.81914" lon="1.89441">
        <ele>753</ele>
        <time>2026-07-09T07:45:30.000Z</time>
      </trkpt>
      <trkpt lat="45.81913" lon="1.89439">
        <ele>753</ele>
        <time>2026-07-09T07:45:31.000Z</time>
      </trkpt>
      <trkpt lat="45.81913" lon="1.89437">
        <ele>753</ele>
        <time>2026-07-09T07:45:32.000Z</time>
      </trkpt>
      <trkpt lat="45.81913" lon="1.89434">
        <ele>752.7</ele>
        <time>2026-07-09T07:45:33.000Z</time>
      </trkpt>
      <trkpt lat="45.81912" lon="1.8943">
        <ele>752.5</ele>
        <time>2026-07-09T07:45:34.000Z</time>
      </trkpt>
      <trkpt lat="45.81912" lon="1.89427">
        <ele>752.8</ele>
        <time>2026-07-09T07:45:35.000Z</time>
      </trkpt>
      <trkpt lat="45.81912" lon="1.89424">
        <ele>752.3</ele>
        <time>2026-07-09T07:45:36.000Z</time>
      </trkpt>
      <trkpt lat="45.81912" lon="1.89419">
        <ele>752.3</ele>
        <time>2026-07-09T07:45:37.000Z</time>
      </trkpt>
      <trkpt lat="45.81913" lon="1.89415">
        <ele>752.2</ele>
        <time>2026-07-09T07:45:38.000Z</time>
      </trkpt>
      <trkpt lat="45.81914" lon="1.89412">
        <ele>752.5</ele>
        <time>2026-07-09T07:45:39.000Z</time>
      </trkpt>
      <trkpt lat="45.81915" lon="1.89408">
        <ele>752.1</ele>
        <time>2026-07-09T07:45:40.000Z</time>
      </trkpt>
      <trkpt lat="45.81915" lon="1.89405">
        <ele>750.3</ele>
        <time>2026-07-09T07:45:41.000Z</time>
      </trkpt>
      <trkpt lat="45.81916" lon="1.89401">
        <ele>750.5</ele>
        <time>2026-07-09T07:45:42.000Z</time>
      </trkpt>
      <trkpt lat="45.81917" lon="1.89396">
        <ele>751.4</ele>
        <time>2026-07-09T07:45:43.000Z</time>
      </trkpt>
      <trkpt lat="45.81917" lon="1.89392">
        <ele>750.8</ele>
        <time>2026-07-09T07:45:44.000Z</time>
      </trkpt>
      <trkpt lat="45.81918" lon="1.89387">
        <ele>751.9</ele>
        <time>2026-07-09T07:45:45.000Z</time>
      </trkpt>
      <trkpt lat="45.81918" lon="1.89385">
        <ele>750</ele>
        <time>2026-07-09T07:45:46.000Z</time>
      </trkpt>
      <trkpt lat="45.81918" lon="1.89381">
        <ele>749.8</ele>
        <time>2026-07-09T07:45:47.000Z</time>
      </trkpt>
      <trkpt lat="45.81919" lon="1.89377">
        <ele>750.7</ele>
        <time>2026-07-09T07:45:48.000Z</time>
      </trkpt>
      <trkpt lat="45.81918" lon="1.89373">
        <ele>750.4</ele>
        <time>2026-07-09T07:45:49.000Z</time>
      </trkpt>
      <trkpt lat="45.81918" lon="1.89369">
        <ele>749.5</ele>
        <time>2026-07-09T07:45:50.000Z</time>
      </trkpt>
      <trkpt lat="45.81918" lon="1.89364">
        <ele>748.5</ele>
        <time>2026-07-09T07:45:51.000Z</time>
      </trkpt>
      <trkpt lat="45.81918" lon="1.8936">
        <ele>748.4</ele>
        <time>2026-07-09T07:45:52.000Z</time>
      </trkpt>
      <trkpt lat="45.81918" lon="1.89357">
        <ele>748.9</ele>
        <time>2026-07-09T07:45:53.000Z</time>
      </trkpt>
      <trkpt lat="45.81918" lon="1.89352">
        <ele>749.1</ele>
        <time>2026-07-09T07:45:54.000Z</time>
      </trkpt>
      <trkpt lat="45.81918" lon="1.89348">
        <ele>748.7</ele>
        <time>2026-07-09T07:45:55.000Z</time>
      </trkpt>
      <trkpt lat="45.81918" lon="1.89343">
        <ele>748.4</ele>
        <time>2026-07-09T07:45:56.000Z</time>
      </trkpt>
      <trkpt lat="45.81917" lon="1.89339">
        <ele>747.7</ele>
        <time>2026-07-09T07:45:57.000Z</time>
      </trkpt>
      <trkpt lat="45.81917" lon="1.89335">
        <ele>748.1</ele>
        <time>2026-07-09T07:45:58.000Z</time>
      </trkpt>
      <trkpt lat="45.81918" lon="1.89332">
        <ele>749.7</ele>
        <time>2026-07-09T07:45:59.000Z</time>
      </trkpt>
      <trkpt lat="45.81918" lon="1.89329">
        <ele>750.3</ele>
        <time>2026-07-09T07:46:00.000Z</time>
      </trkpt>
      <trkpt lat="45.81919" lon="1.89326">
        <ele>749.5</ele>
        <time>2026-07-09T07:46:01.000Z</time>
      </trkpt>
      <trkpt lat="45.81921" lon="1.89324">
        <ele>750</ele>
        <time>2026-07-09T07:46:02.000Z</time>
      </trkpt>
      <trkpt lat="45.81921" lon="1.89322">
        <ele>750.6</ele>
        <time>2026-07-09T07:46:03.000Z</time>
      </trkpt>
      <trkpt lat="45.81922" lon="1.8932">
        <ele>749.9</ele>
        <time>2026-07-09T07:46:04.000Z</time>
      </trkpt>
      <trkpt lat="45.81923" lon="1.89317">
        <ele>748.2</ele>
        <time>2026-07-09T07:46:05.000Z</time>
      </trkpt>
      <trkpt lat="45.81923" lon="1.89314">
        <ele>747.7</ele>
        <time>2026-07-09T07:46:06.000Z</time>
      </trkpt>
      <trkpt lat="45.81924" lon="1.89311">
        <ele>746.8</ele>
        <time>2026-07-09T07:46:07.000Z</time>
      </trkpt>
      <trkpt lat="45.81926" lon="1.89308">
        <ele>747.3</ele>
        <time>2026-07-09T07:46:08.000Z</time>
      </trkpt>
      <trkpt lat="45.81926" lon="1.89305">
        <ele>746.7</ele>
        <time>2026-07-09T07:46:09.000Z</time>
      </trkpt>
      <trkpt lat="45.81927" lon="1.89302">
        <ele>747.1</ele>
        <time>2026-07-09T07:46:10.000Z</time>
      </trkpt>
      <trkpt lat="45.81927" lon="1.89299">
        <ele>745.9</ele>
        <time>2026-07-09T07:46:11.000Z</time>
      </trkpt>
      <trkpt lat="45.81927" lon="1.89296">
        <ele>746.2</ele>
        <time>2026-07-09T07:46:12.000Z</time>
      </trkpt>
      <trkpt lat="45.81926" lon="1.89293">
        <ele>745.6</ele>
        <time>2026-07-09T07:46:13.000Z</time>
      </trkpt>
      <trkpt lat="45.81926" lon="1.89289">
        <ele>745.6</ele>
        <time>2026-07-09T07:46:14.000Z</time>
      </trkpt>
      <trkpt lat="45.81926" lon="1.89286">
        <ele>745.5</ele>
        <time>2026-07-09T07:46:15.000Z</time>
      </trkpt>
      <trkpt lat="45.81927" lon="1.89284">
        <ele>744.8</ele>
        <time>2026-07-09T07:46:16.000Z</time>
      </trkpt>
      <trkpt lat="45.81928" lon="1.89281">
        <ele>744.5</ele>
        <time>2026-07-09T07:46:17.000Z</time>
      </trkpt>
      <trkpt lat="45.81928" lon="1.89279">
        <ele>744.9</ele>
        <time>2026-07-09T07:46:18.000Z</time>
      </trkpt>
      <trkpt lat="45.81928" lon="1.89277">
        <ele>745.3</ele>
        <time>2026-07-09T07:46:19.000Z</time>
      </trkpt>
      <trkpt lat="45.81929" lon="1.89275">
        <ele>744.1</ele>
        <time>2026-07-09T07:46:20.000Z</time>
      </trkpt>
      <trkpt lat="45.81929" lon="1.89272">
        <ele>743.8</ele>
        <time>2026-07-09T07:46:21.000Z</time>
      </trkpt>
      <trkpt lat="45.81929" lon="1.8927">
        <ele>743.1</ele>
        <time>2026-07-09T07:46:22.000Z</time>
      </trkpt>
      <trkpt lat="45.81929" lon="1.89267">
        <ele>741.9</ele>
        <time>2026-07-09T07:46:23.000Z</time>
      </trkpt>
      <trkpt lat="45.81929" lon="1.89265">
        <ele>741.4</ele>
        <time>2026-07-09T07:46:24.000Z</time>
      </trkpt>
      <trkpt lat="45.8193" lon="1.89262">
        <ele>740.9</ele>
        <time>2026-07-09T07:46:25.000Z</time>
      </trkpt>
      <trkpt lat="45.8193" lon="1.8926">
        <ele>740.9</ele>
        <time>2026-07-09T07:46:26.000Z</time>
      </trkpt>
      <trkpt lat="45.8193" lon="1.89258">
        <ele>741.6</ele>
        <time>2026-07-09T07:46:27.000Z</time>
      </trkpt>
      <trkpt lat="45.8193" lon="1.89255">
        <ele>740.5</ele>
        <time>2026-07-09T07:46:28.000Z</time>
      </trkpt>
      <trkpt lat="45.8193" lon="1.89253">
        <ele>740.6</ele>
        <time>2026-07-09T07:46:29.000Z</time>
      </trkpt>
      <trkpt lat="45.81931" lon="1.89251">
        <ele>740.5</ele>
        <time>2026-07-09T07:46:30.000Z</time>
      </trkpt>
      <trkpt lat="45.81931" lon="1.89249">
        <ele>740.3</ele>
        <time>2026-07-09T07:46:31.000Z</time>
      </trkpt>
      <trkpt lat="45.81931" lon="1.89246">
        <ele>740.4</ele>
        <time>2026-07-09T07:46:32.000Z</time>
      </trkpt>
      <trkpt lat="45.81931" lon="1.89243">
        <ele>740.8</ele>
        <time>2026-07-09T07:46:33.000Z</time>
      </trkpt>
      <trkpt lat="45.81931" lon="1.89241">
        <ele>740.3</ele>
        <time>2026-07-09T07:46:34.000Z</time>
      </trkpt>
      <trkpt lat="45.81931" lon="1.89239">
        <ele>739.3</ele>
        <time>2026-07-09T07:46:35.000Z</time>
      </trkpt>
      <trkpt lat="45.81931" lon="1.89236">
        <ele>739.7</ele>
        <time>2026-07-09T07:46:36.000Z</time>
      </trkpt>
      <trkpt lat="45.8193" lon="1.89234">
        <ele>740</ele>
        <time>2026-07-09T07:46:37.000Z</time>
      </trkpt>
      <trkpt lat="45.8193" lon="1.89232">
        <ele>740.2</ele>
        <time>2026-07-09T07:46:38.000Z</time>
      </trkpt>
      <trkpt lat="45.8193" lon="1.8923">
        <ele>740.4</ele>
        <time>2026-07-09T07:46:39.000Z</time>
      </trkpt>
      <trkpt lat="45.8193" lon="1.89228">
        <ele>740</ele>
        <time>2026-07-09T07:46:40.000Z</time>
      </trkpt>
      <trkpt lat="45.8193" lon="1.89226">
        <ele>739.3</ele>
        <time>2026-07-09T07:46:41.000Z</time>
      </trkpt>
      <trkpt lat="45.8193" lon="1.89224">
        <ele>740.8</ele>
        <time>2026-07-09T07:46:42.000Z</time>
      </trkpt>
      <trkpt lat="45.81929" lon="1.8922">
        <ele>741</ele>
        <time>2026-07-09T07:46:43.000Z</time>
      </trkpt>
      <trkpt lat="45.8193" lon="1.89217">
        <ele>741.6</ele>
        <time>2026-07-09T07:46:44.000Z</time>
      </trkpt>
      <trkpt lat="45.8193" lon="1.89214">
        <ele>741.7</ele>
        <time>2026-07-09T07:46:45.000Z</time>
      </trkpt>
      <trkpt lat="45.8193" lon="1.89213">
        <ele>741.7</ele>
        <time>2026-07-09T07:46:46.000Z</time>
      </trkpt>
      <trkpt lat="45.8193" lon="1.89211">
        <ele>741.3</ele>
        <time>2026-07-09T07:46:47.000Z</time>
      </trkpt>
      <trkpt lat="45.81931" lon="1.89208">
        <ele>742.4</ele>
        <time>2026-07-09T07:46:48.000Z</time>
      </trkpt>
      <trkpt lat="45.81931" lon="1.89205">
        <ele>741.7</ele>
        <time>2026-07-09T07:46:49.000Z</time>
      </trkpt>
      <trkpt lat="45.81931" lon="1.89202">
        <ele>741.7</ele>
        <time>2026-07-09T07:46:50.000Z</time>
      </trkpt>
      <trkpt lat="45.81932" lon="1.892">
        <ele>741.9</ele>
        <time>2026-07-09T07:46:51.000Z</time>
      </trkpt>
      <trkpt lat="45.81932" lon="1.89198">
        <ele>742</ele>
        <time>2026-07-09T07:46:52.000Z</time>
      </trkpt>
      <trkpt lat="45.81932" lon="1.89196">
        <ele>742</ele>
        <time>2026-07-09T07:46:53.000Z</time>
      </trkpt>
      <trkpt lat="45.81932" lon="1.89194">
        <ele>740.7</ele>
        <time>2026-07-09T07:46:54.000Z</time>
      </trkpt>
      <trkpt lat="45.81932" lon="1.89192">
        <ele>739.7</ele>
        <time>2026-07-09T07:46:55.000Z</time>
      </trkpt>
      <trkpt lat="45.81932" lon="1.8919">
        <ele>738.3</ele>
        <time>2026-07-09T07:46:56.000Z</time>
      </trkpt>
      <trkpt lat="45.81932" lon="1.89188">
        <ele>738.9</ele>
        <time>2026-07-09T07:46:57.000Z</time>
      </trkpt>
      <trkpt lat="45.81932" lon="1.89185">
        <ele>738.8</ele>
        <time>2026-07-09T07:46:58.000Z</time>
      </trkpt>
      <trkpt lat="45.81933" lon="1.89183">
        <ele>739.2</ele>
        <time>2026-07-09T07:46:59.000Z</time>
      </trkpt>
      <trkpt lat="45.81934" lon="1.8918">
        <ele>739.7</ele>
        <time>2026-07-09T07:47:00.000Z</time>
      </trkpt>
      <trkpt lat="45.81934" lon="1.89178">
        <ele>739.9</ele>
        <time>2026-07-09T07:47:01.000Z</time>
      </trkpt>
      <trkpt lat="45.81935" lon="1.89175">
        <ele>741.6</ele>
        <time>2026-07-09T07:47:02.000Z</time>
      </trkpt>
      <trkpt lat="45.81935" lon="1.89173">
        <ele>741.6</ele>
        <time>2026-07-09T07:47:03.000Z</time>
      </trkpt>
      <trkpt lat="45.81936" lon="1.8917">
        <ele>741.8</ele>
        <time>2026-07-09T07:47:04.000Z</time>
      </trkpt>
      <trkpt lat="45.81938" lon="1.89168">
        <ele>741.3</ele>
        <time>2026-07-09T07:47:05.000Z</time>
      </trkpt>
      <trkpt lat="45.81939" lon="1.89165">
        <ele>741.9</ele>
        <time>2026-07-09T07:47:06.000Z</time>
      </trkpt>
      <trkpt lat="45.81941" lon="1.89162">
        <ele>741</ele>
        <time>2026-07-09T07:47:07.000Z</time>
      </trkpt>
      <trkpt lat="45.81942" lon="1.8916">
        <ele>740.4</ele>
        <time>2026-07-09T07:47:08.000Z</time>
      </trkpt>
      <trkpt lat="45.81942" lon="1.89158">
        <ele>740.9</ele>
        <time>2026-07-09T07:47:09.000Z</time>
      </trkpt>
      <trkpt lat="45.81944" lon="1.89155">
        <ele>740</ele>
        <time>2026-07-09T07:47:10.000Z</time>
      </trkpt>
      <trkpt lat="45.81945" lon="1.89151">
        <ele>740</ele>
        <time>2026-07-09T07:47:11.000Z</time>
      </trkpt>
      <trkpt lat="45.81947" lon="1.89149">
        <ele>740.9</ele>
        <time>2026-07-09T07:47:12.000Z</time>
      </trkpt>
      <trkpt lat="45.81948" lon="1.89147">
        <ele>740.8</ele>
        <time>2026-07-09T07:47:13.000Z</time>
      </trkpt>
      <trkpt lat="45.81949" lon="1.89145">
        <ele>741.7</ele>
        <time>2026-07-09T07:47:14.000Z</time>
      </trkpt>
      <trkpt lat="45.81952" lon="1.89143">
        <ele>742.2</ele>
        <time>2026-07-09T07:47:15.000Z</time>
      </trkpt>
      <trkpt lat="45.81953" lon="1.89143">
        <ele>742.4</ele>
        <time>2026-07-09T07:47:16.000Z</time>
      </trkpt>
      <trkpt lat="45.81955" lon="1.89142">
        <ele>742.4</ele>
        <time>2026-07-09T07:47:17.000Z</time>
      </trkpt>
      <trkpt lat="45.81957" lon="1.89141">
        <ele>742.5</ele>
        <time>2026-07-09T07:47:18.000Z</time>
      </trkpt>
      <trkpt lat="45.8196" lon="1.8914">
        <ele>742.7</ele>
        <time>2026-07-09T07:47:19.000Z</time>
      </trkpt>
      <trkpt lat="45.8196" lon="1.89139">
        <ele>741.9</ele>
        <time>2026-07-09T07:47:20.000Z</time>
      </trkpt>
      <trkpt lat="45.81961" lon="1.89139">
        <ele>741.7</ele>
        <time>2026-07-09T07:47:21.000Z</time>
      </trkpt>
      <trkpt lat="45.81962" lon="1.89136">
        <ele>742.1</ele>
        <time>2026-07-09T07:47:22.000Z</time>
      </trkpt>
      <trkpt lat="45.81963" lon="1.89134">
        <ele>741.6</ele>
        <time>2026-07-09T07:47:23.000Z</time>
      </trkpt>
      <trkpt lat="45.81965" lon="1.89132">
        <ele>741</ele>
        <time>2026-07-09T07:47:24.000Z</time>
      </trkpt>
      <trkpt lat="45.81966" lon="1.8913">
        <ele>741.5</ele>
        <time>2026-07-09T07:47:25.000Z</time>
      </trkpt>
      <trkpt lat="45.81967" lon="1.89127">
        <ele>741.2</ele>
        <time>2026-07-09T07:47:26.000Z</time>
      </trkpt>
      <trkpt lat="45.81967" lon="1.89124">
        <ele>740.8</ele>
        <time>2026-07-09T07:47:27.000Z</time>
      </trkpt>
      <trkpt lat="45.81967" lon="1.89121">
        <ele>740.8</ele>
        <time>2026-07-09T07:47:28.000Z</time>
      </trkpt>
      <trkpt lat="45.81967" lon="1.89118">
        <ele>740.6</ele>
        <time>2026-07-09T07:47:29.000Z</time>
      </trkpt>
      <trkpt lat="45.81966" lon="1.89116">
        <ele>740.7</ele>
        <time>2026-07-09T07:47:30.000Z</time>
      </trkpt>
      <trkpt lat="45.81965" lon="1.89114">
        <ele>740.8</ele>
        <time>2026-07-09T07:47:31.000Z</time>
      </trkpt>
      <trkpt lat="45.81964" lon="1.89111">
        <ele>741.4</ele>
        <time>2026-07-09T07:47:32.000Z</time>
      </trkpt>
      <trkpt lat="45.81963" lon="1.89108">
        <ele>743</ele>
        <time>2026-07-09T07:47:33.000Z</time>
      </trkpt>
      <trkpt lat="45.81962" lon="1.89106">
        <ele>742.6</ele>
        <time>2026-07-09T07:47:34.000Z</time>
      </trkpt>
      <trkpt lat="45.81962" lon="1.89103">
        <ele>742.7</ele>
        <time>2026-07-09T07:47:35.000Z</time>
      </trkpt>
      <trkpt lat="45.81961" lon="1.89099">
        <ele>742.1</ele>
        <time>2026-07-09T07:47:36.000Z</time>
      </trkpt>
      <trkpt lat="45.8196" lon="1.89096">
        <ele>742.6</ele>
        <time>2026-07-09T07:47:37.000Z</time>
      </trkpt>
      <trkpt lat="45.81959" lon="1.89093">
        <ele>742.7</ele>
        <time>2026-07-09T07:47:38.000Z</time>
      </trkpt>
      <trkpt lat="45.81958" lon="1.8909">
        <ele>742.5</ele>
        <time>2026-07-09T07:47:39.000Z</time>
      </trkpt>
      <trkpt lat="45.81958" lon="1.89087">
        <ele>742.3</ele>
        <time>2026-07-09T07:47:40.000Z</time>
      </trkpt>
      <trkpt lat="45.81957" lon="1.89083">
        <ele>743.3</ele>
        <time>2026-07-09T07:47:41.000Z</time>
      </trkpt>
      <trkpt lat="45.81957" lon="1.89078">
        <ele>743.1</ele>
        <time>2026-07-09T07:47:42.000Z</time>
      </trkpt>
      <trkpt lat="45.81957" lon="1.89074">
        <ele>742.9</ele>
        <time>2026-07-09T07:47:43.000Z</time>
      </trkpt>
      <trkpt lat="45.81956" lon="1.8907">
        <ele>742.7</ele>
        <time>2026-07-09T07:47:44.000Z</time>
      </trkpt>
      <trkpt lat="45.81955" lon="1.89066">
        <ele>742.8</ele>
        <time>2026-07-09T07:47:45.000Z</time>
      </trkpt>
      <trkpt lat="45.81954" lon="1.89062">
        <ele>742.6</ele>
        <time>2026-07-09T07:47:46.000Z</time>
      </trkpt>
      <trkpt lat="45.81952" lon="1.89059">
        <ele>742.6</ele>
        <time>2026-07-09T07:47:47.000Z</time>
      </trkpt>
      <trkpt lat="45.81952" lon="1.89055">
        <ele>742.5</ele>
        <time>2026-07-09T07:47:48.000Z</time>
      </trkpt>
      <trkpt lat="45.81951" lon="1.89051">
        <ele>742.5</ele>
        <time>2026-07-09T07:47:49.000Z</time>
      </trkpt>
      <trkpt lat="45.81951" lon="1.89046">
        <ele>742.5</ele>
        <time>2026-07-09T07:47:50.000Z</time>
      </trkpt>
      <trkpt lat="45.8195" lon="1.89043">
        <ele>742.3</ele>
        <time>2026-07-09T07:47:51.000Z</time>
      </trkpt>
      <trkpt lat="45.81949" lon="1.89039">
        <ele>742.4</ele>
        <time>2026-07-09T07:47:52.000Z</time>
      </trkpt>
      <trkpt lat="45.81949" lon="1.89035">
        <ele>741.8</ele>
        <time>2026-07-09T07:47:53.000Z</time>
      </trkpt>
      <trkpt lat="45.81949" lon="1.89032">
        <ele>741.8</ele>
        <time>2026-07-09T07:47:54.000Z</time>
      </trkpt>
      <trkpt lat="45.81949" lon="1.89029">
        <ele>742</ele>
        <time>2026-07-09T07:47:55.000Z</time>
      </trkpt>
      <trkpt lat="45.81949" lon="1.89026">
        <ele>742.9</ele>
        <time>2026-07-09T07:47:56.000Z</time>
      </trkpt>
      <trkpt lat="45.81949" lon="1.89023">
        <ele>744.5</ele>
        <time>2026-07-09T07:47:57.000Z</time>
      </trkpt>
      <trkpt lat="45.81949" lon="1.8902">
        <ele>745.3</ele>
        <time>2026-07-09T07:47:58.000Z</time>
      </trkpt>
      <trkpt lat="45.81948" lon="1.89017">
        <ele>744.9</ele>
        <time>2026-07-09T07:47:59.000Z</time>
      </trkpt>
      <trkpt lat="45.81948" lon="1.89014">
        <ele>745.2</ele>
        <time>2026-07-09T07:48:00.000Z</time>
      </trkpt>
      <trkpt lat="45.81947" lon="1.89009">
        <ele>746</ele>
        <time>2026-07-09T07:48:01.000Z</time>
      </trkpt>
      <trkpt lat="45.81947" lon="1.89004">
        <ele>745.3</ele>
        <time>2026-07-09T07:48:02.000Z</time>
      </trkpt>
      <trkpt lat="45.81946" lon="1.89">
        <ele>745.8</ele>
        <time>2026-07-09T07:48:03.000Z</time>
      </trkpt>
      <trkpt lat="45.81946" lon="1.88997">
        <ele>745.1</ele>
        <time>2026-07-09T07:48:04.000Z</time>
      </trkpt>
      <trkpt lat="45.81945" lon="1.88993">
        <ele>746</ele>
        <time>2026-07-09T07:48:05.000Z</time>
      </trkpt>
      <trkpt lat="45.81944" lon="1.88989">
        <ele>746.5</ele>
        <time>2026-07-09T07:48:06.000Z</time>
      </trkpt>
      <trkpt lat="45.81943" lon="1.88985">
        <ele>746.1</ele>
        <time>2026-07-09T07:48:07.000Z</time>
      </trkpt>
      <trkpt lat="45.81943" lon="1.88981">
        <ele>747.4</ele>
        <time>2026-07-09T07:48:08.000Z</time>
      </trkpt>
      <trkpt lat="45.81942" lon="1.88976">
        <ele>747.9</ele>
        <time>2026-07-09T07:48:09.000Z</time>
      </trkpt>
      <trkpt lat="45.81941" lon="1.88972">
        <ele>748.3</ele>
        <time>2026-07-09T07:48:10.000Z</time>
      </trkpt>
      <trkpt lat="45.81941" lon="1.88967">
        <ele>749.5</ele>
        <time>2026-07-09T07:48:11.000Z</time>
      </trkpt>
      <trkpt lat="45.8194" lon="1.88963">
        <ele>748.4</ele>
        <time>2026-07-09T07:48:12.000Z</time>
      </trkpt>
      <trkpt lat="45.81939" lon="1.88959">
        <ele>749.1</ele>
        <time>2026-07-09T07:48:13.000Z</time>
      </trkpt>
      <trkpt lat="45.81937" lon="1.88955">
        <ele>748.4</ele>
        <time>2026-07-09T07:48:14.000Z</time>
      </trkpt>
      <trkpt lat="45.81936" lon="1.88951">
        <ele>748</ele>
        <time>2026-07-09T07:48:15.000Z</time>
      </trkpt>
      <trkpt lat="45.81934" lon="1.88947">
        <ele>747.5</ele>
        <time>2026-07-09T07:48:16.000Z</time>
      </trkpt>
      <trkpt lat="45.81933" lon="1.88942">
        <ele>747</ele>
        <time>2026-07-09T07:48:17.000Z</time>
      </trkpt>
      <trkpt lat="45.81931" lon="1.88938">
        <ele>747.1</ele>
        <time>2026-07-09T07:48:18.000Z</time>
      </trkpt>
      <trkpt lat="45.81929" lon="1.88935">
        <ele>747</ele>
        <time>2026-07-09T07:48:19.000Z</time>
      </trkpt>
      <trkpt lat="45.81926" lon="1.88932">
        <ele>746.2</ele>
        <time>2026-07-09T07:48:20.000Z</time>
      </trkpt>
      <trkpt lat="45.81924" lon="1.88931">
        <ele>746.7</ele>
        <time>2026-07-09T07:48:21.000Z</time>
      </trkpt>
      <trkpt lat="45.81921" lon="1.8893">
        <ele>745.9</ele>
        <time>2026-07-09T07:48:22.000Z</time>
      </trkpt>
      <trkpt lat="45.81919" lon="1.88928">
        <ele>745.7</ele>
        <time>2026-07-09T07:48:23.000Z</time>
      </trkpt>
      <trkpt lat="45.81917" lon="1.88927">
        <ele>745.2</ele>
        <time>2026-07-09T07:48:24.000Z</time>
      </trkpt>
      <trkpt lat="45.81915" lon="1.88926">
        <ele>744.4</ele>
        <time>2026-07-09T07:48:25.000Z</time>
      </trkpt>
      <trkpt lat="45.81913" lon="1.88926">
        <ele>743.7</ele>
        <time>2026-07-09T07:48:26.000Z</time>
      </trkpt>
      <trkpt lat="45.8191" lon="1.88924">
        <ele>743.6</ele>
        <time>2026-07-09T07:48:27.000Z</time>
      </trkpt>
      <trkpt lat="45.81909" lon="1.88922">
        <ele>743.6</ele>
        <time>2026-07-09T07:48:28.000Z</time>
      </trkpt>
      <trkpt lat="45.81906" lon="1.8892">
        <ele>744.1</ele>
        <time>2026-07-09T07:48:29.000Z</time>
      </trkpt>
      <trkpt lat="45.81904" lon="1.88918">
        <ele>743.8</ele>
        <time>2026-07-09T07:48:30.000Z</time>
      </trkpt>
      <trkpt lat="45.81902" lon="1.88916">
        <ele>744.4</ele>
        <time>2026-07-09T07:48:31.000Z</time>
      </trkpt>
      <trkpt lat="45.819" lon="1.88913">
        <ele>744.3</ele>
        <time>2026-07-09T07:48:32.000Z</time>
      </trkpt>
      <trkpt lat="45.81899" lon="1.88909">
        <ele>744.3</ele>
        <time>2026-07-09T07:48:33.000Z</time>
      </trkpt>
      <trkpt lat="45.81899" lon="1.88906">
        <ele>744.4</ele>
        <time>2026-07-09T07:48:34.000Z</time>
      </trkpt>
      <trkpt lat="45.819" lon="1.88902">
        <ele>743.8</ele>
        <time>2026-07-09T07:48:35.000Z</time>
      </trkpt>
      <trkpt lat="45.81902" lon="1.88898">
        <ele>743.1</ele>
        <time>2026-07-09T07:48:36.000Z</time>
      </trkpt>
      <trkpt lat="45.81903" lon="1.88895">
        <ele>742.9</ele>
        <time>2026-07-09T07:48:37.000Z</time>
      </trkpt>
      <trkpt lat="45.81904" lon="1.88893">
        <ele>742.9</ele>
        <time>2026-07-09T07:48:38.000Z</time>
      </trkpt>
      <trkpt lat="45.81906" lon="1.8889">
        <ele>742.6</ele>
        <time>2026-07-09T07:48:39.000Z</time>
      </trkpt>
      <trkpt lat="45.81907" lon="1.88887">
        <ele>742.9</ele>
        <time>2026-07-09T07:48:40.000Z</time>
      </trkpt>
      <trkpt lat="45.81907" lon="1.88885">
        <ele>743.9</ele>
        <time>2026-07-09T07:48:41.000Z</time>
      </trkpt>
      <trkpt lat="45.81908" lon="1.88883">
        <ele>744.6</ele>
        <time>2026-07-09T07:48:42.000Z</time>
      </trkpt>
      <trkpt lat="45.81908" lon="1.88881">
        <ele>744.8</ele>
        <time>2026-07-09T07:48:43.000Z</time>
      </trkpt>
      <trkpt lat="45.81908" lon="1.8888">
        <ele>744</ele>
        <time>2026-07-09T07:48:44.000Z</time>
      </trkpt>
      <trkpt lat="45.81909" lon="1.88877">
        <ele>743.6</ele>
        <time>2026-07-09T07:48:45.000Z</time>
      </trkpt>
      <trkpt lat="45.81909" lon="1.88875">
        <ele>743.1</ele>
        <time>2026-07-09T07:48:46.000Z</time>
      </trkpt>
      <trkpt lat="45.8191" lon="1.88872">
        <ele>743.7</ele>
        <time>2026-07-09T07:48:47.000Z</time>
      </trkpt>
      <trkpt lat="45.8191" lon="1.88871">
        <ele>744</ele>
        <time>2026-07-09T07:48:48.000Z</time>
      </trkpt>
      <trkpt lat="45.81911" lon="1.88868">
        <ele>744.4</ele>
        <time>2026-07-09T07:48:49.000Z</time>
      </trkpt>
      <trkpt lat="45.81911" lon="1.88866">
        <ele>744.4</ele>
        <time>2026-07-09T07:48:50.000Z</time>
      </trkpt>
      <trkpt lat="45.81912" lon="1.88865">
        <ele>744</ele>
        <time>2026-07-09T07:48:51.000Z</time>
      </trkpt>
      <trkpt lat="45.81913" lon="1.88862">
        <ele>743.8</ele>
        <time>2026-07-09T07:48:52.000Z</time>
      </trkpt>
      <trkpt lat="45.81914" lon="1.8886">
        <ele>743</ele>
        <time>2026-07-09T07:48:53.000Z</time>
      </trkpt>
      <trkpt lat="45.81915" lon="1.88858">
        <ele>742.9</ele>
        <time>2026-07-09T07:48:54.000Z</time>
      </trkpt>
      <trkpt lat="45.81916" lon="1.88855">
        <ele>742.4</ele>
        <time>2026-07-09T07:48:55.000Z</time>
      </trkpt>
      <trkpt lat="45.81918" lon="1.88854">
        <ele>741.1</ele>
        <time>2026-07-09T07:48:56.000Z</time>
      </trkpt>
      <trkpt lat="45.81918" lon="1.88851">
        <ele>741.6</ele>
        <time>2026-07-09T07:48:57.000Z</time>
      </trkpt>
      <trkpt lat="45.8192" lon="1.88848">
        <ele>742.2</ele>
        <time>2026-07-09T07:48:58.000Z</time>
      </trkpt>
      <trkpt lat="45.81921" lon="1.88846">
        <ele>741.6</ele>
        <time>2026-07-09T07:48:59.000Z</time>
      </trkpt>
      <trkpt lat="45.81922" lon="1.88845">
        <ele>742.2</ele>
        <time>2026-07-09T07:49:00.000Z</time>
      </trkpt>
      <trkpt lat="45.81924" lon="1.88843">
        <ele>742.6</ele>
        <time>2026-07-09T07:49:01.000Z</time>
      </trkpt>
      <trkpt lat="45.81926" lon="1.88841">
        <ele>742.6</ele>
        <time>2026-07-09T07:49:02.000Z</time>
      </trkpt>
      <trkpt lat="45.81927" lon="1.8884">
        <ele>742.3</ele>
        <time>2026-07-09T07:49:03.000Z</time>
      </trkpt>
      <trkpt lat="45.81929" lon="1.88839">
        <ele>742.5</ele>
        <time>2026-07-09T07:49:04.000Z</time>
      </trkpt>
      <trkpt lat="45.81931" lon="1.88837">
        <ele>741.8</ele>
        <time>2026-07-09T07:49:05.000Z</time>
      </trkpt>
      <trkpt lat="45.81933" lon="1.88836">
        <ele>741.2</ele>
        <time>2026-07-09T07:49:06.000Z</time>
      </trkpt>
      <trkpt lat="45.81934" lon="1.88835">
        <ele>740.8</ele>
        <time>2026-07-09T07:49:07.000Z</time>
      </trkpt>
      <trkpt lat="45.81936" lon="1.88833">
        <ele>741.1</ele>
        <time>2026-07-09T07:49:08.000Z</time>
      </trkpt>
      <trkpt lat="45.81938" lon="1.88832">
        <ele>741.2</ele>
        <time>2026-07-09T07:49:09.000Z</time>
      </trkpt>
      <trkpt lat="45.81939" lon="1.88832">
        <ele>741.2</ele>
        <time>2026-07-09T07:49:10.000Z</time>
      </trkpt>
      <trkpt lat="45.81941" lon="1.88831">
        <ele>740.6</ele>
        <time>2026-07-09T07:49:11.000Z</time>
      </trkpt>
      <trkpt lat="45.81942" lon="1.88831">
        <ele>739.7</ele>
        <time>2026-07-09T07:49:12.000Z</time>
      </trkpt>
      <trkpt lat="45.81944" lon="1.88831">
        <ele>740.2</ele>
        <time>2026-07-09T07:49:13.000Z</time>
      </trkpt>
      <trkpt lat="45.81946" lon="1.88831">
        <ele>740.3</ele>
        <time>2026-07-09T07:49:14.000Z</time>
      </trkpt>
      <trkpt lat="45.81948" lon="1.8883">
        <ele>740.3</ele>
        <time>2026-07-09T07:49:15.000Z</time>
      </trkpt>
      <trkpt lat="45.81949" lon="1.88829">
        <ele>739.9</ele>
        <time>2026-07-09T07:49:16.000Z</time>
      </trkpt>
      <trkpt lat="45.81951" lon="1.88829">
        <ele>739.9</ele>
        <time>2026-07-09T07:49:17.000Z</time>
      </trkpt>
      <trkpt lat="45.81953" lon="1.88828">
        <ele>740.1</ele>
        <time>2026-07-09T07:49:18.000Z</time>
      </trkpt>
      <trkpt lat="45.81955" lon="1.88828">
        <ele>739.9</ele>
        <time>2026-07-09T07:49:19.000Z</time>
      </trkpt>
      <trkpt lat="45.81957" lon="1.88828">
        <ele>740.3</ele>
        <time>2026-07-09T07:49:20.000Z</time>
      </trkpt>
      <trkpt lat="45.81959" lon="1.88828">
        <ele>740</ele>
        <time>2026-07-09T07:49:21.000Z</time>
      </trkpt>
      <trkpt lat="45.81961" lon="1.88827">
        <ele>739.8</ele>
        <time>2026-07-09T07:49:22.000Z</time>
      </trkpt>
      <trkpt lat="45.81963" lon="1.88827">
        <ele>739.8</ele>
        <time>2026-07-09T07:49:23.000Z</time>
      </trkpt>
      <trkpt lat="45.81964" lon="1.88829">
        <ele>739.7</ele>
        <time>2026-07-09T07:49:24.000Z</time>
      </trkpt>
      <trkpt lat="45.81966" lon="1.88831">
        <ele>740.3</ele>
        <time>2026-07-09T07:49:25.000Z</time>
      </trkpt>
      <trkpt lat="45.81968" lon="1.8883">
        <ele>740.3</ele>
        <time>2026-07-09T07:49:26.000Z</time>
      </trkpt>
      <trkpt lat="45.8197" lon="1.88829">
        <ele>740.2</ele>
        <time>2026-07-09T07:49:27.000Z</time>
      </trkpt>
      <trkpt lat="45.81971" lon="1.88828">
        <ele>739.8</ele>
        <time>2026-07-09T07:49:28.000Z</time>
      </trkpt>
      <trkpt lat="45.81973" lon="1.88827">
        <ele>739.5</ele>
        <time>2026-07-09T07:49:29.000Z</time>
      </trkpt>
      <trkpt lat="45.81974" lon="1.88827">
        <ele>739.5</ele>
        <time>2026-07-09T07:49:30.000Z</time>
      </trkpt>
      <trkpt lat="45.81976" lon="1.88827">
        <ele>739.9</ele>
        <time>2026-07-09T07:49:31.000Z</time>
      </trkpt>
      <trkpt lat="45.81977" lon="1.88827">
        <ele>739.9</ele>
        <time>2026-07-09T07:49:32.000Z</time>
      </trkpt>
      <trkpt lat="45.81979" lon="1.88827">
        <ele>739.6</ele>
        <time>2026-07-09T07:49:33.000Z</time>
      </trkpt>
      <trkpt lat="45.81981" lon="1.88827">
        <ele>740</ele>
        <time>2026-07-09T07:49:34.000Z</time>
      </trkpt>
      <trkpt lat="45.81982" lon="1.88826">
        <ele>740</ele>
        <time>2026-07-09T07:49:35.000Z</time>
      </trkpt>
      <trkpt lat="45.81984" lon="1.88825">
        <ele>740.4</ele>
        <time>2026-07-09T07:49:36.000Z</time>
      </trkpt>
      <trkpt lat="45.81985" lon="1.88823">
        <ele>740.3</ele>
        <time>2026-07-09T07:49:37.000Z</time>
      </trkpt>
      <trkpt lat="45.81985" lon="1.8882">
        <ele>740.3</ele>
        <time>2026-07-09T07:49:38.000Z</time>
      </trkpt>
      <trkpt lat="45.81986" lon="1.88818">
        <ele>740.2</ele>
        <time>2026-07-09T07:49:39.000Z</time>
      </trkpt>
      <trkpt lat="45.81986" lon="1.88815">
        <ele>740.4</ele>
        <time>2026-07-09T07:49:40.000Z</time>
      </trkpt>
      <trkpt lat="45.81986" lon="1.88812">
        <ele>740.5</ele>
        <time>2026-07-09T07:49:41.000Z</time>
      </trkpt>
      <trkpt lat="45.81987" lon="1.8881">
        <ele>740.8</ele>
        <time>2026-07-09T07:49:42.000Z</time>
      </trkpt>
      <trkpt lat="45.81987" lon="1.88807">
        <ele>740.3</ele>
        <time>2026-07-09T07:49:43.000Z</time>
      </trkpt>
      <trkpt lat="45.81987" lon="1.88805">
        <ele>740.3</ele>
        <time>2026-07-09T07:49:44.000Z</time>
      </trkpt>
      <trkpt lat="45.81986" lon="1.88802">
        <ele>740</ele>
        <time>2026-07-09T07:49:45.000Z</time>
      </trkpt>
      <trkpt lat="45.81986" lon="1.888">
        <ele>739.9</ele>
        <time>2026-07-09T07:49:46.000Z</time>
      </trkpt>
      <trkpt lat="45.81986" lon="1.88797">
        <ele>739.9</ele>
        <time>2026-07-09T07:49:47.000Z</time>
      </trkpt>
      <trkpt lat="45.81985" lon="1.88795">
        <ele>740</ele>
        <time>2026-07-09T07:49:48.000Z</time>
      </trkpt>
      <trkpt lat="45.81985" lon="1.88792">
        <ele>740.2</ele>
        <time>2026-07-09T07:49:49.000Z</time>
      </trkpt>
      <trkpt lat="45.81984" lon="1.8879">
        <ele>740.1</ele>
        <time>2026-07-09T07:49:50.000Z</time>
      </trkpt>
      <trkpt lat="45.81984" lon="1.88788">
        <ele>739.9</ele>
        <time>2026-07-09T07:49:51.000Z</time>
      </trkpt>
      <trkpt lat="45.81983" lon="1.88785">
        <ele>739.7</ele>
        <time>2026-07-09T07:49:52.000Z</time>
      </trkpt>
      <trkpt lat="45.81982" lon="1.88783">
        <ele>739.9</ele>
        <time>2026-07-09T07:49:53.000Z</time>
      </trkpt>
      <trkpt lat="45.81982" lon="1.88781">
        <ele>740</ele>
        <time>2026-07-09T07:49:54.000Z</time>
      </trkpt>
      <trkpt lat="45.81981" lon="1.88778">
        <ele>740.1</ele>
        <time>2026-07-09T07:49:55.000Z</time>
      </trkpt>
      <trkpt lat="45.8198" lon="1.88775">
        <ele>740</ele>
        <time>2026-07-09T07:49:56.000Z</time>
      </trkpt>
      <trkpt lat="45.81979" lon="1.88772">
        <ele>739.9</ele>
        <time>2026-07-09T07:49:57.000Z</time>
      </trkpt>
      <trkpt lat="45.81979" lon="1.88769">
        <ele>740</ele>
        <time>2026-07-09T07:49:58.000Z</time>
      </trkpt>
      <trkpt lat="45.81978" lon="1.88767">
        <ele>740</ele>
        <time>2026-07-09T07:49:59.000Z</time>
      </trkpt>
      <trkpt lat="45.81977" lon="1.88764">
        <ele>740.1</ele>
        <time>2026-07-09T07:50:00.000Z</time>
      </trkpt>
      <trkpt lat="45.81976" lon="1.88762">
        <ele>740.1</ele>
        <time>2026-07-09T07:50:01.000Z</time>
      </trkpt>
      <trkpt lat="45.81976" lon="1.88759">
        <ele>739.8</ele>
        <time>2026-07-09T07:50:02.000Z</time>
      </trkpt>
      <trkpt lat="45.81975" lon="1.88756">
        <ele>739.8</ele>
        <time>2026-07-09T07:50:03.000Z</time>
      </trkpt>
      <trkpt lat="45.81974" lon="1.88753">
        <ele>739.7</ele>
        <time>2026-07-09T07:50:04.000Z</time>
      </trkpt>
      <trkpt lat="45.81973" lon="1.88751">
        <ele>739.9</ele>
        <time>2026-07-09T07:50:05.000Z</time>
      </trkpt>
      <trkpt lat="45.81972" lon="1.88748">
        <ele>740.1</ele>
        <time>2026-07-09T07:50:06.000Z</time>
      </trkpt>
      <trkpt lat="45.81971" lon="1.88745">
        <ele>740.4</ele>
        <time>2026-07-09T07:50:07.000Z</time>
      </trkpt>
      <trkpt lat="45.8197" lon="1.88742">
        <ele>740.6</ele>
        <time>2026-07-09T07:50:08.000Z</time>
      </trkpt>
      <trkpt lat="45.8197" lon="1.8874">
        <ele>740.3</ele>
        <time>2026-07-09T07:50:09.000Z</time>
      </trkpt>
      <trkpt lat="45.81969" lon="1.88738">
        <ele>740.6</ele>
        <time>2026-07-09T07:50:10.000Z</time>
      </trkpt>
      <trkpt lat="45.81968" lon="1.88735">
        <ele>740.9</ele>
        <time>2026-07-09T07:50:11.000Z</time>
      </trkpt>
      <trkpt lat="45.81968" lon="1.88732">
        <ele>741.1</ele>
        <time>2026-07-09T07:50:12.000Z</time>
      </trkpt>
      <trkpt lat="45.81967" lon="1.8873">
        <ele>741.1</ele>
        <time>2026-07-09T07:50:13.000Z</time>
      </trkpt>
      <trkpt lat="45.81967" lon="1.88727">
        <ele>741.2</ele>
        <time>2026-07-09T07:50:14.000Z</time>
      </trkpt>
      <trkpt lat="45.81966" lon="1.88725">
        <ele>741.1</ele>
        <time>2026-07-09T07:50:15.000Z</time>
      </trkpt>
      <trkpt lat="45.81965" lon="1.88723">
        <ele>741.3</ele>
        <time>2026-07-09T07:50:16.000Z</time>
      </trkpt>
      <trkpt lat="45.81965" lon="1.8872">
        <ele>741.2</ele>
        <time>2026-07-09T07:50:17.000Z</time>
      </trkpt>
      <trkpt lat="45.81964" lon="1.88718">
        <ele>740.9</ele>
        <time>2026-07-09T07:50:18.000Z</time>
      </trkpt>
      <trkpt lat="45.81964" lon="1.88716">
        <ele>740.9</ele>
        <time>2026-07-09T07:50:19.000Z</time>
      </trkpt>
      <trkpt lat="45.81964" lon="1.88713">
        <ele>740.6</ele>
        <time>2026-07-09T07:50:20.000Z</time>
      </trkpt>
      <trkpt lat="45.81963" lon="1.88711">
        <ele>740</ele>
        <time>2026-07-09T07:50:21.000Z</time>
      </trkpt>
      <trkpt lat="45.81963" lon="1.88709">
        <ele>738.9</ele>
        <time>2026-07-09T07:50:22.000Z</time>
      </trkpt>
      <trkpt lat="45.81963" lon="1.88706">
        <ele>738.4</ele>
        <time>2026-07-09T07:50:23.000Z</time>
      </trkpt>
      <trkpt lat="45.81963" lon="1.88704">
        <ele>738.5</ele>
        <time>2026-07-09T07:50:24.000Z</time>
      </trkpt>
      <trkpt lat="45.81962" lon="1.88702">
        <ele>738.6</ele>
        <time>2026-07-09T07:50:25.000Z</time>
      </trkpt>
      <trkpt lat="45.81961" lon="1.88699">
        <ele>738.6</ele>
        <time>2026-07-09T07:50:26.000Z</time>
      </trkpt>
      <trkpt lat="45.81961" lon="1.88697">
        <ele>738.3</ele>
        <time>2026-07-09T07:50:27.000Z</time>
      </trkpt>
      <trkpt lat="45.8196" lon="1.88694">
        <ele>738.4</ele>
        <time>2026-07-09T07:50:28.000Z</time>
      </trkpt>
      <trkpt lat="45.8196" lon="1.88692">
        <ele>738.6</ele>
        <time>2026-07-09T07:50:29.000Z</time>
      </trkpt>
      <trkpt lat="45.81959" lon="1.88689">
        <ele>738.5</ele>
        <time>2026-07-09T07:50:30.000Z</time>
      </trkpt>
      <trkpt lat="45.81958" lon="1.88687">
        <ele>738.6</ele>
        <time>2026-07-09T07:50:31.000Z</time>
      </trkpt>
      <trkpt lat="45.81958" lon="1.88684">
        <ele>738.7</ele>
        <time>2026-07-09T07:50:32.000Z</time>
      </trkpt>
      <trkpt lat="45.81957" lon="1.88682">
        <ele>739.2</ele>
        <time>2026-07-09T07:50:33.000Z</time>
      </trkpt>
      <trkpt lat="45.81956" lon="1.8868">
        <ele>739.3</ele>
        <time>2026-07-09T07:50:34.000Z</time>
      </trkpt>
      <trkpt lat="45.81955" lon="1.88677">
        <ele>739.3</ele>
        <time>2026-07-09T07:50:35.000Z</time>
      </trkpt>
      <trkpt lat="45.81954" lon="1.88675">
        <ele>739.1</ele>
        <time>2026-07-09T07:50:36.000Z</time>
      </trkpt>
      <trkpt lat="45.81953" lon="1.88673">
        <ele>739.6</ele>
        <time>2026-07-09T07:50:37.000Z</time>
      </trkpt>
      <trkpt lat="45.81952" lon="1.88671">
        <ele>739.7</ele>
        <time>2026-07-09T07:50:38.000Z</time>
      </trkpt>
      <trkpt lat="45.81951" lon="1.88669">
        <ele>739.9</ele>
        <time>2026-07-09T07:50:39.000Z</time>
      </trkpt>
      <trkpt lat="45.81949" lon="1.88667">
        <ele>740.2</ele>
        <time>2026-07-09T07:50:40.000Z</time>
      </trkpt>
      <trkpt lat="45.81948" lon="1.88665">
        <ele>740.4</ele>
        <time>2026-07-09T07:50:41.000Z</time>
      </trkpt>
      <trkpt lat="45.81947" lon="1.88662">
        <ele>741</ele>
        <time>2026-07-09T07:50:42.000Z</time>
      </trkpt>
      <trkpt lat="45.81946" lon="1.8866">
        <ele>740.6</ele>
        <time>2026-07-09T07:50:43.000Z</time>
      </trkpt>
      <trkpt lat="45.81944" lon="1.88657">
        <ele>741.7</ele>
        <time>2026-07-09T07:50:44.000Z</time>
      </trkpt>
      <trkpt lat="45.81943" lon="1.88655">
        <ele>741.5</ele>
        <time>2026-07-09T07:50:45.000Z</time>
      </trkpt>
      <trkpt lat="45.81942" lon="1.88654">
        <ele>742</ele>
        <time>2026-07-09T07:50:46.000Z</time>
      </trkpt>
      <trkpt lat="45.8194" lon="1.88652">
        <ele>742.3</ele>
        <time>2026-07-09T07:50:47.000Z</time>
      </trkpt>
      <trkpt lat="45.81939" lon="1.88651">
        <ele>742.8</ele>
        <time>2026-07-09T07:50:48.000Z</time>
      </trkpt>
      <trkpt lat="45.81937" lon="1.88649">
        <ele>742.7</ele>
        <time>2026-07-09T07:50:49.000Z</time>
      </trkpt>
      <trkpt lat="45.81937" lon="1.88647">
        <ele>743.1</ele>
        <time>2026-07-09T07:50:50.000Z</time>
      </trkpt>
      <trkpt lat="45.81936" lon="1.88645">
        <ele>743.6</ele>
        <time>2026-07-09T07:50:51.000Z</time>
      </trkpt>
      <trkpt lat="45.81934" lon="1.88643">
        <ele>743.5</ele>
        <time>2026-07-09T07:50:52.000Z</time>
      </trkpt>
      <trkpt lat="45.81933" lon="1.88641">
        <ele>743.8</ele>
        <time>2026-07-09T07:50:53.000Z</time>
      </trkpt>
      <trkpt lat="45.81932" lon="1.8864">
        <ele>744.2</ele>
        <time>2026-07-09T07:50:54.000Z</time>
      </trkpt>
      <trkpt lat="45.81931" lon="1.88638">
        <ele>745.5</ele>
        <time>2026-07-09T07:50:55.000Z</time>
      </trkpt>
      <trkpt lat="45.81929" lon="1.88636">
        <ele>744</ele>
        <time>2026-07-09T07:50:56.000Z</time>
      </trkpt>
      <trkpt lat="45.81928" lon="1.88635">
        <ele>745.8</ele>
        <time>2026-07-09T07:50:57.000Z</time>
      </trkpt>
      <trkpt lat="45.81927" lon="1.88633">
        <ele>746.3</ele>
        <time>2026-07-09T07:50:58.000Z</time>
      </trkpt>
      <trkpt lat="45.81926" lon="1.88632">
        <ele>747.7</ele>
        <time>2026-07-09T07:50:59.000Z</time>
      </trkpt>
      <trkpt lat="45.81925" lon="1.88631">
        <ele>748</ele>
        <time>2026-07-09T07:51:00.000Z</time>
      </trkpt>
      <trkpt lat="45.81924" lon="1.88629">
        <ele>747.5</ele>
        <time>2026-07-09T07:51:01.000Z</time>
      </trkpt>
      <trkpt lat="45.81922" lon="1.88628">
        <ele>748.1</ele>
        <time>2026-07-09T07:51:02.000Z</time>
      </trkpt>
      <trkpt lat="45.8192" lon="1.88627">
        <ele>748.1</ele>
        <time>2026-07-09T07:51:03.000Z</time>
      </trkpt>
      <trkpt lat="45.81919" lon="1.88627">
        <ele>747.9</ele>
        <time>2026-07-09T07:51:04.000Z</time>
      </trkpt>
      <trkpt lat="45.81917" lon="1.88627">
        <ele>748</ele>
        <time>2026-07-09T07:51:05.000Z</time>
      </trkpt>
      <trkpt lat="45.81915" lon="1.88627">
        <ele>747.6</ele>
        <time>2026-07-09T07:51:06.000Z</time>
      </trkpt>
      <trkpt lat="45.81913" lon="1.88627">
        <ele>747.4</ele>
        <time>2026-07-09T07:51:07.000Z</time>
      </trkpt>
      <trkpt lat="45.81911" lon="1.88626">
        <ele>747.8</ele>
        <time>2026-07-09T07:51:08.000Z</time>
      </trkpt>
      <trkpt lat="45.81909" lon="1.88626">
        <ele>748.4</ele>
        <time>2026-07-09T07:51:09.000Z</time>
      </trkpt>
      <trkpt lat="45.81907" lon="1.88625">
        <ele>748.5</ele>
        <time>2026-07-09T07:51:10.000Z</time>
      </trkpt>
      <trkpt lat="45.81906" lon="1.88625">
        <ele>747.6</ele>
        <time>2026-07-09T07:51:11.000Z</time>
      </trkpt>
      <trkpt lat="45.81904" lon="1.88624">
        <ele>747.6</ele>
        <time>2026-07-09T07:51:12.000Z</time>
      </trkpt>
      <trkpt lat="45.81902" lon="1.88624">
        <ele>747.6</ele>
        <time>2026-07-09T07:51:13.000Z</time>
      </trkpt>
      <trkpt lat="45.81901" lon="1.88624">
        <ele>746.8</ele>
        <time>2026-07-09T07:51:14.000Z</time>
      </trkpt>
      <trkpt lat="45.81899" lon="1.88624">
        <ele>747.8</ele>
        <time>2026-07-09T07:51:15.000Z</time>
      </trkpt>
      <trkpt lat="45.81897" lon="1.88624">
        <ele>747.1</ele>
        <time>2026-07-09T07:51:16.000Z</time>
      </trkpt>
      <trkpt lat="45.81895" lon="1.88623">
        <ele>745.7</ele>
        <time>2026-07-09T07:51:17.000Z</time>
      </trkpt>
      <trkpt lat="45.81894" lon="1.88623">
        <ele>746.6</ele>
        <time>2026-07-09T07:51:18.000Z</time>
      </trkpt>
      <trkpt lat="45.81892" lon="1.88622">
        <ele>747.1</ele>
        <time>2026-07-09T07:51:19.000Z</time>
      </trkpt>
      <trkpt lat="45.8189" lon="1.88621">
        <ele>747.4</ele>
        <time>2026-07-09T07:51:20.000Z</time>
      </trkpt>
      <trkpt lat="45.81889" lon="1.88619">
        <ele>749</ele>
        <time>2026-07-09T07:51:21.000Z</time>
      </trkpt>
      <trkpt lat="45.81887" lon="1.88616">
        <ele>749.5</ele>
        <time>2026-07-09T07:51:22.000Z</time>
      </trkpt>
      <trkpt lat="45.81885" lon="1.88615">
        <ele>748.5</ele>
        <time>2026-07-09T07:51:23.000Z</time>
      </trkpt>
      <trkpt lat="45.81884" lon="1.88616">
        <ele>749.5</ele>
        <time>2026-07-09T07:51:24.000Z</time>
      </trkpt>
      <trkpt lat="45.81883" lon="1.88616">
        <ele>749.7</ele>
        <time>2026-07-09T07:51:25.000Z</time>
      </trkpt>
      <trkpt lat="45.81882" lon="1.88615">
        <ele>749</ele>
        <time>2026-07-09T07:51:26.000Z</time>
      </trkpt>
      <trkpt lat="45.81882" lon="1.88614">
        <ele>749</ele>
        <time>2026-07-09T07:51:27.000Z</time>
      </trkpt>
      <trkpt lat="45.81881" lon="1.88614">
        <ele>747.7</ele>
        <time>2026-07-09T07:51:28.000Z</time>
      </trkpt>
      <trkpt lat="45.8188" lon="1.88613">
        <ele>748.1</ele>
        <time>2026-07-09T07:51:29.000Z</time>
      </trkpt>
      <trkpt lat="45.81879" lon="1.88613">
        <ele>747.7</ele>
        <time>2026-07-09T07:51:30.000Z</time>
      </trkpt>
      <trkpt lat="45.81878" lon="1.88612">
        <ele>747.6</ele>
        <time>2026-07-09T07:51:31.000Z</time>
      </trkpt>
      <trkpt lat="45.81876" lon="1.88611">
        <ele>747.1</ele>
        <time>2026-07-09T07:51:32.000Z</time>
      </trkpt>
      <trkpt lat="45.81874" lon="1.8861">
        <ele>745.5</ele>
        <time>2026-07-09T07:51:33.000Z</time>
      </trkpt>
      <trkpt lat="45.81873" lon="1.88609">
        <ele>745</ele>
        <time>2026-07-09T07:51:34.000Z</time>
      </trkpt>
      <trkpt lat="45.81872" lon="1.88608">
        <ele>743.4</ele>
        <time>2026-07-09T07:51:35.000Z</time>
      </trkpt>
      <trkpt lat="45.8187" lon="1.88607">
        <ele>743.2</ele>
        <time>2026-07-09T07:51:36.000Z</time>
      </trkpt>
      <trkpt lat="45.81869" lon="1.88606">
        <ele>743.3</ele>
        <time>2026-07-09T07:51:37.000Z</time>
      </trkpt>
      <trkpt lat="45.81868" lon="1.88605">
        <ele>743.4</ele>
        <time>2026-07-09T07:51:38.000Z</time>
      </trkpt>
      <trkpt lat="45.81866" lon="1.88604">
        <ele>743.5</ele>
        <time>2026-07-09T07:51:39.000Z</time>
      </trkpt>
      <trkpt lat="45.81865" lon="1.88604">
        <ele>743.3</ele>
        <time>2026-07-09T07:51:40.000Z</time>
      </trkpt>
      <trkpt lat="45.81864" lon="1.88603">
        <ele>742.8</ele>
        <time>2026-07-09T07:51:41.000Z</time>
      </trkpt>
      <trkpt lat="45.81862" lon="1.88602">
        <ele>742.8</ele>
        <time>2026-07-09T07:51:42.000Z</time>
      </trkpt>
      <trkpt lat="45.8186" lon="1.88601">
        <ele>742.9</ele>
        <time>2026-07-09T07:51:43.000Z</time>
      </trkpt>
      <trkpt lat="45.81858" lon="1.886">
        <ele>742.9</ele>
        <time>2026-07-09T07:51:44.000Z</time>
      </trkpt>
      <trkpt lat="45.81857" lon="1.886">
        <ele>742.4</ele>
        <time>2026-07-09T07:51:45.000Z</time>
      </trkpt>
      <trkpt lat="45.81856" lon="1.88599">
        <ele>742</ele>
        <time>2026-07-09T07:51:46.000Z</time>
      </trkpt>
      <trkpt lat="45.81854" lon="1.88599">
        <ele>742.2</ele>
        <time>2026-07-09T07:51:47.000Z</time>
      </trkpt>
      <trkpt lat="45.81853" lon="1.88598">
        <ele>742.3</ele>
        <time>2026-07-09T07:51:48.000Z</time>
      </trkpt>
      <trkpt lat="45.81851" lon="1.88598">
        <ele>741.8</ele>
        <time>2026-07-09T07:51:49.000Z</time>
      </trkpt>
      <trkpt lat="45.81849" lon="1.88597">
        <ele>740.8</ele>
        <time>2026-07-09T07:51:50.000Z</time>
      </trkpt>
      <trkpt lat="45.81847" lon="1.88597">
        <ele>741</ele>
        <time>2026-07-09T07:51:51.000Z</time>
      </trkpt>
      <trkpt lat="45.81846" lon="1.88596">
        <ele>739.1</ele>
        <time>2026-07-09T07:51:52.000Z</time>
      </trkpt>
      <trkpt lat="45.81844" lon="1.88596">
        <ele>739</ele>
        <time>2026-07-09T07:51:53.000Z</time>
      </trkpt>
      <trkpt lat="45.81843" lon="1.88596">
        <ele>739.2</ele>
        <time>2026-07-09T07:51:54.000Z</time>
      </trkpt>
      <trkpt lat="45.81841" lon="1.88596">
        <ele>738.3</ele>
        <time>2026-07-09T07:51:55.000Z</time>
      </trkpt>
      <trkpt lat="45.8184" lon="1.88596">
        <ele>738.4</ele>
        <time>2026-07-09T07:51:56.000Z</time>
      </trkpt>
      <trkpt lat="45.81838" lon="1.88596">
        <ele>737.8</ele>
        <time>2026-07-09T07:51:57.000Z</time>
      </trkpt>
      <trkpt lat="45.81836" lon="1.88597">
        <ele>737.2</ele>
        <time>2026-07-09T07:51:58.000Z</time>
      </trkpt>
      <trkpt lat="45.81835" lon="1.88597">
        <ele>736.7</ele>
        <time>2026-07-09T07:51:59.000Z</time>
      </trkpt>
      <trkpt lat="45.81833" lon="1.88597">
        <ele>736.3</ele>
        <time>2026-07-09T07:52:00.000Z</time>
      </trkpt>
      <trkpt lat="45.8183" lon="1.88598">
        <ele>735.7</ele>
        <time>2026-07-09T07:52:01.000Z</time>
      </trkpt>
      <trkpt lat="45.81828" lon="1.88598">
        <ele>733.9</ele>
        <time>2026-07-09T07:52:02.000Z</time>
      </trkpt>
      <trkpt lat="45.81825" lon="1.88598">
        <ele>734.5</ele>
        <time>2026-07-09T07:52:03.000Z</time>
      </trkpt>
      <trkpt lat="45.81823" lon="1.88599">
        <ele>734.1</ele>
        <time>2026-07-09T07:52:04.000Z</time>
      </trkpt>
      <trkpt lat="45.81822" lon="1.88599">
        <ele>734.3</ele>
        <time>2026-07-09T07:52:05.000Z</time>
      </trkpt>
      <trkpt lat="45.8182" lon="1.886">
        <ele>734.8</ele>
        <time>2026-07-09T07:52:06.000Z</time>
      </trkpt>
      <trkpt lat="45.81817" lon="1.886">
        <ele>735.2</ele>
        <time>2026-07-09T07:52:07.000Z</time>
      </trkpt>
      <trkpt lat="45.81816" lon="1.88601">
        <ele>735</ele>
        <time>2026-07-09T07:52:08.000Z</time>
      </trkpt>
      <trkpt lat="45.81814" lon="1.88602">
        <ele>735.7</ele>
        <time>2026-07-09T07:52:09.000Z</time>
      </trkpt>
      <trkpt lat="45.81812" lon="1.88602">
        <ele>735.3</ele>
        <time>2026-07-09T07:52:10.000Z</time>
      </trkpt>
      <trkpt lat="45.8181" lon="1.88603">
        <ele>734.6</ele>
        <time>2026-07-09T07:52:11.000Z</time>
      </trkpt>
      <trkpt lat="45.81808" lon="1.88603">
        <ele>733.3</ele>
        <time>2026-07-09T07:52:12.000Z</time>
      </trkpt>
      <trkpt lat="45.81805" lon="1.88604">
        <ele>732.5</ele>
        <time>2026-07-09T07:52:13.000Z</time>
      </trkpt>
      <trkpt lat="45.81804" lon="1.88605">
        <ele>732.4</ele>
        <time>2026-07-09T07:52:14.000Z</time>
      </trkpt>
      <trkpt lat="45.81802" lon="1.88606">
        <ele>732.5</ele>
        <time>2026-07-09T07:52:15.000Z</time>
      </trkpt>
      <trkpt lat="45.818" lon="1.88607">
        <ele>732.1</ele>
        <time>2026-07-09T07:52:16.000Z</time>
      </trkpt>
      <trkpt lat="45.81798" lon="1.88608">
        <ele>732</ele>
        <time>2026-07-09T07:52:17.000Z</time>
      </trkpt>
      <trkpt lat="45.81797" lon="1.88608">
        <ele>732.1</ele>
        <time>2026-07-09T07:52:18.000Z</time>
      </trkpt>
      <trkpt lat="45.81795" lon="1.88609">
        <ele>732.3</ele>
        <time>2026-07-09T07:52:19.000Z</time>
      </trkpt>
      <trkpt lat="45.81793" lon="1.88609">
        <ele>732.2</ele>
        <time>2026-07-09T07:52:20.000Z</time>
      </trkpt>
      <trkpt lat="45.81791" lon="1.88609">
        <ele>731.7</ele>
        <time>2026-07-09T07:52:21.000Z</time>
      </trkpt>
      <trkpt lat="45.8179" lon="1.8861">
        <ele>731.7</ele>
        <time>2026-07-09T07:52:22.000Z</time>
      </trkpt>
      <trkpt lat="45.81789" lon="1.88611">
        <ele>731.5</ele>
        <time>2026-07-09T07:52:23.000Z</time>
      </trkpt>
      <trkpt lat="45.81787" lon="1.88611">
        <ele>731.8</ele>
        <time>2026-07-09T07:52:24.000Z</time>
      </trkpt>
      <trkpt lat="45.81786" lon="1.88611">
        <ele>731.8</ele>
        <time>2026-07-09T07:52:25.000Z</time>
      </trkpt>
      <trkpt lat="45.81784" lon="1.88611">
        <ele>731.9</ele>
        <time>2026-07-09T07:52:26.000Z</time>
      </trkpt>
      <trkpt lat="45.81782" lon="1.8861">
        <ele>731.4</ele>
        <time>2026-07-09T07:52:27.000Z</time>
      </trkpt>
      <trkpt lat="45.81781" lon="1.88611">
        <ele>731.4</ele>
        <time>2026-07-09T07:52:28.000Z</time>
      </trkpt>
      <trkpt lat="45.81779" lon="1.88612">
        <ele>730.7</ele>
        <time>2026-07-09T07:52:29.000Z</time>
      </trkpt>
      <trkpt lat="45.81777" lon="1.88612">
        <ele>730.6</ele>
        <time>2026-07-09T07:52:30.000Z</time>
      </trkpt>
      <trkpt lat="45.81775" lon="1.88615">
        <ele>730.1</ele>
        <time>2026-07-09T07:52:31.000Z</time>
      </trkpt>
      <trkpt lat="45.81772" lon="1.88616">
        <ele>730.7</ele>
        <time>2026-07-09T07:52:32.000Z</time>
      </trkpt>
      <trkpt lat="45.81771" lon="1.88617">
        <ele>729.3</ele>
        <time>2026-07-09T07:52:33.000Z</time>
      </trkpt>
      <trkpt lat="45.81769" lon="1.88618">
        <ele>729.2</ele>
        <time>2026-07-09T07:52:34.000Z</time>
      </trkpt>
      <trkpt lat="45.81767" lon="1.88618">
        <ele>729.3</ele>
        <time>2026-07-09T07:52:35.000Z</time>
      </trkpt>
      <trkpt lat="45.81765" lon="1.88619">
        <ele>730.4</ele>
        <time>2026-07-09T07:52:36.000Z</time>
      </trkpt>
      <trkpt lat="45.81763" lon="1.88619">
        <ele>730.5</ele>
        <time>2026-07-09T07:52:37.000Z</time>
      </trkpt>
      <trkpt lat="45.81761" lon="1.88619">
        <ele>730.8</ele>
        <time>2026-07-09T07:52:38.000Z</time>
      </trkpt>
      <trkpt lat="45.81759" lon="1.88619">
        <ele>730.7</ele>
        <time>2026-07-09T07:52:39.000Z</time>
      </trkpt>
      <trkpt lat="45.81757" lon="1.8862">
        <ele>730.7</ele>
        <time>2026-07-09T07:52:40.000Z</time>
      </trkpt>
      <trkpt lat="45.81755" lon="1.8862">
        <ele>730.9</ele>
        <time>2026-07-09T07:52:41.000Z</time>
      </trkpt>
      <trkpt lat="45.81753" lon="1.8862">
        <ele>731.3</ele>
        <time>2026-07-09T07:52:42.000Z</time>
      </trkpt>
      <trkpt lat="45.81751" lon="1.8862">
        <ele>731.6</ele>
        <time>2026-07-09T07:52:43.000Z</time>
      </trkpt>
      <trkpt lat="45.8175" lon="1.88622">
        <ele>731.4</ele>
        <time>2026-07-09T07:52:44.000Z</time>
      </trkpt>
      <trkpt lat="45.81749" lon="1.88623">
        <ele>731.5</ele>
        <time>2026-07-09T07:52:45.000Z</time>
      </trkpt>
      <trkpt lat="45.81748" lon="1.88624">
        <ele>731.3</ele>
        <time>2026-07-09T07:52:46.000Z</time>
      </trkpt>
      <trkpt lat="45.81746" lon="1.88624">
        <ele>730.3</ele>
        <time>2026-07-09T07:52:47.000Z</time>
      </trkpt>
      <trkpt lat="45.81744" lon="1.88623">
        <ele>729.3</ele>
        <time>2026-07-09T07:52:48.000Z</time>
      </trkpt>
      <trkpt lat="45.81743" lon="1.88623">
        <ele>729.2</ele>
        <time>2026-07-09T07:52:49.000Z</time>
      </trkpt>
      <trkpt lat="45.81741" lon="1.88622">
        <ele>729.1</ele>
        <time>2026-07-09T07:52:50.000Z</time>
      </trkpt>
      <trkpt lat="45.81739" lon="1.88622">
        <ele>729.4</ele>
        <time>2026-07-09T07:52:51.000Z</time>
      </trkpt>
      <trkpt lat="45.81737" lon="1.88621">
        <ele>729.1</ele>
        <time>2026-07-09T07:52:52.000Z</time>
      </trkpt>
      <trkpt lat="45.81735" lon="1.88621">
        <ele>729.4</ele>
        <time>2026-07-09T07:52:53.000Z</time>
      </trkpt>
      <trkpt lat="45.81734" lon="1.88621">
        <ele>729.3</ele>
        <time>2026-07-09T07:52:54.000Z</time>
      </trkpt>
      <trkpt lat="45.81732" lon="1.88621">
        <ele>729</ele>
        <time>2026-07-09T07:52:55.000Z</time>
      </trkpt>
      <trkpt lat="45.81731" lon="1.88621">
        <ele>728.8</ele>
        <time>2026-07-09T07:52:56.000Z</time>
      </trkpt>
      <trkpt lat="45.81729" lon="1.8862">
        <ele>729</ele>
        <time>2026-07-09T07:52:57.000Z</time>
      </trkpt>
      <trkpt lat="45.81728" lon="1.8862">
        <ele>729</ele>
        <time>2026-07-09T07:52:58.000Z</time>
      </trkpt>
      <trkpt lat="45.81726" lon="1.88617">
        <ele>729.2</ele>
        <time>2026-07-09T07:52:59.000Z</time>
      </trkpt>
      <trkpt lat="45.81726" lon="1.88615">
        <ele>728.5</ele>
        <time>2026-07-09T07:53:00.000Z</time>
      </trkpt>
      <trkpt lat="45.81726" lon="1.88613">
        <ele>728.2</ele>
        <time>2026-07-09T07:53:01.000Z</time>
      </trkpt>
      <trkpt lat="45.81726" lon="1.88611">
        <ele>727.8</ele>
        <time>2026-07-09T07:53:02.000Z</time>
      </trkpt>
      <trkpt lat="45.81725" lon="1.88609">
        <ele>728.1</ele>
        <time>2026-07-09T07:53:03.000Z</time>
      </trkpt>
      <trkpt lat="45.81723" lon="1.88609">
        <ele>728.6</ele>
        <time>2026-07-09T07:53:04.000Z</time>
      </trkpt>
      <trkpt lat="45.81722" lon="1.88608">
        <ele>729.4</ele>
        <time>2026-07-09T07:53:05.000Z</time>
      </trkpt>
      <trkpt lat="45.81721" lon="1.88608">
        <ele>729.5</ele>
        <time>2026-07-09T07:53:06.000Z</time>
      </trkpt>
      <trkpt lat="45.8172" lon="1.88607">
        <ele>729.4</ele>
        <time>2026-07-09T07:53:07.000Z</time>
      </trkpt>
      <trkpt lat="45.81718" lon="1.88607">
        <ele>729</ele>
        <time>2026-07-09T07:53:08.000Z</time>
      </trkpt>
      <trkpt lat="45.81715" lon="1.88611">
        <ele>731.7</ele>
        <time>2026-07-09T07:53:09.000Z</time>
      </trkpt>
      <trkpt lat="45.81714" lon="1.88609">
        <ele>731.6</ele>
        <time>2026-07-09T07:53:10.000Z</time>
      </trkpt>
      <trkpt lat="45.81713" lon="1.88606">
        <ele>731.4</ele>
        <time>2026-07-09T07:53:11.000Z</time>
      </trkpt>
      <trkpt lat="45.81711" lon="1.88604">
        <ele>731.5</ele>
        <time>2026-07-09T07:53:12.000Z</time>
      </trkpt>
      <trkpt lat="45.8171" lon="1.88602">
        <ele>731.1</ele>
        <time>2026-07-09T07:53:13.000Z</time>
      </trkpt>
      <trkpt lat="45.81709" lon="1.886">
        <ele>730.9</ele>
        <time>2026-07-09T07:53:14.000Z</time>
      </trkpt>
      <trkpt lat="45.81708" lon="1.88598">
        <ele>731</ele>
        <time>2026-07-09T07:53:15.000Z</time>
      </trkpt>
      <trkpt lat="45.81707" lon="1.88596">
        <ele>730.7</ele>
        <time>2026-07-09T07:53:16.000Z</time>
      </trkpt>
      <trkpt lat="45.81706" lon="1.88595">
        <ele>730.5</ele>
        <time>2026-07-09T07:53:17.000Z</time>
      </trkpt>
      <trkpt lat="45.81704" lon="1.88593">
        <ele>730.4</ele>
        <time>2026-07-09T07:53:18.000Z</time>
      </trkpt>
      <trkpt lat="45.81704" lon="1.88591">
        <ele>730.4</ele>
        <time>2026-07-09T07:53:19.000Z</time>
      </trkpt>
      <trkpt lat="45.81703" lon="1.88589">
        <ele>730.1</ele>
        <time>2026-07-09T07:53:20.000Z</time>
      </trkpt>
      <trkpt lat="45.81702" lon="1.88587">
        <ele>729.8</ele>
        <time>2026-07-09T07:53:21.000Z</time>
      </trkpt>
      <trkpt lat="45.81702" lon="1.88585">
        <ele>729.5</ele>
        <time>2026-07-09T07:53:22.000Z</time>
      </trkpt>
      <trkpt lat="45.81702" lon="1.88582">
        <ele>729.5</ele>
        <time>2026-07-09T07:53:23.000Z</time>
      </trkpt>
      <trkpt lat="45.81701" lon="1.8858">
        <ele>729.3</ele>
        <time>2026-07-09T07:53:24.000Z</time>
      </trkpt>
      <trkpt lat="45.817" lon="1.88579">
        <ele>729.3</ele>
        <time>2026-07-09T07:53:25.000Z</time>
      </trkpt>
      <trkpt lat="45.81699" lon="1.88577">
        <ele>729</ele>
        <time>2026-07-09T07:53:26.000Z</time>
      </trkpt>
      <trkpt lat="45.81697" lon="1.88575">
        <ele>728.8</ele>
        <time>2026-07-09T07:53:27.000Z</time>
      </trkpt>
      <trkpt lat="45.81696" lon="1.88574">
        <ele>728.6</ele>
        <time>2026-07-09T07:53:28.000Z</time>
      </trkpt>
      <trkpt lat="45.81696" lon="1.88572">
        <ele>728.3</ele>
        <time>2026-07-09T07:53:29.000Z</time>
      </trkpt>
      <trkpt lat="45.81695" lon="1.88569">
        <ele>728</ele>
        <time>2026-07-09T07:53:30.000Z</time>
      </trkpt>
      <trkpt lat="45.81694" lon="1.88567">
        <ele>727.5</ele>
        <time>2026-07-09T07:53:31.000Z</time>
      </trkpt>
      <trkpt lat="45.81694" lon="1.88565">
        <ele>727</ele>
        <time>2026-07-09T07:53:32.000Z</time>
      </trkpt>
      <trkpt lat="45.81693" lon="1.88562">
        <ele>726.9</ele>
        <time>2026-07-09T07:53:33.000Z</time>
      </trkpt>
      <trkpt lat="45.81693" lon="1.8856">
        <ele>726.6</ele>
        <time>2026-07-09T07:53:34.000Z</time>
      </trkpt>
      <trkpt lat="45.81693" lon="1.88558">
        <ele>726.2</ele>
        <time>2026-07-09T07:53:35.000Z</time>
      </trkpt>
      <trkpt lat="45.81693" lon="1.88555">
        <ele>726.1</ele>
        <time>2026-07-09T07:53:36.000Z</time>
      </trkpt>
      <trkpt lat="45.81694" lon="1.88553">
        <ele>726</ele>
        <time>2026-07-09T07:53:37.000Z</time>
      </trkpt>
      <trkpt lat="45.81694" lon="1.88551">
        <ele>725.9</ele>
        <time>2026-07-09T07:53:38.000Z</time>
      </trkpt>
      <trkpt lat="45.81695" lon="1.88549">
        <ele>725.3</ele>
        <time>2026-07-09T07:53:39.000Z</time>
      </trkpt>
      <trkpt lat="45.81695" lon="1.88546">
        <ele>725.1</ele>
        <time>2026-07-09T07:53:40.000Z</time>
      </trkpt>
      <trkpt lat="45.81695" lon="1.88544">
        <ele>724.9</ele>
        <time>2026-07-09T07:53:41.000Z</time>
      </trkpt>
      <trkpt lat="45.81696" lon="1.88541">
        <ele>724.9</ele>
        <time>2026-07-09T07:53:42.000Z</time>
      </trkpt>
      <trkpt lat="45.81696" lon="1.88539">
        <ele>724.8</ele>
        <time>2026-07-09T07:53:43.000Z</time>
      </trkpt>
      <trkpt lat="45.81697" lon="1.88537">
        <ele>724.6</ele>
        <time>2026-07-09T07:53:44.000Z</time>
      </trkpt>
      <trkpt lat="45.81697" lon="1.88535">
        <ele>724.3</ele>
        <time>2026-07-09T07:53:45.000Z</time>
      </trkpt>
      <trkpt lat="45.81698" lon="1.88533">
        <ele>724.2</ele>
        <time>2026-07-09T07:53:46.000Z</time>
      </trkpt>
      <trkpt lat="45.81698" lon="1.8853">
        <ele>724.2</ele>
        <time>2026-07-09T07:53:47.000Z</time>
      </trkpt>
      <trkpt lat="45.81699" lon="1.88527">
        <ele>723.8</ele>
        <time>2026-07-09T07:53:48.000Z</time>
      </trkpt>
      <trkpt lat="45.81699" lon="1.88525">
        <ele>723.6</ele>
        <time>2026-07-09T07:53:49.000Z</time>
      </trkpt>
      <trkpt lat="45.81699" lon="1.88523">
        <ele>723.1</ele>
        <time>2026-07-09T07:53:50.000Z</time>
      </trkpt>
      <trkpt lat="45.81699" lon="1.8852">
        <ele>722.7</ele>
        <time>2026-07-09T07:53:51.000Z</time>
      </trkpt>
      <trkpt lat="45.81699" lon="1.88518">
        <ele>722.6</ele>
        <time>2026-07-09T07:53:52.000Z</time>
      </trkpt>
      <trkpt lat="45.81698" lon="1.88516">
        <ele>722.1</ele>
        <time>2026-07-09T07:53:53.000Z</time>
      </trkpt>
      <trkpt lat="45.81698" lon="1.88513">
        <ele>722</ele>
        <time>2026-07-09T07:53:54.000Z</time>
      </trkpt>
      <trkpt lat="45.81698" lon="1.88511">
        <ele>721.4</ele>
        <time>2026-07-09T07:53:55.000Z</time>
      </trkpt>
      <trkpt lat="45.81698" lon="1.88509">
        <ele>721.1</ele>
        <time>2026-07-09T07:53:56.000Z</time>
      </trkpt>
      <trkpt lat="45.81697" lon="1.88507">
        <ele>720.8</ele>
        <time>2026-07-09T07:53:57.000Z</time>
      </trkpt>
      <trkpt lat="45.81697" lon="1.88504">
        <ele>720.5</ele>
        <time>2026-07-09T07:53:58.000Z</time>
      </trkpt>
      <trkpt lat="45.81696" lon="1.88503">
        <ele>719.4</ele>
        <time>2026-07-09T07:53:59.000Z</time>
      </trkpt>
      <trkpt lat="45.81696" lon="1.88501">
        <ele>718.9</ele>
        <time>2026-07-09T07:54:00.000Z</time>
      </trkpt>
      <trkpt lat="45.81696" lon="1.88499">
        <ele>718.5</ele>
        <time>2026-07-09T07:54:01.000Z</time>
      </trkpt>
      <trkpt lat="45.81697" lon="1.88498">
        <ele>718.6</ele>
        <time>2026-07-09T07:54:02.000Z</time>
      </trkpt>
      <trkpt lat="45.81698" lon="1.88496">
        <ele>718.8</ele>
        <time>2026-07-09T07:54:03.000Z</time>
      </trkpt>
      <trkpt lat="45.81699" lon="1.88496">
        <ele>719.1</ele>
        <time>2026-07-09T07:54:04.000Z</time>
      </trkpt>
      <trkpt lat="45.81699" lon="1.88497">
        <ele>719.5</ele>
        <time>2026-07-09T07:54:05.000Z</time>
      </trkpt>
      <trkpt lat="45.817" lon="1.88497">
        <ele>719.6</ele>
        <time>2026-07-09T07:54:06.000Z</time>
      </trkpt>
      <trkpt lat="45.817" lon="1.88497">
        <ele>719.7</ele>
        <time>2026-07-09T07:54:07.000Z</time>
      </trkpt>
      <trkpt lat="45.817" lon="1.88497">
        <ele>719.7</ele>
        <time>2026-07-09T07:54:08.000Z</time>
      </trkpt>
      <trkpt lat="45.817" lon="1.88497">
        <ele>719.7</ele>
        <time>2026-07-09T07:54:09.000Z</time>
      </trkpt>
      <trkpt lat="45.817" lon="1.88497">
        <ele>719.7</ele>
        <time>2026-07-09T07:54:10.000Z</time>
      </trkpt>
      <trkpt lat="45.817" lon="1.88497">
        <ele>719.4</ele>
        <time>2026-07-09T07:54:11.000Z</time>
      </trkpt>
      <trkpt lat="45.817" lon="1.88497">
        <ele>719.4</ele>
        <time>2026-07-09T07:54:12.000Z</time>
      </trkpt>
      <trkpt lat="45.817" lon="1.88497">
        <ele>719.5</ele>
        <time>2026-07-09T07:54:13.000Z</time>
      </trkpt>
      <trkpt lat="45.817" lon="1.88497">
        <ele>719.3</ele>
        <time>2026-07-09T07:54:14.000Z</time>
      </trkpt>
      <trkpt lat="45.817" lon="1.88497">
        <ele>719.3</ele>
        <time>2026-07-09T07:54:15.000Z</time>
      </trkpt>
      <trkpt lat="45.817" lon="1.88497">
        <ele>719.3</ele>
        <time>2026-07-09T07:54:16.000Z</time>
      </trkpt>
      <trkpt lat="45.817" lon="1.88497">
        <ele>719.3</ele>
        <time>2026-07-09T07:54:17.000Z</time>
      </trkpt>
      <trkpt lat="45.817" lon="1.88497">
        <ele>719.1</ele>
        <time>2026-07-09T07:54:18.000Z</time>
      </trkpt>
      <trkpt lat="45.817" lon="1.88497">
        <ele>719.1</ele>
        <time>2026-07-09T07:54:19.000Z</time>
      </trkpt>
      <trkpt lat="45.817" lon="1.88497">
        <ele>719.1</ele>
        <time>2026-07-09T07:54:20.000Z</time>
      </trkpt>
      <trkpt lat="45.817" lon="1.88497">
        <ele>719.1</ele>
        <time>2026-07-09T07:54:21.000Z</time>
      </trkpt>
      <trkpt lat="45.817" lon="1.88497">
        <ele>719.1</ele>
        <time>2026-07-09T07:54:22.000Z</time>
      </trkpt>
      <trkpt lat="45.817" lon="1.88497">
        <ele>719.1</ele>
        <time>2026-07-09T07:54:23.000Z</time>
      </trkpt>
      <trkpt lat="45.817" lon="1.88497">
        <ele>719.1</ele>
        <time>2026-07-09T07:54:24.000Z</time>
      </trkpt>
      <trkpt lat="45.817" lon="1.88497">
        <ele>719.1</ele>
        <time>2026-07-09T07:54:25.000Z</time>
      </trkpt>
      <trkpt lat="45.817" lon="1.88497">
        <ele>719.1</ele>
        <time>2026-07-09T07:54:26.000Z</time>
      </trkpt>
      <trkpt lat="45.817" lon="1.88497">
        <ele>719.1</ele>
        <time>2026-07-09T07:54:27.000Z</time>
      </trkpt>
      <trkpt lat="45.817" lon="1.88497">
        <ele>719.1</ele>
        <time>2026-07-09T07:54:28.000Z</time>
      </trkpt>
      <trkpt lat="45.817" lon="1.88497">
        <ele>719.1</ele>
        <time>2026-07-09T07:54:29.000Z</time>
      </trkpt>
      <trkpt lat="45.817" lon="1.88497">
        <ele>719.1</ele>
        <time>2026-07-09T07:54:30.000Z</time>
      </trkpt>
      <trkpt lat="45.817" lon="1.88497">
        <ele>719.1</ele>
        <time>2026-07-09T07:54:31.000Z</time>
      </trkpt>
      <trkpt lat="45.817" lon="1.88497">
        <ele>719.1</ele>
        <time>2026-07-09T07:54:32.000Z</time>
      </trkpt>
      <trkpt lat="45.817" lon="1.88497">
        <ele>719.1</ele>
        <time>2026-07-09T07:54:33.000Z</time>
      </trkpt>
      <trkpt lat="45.81701" lon="1.88497">
        <ele>718.9</ele>
        <time>2026-07-09T07:54:34.000Z</time>
      </trkpt>
      <trkpt lat="45.81701" lon="1.88496">
        <ele>719</ele>
        <time>2026-07-09T07:54:35.000Z</time>
      </trkpt>
      <trkpt lat="45.81702" lon="1.88495">
        <ele>718.8</ele>
        <time>2026-07-09T07:54:36.000Z</time>
      </trkpt>
      <trkpt lat="45.81703" lon="1.88494">
        <ele>718.7</ele>
        <time>2026-07-09T07:54:37.000Z</time>
      </trkpt>
      <trkpt lat="45.81704" lon="1.88494">
        <ele>718.6</ele>
        <time>2026-07-09T07:54:38.000Z</time>
      </trkpt>
      <trkpt lat="45.81705" lon="1.88494">
        <ele>718.4</ele>
        <time>2026-07-09T07:54:39.000Z</time>
      </trkpt>
      <trkpt lat="45.81705" lon="1.88494">
        <ele>718.9</ele>
        <time>2026-07-09T07:54:40.000Z</time>
      </trkpt>
      <trkpt lat="45.81706" lon="1.88494">
        <ele>718.8</ele>
        <time>2026-07-09T07:54:41.000Z</time>
      </trkpt>
      <trkpt lat="45.81706" lon="1.88494">
        <ele>718.9</ele>
        <time>2026-07-09T07:54:42.000Z</time>
      </trkpt>
      <trkpt lat="45.81707" lon="1.88494">
        <ele>718.3</ele>
        <time>2026-07-09T07:54:43.000Z</time>
      </trkpt>
      <trkpt lat="45.81708" lon="1.88494">
        <ele>718.3</ele>
        <time>2026-07-09T07:54:44.000Z</time>
      </trkpt>
      <trkpt lat="45.81709" lon="1.88494">
        <ele>718.3</ele>
        <time>2026-07-09T07:54:45.000Z</time>
      </trkpt>
      <trkpt lat="45.81709" lon="1.88494">
        <ele>718.3</ele>
        <time>2026-07-09T07:54:46.000Z</time>
      </trkpt>
      <trkpt lat="45.81709" lon="1.88493">
        <ele>718.2</ele>
        <time>2026-07-09T07:54:47.000Z</time>
      </trkpt>
      <trkpt lat="45.81709" lon="1.88493">
        <ele>718.2</ele>
        <time>2026-07-09T07:54:48.000Z</time>
      </trkpt>
      <trkpt lat="45.81709" lon="1.88493">
        <ele>718.2</ele>
        <time>2026-07-09T07:54:49.000Z</time>
      </trkpt>
      <trkpt lat="45.81709" lon="1.88493">
        <ele>718.2</ele>
        <time>2026-07-09T07:54:50.000Z</time>
      </trkpt>
      <trkpt lat="45.81709" lon="1.88493">
        <ele>718.2</ele>
        <time>2026-07-09T07:54:51.000Z</time>
      </trkpt>
      <trkpt lat="45.81709" lon="1.88493">
        <ele>718.2</ele>
        <time>2026-07-09T07:54:52.000Z</time>
      </trkpt>
      <trkpt lat="45.81709" lon="1.88493">
        <ele>718.2</ele>
        <time>2026-07-09T07:54:53.000Z</time>
      </trkpt>
      <trkpt lat="45.81709" lon="1.88493">
        <ele>718.2</ele>
        <time>2026-07-09T07:54:54.000Z</time>
      </trkpt>
      <trkpt lat="45.81709" lon="1.88493">
        <ele>718.2</ele>
        <time>2026-07-09T07:54:55.000Z</time>
      </trkpt>
      <trkpt lat="45.81709" lon="1.88493">
        <ele>718.2</ele>
        <time>2026-07-09T07:54:56.000Z</time>
      </trkpt>
      <trkpt lat="45.81709" lon="1.88493">
        <ele>718.2</ele>
        <time>2026-07-09T07:54:57.000Z</time>
      </trkpt>
      <trkpt lat="45.81709" lon="1.88493">
        <ele>718.2</ele>
        <time>2026-07-09T07:54:58.000Z</time>
      </trkpt>
      <trkpt lat="45.81709" lon="1.88493">
        <ele>718.2</ele>
        <time>2026-07-09T07:54:59.000Z</time>
      </trkpt>
      <trkpt lat="45.81709" lon="1.88493">
        <ele>718.2</ele>
        <time>2026-07-09T07:55:00.000Z</time>
      </trkpt>
      <trkpt lat="45.81709" lon="1.88493">
        <ele>718</ele>
        <time>2026-07-09T07:55:01.000Z</time>
      </trkpt>
      <trkpt lat="45.81709" lon="1.88493">
        <ele>718</ele>
        <time>2026-07-09T07:55:02.000Z</time>
      </trkpt>
      <trkpt lat="45.81709" lon="1.88493">
        <ele>718</ele>
        <time>2026-07-09T07:55:03.000Z</time>
      </trkpt>
      <trkpt lat="45.81709" lon="1.88493">
        <ele>718</ele>
        <time>2026-07-09T07:55:04.000Z</time>
      </trkpt>
      <trkpt lat="45.81709" lon="1.88493">
        <ele>717.6</ele>
        <time>2026-07-09T07:55:05.000Z</time>
      </trkpt>
      <trkpt lat="45.81709" lon="1.88493">
        <ele>717.6</ele>
        <time>2026-07-09T07:55:06.000Z</time>
      </trkpt>
      <trkpt lat="45.81709" lon="1.88493">
        <ele>717.6</ele>
        <time>2026-07-09T07:55:07.000Z</time>
      </trkpt>
      <trkpt lat="45.81709" lon="1.88493">
        <ele>717.6</ele>
        <time>2026-07-09T07:55:08.000Z</time>
      </trkpt>
      <trkpt lat="45.81709" lon="1.88493">
        <ele>717.6</ele>
        <time>2026-07-09T07:55:09.000Z</time>
      </trkpt>
      <trkpt lat="45.81709" lon="1.88493">
        <ele>717.6</ele>
        <time>2026-07-09T07:55:10.000Z</time>
      </trkpt>
      <trkpt lat="45.81709" lon="1.88493">
        <ele>717.6</ele>
        <time>2026-07-09T07:55:11.000Z</time>
      </trkpt>
      <trkpt lat="45.81709" lon="1.88493">
        <ele>717.6</ele>
        <time>2026-07-09T07:55:12.000Z</time>
      </trkpt>
      <trkpt lat="45.81709" lon="1.88493">
        <ele>717.6</ele>
        <time>2026-07-09T07:55:13.000Z</time>
      </trkpt>
      <trkpt lat="45.81709" lon="1.88493">
        <ele>717.6</ele>
        <time>2026-07-09T07:55:14.000Z</time>
      </trkpt>
      <trkpt lat="45.81709" lon="1.88493">
        <ele>717.6</ele>
        <time>2026-07-09T07:55:15.000Z</time>
      </trkpt>
      <trkpt lat="45.81709" lon="1.88493">
        <ele>717.6</ele>
        <time>2026-07-09T07:55:16.000Z</time>
      </trkpt>
      <trkpt lat="45.81709" lon="1.88493">
        <ele>717.6</ele>
        <time>2026-07-09T07:55:17.000Z</time>
      </trkpt>
      <trkpt lat="45.81709" lon="1.88493">
        <ele>717.6</ele>
        <time>2026-07-09T07:55:18.000Z</time>
      </trkpt>
      <trkpt lat="45.81709" lon="1.88493">
        <ele>717.6</ele>
        <time>2026-07-09T07:55:19.000Z</time>
      </trkpt>
      <trkpt lat="45.81709" lon="1.88493">
        <ele>717.6</ele>
        <time>2026-07-09T07:55:20.000Z</time>
      </trkpt>
      <trkpt lat="45.81709" lon="1.88493">
        <ele>717.6</ele>
        <time>2026-07-09T07:55:21.000Z</time>
      </trkpt>
      <trkpt lat="45.81709" lon="1.88493">
        <ele>717.6</ele>
        <time>2026-07-09T07:55:22.000Z</time>
      </trkpt>
      <trkpt lat="45.81709" lon="1.88493">
        <ele>717.6</ele>
        <time>2026-07-09T07:55:23.000Z</time>
      </trkpt>
      <trkpt lat="45.81709" lon="1.88492">
        <ele>717.8</ele>
        <time>2026-07-09T07:55:24.000Z</time>
      </trkpt>
      <trkpt lat="45.81709" lon="1.88492">
        <ele>717.8</ele>
        <time>2026-07-09T07:55:25.000Z</time>
      </trkpt>
      <trkpt lat="45.81709" lon="1.88492">
        <ele>717.8</ele>
        <time>2026-07-09T07:55:26.000Z</time>
      </trkpt>
      <trkpt lat="45.81709" lon="1.88492">
        <ele>717.8</ele>
        <time>2026-07-09T07:55:27.000Z</time>
      </trkpt>
      <trkpt lat="45.81709" lon="1.88492">
        <ele>717.8</ele>
        <time>2026-07-09T07:55:28.000Z</time>
      </trkpt>
      <trkpt lat="45.81709" lon="1.88492">
        <ele>717.8</ele>
        <time>2026-07-09T07:55:29.000Z</time>
      </trkpt>
      <trkpt lat="45.81709" lon="1.88492">
        <ele>717.9</ele>
        <time>2026-07-09T07:55:30.000Z</time>
      </trkpt>
      <trkpt lat="45.81709" lon="1.88492">
        <ele>717.9</ele>
        <time>2026-07-09T07:55:31.000Z</time>
      </trkpt>
      <trkpt lat="45.81709" lon="1.88492">
        <ele>717.9</ele>
        <time>2026-07-09T07:55:32.000Z</time>
      </trkpt>
      <trkpt lat="45.81709" lon="1.88492">
        <ele>717.9</ele>
        <time>2026-07-09T07:55:33.000Z</time>
      </trkpt>
      <trkpt lat="45.81709" lon="1.88492">
        <ele>717.9</ele>
        <time>2026-07-09T07:55:34.000Z</time>
      </trkpt>
      <trkpt lat="45.81709" lon="1.88492">
        <ele>717.9</ele>
        <time>2026-07-09T07:55:35.000Z</time>
      </trkpt>
      <trkpt lat="45.81709" lon="1.88492">
        <ele>717.9</ele>
        <time>2026-07-09T07:55:36.000Z</time>
      </trkpt>
      <trkpt lat="45.8171" lon="1.88493">
        <ele>717.6</ele>
        <time>2026-07-09T07:55:37.000Z</time>
      </trkpt>
      <trkpt lat="45.8171" lon="1.88492">
        <ele>717.5</ele>
        <time>2026-07-09T07:55:38.000Z</time>
      </trkpt>
      <trkpt lat="45.8171" lon="1.88492">
        <ele>717.5</ele>
        <time>2026-07-09T07:55:39.000Z</time>
      </trkpt>
      <trkpt lat="45.8171" lon="1.88492">
        <ele>717.5</ele>
        <time>2026-07-09T07:55:40.000Z</time>
      </trkpt>
      <trkpt lat="45.8171" lon="1.88492">
        <ele>717.4</ele>
        <time>2026-07-09T07:55:41.000Z</time>
      </trkpt>
      <trkpt lat="45.8171" lon="1.88492">
        <ele>717.4</ele>
        <time>2026-07-09T07:55:42.000Z</time>
      </trkpt>
      <trkpt lat="45.8171" lon="1.88492">
        <ele>717.4</ele>
        <time>2026-07-09T07:55:43.000Z</time>
      </trkpt>
      <trkpt lat="45.8171" lon="1.88492">
        <ele>717.4</ele>
        <time>2026-07-09T07:55:44.000Z</time>
      </trkpt>
      <trkpt lat="45.8171" lon="1.88492">
        <ele>717.4</ele>
        <time>2026-07-09T07:55:45.000Z</time>
      </trkpt>
      <trkpt lat="45.8171" lon="1.88492">
        <ele>717.4</ele>
        <time>2026-07-09T07:55:46.000Z</time>
      </trkpt>
      <trkpt lat="45.8171" lon="1.88492">
        <ele>717.4</ele>
        <time>2026-07-09T07:55:47.000Z</time>
      </trkpt>
      <trkpt lat="45.8171" lon="1.88492">
        <ele>717.4</ele>
        <time>2026-07-09T07:55:48.000Z</time>
      </trkpt>
      <trkpt lat="45.8171" lon="1.88492">
        <ele>717.4</ele>
        <time>2026-07-09T07:55:49.000Z</time>
      </trkpt>
      <trkpt lat="45.8171" lon="1.88492">
        <ele>717.4</ele>
        <time>2026-07-09T07:55:50.000Z</time>
      </trkpt>
      <trkpt lat="45.8171" lon="1.88492">
        <ele>717.4</ele>
        <time>2026-07-09T07:55:51.000Z</time>
      </trkpt>
      <trkpt lat="45.8171" lon="1.88492">
        <ele>717.3</ele>
        <time>2026-07-09T07:55:52.000Z</time>
      </trkpt>
      <trkpt lat="45.8171" lon="1.88492">
        <ele>717.3</ele>
        <time>2026-07-09T07:55:53.000Z</time>
      </trkpt>
      <trkpt lat="45.8171" lon="1.88492">
        <ele>717.3</ele>
        <time>2026-07-09T07:55:54.000Z</time>
      </trkpt>
      <trkpt lat="45.8171" lon="1.88492">
        <ele>717.3</ele>
        <time>2026-07-09T07:55:55.000Z</time>
      </trkpt>
      <trkpt lat="45.8171" lon="1.88492">
        <ele>717.3</ele>
        <time>2026-07-09T07:55:56.000Z</time>
      </trkpt>
      <trkpt lat="45.8171" lon="1.88492">
        <ele>717.3</ele>
        <time>2026-07-09T07:55:57.000Z</time>
      </trkpt>
      <trkpt lat="45.81711" lon="1.88492">
        <ele>717.3</ele>
        <time>2026-07-09T07:55:58.000Z</time>
      </trkpt>
      <trkpt lat="45.81711" lon="1.88492">
        <ele>717.4</ele>
        <time>2026-07-09T07:55:59.000Z</time>
      </trkpt>
      <trkpt lat="45.81711" lon="1.88492">
        <ele>717.4</ele>
        <time>2026-07-09T07:56:00.000Z</time>
      </trkpt>
      <trkpt lat="45.81711" lon="1.88492">
        <ele>717.4</ele>
        <time>2026-07-09T07:56:01.000Z</time>
      </trkpt>
      <trkpt lat="45.81711" lon="1.88492">
        <ele>717.4</ele>
        <time>2026-07-09T07:56:02.000Z</time>
      </trkpt>
      <trkpt lat="45.81711" lon="1.88492">
        <ele>717.4</ele>
        <time>2026-07-09T07:56:03.000Z</time>
      </trkpt>
      <trkpt lat="45.81711" lon="1.88492">
        <ele>717.4</ele>
        <time>2026-07-09T07:56:04.000Z</time>
      </trkpt>
      <trkpt lat="45.81711" lon="1.88492">
        <ele>717.2</ele>
        <time>2026-07-09T07:56:05.000Z</time>
      </trkpt>
      <trkpt lat="45.81711" lon="1.88492">
        <ele>717.2</ele>
        <time>2026-07-09T07:56:06.000Z</time>
      </trkpt>
      <trkpt lat="45.81711" lon="1.88492">
        <ele>717.2</ele>
        <time>2026-07-09T07:56:07.000Z</time>
      </trkpt>
      <trkpt lat="45.81711" lon="1.88492">
        <ele>717.2</ele>
        <time>2026-07-09T07:56:08.000Z</time>
      </trkpt>
      <trkpt lat="45.81711" lon="1.88492">
        <ele>717.2</ele>
        <time>2026-07-09T07:56:09.000Z</time>
      </trkpt>
      <trkpt lat="45.81711" lon="1.88491">
        <ele>717.3</ele>
        <time>2026-07-09T07:56:10.000Z</time>
      </trkpt>
      <trkpt lat="45.81712" lon="1.8849">
        <ele>717.1</ele>
        <time>2026-07-09T07:56:11.000Z</time>
      </trkpt>
      <trkpt lat="45.81713" lon="1.88489">
        <ele>717</ele>
        <time>2026-07-09T07:56:12.000Z</time>
      </trkpt>
      <trkpt lat="45.81714" lon="1.88488">
        <ele>716.8</ele>
        <time>2026-07-09T07:56:13.000Z</time>
      </trkpt>
      <trkpt lat="45.81715" lon="1.88487">
        <ele>716.9</ele>
        <time>2026-07-09T07:56:14.000Z</time>
      </trkpt>
      <trkpt lat="45.81716" lon="1.88486">
        <ele>717.1</ele>
        <time>2026-07-09T07:56:15.000Z</time>
      </trkpt>
      <trkpt lat="45.81717" lon="1.88485">
        <ele>717.2</ele>
        <time>2026-07-09T07:56:16.000Z</time>
      </trkpt>
      <trkpt lat="45.81718" lon="1.88485">
        <ele>717.8</ele>
        <time>2026-07-09T07:56:17.000Z</time>
      </trkpt>
      <trkpt lat="45.81718" lon="1.88484">
        <ele>718.1</ele>
        <time>2026-07-09T07:56:18.000Z</time>
      </trkpt>
      <trkpt lat="45.81719" lon="1.88482">
        <ele>718.7</ele>
        <time>2026-07-09T07:56:19.000Z</time>
      </trkpt>
      <trkpt lat="45.81719" lon="1.88481">
        <ele>719.2</ele>
        <time>2026-07-09T07:56:20.000Z</time>
      </trkpt>
      <trkpt lat="45.8172" lon="1.8848">
        <ele>719.3</ele>
        <time>2026-07-09T07:56:21.000Z</time>
      </trkpt>
      <trkpt lat="45.81721" lon="1.88479">
        <ele>719.3</ele>
        <time>2026-07-09T07:56:22.000Z</time>
      </trkpt>
      <trkpt lat="45.81722" lon="1.88478">
        <ele>719.7</ele>
        <time>2026-07-09T07:56:23.000Z</time>
      </trkpt>
      <trkpt lat="45.81723" lon="1.88476">
        <ele>719.7</ele>
        <time>2026-07-09T07:56:24.000Z</time>
      </trkpt>
      <trkpt lat="45.81724" lon="1.88475">
        <ele>720.1</ele>
        <time>2026-07-09T07:56:25.000Z</time>
      </trkpt>
      <trkpt lat="45.81725" lon="1.88473">
        <ele>720.4</ele>
        <time>2026-07-09T07:56:26.000Z</time>
      </trkpt>
      <trkpt lat="45.81726" lon="1.88472">
        <ele>720.4</ele>
        <time>2026-07-09T07:56:27.000Z</time>
      </trkpt>
      <trkpt lat="45.81727" lon="1.8847">
        <ele>720.7</ele>
        <time>2026-07-09T07:56:28.000Z</time>
      </trkpt>
      <trkpt lat="45.81729" lon="1.88468">
        <ele>721.5</ele>
        <time>2026-07-09T07:56:29.000Z</time>
      </trkpt>
      <trkpt lat="45.8173" lon="1.88466">
        <ele>721.9</ele>
        <time>2026-07-09T07:56:30.000Z</time>
      </trkpt>
      <trkpt lat="45.81731" lon="1.88465">
        <ele>722.5</ele>
        <time>2026-07-09T07:56:31.000Z</time>
      </trkpt>
      <trkpt lat="45.81731" lon="1.88464">
        <ele>722.3</ele>
        <time>2026-07-09T07:56:32.000Z</time>
      </trkpt>
      <trkpt lat="45.81732" lon="1.88463">
        <ele>721.6</ele>
        <time>2026-07-09T07:56:33.000Z</time>
      </trkpt>
      <trkpt lat="45.81733" lon="1.88463">
        <ele>721.5</ele>
        <time>2026-07-09T07:56:34.000Z</time>
      </trkpt>
      <trkpt lat="45.81734" lon="1.88462">
        <ele>721.6</ele>
        <time>2026-07-09T07:56:35.000Z</time>
      </trkpt>
      <trkpt lat="45.81735" lon="1.88462">
        <ele>721.7</ele>
        <time>2026-07-09T07:56:36.000Z</time>
      </trkpt>
      <trkpt lat="45.81734" lon="1.88462">
        <ele>720.8</ele>
        <time>2026-07-09T07:56:37.000Z</time>
      </trkpt>
      <trkpt lat="45.81734" lon="1.88462">
        <ele>720.8</ele>
        <time>2026-07-09T07:56:38.000Z</time>
      </trkpt>
      <trkpt lat="45.81735" lon="1.88461">
        <ele>720.8</ele>
        <time>2026-07-09T07:56:39.000Z</time>
      </trkpt>
      <trkpt lat="45.81735" lon="1.88461">
        <ele>720.5</ele>
        <time>2026-07-09T07:56:40.000Z</time>
      </trkpt>
      <trkpt lat="45.81736" lon="1.88461">
        <ele>719.5</ele>
        <time>2026-07-09T07:56:41.000Z</time>
      </trkpt>
      <trkpt lat="45.81737" lon="1.88461">
        <ele>719.4</ele>
        <time>2026-07-09T07:56:42.000Z</time>
      </trkpt>
      <trkpt lat="45.81737" lon="1.8846">
        <ele>718.5</ele>
        <time>2026-07-09T07:56:43.000Z</time>
      </trkpt>
      <trkpt lat="45.81738" lon="1.88459">
        <ele>718.7</ele>
        <time>2026-07-09T07:56:44.000Z</time>
      </trkpt>
      <trkpt lat="45.81739" lon="1.88458">
        <ele>718.1</ele>
        <time>2026-07-09T07:56:45.000Z</time>
      </trkpt>
      <trkpt lat="45.81739" lon="1.88457">
        <ele>717.4</ele>
        <time>2026-07-09T07:56:46.000Z</time>
      </trkpt>
      <trkpt lat="45.8174" lon="1.88455">
        <ele>717</ele>
        <time>2026-07-09T07:56:47.000Z</time>
      </trkpt>
      <trkpt lat="45.8174" lon="1.88454">
        <ele>716.6</ele>
        <time>2026-07-09T07:56:48.000Z</time>
      </trkpt>
      <trkpt lat="45.81741" lon="1.88453">
        <ele>716</ele>
        <time>2026-07-09T07:56:49.000Z</time>
      </trkpt>
      <trkpt lat="45.81741" lon="1.88451">
        <ele>715.7</ele>
        <time>2026-07-09T07:56:50.000Z</time>
      </trkpt>
      <trkpt lat="45.81742" lon="1.88449">
        <ele>715.6</ele>
        <time>2026-07-09T07:56:51.000Z</time>
      </trkpt>
      <trkpt lat="45.81743" lon="1.88448">
        <ele>715.6</ele>
        <time>2026-07-09T07:56:52.000Z</time>
      </trkpt>
      <trkpt lat="45.81743" lon="1.88446">
        <ele>715.3</ele>
        <time>2026-07-09T07:56:53.000Z</time>
      </trkpt>
      <trkpt lat="45.81744" lon="1.88444">
        <ele>715</ele>
        <time>2026-07-09T07:56:54.000Z</time>
      </trkpt>
      <trkpt lat="45.81745" lon="1.88443">
        <ele>715.4</ele>
        <time>2026-07-09T07:56:55.000Z</time>
      </trkpt>
      <trkpt lat="45.81745" lon="1.88441">
        <ele>715.1</ele>
        <time>2026-07-09T07:56:56.000Z</time>
      </trkpt>
      <trkpt lat="45.81746" lon="1.8844">
        <ele>714.4</ele>
        <time>2026-07-09T07:56:57.000Z</time>
      </trkpt>
      <trkpt lat="45.81747" lon="1.88438">
        <ele>714.2</ele>
        <time>2026-07-09T07:56:58.000Z</time>
      </trkpt>
      <trkpt lat="45.81748" lon="1.88437">
        <ele>713.9</ele>
        <time>2026-07-09T07:56:59.000Z</time>
      </trkpt>
      <trkpt lat="45.81748" lon="1.88435">
        <ele>713.8</ele>
        <time>2026-07-09T07:57:00.000Z</time>
      </trkpt>
      <trkpt lat="45.81749" lon="1.88434">
        <ele>713.5</ele>
        <time>2026-07-09T07:57:01.000Z</time>
      </trkpt>
      <trkpt lat="45.8175" lon="1.88432">
        <ele>713.7</ele>
        <time>2026-07-09T07:57:02.000Z</time>
      </trkpt>
      <trkpt lat="45.81751" lon="1.88431">
        <ele>713.1</ele>
        <time>2026-07-09T07:57:03.000Z</time>
      </trkpt>
      <trkpt lat="45.81752" lon="1.88429">
        <ele>712.6</ele>
        <time>2026-07-09T07:57:04.000Z</time>
      </trkpt>
      <trkpt lat="45.81754" lon="1.88428">
        <ele>711.6</ele>
        <time>2026-07-09T07:57:05.000Z</time>
      </trkpt>
      <trkpt lat="45.81755" lon="1.88426">
        <ele>711.2</ele>
        <time>2026-07-09T07:57:06.000Z</time>
      </trkpt>
      <trkpt lat="45.81756" lon="1.88424">
        <ele>711.5</ele>
        <time>2026-07-09T07:57:07.000Z</time>
      </trkpt>
      <trkpt lat="45.81757" lon="1.88422">
        <ele>711.8</ele>
        <time>2026-07-09T07:57:08.000Z</time>
      </trkpt>
      <trkpt lat="45.81758" lon="1.8842">
        <ele>712.5</ele>
        <time>2026-07-09T07:57:09.000Z</time>
      </trkpt>
      <trkpt lat="45.81759" lon="1.88417">
        <ele>712.9</ele>
        <time>2026-07-09T07:57:10.000Z</time>
      </trkpt>
      <trkpt lat="45.8176" lon="1.88415">
        <ele>713.6</ele>
        <time>2026-07-09T07:57:11.000Z</time>
      </trkpt>
      <trkpt lat="45.81762" lon="1.88413">
        <ele>713.4</ele>
        <time>2026-07-09T07:57:12.000Z</time>
      </trkpt>
      <trkpt lat="45.81763" lon="1.88411">
        <ele>712.9</ele>
        <time>2026-07-09T07:57:13.000Z</time>
      </trkpt>
      <trkpt lat="45.81764" lon="1.88409">
        <ele>712.6</ele>
        <time>2026-07-09T07:57:14.000Z</time>
      </trkpt>
      <trkpt lat="45.81766" lon="1.88406">
        <ele>713.3</ele>
        <time>2026-07-09T07:57:15.000Z</time>
      </trkpt>
      <trkpt lat="45.81768" lon="1.88404">
        <ele>714.6</ele>
        <time>2026-07-09T07:57:16.000Z</time>
      </trkpt>
      <trkpt lat="45.8177" lon="1.88401">
        <ele>715.1</ele>
        <time>2026-07-09T07:57:17.000Z</time>
      </trkpt>
      <trkpt lat="45.81771" lon="1.88399">
        <ele>715.3</ele>
        <time>2026-07-09T07:57:18.000Z</time>
      </trkpt>
      <trkpt lat="45.81772" lon="1.88396">
        <ele>715.5</ele>
        <time>2026-07-09T07:57:19.000Z</time>
      </trkpt>
      <trkpt lat="45.81773" lon="1.88394">
        <ele>715.5</ele>
        <time>2026-07-09T07:57:20.000Z</time>
      </trkpt>
      <trkpt lat="45.81774" lon="1.88392">
        <ele>715.8</ele>
        <time>2026-07-09T07:57:21.000Z</time>
      </trkpt>
      <trkpt lat="45.81775" lon="1.88389">
        <ele>715.8</ele>
        <time>2026-07-09T07:57:22.000Z</time>
      </trkpt>
      <trkpt lat="45.81776" lon="1.88387">
        <ele>716.1</ele>
        <time>2026-07-09T07:57:23.000Z</time>
      </trkpt>
      <trkpt lat="45.81778" lon="1.88385">
        <ele>716.4</ele>
        <time>2026-07-09T07:57:24.000Z</time>
      </trkpt>
      <trkpt lat="45.81779" lon="1.88383">
        <ele>716.2</ele>
        <time>2026-07-09T07:57:25.000Z</time>
      </trkpt>
      <trkpt lat="45.8178" lon="1.88381">
        <ele>716.7</ele>
        <time>2026-07-09T07:57:26.000Z</time>
      </trkpt>
      <trkpt lat="45.81781" lon="1.88379">
        <ele>716.8</ele>
        <time>2026-07-09T07:57:27.000Z</time>
      </trkpt>
      <trkpt lat="45.81782" lon="1.88377">
        <ele>716.6</ele>
        <time>2026-07-09T07:57:28.000Z</time>
      </trkpt>
      <trkpt lat="45.81783" lon="1.88375">
        <ele>716.6</ele>
        <time>2026-07-09T07:57:29.000Z</time>
      </trkpt>
      <trkpt lat="45.81784" lon="1.88373">
        <ele>717.8</ele>
        <time>2026-07-09T07:57:30.000Z</time>
      </trkpt>
      <trkpt lat="45.81786" lon="1.88371">
        <ele>718</ele>
        <time>2026-07-09T07:57:31.000Z</time>
      </trkpt>
      <trkpt lat="45.81787" lon="1.88369">
        <ele>717.7</ele>
        <time>2026-07-09T07:57:32.000Z</time>
      </trkpt>
      <trkpt lat="45.81789" lon="1.88367">
        <ele>717.9</ele>
        <time>2026-07-09T07:57:33.000Z</time>
      </trkpt>
      <trkpt lat="45.81789" lon="1.88364">
        <ele>718.3</ele>
        <time>2026-07-09T07:57:34.000Z</time>
      </trkpt>
      <trkpt lat="45.8179" lon="1.88362">
        <ele>719.1</ele>
        <time>2026-07-09T07:57:35.000Z</time>
      </trkpt>
      <trkpt lat="45.81792" lon="1.8836">
        <ele>718.3</ele>
        <time>2026-07-09T07:57:36.000Z</time>
      </trkpt>
      <trkpt lat="45.81793" lon="1.88358">
        <ele>717.9</ele>
        <time>2026-07-09T07:57:37.000Z</time>
      </trkpt>
      <trkpt lat="45.81794" lon="1.88356">
        <ele>718.3</ele>
        <time>2026-07-09T07:57:38.000Z</time>
      </trkpt>
      <trkpt lat="45.81795" lon="1.88353">
        <ele>718.5</ele>
        <time>2026-07-09T07:57:39.000Z</time>
      </trkpt>
      <trkpt lat="45.81797" lon="1.8835">
        <ele>719.5</ele>
        <time>2026-07-09T07:57:40.000Z</time>
      </trkpt>
      <trkpt lat="45.81798" lon="1.88348">
        <ele>720.3</ele>
        <time>2026-07-09T07:57:41.000Z</time>
      </trkpt>
      <trkpt lat="45.81799" lon="1.88345">
        <ele>719.5</ele>
        <time>2026-07-09T07:57:42.000Z</time>
      </trkpt>
      <trkpt lat="45.818" lon="1.88342">
        <ele>719.2</ele>
        <time>2026-07-09T07:57:43.000Z</time>
      </trkpt>
      <trkpt lat="45.81802" lon="1.8834">
        <ele>719.9</ele>
        <time>2026-07-09T07:57:44.000Z</time>
      </trkpt>
      <trkpt lat="45.81803" lon="1.88337">
        <ele>719.9</ele>
        <time>2026-07-09T07:57:45.000Z</time>
      </trkpt>
      <trkpt lat="45.81805" lon="1.88336">
        <ele>720.2</ele>
        <time>2026-07-09T07:57:46.000Z</time>
      </trkpt>
      <trkpt lat="45.81806" lon="1.88334">
        <ele>720</ele>
        <time>2026-07-09T07:57:47.000Z</time>
      </trkpt>
      <trkpt lat="45.81807" lon="1.88331">
        <ele>720.1</ele>
        <time>2026-07-09T07:57:48.000Z</time>
      </trkpt>
      <trkpt lat="45.81808" lon="1.88328">
        <ele>721.2</ele>
        <time>2026-07-09T07:57:49.000Z</time>
      </trkpt>
      <trkpt lat="45.81809" lon="1.88327">
        <ele>722.6</ele>
        <time>2026-07-09T07:57:50.000Z</time>
      </trkpt>
      <trkpt lat="45.8181" lon="1.88325">
        <ele>722.3</ele>
        <time>2026-07-09T07:57:51.000Z</time>
      </trkpt>
      <trkpt lat="45.81811" lon="1.88324">
        <ele>722.4</ele>
        <time>2026-07-09T07:57:52.000Z</time>
      </trkpt>
      <trkpt lat="45.81812" lon="1.88322">
        <ele>723</ele>
        <time>2026-07-09T07:57:53.000Z</time>
      </trkpt>
      <trkpt lat="45.81813" lon="1.8832">
        <ele>723</ele>
        <time>2026-07-09T07:57:54.000Z</time>
      </trkpt>
      <trkpt lat="45.81814" lon="1.88318">
        <ele>722.2</ele>
        <time>2026-07-09T07:57:55.000Z</time>
      </trkpt>
      <trkpt lat="45.81815" lon="1.88316">
        <ele>722.1</ele>
        <time>2026-07-09T07:57:56.000Z</time>
      </trkpt>
      <trkpt lat="45.81816" lon="1.88315">
        <ele>722.1</ele>
        <time>2026-07-09T07:57:57.000Z</time>
      </trkpt>
      <trkpt lat="45.81817" lon="1.88312">
        <ele>723</ele>
        <time>2026-07-09T07:57:58.000Z</time>
      </trkpt>
      <trkpt lat="45.81818" lon="1.8831">
        <ele>723</ele>
        <time>2026-07-09T07:57:59.000Z</time>
      </trkpt>
      <trkpt lat="45.81819" lon="1.88308">
        <ele>723</ele>
        <time>2026-07-09T07:58:00.000Z</time>
      </trkpt>
      <trkpt lat="45.8182" lon="1.88306">
        <ele>722.3</ele>
        <time>2026-07-09T07:58:01.000Z</time>
      </trkpt>
      <trkpt lat="45.81821" lon="1.88305">
        <ele>722.2</ele>
        <time>2026-07-09T07:58:02.000Z</time>
      </trkpt>
      <trkpt lat="45.81821" lon="1.88303">
        <ele>723.2</ele>
        <time>2026-07-09T07:58:03.000Z</time>
      </trkpt>
      <trkpt lat="45.81822" lon="1.88301">
        <ele>723.2</ele>
        <time>2026-07-09T07:58:04.000Z</time>
      </trkpt>
      <trkpt lat="45.81822" lon="1.88299">
        <ele>723.1</ele>
        <time>2026-07-09T07:58:05.000Z</time>
      </trkpt>
      <trkpt lat="45.81823" lon="1.88298">
        <ele>724.2</ele>
        <time>2026-07-09T07:58:06.000Z</time>
      </trkpt>
      <trkpt lat="45.81824" lon="1.88297">
        <ele>724.6</ele>
        <time>2026-07-09T07:58:07.000Z</time>
      </trkpt>
      <trkpt lat="45.81825" lon="1.88295">
        <ele>724.5</ele>
        <time>2026-07-09T07:58:08.000Z</time>
      </trkpt>
      <trkpt lat="45.81826" lon="1.88294">
        <ele>724.6</ele>
        <time>2026-07-09T07:58:09.000Z</time>
      </trkpt>
      <trkpt lat="45.81827" lon="1.88293">
        <ele>724.1</ele>
        <time>2026-07-09T07:58:10.000Z</time>
      </trkpt>
      <trkpt lat="45.81828" lon="1.88291">
        <ele>722.6</ele>
        <time>2026-07-09T07:58:11.000Z</time>
      </trkpt>
      <trkpt lat="45.81827" lon="1.88288">
        <ele>721.2</ele>
        <time>2026-07-09T07:58:12.000Z</time>
      </trkpt>
      <trkpt lat="45.81827" lon="1.88285">
        <ele>721.6</ele>
        <time>2026-07-09T07:58:13.000Z</time>
      </trkpt>
      <trkpt lat="45.81827" lon="1.88284">
        <ele>722.5</ele>
        <time>2026-07-09T07:58:14.000Z</time>
      </trkpt>
      <trkpt lat="45.81826" lon="1.88282">
        <ele>722</ele>
        <time>2026-07-09T07:58:15.000Z</time>
      </trkpt>
      <trkpt lat="45.81826" lon="1.8828">
        <ele>722</ele>
        <time>2026-07-09T07:58:16.000Z</time>
      </trkpt>
      <trkpt lat="45.81827" lon="1.88278">
        <ele>721.4</ele>
        <time>2026-07-09T07:58:17.000Z</time>
      </trkpt>
      <trkpt lat="45.81827" lon="1.88276">
        <ele>721.7</ele>
        <time>2026-07-09T07:58:18.000Z</time>
      </trkpt>
      <trkpt lat="45.81827" lon="1.88274">
        <ele>720.2</ele>
        <time>2026-07-09T07:58:19.000Z</time>
      </trkpt>
      <trkpt lat="45.81827" lon="1.88273">
        <ele>719.4</ele>
        <time>2026-07-09T07:58:20.000Z</time>
      </trkpt>
      <trkpt lat="45.81827" lon="1.88271">
        <ele>719.1</ele>
        <time>2026-07-09T07:58:21.000Z</time>
      </trkpt>
      <trkpt lat="45.81828" lon="1.88269">
        <ele>718.8</ele>
        <time>2026-07-09T07:58:22.000Z</time>
      </trkpt>
      <trkpt lat="45.81828" lon="1.88267">
        <ele>720.3</ele>
        <time>2026-07-09T07:58:23.000Z</time>
      </trkpt>
      <trkpt lat="45.81828" lon="1.88265">
        <ele>720.1</ele>
        <time>2026-07-09T07:58:24.000Z</time>
      </trkpt>
      <trkpt lat="45.81829" lon="1.88263">
        <ele>719.7</ele>
        <time>2026-07-09T07:58:25.000Z</time>
      </trkpt>
      <trkpt lat="45.81829" lon="1.88261">
        <ele>718.7</ele>
        <time>2026-07-09T07:58:26.000Z</time>
      </trkpt>
      <trkpt lat="45.8183" lon="1.88259">
        <ele>718.8</ele>
        <time>2026-07-09T07:58:27.000Z</time>
      </trkpt>
      <trkpt lat="45.8183" lon="1.88257">
        <ele>719.4</ele>
        <time>2026-07-09T07:58:28.000Z</time>
      </trkpt>
      <trkpt lat="45.8183" lon="1.88255">
        <ele>719.5</ele>
        <time>2026-07-09T07:58:29.000Z</time>
      </trkpt>
      <trkpt lat="45.81831" lon="1.88253">
        <ele>720.6</ele>
        <time>2026-07-09T07:58:30.000Z</time>
      </trkpt>
      <trkpt lat="45.81832" lon="1.88252">
        <ele>721.6</ele>
        <time>2026-07-09T07:58:31.000Z</time>
      </trkpt>
      <trkpt lat="45.81832" lon="1.8825">
        <ele>722.4</ele>
        <time>2026-07-09T07:58:32.000Z</time>
      </trkpt>
      <trkpt lat="45.81832" lon="1.88248">
        <ele>722.5</ele>
        <time>2026-07-09T07:58:33.000Z</time>
      </trkpt>
      <trkpt lat="45.81833" lon="1.88246">
        <ele>722.2</ele>
        <time>2026-07-09T07:58:34.000Z</time>
      </trkpt>
      <trkpt lat="45.81834" lon="1.88243">
        <ele>721.5</ele>
        <time>2026-07-09T07:58:35.000Z</time>
      </trkpt>
      <trkpt lat="45.81834" lon="1.88241">
        <ele>720.6</ele>
        <time>2026-07-09T07:58:36.000Z</time>
      </trkpt>
      <trkpt lat="45.81836" lon="1.88239">
        <ele>721</ele>
        <time>2026-07-09T07:58:37.000Z</time>
      </trkpt>
      <trkpt lat="45.81837" lon="1.88236">
        <ele>719.9</ele>
        <time>2026-07-09T07:58:38.000Z</time>
      </trkpt>
      <trkpt lat="45.81837" lon="1.88234">
        <ele>720.1</ele>
        <time>2026-07-09T07:58:39.000Z</time>
      </trkpt>
      <trkpt lat="45.81837" lon="1.88232">
        <ele>720</ele>
        <time>2026-07-09T07:58:40.000Z</time>
      </trkpt>
      <trkpt lat="45.81837" lon="1.88229">
        <ele>719.6</ele>
        <time>2026-07-09T07:58:41.000Z</time>
      </trkpt>
      <trkpt lat="45.81838" lon="1.88227">
        <ele>718.6</ele>
        <time>2026-07-09T07:58:42.000Z</time>
      </trkpt>
      <trkpt lat="45.81838" lon="1.88225">
        <ele>718</ele>
        <time>2026-07-09T07:58:43.000Z</time>
      </trkpt>
      <trkpt lat="45.81838" lon="1.88223">
        <ele>717.2</ele>
        <time>2026-07-09T07:58:44.000Z</time>
      </trkpt>
      <trkpt lat="45.81838" lon="1.88221">
        <ele>716.4</ele>
        <time>2026-07-09T07:58:45.000Z</time>
      </trkpt>
      <trkpt lat="45.81838" lon="1.88219">
        <ele>715.9</ele>
        <time>2026-07-09T07:58:46.000Z</time>
      </trkpt>
      <trkpt lat="45.81839" lon="1.88217">
        <ele>715.4</ele>
        <time>2026-07-09T07:58:47.000Z</time>
      </trkpt>
      <trkpt lat="45.81839" lon="1.88215">
        <ele>714.8</ele>
        <time>2026-07-09T07:58:48.000Z</time>
      </trkpt>
      <trkpt lat="45.81838" lon="1.88212">
        <ele>714.5</ele>
        <time>2026-07-09T07:58:49.000Z</time>
      </trkpt>
      <trkpt lat="45.81838" lon="1.8821">
        <ele>714.1</ele>
        <time>2026-07-09T07:58:50.000Z</time>
      </trkpt>
      <trkpt lat="45.81838" lon="1.88208">
        <ele>714.7</ele>
        <time>2026-07-09T07:58:51.000Z</time>
      </trkpt>
      <trkpt lat="45.81838" lon="1.88205">
        <ele>714.8</ele>
        <time>2026-07-09T07:58:52.000Z</time>
      </trkpt>
      <trkpt lat="45.81837" lon="1.88203">
        <ele>714.7</ele>
        <time>2026-07-09T07:58:53.000Z</time>
      </trkpt>
      <trkpt lat="45.81837" lon="1.88201">
        <ele>714.5</ele>
        <time>2026-07-09T07:58:54.000Z</time>
      </trkpt>
      <trkpt lat="45.81837" lon="1.88198">
        <ele>715.6</ele>
        <time>2026-07-09T07:58:55.000Z</time>
      </trkpt>
      <trkpt lat="45.81836" lon="1.88196">
        <ele>717.5</ele>
        <time>2026-07-09T07:58:56.000Z</time>
      </trkpt>
      <trkpt lat="45.81836" lon="1.88193">
        <ele>717.4</ele>
        <time>2026-07-09T07:58:57.000Z</time>
      </trkpt>
      <trkpt lat="45.81837" lon="1.8819">
        <ele>717.6</ele>
        <time>2026-07-09T07:58:58.000Z</time>
      </trkpt>
      <trkpt lat="45.81837" lon="1.88188">
        <ele>717.6</ele>
        <time>2026-07-09T07:58:59.000Z</time>
      </trkpt>
      <trkpt lat="45.81838" lon="1.88185">
        <ele>717.5</ele>
        <time>2026-07-09T07:59:00.000Z</time>
      </trkpt>
      <trkpt lat="45.81838" lon="1.88183">
        <ele>716.9</ele>
        <time>2026-07-09T07:59:01.000Z</time>
      </trkpt>
      <trkpt lat="45.81838" lon="1.8818">
        <ele>717</ele>
        <time>2026-07-09T07:59:02.000Z</time>
      </trkpt>
      <trkpt lat="45.81837" lon="1.88178">
        <ele>717.3</ele>
        <time>2026-07-09T07:59:03.000Z</time>
      </trkpt>
      <trkpt lat="45.81837" lon="1.88176">
        <ele>717.2</ele>
        <time>2026-07-09T07:59:04.000Z</time>
      </trkpt>
      <trkpt lat="45.81837" lon="1.88173">
        <ele>716.3</ele>
        <time>2026-07-09T07:59:05.000Z</time>
      </trkpt>
      <trkpt lat="45.81837" lon="1.88171">
        <ele>715.6</ele>
        <time>2026-07-09T07:59:06.000Z</time>
      </trkpt>
      <trkpt lat="45.81837" lon="1.88169">
        <ele>715.6</ele>
        <time>2026-07-09T07:59:07.000Z</time>
      </trkpt>
      <trkpt lat="45.81837" lon="1.88167">
        <ele>714.5</ele>
        <time>2026-07-09T07:59:08.000Z</time>
      </trkpt>
      <trkpt lat="45.81836" lon="1.88166">
        <ele>714.4</ele>
        <time>2026-07-09T07:59:09.000Z</time>
      </trkpt>
      <trkpt lat="45.81836" lon="1.88164">
        <ele>712.6</ele>
        <time>2026-07-09T07:59:10.000Z</time>
      </trkpt>
      <trkpt lat="45.81837" lon="1.88163">
        <ele>712.5</ele>
        <time>2026-07-09T07:59:11.000Z</time>
      </trkpt>
      <trkpt lat="45.81837" lon="1.88161">
        <ele>712.3</ele>
        <time>2026-07-09T07:59:12.000Z</time>
      </trkpt>
      <trkpt lat="45.81836" lon="1.88159">
        <ele>712.6</ele>
        <time>2026-07-09T07:59:13.000Z</time>
      </trkpt>
      <trkpt lat="45.81836" lon="1.88157">
        <ele>712.2</ele>
        <time>2026-07-09T07:59:14.000Z</time>
      </trkpt>
      <trkpt lat="45.81836" lon="1.88155">
        <ele>711.7</ele>
        <time>2026-07-09T07:59:15.000Z</time>
      </trkpt>
      <trkpt lat="45.81837" lon="1.88153">
        <ele>710.9</ele>
        <time>2026-07-09T07:59:16.000Z</time>
      </trkpt>
      <trkpt lat="45.81837" lon="1.88151">
        <ele>710.5</ele>
        <time>2026-07-09T07:59:17.000Z</time>
      </trkpt>
      <trkpt lat="45.81837" lon="1.88148">
        <ele>711.1</ele>
        <time>2026-07-09T07:59:18.000Z</time>
      </trkpt>
      <trkpt lat="45.81837" lon="1.88146">
        <ele>708.3</ele>
        <time>2026-07-09T07:59:19.000Z</time>
      </trkpt>
      <trkpt lat="45.81837" lon="1.88144">
        <ele>708.5</ele>
        <time>2026-07-09T07:59:20.000Z</time>
      </trkpt>
      <trkpt lat="45.81837" lon="1.88141">
        <ele>707.9</ele>
        <time>2026-07-09T07:59:21.000Z</time>
      </trkpt>
      <trkpt lat="45.81837" lon="1.88138">
        <ele>707.8</ele>
        <time>2026-07-09T07:59:22.000Z</time>
      </trkpt>
      <trkpt lat="45.81837" lon="1.88136">
        <ele>706.8</ele>
        <time>2026-07-09T07:59:23.000Z</time>
      </trkpt>
      <trkpt lat="45.81837" lon="1.88134">
        <ele>706</ele>
        <time>2026-07-09T07:59:24.000Z</time>
      </trkpt>
      <trkpt lat="45.81837" lon="1.88132">
        <ele>704.8</ele>
        <time>2026-07-09T07:59:25.000Z</time>
      </trkpt>
      <trkpt lat="45.81837" lon="1.88131">
        <ele>704.3</ele>
        <time>2026-07-09T07:59:26.000Z</time>
      </trkpt>
      <trkpt lat="45.81837" lon="1.88129">
        <ele>704</ele>
        <time>2026-07-09T07:59:27.000Z</time>
      </trkpt>
      <trkpt lat="45.81837" lon="1.88127">
        <ele>704</ele>
        <time>2026-07-09T07:59:28.000Z</time>
      </trkpt>
      <trkpt lat="45.81837" lon="1.88125">
        <ele>703.5</ele>
        <time>2026-07-09T07:59:29.000Z</time>
      </trkpt>
      <trkpt lat="45.81837" lon="1.88123">
        <ele>704.3</ele>
        <time>2026-07-09T07:59:30.000Z</time>
      </trkpt>
      <trkpt lat="45.81838" lon="1.88121">
        <ele>703.4</ele>
        <time>2026-07-09T07:59:31.000Z</time>
      </trkpt>
      <trkpt lat="45.81838" lon="1.88119">
        <ele>703.3</ele>
        <time>2026-07-09T07:59:32.000Z</time>
      </trkpt>
      <trkpt lat="45.81837" lon="1.88117">
        <ele>702.9</ele>
        <time>2026-07-09T07:59:33.000Z</time>
      </trkpt>
      <trkpt lat="45.81837" lon="1.88116">
        <ele>702.9</ele>
        <time>2026-07-09T07:59:34.000Z</time>
      </trkpt>
      <trkpt lat="45.81838" lon="1.88113">
        <ele>703.2</ele>
        <time>2026-07-09T07:59:35.000Z</time>
      </trkpt>
      <trkpt lat="45.81838" lon="1.88111">
        <ele>702.3</ele>
        <time>2026-07-09T07:59:36.000Z</time>
      </trkpt>
      <trkpt lat="45.81839" lon="1.88109">
        <ele>701.5</ele>
        <time>2026-07-09T07:59:37.000Z</time>
      </trkpt>
      <trkpt lat="45.81839" lon="1.88107">
        <ele>700.4</ele>
        <time>2026-07-09T07:59:38.000Z</time>
      </trkpt>
      <trkpt lat="45.8184" lon="1.88105">
        <ele>699.6</ele>
        <time>2026-07-09T07:59:39.000Z</time>
      </trkpt>
      <trkpt lat="45.8184" lon="1.88103">
        <ele>699.4</ele>
        <time>2026-07-09T07:59:40.000Z</time>
      </trkpt>
      <trkpt lat="45.8184" lon="1.881">
        <ele>698.8</ele>
        <time>2026-07-09T07:59:41.000Z</time>
      </trkpt>
      <trkpt lat="45.8184" lon="1.88098">
        <ele>699.6</ele>
        <time>2026-07-09T07:59:42.000Z</time>
      </trkpt>
      <trkpt lat="45.8184" lon="1.88095">
        <ele>699.2</ele>
        <time>2026-07-09T07:59:43.000Z</time>
      </trkpt>
      <trkpt lat="45.81839" lon="1.88093">
        <ele>698.8</ele>
        <time>2026-07-09T07:59:44.000Z</time>
      </trkpt>
      <trkpt lat="45.81839" lon="1.8809">
        <ele>698.7</ele>
        <time>2026-07-09T07:59:45.000Z</time>
      </trkpt>
      <trkpt lat="45.81839" lon="1.88087">
        <ele>699.8</ele>
        <time>2026-07-09T07:59:46.000Z</time>
      </trkpt>
      <trkpt lat="45.81839" lon="1.88086">
        <ele>701.2</ele>
        <time>2026-07-09T07:59:47.000Z</time>
      </trkpt>
      <trkpt lat="45.81839" lon="1.88084">
        <ele>701.6</ele>
        <time>2026-07-09T07:59:48.000Z</time>
      </trkpt>
      <trkpt lat="45.8184" lon="1.88083">
        <ele>702</ele>
        <time>2026-07-09T07:59:49.000Z</time>
      </trkpt>
      <trkpt lat="45.8184" lon="1.8808">
        <ele>701.4</ele>
        <time>2026-07-09T07:59:50.000Z</time>
      </trkpt>
      <trkpt lat="45.8184" lon="1.88078">
        <ele>701.8</ele>
        <time>2026-07-09T07:59:51.000Z</time>
      </trkpt>
      <trkpt lat="45.8184" lon="1.88076">
        <ele>702.6</ele>
        <time>2026-07-09T07:59:52.000Z</time>
      </trkpt>
      <trkpt lat="45.81841" lon="1.88073">
        <ele>702.9</ele>
        <time>2026-07-09T07:59:53.000Z</time>
      </trkpt>
      <trkpt lat="45.81842" lon="1.8807">
        <ele>703.8</ele>
        <time>2026-07-09T07:59:54.000Z</time>
      </trkpt>
      <trkpt lat="45.81843" lon="1.88068">
        <ele>703.6</ele>
        <time>2026-07-09T07:59:55.000Z</time>
      </trkpt>
      <trkpt lat="45.81843" lon="1.88066">
        <ele>703.3</ele>
        <time>2026-07-09T07:59:56.000Z</time>
      </trkpt>
      <trkpt lat="45.81843" lon="1.88064">
        <ele>703.1</ele>
        <time>2026-07-09T07:59:57.000Z</time>
      </trkpt>
      <trkpt lat="45.81843" lon="1.88063">
        <ele>702.1</ele>
        <time>2026-07-09T07:59:58.000Z</time>
      </trkpt>
      <trkpt lat="45.81843" lon="1.88061">
        <ele>702</ele>
        <time>2026-07-09T07:59:59.000Z</time>
      </trkpt>
      <trkpt lat="45.81842" lon="1.8806">
        <ele>700.9</ele>
        <time>2026-07-09T08:00:00.000Z</time>
      </trkpt>
      <trkpt lat="45.81842" lon="1.88057">
        <ele>700.5</ele>
        <time>2026-07-09T08:00:01.000Z</time>
      </trkpt>
      <trkpt lat="45.81842" lon="1.88056">
        <ele>700.4</ele>
        <time>2026-07-09T08:00:02.000Z</time>
      </trkpt>
      <trkpt lat="45.81842" lon="1.88053">
        <ele>699.7</ele>
        <time>2026-07-09T08:00:03.000Z</time>
      </trkpt>
      <trkpt lat="45.81841" lon="1.88052">
        <ele>700.6</ele>
        <time>2026-07-09T08:00:04.000Z</time>
      </trkpt>
      <trkpt lat="45.8184" lon="1.8805">
        <ele>700.7</ele>
        <time>2026-07-09T08:00:05.000Z</time>
      </trkpt>
      <trkpt lat="45.8184" lon="1.88048">
        <ele>701.6</ele>
        <time>2026-07-09T08:00:06.000Z</time>
      </trkpt>
      <trkpt lat="45.8184" lon="1.88046">
        <ele>701.8</ele>
        <time>2026-07-09T08:00:07.000Z</time>
      </trkpt>
      <trkpt lat="45.8184" lon="1.88044">
        <ele>702.4</ele>
        <time>2026-07-09T08:00:08.000Z</time>
      </trkpt>
      <trkpt lat="45.8184" lon="1.88042">
        <ele>701.5</ele>
        <time>2026-07-09T08:00:09.000Z</time>
      </trkpt>
      <trkpt lat="45.8184" lon="1.88039">
        <ele>701.7</ele>
        <time>2026-07-09T08:00:10.000Z</time>
      </trkpt>
      <trkpt lat="45.8184" lon="1.88037">
        <ele>701.7</ele>
        <time>2026-07-09T08:00:11.000Z</time>
      </trkpt>
      <trkpt lat="45.8184" lon="1.88034">
        <ele>701.9</ele>
        <time>2026-07-09T08:00:12.000Z</time>
      </trkpt>
      <trkpt lat="45.8184" lon="1.88031">
        <ele>702.2</ele>
        <time>2026-07-09T08:00:13.000Z</time>
      </trkpt>
      <trkpt lat="45.8184" lon="1.88029">
        <ele>702.3</ele>
        <time>2026-07-09T08:00:14.000Z</time>
      </trkpt>
      <trkpt lat="45.8184" lon="1.88026">
        <ele>702.4</ele>
        <time>2026-07-09T08:00:15.000Z</time>
      </trkpt>
      <trkpt lat="45.8184" lon="1.88023">
        <ele>703.2</ele>
        <time>2026-07-09T08:00:16.000Z</time>
      </trkpt>
      <trkpt lat="45.81839" lon="1.88021">
        <ele>703</ele>
        <time>2026-07-09T08:00:17.000Z</time>
      </trkpt>
      <trkpt lat="45.81839" lon="1.88018">
        <ele>703.4</ele>
        <time>2026-07-09T08:00:18.000Z</time>
      </trkpt>
      <trkpt lat="45.81838" lon="1.88016">
        <ele>705.3</ele>
        <time>2026-07-09T08:00:19.000Z</time>
      </trkpt>
      <trkpt lat="45.81838" lon="1.88013">
        <ele>706.1</ele>
        <time>2026-07-09T08:00:20.000Z</time>
      </trkpt>
      <trkpt lat="45.81839" lon="1.88011">
        <ele>704.9</ele>
        <time>2026-07-09T08:00:21.000Z</time>
      </trkpt>
      <trkpt lat="45.81839" lon="1.88008">
        <ele>703.5</ele>
        <time>2026-07-09T08:00:22.000Z</time>
      </trkpt>
      <trkpt lat="45.8184" lon="1.88006">
        <ele>702.9</ele>
        <time>2026-07-09T08:00:23.000Z</time>
      </trkpt>
      <trkpt lat="45.81841" lon="1.88003">
        <ele>701.8</ele>
        <time>2026-07-09T08:00:24.000Z</time>
      </trkpt>
      <trkpt lat="45.81842" lon="1.88001">
        <ele>701.5</ele>
        <time>2026-07-09T08:00:25.000Z</time>
      </trkpt>
      <trkpt lat="45.81844" lon="1.87999">
        <ele>702.1</ele>
        <time>2026-07-09T08:00:26.000Z</time>
      </trkpt>
      <trkpt lat="45.81846" lon="1.87997">
        <ele>702</ele>
        <time>2026-07-09T08:00:27.000Z</time>
      </trkpt>
      <trkpt lat="45.81847" lon="1.87996">
        <ele>701.7</ele>
        <time>2026-07-09T08:00:28.000Z</time>
      </trkpt>
      <trkpt lat="45.81849" lon="1.87995">
        <ele>702</ele>
        <time>2026-07-09T08:00:29.000Z</time>
      </trkpt>
      <trkpt lat="45.8185" lon="1.87993">
        <ele>702.2</ele>
        <time>2026-07-09T08:00:30.000Z</time>
      </trkpt>
      <trkpt lat="45.81852" lon="1.87992">
        <ele>702.1</ele>
        <time>2026-07-09T08:00:31.000Z</time>
      </trkpt>
      <trkpt lat="45.81853" lon="1.87991">
        <ele>701.4</ele>
        <time>2026-07-09T08:00:32.000Z</time>
      </trkpt>
      <trkpt lat="45.81854" lon="1.87989">
        <ele>701</ele>
        <time>2026-07-09T08:00:33.000Z</time>
      </trkpt>
      <trkpt lat="45.81854" lon="1.87987">
        <ele>700.8</ele>
        <time>2026-07-09T08:00:34.000Z</time>
      </trkpt>
      <trkpt lat="45.81855" lon="1.87985">
        <ele>700.6</ele>
        <time>2026-07-09T08:00:35.000Z</time>
      </trkpt>
      <trkpt lat="45.81855" lon="1.87983">
        <ele>700</ele>
        <time>2026-07-09T08:00:36.000Z</time>
      </trkpt>
      <trkpt lat="45.81856" lon="1.87981">
        <ele>699.6</ele>
        <time>2026-07-09T08:00:37.000Z</time>
      </trkpt>
      <trkpt lat="45.81856" lon="1.87978">
        <ele>699</ele>
        <time>2026-07-09T08:00:38.000Z</time>
      </trkpt>
      <trkpt lat="45.81856" lon="1.87976">
        <ele>698.3</ele>
        <time>2026-07-09T08:00:39.000Z</time>
      </trkpt>
      <trkpt lat="45.81856" lon="1.87974">
        <ele>698.1</ele>
        <time>2026-07-09T08:00:40.000Z</time>
      </trkpt>
      <trkpt lat="45.81856" lon="1.87972">
        <ele>697.1</ele>
        <time>2026-07-09T08:00:41.000Z</time>
      </trkpt>
      <trkpt lat="45.81856" lon="1.8797">
        <ele>696.8</ele>
        <time>2026-07-09T08:00:42.000Z</time>
      </trkpt>
      <trkpt lat="45.81857" lon="1.87968">
        <ele>696</ele>
        <time>2026-07-09T08:00:43.000Z</time>
      </trkpt>
      <trkpt lat="45.81857" lon="1.87965">
        <ele>695.6</ele>
        <time>2026-07-09T08:00:44.000Z</time>
      </trkpt>
      <trkpt lat="45.81856" lon="1.87963">
        <ele>695.4</ele>
        <time>2026-07-09T08:00:45.000Z</time>
      </trkpt>
      <trkpt lat="45.81856" lon="1.87961">
        <ele>695.6</ele>
        <time>2026-07-09T08:00:46.000Z</time>
      </trkpt>
      <trkpt lat="45.81857" lon="1.87959">
        <ele>695.4</ele>
        <time>2026-07-09T08:00:47.000Z</time>
      </trkpt>
      <trkpt lat="45.81857" lon="1.87957">
        <ele>694.8</ele>
        <time>2026-07-09T08:00:48.000Z</time>
      </trkpt>
      <trkpt lat="45.81857" lon="1.87955">
        <ele>694.6</ele>
        <time>2026-07-09T08:00:49.000Z</time>
      </trkpt>
      <trkpt lat="45.81857" lon="1.87953">
        <ele>694.1</ele>
        <time>2026-07-09T08:00:50.000Z</time>
      </trkpt>
      <trkpt lat="45.81857" lon="1.87954">
        <ele>693.2</ele>
        <time>2026-07-09T08:00:51.000Z</time>
      </trkpt>
      <trkpt lat="45.81856" lon="1.87953">
        <ele>693.5</ele>
        <time>2026-07-09T08:00:52.000Z</time>
      </trkpt>
      <trkpt lat="45.81856" lon="1.87951">
        <ele>692.6</ele>
        <time>2026-07-09T08:00:53.000Z</time>
      </trkpt>
      <trkpt lat="45.81856" lon="1.87949">
        <ele>692.8</ele>
        <time>2026-07-09T08:00:54.000Z</time>
      </trkpt>
      <trkpt lat="45.81856" lon="1.87947">
        <ele>693.2</ele>
        <time>2026-07-09T08:00:55.000Z</time>
      </trkpt>
      <trkpt lat="45.81856" lon="1.87944">
        <ele>692.4</ele>
        <time>2026-07-09T08:00:56.000Z</time>
      </trkpt>
      <trkpt lat="45.81857" lon="1.87942">
        <ele>691.8</ele>
        <time>2026-07-09T08:00:57.000Z</time>
      </trkpt>
      <trkpt lat="45.81857" lon="1.8794">
        <ele>691.7</ele>
        <time>2026-07-09T08:00:58.000Z</time>
      </trkpt>
      <trkpt lat="45.81857" lon="1.87937">
        <ele>692.2</ele>
        <time>2026-07-09T08:00:59.000Z</time>
      </trkpt>
      <trkpt lat="45.81857" lon="1.87935">
        <ele>692.3</ele>
        <time>2026-07-09T08:01:00.000Z</time>
      </trkpt>
      <trkpt lat="45.81857" lon="1.87933">
        <ele>692.1</ele>
        <time>2026-07-09T08:01:01.000Z</time>
      </trkpt>
      <trkpt lat="45.81857" lon="1.87931">
        <ele>693.7</ele>
        <time>2026-07-09T08:01:02.000Z</time>
      </trkpt>
      <trkpt lat="45.81858" lon="1.87928">
        <ele>694.2</ele>
        <time>2026-07-09T08:01:03.000Z</time>
      </trkpt>
      <trkpt lat="45.81858" lon="1.87926">
        <ele>694.6</ele>
        <time>2026-07-09T08:01:04.000Z</time>
      </trkpt>
      <trkpt lat="45.81859" lon="1.87924">
        <ele>693.8</ele>
        <time>2026-07-09T08:01:05.000Z</time>
      </trkpt>
      <trkpt lat="45.81859" lon="1.87922">
        <ele>693.5</ele>
        <time>2026-07-09T08:01:06.000Z</time>
      </trkpt>
      <trkpt lat="45.8186" lon="1.87919">
        <ele>693.8</ele>
        <time>2026-07-09T08:01:07.000Z</time>
      </trkpt>
      <trkpt lat="45.8186" lon="1.87917">
        <ele>693.3</ele>
        <time>2026-07-09T08:01:08.000Z</time>
      </trkpt>
      <trkpt lat="45.81861" lon="1.87915">
        <ele>692.6</ele>
        <time>2026-07-09T08:01:09.000Z</time>
      </trkpt>
      <trkpt lat="45.81862" lon="1.87913">
        <ele>691.5</ele>
        <time>2026-07-09T08:01:10.000Z</time>
      </trkpt>
      <trkpt lat="45.81863" lon="1.87911">
        <ele>691.8</ele>
        <time>2026-07-09T08:01:11.000Z</time>
      </trkpt>
      <trkpt lat="45.81865" lon="1.87909">
        <ele>691.3</ele>
        <time>2026-07-09T08:01:12.000Z</time>
      </trkpt>
      <trkpt lat="45.81866" lon="1.87906">
        <ele>693</ele>
        <time>2026-07-09T08:01:13.000Z</time>
      </trkpt>
      <trkpt lat="45.81867" lon="1.87904">
        <ele>695.7</ele>
        <time>2026-07-09T08:01:14.000Z</time>
      </trkpt>
      <trkpt lat="45.81869" lon="1.87902">
        <ele>696.9</ele>
        <time>2026-07-09T08:01:15.000Z</time>
      </trkpt>
      <trkpt lat="45.81871" lon="1.879">
        <ele>697.7</ele>
        <time>2026-07-09T08:01:16.000Z</time>
      </trkpt>
      <trkpt lat="45.81873" lon="1.87898">
        <ele>698.1</ele>
        <time>2026-07-09T08:01:17.000Z</time>
      </trkpt>
      <trkpt lat="45.81874" lon="1.87895">
        <ele>698.5</ele>
        <time>2026-07-09T08:01:18.000Z</time>
      </trkpt>
      <trkpt lat="45.81876" lon="1.87893">
        <ele>698.2</ele>
        <time>2026-07-09T08:01:19.000Z</time>
      </trkpt>
      <trkpt lat="45.81877" lon="1.8789">
        <ele>698.8</ele>
        <time>2026-07-09T08:01:20.000Z</time>
      </trkpt>
      <trkpt lat="45.81879" lon="1.87887">
        <ele>699.3</ele>
        <time>2026-07-09T08:01:21.000Z</time>
      </trkpt>
      <trkpt lat="45.81881" lon="1.87884">
        <ele>699.2</ele>
        <time>2026-07-09T08:01:22.000Z</time>
      </trkpt>
      <trkpt lat="45.81883" lon="1.8788">
        <ele>699</ele>
        <time>2026-07-09T08:01:23.000Z</time>
      </trkpt>
      <trkpt lat="45.81884" lon="1.87877">
        <ele>699.2</ele>
        <time>2026-07-09T08:01:24.000Z</time>
      </trkpt>
      <trkpt lat="45.81885" lon="1.87874">
        <ele>699.7</ele>
        <time>2026-07-09T08:01:25.000Z</time>
      </trkpt>
      <trkpt lat="45.81886" lon="1.87871">
        <ele>701.6</ele>
        <time>2026-07-09T08:01:26.000Z</time>
      </trkpt>
      <trkpt lat="45.81887" lon="1.87869">
        <ele>702.5</ele>
        <time>2026-07-09T08:01:27.000Z</time>
      </trkpt>
      <trkpt lat="45.81888" lon="1.87866">
        <ele>702.7</ele>
        <time>2026-07-09T08:01:28.000Z</time>
      </trkpt>
      <trkpt lat="45.81889" lon="1.87863">
        <ele>702.7</ele>
        <time>2026-07-09T08:01:29.000Z</time>
      </trkpt>
      <trkpt lat="45.8189" lon="1.87861">
        <ele>702.9</ele>
        <time>2026-07-09T08:01:30.000Z</time>
      </trkpt>
      <trkpt lat="45.81891" lon="1.87859">
        <ele>704.5</ele>
        <time>2026-07-09T08:01:31.000Z</time>
      </trkpt>
      <trkpt lat="45.81895" lon="1.8786">
        <ele>705.7</ele>
        <time>2026-07-09T08:01:32.000Z</time>
      </trkpt>
      <trkpt lat="45.81899" lon="1.8786">
        <ele>706.7</ele>
        <time>2026-07-09T08:01:33.000Z</time>
      </trkpt>
      <trkpt lat="45.81901" lon="1.87862">
        <ele>706.3</ele>
        <time>2026-07-09T08:01:34.000Z</time>
      </trkpt>
      <trkpt lat="45.81895" lon="1.87852">
        <ele>705.4</ele>
        <time>2026-07-09T08:01:35.000Z</time>
      </trkpt>
      <trkpt lat="45.81894" lon="1.8785">
        <ele>705.9</ele>
        <time>2026-07-09T08:01:36.000Z</time>
      </trkpt>
      <trkpt lat="45.81895" lon="1.87847">
        <ele>706.7</ele>
        <time>2026-07-09T08:01:37.000Z</time>
      </trkpt>
      <trkpt lat="45.81895" lon="1.87846">
        <ele>705.9</ele>
        <time>2026-07-09T08:01:38.000Z</time>
      </trkpt>
      <trkpt lat="45.81898" lon="1.87844">
        <ele>705.7</ele>
        <time>2026-07-09T08:01:39.000Z</time>
      </trkpt>
      <trkpt lat="45.81899" lon="1.87843">
        <ele>705.5</ele>
        <time>2026-07-09T08:01:40.000Z</time>
      </trkpt>
      <trkpt lat="45.819" lon="1.87842">
        <ele>706.7</ele>
        <time>2026-07-09T08:01:41.000Z</time>
      </trkpt>
      <trkpt lat="45.81901" lon="1.8784">
        <ele>706.4</ele>
        <time>2026-07-09T08:01:42.000Z</time>
      </trkpt>
      <trkpt lat="45.81902" lon="1.87838">
        <ele>705.2</ele>
        <time>2026-07-09T08:01:43.000Z</time>
      </trkpt>
      <trkpt lat="45.81903" lon="1.87837">
        <ele>705</ele>
        <time>2026-07-09T08:01:44.000Z</time>
      </trkpt>
      <trkpt lat="45.81904" lon="1.87835">
        <ele>705.6</ele>
        <time>2026-07-09T08:01:45.000Z</time>
      </trkpt>
      <trkpt lat="45.81906" lon="1.87833">
        <ele>705.6</ele>
        <time>2026-07-09T08:01:46.000Z</time>
      </trkpt>
      <trkpt lat="45.81907" lon="1.87831">
        <ele>704.8</ele>
        <time>2026-07-09T08:01:47.000Z</time>
      </trkpt>
      <trkpt lat="45.81908" lon="1.87829">
        <ele>705.5</ele>
        <time>2026-07-09T08:01:48.000Z</time>
      </trkpt>
      <trkpt lat="45.81908" lon="1.87827">
        <ele>704.8</ele>
        <time>2026-07-09T08:01:49.000Z</time>
      </trkpt>
      <trkpt lat="45.81909" lon="1.87824">
        <ele>704.9</ele>
        <time>2026-07-09T08:01:50.000Z</time>
      </trkpt>
      <trkpt lat="45.8191" lon="1.87822">
        <ele>705.4</ele>
        <time>2026-07-09T08:01:51.000Z</time>
      </trkpt>
      <trkpt lat="45.81911" lon="1.8782">
        <ele>705.5</ele>
        <time>2026-07-09T08:01:52.000Z</time>
      </trkpt>
      <trkpt lat="45.81911" lon="1.87817">
        <ele>704.6</ele>
        <time>2026-07-09T08:01:53.000Z</time>
      </trkpt>
      <trkpt lat="45.81911" lon="1.87814">
        <ele>705.3</ele>
        <time>2026-07-09T08:01:54.000Z</time>
      </trkpt>
      <trkpt lat="45.81913" lon="1.87812">
        <ele>705</ele>
        <time>2026-07-09T08:01:55.000Z</time>
      </trkpt>
      <trkpt lat="45.81923" lon="1.87808">
        <ele>708.6</ele>
        <time>2026-07-09T08:01:56.000Z</time>
      </trkpt>
      <trkpt lat="45.81924" lon="1.87806">
        <ele>708.9</ele>
        <time>2026-07-09T08:01:57.000Z</time>
      </trkpt>
      <trkpt lat="45.81922" lon="1.87805">
        <ele>707</ele>
        <time>2026-07-09T08:01:58.000Z</time>
      </trkpt>
      <trkpt lat="45.81921" lon="1.87803">
        <ele>705.1</ele>
        <time>2026-07-09T08:01:59.000Z</time>
      </trkpt>
      <trkpt lat="45.81922" lon="1.87802">
        <ele>706.4</ele>
        <time>2026-07-09T08:02:00.000Z</time>
      </trkpt>
      <trkpt lat="45.81921" lon="1.87802">
        <ele>705.5</ele>
        <time>2026-07-09T08:02:01.000Z</time>
      </trkpt>
      <trkpt lat="45.81921" lon="1.87801">
        <ele>705</ele>
        <time>2026-07-09T08:02:02.000Z</time>
      </trkpt>
      <trkpt lat="45.81921" lon="1.87801">
        <ele>704.8</ele>
        <time>2026-07-09T08:02:03.000Z</time>
      </trkpt>
      <trkpt lat="45.81921" lon="1.87801">
        <ele>704.3</ele>
        <time>2026-07-09T08:02:04.000Z</time>
      </trkpt>
      <trkpt lat="45.81921" lon="1.878">
        <ele>703.4</ele>
        <time>2026-07-09T08:02:05.000Z</time>
      </trkpt>
      <trkpt lat="45.8192" lon="1.87801">
        <ele>702</ele>
        <time>2026-07-09T08:02:06.000Z</time>
      </trkpt>
      <trkpt lat="45.81919" lon="1.87802">
        <ele>702.9</ele>
        <time>2026-07-09T08:02:07.000Z</time>
      </trkpt>
      <trkpt lat="45.81919" lon="1.87802">
        <ele>702.9</ele>
        <time>2026-07-09T08:02:08.000Z</time>
      </trkpt>
      <trkpt lat="45.81919" lon="1.87802">
        <ele>702.9</ele>
        <time>2026-07-09T08:02:09.000Z</time>
      </trkpt>
      <trkpt lat="45.81919" lon="1.87802">
        <ele>702.9</ele>
        <time>2026-07-09T08:02:10.000Z</time>
      </trkpt>
      <trkpt lat="45.81919" lon="1.87802">
        <ele>702.9</ele>
        <time>2026-07-09T08:02:11.000Z</time>
      </trkpt>
      <trkpt lat="45.81919" lon="1.87802">
        <ele>703.1</ele>
        <time>2026-07-09T08:02:12.000Z</time>
      </trkpt>
      <trkpt lat="45.8192" lon="1.87801">
        <ele>703.2</ele>
        <time>2026-07-09T08:02:13.000Z</time>
      </trkpt>
      <trkpt lat="45.81921" lon="1.878">
        <ele>702.6</ele>
        <time>2026-07-09T08:02:14.000Z</time>
      </trkpt>
      <trkpt lat="45.8192" lon="1.87799">
        <ele>701.9</ele>
        <time>2026-07-09T08:02:15.000Z</time>
      </trkpt>
      <trkpt lat="45.81919" lon="1.87799">
        <ele>701.2</ele>
        <time>2026-07-09T08:02:16.000Z</time>
      </trkpt>
      <trkpt lat="45.81917" lon="1.87798">
        <ele>699.4</ele>
        <time>2026-07-09T08:02:17.000Z</time>
      </trkpt>
      <trkpt lat="45.81915" lon="1.87798">
        <ele>699</ele>
        <time>2026-07-09T08:02:18.000Z</time>
      </trkpt>
      <trkpt lat="45.81915" lon="1.87798">
        <ele>699.3</ele>
        <time>2026-07-09T08:02:19.000Z</time>
      </trkpt>
      <trkpt lat="45.81915" lon="1.87799">
        <ele>699.2</ele>
        <time>2026-07-09T08:02:20.000Z</time>
      </trkpt>
      <trkpt lat="45.81915" lon="1.878">
        <ele>699.6</ele>
        <time>2026-07-09T08:02:21.000Z</time>
      </trkpt>
      <trkpt lat="45.81916" lon="1.87801">
        <ele>700.2</ele>
        <time>2026-07-09T08:02:22.000Z</time>
      </trkpt>
      <trkpt lat="45.81916" lon="1.87801">
        <ele>700.1</ele>
        <time>2026-07-09T08:02:23.000Z</time>
      </trkpt>
      <trkpt lat="45.81915" lon="1.87803">
        <ele>701.2</ele>
        <time>2026-07-09T08:02:24.000Z</time>
      </trkpt>
      <trkpt lat="45.81914" lon="1.87805">
        <ele>700.8</ele>
        <time>2026-07-09T08:02:25.000Z</time>
      </trkpt>
      <trkpt lat="45.81915" lon="1.87806">
        <ele>701.6</ele>
        <time>2026-07-09T08:02:26.000Z</time>
      </trkpt>
      <trkpt lat="45.81916" lon="1.87807">
        <ele>702.1</ele>
        <time>2026-07-09T08:02:27.000Z</time>
      </trkpt>
      <trkpt lat="45.81916" lon="1.87807">
        <ele>702.1</ele>
        <time>2026-07-09T08:02:28.000Z</time>
      </trkpt>
      <trkpt lat="45.81916" lon="1.87809">
        <ele>702.1</ele>
        <time>2026-07-09T08:02:29.000Z</time>
      </trkpt>
      <trkpt lat="45.81916" lon="1.87809">
        <ele>702</ele>
        <time>2026-07-09T08:02:30.000Z</time>
      </trkpt>
      <trkpt lat="45.81916" lon="1.87811">
        <ele>702.4</ele>
        <time>2026-07-09T08:02:31.000Z</time>
      </trkpt>
      <trkpt lat="45.81917" lon="1.87811">
        <ele>702.4</ele>
        <time>2026-07-09T08:02:32.000Z</time>
      </trkpt>
      <trkpt lat="45.81917" lon="1.87811">
        <ele>702.4</ele>
        <time>2026-07-09T08:02:33.000Z</time>
      </trkpt>
      <trkpt lat="45.81917" lon="1.87811">
        <ele>702.4</ele>
        <time>2026-07-09T08:02:34.000Z</time>
      </trkpt>
      <trkpt lat="45.81917" lon="1.8781">
        <ele>702.1</ele>
        <time>2026-07-09T08:02:35.000Z</time>
      </trkpt>
      <trkpt lat="45.81918" lon="1.8781">
        <ele>701.9</ele>
        <time>2026-07-09T08:02:36.000Z</time>
      </trkpt>
      <trkpt lat="45.81917" lon="1.87812">
        <ele>703.2</ele>
        <time>2026-07-09T08:02:37.000Z</time>
      </trkpt>
      <trkpt lat="45.81916" lon="1.87812">
        <ele>703.2</ele>
        <time>2026-07-09T08:02:38.000Z</time>
      </trkpt>
      <trkpt lat="45.81918" lon="1.87813">
        <ele>703.2</ele>
        <time>2026-07-09T08:02:39.000Z</time>
      </trkpt>
      <trkpt lat="45.81919" lon="1.87813">
        <ele>702.8</ele>
        <time>2026-07-09T08:02:40.000Z</time>
      </trkpt>
      <trkpt lat="45.8192" lon="1.87811">
        <ele>702.6</ele>
        <time>2026-07-09T08:02:41.000Z</time>
      </trkpt>
      <trkpt lat="45.81921" lon="1.87809">
        <ele>701.9</ele>
        <time>2026-07-09T08:02:42.000Z</time>
      </trkpt>
      <trkpt lat="45.8192" lon="1.87807">
        <ele>701.3</ele>
        <time>2026-07-09T08:02:43.000Z</time>
      </trkpt>
      <trkpt lat="45.81921" lon="1.87807">
        <ele>701.9</ele>
        <time>2026-07-09T08:02:44.000Z</time>
      </trkpt>
      <trkpt lat="45.81918" lon="1.87805">
        <ele>702</ele>
        <time>2026-07-09T08:02:45.000Z</time>
      </trkpt>
      <trkpt lat="45.81919" lon="1.87806">
        <ele>701.8</ele>
        <time>2026-07-09T08:02:46.000Z</time>
      </trkpt>
      <trkpt lat="45.81919" lon="1.87807">
        <ele>702</ele>
        <time>2026-07-09T08:02:47.000Z</time>
      </trkpt>
      <trkpt lat="45.81921" lon="1.87806">
        <ele>701.3</ele>
        <time>2026-07-09T08:02:48.000Z</time>
      </trkpt>
      <trkpt lat="45.81923" lon="1.87805">
        <ele>700.6</ele>
        <time>2026-07-09T08:02:49.000Z</time>
      </trkpt>
      <trkpt lat="45.81924" lon="1.87803">
        <ele>700.7</ele>
        <time>2026-07-09T08:02:50.000Z</time>
      </trkpt>
      <trkpt lat="45.81925" lon="1.87802">
        <ele>702</ele>
        <time>2026-07-09T08:02:51.000Z</time>
      </trkpt>
      <trkpt lat="45.81926" lon="1.87802">
        <ele>701.5</ele>
        <time>2026-07-09T08:02:52.000Z</time>
      </trkpt>
      <trkpt lat="45.81928" lon="1.87802">
        <ele>701.6</ele>
        <time>2026-07-09T08:02:53.000Z</time>
      </trkpt>
      <trkpt lat="45.81929" lon="1.87802">
        <ele>701.7</ele>
        <time>2026-07-09T08:02:54.000Z</time>
      </trkpt>
      <trkpt lat="45.8193" lon="1.87801">
        <ele>702.2</ele>
        <time>2026-07-09T08:02:55.000Z</time>
      </trkpt>
      <trkpt lat="45.81932" lon="1.87799">
        <ele>701.4</ele>
        <time>2026-07-09T08:02:56.000Z</time>
      </trkpt>
      <trkpt lat="45.81934" lon="1.87797">
        <ele>700.8</ele>
        <time>2026-07-09T08:02:57.000Z</time>
      </trkpt>
      <trkpt lat="45.81932" lon="1.87796">
        <ele>700.5</ele>
        <time>2026-07-09T08:02:58.000Z</time>
      </trkpt>
      <trkpt lat="45.81932" lon="1.87796">
        <ele>700.5</ele>
        <time>2026-07-09T08:02:59.000Z</time>
      </trkpt>
      <trkpt lat="45.81932" lon="1.87796">
        <ele>700.5</ele>
        <time>2026-07-09T08:03:00.000Z</time>
      </trkpt>
      <trkpt lat="45.81932" lon="1.87796">
        <ele>700.5</ele>
        <time>2026-07-09T08:03:01.000Z</time>
      </trkpt>
      <trkpt lat="45.81932" lon="1.87796">
        <ele>700.5</ele>
        <time>2026-07-09T08:03:02.000Z</time>
      </trkpt>
      <trkpt lat="45.81932" lon="1.87796">
        <ele>700.5</ele>
        <time>2026-07-09T08:03:03.000Z</time>
      </trkpt>
      <trkpt lat="45.81932" lon="1.87796">
        <ele>700.5</ele>
        <time>2026-07-09T08:03:04.000Z</time>
      </trkpt>
      <trkpt lat="45.81933" lon="1.87796">
        <ele>701</ele>
        <time>2026-07-09T08:03:05.000Z</time>
      </trkpt>
      <trkpt lat="45.81934" lon="1.87795">
        <ele>701.1</ele>
        <time>2026-07-09T08:03:06.000Z</time>
      </trkpt>
      <trkpt lat="45.81936" lon="1.87794">
        <ele>700.9</ele>
        <time>2026-07-09T08:03:07.000Z</time>
      </trkpt>
      <trkpt lat="45.81937" lon="1.87794">
        <ele>700.3</ele>
        <time>2026-07-09T08:03:08.000Z</time>
      </trkpt>
      <trkpt lat="45.81938" lon="1.87795">
        <ele>702.1</ele>
        <time>2026-07-09T08:03:09.000Z</time>
      </trkpt>
      <trkpt lat="45.8194" lon="1.87794">
        <ele>701.5</ele>
        <time>2026-07-09T08:03:10.000Z</time>
      </trkpt>
      <trkpt lat="45.8194" lon="1.87793">
        <ele>702.2</ele>
        <time>2026-07-09T08:03:11.000Z</time>
      </trkpt>
      <trkpt lat="45.81942" lon="1.87793">
        <ele>702.5</ele>
        <time>2026-07-09T08:03:12.000Z</time>
      </trkpt>
      <trkpt lat="45.81942" lon="1.87792">
        <ele>701.6</ele>
        <time>2026-07-09T08:03:13.000Z</time>
      </trkpt>
      <trkpt lat="45.81941" lon="1.87791">
        <ele>702.7</ele>
        <time>2026-07-09T08:03:14.000Z</time>
      </trkpt>
      <trkpt lat="45.81941" lon="1.87791">
        <ele>702.8</ele>
        <time>2026-07-09T08:03:15.000Z</time>
      </trkpt>
      <trkpt lat="45.81939" lon="1.87792">
        <ele>702</ele>
        <time>2026-07-09T08:03:16.000Z</time>
      </trkpt>
      <trkpt lat="45.81939" lon="1.87793">
        <ele>702.2</ele>
        <time>2026-07-09T08:03:17.000Z</time>
      </trkpt>
      <trkpt lat="45.81939" lon="1.87793">
        <ele>702.2</ele>
        <time>2026-07-09T08:03:18.000Z</time>
      </trkpt>
      <trkpt lat="45.81939" lon="1.87793">
        <ele>702.2</ele>
        <time>2026-07-09T08:03:19.000Z</time>
      </trkpt>
      <trkpt lat="45.81939" lon="1.87793">
        <ele>702.1</ele>
        <time>2026-07-09T08:03:20.000Z</time>
      </trkpt>
      <trkpt lat="45.81939" lon="1.87793">
        <ele>702.1</ele>
        <time>2026-07-09T08:03:21.000Z</time>
      </trkpt>
      <trkpt lat="45.81939" lon="1.87793">
        <ele>702.1</ele>
        <time>2026-07-09T08:03:22.000Z</time>
      </trkpt>
      <trkpt lat="45.81939" lon="1.87793">
        <ele>702.1</ele>
        <time>2026-07-09T08:03:23.000Z</time>
      </trkpt>
      <trkpt lat="45.81939" lon="1.87793">
        <ele>703</ele>
        <time>2026-07-09T08:03:24.000Z</time>
      </trkpt>
      <trkpt lat="45.8194" lon="1.87794">
        <ele>703.1</ele>
        <time>2026-07-09T08:03:25.000Z</time>
      </trkpt>
      <trkpt lat="45.8194" lon="1.87794">
        <ele>703.8</ele>
        <time>2026-07-09T08:03:26.000Z</time>
      </trkpt>
      <trkpt lat="45.81939" lon="1.87794">
        <ele>704</ele>
        <time>2026-07-09T08:03:27.000Z</time>
      </trkpt>
      <trkpt lat="45.81939" lon="1.87794">
        <ele>704</ele>
        <time>2026-07-09T08:03:28.000Z</time>
      </trkpt>
      <trkpt lat="45.81939" lon="1.87795">
        <ele>704.5</ele>
        <time>2026-07-09T08:03:29.000Z</time>
      </trkpt>
      <trkpt lat="45.81938" lon="1.87799">
        <ele>704.6</ele>
        <time>2026-07-09T08:03:30.000Z</time>
      </trkpt>
      <trkpt lat="45.81938" lon="1.87801">
        <ele>703.9</ele>
        <time>2026-07-09T08:03:31.000Z</time>
      </trkpt>
      <trkpt lat="45.81939" lon="1.87802">
        <ele>704.5</ele>
        <time>2026-07-09T08:03:32.000Z</time>
      </trkpt>
      <trkpt lat="45.81939" lon="1.87803">
        <ele>705.5</ele>
        <time>2026-07-09T08:03:33.000Z</time>
      </trkpt>
      <trkpt lat="45.8194" lon="1.87803">
        <ele>704.7</ele>
        <time>2026-07-09T08:03:34.000Z</time>
      </trkpt>
      <trkpt lat="45.81939" lon="1.87801">
        <ele>701.5</ele>
        <time>2026-07-09T08:03:35.000Z</time>
      </trkpt>
      <trkpt lat="45.81941" lon="1.87803">
        <ele>703.6</ele>
        <time>2026-07-09T08:03:36.000Z</time>
      </trkpt>
      <trkpt lat="45.81942" lon="1.87804">
        <ele>704.6</ele>
        <time>2026-07-09T08:03:37.000Z</time>
      </trkpt>
      <trkpt lat="45.81942" lon="1.87804">
        <ele>704.6</ele>
        <time>2026-07-09T08:03:38.000Z</time>
      </trkpt>
      <trkpt lat="45.81942" lon="1.87804">
        <ele>704.5</ele>
        <time>2026-07-09T08:03:39.000Z</time>
      </trkpt>
      <trkpt lat="45.81943" lon="1.87799">
        <ele>705.8</ele>
        <time>2026-07-09T08:03:40.000Z</time>
      </trkpt>
      <trkpt lat="45.81944" lon="1.87794">
        <ele>706.7</ele>
        <time>2026-07-09T08:03:41.000Z</time>
      </trkpt>
      <trkpt lat="45.81944" lon="1.87794">
        <ele>707</ele>
        <time>2026-07-09T08:03:42.000Z</time>
      </trkpt>
      <trkpt lat="45.81944" lon="1.87794">
        <ele>707.7</ele>
        <time>2026-07-09T08:03:43.000Z</time>
      </trkpt>
      <trkpt lat="45.81949" lon="1.87789">
        <ele>706.8</ele>
        <time>2026-07-09T08:03:44.000Z</time>
      </trkpt>
      <trkpt lat="45.81954" lon="1.87792">
        <ele>706.7</ele>
        <time>2026-07-09T08:03:45.000Z</time>
      </trkpt>
      <trkpt lat="45.81959" lon="1.87794">
        <ele>706.9</ele>
        <time>2026-07-09T08:03:46.000Z</time>
      </trkpt>
      <trkpt lat="45.81957" lon="1.87795">
        <ele>706.2</ele>
        <time>2026-07-09T08:03:47.000Z</time>
      </trkpt>
      <trkpt lat="45.81948" lon="1.87802">
        <ele>706.9</ele>
        <time>2026-07-09T08:03:48.000Z</time>
      </trkpt>
      <trkpt lat="45.81944" lon="1.87807">
        <ele>706.9</ele>
        <time>2026-07-09T08:03:49.000Z</time>
      </trkpt>
      <trkpt lat="45.81946" lon="1.87812">
        <ele>706.4</ele>
        <time>2026-07-09T08:03:50.000Z</time>
      </trkpt>
      <trkpt lat="45.81947" lon="1.87813">
        <ele>707.2</ele>
        <time>2026-07-09T08:03:51.000Z</time>
      </trkpt>
      <trkpt lat="45.81949" lon="1.87809">
        <ele>707</ele>
        <time>2026-07-09T08:03:52.000Z</time>
      </trkpt>
      <trkpt lat="45.81948" lon="1.87805">
        <ele>706.9</ele>
        <time>2026-07-09T08:03:53.000Z</time>
      </trkpt>
      <trkpt lat="45.8195" lon="1.87805">
        <ele>707.1</ele>
        <time>2026-07-09T08:03:54.000Z</time>
      </trkpt>
      <trkpt lat="45.8195" lon="1.87809">
        <ele>707.1</ele>
        <time>2026-07-09T08:03:55.000Z</time>
      </trkpt>
      <trkpt lat="45.81948" lon="1.87808">
        <ele>706.7</ele>
        <time>2026-07-09T08:03:56.000Z</time>
      </trkpt>
      <trkpt lat="45.81947" lon="1.8781">
        <ele>707.3</ele>
        <time>2026-07-09T08:03:57.000Z</time>
      </trkpt>
      <trkpt lat="45.8195" lon="1.87811">
        <ele>707.2</ele>
        <time>2026-07-09T08:03:58.000Z</time>
      </trkpt>
      <trkpt lat="45.8195" lon="1.87811">
        <ele>708.1</ele>
        <time>2026-07-09T08:03:59.000Z</time>
      </trkpt>
      <trkpt lat="45.8195" lon="1.8781">
        <ele>708.7</ele>
        <time>2026-07-09T08:04:00.000Z</time>
      </trkpt>
      <trkpt lat="45.81951" lon="1.8781">
        <ele>708.5</ele>
        <time>2026-07-09T08:04:01.000Z</time>
      </trkpt>
      <trkpt lat="45.81952" lon="1.87808">
        <ele>707.3</ele>
        <time>2026-07-09T08:04:02.000Z</time>
      </trkpt>
      <trkpt lat="45.81953" lon="1.87807">
        <ele>706.4</ele>
        <time>2026-07-09T08:04:03.000Z</time>
      </trkpt>
      <trkpt lat="45.81954" lon="1.87806">
        <ele>705.6</ele>
        <time>2026-07-09T08:04:04.000Z</time>
      </trkpt>
      <trkpt lat="45.81954" lon="1.87805">
        <ele>704.6</ele>
        <time>2026-07-09T08:04:05.000Z</time>
      </trkpt>
      <trkpt lat="45.81956" lon="1.87804">
        <ele>703.7</ele>
        <time>2026-07-09T08:04:06.000Z</time>
      </trkpt>
      <trkpt lat="45.81957" lon="1.87803">
        <ele>703.2</ele>
        <time>2026-07-09T08:04:07.000Z</time>
      </trkpt>
      <trkpt lat="45.81959" lon="1.87802">
        <ele>703.9</ele>
        <time>2026-07-09T08:04:08.000Z</time>
      </trkpt>
      <trkpt lat="45.81961" lon="1.87802">
        <ele>704.1</ele>
        <time>2026-07-09T08:04:09.000Z</time>
      </trkpt>
      <trkpt lat="45.81962" lon="1.87801">
        <ele>704.3</ele>
        <time>2026-07-09T08:04:10.000Z</time>
      </trkpt>
      <trkpt lat="45.81964" lon="1.87801">
        <ele>703.3</ele>
        <time>2026-07-09T08:04:11.000Z</time>
      </trkpt>
      <trkpt lat="45.81966" lon="1.87801">
        <ele>703</ele>
        <time>2026-07-09T08:04:12.000Z</time>
      </trkpt>
      <trkpt lat="45.81967" lon="1.878">
        <ele>704.1</ele>
        <time>2026-07-09T08:04:13.000Z</time>
      </trkpt>
      <trkpt lat="45.8197" lon="1.87801">
        <ele>704.3</ele>
        <time>2026-07-09T08:04:14.000Z</time>
      </trkpt>
      <trkpt lat="45.81972" lon="1.87802">
        <ele>703.8</ele>
        <time>2026-07-09T08:04:15.000Z</time>
      </trkpt>
      <trkpt lat="45.81974" lon="1.87802">
        <ele>704.1</ele>
        <time>2026-07-09T08:04:16.000Z</time>
      </trkpt>
      <trkpt lat="45.81976" lon="1.87803">
        <ele>704.6</ele>
        <time>2026-07-09T08:04:17.000Z</time>
      </trkpt>
      <trkpt lat="45.81979" lon="1.87803">
        <ele>703.7</ele>
        <time>2026-07-09T08:04:18.000Z</time>
      </trkpt>
      <trkpt lat="45.81981" lon="1.87802">
        <ele>703.9</ele>
        <time>2026-07-09T08:04:19.000Z</time>
      </trkpt>
      <trkpt lat="45.81985" lon="1.87802">
        <ele>702.9</ele>
        <time>2026-07-09T08:04:20.000Z</time>
      </trkpt>
      <trkpt lat="45.81987" lon="1.87799">
        <ele>703.1</ele>
        <time>2026-07-09T08:04:21.000Z</time>
      </trkpt>
      <trkpt lat="45.81989" lon="1.87795">
        <ele>701.9</ele>
        <time>2026-07-09T08:04:22.000Z</time>
      </trkpt>
      <trkpt lat="45.8199" lon="1.87792">
        <ele>702</ele>
        <time>2026-07-09T08:04:23.000Z</time>
      </trkpt>
      <trkpt lat="45.8199" lon="1.87787">
        <ele>702.7</ele>
        <time>2026-07-09T08:04:24.000Z</time>
      </trkpt>
      <trkpt lat="45.81991" lon="1.87782">
        <ele>703</ele>
        <time>2026-07-09T08:04:25.000Z</time>
      </trkpt>
      <trkpt lat="45.8199" lon="1.87778">
        <ele>702.6</ele>
        <time>2026-07-09T08:04:26.000Z</time>
      </trkpt>
      <trkpt lat="45.8199" lon="1.87773">
        <ele>702.4</ele>
        <time>2026-07-09T08:04:27.000Z</time>
      </trkpt>
      <trkpt lat="45.81991" lon="1.87769">
        <ele>703.2</ele>
        <time>2026-07-09T08:04:28.000Z</time>
      </trkpt>
      <trkpt lat="45.8199" lon="1.87765">
        <ele>703.4</ele>
        <time>2026-07-09T08:04:29.000Z</time>
      </trkpt>
      <trkpt lat="45.81989" lon="1.87759">
        <ele>703.5</ele>
        <time>2026-07-09T08:04:30.000Z</time>
      </trkpt>
      <trkpt lat="45.81988" lon="1.87753">
        <ele>703.4</ele>
        <time>2026-07-09T08:04:31.000Z</time>
      </trkpt>
      <trkpt lat="45.81986" lon="1.87746">
        <ele>704.4</ele>
        <time>2026-07-09T08:04:32.000Z</time>
      </trkpt>
      <trkpt lat="45.81984" lon="1.87741">
        <ele>704.7</ele>
        <time>2026-07-09T08:04:33.000Z</time>
      </trkpt>
      <trkpt lat="45.81983" lon="1.87734">
        <ele>705.6</ele>
        <time>2026-07-09T08:04:34.000Z</time>
      </trkpt>
      <trkpt lat="45.81982" lon="1.87727">
        <ele>706.1</ele>
        <time>2026-07-09T08:04:35.000Z</time>
      </trkpt>
      <trkpt lat="45.81984" lon="1.8772">
        <ele>706.2</ele>
        <time>2026-07-09T08:04:36.000Z</time>
      </trkpt>
      <trkpt lat="45.81985" lon="1.87714">
        <ele>705.7</ele>
        <time>2026-07-09T08:04:37.000Z</time>
      </trkpt>
      <trkpt lat="45.81985" lon="1.87708">
        <ele>704.6</ele>
        <time>2026-07-09T08:04:38.000Z</time>
      </trkpt>
      <trkpt lat="45.81985" lon="1.87702">
        <ele>704.4</ele>
        <time>2026-07-09T08:04:39.000Z</time>
      </trkpt>
      <trkpt lat="45.81985" lon="1.87695">
        <ele>704.4</ele>
        <time>2026-07-09T08:04:40.000Z</time>
      </trkpt>
      <trkpt lat="45.81986" lon="1.87688">
        <ele>704.4</ele>
        <time>2026-07-09T08:04:41.000Z</time>
      </trkpt>
      <trkpt lat="45.81988" lon="1.87681">
        <ele>703.9</ele>
        <time>2026-07-09T08:04:42.000Z</time>
      </trkpt>
      <trkpt lat="45.8199" lon="1.87676">
        <ele>705.1</ele>
        <time>2026-07-09T08:04:43.000Z</time>
      </trkpt>
      <trkpt lat="45.81993" lon="1.87672">
        <ele>705</ele>
        <time>2026-07-09T08:04:44.000Z</time>
      </trkpt>
      <trkpt lat="45.81997" lon="1.87668">
        <ele>703.3</ele>
        <time>2026-07-09T08:04:45.000Z</time>
      </trkpt>
      <trkpt lat="45.82001" lon="1.87665">
        <ele>702.8</ele>
        <time>2026-07-09T08:04:46.000Z</time>
      </trkpt>
      <trkpt lat="45.82006" lon="1.87661">
        <ele>704</ele>
        <time>2026-07-09T08:04:47.000Z</time>
      </trkpt>
      <trkpt lat="45.8201" lon="1.87657">
        <ele>703.7</ele>
        <time>2026-07-09T08:04:48.000Z</time>
      </trkpt>
      <trkpt lat="45.82014" lon="1.87652">
        <ele>703.5</ele>
        <time>2026-07-09T08:04:49.000Z</time>
      </trkpt>
      <trkpt lat="45.8202" lon="1.87646">
        <ele>704.3</ele>
        <time>2026-07-09T08:04:50.000Z</time>
      </trkpt>
      <trkpt lat="45.82024" lon="1.87641">
        <ele>705.2</ele>
        <time>2026-07-09T08:04:51.000Z</time>
      </trkpt>
      <trkpt lat="45.82028" lon="1.87637">
        <ele>704.6</ele>
        <time>2026-07-09T08:04:52.000Z</time>
      </trkpt>
      <trkpt lat="45.82031" lon="1.87632">
        <ele>704.4</ele>
        <time>2026-07-09T08:04:53.000Z</time>
      </trkpt>
      <trkpt lat="45.82035" lon="1.87627">
        <ele>704.9</ele>
        <time>2026-07-09T08:04:54.000Z</time>
      </trkpt>
      <trkpt lat="45.82039" lon="1.87621">
        <ele>704</ele>
        <time>2026-07-09T08:04:55.000Z</time>
      </trkpt>
      <trkpt lat="45.82043" lon="1.87616">
        <ele>704.1</ele>
        <time>2026-07-09T08:04:56.000Z</time>
      </trkpt>
      <trkpt lat="45.82047" lon="1.87612">
        <ele>705.1</ele>
        <time>2026-07-09T08:04:57.000Z</time>
      </trkpt>
      <trkpt lat="45.82051" lon="1.87608">
        <ele>705.8</ele>
        <time>2026-07-09T08:04:58.000Z</time>
      </trkpt>
      <trkpt lat="45.82054" lon="1.87604">
        <ele>707.3</ele>
        <time>2026-07-09T08:04:59.000Z</time>
      </trkpt>
      <trkpt lat="45.82057" lon="1.87599">
        <ele>707.1</ele>
        <time>2026-07-09T08:05:00.000Z</time>
      </trkpt>
      <trkpt lat="45.82061" lon="1.87596">
        <ele>708.5</ele>
        <time>2026-07-09T08:05:01.000Z</time>
      </trkpt>
      <trkpt lat="45.82064" lon="1.87592">
        <ele>707.7</ele>
        <time>2026-07-09T08:05:02.000Z</time>
      </trkpt>
      <trkpt lat="45.82067" lon="1.87589">
        <ele>708.1</ele>
        <time>2026-07-09T08:05:03.000Z</time>
      </trkpt>
      <trkpt lat="45.82069" lon="1.87586">
        <ele>707.3</ele>
        <time>2026-07-09T08:05:04.000Z</time>
      </trkpt>
      <trkpt lat="45.8207" lon="1.87581">
        <ele>706.8</ele>
        <time>2026-07-09T08:05:05.000Z</time>
      </trkpt>
      <trkpt lat="45.82073" lon="1.87575">
        <ele>705.8</ele>
        <time>2026-07-09T08:05:06.000Z</time>
      </trkpt>
      <trkpt lat="45.82076" lon="1.87568">
        <ele>705.9</ele>
        <time>2026-07-09T08:05:07.000Z</time>
      </trkpt>
      <trkpt lat="45.82078" lon="1.87562">
        <ele>706.1</ele>
        <time>2026-07-09T08:05:08.000Z</time>
      </trkpt>
      <trkpt lat="45.8208" lon="1.87556">
        <ele>706.2</ele>
        <time>2026-07-09T08:05:09.000Z</time>
      </trkpt>
      <trkpt lat="45.82083" lon="1.87553">
        <ele>705.2</ele>
        <time>2026-07-09T08:05:10.000Z</time>
      </trkpt>
      <trkpt lat="45.82086" lon="1.87547">
        <ele>705.7</ele>
        <time>2026-07-09T08:05:11.000Z</time>
      </trkpt>
      <trkpt lat="45.82088" lon="1.8754">
        <ele>705.1</ele>
        <time>2026-07-09T08:05:12.000Z</time>
      </trkpt>
      <trkpt lat="45.82087" lon="1.87542">
        <ele>703</ele>
        <time>2026-07-09T08:05:13.000Z</time>
      </trkpt>
      <trkpt lat="45.82088" lon="1.87541">
        <ele>703.1</ele>
        <time>2026-07-09T08:05:14.000Z</time>
      </trkpt>
      <trkpt lat="45.8209" lon="1.87539">
        <ele>704</ele>
        <time>2026-07-09T08:05:15.000Z</time>
      </trkpt>
      <trkpt lat="45.82092" lon="1.87536">
        <ele>704.1</ele>
        <time>2026-07-09T08:05:16.000Z</time>
      </trkpt>
      <trkpt lat="45.82095" lon="1.87532">
        <ele>704.9</ele>
        <time>2026-07-09T08:05:17.000Z</time>
      </trkpt>
      <trkpt lat="45.82099" lon="1.87528">
        <ele>707</ele>
        <time>2026-07-09T08:05:18.000Z</time>
      </trkpt>
      <trkpt lat="45.82102" lon="1.87523">
        <ele>707.8</ele>
        <time>2026-07-09T08:05:19.000Z</time>
      </trkpt>
      <trkpt lat="45.82106" lon="1.87518">
        <ele>708.3</ele>
        <time>2026-07-09T08:05:20.000Z</time>
      </trkpt>
      <trkpt lat="45.82111" lon="1.87516">
        <ele>708.4</ele>
        <time>2026-07-09T08:05:21.000Z</time>
      </trkpt>
      <trkpt lat="45.82113" lon="1.8751">
        <ele>707.8</ele>
        <time>2026-07-09T08:05:22.000Z</time>
      </trkpt>
      <trkpt lat="45.82118" lon="1.87504">
        <ele>707.7</ele>
        <time>2026-07-09T08:05:23.000Z</time>
      </trkpt>
      <trkpt lat="45.82124" lon="1.87501">
        <ele>709.1</ele>
        <time>2026-07-09T08:05:24.000Z</time>
      </trkpt>
      <trkpt lat="45.82127" lon="1.87498">
        <ele>708.9</ele>
        <time>2026-07-09T08:05:25.000Z</time>
      </trkpt>
      <trkpt lat="45.82131" lon="1.87496">
        <ele>709.1</ele>
        <time>2026-07-09T08:05:26.000Z</time>
      </trkpt>
      <trkpt lat="45.82135" lon="1.87494">
        <ele>709.3</ele>
        <time>2026-07-09T08:05:27.000Z</time>
      </trkpt>
      <trkpt lat="45.82139" lon="1.87494">
        <ele>709.4</ele>
        <time>2026-07-09T08:05:28.000Z</time>
      </trkpt>
      <trkpt lat="45.82143" lon="1.87494">
        <ele>709.1</ele>
        <time>2026-07-09T08:05:29.000Z</time>
      </trkpt>
      <trkpt lat="45.82146" lon="1.87493">
        <ele>707.8</ele>
        <time>2026-07-09T08:05:30.000Z</time>
      </trkpt>
      <trkpt lat="45.82149" lon="1.87494">
        <ele>707.9</ele>
        <time>2026-07-09T08:05:31.000Z</time>
      </trkpt>
      <trkpt lat="45.82153" lon="1.87492">
        <ele>707.7</ele>
        <time>2026-07-09T08:05:32.000Z</time>
      </trkpt>
      <trkpt lat="45.82158" lon="1.8749">
        <ele>707.5</ele>
        <time>2026-07-09T08:05:33.000Z</time>
      </trkpt>
      <trkpt lat="45.8216" lon="1.87487">
        <ele>706.4</ele>
        <time>2026-07-09T08:05:34.000Z</time>
      </trkpt>
      <trkpt lat="45.82162" lon="1.87486">
        <ele>705.9</ele>
        <time>2026-07-09T08:05:35.000Z</time>
      </trkpt>
      <trkpt lat="45.82166" lon="1.87483">
        <ele>705.7</ele>
        <time>2026-07-09T08:05:36.000Z</time>
      </trkpt>
      <trkpt lat="45.8217" lon="1.87479">
        <ele>705.7</ele>
        <time>2026-07-09T08:05:37.000Z</time>
      </trkpt>
      <trkpt lat="45.82174" lon="1.87475">
        <ele>707.2</ele>
        <time>2026-07-09T08:05:38.000Z</time>
      </trkpt>
      <trkpt lat="45.82177" lon="1.87475">
        <ele>711.1</ele>
        <time>2026-07-09T08:05:39.000Z</time>
      </trkpt>
      <trkpt lat="45.8218" lon="1.87476">
        <ele>713</ele>
        <time>2026-07-09T08:05:40.000Z</time>
      </trkpt>
      <trkpt lat="45.82182" lon="1.87474">
        <ele>712.9</ele>
        <time>2026-07-09T08:05:41.000Z</time>
      </trkpt>
      <trkpt lat="45.82184" lon="1.87471">
        <ele>712.2</ele>
        <time>2026-07-09T08:05:42.000Z</time>
      </trkpt>
      <trkpt lat="45.82185" lon="1.87469">
        <ele>708.9</ele>
        <time>2026-07-09T08:05:43.000Z</time>
      </trkpt>
      <trkpt lat="45.82185" lon="1.87466">
        <ele>706.1</ele>
        <time>2026-07-09T08:05:44.000Z</time>
      </trkpt>
      <trkpt lat="45.8219" lon="1.87467">
        <ele>705.9</ele>
        <time>2026-07-09T08:05:45.000Z</time>
      </trkpt>
      <trkpt lat="45.82193" lon="1.87467">
        <ele>705</ele>
        <time>2026-07-09T08:05:46.000Z</time>
      </trkpt>
      <trkpt lat="45.82194" lon="1.8747">
        <ele>703.9</ele>
        <time>2026-07-09T08:05:47.000Z</time>
      </trkpt>
      <trkpt lat="45.82195" lon="1.87471">
        <ele>703.2</ele>
        <time>2026-07-09T08:05:48.000Z</time>
      </trkpt>
      <trkpt lat="45.82196" lon="1.87473">
        <ele>702.2</ele>
        <time>2026-07-09T08:05:49.000Z</time>
      </trkpt>
      <trkpt lat="45.82197" lon="1.87474">
        <ele>701.5</ele>
        <time>2026-07-09T08:05:50.000Z</time>
      </trkpt>
      <trkpt lat="45.82199" lon="1.87475">
        <ele>701.1</ele>
        <time>2026-07-09T08:05:51.000Z</time>
      </trkpt>
      <trkpt lat="45.822" lon="1.87477">
        <ele>700.2</ele>
        <time>2026-07-09T08:05:52.000Z</time>
      </trkpt>
      <trkpt lat="45.82202" lon="1.87479">
        <ele>700.2</ele>
        <time>2026-07-09T08:05:53.000Z</time>
      </trkpt>
      <trkpt lat="45.82203" lon="1.8748">
        <ele>700</ele>
        <time>2026-07-09T08:05:54.000Z</time>
      </trkpt>
      <trkpt lat="45.82205" lon="1.87481">
        <ele>700.5</ele>
        <time>2026-07-09T08:05:55.000Z</time>
      </trkpt>
      <trkpt lat="45.82206" lon="1.87482">
        <ele>700.9</ele>
        <time>2026-07-09T08:05:56.000Z</time>
      </trkpt>
      <trkpt lat="45.82207" lon="1.87484">
        <ele>700.3</ele>
        <time>2026-07-09T08:05:57.000Z</time>
      </trkpt>
      <trkpt lat="45.82209" lon="1.87487">
        <ele>701.5</ele>
        <time>2026-07-09T08:05:58.000Z</time>
      </trkpt>
      <trkpt lat="45.82211" lon="1.8749">
        <ele>701.9</ele>
        <time>2026-07-09T08:05:59.000Z</time>
      </trkpt>
      <trkpt lat="45.82212" lon="1.87493">
        <ele>702.9</ele>
        <time>2026-07-09T08:06:00.000Z</time>
      </trkpt>
      <trkpt lat="45.82214" lon="1.87495">
        <ele>703.5</ele>
        <time>2026-07-09T08:06:01.000Z</time>
      </trkpt>
      <trkpt lat="45.82215" lon="1.87498">
        <ele>703.7</ele>
        <time>2026-07-09T08:06:02.000Z</time>
      </trkpt>
      <trkpt lat="45.82217" lon="1.87499">
        <ele>703.8</ele>
        <time>2026-07-09T08:06:03.000Z</time>
      </trkpt>
      <trkpt lat="45.82219" lon="1.87501">
        <ele>703.9</ele>
        <time>2026-07-09T08:06:04.000Z</time>
      </trkpt>
      <trkpt lat="45.82221" lon="1.87502">
        <ele>703.9</ele>
        <time>2026-07-09T08:06:05.000Z</time>
      </trkpt>
      <trkpt lat="45.82222" lon="1.87503">
        <ele>704</ele>
        <time>2026-07-09T08:06:06.000Z</time>
      </trkpt>
      <trkpt lat="45.82224" lon="1.87505">
        <ele>704.2</ele>
        <time>2026-07-09T08:06:07.000Z</time>
      </trkpt>
      <trkpt lat="45.82226" lon="1.87505">
        <ele>704</ele>
        <time>2026-07-09T08:06:08.000Z</time>
      </trkpt>
      <trkpt lat="45.82227" lon="1.87506">
        <ele>704</ele>
        <time>2026-07-09T08:06:09.000Z</time>
      </trkpt>
      <trkpt lat="45.82229" lon="1.87507">
        <ele>703.9</ele>
        <time>2026-07-09T08:06:10.000Z</time>
      </trkpt>
      <trkpt lat="45.8223" lon="1.87508">
        <ele>704.1</ele>
        <time>2026-07-09T08:06:11.000Z</time>
      </trkpt>
      <trkpt lat="45.82231" lon="1.87509">
        <ele>704.1</ele>
        <time>2026-07-09T08:06:12.000Z</time>
      </trkpt>
      <trkpt lat="45.82232" lon="1.8751">
        <ele>704.2</ele>
        <time>2026-07-09T08:06:13.000Z</time>
      </trkpt>
      <trkpt lat="45.82233" lon="1.87511">
        <ele>704.2</ele>
        <time>2026-07-09T08:06:14.000Z</time>
      </trkpt>
      <trkpt lat="45.82234" lon="1.87512">
        <ele>704.3</ele>
        <time>2026-07-09T08:06:15.000Z</time>
      </trkpt>
      <trkpt lat="45.82235" lon="1.87514">
        <ele>704.2</ele>
        <time>2026-07-09T08:06:16.000Z</time>
      </trkpt>
      <trkpt lat="45.82236" lon="1.87515">
        <ele>704.5</ele>
        <time>2026-07-09T08:06:17.000Z</time>
      </trkpt>
      <trkpt lat="45.82238" lon="1.87516">
        <ele>704.1</ele>
        <time>2026-07-09T08:06:18.000Z</time>
      </trkpt>
      <trkpt lat="45.82239" lon="1.87517">
        <ele>703.9</ele>
        <time>2026-07-09T08:06:19.000Z</time>
      </trkpt>
      <trkpt lat="45.8224" lon="1.87517">
        <ele>703.9</ele>
        <time>2026-07-09T08:06:20.000Z</time>
      </trkpt>
      <trkpt lat="45.82242" lon="1.87518">
        <ele>704.2</ele>
        <time>2026-07-09T08:06:21.000Z</time>
      </trkpt>
      <trkpt lat="45.82244" lon="1.87518">
        <ele>703.9</ele>
        <time>2026-07-09T08:06:22.000Z</time>
      </trkpt>
      <trkpt lat="45.82245" lon="1.87519">
        <ele>703.9</ele>
        <time>2026-07-09T08:06:23.000Z</time>
      </trkpt>
      <trkpt lat="45.82247" lon="1.8752">
        <ele>703.7</ele>
        <time>2026-07-09T08:06:24.000Z</time>
      </trkpt>
      <trkpt lat="45.82248" lon="1.87521">
        <ele>703.7</ele>
        <time>2026-07-09T08:06:25.000Z</time>
      </trkpt>
      <trkpt lat="45.8225" lon="1.87522">
        <ele>703.3</ele>
        <time>2026-07-09T08:06:26.000Z</time>
      </trkpt>
      <trkpt lat="45.82251" lon="1.87522">
        <ele>703.5</ele>
        <time>2026-07-09T08:06:27.000Z</time>
      </trkpt>
      <trkpt lat="45.82253" lon="1.87523">
        <ele>702.9</ele>
        <time>2026-07-09T08:06:28.000Z</time>
      </trkpt>
      <trkpt lat="45.82254" lon="1.87523">
        <ele>702.4</ele>
        <time>2026-07-09T08:06:29.000Z</time>
      </trkpt>
      <trkpt lat="45.82255" lon="1.87524">
        <ele>702.1</ele>
        <time>2026-07-09T08:06:30.000Z</time>
      </trkpt>
      <trkpt lat="45.82257" lon="1.87524">
        <ele>701.9</ele>
        <time>2026-07-09T08:06:31.000Z</time>
      </trkpt>
      <trkpt lat="45.82259" lon="1.87525">
        <ele>701.7</ele>
        <time>2026-07-09T08:06:32.000Z</time>
      </trkpt>
      <trkpt lat="45.8226" lon="1.87525">
        <ele>701.6</ele>
        <time>2026-07-09T08:06:33.000Z</time>
      </trkpt>
      <trkpt lat="45.82262" lon="1.87527">
        <ele>701.7</ele>
        <time>2026-07-09T08:06:34.000Z</time>
      </trkpt>
      <trkpt lat="45.82263" lon="1.87528">
        <ele>701.5</ele>
        <time>2026-07-09T08:06:35.000Z</time>
      </trkpt>
      <trkpt lat="45.82265" lon="1.87529">
        <ele>702.2</ele>
        <time>2026-07-09T08:06:36.000Z</time>
      </trkpt>
      <trkpt lat="45.82266" lon="1.8753">
        <ele>701.8</ele>
        <time>2026-07-09T08:06:37.000Z</time>
      </trkpt>
      <trkpt lat="45.82268" lon="1.87531">
        <ele>701.4</ele>
        <time>2026-07-09T08:06:38.000Z</time>
      </trkpt>
      <trkpt lat="45.82269" lon="1.87532">
        <ele>701.6</ele>
        <time>2026-07-09T08:06:39.000Z</time>
      </trkpt>
      <trkpt lat="45.8227" lon="1.87533">
        <ele>701.3</ele>
        <time>2026-07-09T08:06:40.000Z</time>
      </trkpt>
      <trkpt lat="45.82272" lon="1.87534">
        <ele>700.8</ele>
        <time>2026-07-09T08:06:41.000Z</time>
      </trkpt>
      <trkpt lat="45.82273" lon="1.87534">
        <ele>700.8</ele>
        <time>2026-07-09T08:06:42.000Z</time>
      </trkpt>
      <trkpt lat="45.82275" lon="1.87534">
        <ele>700.7</ele>
        <time>2026-07-09T08:06:43.000Z</time>
      </trkpt>
      <trkpt lat="45.82277" lon="1.87533">
        <ele>700.3</ele>
        <time>2026-07-09T08:06:44.000Z</time>
      </trkpt>
      <trkpt lat="45.82279" lon="1.87532">
        <ele>700.2</ele>
        <time>2026-07-09T08:06:45.000Z</time>
      </trkpt>
      <trkpt lat="45.8228" lon="1.87531">
        <ele>701.2</ele>
        <time>2026-07-09T08:06:46.000Z</time>
      </trkpt>
      <trkpt lat="45.82281" lon="1.87529">
        <ele>701.5</ele>
        <time>2026-07-09T08:06:47.000Z</time>
      </trkpt>
      <trkpt lat="45.82282" lon="1.87526">
        <ele>701.7</ele>
        <time>2026-07-09T08:06:48.000Z</time>
      </trkpt>
      <trkpt lat="45.82283" lon="1.87524">
        <ele>702</ele>
        <time>2026-07-09T08:06:49.000Z</time>
      </trkpt>
      <trkpt lat="45.82284" lon="1.87522">
        <ele>702.1</ele>
        <time>2026-07-09T08:06:50.000Z</time>
      </trkpt>
      <trkpt lat="45.82285" lon="1.8752">
        <ele>701.7</ele>
        <time>2026-07-09T08:06:51.000Z</time>
      </trkpt>
      <trkpt lat="45.82285" lon="1.87517">
        <ele>702</ele>
        <time>2026-07-09T08:06:52.000Z</time>
      </trkpt>
      <trkpt lat="45.82286" lon="1.87515">
        <ele>701.6</ele>
        <time>2026-07-09T08:06:53.000Z</time>
      </trkpt>
      <trkpt lat="45.82287" lon="1.87513">
        <ele>701.2</ele>
        <time>2026-07-09T08:06:54.000Z</time>
      </trkpt>
      <trkpt lat="45.82288" lon="1.87511">
        <ele>701.1</ele>
        <time>2026-07-09T08:06:55.000Z</time>
      </trkpt>
      <trkpt lat="45.82289" lon="1.87508">
        <ele>701.3</ele>
        <time>2026-07-09T08:06:56.000Z</time>
      </trkpt>
      <trkpt lat="45.8229" lon="1.87506">
        <ele>703</ele>
        <time>2026-07-09T08:06:57.000Z</time>
      </trkpt>
      <trkpt lat="45.82291" lon="1.87504">
        <ele>703.8</ele>
        <time>2026-07-09T08:06:58.000Z</time>
      </trkpt>
      <trkpt lat="45.82292" lon="1.87501">
        <ele>703.7</ele>
        <time>2026-07-09T08:06:59.000Z</time>
      </trkpt>
      <trkpt lat="45.82292" lon="1.87499">
        <ele>703</ele>
        <time>2026-07-09T08:07:00.000Z</time>
      </trkpt>
      <trkpt lat="45.82293" lon="1.87497">
        <ele>703.9</ele>
        <time>2026-07-09T08:07:01.000Z</time>
      </trkpt>
      <trkpt lat="45.82293" lon="1.87496">
        <ele>703.2</ele>
        <time>2026-07-09T08:07:02.000Z</time>
      </trkpt>
      <trkpt lat="45.82294" lon="1.87496">
        <ele>702.5</ele>
        <time>2026-07-09T08:07:03.000Z</time>
      </trkpt>
      <trkpt lat="45.82295" lon="1.87495">
        <ele>701.6</ele>
        <time>2026-07-09T08:07:04.000Z</time>
      </trkpt>
      <trkpt lat="45.82296" lon="1.87494">
        <ele>701</ele>
        <time>2026-07-09T08:07:05.000Z</time>
      </trkpt>
      <trkpt lat="45.82296" lon="1.87493">
        <ele>699.8</ele>
        <time>2026-07-09T08:07:06.000Z</time>
      </trkpt>
      <trkpt lat="45.82296" lon="1.87491">
        <ele>698.8</ele>
        <time>2026-07-09T08:07:07.000Z</time>
      </trkpt>
      <trkpt lat="45.82297" lon="1.87489">
        <ele>698</ele>
        <time>2026-07-09T08:07:08.000Z</time>
      </trkpt>
      <trkpt lat="45.82297" lon="1.87487">
        <ele>697.5</ele>
        <time>2026-07-09T08:07:09.000Z</time>
      </trkpt>
      <trkpt lat="45.82298" lon="1.87485">
        <ele>697.9</ele>
        <time>2026-07-09T08:07:10.000Z</time>
      </trkpt>
      <trkpt lat="45.82299" lon="1.87484">
        <ele>698.1</ele>
        <time>2026-07-09T08:07:11.000Z</time>
      </trkpt>
      <trkpt lat="45.823" lon="1.87483">
        <ele>699</ele>
        <time>2026-07-09T08:07:12.000Z</time>
      </trkpt>
      <trkpt lat="45.82301" lon="1.87481">
        <ele>698.4</ele>
        <time>2026-07-09T08:07:13.000Z</time>
      </trkpt>
      <trkpt lat="45.82302" lon="1.87478">
        <ele>698.7</ele>
        <time>2026-07-09T08:07:14.000Z</time>
      </trkpt>
      <trkpt lat="45.82303" lon="1.87476">
        <ele>699.1</ele>
        <time>2026-07-09T08:07:15.000Z</time>
      </trkpt>
      <trkpt lat="45.82304" lon="1.87474">
        <ele>699.6</ele>
        <time>2026-07-09T08:07:16.000Z</time>
      </trkpt>
      <trkpt lat="45.82304" lon="1.87471">
        <ele>699.5</ele>
        <time>2026-07-09T08:07:17.000Z</time>
      </trkpt>
      <trkpt lat="45.82305" lon="1.87468">
        <ele>700.2</ele>
        <time>2026-07-09T08:07:18.000Z</time>
      </trkpt>
      <trkpt lat="45.82306" lon="1.87467">
        <ele>700.2</ele>
        <time>2026-07-09T08:07:19.000Z</time>
      </trkpt>
      <trkpt lat="45.82307" lon="1.87465">
        <ele>700.4</ele>
        <time>2026-07-09T08:07:20.000Z</time>
      </trkpt>
      <trkpt lat="45.82308" lon="1.87463">
        <ele>700.3</ele>
        <time>2026-07-09T08:07:21.000Z</time>
      </trkpt>
      <trkpt lat="45.82308" lon="1.87461">
        <ele>700.5</ele>
        <time>2026-07-09T08:07:22.000Z</time>
      </trkpt>
      <trkpt lat="45.82309" lon="1.8746">
        <ele>700.6</ele>
        <time>2026-07-09T08:07:23.000Z</time>
      </trkpt>
      <trkpt lat="45.82311" lon="1.8746">
        <ele>701.3</ele>
        <time>2026-07-09T08:07:24.000Z</time>
      </trkpt>
      <trkpt lat="45.82312" lon="1.8746">
        <ele>701.3</ele>
        <time>2026-07-09T08:07:25.000Z</time>
      </trkpt>
      <trkpt lat="45.82314" lon="1.87461">
        <ele>701.1</ele>
        <time>2026-07-09T08:07:26.000Z</time>
      </trkpt>
      <trkpt lat="45.82314" lon="1.87462">
        <ele>700.5</ele>
        <time>2026-07-09T08:07:27.000Z</time>
      </trkpt>
      <trkpt lat="45.82315" lon="1.87463">
        <ele>700</ele>
        <time>2026-07-09T08:07:28.000Z</time>
      </trkpt>
      <trkpt lat="45.82316" lon="1.87463">
        <ele>699.8</ele>
        <time>2026-07-09T08:07:29.000Z</time>
      </trkpt>
      <trkpt lat="45.82317" lon="1.87464">
        <ele>699.9</ele>
        <time>2026-07-09T08:07:30.000Z</time>
      </trkpt>
      <trkpt lat="45.82318" lon="1.87464">
        <ele>699.4</ele>
        <time>2026-07-09T08:07:31.000Z</time>
      </trkpt>
      <trkpt lat="45.82319" lon="1.87465">
        <ele>698.3</ele>
        <time>2026-07-09T08:07:32.000Z</time>
      </trkpt>
      <trkpt lat="45.82319" lon="1.87466">
        <ele>697.4</ele>
        <time>2026-07-09T08:07:33.000Z</time>
      </trkpt>
      <trkpt lat="45.8232" lon="1.87468">
        <ele>697.2</ele>
        <time>2026-07-09T08:07:34.000Z</time>
      </trkpt>
      <trkpt lat="45.8232" lon="1.87469">
        <ele>697.8</ele>
        <time>2026-07-09T08:07:35.000Z</time>
      </trkpt>
      <trkpt lat="45.82321" lon="1.8747">
        <ele>697.6</ele>
        <time>2026-07-09T08:07:36.000Z</time>
      </trkpt>
      <trkpt lat="45.82322" lon="1.8747">
        <ele>697.6</ele>
        <time>2026-07-09T08:07:37.000Z</time>
      </trkpt>
      <trkpt lat="45.82323" lon="1.87472">
        <ele>697.9</ele>
        <time>2026-07-09T08:07:38.000Z</time>
      </trkpt>
      <trkpt lat="45.82324" lon="1.87473">
        <ele>697.2</ele>
        <time>2026-07-09T08:07:39.000Z</time>
      </trkpt>
      <trkpt lat="45.82325" lon="1.87473">
        <ele>697.1</ele>
        <time>2026-07-09T08:07:40.000Z</time>
      </trkpt>
      <trkpt lat="45.82326" lon="1.87474">
        <ele>697.3</ele>
        <time>2026-07-09T08:07:41.000Z</time>
      </trkpt>
      <trkpt lat="45.82328" lon="1.87475">
        <ele>697.5</ele>
        <time>2026-07-09T08:07:42.000Z</time>
      </trkpt>
      <trkpt lat="45.82329" lon="1.87475">
        <ele>697</ele>
        <time>2026-07-09T08:07:43.000Z</time>
      </trkpt>
      <trkpt lat="45.8233" lon="1.87476">
        <ele>696.4</ele>
        <time>2026-07-09T08:07:44.000Z</time>
      </trkpt>
      <trkpt lat="45.82331" lon="1.87476">
        <ele>696.1</ele>
        <time>2026-07-09T08:07:45.000Z</time>
      </trkpt>
      <trkpt lat="45.82332" lon="1.87476">
        <ele>695.7</ele>
        <time>2026-07-09T08:07:46.000Z</time>
      </trkpt>
      <trkpt lat="45.82334" lon="1.87476">
        <ele>695.6</ele>
        <time>2026-07-09T08:07:47.000Z</time>
      </trkpt>
      <trkpt lat="45.82335" lon="1.87476">
        <ele>695.4</ele>
        <time>2026-07-09T08:07:48.000Z</time>
      </trkpt>
      <trkpt lat="45.82336" lon="1.87477">
        <ele>695.5</ele>
        <time>2026-07-09T08:07:49.000Z</time>
      </trkpt>
      <trkpt lat="45.82338" lon="1.87477">
        <ele>695.5</ele>
        <time>2026-07-09T08:07:50.000Z</time>
      </trkpt>
      <trkpt lat="45.82339" lon="1.87478">
        <ele>696.9</ele>
        <time>2026-07-09T08:07:51.000Z</time>
      </trkpt>
      <trkpt lat="45.8234" lon="1.87478">
        <ele>696.4</ele>
        <time>2026-07-09T08:07:52.000Z</time>
      </trkpt>
      <trkpt lat="45.82342" lon="1.87479">
        <ele>696.7</ele>
        <time>2026-07-09T08:07:53.000Z</time>
      </trkpt>
      <trkpt lat="45.82344" lon="1.87481">
        <ele>696.1</ele>
        <time>2026-07-09T08:07:54.000Z</time>
      </trkpt>
      <trkpt lat="45.82346" lon="1.87482">
        <ele>696</ele>
        <time>2026-07-09T08:07:55.000Z</time>
      </trkpt>
      <trkpt lat="45.82348" lon="1.87482">
        <ele>696.2</ele>
        <time>2026-07-09T08:07:56.000Z</time>
      </trkpt>
      <trkpt lat="45.82349" lon="1.87483">
        <ele>695.7</ele>
        <time>2026-07-09T08:07:57.000Z</time>
      </trkpt>
      <trkpt lat="45.82351" lon="1.87483">
        <ele>694.9</ele>
        <time>2026-07-09T08:07:58.000Z</time>
      </trkpt>
      <trkpt lat="45.82352" lon="1.87483">
        <ele>695.1</ele>
        <time>2026-07-09T08:07:59.000Z</time>
      </trkpt>
      <trkpt lat="45.82354" lon="1.87484">
        <ele>694.8</ele>
        <time>2026-07-09T08:08:00.000Z</time>
      </trkpt>
      <trkpt lat="45.82355" lon="1.87484">
        <ele>694.7</ele>
        <time>2026-07-09T08:08:01.000Z</time>
      </trkpt>
      <trkpt lat="45.82356" lon="1.87483">
        <ele>696.7</ele>
        <time>2026-07-09T08:08:02.000Z</time>
      </trkpt>
      <trkpt lat="45.82358" lon="1.8748">
        <ele>695.3</ele>
        <time>2026-07-09T08:08:03.000Z</time>
      </trkpt>
      <trkpt lat="45.82359" lon="1.87478">
        <ele>695.2</ele>
        <time>2026-07-09T08:08:04.000Z</time>
      </trkpt>
      <trkpt lat="45.82361" lon="1.87476">
        <ele>695.8</ele>
        <time>2026-07-09T08:08:05.000Z</time>
      </trkpt>
      <trkpt lat="45.82362" lon="1.87474">
        <ele>696.5</ele>
        <time>2026-07-09T08:08:06.000Z</time>
      </trkpt>
      <trkpt lat="45.82363" lon="1.87473">
        <ele>696.3</ele>
        <time>2026-07-09T08:08:07.000Z</time>
      </trkpt>
      <trkpt lat="45.82364" lon="1.87472">
        <ele>697.2</ele>
        <time>2026-07-09T08:08:08.000Z</time>
      </trkpt>
      <trkpt lat="45.82366" lon="1.87471">
        <ele>697.4</ele>
        <time>2026-07-09T08:08:09.000Z</time>
      </trkpt>
      <trkpt lat="45.82367" lon="1.87469">
        <ele>696.9</ele>
        <time>2026-07-09T08:08:10.000Z</time>
      </trkpt>
      <trkpt lat="45.82368" lon="1.87468">
        <ele>696.5</ele>
        <time>2026-07-09T08:08:11.000Z</time>
      </trkpt>
      <trkpt lat="45.82369" lon="1.87466">
        <ele>696.3</ele>
        <time>2026-07-09T08:08:12.000Z</time>
      </trkpt>
      <trkpt lat="45.8237" lon="1.87465">
        <ele>696.1</ele>
        <time>2026-07-09T08:08:13.000Z</time>
      </trkpt>
      <trkpt lat="45.82371" lon="1.87464">
        <ele>695.5</ele>
        <time>2026-07-09T08:08:14.000Z</time>
      </trkpt>
      <trkpt lat="45.82373" lon="1.87464">
        <ele>694.6</ele>
        <time>2026-07-09T08:08:15.000Z</time>
      </trkpt>
      <trkpt lat="45.82374" lon="1.87465">
        <ele>694.1</ele>
        <time>2026-07-09T08:08:16.000Z</time>
      </trkpt>
      <trkpt lat="45.82375" lon="1.87465">
        <ele>693.3</ele>
        <time>2026-07-09T08:08:17.000Z</time>
      </trkpt>
      <trkpt lat="45.82376" lon="1.87465">
        <ele>693.2</ele>
        <time>2026-07-09T08:08:18.000Z</time>
      </trkpt>
      <trkpt lat="45.82378" lon="1.87465">
        <ele>692.7</ele>
        <time>2026-07-09T08:08:19.000Z</time>
      </trkpt>
      <trkpt lat="45.82379" lon="1.87464">
        <ele>692.4</ele>
        <time>2026-07-09T08:08:20.000Z</time>
      </trkpt>
      <trkpt lat="45.82379" lon="1.87465">
        <ele>692.1</ele>
        <time>2026-07-09T08:08:21.000Z</time>
      </trkpt>
      <trkpt lat="45.8238" lon="1.87464">
        <ele>692.5</ele>
        <time>2026-07-09T08:08:22.000Z</time>
      </trkpt>
      <trkpt lat="45.8238" lon="1.87465">
        <ele>693</ele>
        <time>2026-07-09T08:08:23.000Z</time>
      </trkpt>
      <trkpt lat="45.82381" lon="1.87464">
        <ele>691.9</ele>
        <time>2026-07-09T08:08:24.000Z</time>
      </trkpt>
      <trkpt lat="45.82382" lon="1.87465">
        <ele>692.1</ele>
        <time>2026-07-09T08:08:25.000Z</time>
      </trkpt>
      <trkpt lat="45.82383" lon="1.87465">
        <ele>691.9</ele>
        <time>2026-07-09T08:08:26.000Z</time>
      </trkpt>
      <trkpt lat="45.82384" lon="1.87465">
        <ele>691.2</ele>
        <time>2026-07-09T08:08:27.000Z</time>
      </trkpt>
      <trkpt lat="45.82386" lon="1.87465">
        <ele>691.2</ele>
        <time>2026-07-09T08:08:28.000Z</time>
      </trkpt>
      <trkpt lat="45.82388" lon="1.87466">
        <ele>690.9</ele>
        <time>2026-07-09T08:08:29.000Z</time>
      </trkpt>
      <trkpt lat="45.8239" lon="1.87466">
        <ele>690.4</ele>
        <time>2026-07-09T08:08:30.000Z</time>
      </trkpt>
      <trkpt lat="45.82391" lon="1.87467">
        <ele>690.4</ele>
        <time>2026-07-09T08:08:31.000Z</time>
      </trkpt>
      <trkpt lat="45.82393" lon="1.87469">
        <ele>691.8</ele>
        <time>2026-07-09T08:08:32.000Z</time>
      </trkpt>
      <trkpt lat="45.82394" lon="1.87471">
        <ele>691</ele>
        <time>2026-07-09T08:08:33.000Z</time>
      </trkpt>
      <trkpt lat="45.82395" lon="1.87473">
        <ele>690.8</ele>
        <time>2026-07-09T08:08:34.000Z</time>
      </trkpt>
      <trkpt lat="45.82396" lon="1.87474">
        <ele>690</ele>
        <time>2026-07-09T08:08:35.000Z</time>
      </trkpt>
      <trkpt lat="45.82396" lon="1.87475">
        <ele>689.6</ele>
        <time>2026-07-09T08:08:36.000Z</time>
      </trkpt>
      <trkpt lat="45.82398" lon="1.87477">
        <ele>689.1</ele>
        <time>2026-07-09T08:08:37.000Z</time>
      </trkpt>
      <trkpt lat="45.82399" lon="1.87478">
        <ele>689</ele>
        <time>2026-07-09T08:08:38.000Z</time>
      </trkpt>
      <trkpt lat="45.82401" lon="1.87479">
        <ele>689.1</ele>
        <time>2026-07-09T08:08:39.000Z</time>
      </trkpt>
      <trkpt lat="45.82403" lon="1.8748">
        <ele>688.8</ele>
        <time>2026-07-09T08:08:40.000Z</time>
      </trkpt>
      <trkpt lat="45.82406" lon="1.87482">
        <ele>688.4</ele>
        <time>2026-07-09T08:08:41.000Z</time>
      </trkpt>
      <trkpt lat="45.82408" lon="1.87484">
        <ele>687.7</ele>
        <time>2026-07-09T08:08:42.000Z</time>
      </trkpt>
      <trkpt lat="45.82411" lon="1.87485">
        <ele>686.2</ele>
        <time>2026-07-09T08:08:43.000Z</time>
      </trkpt>
      <trkpt lat="45.82413" lon="1.87487">
        <ele>685.2</ele>
        <time>2026-07-09T08:08:44.000Z</time>
      </trkpt>
      <trkpt lat="45.82416" lon="1.87488">
        <ele>684.5</ele>
        <time>2026-07-09T08:08:45.000Z</time>
      </trkpt>
      <trkpt lat="45.82419" lon="1.87488">
        <ele>685.6</ele>
        <time>2026-07-09T08:08:46.000Z</time>
      </trkpt>
      <trkpt lat="45.82422" lon="1.87489">
        <ele>686.4</ele>
        <time>2026-07-09T08:08:47.000Z</time>
      </trkpt>
      <trkpt lat="45.82425" lon="1.87489">
        <ele>688.1</ele>
        <time>2026-07-09T08:08:48.000Z</time>
      </trkpt>
      <trkpt lat="45.82428" lon="1.87489">
        <ele>687.8</ele>
        <time>2026-07-09T08:08:49.000Z</time>
      </trkpt>
      <trkpt lat="45.8243" lon="1.87489">
        <ele>688.2</ele>
        <time>2026-07-09T08:08:50.000Z</time>
      </trkpt>
      <trkpt lat="45.82432" lon="1.87489">
        <ele>689</ele>
        <time>2026-07-09T08:08:51.000Z</time>
      </trkpt>
      <trkpt lat="45.82434" lon="1.87488">
        <ele>689.7</ele>
        <time>2026-07-09T08:08:52.000Z</time>
      </trkpt>
      <trkpt lat="45.82435" lon="1.87486">
        <ele>689.1</ele>
        <time>2026-07-09T08:08:53.000Z</time>
      </trkpt>
      <trkpt lat="45.82437" lon="1.87484">
        <ele>689</ele>
        <time>2026-07-09T08:08:54.000Z</time>
      </trkpt>
      <trkpt lat="45.8244" lon="1.87481">
        <ele>688.4</ele>
        <time>2026-07-09T08:08:55.000Z</time>
      </trkpt>
      <trkpt lat="45.82444" lon="1.87478">
        <ele>687.9</ele>
        <time>2026-07-09T08:08:56.000Z</time>
      </trkpt>
      <trkpt lat="45.82447" lon="1.87476">
        <ele>689.1</ele>
        <time>2026-07-09T08:08:57.000Z</time>
      </trkpt>
      <trkpt lat="45.82449" lon="1.87475">
        <ele>688</ele>
        <time>2026-07-09T08:08:58.000Z</time>
      </trkpt>
      <trkpt lat="45.82451" lon="1.87474">
        <ele>687.7</ele>
        <time>2026-07-09T08:08:59.000Z</time>
      </trkpt>
      <trkpt lat="45.82452" lon="1.87473">
        <ele>688</ele>
        <time>2026-07-09T08:09:00.000Z</time>
      </trkpt>
      <trkpt lat="45.82455" lon="1.87472">
        <ele>688.9</ele>
        <time>2026-07-09T08:09:01.000Z</time>
      </trkpt>
      <trkpt lat="45.82457" lon="1.87471">
        <ele>688.8</ele>
        <time>2026-07-09T08:09:02.000Z</time>
      </trkpt>
      <trkpt lat="45.8246" lon="1.87469">
        <ele>690.5</ele>
        <time>2026-07-09T08:09:03.000Z</time>
      </trkpt>
      <trkpt lat="45.82464" lon="1.87467">
        <ele>688.9</ele>
        <time>2026-07-09T08:09:04.000Z</time>
      </trkpt>
      <trkpt lat="45.82467" lon="1.87465">
        <ele>690.1</ele>
        <time>2026-07-09T08:09:05.000Z</time>
      </trkpt>
      <trkpt lat="45.82469" lon="1.87464">
        <ele>690.6</ele>
        <time>2026-07-09T08:09:06.000Z</time>
      </trkpt>
      <trkpt lat="45.82471" lon="1.87462">
        <ele>692.5</ele>
        <time>2026-07-09T08:09:07.000Z</time>
      </trkpt>
      <trkpt lat="45.82472" lon="1.87461">
        <ele>692.4</ele>
        <time>2026-07-09T08:09:08.000Z</time>
      </trkpt>
      <trkpt lat="45.82475" lon="1.8746">
        <ele>692.7</ele>
        <time>2026-07-09T08:09:09.000Z</time>
      </trkpt>
      <trkpt lat="45.82476" lon="1.87458">
        <ele>692.9</ele>
        <time>2026-07-09T08:09:10.000Z</time>
      </trkpt>
      <trkpt lat="45.82479" lon="1.87457">
        <ele>692.5</ele>
        <time>2026-07-09T08:09:11.000Z</time>
      </trkpt>
      <trkpt lat="45.82481" lon="1.87456">
        <ele>692.2</ele>
        <time>2026-07-09T08:09:12.000Z</time>
      </trkpt>
      <trkpt lat="45.82483" lon="1.87455">
        <ele>691.8</ele>
        <time>2026-07-09T08:09:13.000Z</time>
      </trkpt>
      <trkpt lat="45.82484" lon="1.87454">
        <ele>691.1</ele>
        <time>2026-07-09T08:09:14.000Z</time>
      </trkpt>
      <trkpt lat="45.82486" lon="1.87453">
        <ele>691</ele>
        <time>2026-07-09T08:09:15.000Z</time>
      </trkpt>
      <trkpt lat="45.82488" lon="1.87453">
        <ele>690.1</ele>
        <time>2026-07-09T08:09:16.000Z</time>
      </trkpt>
      <trkpt lat="45.8249" lon="1.87451">
        <ele>689.8</ele>
        <time>2026-07-09T08:09:17.000Z</time>
      </trkpt>
      <trkpt lat="45.82491" lon="1.87451">
        <ele>689.1</ele>
        <time>2026-07-09T08:09:18.000Z</time>
      </trkpt>
      <trkpt lat="45.82493" lon="1.87449">
        <ele>689.1</ele>
        <time>2026-07-09T08:09:19.000Z</time>
      </trkpt>
      <trkpt lat="45.82495" lon="1.87449">
        <ele>689.8</ele>
        <time>2026-07-09T08:09:20.000Z</time>
      </trkpt>
      <trkpt lat="45.82497" lon="1.87448">
        <ele>689.4</ele>
        <time>2026-07-09T08:09:21.000Z</time>
      </trkpt>
      <trkpt lat="45.82499" lon="1.87447">
        <ele>689.8</ele>
        <time>2026-07-09T08:09:22.000Z</time>
      </trkpt>
      <trkpt lat="45.82502" lon="1.87446">
        <ele>689.8</ele>
        <time>2026-07-09T08:09:23.000Z</time>
      </trkpt>
      <trkpt lat="45.82504" lon="1.87446">
        <ele>689.9</ele>
        <time>2026-07-09T08:09:24.000Z</time>
      </trkpt>
      <trkpt lat="45.82507" lon="1.87447">
        <ele>690.2</ele>
        <time>2026-07-09T08:09:25.000Z</time>
      </trkpt>
      <trkpt lat="45.82509" lon="1.87446">
        <ele>690.6</ele>
        <time>2026-07-09T08:09:26.000Z</time>
      </trkpt>
      <trkpt lat="45.82511" lon="1.87447">
        <ele>691</ele>
        <time>2026-07-09T08:09:27.000Z</time>
      </trkpt>
      <trkpt lat="45.82514" lon="1.87448">
        <ele>690.8</ele>
        <time>2026-07-09T08:09:28.000Z</time>
      </trkpt>
      <trkpt lat="45.82516" lon="1.87448">
        <ele>691.7</ele>
        <time>2026-07-09T08:09:29.000Z</time>
      </trkpt>
      <trkpt lat="45.82518" lon="1.87448">
        <ele>693.7</ele>
        <time>2026-07-09T08:09:30.000Z</time>
      </trkpt>
      <trkpt lat="45.8252" lon="1.87449">
        <ele>693.1</ele>
        <time>2026-07-09T08:09:31.000Z</time>
      </trkpt>
      <trkpt lat="45.82523" lon="1.87449">
        <ele>694.7</ele>
        <time>2026-07-09T08:09:32.000Z</time>
      </trkpt>
      <trkpt lat="45.82526" lon="1.8745">
        <ele>696.4</ele>
        <time>2026-07-09T08:09:33.000Z</time>
      </trkpt>
      <trkpt lat="45.82528" lon="1.8745">
        <ele>697.2</ele>
        <time>2026-07-09T08:09:34.000Z</time>
      </trkpt>
      <trkpt lat="45.8253" lon="1.87451">
        <ele>697.4</ele>
        <time>2026-07-09T08:09:35.000Z</time>
      </trkpt>
      <trkpt lat="45.82532" lon="1.87451">
        <ele>697.6</ele>
        <time>2026-07-09T08:09:36.000Z</time>
      </trkpt>
      <trkpt lat="45.82534" lon="1.87451">
        <ele>697.7</ele>
        <time>2026-07-09T08:09:37.000Z</time>
      </trkpt>
      <trkpt lat="45.82537" lon="1.87451">
        <ele>696.6</ele>
        <time>2026-07-09T08:09:38.000Z</time>
      </trkpt>
      <trkpt lat="45.82538" lon="1.87451">
        <ele>697.2</ele>
        <time>2026-07-09T08:09:39.000Z</time>
      </trkpt>
      <trkpt lat="45.8254" lon="1.8745">
        <ele>697.2</ele>
        <time>2026-07-09T08:09:40.000Z</time>
      </trkpt>
      <trkpt lat="45.82542" lon="1.8745">
        <ele>697.2</ele>
        <time>2026-07-09T08:09:41.000Z</time>
      </trkpt>
      <trkpt lat="45.82544" lon="1.8745">
        <ele>697.2</ele>
        <time>2026-07-09T08:09:42.000Z</time>
      </trkpt>
      <trkpt lat="45.82546" lon="1.8745">
        <ele>697.6</ele>
        <time>2026-07-09T08:09:43.000Z</time>
      </trkpt>
      <trkpt lat="45.82548" lon="1.8745">
        <ele>696.5</ele>
        <time>2026-07-09T08:09:44.000Z</time>
      </trkpt>
      <trkpt lat="45.82549" lon="1.8745">
        <ele>695.9</ele>
        <time>2026-07-09T08:09:45.000Z</time>
      </trkpt>
      <trkpt lat="45.82551" lon="1.87449">
        <ele>695.7</ele>
        <time>2026-07-09T08:09:46.000Z</time>
      </trkpt>
      <trkpt lat="45.82553" lon="1.87449">
        <ele>695</ele>
        <time>2026-07-09T08:09:47.000Z</time>
      </trkpt>
      <trkpt lat="45.82554" lon="1.87449">
        <ele>695.6</ele>
        <time>2026-07-09T08:09:48.000Z</time>
      </trkpt>
      <trkpt lat="45.82556" lon="1.8745">
        <ele>695.6</ele>
        <time>2026-07-09T08:09:49.000Z</time>
      </trkpt>
      <trkpt lat="45.82557" lon="1.8745">
        <ele>694.3</ele>
        <time>2026-07-09T08:09:50.000Z</time>
      </trkpt>
      <trkpt lat="45.82559" lon="1.8745">
        <ele>693.9</ele>
        <time>2026-07-09T08:09:51.000Z</time>
      </trkpt>
      <trkpt lat="45.8256" lon="1.87451">
        <ele>694.5</ele>
        <time>2026-07-09T08:09:52.000Z</time>
      </trkpt>
      <trkpt lat="45.82561" lon="1.87451">
        <ele>694.1</ele>
        <time>2026-07-09T08:09:53.000Z</time>
      </trkpt>
      <trkpt lat="45.82563" lon="1.87451">
        <ele>694.1</ele>
        <time>2026-07-09T08:09:54.000Z</time>
      </trkpt>
      <trkpt lat="45.82564" lon="1.87451">
        <ele>694.3</ele>
        <time>2026-07-09T08:09:55.000Z</time>
      </trkpt>
      <trkpt lat="45.82566" lon="1.87452">
        <ele>693.1</ele>
        <time>2026-07-09T08:09:56.000Z</time>
      </trkpt>
      <trkpt lat="45.82568" lon="1.87452">
        <ele>692.5</ele>
        <time>2026-07-09T08:09:57.000Z</time>
      </trkpt>
      <trkpt lat="45.82569" lon="1.87452">
        <ele>692.2</ele>
        <time>2026-07-09T08:09:58.000Z</time>
      </trkpt>
      <trkpt lat="45.82571" lon="1.87454">
        <ele>692.5</ele>
        <time>2026-07-09T08:09:59.000Z</time>
      </trkpt>
      <trkpt lat="45.82571" lon="1.87455">
        <ele>694.1</ele>
        <time>2026-07-09T08:10:00.000Z</time>
      </trkpt>
      <trkpt lat="45.82573" lon="1.87454">
        <ele>691.8</ele>
        <time>2026-07-09T08:10:01.000Z</time>
      </trkpt>
      <trkpt lat="45.82574" lon="1.87454">
        <ele>690.7</ele>
        <time>2026-07-09T08:10:02.000Z</time>
      </trkpt>
      <trkpt lat="45.82575" lon="1.87453">
        <ele>690.1</ele>
        <time>2026-07-09T08:10:03.000Z</time>
      </trkpt>
      <trkpt lat="45.82577" lon="1.87453">
        <ele>690.2</ele>
        <time>2026-07-09T08:10:04.000Z</time>
      </trkpt>
      <trkpt lat="45.82579" lon="1.87453">
        <ele>691.3</ele>
        <time>2026-07-09T08:10:05.000Z</time>
      </trkpt>
      <trkpt lat="45.82581" lon="1.87453">
        <ele>691.3</ele>
        <time>2026-07-09T08:10:06.000Z</time>
      </trkpt>
      <trkpt lat="45.82582" lon="1.87453">
        <ele>690.7</ele>
        <time>2026-07-09T08:10:07.000Z</time>
      </trkpt>
      <trkpt lat="45.82584" lon="1.87452">
        <ele>689.8</ele>
        <time>2026-07-09T08:10:08.000Z</time>
      </trkpt>
      <trkpt lat="45.82586" lon="1.87452">
        <ele>688.8</ele>
        <time>2026-07-09T08:10:09.000Z</time>
      </trkpt>
      <trkpt lat="45.82588" lon="1.87451">
        <ele>689.1</ele>
        <time>2026-07-09T08:10:10.000Z</time>
      </trkpt>
      <trkpt lat="45.82589" lon="1.8745">
        <ele>688.5</ele>
        <time>2026-07-09T08:10:11.000Z</time>
      </trkpt>
      <trkpt lat="45.82591" lon="1.87449">
        <ele>688.7</ele>
        <time>2026-07-09T08:10:12.000Z</time>
      </trkpt>
      <trkpt lat="45.82592" lon="1.87448">
        <ele>688.5</ele>
        <time>2026-07-09T08:10:13.000Z</time>
      </trkpt>
      <trkpt lat="45.82594" lon="1.87448">
        <ele>687.6</ele>
        <time>2026-07-09T08:10:14.000Z</time>
      </trkpt>
      <trkpt lat="45.82596" lon="1.87447">
        <ele>687.1</ele>
        <time>2026-07-09T08:10:15.000Z</time>
      </trkpt>
      <trkpt lat="45.82597" lon="1.87446">
        <ele>686.5</ele>
        <time>2026-07-09T08:10:16.000Z</time>
      </trkpt>
      <trkpt lat="45.82599" lon="1.87445">
        <ele>686.6</ele>
        <time>2026-07-09T08:10:17.000Z</time>
      </trkpt>
      <trkpt lat="45.82601" lon="1.87445">
        <ele>686.3</ele>
        <time>2026-07-09T08:10:18.000Z</time>
      </trkpt>
      <trkpt lat="45.82602" lon="1.87444">
        <ele>686.3</ele>
        <time>2026-07-09T08:10:19.000Z</time>
      </trkpt>
      <trkpt lat="45.82604" lon="1.87443">
        <ele>686.4</ele>
        <time>2026-07-09T08:10:20.000Z</time>
      </trkpt>
      <trkpt lat="45.82605" lon="1.87442">
        <ele>686.4</ele>
        <time>2026-07-09T08:10:21.000Z</time>
      </trkpt>
      <trkpt lat="45.82606" lon="1.87442">
        <ele>686.2</ele>
        <time>2026-07-09T08:10:22.000Z</time>
      </trkpt>
      <trkpt lat="45.82607" lon="1.87442">
        <ele>686.2</ele>
        <time>2026-07-09T08:10:23.000Z</time>
      </trkpt>
      <trkpt lat="45.82607" lon="1.8744">
        <ele>686</ele>
        <time>2026-07-09T08:10:24.000Z</time>
      </trkpt>
      <trkpt lat="45.82609" lon="1.87439">
        <ele>685.2</ele>
        <time>2026-07-09T08:10:25.000Z</time>
      </trkpt>
      <trkpt lat="45.8261" lon="1.87437">
        <ele>685.2</ele>
        <time>2026-07-09T08:10:26.000Z</time>
      </trkpt>
      <trkpt lat="45.82611" lon="1.87436">
        <ele>685.3</ele>
        <time>2026-07-09T08:10:27.000Z</time>
      </trkpt>
      <trkpt lat="45.82612" lon="1.87433">
        <ele>683.1</ele>
        <time>2026-07-09T08:10:28.000Z</time>
      </trkpt>
      <trkpt lat="45.82613" lon="1.8743">
        <ele>682.7</ele>
        <time>2026-07-09T08:10:29.000Z</time>
      </trkpt>
      <trkpt lat="45.82614" lon="1.87429">
        <ele>683.2</ele>
        <time>2026-07-09T08:10:30.000Z</time>
      </trkpt>
      <trkpt lat="45.82616" lon="1.87428">
        <ele>683.7</ele>
        <time>2026-07-09T08:10:31.000Z</time>
      </trkpt>
      <trkpt lat="45.82618" lon="1.87428">
        <ele>683.4</ele>
        <time>2026-07-09T08:10:32.000Z</time>
      </trkpt>
      <trkpt lat="45.82619" lon="1.87426">
        <ele>683.9</ele>
        <time>2026-07-09T08:10:33.000Z</time>
      </trkpt>
      <trkpt lat="45.82622" lon="1.87426">
        <ele>684</ele>
        <time>2026-07-09T08:10:34.000Z</time>
      </trkpt>
      <trkpt lat="45.82624" lon="1.87425">
        <ele>683.9</ele>
        <time>2026-07-09T08:10:35.000Z</time>
      </trkpt>
      <trkpt lat="45.82627" lon="1.87424">
        <ele>684.6</ele>
        <time>2026-07-09T08:10:36.000Z</time>
      </trkpt>
      <trkpt lat="45.8263" lon="1.87423">
        <ele>685.4</ele>
        <time>2026-07-09T08:10:37.000Z</time>
      </trkpt>
      <trkpt lat="45.82632" lon="1.87423">
        <ele>685.1</ele>
        <time>2026-07-09T08:10:38.000Z</time>
      </trkpt>
      <trkpt lat="45.82633" lon="1.87422">
        <ele>685.7</ele>
        <time>2026-07-09T08:10:39.000Z</time>
      </trkpt>
      <trkpt lat="45.82633" lon="1.87422">
        <ele>686.5</ele>
        <time>2026-07-09T08:10:40.000Z</time>
      </trkpt>
      <trkpt lat="45.82634" lon="1.87421">
        <ele>686</ele>
        <time>2026-07-09T08:10:41.000Z</time>
      </trkpt>
      <trkpt lat="45.82636" lon="1.87419">
        <ele>686.2</ele>
        <time>2026-07-09T08:10:42.000Z</time>
      </trkpt>
      <trkpt lat="45.82637" lon="1.87418">
        <ele>687.1</ele>
        <time>2026-07-09T08:10:43.000Z</time>
      </trkpt>
      <trkpt lat="45.82638" lon="1.87416">
        <ele>687</ele>
        <time>2026-07-09T08:10:44.000Z</time>
      </trkpt>
      <trkpt lat="45.82639" lon="1.87414">
        <ele>686.6</ele>
        <time>2026-07-09T08:10:45.000Z</time>
      </trkpt>
      <trkpt lat="45.82641" lon="1.87413">
        <ele>686.4</ele>
        <time>2026-07-09T08:10:46.000Z</time>
      </trkpt>
      <trkpt lat="45.82643" lon="1.87411">
        <ele>686.1</ele>
        <time>2026-07-09T08:10:47.000Z</time>
      </trkpt>
      <trkpt lat="45.82644" lon="1.8741">
        <ele>685.5</ele>
        <time>2026-07-09T08:10:48.000Z</time>
      </trkpt>
      <trkpt lat="45.82645" lon="1.87408">
        <ele>685.5</ele>
        <time>2026-07-09T08:10:49.000Z</time>
      </trkpt>
      <trkpt lat="45.82647" lon="1.87407">
        <ele>686.2</ele>
        <time>2026-07-09T08:10:50.000Z</time>
      </trkpt>
      <trkpt lat="45.82648" lon="1.87405">
        <ele>686.2</ele>
        <time>2026-07-09T08:10:51.000Z</time>
      </trkpt>
      <trkpt lat="45.82649" lon="1.87404">
        <ele>686.1</ele>
        <time>2026-07-09T08:10:52.000Z</time>
      </trkpt>
      <trkpt lat="45.82651" lon="1.87402">
        <ele>686.1</ele>
        <time>2026-07-09T08:10:53.000Z</time>
      </trkpt>
      <trkpt lat="45.82652" lon="1.87399">
        <ele>685.8</ele>
        <time>2026-07-09T08:10:54.000Z</time>
      </trkpt>
      <trkpt lat="45.82652" lon="1.87396">
        <ele>685.3</ele>
        <time>2026-07-09T08:10:55.000Z</time>
      </trkpt>
      <trkpt lat="45.82653" lon="1.87394">
        <ele>684.7</ele>
        <time>2026-07-09T08:10:56.000Z</time>
      </trkpt>
      <trkpt lat="45.82653" lon="1.87392">
        <ele>684.4</ele>
        <time>2026-07-09T08:10:57.000Z</time>
      </trkpt>
      <trkpt lat="45.82655" lon="1.8739">
        <ele>684.2</ele>
        <time>2026-07-09T08:10:58.000Z</time>
      </trkpt>
      <trkpt lat="45.82656" lon="1.87389">
        <ele>683.9</ele>
        <time>2026-07-09T08:10:59.000Z</time>
      </trkpt>
      <trkpt lat="45.82657" lon="1.87389">
        <ele>683.7</ele>
        <time>2026-07-09T08:11:00.000Z</time>
      </trkpt>
      <trkpt lat="45.82659" lon="1.87389">
        <ele>683.6</ele>
        <time>2026-07-09T08:11:01.000Z</time>
      </trkpt>
      <trkpt lat="45.8266" lon="1.87389">
        <ele>682.4</ele>
        <time>2026-07-09T08:11:02.000Z</time>
      </trkpt>
      <trkpt lat="45.82662" lon="1.87388">
        <ele>681.3</ele>
        <time>2026-07-09T08:11:03.000Z</time>
      </trkpt>
      <trkpt lat="45.82663" lon="1.87386">
        <ele>680.5</ele>
        <time>2026-07-09T08:11:04.000Z</time>
      </trkpt>
      <trkpt lat="45.82664" lon="1.87385">
        <ele>680.3</ele>
        <time>2026-07-09T08:11:05.000Z</time>
      </trkpt>
      <trkpt lat="45.82666" lon="1.87384">
        <ele>679.4</ele>
        <time>2026-07-09T08:11:06.000Z</time>
      </trkpt>
      <trkpt lat="45.82667" lon="1.87384">
        <ele>678.8</ele>
        <time>2026-07-09T08:11:07.000Z</time>
      </trkpt>
      <trkpt lat="45.82669" lon="1.87383">
        <ele>678.7</ele>
        <time>2026-07-09T08:11:08.000Z</time>
      </trkpt>
      <trkpt lat="45.82671" lon="1.87381">
        <ele>678.5</ele>
        <time>2026-07-09T08:11:09.000Z</time>
      </trkpt>
      <trkpt lat="45.82673" lon="1.87379">
        <ele>678.1</ele>
        <time>2026-07-09T08:11:10.000Z</time>
      </trkpt>
      <trkpt lat="45.82675" lon="1.87377">
        <ele>678</ele>
        <time>2026-07-09T08:11:11.000Z</time>
      </trkpt>
      <trkpt lat="45.82677" lon="1.87376">
        <ele>679.3</ele>
        <time>2026-07-09T08:11:12.000Z</time>
      </trkpt>
      <trkpt lat="45.82679" lon="1.87377">
        <ele>679.2</ele>
        <time>2026-07-09T08:11:13.000Z</time>
      </trkpt>
      <trkpt lat="45.8268" lon="1.87376">
        <ele>678.7</ele>
        <time>2026-07-09T08:11:14.000Z</time>
      </trkpt>
      <trkpt lat="45.82681" lon="1.87375">
        <ele>678.9</ele>
        <time>2026-07-09T08:11:15.000Z</time>
      </trkpt>
      <trkpt lat="45.82683" lon="1.87374">
        <ele>679.4</ele>
        <time>2026-07-09T08:11:16.000Z</time>
      </trkpt>
      <trkpt lat="45.82686" lon="1.87373">
        <ele>679.6</ele>
        <time>2026-07-09T08:11:17.000Z</time>
      </trkpt>
      <trkpt lat="45.82688" lon="1.87373">
        <ele>679.6</ele>
        <time>2026-07-09T08:11:18.000Z</time>
      </trkpt>
      <trkpt lat="45.82689" lon="1.87373">
        <ele>680.5</ele>
        <time>2026-07-09T08:11:19.000Z</time>
      </trkpt>
      <trkpt lat="45.82691" lon="1.87373">
        <ele>679.9</ele>
        <time>2026-07-09T08:11:20.000Z</time>
      </trkpt>
      <trkpt lat="45.82693" lon="1.87372">
        <ele>681</ele>
        <time>2026-07-09T08:11:21.000Z</time>
      </trkpt>
      <trkpt lat="45.82695" lon="1.87372">
        <ele>681.1</ele>
        <time>2026-07-09T08:11:22.000Z</time>
      </trkpt>
      <trkpt lat="45.82697" lon="1.87371">
        <ele>680.8</ele>
        <time>2026-07-09T08:11:23.000Z</time>
      </trkpt>
      <trkpt lat="45.82699" lon="1.87369">
        <ele>680.9</ele>
        <time>2026-07-09T08:11:24.000Z</time>
      </trkpt>
      <trkpt lat="45.827" lon="1.87368">
        <ele>680.1</ele>
        <time>2026-07-09T08:11:25.000Z</time>
      </trkpt>
      <trkpt lat="45.82702" lon="1.87367">
        <ele>680.2</ele>
        <time>2026-07-09T08:11:26.000Z</time>
      </trkpt>
      <trkpt lat="45.82705" lon="1.87366">
        <ele>680.2</ele>
        <time>2026-07-09T08:11:27.000Z</time>
      </trkpt>
      <trkpt lat="45.82707" lon="1.87365">
        <ele>680.9</ele>
        <time>2026-07-09T08:11:28.000Z</time>
      </trkpt>
      <trkpt lat="45.82709" lon="1.87365">
        <ele>681.3</ele>
        <time>2026-07-09T08:11:29.000Z</time>
      </trkpt>
      <trkpt lat="45.8271" lon="1.87365">
        <ele>682.2</ele>
        <time>2026-07-09T08:11:30.000Z</time>
      </trkpt>
      <trkpt lat="45.82711" lon="1.87364">
        <ele>681.7</ele>
        <time>2026-07-09T08:11:31.000Z</time>
      </trkpt>
      <trkpt lat="45.82712" lon="1.87363">
        <ele>681.5</ele>
        <time>2026-07-09T08:11:32.000Z</time>
      </trkpt>
      <trkpt lat="45.82713" lon="1.87363">
        <ele>681</ele>
        <time>2026-07-09T08:11:33.000Z</time>
      </trkpt>
      <trkpt lat="45.82715" lon="1.87362">
        <ele>680.9</ele>
        <time>2026-07-09T08:11:34.000Z</time>
      </trkpt>
      <trkpt lat="45.82716" lon="1.87361">
        <ele>681.1</ele>
        <time>2026-07-09T08:11:35.000Z</time>
      </trkpt>
      <trkpt lat="45.82717" lon="1.87359">
        <ele>681.3</ele>
        <time>2026-07-09T08:11:36.000Z</time>
      </trkpt>
      <trkpt lat="45.82718" lon="1.87358">
        <ele>681.5</ele>
        <time>2026-07-09T08:11:37.000Z</time>
      </trkpt>
      <trkpt lat="45.8272" lon="1.87356">
        <ele>681.9</ele>
        <time>2026-07-09T08:11:38.000Z</time>
      </trkpt>
      <trkpt lat="45.82721" lon="1.87355">
        <ele>681.2</ele>
        <time>2026-07-09T08:11:39.000Z</time>
      </trkpt>
      <trkpt lat="45.82722" lon="1.87353">
        <ele>679.7</ele>
        <time>2026-07-09T08:11:40.000Z</time>
      </trkpt>
      <trkpt lat="45.82723" lon="1.87351">
        <ele>679.2</ele>
        <time>2026-07-09T08:11:41.000Z</time>
      </trkpt>
      <trkpt lat="45.82724" lon="1.87349">
        <ele>678.9</ele>
        <time>2026-07-09T08:11:42.000Z</time>
      </trkpt>
      <trkpt lat="45.82726" lon="1.87347">
        <ele>678.5</ele>
        <time>2026-07-09T08:11:43.000Z</time>
      </trkpt>
      <trkpt lat="45.82728" lon="1.87345">
        <ele>677.4</ele>
        <time>2026-07-09T08:11:44.000Z</time>
      </trkpt>
      <trkpt lat="45.8273" lon="1.87344">
        <ele>678</ele>
        <time>2026-07-09T08:11:45.000Z</time>
      </trkpt>
      <trkpt lat="45.82731" lon="1.87342">
        <ele>678</ele>
        <time>2026-07-09T08:11:46.000Z</time>
      </trkpt>
      <trkpt lat="45.82733" lon="1.87341">
        <ele>679.3</ele>
        <time>2026-07-09T08:11:47.000Z</time>
      </trkpt>
      <trkpt lat="45.82734" lon="1.87339">
        <ele>679.2</ele>
        <time>2026-07-09T08:11:48.000Z</time>
      </trkpt>
      <trkpt lat="45.82735" lon="1.87336">
        <ele>679.2</ele>
        <time>2026-07-09T08:11:49.000Z</time>
      </trkpt>
      <trkpt lat="45.82736" lon="1.87333">
        <ele>679.2</ele>
        <time>2026-07-09T08:11:50.000Z</time>
      </trkpt>
      <trkpt lat="45.82737" lon="1.87331">
        <ele>679.9</ele>
        <time>2026-07-09T08:11:51.000Z</time>
      </trkpt>
      <trkpt lat="45.82739" lon="1.87329">
        <ele>678.7</ele>
        <time>2026-07-09T08:11:52.000Z</time>
      </trkpt>
      <trkpt lat="45.82741" lon="1.87328">
        <ele>677.9</ele>
        <time>2026-07-09T08:11:53.000Z</time>
      </trkpt>
      <trkpt lat="45.82743" lon="1.87326">
        <ele>676.6</ele>
        <time>2026-07-09T08:11:54.000Z</time>
      </trkpt>
      <trkpt lat="45.82744" lon="1.87325">
        <ele>676.5</ele>
        <time>2026-07-09T08:11:55.000Z</time>
      </trkpt>
      <trkpt lat="45.82745" lon="1.87324">
        <ele>676.1</ele>
        <time>2026-07-09T08:11:56.000Z</time>
      </trkpt>
      <trkpt lat="45.82746" lon="1.87323">
        <ele>676</ele>
        <time>2026-07-09T08:11:57.000Z</time>
      </trkpt>
      <trkpt lat="45.82748" lon="1.87322">
        <ele>676.4</ele>
        <time>2026-07-09T08:11:58.000Z</time>
      </trkpt>
      <trkpt lat="45.82749" lon="1.8732">
        <ele>676.6</ele>
        <time>2026-07-09T08:11:59.000Z</time>
      </trkpt>
      <trkpt lat="45.82751" lon="1.8732">
        <ele>676.2</ele>
        <time>2026-07-09T08:12:00.000Z</time>
      </trkpt>
      <trkpt lat="45.82753" lon="1.87319">
        <ele>677</ele>
        <time>2026-07-09T08:12:01.000Z</time>
      </trkpt>
      <trkpt lat="45.82755" lon="1.87317">
        <ele>677.3</ele>
        <time>2026-07-09T08:12:02.000Z</time>
      </trkpt>
      <trkpt lat="45.82756" lon="1.87316">
        <ele>677.3</ele>
        <time>2026-07-09T08:12:03.000Z</time>
      </trkpt>
      <trkpt lat="45.82758" lon="1.87315">
        <ele>676.5</ele>
        <time>2026-07-09T08:12:04.000Z</time>
      </trkpt>
      <trkpt lat="45.82758" lon="1.87313">
        <ele>676.2</ele>
        <time>2026-07-09T08:12:05.000Z</time>
      </trkpt>
      <trkpt lat="45.82759" lon="1.87312">
        <ele>674.8</ele>
        <time>2026-07-09T08:12:06.000Z</time>
      </trkpt>
      <trkpt lat="45.8276" lon="1.8731">
        <ele>674.8</ele>
        <time>2026-07-09T08:12:07.000Z</time>
      </trkpt>
      <trkpt lat="45.82761" lon="1.87309">
        <ele>675.4</ele>
        <time>2026-07-09T08:12:08.000Z</time>
      </trkpt>
      <trkpt lat="45.82763" lon="1.87308">
        <ele>675.6</ele>
        <time>2026-07-09T08:12:09.000Z</time>
      </trkpt>
      <trkpt lat="45.82765" lon="1.87307">
        <ele>676.1</ele>
        <time>2026-07-09T08:12:10.000Z</time>
      </trkpt>
      <trkpt lat="45.82766" lon="1.87305">
        <ele>677.2</ele>
        <time>2026-07-09T08:12:11.000Z</time>
      </trkpt>
      <trkpt lat="45.82768" lon="1.87304">
        <ele>677</ele>
        <time>2026-07-09T08:12:12.000Z</time>
      </trkpt>
      <trkpt lat="45.82769" lon="1.87302">
        <ele>677</ele>
        <time>2026-07-09T08:12:13.000Z</time>
      </trkpt>
      <trkpt lat="45.82771" lon="1.87301">
        <ele>677.5</ele>
        <time>2026-07-09T08:12:14.000Z</time>
      </trkpt>
      <trkpt lat="45.82772" lon="1.87299">
        <ele>677.8</ele>
        <time>2026-07-09T08:12:15.000Z</time>
      </trkpt>
      <trkpt lat="45.82774" lon="1.87298">
        <ele>678.3</ele>
        <time>2026-07-09T08:12:16.000Z</time>
      </trkpt>
      <trkpt lat="45.82776" lon="1.87296">
        <ele>678.3</ele>
        <time>2026-07-09T08:12:17.000Z</time>
      </trkpt>
      <trkpt lat="45.82777" lon="1.87295">
        <ele>679.2</ele>
        <time>2026-07-09T08:12:18.000Z</time>
      </trkpt>
      <trkpt lat="45.82778" lon="1.87294">
        <ele>678.7</ele>
        <time>2026-07-09T08:12:19.000Z</time>
      </trkpt>
      <trkpt lat="45.82779" lon="1.87292">
        <ele>678.6</ele>
        <time>2026-07-09T08:12:20.000Z</time>
      </trkpt>
      <trkpt lat="45.8278" lon="1.87291">
        <ele>679.7</ele>
        <time>2026-07-09T08:12:21.000Z</time>
      </trkpt>
      <trkpt lat="45.82782" lon="1.87289">
        <ele>680.2</ele>
        <time>2026-07-09T08:12:22.000Z</time>
      </trkpt>
      <trkpt lat="45.82783" lon="1.87287">
        <ele>681.2</ele>
        <time>2026-07-09T08:12:23.000Z</time>
      </trkpt>
      <trkpt lat="45.82785" lon="1.87284">
        <ele>681</ele>
        <time>2026-07-09T08:12:24.000Z</time>
      </trkpt>
      <trkpt lat="45.82786" lon="1.87283">
        <ele>680.2</ele>
        <time>2026-07-09T08:12:25.000Z</time>
      </trkpt>
      <trkpt lat="45.82787" lon="1.87281">
        <ele>680.7</ele>
        <time>2026-07-09T08:12:26.000Z</time>
      </trkpt>
      <trkpt lat="45.82788" lon="1.8728">
        <ele>680.5</ele>
        <time>2026-07-09T08:12:27.000Z</time>
      </trkpt>
      <trkpt lat="45.82789" lon="1.87279">
        <ele>681.2</ele>
        <time>2026-07-09T08:12:28.000Z</time>
      </trkpt>
      <trkpt lat="45.82791" lon="1.87277">
        <ele>681.8</ele>
        <time>2026-07-09T08:12:29.000Z</time>
      </trkpt>
      <trkpt lat="45.82792" lon="1.87276">
        <ele>681.5</ele>
        <time>2026-07-09T08:12:30.000Z</time>
      </trkpt>
      <trkpt lat="45.82793" lon="1.87274">
        <ele>681</ele>
        <time>2026-07-09T08:12:31.000Z</time>
      </trkpt>
      <trkpt lat="45.82794" lon="1.87273">
        <ele>681.3</ele>
        <time>2026-07-09T08:12:32.000Z</time>
      </trkpt>
      <trkpt lat="45.82795" lon="1.87272">
        <ele>682.7</ele>
        <time>2026-07-09T08:12:33.000Z</time>
      </trkpt>
      <trkpt lat="45.82797" lon="1.8727">
        <ele>683.3</ele>
        <time>2026-07-09T08:12:34.000Z</time>
      </trkpt>
      <trkpt lat="45.82798" lon="1.87268">
        <ele>684.2</ele>
        <time>2026-07-09T08:12:35.000Z</time>
      </trkpt>
      <trkpt lat="45.828" lon="1.87267">
        <ele>684.4</ele>
        <time>2026-07-09T08:12:36.000Z</time>
      </trkpt>
      <trkpt lat="45.82801" lon="1.87265">
        <ele>684.3</ele>
        <time>2026-07-09T08:12:37.000Z</time>
      </trkpt>
      <trkpt lat="45.82802" lon="1.87264">
        <ele>683.9</ele>
        <time>2026-07-09T08:12:38.000Z</time>
      </trkpt>
      <trkpt lat="45.82804" lon="1.87263">
        <ele>683.7</ele>
        <time>2026-07-09T08:12:39.000Z</time>
      </trkpt>
      <trkpt lat="45.82805" lon="1.87261">
        <ele>683.9</ele>
        <time>2026-07-09T08:12:40.000Z</time>
      </trkpt>
      <trkpt lat="45.82806" lon="1.8726">
        <ele>683.9</ele>
        <time>2026-07-09T08:12:41.000Z</time>
      </trkpt>
      <trkpt lat="45.82807" lon="1.87259">
        <ele>683.6</ele>
        <time>2026-07-09T08:12:42.000Z</time>
      </trkpt>
      <trkpt lat="45.82809" lon="1.87258">
        <ele>683</ele>
        <time>2026-07-09T08:12:43.000Z</time>
      </trkpt>
      <trkpt lat="45.8281" lon="1.87256">
        <ele>683.2</ele>
        <time>2026-07-09T08:12:44.000Z</time>
      </trkpt>
      <trkpt lat="45.82812" lon="1.87255">
        <ele>683</ele>
        <time>2026-07-09T08:12:45.000Z</time>
      </trkpt>
      <trkpt lat="45.82813" lon="1.87254">
        <ele>682.5</ele>
        <time>2026-07-09T08:12:46.000Z</time>
      </trkpt>
      <trkpt lat="45.82814" lon="1.87253">
        <ele>682.4</ele>
        <time>2026-07-09T08:12:47.000Z</time>
      </trkpt>
      <trkpt lat="45.82815" lon="1.87252">
        <ele>682.6</ele>
        <time>2026-07-09T08:12:48.000Z</time>
      </trkpt>
      <trkpt lat="45.82817" lon="1.8725">
        <ele>682.9</ele>
        <time>2026-07-09T08:12:49.000Z</time>
      </trkpt>
      <trkpt lat="45.82818" lon="1.87249">
        <ele>682.7</ele>
        <time>2026-07-09T08:12:50.000Z</time>
      </trkpt>
      <trkpt lat="45.82819" lon="1.87247">
        <ele>682.6</ele>
        <time>2026-07-09T08:12:51.000Z</time>
      </trkpt>
      <trkpt lat="45.82821" lon="1.87245">
        <ele>682.1</ele>
        <time>2026-07-09T08:12:52.000Z</time>
      </trkpt>
      <trkpt lat="45.82822" lon="1.87244">
        <ele>683</ele>
        <time>2026-07-09T08:12:53.000Z</time>
      </trkpt>
      <trkpt lat="45.82823" lon="1.87243">
        <ele>683.1</ele>
        <time>2026-07-09T08:12:54.000Z</time>
      </trkpt>
      <trkpt lat="45.82824" lon="1.87243">
        <ele>683</ele>
        <time>2026-07-09T08:12:55.000Z</time>
      </trkpt>
      <trkpt lat="45.82826" lon="1.87242">
        <ele>683</ele>
        <time>2026-07-09T08:12:56.000Z</time>
      </trkpt>
      <trkpt lat="45.82827" lon="1.87241">
        <ele>683.5</ele>
        <time>2026-07-09T08:12:57.000Z</time>
      </trkpt>
      <trkpt lat="45.82828" lon="1.87241">
        <ele>683.3</ele>
        <time>2026-07-09T08:12:58.000Z</time>
      </trkpt>
      <trkpt lat="45.82829" lon="1.87241">
        <ele>682.9</ele>
        <time>2026-07-09T08:12:59.000Z</time>
      </trkpt>
      <trkpt lat="45.8283" lon="1.8724">
        <ele>682.1</ele>
        <time>2026-07-09T08:13:00.000Z</time>
      </trkpt>
      <trkpt lat="45.82832" lon="1.8724">
        <ele>682.2</ele>
        <time>2026-07-09T08:13:01.000Z</time>
      </trkpt>
      <trkpt lat="45.82834" lon="1.87239">
        <ele>680.9</ele>
        <time>2026-07-09T08:13:02.000Z</time>
      </trkpt>
      <trkpt lat="45.82836" lon="1.87238">
        <ele>681.1</ele>
        <time>2026-07-09T08:13:03.000Z</time>
      </trkpt>
      <trkpt lat="45.82837" lon="1.87238">
        <ele>681.4</ele>
        <time>2026-07-09T08:13:04.000Z</time>
      </trkpt>
      <trkpt lat="45.82839" lon="1.87237">
        <ele>681.7</ele>
        <time>2026-07-09T08:13:05.000Z</time>
      </trkpt>
      <trkpt lat="45.82841" lon="1.87237">
        <ele>680.7</ele>
        <time>2026-07-09T08:13:06.000Z</time>
      </trkpt>
      <trkpt lat="45.82843" lon="1.87236">
        <ele>680.4</ele>
        <time>2026-07-09T08:13:07.000Z</time>
      </trkpt>
      <trkpt lat="45.82845" lon="1.87236">
        <ele>681</ele>
        <time>2026-07-09T08:13:08.000Z</time>
      </trkpt>
      <trkpt lat="45.82847" lon="1.87235">
        <ele>681.2</ele>
        <time>2026-07-09T08:13:09.000Z</time>
      </trkpt>
      <trkpt lat="45.82849" lon="1.87234">
        <ele>681.7</ele>
        <time>2026-07-09T08:13:10.000Z</time>
      </trkpt>
      <trkpt lat="45.8285" lon="1.87233">
        <ele>681.6</ele>
        <time>2026-07-09T08:13:11.000Z</time>
      </trkpt>
      <trkpt lat="45.82852" lon="1.87232">
        <ele>682.3</ele>
        <time>2026-07-09T08:13:12.000Z</time>
      </trkpt>
      <trkpt lat="45.82853" lon="1.87232">
        <ele>681.8</ele>
        <time>2026-07-09T08:13:13.000Z</time>
      </trkpt>
      <trkpt lat="45.82855" lon="1.87231">
        <ele>682.1</ele>
        <time>2026-07-09T08:13:14.000Z</time>
      </trkpt>
      <trkpt lat="45.82856" lon="1.8723">
        <ele>683.4</ele>
        <time>2026-07-09T08:13:15.000Z</time>
      </trkpt>
      <trkpt lat="45.82858" lon="1.87229">
        <ele>683.4</ele>
        <time>2026-07-09T08:13:16.000Z</time>
      </trkpt>
      <trkpt lat="45.8286" lon="1.87228">
        <ele>683.6</ele>
        <time>2026-07-09T08:13:17.000Z</time>
      </trkpt>
      <trkpt lat="45.82861" lon="1.87228">
        <ele>683.5</ele>
        <time>2026-07-09T08:13:18.000Z</time>
      </trkpt>
      <trkpt lat="45.82863" lon="1.87227">
        <ele>684</ele>
        <time>2026-07-09T08:13:19.000Z</time>
      </trkpt>
      <trkpt lat="45.82865" lon="1.87226">
        <ele>683.9</ele>
        <time>2026-07-09T08:13:20.000Z</time>
      </trkpt>
      <trkpt lat="45.82866" lon="1.87225">
        <ele>683.9</ele>
        <time>2026-07-09T08:13:21.000Z</time>
      </trkpt>
      <trkpt lat="45.82867" lon="1.87224">
        <ele>684.1</ele>
        <time>2026-07-09T08:13:22.000Z</time>
      </trkpt>
      <trkpt lat="45.82869" lon="1.87223">
        <ele>684.3</ele>
        <time>2026-07-09T08:13:23.000Z</time>
      </trkpt>
      <trkpt lat="45.8287" lon="1.87222">
        <ele>684.5</ele>
        <time>2026-07-09T08:13:24.000Z</time>
      </trkpt>
      <trkpt lat="45.82871" lon="1.87221">
        <ele>684.4</ele>
        <time>2026-07-09T08:13:25.000Z</time>
      </trkpt>
      <trkpt lat="45.82872" lon="1.87218">
        <ele>684.1</ele>
        <time>2026-07-09T08:13:26.000Z</time>
      </trkpt>
      <trkpt lat="45.82873" lon="1.87217">
        <ele>684.1</ele>
        <time>2026-07-09T08:13:27.000Z</time>
      </trkpt>
      <trkpt lat="45.82875" lon="1.87216">
        <ele>684.4</ele>
        <time>2026-07-09T08:13:28.000Z</time>
      </trkpt>
      <trkpt lat="45.82876" lon="1.87215">
        <ele>685.1</ele>
        <time>2026-07-09T08:13:29.000Z</time>
      </trkpt>
      <trkpt lat="45.82877" lon="1.87213">
        <ele>684.9</ele>
        <time>2026-07-09T08:13:30.000Z</time>
      </trkpt>
      <trkpt lat="45.82879" lon="1.87211">
        <ele>684.5</ele>
        <time>2026-07-09T08:13:31.000Z</time>
      </trkpt>
      <trkpt lat="45.8288" lon="1.87209">
        <ele>683.9</ele>
        <time>2026-07-09T08:13:32.000Z</time>
      </trkpt>
      <trkpt lat="45.82882" lon="1.87208">
        <ele>683.4</ele>
        <time>2026-07-09T08:13:33.000Z</time>
      </trkpt>
      <trkpt lat="45.82883" lon="1.87206">
        <ele>683.4</ele>
        <time>2026-07-09T08:13:34.000Z</time>
      </trkpt>
      <trkpt lat="45.82885" lon="1.87205">
        <ele>683.3</ele>
        <time>2026-07-09T08:13:35.000Z</time>
      </trkpt>
      <trkpt lat="45.82887" lon="1.87203">
        <ele>682.9</ele>
        <time>2026-07-09T08:13:36.000Z</time>
      </trkpt>
      <trkpt lat="45.82888" lon="1.87202">
        <ele>682.7</ele>
        <time>2026-07-09T08:13:37.000Z</time>
      </trkpt>
      <trkpt lat="45.82889" lon="1.872">
        <ele>682.5</ele>
        <time>2026-07-09T08:13:38.000Z</time>
      </trkpt>
      <trkpt lat="45.82891" lon="1.87198">
        <ele>682.4</ele>
        <time>2026-07-09T08:13:39.000Z</time>
      </trkpt>
      <trkpt lat="45.82893" lon="1.87197">
        <ele>682.8</ele>
        <time>2026-07-09T08:13:40.000Z</time>
      </trkpt>
      <trkpt lat="45.82894" lon="1.87195">
        <ele>682.5</ele>
        <time>2026-07-09T08:13:41.000Z</time>
      </trkpt>
      <trkpt lat="45.82896" lon="1.87195">
        <ele>682.9</ele>
        <time>2026-07-09T08:13:42.000Z</time>
      </trkpt>
      <trkpt lat="45.82897" lon="1.87194">
        <ele>683.6</ele>
        <time>2026-07-09T08:13:43.000Z</time>
      </trkpt>
      <trkpt lat="45.82899" lon="1.87193">
        <ele>683.6</ele>
        <time>2026-07-09T08:13:44.000Z</time>
      </trkpt>
      <trkpt lat="45.829" lon="1.87192">
        <ele>683.3</ele>
        <time>2026-07-09T08:13:45.000Z</time>
      </trkpt>
      <trkpt lat="45.82901" lon="1.87191">
        <ele>683.5</ele>
        <time>2026-07-09T08:13:46.000Z</time>
      </trkpt>
      <trkpt lat="45.82903" lon="1.8719">
        <ele>682.7</ele>
        <time>2026-07-09T08:13:47.000Z</time>
      </trkpt>
      <trkpt lat="45.82904" lon="1.8719">
        <ele>683</ele>
        <time>2026-07-09T08:13:48.000Z</time>
      </trkpt>
      <trkpt lat="45.82906" lon="1.87189">
        <ele>682.7</ele>
        <time>2026-07-09T08:13:49.000Z</time>
      </trkpt>
      <trkpt lat="45.82908" lon="1.87188">
        <ele>683</ele>
        <time>2026-07-09T08:13:50.000Z</time>
      </trkpt>
      <trkpt lat="45.82909" lon="1.87188">
        <ele>683.6</ele>
        <time>2026-07-09T08:13:51.000Z</time>
      </trkpt>
      <trkpt lat="45.82911" lon="1.87187">
        <ele>683.9</ele>
        <time>2026-07-09T08:13:52.000Z</time>
      </trkpt>
      <trkpt lat="45.82912" lon="1.87186">
        <ele>684.2</ele>
        <time>2026-07-09T08:13:53.000Z</time>
      </trkpt>
      <trkpt lat="45.82914" lon="1.87185">
        <ele>684.8</ele>
        <time>2026-07-09T08:13:54.000Z</time>
      </trkpt>
      <trkpt lat="45.82915" lon="1.87184">
        <ele>685.2</ele>
        <time>2026-07-09T08:13:55.000Z</time>
      </trkpt>
      <trkpt lat="45.82915" lon="1.87182">
        <ele>685.5</ele>
        <time>2026-07-09T08:13:56.000Z</time>
      </trkpt>
      <trkpt lat="45.82915" lon="1.8718">
        <ele>685.4</ele>
        <time>2026-07-09T08:13:57.000Z</time>
      </trkpt>
      <trkpt lat="45.82914" lon="1.87178">
        <ele>685.1</ele>
        <time>2026-07-09T08:13:58.000Z</time>
      </trkpt>
      <trkpt lat="45.82913" lon="1.87176">
        <ele>685.1</ele>
        <time>2026-07-09T08:13:59.000Z</time>
      </trkpt>
      <trkpt lat="45.82912" lon="1.87175">
        <ele>684.9</ele>
        <time>2026-07-09T08:14:00.000Z</time>
      </trkpt>
      <trkpt lat="45.82911" lon="1.87174">
        <ele>684.9</ele>
        <time>2026-07-09T08:14:01.000Z</time>
      </trkpt>
      <trkpt lat="45.8291" lon="1.87172">
        <ele>685.1</ele>
        <time>2026-07-09T08:14:02.000Z</time>
      </trkpt>
      <trkpt lat="45.82909" lon="1.87171">
        <ele>684.9</ele>
        <time>2026-07-09T08:14:03.000Z</time>
      </trkpt>
      <trkpt lat="45.82907" lon="1.87169">
        <ele>684.6</ele>
        <time>2026-07-09T08:14:04.000Z</time>
      </trkpt>
      <trkpt lat="45.82906" lon="1.87167">
        <ele>684.6</ele>
        <time>2026-07-09T08:14:05.000Z</time>
      </trkpt>
      <trkpt lat="45.82905" lon="1.87166">
        <ele>684.8</ele>
        <time>2026-07-09T08:14:06.000Z</time>
      </trkpt>
      <trkpt lat="45.82903" lon="1.87165">
        <ele>684.8</ele>
        <time>2026-07-09T08:14:07.000Z</time>
      </trkpt>
      <trkpt lat="45.82901" lon="1.87163">
        <ele>684.5</ele>
        <time>2026-07-09T08:14:08.000Z</time>
      </trkpt>
      <trkpt lat="45.829" lon="1.87162">
        <ele>684.3</ele>
        <time>2026-07-09T08:14:09.000Z</time>
      </trkpt>
      <trkpt lat="45.82898" lon="1.87161">
        <ele>684</ele>
        <time>2026-07-09T08:14:10.000Z</time>
      </trkpt>
      <trkpt lat="45.82896" lon="1.87161">
        <ele>684.3</ele>
        <time>2026-07-09T08:14:11.000Z</time>
      </trkpt>
      <trkpt lat="45.82895" lon="1.8716">
        <ele>684.4</ele>
        <time>2026-07-09T08:14:12.000Z</time>
      </trkpt>
      <trkpt lat="45.82893" lon="1.87158">
        <ele>684.5</ele>
        <time>2026-07-09T08:14:13.000Z</time>
      </trkpt>
      <trkpt lat="45.82891" lon="1.87157">
        <ele>684.4</ele>
        <time>2026-07-09T08:14:14.000Z</time>
      </trkpt>
      <trkpt lat="45.8289" lon="1.87157">
        <ele>684.1</ele>
        <time>2026-07-09T08:14:15.000Z</time>
      </trkpt>
      <trkpt lat="45.82887" lon="1.87156">
        <ele>683.8</ele>
        <time>2026-07-09T08:14:16.000Z</time>
      </trkpt>
      <trkpt lat="45.82885" lon="1.87154">
        <ele>684.2</ele>
        <time>2026-07-09T08:14:17.000Z</time>
      </trkpt>
      <trkpt lat="45.82883" lon="1.87153">
        <ele>684.4</ele>
        <time>2026-07-09T08:14:18.000Z</time>
      </trkpt>
      <trkpt lat="45.82881" lon="1.87151">
        <ele>684.2</ele>
        <time>2026-07-09T08:14:19.000Z</time>
      </trkpt>
      <trkpt lat="45.82879" lon="1.87151">
        <ele>684.1</ele>
        <time>2026-07-09T08:14:20.000Z</time>
      </trkpt>
      <trkpt lat="45.82876" lon="1.8715">
        <ele>684.4</ele>
        <time>2026-07-09T08:14:21.000Z</time>
      </trkpt>
      <trkpt lat="45.82874" lon="1.8715">
        <ele>685.1</ele>
        <time>2026-07-09T08:14:22.000Z</time>
      </trkpt>
      <trkpt lat="45.82872" lon="1.87149">
        <ele>685.4</ele>
        <time>2026-07-09T08:14:23.000Z</time>
      </trkpt>
      <trkpt lat="45.8287" lon="1.87148">
        <ele>685.2</ele>
        <time>2026-07-09T08:14:24.000Z</time>
      </trkpt>
      <trkpt lat="45.82868" lon="1.87147">
        <ele>685.1</ele>
        <time>2026-07-09T08:14:25.000Z</time>
      </trkpt>
      <trkpt lat="45.82867" lon="1.87146">
        <ele>684.8</ele>
        <time>2026-07-09T08:14:26.000Z</time>
      </trkpt>
      <trkpt lat="45.82865" lon="1.87144">
        <ele>685</ele>
        <time>2026-07-09T08:14:27.000Z</time>
      </trkpt>
      <trkpt lat="45.82864" lon="1.87143">
        <ele>685.1</ele>
        <time>2026-07-09T08:14:28.000Z</time>
      </trkpt>
      <trkpt lat="45.82863" lon="1.87142">
        <ele>684.7</ele>
        <time>2026-07-09T08:14:29.000Z</time>
      </trkpt>
      <trkpt lat="45.82862" lon="1.87141">
        <ele>684.3</ele>
        <time>2026-07-09T08:14:30.000Z</time>
      </trkpt>
      <trkpt lat="45.82861" lon="1.87139">
        <ele>684.5</ele>
        <time>2026-07-09T08:14:31.000Z</time>
      </trkpt>
      <trkpt lat="45.8286" lon="1.87138">
        <ele>684.4</ele>
        <time>2026-07-09T08:14:32.000Z</time>
      </trkpt>
      <trkpt lat="45.82858" lon="1.87137">
        <ele>684.6</ele>
        <time>2026-07-09T08:14:33.000Z</time>
      </trkpt>
      <trkpt lat="45.82857" lon="1.87136">
        <ele>684.5</ele>
        <time>2026-07-09T08:14:34.000Z</time>
      </trkpt>
      <trkpt lat="45.82855" lon="1.87135">
        <ele>684.8</ele>
        <time>2026-07-09T08:14:35.000Z</time>
      </trkpt>
      <trkpt lat="45.82853" lon="1.87133">
        <ele>684.9</ele>
        <time>2026-07-09T08:14:36.000Z</time>
      </trkpt>
      <trkpt lat="45.82852" lon="1.87132">
        <ele>684.7</ele>
        <time>2026-07-09T08:14:37.000Z</time>
      </trkpt>
      <trkpt lat="45.8285" lon="1.8713">
        <ele>685</ele>
        <time>2026-07-09T08:14:38.000Z</time>
      </trkpt>
      <trkpt lat="45.82849" lon="1.87129">
        <ele>685.1</ele>
        <time>2026-07-09T08:14:39.000Z</time>
      </trkpt>
      <trkpt lat="45.82847" lon="1.87128">
        <ele>685.4</ele>
        <time>2026-07-09T08:14:40.000Z</time>
      </trkpt>
      <trkpt lat="45.82845" lon="1.87127">
        <ele>685.5</ele>
        <time>2026-07-09T08:14:41.000Z</time>
      </trkpt>
      <trkpt lat="45.82844" lon="1.87126">
        <ele>685.4</ele>
        <time>2026-07-09T08:14:42.000Z</time>
      </trkpt>
      <trkpt lat="45.82842" lon="1.87124">
        <ele>685</ele>
        <time>2026-07-09T08:14:43.000Z</time>
      </trkpt>
      <trkpt lat="45.8284" lon="1.87123">
        <ele>685</ele>
        <time>2026-07-09T08:14:44.000Z</time>
      </trkpt>
      <trkpt lat="45.82839" lon="1.87121">
        <ele>684.7</ele>
        <time>2026-07-09T08:14:45.000Z</time>
      </trkpt>
      <trkpt lat="45.82837" lon="1.87119">
        <ele>684.5</ele>
        <time>2026-07-09T08:14:46.000Z</time>
      </trkpt>
      <trkpt lat="45.82834" lon="1.87118">
        <ele>684.5</ele>
        <time>2026-07-09T08:14:47.000Z</time>
      </trkpt>
      <trkpt lat="45.82833" lon="1.87116">
        <ele>684.1</ele>
        <time>2026-07-09T08:14:48.000Z</time>
      </trkpt>
      <trkpt lat="45.82832" lon="1.87113">
        <ele>683.9</ele>
        <time>2026-07-09T08:14:49.000Z</time>
      </trkpt>
      <trkpt lat="45.8283" lon="1.87111">
        <ele>683.7</ele>
        <time>2026-07-09T08:14:50.000Z</time>
      </trkpt>
      <trkpt lat="45.82829" lon="1.87109">
        <ele>683.9</ele>
        <time>2026-07-09T08:14:51.000Z</time>
      </trkpt>
      <trkpt lat="45.82827" lon="1.87108">
        <ele>683.8</ele>
        <time>2026-07-09T08:14:52.000Z</time>
      </trkpt>
      <trkpt lat="45.82826" lon="1.87106">
        <ele>684</ele>
        <time>2026-07-09T08:14:53.000Z</time>
      </trkpt>
      <trkpt lat="45.82824" lon="1.87105">
        <ele>683.8</ele>
        <time>2026-07-09T08:14:54.000Z</time>
      </trkpt>
      <trkpt lat="45.82823" lon="1.87104">
        <ele>683.8</ele>
        <time>2026-07-09T08:14:55.000Z</time>
      </trkpt>
      <trkpt lat="45.82823" lon="1.87101">
        <ele>684</ele>
        <time>2026-07-09T08:14:56.000Z</time>
      </trkpt>
      <trkpt lat="45.8282" lon="1.87102">
        <ele>683.7</ele>
        <time>2026-07-09T08:14:57.000Z</time>
      </trkpt>
      <trkpt lat="45.82819" lon="1.87101">
        <ele>683.6</ele>
        <time>2026-07-09T08:14:58.000Z</time>
      </trkpt>
      <trkpt lat="45.82817" lon="1.87099">
        <ele>683.4</ele>
        <time>2026-07-09T08:14:59.000Z</time>
      </trkpt>
      <trkpt lat="45.82816" lon="1.87099">
        <ele>683</ele>
        <time>2026-07-09T08:15:00.000Z</time>
      </trkpt>
      <trkpt lat="45.82815" lon="1.87097">
        <ele>682.9</ele>
        <time>2026-07-09T08:15:01.000Z</time>
      </trkpt>
      <trkpt lat="45.82813" lon="1.87096">
        <ele>682.2</ele>
        <time>2026-07-09T08:15:02.000Z</time>
      </trkpt>
      <trkpt lat="45.82812" lon="1.87095">
        <ele>682.1</ele>
        <time>2026-07-09T08:15:03.000Z</time>
      </trkpt>
      <trkpt lat="45.8281" lon="1.87094">
        <ele>682.4</ele>
        <time>2026-07-09T08:15:04.000Z</time>
      </trkpt>
      <trkpt lat="45.82808" lon="1.87094">
        <ele>682.3</ele>
        <time>2026-07-09T08:15:05.000Z</time>
      </trkpt>
      <trkpt lat="45.82807" lon="1.87093">
        <ele>683</ele>
        <time>2026-07-09T08:15:06.000Z</time>
      </trkpt>
      <trkpt lat="45.82806" lon="1.87093">
        <ele>683.1</ele>
        <time>2026-07-09T08:15:07.000Z</time>
      </trkpt>
      <trkpt lat="45.82804" lon="1.87091">
        <ele>682.2</ele>
        <time>2026-07-09T08:15:08.000Z</time>
      </trkpt>
      <trkpt lat="45.82803" lon="1.87089">
        <ele>680.9</ele>
        <time>2026-07-09T08:15:09.000Z</time>
      </trkpt>
      <trkpt lat="45.82802" lon="1.87087">
        <ele>681.2</ele>
        <time>2026-07-09T08:15:10.000Z</time>
      </trkpt>
      <trkpt lat="45.82801" lon="1.87085">
        <ele>681.4</ele>
        <time>2026-07-09T08:15:11.000Z</time>
      </trkpt>
      <trkpt lat="45.828" lon="1.87083">
        <ele>681.5</ele>
        <time>2026-07-09T08:15:12.000Z</time>
      </trkpt>
      <trkpt lat="45.82798" lon="1.87081">
        <ele>681.3</ele>
        <time>2026-07-09T08:15:13.000Z</time>
      </trkpt>
      <trkpt lat="45.82797" lon="1.87079">
        <ele>681.3</ele>
        <time>2026-07-09T08:15:14.000Z</time>
      </trkpt>
      <trkpt lat="45.82796" lon="1.87077">
        <ele>681.4</ele>
        <time>2026-07-09T08:15:15.000Z</time>
      </trkpt>
      <trkpt lat="45.82795" lon="1.87076">
        <ele>681.3</ele>
        <time>2026-07-09T08:15:16.000Z</time>
      </trkpt>
      <trkpt lat="45.82794" lon="1.87074">
        <ele>681</ele>
        <time>2026-07-09T08:15:17.000Z</time>
      </trkpt>
      <trkpt lat="45.82793" lon="1.87072">
        <ele>681</ele>
        <time>2026-07-09T08:15:18.000Z</time>
      </trkpt>
      <trkpt lat="45.82792" lon="1.8707">
        <ele>681.2</ele>
        <time>2026-07-09T08:15:19.000Z</time>
      </trkpt>
      <trkpt lat="45.82791" lon="1.87067">
        <ele>681.4</ele>
        <time>2026-07-09T08:15:20.000Z</time>
      </trkpt>
      <trkpt lat="45.8279" lon="1.87065">
        <ele>681.8</ele>
        <time>2026-07-09T08:15:21.000Z</time>
      </trkpt>
      <trkpt lat="45.82789" lon="1.87062">
        <ele>681.6</ele>
        <time>2026-07-09T08:15:22.000Z</time>
      </trkpt>
      <trkpt lat="45.82788" lon="1.8706">
        <ele>681.8</ele>
        <time>2026-07-09T08:15:23.000Z</time>
      </trkpt>
      <trkpt lat="45.82787" lon="1.87058">
        <ele>682</ele>
        <time>2026-07-09T08:15:24.000Z</time>
      </trkpt>
      <trkpt lat="45.82787" lon="1.87056">
        <ele>681.4</ele>
        <time>2026-07-09T08:15:25.000Z</time>
      </trkpt>
      <trkpt lat="45.82786" lon="1.87054">
        <ele>681.3</ele>
        <time>2026-07-09T08:15:26.000Z</time>
      </trkpt>
      <trkpt lat="45.82785" lon="1.87052">
        <ele>681.2</ele>
        <time>2026-07-09T08:15:27.000Z</time>
      </trkpt>
      <trkpt lat="45.82784" lon="1.8705">
        <ele>681.5</ele>
        <time>2026-07-09T08:15:28.000Z</time>
      </trkpt>
      <trkpt lat="45.82783" lon="1.87048">
        <ele>681.7</ele>
        <time>2026-07-09T08:15:29.000Z</time>
      </trkpt>
      <trkpt lat="45.82783" lon="1.87046">
        <ele>681.5</ele>
        <time>2026-07-09T08:15:30.000Z</time>
      </trkpt>
      <trkpt lat="45.82781" lon="1.87044">
        <ele>681.3</ele>
        <time>2026-07-09T08:15:31.000Z</time>
      </trkpt>
      <trkpt lat="45.8278" lon="1.87042">
        <ele>681.3</ele>
        <time>2026-07-09T08:15:32.000Z</time>
      </trkpt>
      <trkpt lat="45.82779" lon="1.8704">
        <ele>681.3</ele>
        <time>2026-07-09T08:15:33.000Z</time>
      </trkpt>
      <trkpt lat="45.82778" lon="1.87038">
        <ele>681.7</ele>
        <time>2026-07-09T08:15:34.000Z</time>
      </trkpt>
      <trkpt lat="45.82777" lon="1.87036">
        <ele>681.5</ele>
        <time>2026-07-09T08:15:35.000Z</time>
      </trkpt>
      <trkpt lat="45.82776" lon="1.87035">
        <ele>681.2</ele>
        <time>2026-07-09T08:15:36.000Z</time>
      </trkpt>
      <trkpt lat="45.82775" lon="1.87033">
        <ele>681.5</ele>
        <time>2026-07-09T08:15:37.000Z</time>
      </trkpt>
      <trkpt lat="45.82774" lon="1.87031">
        <ele>681.5</ele>
        <time>2026-07-09T08:15:38.000Z</time>
      </trkpt>
      <trkpt lat="45.82773" lon="1.87029">
        <ele>681.6</ele>
        <time>2026-07-09T08:15:39.000Z</time>
      </trkpt>
      <trkpt lat="45.82772" lon="1.87027">
        <ele>681.6</ele>
        <time>2026-07-09T08:15:40.000Z</time>
      </trkpt>
      <trkpt lat="45.82771" lon="1.87025">
        <ele>681.2</ele>
        <time>2026-07-09T08:15:41.000Z</time>
      </trkpt>
      <trkpt lat="45.8277" lon="1.87023">
        <ele>681</ele>
        <time>2026-07-09T08:15:42.000Z</time>
      </trkpt>
      <trkpt lat="45.82769" lon="1.87022">
        <ele>681.9</ele>
        <time>2026-07-09T08:15:43.000Z</time>
      </trkpt>
      <trkpt lat="45.82768" lon="1.87021">
        <ele>682</ele>
        <time>2026-07-09T08:15:44.000Z</time>
      </trkpt>
      <trkpt lat="45.82767" lon="1.87019">
        <ele>682.3</ele>
        <time>2026-07-09T08:15:45.000Z</time>
      </trkpt>
      <trkpt lat="45.82766" lon="1.87017">
        <ele>681.9</ele>
        <time>2026-07-09T08:15:46.000Z</time>
      </trkpt>
      <trkpt lat="45.82765" lon="1.87015">
        <ele>681.6</ele>
        <time>2026-07-09T08:15:47.000Z</time>
      </trkpt>
      <trkpt lat="45.82764" lon="1.87014">
        <ele>681.2</ele>
        <time>2026-07-09T08:15:48.000Z</time>
      </trkpt>
      <trkpt lat="45.82764" lon="1.87011">
        <ele>681.7</ele>
        <time>2026-07-09T08:15:49.000Z</time>
      </trkpt>
      <trkpt lat="45.82763" lon="1.87009">
        <ele>681.4</ele>
        <time>2026-07-09T08:15:50.000Z</time>
      </trkpt>
      <trkpt lat="45.82762" lon="1.87008">
        <ele>681.5</ele>
        <time>2026-07-09T08:15:51.000Z</time>
      </trkpt>
      <trkpt lat="45.82761" lon="1.87006">
        <ele>681.7</ele>
        <time>2026-07-09T08:15:52.000Z</time>
      </trkpt>
      <trkpt lat="45.82761" lon="1.87003">
        <ele>681.8</ele>
        <time>2026-07-09T08:15:53.000Z</time>
      </trkpt>
      <trkpt lat="45.8276" lon="1.87001">
        <ele>682.1</ele>
        <time>2026-07-09T08:15:54.000Z</time>
      </trkpt>
      <trkpt lat="45.82759" lon="1.86999">
        <ele>682.1</ele>
        <time>2026-07-09T08:15:55.000Z</time>
      </trkpt>
      <trkpt lat="45.82758" lon="1.86997">
        <ele>682.9</ele>
        <time>2026-07-09T08:15:56.000Z</time>
      </trkpt>
      <trkpt lat="45.82757" lon="1.86995">
        <ele>683.3</ele>
        <time>2026-07-09T08:15:57.000Z</time>
      </trkpt>
      <trkpt lat="45.82755" lon="1.86994">
        <ele>682.7</ele>
        <time>2026-07-09T08:15:58.000Z</time>
      </trkpt>
      <trkpt lat="45.82754" lon="1.86993">
        <ele>683.1</ele>
        <time>2026-07-09T08:15:59.000Z</time>
      </trkpt>
      <trkpt lat="45.82753" lon="1.86991">
        <ele>683.2</ele>
        <time>2026-07-09T08:16:00.000Z</time>
      </trkpt>
      <trkpt lat="45.82751" lon="1.8699">
        <ele>683.3</ele>
        <time>2026-07-09T08:16:01.000Z</time>
      </trkpt>
      <trkpt lat="45.8275" lon="1.8699">
        <ele>682.9</ele>
        <time>2026-07-09T08:16:02.000Z</time>
      </trkpt>
      <trkpt lat="45.82749" lon="1.86989">
        <ele>682.9</ele>
        <time>2026-07-09T08:16:03.000Z</time>
      </trkpt>
      <trkpt lat="45.82748" lon="1.86987">
        <ele>683.4</ele>
        <time>2026-07-09T08:16:04.000Z</time>
      </trkpt>
      <trkpt lat="45.82747" lon="1.86985">
        <ele>683.6</ele>
        <time>2026-07-09T08:16:05.000Z</time>
      </trkpt>
      <trkpt lat="45.82746" lon="1.86984">
        <ele>684.2</ele>
        <time>2026-07-09T08:16:06.000Z</time>
      </trkpt>
      <trkpt lat="45.82745" lon="1.86982">
        <ele>684.3</ele>
        <time>2026-07-09T08:16:07.000Z</time>
      </trkpt>
      <trkpt lat="45.82744" lon="1.8698">
        <ele>684.2</ele>
        <time>2026-07-09T08:16:08.000Z</time>
      </trkpt>
      <trkpt lat="45.82742" lon="1.86978">
        <ele>684.1</ele>
        <time>2026-07-09T08:16:09.000Z</time>
      </trkpt>
      <trkpt lat="45.82741" lon="1.86977">
        <ele>683.8</ele>
        <time>2026-07-09T08:16:10.000Z</time>
      </trkpt>
      <trkpt lat="45.82741" lon="1.86977">
        <ele>682.1</ele>
        <time>2026-07-09T08:16:11.000Z</time>
      </trkpt>
      <trkpt lat="45.8274" lon="1.86975">
        <ele>681.8</ele>
        <time>2026-07-09T08:16:12.000Z</time>
      </trkpt>
      <trkpt lat="45.82738" lon="1.86974">
        <ele>681.4</ele>
        <time>2026-07-09T08:16:13.000Z</time>
      </trkpt>
      <trkpt lat="45.82737" lon="1.86972">
        <ele>681.3</ele>
        <time>2026-07-09T08:16:14.000Z</time>
      </trkpt>
      <trkpt lat="45.82735" lon="1.86971">
        <ele>680.7</ele>
        <time>2026-07-09T08:16:15.000Z</time>
      </trkpt>
      <trkpt lat="45.82733" lon="1.8697">
        <ele>680.8</ele>
        <time>2026-07-09T08:16:16.000Z</time>
      </trkpt>
      <trkpt lat="45.82732" lon="1.86969">
        <ele>680.5</ele>
        <time>2026-07-09T08:16:17.000Z</time>
      </trkpt>
      <trkpt lat="45.82731" lon="1.86969">
        <ele>679.8</ele>
        <time>2026-07-09T08:16:18.000Z</time>
      </trkpt>
      <trkpt lat="45.82729" lon="1.86969">
        <ele>679.7</ele>
        <time>2026-07-09T08:16:19.000Z</time>
      </trkpt>
      <trkpt lat="45.82727" lon="1.86969">
        <ele>679.5</ele>
        <time>2026-07-09T08:16:20.000Z</time>
      </trkpt>
      <trkpt lat="45.82726" lon="1.8697">
        <ele>679.6</ele>
        <time>2026-07-09T08:16:21.000Z</time>
      </trkpt>
      <trkpt lat="45.82724" lon="1.8697">
        <ele>679.9</ele>
        <time>2026-07-09T08:16:22.000Z</time>
      </trkpt>
      <trkpt lat="45.82722" lon="1.86971">
        <ele>681.6</ele>
        <time>2026-07-09T08:16:23.000Z</time>
      </trkpt>
      <trkpt lat="45.8272" lon="1.86972">
        <ele>681.2</ele>
        <time>2026-07-09T08:16:24.000Z</time>
      </trkpt>
      <trkpt lat="45.82719" lon="1.86972">
        <ele>680.9</ele>
        <time>2026-07-09T08:16:25.000Z</time>
      </trkpt>
      <trkpt lat="45.82717" lon="1.86972">
        <ele>680.5</ele>
        <time>2026-07-09T08:16:26.000Z</time>
      </trkpt>
      <trkpt lat="45.82716" lon="1.86974">
        <ele>680.3</ele>
        <time>2026-07-09T08:16:27.000Z</time>
      </trkpt>
      <trkpt lat="45.82715" lon="1.86976">
        <ele>680.4</ele>
        <time>2026-07-09T08:16:28.000Z</time>
      </trkpt>
      <trkpt lat="45.82714" lon="1.86978">
        <ele>680.5</ele>
        <time>2026-07-09T08:16:29.000Z</time>
      </trkpt>
      <trkpt lat="45.82712" lon="1.86979">
        <ele>680.3</ele>
        <time>2026-07-09T08:16:30.000Z</time>
      </trkpt>
      <trkpt lat="45.8271" lon="1.8698">
        <ele>680.3</ele>
        <time>2026-07-09T08:16:31.000Z</time>
      </trkpt>
      <trkpt lat="45.82708" lon="1.86981">
        <ele>679.4</ele>
        <time>2026-07-09T08:16:32.000Z</time>
      </trkpt>
      <trkpt lat="45.82707" lon="1.86982">
        <ele>678.5</ele>
        <time>2026-07-09T08:16:33.000Z</time>
      </trkpt>
      <trkpt lat="45.82705" lon="1.86984">
        <ele>677.8</ele>
        <time>2026-07-09T08:16:34.000Z</time>
      </trkpt>
      <trkpt lat="45.82704" lon="1.86986">
        <ele>677.3</ele>
        <time>2026-07-09T08:16:35.000Z</time>
      </trkpt>
      <trkpt lat="45.82703" lon="1.86988">
        <ele>676.4</ele>
        <time>2026-07-09T08:16:36.000Z</time>
      </trkpt>
      <trkpt lat="45.82702" lon="1.86989">
        <ele>675.9</ele>
        <time>2026-07-09T08:16:37.000Z</time>
      </trkpt>
      <trkpt lat="45.827" lon="1.86991">
        <ele>676.4</ele>
        <time>2026-07-09T08:16:38.000Z</time>
      </trkpt>
      <trkpt lat="45.82698" lon="1.86992">
        <ele>676.5</ele>
        <time>2026-07-09T08:16:39.000Z</time>
      </trkpt>
      <trkpt lat="45.82697" lon="1.86993">
        <ele>676.4</ele>
        <time>2026-07-09T08:16:40.000Z</time>
      </trkpt>
      <trkpt lat="45.82695" lon="1.86993">
        <ele>677.1</ele>
        <time>2026-07-09T08:16:41.000Z</time>
      </trkpt>
      <trkpt lat="45.82693" lon="1.86993">
        <ele>677.2</ele>
        <time>2026-07-09T08:16:42.000Z</time>
      </trkpt>
      <trkpt lat="45.82691" lon="1.86993">
        <ele>676.8</ele>
        <time>2026-07-09T08:16:43.000Z</time>
      </trkpt>
      <trkpt lat="45.82689" lon="1.86993">
        <ele>676.8</ele>
        <time>2026-07-09T08:16:44.000Z</time>
      </trkpt>
      <trkpt lat="45.82687" lon="1.86993">
        <ele>676.7</ele>
        <time>2026-07-09T08:16:45.000Z</time>
      </trkpt>
      <trkpt lat="45.82685" lon="1.86993">
        <ele>676.6</ele>
        <time>2026-07-09T08:16:46.000Z</time>
      </trkpt>
      <trkpt lat="45.82683" lon="1.86992">
        <ele>676.5</ele>
        <time>2026-07-09T08:16:47.000Z</time>
      </trkpt>
      <trkpt lat="45.82682" lon="1.86991">
        <ele>676.6</ele>
        <time>2026-07-09T08:16:48.000Z</time>
      </trkpt>
      <trkpt lat="45.8268" lon="1.8699">
        <ele>676.5</ele>
        <time>2026-07-09T08:16:49.000Z</time>
      </trkpt>
      <trkpt lat="45.82678" lon="1.86989">
        <ele>676.4</ele>
        <time>2026-07-09T08:16:50.000Z</time>
      </trkpt>
      <trkpt lat="45.82676" lon="1.86988">
        <ele>676.4</ele>
        <time>2026-07-09T08:16:51.000Z</time>
      </trkpt>
      <trkpt lat="45.82675" lon="1.86986">
        <ele>675.9</ele>
        <time>2026-07-09T08:16:52.000Z</time>
      </trkpt>
      <trkpt lat="45.82673" lon="1.86985">
        <ele>676.6</ele>
        <time>2026-07-09T08:16:53.000Z</time>
      </trkpt>
      <trkpt lat="45.82672" lon="1.86984">
        <ele>676.3</ele>
        <time>2026-07-09T08:16:54.000Z</time>
      </trkpt>
      <trkpt lat="45.82671" lon="1.86983">
        <ele>676.3</ele>
        <time>2026-07-09T08:16:55.000Z</time>
      </trkpt>
      <trkpt lat="45.8267" lon="1.86982">
        <ele>675.7</ele>
        <time>2026-07-09T08:16:56.000Z</time>
      </trkpt>
      <trkpt lat="45.82669" lon="1.8698">
        <ele>676</ele>
        <time>2026-07-09T08:16:57.000Z</time>
      </trkpt>
      <trkpt lat="45.82667" lon="1.86979">
        <ele>675.7</ele>
        <time>2026-07-09T08:16:58.000Z</time>
      </trkpt>
      <trkpt lat="45.82666" lon="1.86977">
        <ele>676.1</ele>
        <time>2026-07-09T08:16:59.000Z</time>
      </trkpt>
      <trkpt lat="45.82664" lon="1.86976">
        <ele>676.1</ele>
        <time>2026-07-09T08:17:00.000Z</time>
      </trkpt>
      <trkpt lat="45.82663" lon="1.86975">
        <ele>675.8</ele>
        <time>2026-07-09T08:17:01.000Z</time>
      </trkpt>
      <trkpt lat="45.82661" lon="1.86974">
        <ele>676.1</ele>
        <time>2026-07-09T08:17:02.000Z</time>
      </trkpt>
      <trkpt lat="45.82659" lon="1.86973">
        <ele>676.2</ele>
        <time>2026-07-09T08:17:03.000Z</time>
      </trkpt>
      <trkpt lat="45.82657" lon="1.86972">
        <ele>676.3</ele>
        <time>2026-07-09T08:17:04.000Z</time>
      </trkpt>
      <trkpt lat="45.82656" lon="1.86971">
        <ele>675.9</ele>
        <time>2026-07-09T08:17:05.000Z</time>
      </trkpt>
      <trkpt lat="45.82654" lon="1.8697">
        <ele>675.6</ele>
        <time>2026-07-09T08:17:06.000Z</time>
      </trkpt>
      <trkpt lat="45.82654" lon="1.86966">
        <ele>675.8</ele>
        <time>2026-07-09T08:17:07.000Z</time>
      </trkpt>
      <trkpt lat="45.82652" lon="1.86964">
        <ele>676.8</ele>
        <time>2026-07-09T08:17:08.000Z</time>
      </trkpt>
      <trkpt lat="45.8265" lon="1.86962">
        <ele>677</ele>
        <time>2026-07-09T08:17:09.000Z</time>
      </trkpt>
      <trkpt lat="45.82649" lon="1.86962">
        <ele>676.1</ele>
        <time>2026-07-09T08:17:10.000Z</time>
      </trkpt>
      <trkpt lat="45.82647" lon="1.86961">
        <ele>676.2</ele>
        <time>2026-07-09T08:17:11.000Z</time>
      </trkpt>
      <trkpt lat="45.82645" lon="1.8696">
        <ele>676.5</ele>
        <time>2026-07-09T08:17:12.000Z</time>
      </trkpt>
      <trkpt lat="45.82643" lon="1.86958">
        <ele>676.2</ele>
        <time>2026-07-09T08:17:13.000Z</time>
      </trkpt>
      <trkpt lat="45.82641" lon="1.86957">
        <ele>676.7</ele>
        <time>2026-07-09T08:17:14.000Z</time>
      </trkpt>
      <trkpt lat="45.82639" lon="1.86956">
        <ele>676.6</ele>
        <time>2026-07-09T08:17:15.000Z</time>
      </trkpt>
      <trkpt lat="45.82637" lon="1.86954">
        <ele>676.8</ele>
        <time>2026-07-09T08:17:16.000Z</time>
      </trkpt>
      <trkpt lat="45.82635" lon="1.86953">
        <ele>676.6</ele>
        <time>2026-07-09T08:17:17.000Z</time>
      </trkpt>
      <trkpt lat="45.82634" lon="1.86952">
        <ele>676.1</ele>
        <time>2026-07-09T08:17:18.000Z</time>
      </trkpt>
      <trkpt lat="45.82632" lon="1.86952">
        <ele>676</ele>
        <time>2026-07-09T08:17:19.000Z</time>
      </trkpt>
      <trkpt lat="45.8263" lon="1.86951">
        <ele>676</ele>
        <time>2026-07-09T08:17:20.000Z</time>
      </trkpt>
      <trkpt lat="45.82627" lon="1.8695">
        <ele>676.5</ele>
        <time>2026-07-09T08:17:21.000Z</time>
      </trkpt>
      <trkpt lat="45.82625" lon="1.86949">
        <ele>677.3</ele>
        <time>2026-07-09T08:17:22.000Z</time>
      </trkpt>
      <trkpt lat="45.82623" lon="1.86948">
        <ele>677.2</ele>
        <time>2026-07-09T08:17:23.000Z</time>
      </trkpt>
      <trkpt lat="45.82621" lon="1.86947">
        <ele>677.3</ele>
        <time>2026-07-09T08:17:24.000Z</time>
      </trkpt>
      <trkpt lat="45.82619" lon="1.86945">
        <ele>676.3</ele>
        <time>2026-07-09T08:17:25.000Z</time>
      </trkpt>
      <trkpt lat="45.82617" lon="1.86943">
        <ele>676</ele>
        <time>2026-07-09T08:17:26.000Z</time>
      </trkpt>
      <trkpt lat="45.82616" lon="1.86941">
        <ele>675.7</ele>
        <time>2026-07-09T08:17:27.000Z</time>
      </trkpt>
      <trkpt lat="45.82614" lon="1.86939">
        <ele>675.5</ele>
        <time>2026-07-09T08:17:28.000Z</time>
      </trkpt>
      <trkpt lat="45.82613" lon="1.86937">
        <ele>675</ele>
        <time>2026-07-09T08:17:29.000Z</time>
      </trkpt>
      <trkpt lat="45.82613" lon="1.86931">
        <ele>675.8</ele>
        <time>2026-07-09T08:17:30.000Z</time>
      </trkpt>
      <trkpt lat="45.82614" lon="1.86927">
        <ele>676.8</ele>
        <time>2026-07-09T08:17:31.000Z</time>
      </trkpt>
      <trkpt lat="45.82613" lon="1.86924">
        <ele>676.8</ele>
        <time>2026-07-09T08:17:32.000Z</time>
      </trkpt>
      <trkpt lat="45.82613" lon="1.86921">
        <ele>677.5</ele>
        <time>2026-07-09T08:17:33.000Z</time>
      </trkpt>
      <trkpt lat="45.82613" lon="1.86919">
        <ele>679</ele>
        <time>2026-07-09T08:17:34.000Z</time>
      </trkpt>
      <trkpt lat="45.82612" lon="1.86916">
        <ele>678.9</ele>
        <time>2026-07-09T08:17:35.000Z</time>
      </trkpt>
      <trkpt lat="45.82612" lon="1.86913">
        <ele>678.4</ele>
        <time>2026-07-09T08:17:36.000Z</time>
      </trkpt>
      <trkpt lat="45.82612" lon="1.8691">
        <ele>678.9</ele>
        <time>2026-07-09T08:17:37.000Z</time>
      </trkpt>
      <trkpt lat="45.82612" lon="1.86907">
        <ele>678</ele>
        <time>2026-07-09T08:17:38.000Z</time>
      </trkpt>
      <trkpt lat="45.82611" lon="1.86903">
        <ele>679.1</ele>
        <time>2026-07-09T08:17:39.000Z</time>
      </trkpt>
      <trkpt lat="45.82611" lon="1.869">
        <ele>679.1</ele>
        <time>2026-07-09T08:17:40.000Z</time>
      </trkpt>
      <trkpt lat="45.82611" lon="1.86897">
        <ele>679</ele>
        <time>2026-07-09T08:17:41.000Z</time>
      </trkpt>
      <trkpt lat="45.82611" lon="1.86894">
        <ele>679.7</ele>
        <time>2026-07-09T08:17:42.000Z</time>
      </trkpt>
      <trkpt lat="45.82611" lon="1.8689">
        <ele>679.1</ele>
        <time>2026-07-09T08:17:43.000Z</time>
      </trkpt>
      <trkpt lat="45.82612" lon="1.86886">
        <ele>680.2</ele>
        <time>2026-07-09T08:17:44.000Z</time>
      </trkpt>
      <trkpt lat="45.82613" lon="1.86881">
        <ele>680.5</ele>
        <time>2026-07-09T08:17:45.000Z</time>
      </trkpt>
      <trkpt lat="45.82613" lon="1.86877">
        <ele>682.6</ele>
        <time>2026-07-09T08:17:46.000Z</time>
      </trkpt>
      <trkpt lat="45.82613" lon="1.86871">
        <ele>682.6</ele>
        <time>2026-07-09T08:17:47.000Z</time>
      </trkpt>
      <trkpt lat="45.82612" lon="1.86864">
        <ele>682.7</ele>
        <time>2026-07-09T08:17:48.000Z</time>
      </trkpt>
      <trkpt lat="45.82609" lon="1.86856">
        <ele>683.9</ele>
        <time>2026-07-09T08:17:49.000Z</time>
      </trkpt>
      <trkpt lat="45.82606" lon="1.86848">
        <ele>682.7</ele>
        <time>2026-07-09T08:17:50.000Z</time>
      </trkpt>
      <trkpt lat="45.82603" lon="1.8684">
        <ele>682.6</ele>
        <time>2026-07-09T08:17:51.000Z</time>
      </trkpt>
      <trkpt lat="45.82601" lon="1.86834">
        <ele>682</ele>
        <time>2026-07-09T08:17:52.000Z</time>
      </trkpt>
      <trkpt lat="45.82601" lon="1.86827">
        <ele>682.1</ele>
        <time>2026-07-09T08:17:53.000Z</time>
      </trkpt>
      <trkpt lat="45.82599" lon="1.8682">
        <ele>682.7</ele>
        <time>2026-07-09T08:17:54.000Z</time>
      </trkpt>
      <trkpt lat="45.82597" lon="1.8681">
        <ele>682.9</ele>
        <time>2026-07-09T08:17:55.000Z</time>
      </trkpt>
      <trkpt lat="45.82595" lon="1.86803">
        <ele>683.5</ele>
        <time>2026-07-09T08:17:56.000Z</time>
      </trkpt>
      <trkpt lat="45.82592" lon="1.86796">
        <ele>683.6</ele>
        <time>2026-07-09T08:17:57.000Z</time>
      </trkpt>
      <trkpt lat="45.82591" lon="1.86789">
        <ele>683.4</ele>
        <time>2026-07-09T08:17:58.000Z</time>
      </trkpt>
      <trkpt lat="45.8259" lon="1.86784">
        <ele>682.7</ele>
        <time>2026-07-09T08:17:59.000Z</time>
      </trkpt>
      <trkpt lat="45.82588" lon="1.8678">
        <ele>682.9</ele>
        <time>2026-07-09T08:18:00.000Z</time>
      </trkpt>
      <trkpt lat="45.82587" lon="1.86776">
        <ele>682.5</ele>
        <time>2026-07-09T08:18:01.000Z</time>
      </trkpt>
      <trkpt lat="45.82586" lon="1.86772">
        <ele>682.3</ele>
        <time>2026-07-09T08:18:02.000Z</time>
      </trkpt>
      <trkpt lat="45.82584" lon="1.86768">
        <ele>681.8</ele>
        <time>2026-07-09T08:18:03.000Z</time>
      </trkpt>
      <trkpt lat="45.82583" lon="1.86764">
        <ele>682.4</ele>
        <time>2026-07-09T08:18:04.000Z</time>
      </trkpt>
      <trkpt lat="45.82582" lon="1.86759">
        <ele>682.7</ele>
        <time>2026-07-09T08:18:05.000Z</time>
      </trkpt>
      <trkpt lat="45.82581" lon="1.86755">
        <ele>682.7</ele>
        <time>2026-07-09T08:18:06.000Z</time>
      </trkpt>
      <trkpt lat="45.8258" lon="1.86751">
        <ele>682.6</ele>
        <time>2026-07-09T08:18:07.000Z</time>
      </trkpt>
      <trkpt lat="45.82578" lon="1.86748">
        <ele>683.5</ele>
        <time>2026-07-09T08:18:08.000Z</time>
      </trkpt>
      <trkpt lat="45.82577" lon="1.86743">
        <ele>683.3</ele>
        <time>2026-07-09T08:18:09.000Z</time>
      </trkpt>
      <trkpt lat="45.82575" lon="1.86739">
        <ele>683.1</ele>
        <time>2026-07-09T08:18:10.000Z</time>
      </trkpt>
      <trkpt lat="45.82572" lon="1.86735">
        <ele>683.8</ele>
        <time>2026-07-09T08:18:11.000Z</time>
      </trkpt>
      <trkpt lat="45.8257" lon="1.8673">
        <ele>684.3</ele>
        <time>2026-07-09T08:18:12.000Z</time>
      </trkpt>
      <trkpt lat="45.82568" lon="1.86725">
        <ele>683.8</ele>
        <time>2026-07-09T08:18:13.000Z</time>
      </trkpt>
      <trkpt lat="45.82566" lon="1.86717">
        <ele>685.4</ele>
        <time>2026-07-09T08:18:14.000Z</time>
      </trkpt>
      <trkpt lat="45.82565" lon="1.86708">
        <ele>686.5</ele>
        <time>2026-07-09T08:18:15.000Z</time>
      </trkpt>
      <trkpt lat="45.82564" lon="1.86698">
        <ele>686.7</ele>
        <time>2026-07-09T08:18:16.000Z</time>
      </trkpt>
      <trkpt lat="45.82564" lon="1.86691">
        <ele>686.7</ele>
        <time>2026-07-09T08:18:17.000Z</time>
      </trkpt>
      <trkpt lat="45.82566" lon="1.86684">
        <ele>687.3</ele>
        <time>2026-07-09T08:18:18.000Z</time>
      </trkpt>
      <trkpt lat="45.8257" lon="1.86677">
        <ele>689</ele>
        <time>2026-07-09T08:18:19.000Z</time>
      </trkpt>
      <trkpt lat="45.82574" lon="1.86672">
        <ele>689.8</ele>
        <time>2026-07-09T08:18:20.000Z</time>
      </trkpt>
      <trkpt lat="45.82578" lon="1.86667">
        <ele>691.2</ele>
        <time>2026-07-09T08:18:21.000Z</time>
      </trkpt>
      <trkpt lat="45.82582" lon="1.86662">
        <ele>692.2</ele>
        <time>2026-07-09T08:18:22.000Z</time>
      </trkpt>
      <trkpt lat="45.82585" lon="1.86656">
        <ele>691.9</ele>
        <time>2026-07-09T08:18:23.000Z</time>
      </trkpt>
      <trkpt lat="45.82588" lon="1.8665">
        <ele>692.3</ele>
        <time>2026-07-09T08:18:24.000Z</time>
      </trkpt>
      <trkpt lat="45.82591" lon="1.86644">
        <ele>692.3</ele>
        <time>2026-07-09T08:18:25.000Z</time>
      </trkpt>
      <trkpt lat="45.82594" lon="1.86638">
        <ele>691.8</ele>
        <time>2026-07-09T08:18:26.000Z</time>
      </trkpt>
      <trkpt lat="45.82598" lon="1.86631">
        <ele>692.1</ele>
        <time>2026-07-09T08:18:27.000Z</time>
      </trkpt>
      <trkpt lat="45.82603" lon="1.86625">
        <ele>692.6</ele>
        <time>2026-07-09T08:18:28.000Z</time>
      </trkpt>
      <trkpt lat="45.82608" lon="1.86619">
        <ele>692.9</ele>
        <time>2026-07-09T08:18:29.000Z</time>
      </trkpt>
      <trkpt lat="45.82612" lon="1.86611">
        <ele>691.9</ele>
        <time>2026-07-09T08:18:30.000Z</time>
      </trkpt>
      <trkpt lat="45.82614" lon="1.86603">
        <ele>690.4</ele>
        <time>2026-07-09T08:18:31.000Z</time>
      </trkpt>
      <trkpt lat="45.82614" lon="1.86594">
        <ele>690.9</ele>
        <time>2026-07-09T08:18:32.000Z</time>
      </trkpt>
      <trkpt lat="45.82614" lon="1.86586">
        <ele>691.4</ele>
        <time>2026-07-09T08:18:33.000Z</time>
      </trkpt>
      <trkpt lat="45.82615" lon="1.86577">
        <ele>693.5</ele>
        <time>2026-07-09T08:18:34.000Z</time>
      </trkpt>
      <trkpt lat="45.82616" lon="1.86569">
        <ele>692.6</ele>
        <time>2026-07-09T08:18:35.000Z</time>
      </trkpt>
      <trkpt lat="45.82616" lon="1.86559">
        <ele>690.3</ele>
        <time>2026-07-09T08:18:36.000Z</time>
      </trkpt>
      <trkpt lat="45.82621" lon="1.86543">
        <ele>694.2</ele>
        <time>2026-07-09T08:18:37.000Z</time>
      </trkpt>
      <trkpt lat="45.82622" lon="1.86533">
        <ele>693.6</ele>
        <time>2026-07-09T08:18:38.000Z</time>
      </trkpt>
      <trkpt lat="45.82623" lon="1.86524">
        <ele>695.8</ele>
        <time>2026-07-09T08:18:39.000Z</time>
      </trkpt>
      <trkpt lat="45.82621" lon="1.86515">
        <ele>696.4</ele>
        <time>2026-07-09T08:18:40.000Z</time>
      </trkpt>
      <trkpt lat="45.8262" lon="1.86506">
        <ele>696.3</ele>
        <time>2026-07-09T08:18:41.000Z</time>
      </trkpt>
      <trkpt lat="45.82619" lon="1.865">
        <ele>697.5</ele>
        <time>2026-07-09T08:18:42.000Z</time>
      </trkpt>
      <trkpt lat="45.82619" lon="1.86493">
        <ele>697.7</ele>
        <time>2026-07-09T08:18:43.000Z</time>
      </trkpt>
      <trkpt lat="45.82618" lon="1.86487">
        <ele>697.7</ele>
        <time>2026-07-09T08:18:44.000Z</time>
      </trkpt>
      <trkpt lat="45.82616" lon="1.86482">
        <ele>698.9</ele>
        <time>2026-07-09T08:18:45.000Z</time>
      </trkpt>
      <trkpt lat="45.82613" lon="1.86474">
        <ele>698.2</ele>
        <time>2026-07-09T08:18:46.000Z</time>
      </trkpt>
      <trkpt lat="45.82612" lon="1.86467">
        <ele>699.9</ele>
        <time>2026-07-09T08:18:47.000Z</time>
      </trkpt>
      <trkpt lat="45.82614" lon="1.86464">
        <ele>698.8</ele>
        <time>2026-07-09T08:18:48.000Z</time>
      </trkpt>
      <trkpt lat="45.82613" lon="1.8646">
        <ele>700.3</ele>
        <time>2026-07-09T08:18:49.000Z</time>
      </trkpt>
      <trkpt lat="45.82612" lon="1.86456">
        <ele>700.9</ele>
        <time>2026-07-09T08:18:50.000Z</time>
      </trkpt>
      <trkpt lat="45.82611" lon="1.86451">
        <ele>701.3</ele>
        <time>2026-07-09T08:18:51.000Z</time>
      </trkpt>
      <trkpt lat="45.82609" lon="1.86445">
        <ele>700.8</ele>
        <time>2026-07-09T08:18:52.000Z</time>
      </trkpt>
      <trkpt lat="45.82608" lon="1.86442">
        <ele>699.8</ele>
        <time>2026-07-09T08:18:53.000Z</time>
      </trkpt>
      <trkpt lat="45.82605" lon="1.86439">
        <ele>699.9</ele>
        <time>2026-07-09T08:18:54.000Z</time>
      </trkpt>
      <trkpt lat="45.82603" lon="1.86436">
        <ele>699.3</ele>
        <time>2026-07-09T08:18:55.000Z</time>
      </trkpt>
      <trkpt lat="45.82601" lon="1.86432">
        <ele>699.8</ele>
        <time>2026-07-09T08:18:56.000Z</time>
      </trkpt>
      <trkpt lat="45.82599" lon="1.86428">
        <ele>700.3</ele>
        <time>2026-07-09T08:18:57.000Z</time>
      </trkpt>
      <trkpt lat="45.82596" lon="1.86423">
        <ele>699.5</ele>
        <time>2026-07-09T08:18:58.000Z</time>
      </trkpt>
      <trkpt lat="45.82594" lon="1.86418">
        <ele>700</ele>
        <time>2026-07-09T08:18:59.000Z</time>
      </trkpt>
      <trkpt lat="45.82591" lon="1.86413">
        <ele>698.1</ele>
        <time>2026-07-09T08:19:00.000Z</time>
      </trkpt>
      <trkpt lat="45.82588" lon="1.86406">
        <ele>697.9</ele>
        <time>2026-07-09T08:19:01.000Z</time>
      </trkpt>
      <trkpt lat="45.82583" lon="1.86396">
        <ele>699.2</ele>
        <time>2026-07-09T08:19:02.000Z</time>
      </trkpt>
      <trkpt lat="45.82579" lon="1.86387">
        <ele>700.7</ele>
        <time>2026-07-09T08:19:03.000Z</time>
      </trkpt>
      <trkpt lat="45.82577" lon="1.86382">
        <ele>701.4</ele>
        <time>2026-07-09T08:19:04.000Z</time>
      </trkpt>
      <trkpt lat="45.82576" lon="1.86378">
        <ele>703</ele>
        <time>2026-07-09T08:19:05.000Z</time>
      </trkpt>
      <trkpt lat="45.82574" lon="1.86373">
        <ele>703.4</ele>
        <time>2026-07-09T08:19:06.000Z</time>
      </trkpt>
      <trkpt lat="45.82572" lon="1.86368">
        <ele>704.1</ele>
        <time>2026-07-09T08:19:07.000Z</time>
      </trkpt>
      <trkpt lat="45.8257" lon="1.86363">
        <ele>704.7</ele>
        <time>2026-07-09T08:19:08.000Z</time>
      </trkpt>
      <trkpt lat="45.82569" lon="1.86358">
        <ele>705.1</ele>
        <time>2026-07-09T08:19:09.000Z</time>
      </trkpt>
      <trkpt lat="45.82567" lon="1.86355">
        <ele>704.5</ele>
        <time>2026-07-09T08:19:10.000Z</time>
      </trkpt>
      <trkpt lat="45.82565" lon="1.8635">
        <ele>705.8</ele>
        <time>2026-07-09T08:19:11.000Z</time>
      </trkpt>
      <trkpt lat="45.82562" lon="1.86344">
        <ele>705.5</ele>
        <time>2026-07-09T08:19:12.000Z</time>
      </trkpt>
      <trkpt lat="45.8256" lon="1.8634">
        <ele>706.6</ele>
        <time>2026-07-09T08:19:13.000Z</time>
      </trkpt>
      <trkpt lat="45.82557" lon="1.86335">
        <ele>706.1</ele>
        <time>2026-07-09T08:19:14.000Z</time>
      </trkpt>
      <trkpt lat="45.82555" lon="1.86331">
        <ele>705.5</ele>
        <time>2026-07-09T08:19:15.000Z</time>
      </trkpt>
      <trkpt lat="45.82553" lon="1.86328">
        <ele>702.6</ele>
        <time>2026-07-09T08:19:16.000Z</time>
      </trkpt>
      <trkpt lat="45.82551" lon="1.86324">
        <ele>702.1</ele>
        <time>2026-07-09T08:19:17.000Z</time>
      </trkpt>
      <trkpt lat="45.82549" lon="1.86322">
        <ele>702.1</ele>
        <time>2026-07-09T08:19:18.000Z</time>
      </trkpt>
      <trkpt lat="45.82548" lon="1.86318">
        <ele>702.9</ele>
        <time>2026-07-09T08:19:19.000Z</time>
      </trkpt>
      <trkpt lat="45.82547" lon="1.86314">
        <ele>700.3</ele>
        <time>2026-07-09T08:19:20.000Z</time>
      </trkpt>
      <trkpt lat="45.82545" lon="1.86309">
        <ele>700.3</ele>
        <time>2026-07-09T08:19:21.000Z</time>
      </trkpt>
      <trkpt lat="45.82542" lon="1.86304">
        <ele>700.4</ele>
        <time>2026-07-09T08:19:22.000Z</time>
      </trkpt>
      <trkpt lat="45.82539" lon="1.863">
        <ele>700.7</ele>
        <time>2026-07-09T08:19:23.000Z</time>
      </trkpt>
      <trkpt lat="45.82536" lon="1.86294">
        <ele>701.4</ele>
        <time>2026-07-09T08:19:24.000Z</time>
      </trkpt>
      <trkpt lat="45.82533" lon="1.86288">
        <ele>701.5</ele>
        <time>2026-07-09T08:19:25.000Z</time>
      </trkpt>
      <trkpt lat="45.82531" lon="1.86284">
        <ele>701.9</ele>
        <time>2026-07-09T08:19:26.000Z</time>
      </trkpt>
      <trkpt lat="45.82528" lon="1.8628">
        <ele>701.9</ele>
        <time>2026-07-09T08:19:27.000Z</time>
      </trkpt>
      <trkpt lat="45.82524" lon="1.86276">
        <ele>701.9</ele>
        <time>2026-07-09T08:19:28.000Z</time>
      </trkpt>
      <trkpt lat="45.8252" lon="1.86271">
        <ele>701.4</ele>
        <time>2026-07-09T08:19:29.000Z</time>
      </trkpt>
      <trkpt lat="45.82517" lon="1.86266">
        <ele>699.4</ele>
        <time>2026-07-09T08:19:30.000Z</time>
      </trkpt>
      <trkpt lat="45.82514" lon="1.86262">
        <ele>697.7</ele>
        <time>2026-07-09T08:19:31.000Z</time>
      </trkpt>
      <trkpt lat="45.82512" lon="1.86259">
        <ele>697.7</ele>
        <time>2026-07-09T08:19:32.000Z</time>
      </trkpt>
      <trkpt lat="45.82509" lon="1.86256">
        <ele>697.3</ele>
        <time>2026-07-09T08:19:33.000Z</time>
      </trkpt>
      <trkpt lat="45.82506" lon="1.86252">
        <ele>698.7</ele>
        <time>2026-07-09T08:19:34.000Z</time>
      </trkpt>
      <trkpt lat="45.82504" lon="1.86248">
        <ele>699.3</ele>
        <time>2026-07-09T08:19:35.000Z</time>
      </trkpt>
      <trkpt lat="45.82501" lon="1.86243">
        <ele>699.8</ele>
        <time>2026-07-09T08:19:36.000Z</time>
      </trkpt>
      <trkpt lat="45.82497" lon="1.86238">
        <ele>700</ele>
        <time>2026-07-09T08:19:37.000Z</time>
      </trkpt>
      <trkpt lat="45.82493" lon="1.86232">
        <ele>700.1</ele>
        <time>2026-07-09T08:19:38.000Z</time>
      </trkpt>
      <trkpt lat="45.8249" lon="1.86226">
        <ele>700.9</ele>
        <time>2026-07-09T08:19:39.000Z</time>
      </trkpt>
      <trkpt lat="45.82487" lon="1.86221">
        <ele>700.7</ele>
        <time>2026-07-09T08:19:40.000Z</time>
      </trkpt>
      <trkpt lat="45.82484" lon="1.86216">
        <ele>701.2</ele>
        <time>2026-07-09T08:19:41.000Z</time>
      </trkpt>
      <trkpt lat="45.82482" lon="1.86212">
        <ele>700.5</ele>
        <time>2026-07-09T08:19:42.000Z</time>
      </trkpt>
      <trkpt lat="45.82479" lon="1.86208">
        <ele>701.1</ele>
        <time>2026-07-09T08:19:43.000Z</time>
      </trkpt>
      <trkpt lat="45.82478" lon="1.86206">
        <ele>700.9</ele>
        <time>2026-07-09T08:19:44.000Z</time>
      </trkpt>
      <trkpt lat="45.82477" lon="1.86205">
        <ele>699.1</ele>
        <time>2026-07-09T08:19:45.000Z</time>
      </trkpt>
      <trkpt lat="45.82475" lon="1.86203">
        <ele>698.5</ele>
        <time>2026-07-09T08:19:46.000Z</time>
      </trkpt>
      <trkpt lat="45.82475" lon="1.86201">
        <ele>699.4</ele>
        <time>2026-07-09T08:19:47.000Z</time>
      </trkpt>
      <trkpt lat="45.82474" lon="1.86199">
        <ele>699.8</ele>
        <time>2026-07-09T08:19:48.000Z</time>
      </trkpt>
      <trkpt lat="45.82473" lon="1.86198">
        <ele>700.2</ele>
        <time>2026-07-09T08:19:49.000Z</time>
      </trkpt>
      <trkpt lat="45.82472" lon="1.86196">
        <ele>698.6</ele>
        <time>2026-07-09T08:19:50.000Z</time>
      </trkpt>
      <trkpt lat="45.82471" lon="1.86194">
        <ele>699</ele>
        <time>2026-07-09T08:19:51.000Z</time>
      </trkpt>
      <trkpt lat="45.82469" lon="1.86192">
        <ele>699.5</ele>
        <time>2026-07-09T08:19:52.000Z</time>
      </trkpt>
      <trkpt lat="45.82468" lon="1.8619">
        <ele>699.1</ele>
        <time>2026-07-09T08:19:53.000Z</time>
      </trkpt>
      <trkpt lat="45.82466" lon="1.86189">
        <ele>698.7</ele>
        <time>2026-07-09T08:19:54.000Z</time>
      </trkpt>
      <trkpt lat="45.82464" lon="1.86188">
        <ele>698.9</ele>
        <time>2026-07-09T08:19:55.000Z</time>
      </trkpt>
      <trkpt lat="45.82463" lon="1.86187">
        <ele>700.6</ele>
        <time>2026-07-09T08:19:56.000Z</time>
      </trkpt>
      <trkpt lat="45.82462" lon="1.86186">
        <ele>701.6</ele>
        <time>2026-07-09T08:19:57.000Z</time>
      </trkpt>
      <trkpt lat="45.82461" lon="1.86186">
        <ele>701.5</ele>
        <time>2026-07-09T08:19:58.000Z</time>
      </trkpt>
      <trkpt lat="45.82459" lon="1.86185">
        <ele>701.1</ele>
        <time>2026-07-09T08:19:59.000Z</time>
      </trkpt>
      <trkpt lat="45.82457" lon="1.86183">
        <ele>701</ele>
        <time>2026-07-09T08:20:00.000Z</time>
      </trkpt>
      <trkpt lat="45.82457" lon="1.86182">
        <ele>699.2</ele>
        <time>2026-07-09T08:20:01.000Z</time>
      </trkpt>
      <trkpt lat="45.82455" lon="1.8618">
        <ele>699.1</ele>
        <time>2026-07-09T08:20:02.000Z</time>
      </trkpt>
      <trkpt lat="45.82453" lon="1.86179">
        <ele>700.4</ele>
        <time>2026-07-09T08:20:03.000Z</time>
      </trkpt>
      <trkpt lat="45.82452" lon="1.86178">
        <ele>700.4</ele>
        <time>2026-07-09T08:20:04.000Z</time>
      </trkpt>
      <trkpt lat="45.82451" lon="1.86177">
        <ele>699.3</ele>
        <time>2026-07-09T08:20:05.000Z</time>
      </trkpt>
      <trkpt lat="45.8245" lon="1.86176">
        <ele>698.3</ele>
        <time>2026-07-09T08:20:06.000Z</time>
      </trkpt>
      <trkpt lat="45.82448" lon="1.86175">
        <ele>697.9</ele>
        <time>2026-07-09T08:20:07.000Z</time>
      </trkpt>
      <trkpt lat="45.82446" lon="1.86173">
        <ele>697.8</ele>
        <time>2026-07-09T08:20:08.000Z</time>
      </trkpt>
      <trkpt lat="45.82445" lon="1.86171">
        <ele>697.8</ele>
        <time>2026-07-09T08:20:09.000Z</time>
      </trkpt>
      <trkpt lat="45.82442" lon="1.8617">
        <ele>698.4</ele>
        <time>2026-07-09T08:20:10.000Z</time>
      </trkpt>
      <trkpt lat="45.82441" lon="1.86169">
        <ele>698.8</ele>
        <time>2026-07-09T08:20:11.000Z</time>
      </trkpt>
      <trkpt lat="45.82439" lon="1.86168">
        <ele>697.3</ele>
        <time>2026-07-09T08:20:12.000Z</time>
      </trkpt>
      <trkpt lat="45.82437" lon="1.86167">
        <ele>697.9</ele>
        <time>2026-07-09T08:20:13.000Z</time>
      </trkpt>
      <trkpt lat="45.82435" lon="1.86165">
        <ele>697.6</ele>
        <time>2026-07-09T08:20:14.000Z</time>
      </trkpt>
      <trkpt lat="45.82432" lon="1.86163">
        <ele>697.8</ele>
        <time>2026-07-09T08:20:15.000Z</time>
      </trkpt>
      <trkpt lat="45.8243" lon="1.86161">
        <ele>697.6</ele>
        <time>2026-07-09T08:20:16.000Z</time>
      </trkpt>
      <trkpt lat="45.82429" lon="1.86159">
        <ele>698</ele>
        <time>2026-07-09T08:20:17.000Z</time>
      </trkpt>
      <trkpt lat="45.82427" lon="1.86158">
        <ele>698.1</ele>
        <time>2026-07-09T08:20:18.000Z</time>
      </trkpt>
      <trkpt lat="45.82425" lon="1.86156">
        <ele>698</ele>
        <time>2026-07-09T08:20:19.000Z</time>
      </trkpt>
      <trkpt lat="45.82424" lon="1.86153">
        <ele>699</ele>
        <time>2026-07-09T08:20:20.000Z</time>
      </trkpt>
      <trkpt lat="45.82422" lon="1.8615">
        <ele>699.3</ele>
        <time>2026-07-09T08:20:21.000Z</time>
      </trkpt>
      <trkpt lat="45.8242" lon="1.86148">
        <ele>699.7</ele>
        <time>2026-07-09T08:20:22.000Z</time>
      </trkpt>
      <trkpt lat="45.82419" lon="1.86147">
        <ele>699.4</ele>
        <time>2026-07-09T08:20:23.000Z</time>
      </trkpt>
      <trkpt lat="45.82418" lon="1.86146">
        <ele>699</ele>
        <time>2026-07-09T08:20:24.000Z</time>
      </trkpt>
      <trkpt lat="45.82416" lon="1.86144">
        <ele>698.7</ele>
        <time>2026-07-09T08:20:25.000Z</time>
      </trkpt>
      <trkpt lat="45.82415" lon="1.86142">
        <ele>698.7</ele>
        <time>2026-07-09T08:20:26.000Z</time>
      </trkpt>
      <trkpt lat="45.82413" lon="1.8614">
        <ele>698.3</ele>
        <time>2026-07-09T08:20:27.000Z</time>
      </trkpt>
      <trkpt lat="45.82412" lon="1.86137">
        <ele>697.9</ele>
        <time>2026-07-09T08:20:28.000Z</time>
      </trkpt>
      <trkpt lat="45.8241" lon="1.86134">
        <ele>697.2</ele>
        <time>2026-07-09T08:20:29.000Z</time>
      </trkpt>
      <trkpt lat="45.82409" lon="1.86134">
        <ele>697</ele>
        <time>2026-07-09T08:20:30.000Z</time>
      </trkpt>
      <trkpt lat="45.82405" lon="1.8613">
        <ele>698</ele>
        <time>2026-07-09T08:20:31.000Z</time>
      </trkpt>
      <trkpt lat="45.82406" lon="1.86129">
        <ele>697.6</ele>
        <time>2026-07-09T08:20:32.000Z</time>
      </trkpt>
      <trkpt lat="45.82404" lon="1.86125">
        <ele>698.2</ele>
        <time>2026-07-09T08:20:33.000Z</time>
      </trkpt>
      <trkpt lat="45.82402" lon="1.86123">
        <ele>698.2</ele>
        <time>2026-07-09T08:20:34.000Z</time>
      </trkpt>
      <trkpt lat="45.82401" lon="1.86121">
        <ele>699.9</ele>
        <time>2026-07-09T08:20:35.000Z</time>
      </trkpt>
      <trkpt lat="45.824" lon="1.8612">
        <ele>701.3</ele>
        <time>2026-07-09T08:20:36.000Z</time>
      </trkpt>
      <trkpt lat="45.82399" lon="1.86118">
        <ele>699.9</ele>
        <time>2026-07-09T08:20:37.000Z</time>
      </trkpt>
      <trkpt lat="45.82397" lon="1.86115">
        <ele>699.6</ele>
        <time>2026-07-09T08:20:38.000Z</time>
      </trkpt>
      <trkpt lat="45.82396" lon="1.86112">
        <ele>699.5</ele>
        <time>2026-07-09T08:20:39.000Z</time>
      </trkpt>
      <trkpt lat="45.82395" lon="1.86109">
        <ele>702.6</ele>
        <time>2026-07-09T08:20:40.000Z</time>
      </trkpt>
      <trkpt lat="45.82394" lon="1.86106">
        <ele>702.3</ele>
        <time>2026-07-09T08:20:41.000Z</time>
      </trkpt>
      <trkpt lat="45.82394" lon="1.86104">
        <ele>702.3</ele>
        <time>2026-07-09T08:20:42.000Z</time>
      </trkpt>
      <trkpt lat="45.82393" lon="1.86101">
        <ele>702.2</ele>
        <time>2026-07-09T08:20:43.000Z</time>
      </trkpt>
      <trkpt lat="45.82392" lon="1.86099">
        <ele>704.3</ele>
        <time>2026-07-09T08:20:44.000Z</time>
      </trkpt>
      <trkpt lat="45.82391" lon="1.86096">
        <ele>704.6</ele>
        <time>2026-07-09T08:20:45.000Z</time>
      </trkpt>
      <trkpt lat="45.8239" lon="1.86094">
        <ele>704.9</ele>
        <time>2026-07-09T08:20:46.000Z</time>
      </trkpt>
      <trkpt lat="45.82389" lon="1.86092">
        <ele>705.2</ele>
        <time>2026-07-09T08:20:47.000Z</time>
      </trkpt>
      <trkpt lat="45.82388" lon="1.8609">
        <ele>705.7</ele>
        <time>2026-07-09T08:20:48.000Z</time>
      </trkpt>
      <trkpt lat="45.82386" lon="1.86089">
        <ele>705.5</ele>
        <time>2026-07-09T08:20:49.000Z</time>
      </trkpt>
      <trkpt lat="45.82384" lon="1.86088">
        <ele>705</ele>
        <time>2026-07-09T08:20:50.000Z</time>
      </trkpt>
      <trkpt lat="45.82383" lon="1.86086">
        <ele>706.6</ele>
        <time>2026-07-09T08:20:51.000Z</time>
      </trkpt>
      <trkpt lat="45.82381" lon="1.86083">
        <ele>706.3</ele>
        <time>2026-07-09T08:20:52.000Z</time>
      </trkpt>
      <trkpt lat="45.8238" lon="1.86081">
        <ele>707</ele>
        <time>2026-07-09T08:20:53.000Z</time>
      </trkpt>
      <trkpt lat="45.82379" lon="1.8608">
        <ele>707.3</ele>
        <time>2026-07-09T08:20:54.000Z</time>
      </trkpt>
      <trkpt lat="45.82377" lon="1.86078">
        <ele>707.6</ele>
        <time>2026-07-09T08:20:55.000Z</time>
      </trkpt>
      <trkpt lat="45.82375" lon="1.86076">
        <ele>706.3</ele>
        <time>2026-07-09T08:20:56.000Z</time>
      </trkpt>
      <trkpt lat="45.82374" lon="1.86073">
        <ele>706.2</ele>
        <time>2026-07-09T08:20:57.000Z</time>
      </trkpt>
      <trkpt lat="45.82373" lon="1.8607">
        <ele>706.2</ele>
        <time>2026-07-09T08:20:58.000Z</time>
      </trkpt>
      <trkpt lat="45.82372" lon="1.86068">
        <ele>706.3</ele>
        <time>2026-07-09T08:20:59.000Z</time>
      </trkpt>
      <trkpt lat="45.82371" lon="1.86065">
        <ele>705.9</ele>
        <time>2026-07-09T08:21:00.000Z</time>
      </trkpt>
      <trkpt lat="45.82371" lon="1.86063">
        <ele>706.1</ele>
        <time>2026-07-09T08:21:01.000Z</time>
      </trkpt>
      <trkpt lat="45.8237" lon="1.8606">
        <ele>705.7</ele>
        <time>2026-07-09T08:21:02.000Z</time>
      </trkpt>
      <trkpt lat="45.82369" lon="1.86058">
        <ele>705.5</ele>
        <time>2026-07-09T08:21:03.000Z</time>
      </trkpt>
      <trkpt lat="45.82368" lon="1.86057">
        <ele>705.5</ele>
        <time>2026-07-09T08:21:04.000Z</time>
      </trkpt>
      <trkpt lat="45.82367" lon="1.86056">
        <ele>705.4</ele>
        <time>2026-07-09T08:21:05.000Z</time>
      </trkpt>
      <trkpt lat="45.82365" lon="1.86054">
        <ele>705.9</ele>
        <time>2026-07-09T08:21:06.000Z</time>
      </trkpt>
      <trkpt lat="45.82364" lon="1.86052">
        <ele>704.7</ele>
        <time>2026-07-09T08:21:07.000Z</time>
      </trkpt>
      <trkpt lat="45.82363" lon="1.8605">
        <ele>705.4</ele>
        <time>2026-07-09T08:21:08.000Z</time>
      </trkpt>
      <trkpt lat="45.82362" lon="1.86048">
        <ele>705.4</ele>
        <time>2026-07-09T08:21:09.000Z</time>
      </trkpt>
      <trkpt lat="45.8236" lon="1.86047">
        <ele>705.5</ele>
        <time>2026-07-09T08:21:10.000Z</time>
      </trkpt>
      <trkpt lat="45.82359" lon="1.86045">
        <ele>706.3</ele>
        <time>2026-07-09T08:21:11.000Z</time>
      </trkpt>
      <trkpt lat="45.82358" lon="1.86042">
        <ele>706.5</ele>
        <time>2026-07-09T08:21:12.000Z</time>
      </trkpt>
      <trkpt lat="45.82356" lon="1.8604">
        <ele>707.9</ele>
        <time>2026-07-09T08:21:13.000Z</time>
      </trkpt>
      <trkpt lat="45.82355" lon="1.86038">
        <ele>708.7</ele>
        <time>2026-07-09T08:21:14.000Z</time>
      </trkpt>
      <trkpt lat="45.82355" lon="1.86036">
        <ele>706.9</ele>
        <time>2026-07-09T08:21:15.000Z</time>
      </trkpt>
      <trkpt lat="45.82355" lon="1.86033">
        <ele>706.1</ele>
        <time>2026-07-09T08:21:16.000Z</time>
      </trkpt>
      <trkpt lat="45.82355" lon="1.86031">
        <ele>704.6</ele>
        <time>2026-07-09T08:21:17.000Z</time>
      </trkpt>
      <trkpt lat="45.82354" lon="1.86029">
        <ele>704.8</ele>
        <time>2026-07-09T08:21:18.000Z</time>
      </trkpt>
      <trkpt lat="45.82352" lon="1.86026">
        <ele>704.7</ele>
        <time>2026-07-09T08:21:19.000Z</time>
      </trkpt>
      <trkpt lat="45.82351" lon="1.86024">
        <ele>705.6</ele>
        <time>2026-07-09T08:21:20.000Z</time>
      </trkpt>
      <trkpt lat="45.82349" lon="1.86022">
        <ele>705.5</ele>
        <time>2026-07-09T08:21:21.000Z</time>
      </trkpt>
      <trkpt lat="45.82348" lon="1.86019">
        <ele>706.5</ele>
        <time>2026-07-09T08:21:22.000Z</time>
      </trkpt>
      <trkpt lat="45.82347" lon="1.86017">
        <ele>706.1</ele>
        <time>2026-07-09T08:21:23.000Z</time>
      </trkpt>
      <trkpt lat="45.82346" lon="1.86014">
        <ele>706</ele>
        <time>2026-07-09T08:21:24.000Z</time>
      </trkpt>
      <trkpt lat="45.82344" lon="1.8601">
        <ele>707.1</ele>
        <time>2026-07-09T08:21:25.000Z</time>
      </trkpt>
      <trkpt lat="45.82343" lon="1.86007">
        <ele>707.9</ele>
        <time>2026-07-09T08:21:26.000Z</time>
      </trkpt>
      <trkpt lat="45.82341" lon="1.86004">
        <ele>708.3</ele>
        <time>2026-07-09T08:21:27.000Z</time>
      </trkpt>
      <trkpt lat="45.8234" lon="1.86002">
        <ele>709.6</ele>
        <time>2026-07-09T08:21:28.000Z</time>
      </trkpt>
      <trkpt lat="45.82339" lon="1.85999">
        <ele>709.8</ele>
        <time>2026-07-09T08:21:29.000Z</time>
      </trkpt>
      <trkpt lat="45.82338" lon="1.85996">
        <ele>709.6</ele>
        <time>2026-07-09T08:21:30.000Z</time>
      </trkpt>
      <trkpt lat="45.82336" lon="1.85994">
        <ele>709.9</ele>
        <time>2026-07-09T08:21:31.000Z</time>
      </trkpt>
      <trkpt lat="45.82334" lon="1.85992">
        <ele>709.7</ele>
        <time>2026-07-09T08:21:32.000Z</time>
      </trkpt>
      <trkpt lat="45.82333" lon="1.85989">
        <ele>709.6</ele>
        <time>2026-07-09T08:21:33.000Z</time>
      </trkpt>
      <trkpt lat="45.82332" lon="1.85987">
        <ele>709.6</ele>
        <time>2026-07-09T08:21:34.000Z</time>
      </trkpt>
      <trkpt lat="45.82331" lon="1.85985">
        <ele>709.6</ele>
        <time>2026-07-09T08:21:35.000Z</time>
      </trkpt>
      <trkpt lat="45.82329" lon="1.85982">
        <ele>710</ele>
        <time>2026-07-09T08:21:36.000Z</time>
      </trkpt>
      <trkpt lat="45.82328" lon="1.85978">
        <ele>712.3</ele>
        <time>2026-07-09T08:21:37.000Z</time>
      </trkpt>
      <trkpt lat="45.82327" lon="1.85975">
        <ele>713</ele>
        <time>2026-07-09T08:21:38.000Z</time>
      </trkpt>
      <trkpt lat="45.82326" lon="1.85972">
        <ele>713.2</ele>
        <time>2026-07-09T08:21:39.000Z</time>
      </trkpt>
      <trkpt lat="45.82326" lon="1.8597">
        <ele>713.1</ele>
        <time>2026-07-09T08:21:40.000Z</time>
      </trkpt>
      <trkpt lat="45.82325" lon="1.85967">
        <ele>713.4</ele>
        <time>2026-07-09T08:21:41.000Z</time>
      </trkpt>
      <trkpt lat="45.82324" lon="1.85965">
        <ele>714.6</ele>
        <time>2026-07-09T08:21:42.000Z</time>
      </trkpt>
      <trkpt lat="45.82325" lon="1.85962">
        <ele>715.5</ele>
        <time>2026-07-09T08:21:43.000Z</time>
      </trkpt>
      <trkpt lat="45.82323" lon="1.85959">
        <ele>715.8</ele>
        <time>2026-07-09T08:21:44.000Z</time>
      </trkpt>
      <trkpt lat="45.82321" lon="1.85958">
        <ele>715.8</ele>
        <time>2026-07-09T08:21:45.000Z</time>
      </trkpt>
      <trkpt lat="45.8232" lon="1.85956">
        <ele>715.7</ele>
        <time>2026-07-09T08:21:46.000Z</time>
      </trkpt>
      <trkpt lat="45.82318" lon="1.85955">
        <ele>715.3</ele>
        <time>2026-07-09T08:21:47.000Z</time>
      </trkpt>
      <trkpt lat="45.82317" lon="1.85954">
        <ele>715.1</ele>
        <time>2026-07-09T08:21:48.000Z</time>
      </trkpt>
      <trkpt lat="45.82315" lon="1.85952">
        <ele>715.4</ele>
        <time>2026-07-09T08:21:49.000Z</time>
      </trkpt>
      <trkpt lat="45.82313" lon="1.8595">
        <ele>715.4</ele>
        <time>2026-07-09T08:21:50.000Z</time>
      </trkpt>
      <trkpt lat="45.82311" lon="1.85948">
        <ele>715.4</ele>
        <time>2026-07-09T08:21:51.000Z</time>
      </trkpt>
      <trkpt lat="45.8231" lon="1.85946">
        <ele>715.6</ele>
        <time>2026-07-09T08:21:52.000Z</time>
      </trkpt>
      <trkpt lat="45.82308" lon="1.85943">
        <ele>715.8</ele>
        <time>2026-07-09T08:21:53.000Z</time>
      </trkpt>
      <trkpt lat="45.82306" lon="1.85941">
        <ele>716.2</ele>
        <time>2026-07-09T08:21:54.000Z</time>
      </trkpt>
      <trkpt lat="45.82305" lon="1.85939">
        <ele>716.4</ele>
        <time>2026-07-09T08:21:55.000Z</time>
      </trkpt>
      <trkpt lat="45.82303" lon="1.85937">
        <ele>716.8</ele>
        <time>2026-07-09T08:21:56.000Z</time>
      </trkpt>
      <trkpt lat="45.82302" lon="1.85935">
        <ele>717.2</ele>
        <time>2026-07-09T08:21:57.000Z</time>
      </trkpt>
      <trkpt lat="45.823" lon="1.85934">
        <ele>717.1</ele>
        <time>2026-07-09T08:21:58.000Z</time>
      </trkpt>
      <trkpt lat="45.82299" lon="1.85932">
        <ele>717</ele>
        <time>2026-07-09T08:21:59.000Z</time>
      </trkpt>
      <trkpt lat="45.82298" lon="1.8593">
        <ele>716.9</ele>
        <time>2026-07-09T08:22:00.000Z</time>
      </trkpt>
      <trkpt lat="45.82296" lon="1.85929">
        <ele>717</ele>
        <time>2026-07-09T08:22:01.000Z</time>
      </trkpt>
      <trkpt lat="45.82295" lon="1.85928">
        <ele>717.1</ele>
        <time>2026-07-09T08:22:02.000Z</time>
      </trkpt>
      <trkpt lat="45.82294" lon="1.85929">
        <ele>717.1</ele>
        <time>2026-07-09T08:22:03.000Z</time>
      </trkpt>
      <trkpt lat="45.82293" lon="1.85931">
        <ele>717.4</ele>
        <time>2026-07-09T08:22:04.000Z</time>
      </trkpt>
      <trkpt lat="45.82293" lon="1.85934">
        <ele>717</ele>
        <time>2026-07-09T08:22:05.000Z</time>
      </trkpt>
      <trkpt lat="45.82294" lon="1.85934">
        <ele>716.7</ele>
        <time>2026-07-09T08:22:06.000Z</time>
      </trkpt>
      <trkpt lat="45.82295" lon="1.85934">
        <ele>716.7</ele>
        <time>2026-07-09T08:22:07.000Z</time>
      </trkpt>
      <trkpt lat="45.82295" lon="1.85934">
        <ele>716.7</ele>
        <time>2026-07-09T08:22:08.000Z</time>
      </trkpt>
      <trkpt lat="45.82295" lon="1.85935">
        <ele>716.9</ele>
        <time>2026-07-09T08:22:09.000Z</time>
      </trkpt>
      <trkpt lat="45.82296" lon="1.85935">
        <ele>716.9</ele>
        <time>2026-07-09T08:22:10.000Z</time>
      </trkpt>
      <trkpt lat="45.82296" lon="1.85936">
        <ele>716.8</ele>
        <time>2026-07-09T08:22:11.000Z</time>
      </trkpt>
      <trkpt lat="45.82297" lon="1.85937">
        <ele>717</ele>
        <time>2026-07-09T08:22:12.000Z</time>
      </trkpt>
      <trkpt lat="45.82298" lon="1.85937">
        <ele>717</ele>
        <time>2026-07-09T08:22:13.000Z</time>
      </trkpt>
      <trkpt lat="45.82298" lon="1.85937">
        <ele>717.1</ele>
        <time>2026-07-09T08:22:14.000Z</time>
      </trkpt>
      <trkpt lat="45.82298" lon="1.85937">
        <ele>717.1</ele>
        <time>2026-07-09T08:22:15.000Z</time>
      </trkpt>
      <trkpt lat="45.82298" lon="1.85937">
        <ele>717.1</ele>
        <time>2026-07-09T08:22:16.000Z</time>
      </trkpt>
      <trkpt lat="45.82298" lon="1.85937">
        <ele>717.1</ele>
        <time>2026-07-09T08:22:17.000Z</time>
      </trkpt>
      <trkpt lat="45.82298" lon="1.85936">
        <ele>717.5</ele>
        <time>2026-07-09T08:22:18.000Z</time>
      </trkpt>
      <trkpt lat="45.82299" lon="1.85937">
        <ele>717.4</ele>
        <time>2026-07-09T08:22:19.000Z</time>
      </trkpt>
      <trkpt lat="45.82299" lon="1.85938">
        <ele>717.2</ele>
        <time>2026-07-09T08:22:20.000Z</time>
      </trkpt>
      <trkpt lat="45.82301" lon="1.85939">
        <ele>717</ele>
        <time>2026-07-09T08:22:21.000Z</time>
      </trkpt>
      <trkpt lat="45.82302" lon="1.85941">
        <ele>716.8</ele>
        <time>2026-07-09T08:22:22.000Z</time>
      </trkpt>
      <trkpt lat="45.82304" lon="1.85942">
        <ele>716.6</ele>
        <time>2026-07-09T08:22:23.000Z</time>
      </trkpt>
      <trkpt lat="45.82305" lon="1.85943">
        <ele>716.5</ele>
        <time>2026-07-09T08:22:24.000Z</time>
      </trkpt>
      <trkpt lat="45.82306" lon="1.85944">
        <ele>716.3</ele>
        <time>2026-07-09T08:22:25.000Z</time>
      </trkpt>
      <trkpt lat="45.82306" lon="1.85946">
        <ele>716.2</ele>
        <time>2026-07-09T08:22:26.000Z</time>
      </trkpt>
      <trkpt lat="45.82307" lon="1.85947">
        <ele>716.1</ele>
        <time>2026-07-09T08:22:27.000Z</time>
      </trkpt>
      <trkpt lat="45.82309" lon="1.85948">
        <ele>715.9</ele>
        <time>2026-07-09T08:22:28.000Z</time>
      </trkpt>
      <trkpt lat="45.8231" lon="1.8595">
        <ele>715.8</ele>
        <time>2026-07-09T08:22:29.000Z</time>
      </trkpt>
      <trkpt lat="45.8231" lon="1.85951">
        <ele>715.7</ele>
        <time>2026-07-09T08:22:30.000Z</time>
      </trkpt>
      <trkpt lat="45.82312" lon="1.85953">
        <ele>715.5</ele>
        <time>2026-07-09T08:22:31.000Z</time>
      </trkpt>
      <trkpt lat="45.82313" lon="1.85953">
        <ele>715.2</ele>
        <time>2026-07-09T08:22:32.000Z</time>
      </trkpt>
      <trkpt lat="45.82314" lon="1.85954">
        <ele>715.5</ele>
        <time>2026-07-09T08:22:33.000Z</time>
      </trkpt>
      <trkpt lat="45.82315" lon="1.85955">
        <ele>715.1</ele>
        <time>2026-07-09T08:22:34.000Z</time>
      </trkpt>
      <trkpt lat="45.82316" lon="1.85956">
        <ele>715</ele>
        <time>2026-07-09T08:22:35.000Z</time>
      </trkpt>
      <trkpt lat="45.82317" lon="1.85957">
        <ele>714.9</ele>
        <time>2026-07-09T08:22:36.000Z</time>
      </trkpt>
      <trkpt lat="45.82318" lon="1.85958">
        <ele>715</ele>
        <time>2026-07-09T08:22:37.000Z</time>
      </trkpt>
      <trkpt lat="45.82319" lon="1.85959">
        <ele>715.4</ele>
        <time>2026-07-09T08:22:38.000Z</time>
      </trkpt>
      <trkpt lat="45.8232" lon="1.85959">
        <ele>715.2</ele>
        <time>2026-07-09T08:22:39.000Z</time>
      </trkpt>
      <trkpt lat="45.8232" lon="1.85959">
        <ele>715.2</ele>
        <time>2026-07-09T08:22:40.000Z</time>
      </trkpt>
      <trkpt lat="45.8232" lon="1.85959">
        <ele>715.2</ele>
        <time>2026-07-09T08:22:41.000Z</time>
      </trkpt>
      <trkpt lat="45.82321" lon="1.8596">
        <ele>715.2</ele>
        <time>2026-07-09T08:22:42.000Z</time>
      </trkpt>
      <trkpt lat="45.82321" lon="1.85961">
        <ele>715.2</ele>
        <time>2026-07-09T08:22:43.000Z</time>
      </trkpt>
      <trkpt lat="45.82321" lon="1.85962">
        <ele>715.1</ele>
        <time>2026-07-09T08:22:44.000Z</time>
      </trkpt>
      <trkpt lat="45.82321" lon="1.85962">
        <ele>715.1</ele>
        <time>2026-07-09T08:22:45.000Z</time>
      </trkpt>
      <trkpt lat="45.82321" lon="1.85962">
        <ele>715.1</ele>
        <time>2026-07-09T08:22:46.000Z</time>
      </trkpt>
      <trkpt lat="45.82321" lon="1.85962">
        <ele>715.1</ele>
        <time>2026-07-09T08:22:47.000Z</time>
      </trkpt>
      <trkpt lat="45.82321" lon="1.85962">
        <ele>715.1</ele>
        <time>2026-07-09T08:22:48.000Z</time>
      </trkpt>
      <trkpt lat="45.82321" lon="1.85962">
        <ele>715.1</ele>
        <time>2026-07-09T08:22:49.000Z</time>
      </trkpt>
      <trkpt lat="45.82321" lon="1.85962">
        <ele>715.1</ele>
        <time>2026-07-09T08:22:50.000Z</time>
      </trkpt>
      <trkpt lat="45.82321" lon="1.85962">
        <ele>715.1</ele>
        <time>2026-07-09T08:22:51.000Z</time>
      </trkpt>
      <trkpt lat="45.82322" lon="1.85962">
        <ele>715.4</ele>
        <time>2026-07-09T08:22:52.000Z</time>
      </trkpt>
      <trkpt lat="45.82323" lon="1.85962">
        <ele>715.6</ele>
        <time>2026-07-09T08:22:53.000Z</time>
      </trkpt>
      <trkpt lat="45.82324" lon="1.85963">
        <ele>715.5</ele>
        <time>2026-07-09T08:22:54.000Z</time>
      </trkpt>
      <trkpt lat="45.82325" lon="1.85964">
        <ele>715.8</ele>
        <time>2026-07-09T08:22:55.000Z</time>
      </trkpt>
      <trkpt lat="45.82327" lon="1.85964">
        <ele>716.1</ele>
        <time>2026-07-09T08:22:56.000Z</time>
      </trkpt>
      <trkpt lat="45.82328" lon="1.85964">
        <ele>716.2</ele>
        <time>2026-07-09T08:22:57.000Z</time>
      </trkpt>
      <trkpt lat="45.8233" lon="1.85965">
        <ele>716.2</ele>
        <time>2026-07-09T08:22:58.000Z</time>
      </trkpt>
      <trkpt lat="45.82332" lon="1.85966">
        <ele>716.1</ele>
        <time>2026-07-09T08:22:59.000Z</time>
      </trkpt>
      <trkpt lat="45.82334" lon="1.85966">
        <ele>715.9</ele>
        <time>2026-07-09T08:23:00.000Z</time>
      </trkpt>
      <trkpt lat="45.82336" lon="1.85967">
        <ele>716.1</ele>
        <time>2026-07-09T08:23:01.000Z</time>
      </trkpt>
      <trkpt lat="45.82338" lon="1.85967">
        <ele>715.8</ele>
        <time>2026-07-09T08:23:02.000Z</time>
      </trkpt>
      <trkpt lat="45.8234" lon="1.85968">
        <ele>715.4</ele>
        <time>2026-07-09T08:23:03.000Z</time>
      </trkpt>
      <trkpt lat="45.82341" lon="1.85969">
        <ele>715.5</ele>
        <time>2026-07-09T08:23:04.000Z</time>
      </trkpt>
      <trkpt lat="45.82344" lon="1.85969">
        <ele>715.9</ele>
        <time>2026-07-09T08:23:05.000Z</time>
      </trkpt>
      <trkpt lat="45.82346" lon="1.8597">
        <ele>715.7</ele>
        <time>2026-07-09T08:23:06.000Z</time>
      </trkpt>
      <trkpt lat="45.82349" lon="1.8597">
        <ele>715.9</ele>
        <time>2026-07-09T08:23:07.000Z</time>
      </trkpt>
      <trkpt lat="45.82351" lon="1.8597">
        <ele>715.7</ele>
        <time>2026-07-09T08:23:08.000Z</time>
      </trkpt>
      <trkpt lat="45.82353" lon="1.8597">
        <ele>715.7</ele>
        <time>2026-07-09T08:23:09.000Z</time>
      </trkpt>
      <trkpt lat="45.82355" lon="1.8597">
        <ele>715.3</ele>
        <time>2026-07-09T08:23:10.000Z</time>
      </trkpt>
      <trkpt lat="45.82357" lon="1.8597">
        <ele>715.1</ele>
        <time>2026-07-09T08:23:11.000Z</time>
      </trkpt>
      <trkpt lat="45.82359" lon="1.8597">
        <ele>715</ele>
        <time>2026-07-09T08:23:12.000Z</time>
      </trkpt>
      <trkpt lat="45.82361" lon="1.8597">
        <ele>714.7</ele>
        <time>2026-07-09T08:23:13.000Z</time>
      </trkpt>
      <trkpt lat="45.82363" lon="1.8597">
        <ele>714.5</ele>
        <time>2026-07-09T08:23:14.000Z</time>
      </trkpt>
      <trkpt lat="45.82365" lon="1.8597">
        <ele>715.1</ele>
        <time>2026-07-09T08:23:15.000Z</time>
      </trkpt>
      <trkpt lat="45.82366" lon="1.8597">
        <ele>715.8</ele>
        <time>2026-07-09T08:23:16.000Z</time>
      </trkpt>
      <trkpt lat="45.82368" lon="1.85971">
        <ele>715.2</ele>
        <time>2026-07-09T08:23:17.000Z</time>
      </trkpt>
      <trkpt lat="45.8237" lon="1.85971">
        <ele>716</ele>
        <time>2026-07-09T08:23:18.000Z</time>
      </trkpt>
      <trkpt lat="45.82372" lon="1.85972">
        <ele>716.7</ele>
        <time>2026-07-09T08:23:19.000Z</time>
      </trkpt>
      <trkpt lat="45.82374" lon="1.85972">
        <ele>717.4</ele>
        <time>2026-07-09T08:23:20.000Z</time>
      </trkpt>
      <trkpt lat="45.82376" lon="1.85973">
        <ele>718.1</ele>
        <time>2026-07-09T08:23:21.000Z</time>
      </trkpt>
      <trkpt lat="45.82378" lon="1.85972">
        <ele>718.4</ele>
        <time>2026-07-09T08:23:22.000Z</time>
      </trkpt>
      <trkpt lat="45.8238" lon="1.85971">
        <ele>718.6</ele>
        <time>2026-07-09T08:23:23.000Z</time>
      </trkpt>
      <trkpt lat="45.82381" lon="1.8597">
        <ele>718.7</ele>
        <time>2026-07-09T08:23:24.000Z</time>
      </trkpt>
      <trkpt lat="45.82383" lon="1.8597">
        <ele>718.8</ele>
        <time>2026-07-09T08:23:25.000Z</time>
      </trkpt>
      <trkpt lat="45.82385" lon="1.8597">
        <ele>718.7</ele>
        <time>2026-07-09T08:23:26.000Z</time>
      </trkpt>
      <trkpt lat="45.82386" lon="1.85969">
        <ele>718.5</ele>
        <time>2026-07-09T08:23:27.000Z</time>
      </trkpt>
      <trkpt lat="45.82388" lon="1.85969">
        <ele>718.5</ele>
        <time>2026-07-09T08:23:28.000Z</time>
      </trkpt>
      <trkpt lat="45.8239" lon="1.85969">
        <ele>718.9</ele>
        <time>2026-07-09T08:23:29.000Z</time>
      </trkpt>
      <trkpt lat="45.82391" lon="1.85968">
        <ele>718.7</ele>
        <time>2026-07-09T08:23:30.000Z</time>
      </trkpt>
      <trkpt lat="45.82393" lon="1.85967">
        <ele>718.9</ele>
        <time>2026-07-09T08:23:31.000Z</time>
      </trkpt>
      <trkpt lat="45.82394" lon="1.85967">
        <ele>719.3</ele>
        <time>2026-07-09T08:23:32.000Z</time>
      </trkpt>
      <trkpt lat="45.82395" lon="1.85965">
        <ele>719.4</ele>
        <time>2026-07-09T08:23:33.000Z</time>
      </trkpt>
      <trkpt lat="45.82396" lon="1.85963">
        <ele>719.4</ele>
        <time>2026-07-09T08:23:34.000Z</time>
      </trkpt>
      <trkpt lat="45.82396" lon="1.8596">
        <ele>718.8</ele>
        <time>2026-07-09T08:23:35.000Z</time>
      </trkpt>
      <trkpt lat="45.82396" lon="1.85957">
        <ele>718.6</ele>
        <time>2026-07-09T08:23:36.000Z</time>
      </trkpt>
      <trkpt lat="45.82396" lon="1.85955">
        <ele>718.7</ele>
        <time>2026-07-09T08:23:37.000Z</time>
      </trkpt>
      <trkpt lat="45.82395" lon="1.85953">
        <ele>718.5</ele>
        <time>2026-07-09T08:23:38.000Z</time>
      </trkpt>
      <trkpt lat="45.82395" lon="1.8595">
        <ele>718.8</ele>
        <time>2026-07-09T08:23:39.000Z</time>
      </trkpt>
      <trkpt lat="45.82395" lon="1.85947">
        <ele>718.5</ele>
        <time>2026-07-09T08:23:40.000Z</time>
      </trkpt>
      <trkpt lat="45.82394" lon="1.85944">
        <ele>718.5</ele>
        <time>2026-07-09T08:23:41.000Z</time>
      </trkpt>
      <trkpt lat="45.82394" lon="1.85941">
        <ele>718</ele>
        <time>2026-07-09T08:23:42.000Z</time>
      </trkpt>
      <trkpt lat="45.82394" lon="1.85938">
        <ele>717.7</ele>
        <time>2026-07-09T08:23:43.000Z</time>
      </trkpt>
      <trkpt lat="45.82394" lon="1.85935">
        <ele>717.6</ele>
        <time>2026-07-09T08:23:44.000Z</time>
      </trkpt>
      <trkpt lat="45.82394" lon="1.85932">
        <ele>717.8</ele>
        <time>2026-07-09T08:23:45.000Z</time>
      </trkpt>
      <trkpt lat="45.82394" lon="1.85928">
        <ele>716.8</ele>
        <time>2026-07-09T08:23:46.000Z</time>
      </trkpt>
      <trkpt lat="45.82394" lon="1.85925">
        <ele>716.7</ele>
        <time>2026-07-09T08:23:47.000Z</time>
      </trkpt>
      <trkpt lat="45.82393" lon="1.85921">
        <ele>716.7</ele>
        <time>2026-07-09T08:23:48.000Z</time>
      </trkpt>
      <trkpt lat="45.82393" lon="1.85918">
        <ele>717.2</ele>
        <time>2026-07-09T08:23:49.000Z</time>
      </trkpt>
      <trkpt lat="45.82392" lon="1.85915">
        <ele>717</ele>
        <time>2026-07-09T08:23:50.000Z</time>
      </trkpt>
      <trkpt lat="45.82392" lon="1.85913">
        <ele>717.1</ele>
        <time>2026-07-09T08:23:51.000Z</time>
      </trkpt>
      <trkpt lat="45.82391" lon="1.8591">
        <ele>716.7</ele>
        <time>2026-07-09T08:23:52.000Z</time>
      </trkpt>
      <trkpt lat="45.82391" lon="1.85907">
        <ele>716.5</ele>
        <time>2026-07-09T08:23:53.000Z</time>
      </trkpt>
      <trkpt lat="45.82391" lon="1.85904">
        <ele>716</ele>
        <time>2026-07-09T08:23:54.000Z</time>
      </trkpt>
      <trkpt lat="45.8239" lon="1.85901">
        <ele>716</ele>
        <time>2026-07-09T08:23:55.000Z</time>
      </trkpt>
      <trkpt lat="45.82387" lon="1.85899">
        <ele>716.4</ele>
        <time>2026-07-09T08:23:56.000Z</time>
      </trkpt>
      <trkpt lat="45.82387" lon="1.85895">
        <ele>717.8</ele>
        <time>2026-07-09T08:23:57.000Z</time>
      </trkpt>
      <trkpt lat="45.82387" lon="1.85892">
        <ele>718.5</ele>
        <time>2026-07-09T08:23:58.000Z</time>
      </trkpt>
      <trkpt lat="45.82386" lon="1.85888">
        <ele>718.8</ele>
        <time>2026-07-09T08:23:59.000Z</time>
      </trkpt>
      <trkpt lat="45.82386" lon="1.85885">
        <ele>719.2</ele>
        <time>2026-07-09T08:24:00.000Z</time>
      </trkpt>
      <trkpt lat="45.82385" lon="1.85882">
        <ele>719.7</ele>
        <time>2026-07-09T08:24:01.000Z</time>
      </trkpt>
      <trkpt lat="45.82385" lon="1.85879">
        <ele>719.7</ele>
        <time>2026-07-09T08:24:02.000Z</time>
      </trkpt>
      <trkpt lat="45.82385" lon="1.85875">
        <ele>719.4</ele>
        <time>2026-07-09T08:24:03.000Z</time>
      </trkpt>
      <trkpt lat="45.82385" lon="1.85872">
        <ele>719.7</ele>
        <time>2026-07-09T08:24:04.000Z</time>
      </trkpt>
      <trkpt lat="45.82384" lon="1.85869">
        <ele>719.8</ele>
        <time>2026-07-09T08:24:05.000Z</time>
      </trkpt>
      <trkpt lat="45.82383" lon="1.85866">
        <ele>719.5</ele>
        <time>2026-07-09T08:24:06.000Z</time>
      </trkpt>
      <trkpt lat="45.82382" lon="1.85863">
        <ele>719.9</ele>
        <time>2026-07-09T08:24:07.000Z</time>
      </trkpt>
      <trkpt lat="45.82381" lon="1.8586">
        <ele>719.8</ele>
        <time>2026-07-09T08:24:08.000Z</time>
      </trkpt>
      <trkpt lat="45.82381" lon="1.85857">
        <ele>719.7</ele>
        <time>2026-07-09T08:24:09.000Z</time>
      </trkpt>
      <trkpt lat="45.82381" lon="1.85853">
        <ele>719.5</ele>
        <time>2026-07-09T08:24:10.000Z</time>
      </trkpt>
      <trkpt lat="45.82381" lon="1.85849">
        <ele>719.8</ele>
        <time>2026-07-09T08:24:11.000Z</time>
      </trkpt>
      <trkpt lat="45.82381" lon="1.85846">
        <ele>720.1</ele>
        <time>2026-07-09T08:24:12.000Z</time>
      </trkpt>
      <trkpt lat="45.82382" lon="1.85842">
        <ele>720.3</ele>
        <time>2026-07-09T08:24:13.000Z</time>
      </trkpt>
      <trkpt lat="45.82381" lon="1.85839">
        <ele>720.9</ele>
        <time>2026-07-09T08:24:14.000Z</time>
      </trkpt>
      <trkpt lat="45.82381" lon="1.85836">
        <ele>721.6</ele>
        <time>2026-07-09T08:24:15.000Z</time>
      </trkpt>
      <trkpt lat="45.82381" lon="1.85833">
        <ele>721</ele>
        <time>2026-07-09T08:24:16.000Z</time>
      </trkpt>
      <trkpt lat="45.8238" lon="1.8583">
        <ele>720.7</ele>
        <time>2026-07-09T08:24:17.000Z</time>
      </trkpt>
      <trkpt lat="45.82379" lon="1.85827">
        <ele>721</ele>
        <time>2026-07-09T08:24:18.000Z</time>
      </trkpt>
      <trkpt lat="45.82379" lon="1.85824">
        <ele>720.4</ele>
        <time>2026-07-09T08:24:19.000Z</time>
      </trkpt>
      <trkpt lat="45.82379" lon="1.85821">
        <ele>720.2</ele>
        <time>2026-07-09T08:24:20.000Z</time>
      </trkpt>
      <trkpt lat="45.82379" lon="1.85817">
        <ele>719.7</ele>
        <time>2026-07-09T08:24:21.000Z</time>
      </trkpt>
      <trkpt lat="45.82379" lon="1.85814">
        <ele>720.4</ele>
        <time>2026-07-09T08:24:22.000Z</time>
      </trkpt>
      <trkpt lat="45.82379" lon="1.85811">
        <ele>719.4</ele>
        <time>2026-07-09T08:24:23.000Z</time>
      </trkpt>
      <trkpt lat="45.82378" lon="1.85808">
        <ele>719.5</ele>
        <time>2026-07-09T08:24:24.000Z</time>
      </trkpt>
      <trkpt lat="45.82379" lon="1.85805">
        <ele>720</ele>
        <time>2026-07-09T08:24:25.000Z</time>
      </trkpt>
      <trkpt lat="45.82379" lon="1.85803">
        <ele>719.9</ele>
        <time>2026-07-09T08:24:26.000Z</time>
      </trkpt>
      <trkpt lat="45.82378" lon="1.858">
        <ele>720</ele>
        <time>2026-07-09T08:24:27.000Z</time>
      </trkpt>
      <trkpt lat="45.82378" lon="1.85798">
        <ele>719.1</ele>
        <time>2026-07-09T08:24:28.000Z</time>
      </trkpt>
      <trkpt lat="45.82378" lon="1.85795">
        <ele>718.9</ele>
        <time>2026-07-09T08:24:29.000Z</time>
      </trkpt>
      <trkpt lat="45.82379" lon="1.85793">
        <ele>718.7</ele>
        <time>2026-07-09T08:24:30.000Z</time>
      </trkpt>
      <trkpt lat="45.82379" lon="1.85791">
        <ele>719.7</ele>
        <time>2026-07-09T08:24:31.000Z</time>
      </trkpt>
      <trkpt lat="45.8238" lon="1.85789">
        <ele>720.5</ele>
        <time>2026-07-09T08:24:32.000Z</time>
      </trkpt>
      <trkpt lat="45.82381" lon="1.85787">
        <ele>720.6</ele>
        <time>2026-07-09T08:24:33.000Z</time>
      </trkpt>
      <trkpt lat="45.82381" lon="1.85785">
        <ele>720.3</ele>
        <time>2026-07-09T08:24:34.000Z</time>
      </trkpt>
      <trkpt lat="45.82382" lon="1.85783">
        <ele>720.3</ele>
        <time>2026-07-09T08:24:35.000Z</time>
      </trkpt>
      <trkpt lat="45.82382" lon="1.8578">
        <ele>719.8</ele>
        <time>2026-07-09T08:24:36.000Z</time>
      </trkpt>
      <trkpt lat="45.82383" lon="1.85778">
        <ele>719.5</ele>
        <time>2026-07-09T08:24:37.000Z</time>
      </trkpt>
      <trkpt lat="45.82383" lon="1.85776">
        <ele>719.2</ele>
        <time>2026-07-09T08:24:38.000Z</time>
      </trkpt>
      <trkpt lat="45.82384" lon="1.85774">
        <ele>718.9</ele>
        <time>2026-07-09T08:24:39.000Z</time>
      </trkpt>
      <trkpt lat="45.82384" lon="1.85771">
        <ele>718.7</ele>
        <time>2026-07-09T08:24:40.000Z</time>
      </trkpt>
      <trkpt lat="45.82384" lon="1.85769">
        <ele>718.6</ele>
        <time>2026-07-09T08:24:41.000Z</time>
      </trkpt>
      <trkpt lat="45.82384" lon="1.85766">
        <ele>718.4</ele>
        <time>2026-07-09T08:24:42.000Z</time>
      </trkpt>
      <trkpt lat="45.82385" lon="1.85763">
        <ele>718.5</ele>
        <time>2026-07-09T08:24:43.000Z</time>
      </trkpt>
      <trkpt lat="45.82385" lon="1.8576">
        <ele>718.2</ele>
        <time>2026-07-09T08:24:44.000Z</time>
      </trkpt>
      <trkpt lat="45.82386" lon="1.85757">
        <ele>718.1</ele>
        <time>2026-07-09T08:24:45.000Z</time>
      </trkpt>
      <trkpt lat="45.82386" lon="1.85755">
        <ele>717.3</ele>
        <time>2026-07-09T08:24:46.000Z</time>
      </trkpt>
      <trkpt lat="45.82386" lon="1.85753">
        <ele>716.8</ele>
        <time>2026-07-09T08:24:47.000Z</time>
      </trkpt>
      <trkpt lat="45.82387" lon="1.85751">
        <ele>716.3</ele>
        <time>2026-07-09T08:24:48.000Z</time>
      </trkpt>
      <trkpt lat="45.82387" lon="1.85749">
        <ele>716.4</ele>
        <time>2026-07-09T08:24:49.000Z</time>
      </trkpt>
      <trkpt lat="45.82387" lon="1.85747">
        <ele>715.9</ele>
        <time>2026-07-09T08:24:50.000Z</time>
      </trkpt>
      <trkpt lat="45.82388" lon="1.85744">
        <ele>715.6</ele>
        <time>2026-07-09T08:24:51.000Z</time>
      </trkpt>
      <trkpt lat="45.82388" lon="1.85742">
        <ele>714.9</ele>
        <time>2026-07-09T08:24:52.000Z</time>
      </trkpt>
      <trkpt lat="45.82388" lon="1.8574">
        <ele>714.3</ele>
        <time>2026-07-09T08:24:53.000Z</time>
      </trkpt>
      <trkpt lat="45.82389" lon="1.85738">
        <ele>714.3</ele>
        <time>2026-07-09T08:24:54.000Z</time>
      </trkpt>
      <trkpt lat="45.82389" lon="1.85735">
        <ele>713.8</ele>
        <time>2026-07-09T08:24:55.000Z</time>
      </trkpt>
      <trkpt lat="45.8239" lon="1.85733">
        <ele>713.4</ele>
        <time>2026-07-09T08:24:56.000Z</time>
      </trkpt>
      <trkpt lat="45.8239" lon="1.85731">
        <ele>713.4</ele>
        <time>2026-07-09T08:24:57.000Z</time>
      </trkpt>
      <trkpt lat="45.82391" lon="1.85729">
        <ele>713.6</ele>
        <time>2026-07-09T08:24:58.000Z</time>
      </trkpt>
      <trkpt lat="45.82391" lon="1.85726">
        <ele>714.1</ele>
        <time>2026-07-09T08:24:59.000Z</time>
      </trkpt>
      <trkpt lat="45.82392" lon="1.85723">
        <ele>714.3</ele>
        <time>2026-07-09T08:25:00.000Z</time>
      </trkpt>
      <trkpt lat="45.82392" lon="1.8572">
        <ele>714.4</ele>
        <time>2026-07-09T08:25:01.000Z</time>
      </trkpt>
      <trkpt lat="45.82392" lon="1.85717">
        <ele>714.4</ele>
        <time>2026-07-09T08:25:02.000Z</time>
      </trkpt>
      <trkpt lat="45.82392" lon="1.85715">
        <ele>713.9</ele>
        <time>2026-07-09T08:25:03.000Z</time>
      </trkpt>
      <trkpt lat="45.82392" lon="1.85712">
        <ele>714.6</ele>
        <time>2026-07-09T08:25:04.000Z</time>
      </trkpt>
      <trkpt lat="45.82392" lon="1.8571">
        <ele>714.2</ele>
        <time>2026-07-09T08:25:05.000Z</time>
      </trkpt>
      <trkpt lat="45.82392" lon="1.85707">
        <ele>714.4</ele>
        <time>2026-07-09T08:25:06.000Z</time>
      </trkpt>
      <trkpt lat="45.82393" lon="1.85705">
        <ele>715.3</ele>
        <time>2026-07-09T08:25:07.000Z</time>
      </trkpt>
      <trkpt lat="45.82393" lon="1.85702">
        <ele>715.8</ele>
        <time>2026-07-09T08:25:08.000Z</time>
      </trkpt>
      <trkpt lat="45.82393" lon="1.857">
        <ele>716.2</ele>
        <time>2026-07-09T08:25:09.000Z</time>
      </trkpt>
      <trkpt lat="45.82394" lon="1.85697">
        <ele>716.4</ele>
        <time>2026-07-09T08:25:10.000Z</time>
      </trkpt>
      <trkpt lat="45.82395" lon="1.85695">
        <ele>715.8</ele>
        <time>2026-07-09T08:25:11.000Z</time>
      </trkpt>
      <trkpt lat="45.82395" lon="1.85693">
        <ele>715.7</ele>
        <time>2026-07-09T08:25:12.000Z</time>
      </trkpt>
      <trkpt lat="45.82395" lon="1.8569">
        <ele>716</ele>
        <time>2026-07-09T08:25:13.000Z</time>
      </trkpt>
      <trkpt lat="45.82396" lon="1.85688">
        <ele>715.8</ele>
        <time>2026-07-09T08:25:14.000Z</time>
      </trkpt>
      <trkpt lat="45.82396" lon="1.85685">
        <ele>715.4</ele>
        <time>2026-07-09T08:25:15.000Z</time>
      </trkpt>
      <trkpt lat="45.82397" lon="1.85683">
        <ele>714.7</ele>
        <time>2026-07-09T08:25:16.000Z</time>
      </trkpt>
      <trkpt lat="45.82397" lon="1.8568">
        <ele>714.3</ele>
        <time>2026-07-09T08:25:17.000Z</time>
      </trkpt>
      <trkpt lat="45.82398" lon="1.85678">
        <ele>713.9</ele>
        <time>2026-07-09T08:25:18.000Z</time>
      </trkpt>
      <trkpt lat="45.82398" lon="1.85675">
        <ele>713.3</ele>
        <time>2026-07-09T08:25:19.000Z</time>
      </trkpt>
      <trkpt lat="45.82399" lon="1.85673">
        <ele>713.7</ele>
        <time>2026-07-09T08:25:20.000Z</time>
      </trkpt>
      <trkpt lat="45.82399" lon="1.8567">
        <ele>713.2</ele>
        <time>2026-07-09T08:25:21.000Z</time>
      </trkpt>
      <trkpt lat="45.82399" lon="1.85667">
        <ele>712.7</ele>
        <time>2026-07-09T08:25:22.000Z</time>
      </trkpt>
      <trkpt lat="45.82399" lon="1.85664">
        <ele>712.4</ele>
        <time>2026-07-09T08:25:23.000Z</time>
      </trkpt>
      <trkpt lat="45.82398" lon="1.85661">
        <ele>711.7</ele>
        <time>2026-07-09T08:25:24.000Z</time>
      </trkpt>
      <trkpt lat="45.82398" lon="1.85658">
        <ele>711.2</ele>
        <time>2026-07-09T08:25:25.000Z</time>
      </trkpt>
      <trkpt lat="45.82399" lon="1.85656">
        <ele>711.3</ele>
        <time>2026-07-09T08:25:26.000Z</time>
      </trkpt>
      <trkpt lat="45.82399" lon="1.85653">
        <ele>711</ele>
        <time>2026-07-09T08:25:27.000Z</time>
      </trkpt>
      <trkpt lat="45.82399" lon="1.85651">
        <ele>710.7</ele>
        <time>2026-07-09T08:25:28.000Z</time>
      </trkpt>
      <trkpt lat="45.82399" lon="1.85648">
        <ele>711.6</ele>
        <time>2026-07-09T08:25:29.000Z</time>
      </trkpt>
      <trkpt lat="45.824" lon="1.85646">
        <ele>711.9</ele>
        <time>2026-07-09T08:25:30.000Z</time>
      </trkpt>
      <trkpt lat="45.824" lon="1.85643">
        <ele>712</ele>
        <time>2026-07-09T08:25:31.000Z</time>
      </trkpt>
      <trkpt lat="45.824" lon="1.85641">
        <ele>712.3</ele>
        <time>2026-07-09T08:25:32.000Z</time>
      </trkpt>
      <trkpt lat="45.824" lon="1.85638">
        <ele>711.7</ele>
        <time>2026-07-09T08:25:33.000Z</time>
      </trkpt>
      <trkpt lat="45.824" lon="1.85635">
        <ele>711.1</ele>
        <time>2026-07-09T08:25:34.000Z</time>
      </trkpt>
      <trkpt lat="45.824" lon="1.85632">
        <ele>710.6</ele>
        <time>2026-07-09T08:25:35.000Z</time>
      </trkpt>
      <trkpt lat="45.82401" lon="1.8563">
        <ele>710.1</ele>
        <time>2026-07-09T08:25:36.000Z</time>
      </trkpt>
      <trkpt lat="45.824" lon="1.85627">
        <ele>709.3</ele>
        <time>2026-07-09T08:25:37.000Z</time>
      </trkpt>
      <trkpt lat="45.824" lon="1.85624">
        <ele>709.3</ele>
        <time>2026-07-09T08:25:38.000Z</time>
      </trkpt>
      <trkpt lat="45.824" lon="1.85622">
        <ele>709.1</ele>
        <time>2026-07-09T08:25:39.000Z</time>
      </trkpt>
      <trkpt lat="45.824" lon="1.85619">
        <ele>708.2</ele>
        <time>2026-07-09T08:25:40.000Z</time>
      </trkpt>
      <trkpt lat="45.824" lon="1.85617">
        <ele>707.9</ele>
        <time>2026-07-09T08:25:41.000Z</time>
      </trkpt>
      <trkpt lat="45.82401" lon="1.85615">
        <ele>707.4</ele>
        <time>2026-07-09T08:25:42.000Z</time>
      </trkpt>
      <trkpt lat="45.82401" lon="1.85612">
        <ele>707.1</ele>
        <time>2026-07-09T08:25:43.000Z</time>
      </trkpt>
      <trkpt lat="45.82402" lon="1.8561">
        <ele>706.9</ele>
        <time>2026-07-09T08:25:44.000Z</time>
      </trkpt>
      <trkpt lat="45.82402" lon="1.85608">
        <ele>706.3</ele>
        <time>2026-07-09T08:25:45.000Z</time>
      </trkpt>
      <trkpt lat="45.82402" lon="1.85606">
        <ele>705.9</ele>
        <time>2026-07-09T08:25:46.000Z</time>
      </trkpt>
      <trkpt lat="45.82402" lon="1.85604">
        <ele>705.3</ele>
        <time>2026-07-09T08:25:47.000Z</time>
      </trkpt>
      <trkpt lat="45.82402" lon="1.85601">
        <ele>704.9</ele>
        <time>2026-07-09T08:25:48.000Z</time>
      </trkpt>
      <trkpt lat="45.82403" lon="1.85599">
        <ele>705.3</ele>
        <time>2026-07-09T08:25:49.000Z</time>
      </trkpt>
      <trkpt lat="45.82403" lon="1.85597">
        <ele>704.6</ele>
        <time>2026-07-09T08:25:50.000Z</time>
      </trkpt>
      <trkpt lat="45.82403" lon="1.85595">
        <ele>704.4</ele>
        <time>2026-07-09T08:25:51.000Z</time>
      </trkpt>
      <trkpt lat="45.82404" lon="1.85593">
        <ele>705.2</ele>
        <time>2026-07-09T08:25:52.000Z</time>
      </trkpt>
      <trkpt lat="45.82405" lon="1.8559">
        <ele>705.9</ele>
        <time>2026-07-09T08:25:53.000Z</time>
      </trkpt>
      <trkpt lat="45.82407" lon="1.85586">
        <ele>705.7</ele>
        <time>2026-07-09T08:25:54.000Z</time>
      </trkpt>
      <trkpt lat="45.82409" lon="1.85582">
        <ele>704.9</ele>
        <time>2026-07-09T08:25:55.000Z</time>
      </trkpt>
      <trkpt lat="45.82411" lon="1.85579">
        <ele>705.6</ele>
        <time>2026-07-09T08:25:56.000Z</time>
      </trkpt>
      <trkpt lat="45.82412" lon="1.85576">
        <ele>704.9</ele>
        <time>2026-07-09T08:25:57.000Z</time>
      </trkpt>
      <trkpt lat="45.82412" lon="1.85572">
        <ele>705.1</ele>
        <time>2026-07-09T08:25:58.000Z</time>
      </trkpt>
      <trkpt lat="45.82413" lon="1.85569">
        <ele>704.8</ele>
        <time>2026-07-09T08:25:59.000Z</time>
      </trkpt>
      <trkpt lat="45.82413" lon="1.85566">
        <ele>704.7</ele>
        <time>2026-07-09T08:26:00.000Z</time>
      </trkpt>
      <trkpt lat="45.82413" lon="1.85563">
        <ele>706.2</ele>
        <time>2026-07-09T08:26:01.000Z</time>
      </trkpt>
      <trkpt lat="45.82413" lon="1.85561">
        <ele>705.2</ele>
        <time>2026-07-09T08:26:02.000Z</time>
      </trkpt>
      <trkpt lat="45.82412" lon="1.85558">
        <ele>705.4</ele>
        <time>2026-07-09T08:26:03.000Z</time>
      </trkpt>
      <trkpt lat="45.82412" lon="1.85554">
        <ele>705.6</ele>
        <time>2026-07-09T08:26:04.000Z</time>
      </trkpt>
      <trkpt lat="45.82411" lon="1.85551">
        <ele>705.3</ele>
        <time>2026-07-09T08:26:05.000Z</time>
      </trkpt>
      <trkpt lat="45.82409" lon="1.85549">
        <ele>705.6</ele>
        <time>2026-07-09T08:26:06.000Z</time>
      </trkpt>
      <trkpt lat="45.82409" lon="1.85546">
        <ele>707.6</ele>
        <time>2026-07-09T08:26:07.000Z</time>
      </trkpt>
      <trkpt lat="45.82408" lon="1.85543">
        <ele>708.2</ele>
        <time>2026-07-09T08:26:08.000Z</time>
      </trkpt>
      <trkpt lat="45.82408" lon="1.85541">
        <ele>710.5</ele>
        <time>2026-07-09T08:26:09.000Z</time>
      </trkpt>
      <trkpt lat="45.82406" lon="1.85539">
        <ele>710.3</ele>
        <time>2026-07-09T08:26:10.000Z</time>
      </trkpt>
      <trkpt lat="45.82405" lon="1.85538">
        <ele>710.1</ele>
        <time>2026-07-09T08:26:11.000Z</time>
      </trkpt>
      <trkpt lat="45.82404" lon="1.85536">
        <ele>709.6</ele>
        <time>2026-07-09T08:26:12.000Z</time>
      </trkpt>
      <trkpt lat="45.82403" lon="1.85534">
        <ele>709.4</ele>
        <time>2026-07-09T08:26:13.000Z</time>
      </trkpt>
      <trkpt lat="45.82402" lon="1.85532">
        <ele>709.5</ele>
        <time>2026-07-09T08:26:14.000Z</time>
      </trkpt>
      <trkpt lat="45.82401" lon="1.85531">
        <ele>709.2</ele>
        <time>2026-07-09T08:26:15.000Z</time>
      </trkpt>
      <trkpt lat="45.824" lon="1.85529">
        <ele>709</ele>
        <time>2026-07-09T08:26:16.000Z</time>
      </trkpt>
      <trkpt lat="45.82399" lon="1.85526">
        <ele>709.7</ele>
        <time>2026-07-09T08:26:17.000Z</time>
      </trkpt>
      <trkpt lat="45.82398" lon="1.85524">
        <ele>709.2</ele>
        <time>2026-07-09T08:26:18.000Z</time>
      </trkpt>
      <trkpt lat="45.82397" lon="1.85521">
        <ele>710.1</ele>
        <time>2026-07-09T08:26:19.000Z</time>
      </trkpt>
      <trkpt lat="45.82396" lon="1.85518">
        <ele>710.2</ele>
        <time>2026-07-09T08:26:20.000Z</time>
      </trkpt>
      <trkpt lat="45.82395" lon="1.85516">
        <ele>709.2</ele>
        <time>2026-07-09T08:26:21.000Z</time>
      </trkpt>
      <trkpt lat="45.82394" lon="1.85513">
        <ele>709.7</ele>
        <time>2026-07-09T08:26:22.000Z</time>
      </trkpt>
      <trkpt lat="45.82394" lon="1.85511">
        <ele>709.4</ele>
        <time>2026-07-09T08:26:23.000Z</time>
      </trkpt>
      <trkpt lat="45.82393" lon="1.85508">
        <ele>709.9</ele>
        <time>2026-07-09T08:26:24.000Z</time>
      </trkpt>
      <trkpt lat="45.82392" lon="1.85505">
        <ele>709.3</ele>
        <time>2026-07-09T08:26:25.000Z</time>
      </trkpt>
      <trkpt lat="45.82392" lon="1.85503">
        <ele>708.9</ele>
        <time>2026-07-09T08:26:26.000Z</time>
      </trkpt>
      <trkpt lat="45.82393" lon="1.85499">
        <ele>708.6</ele>
        <time>2026-07-09T08:26:27.000Z</time>
      </trkpt>
      <trkpt lat="45.82395" lon="1.85498">
        <ele>708.9</ele>
        <time>2026-07-09T08:26:28.000Z</time>
      </trkpt>
      <trkpt lat="45.82398" lon="1.855">
        <ele>709.4</ele>
        <time>2026-07-09T08:26:29.000Z</time>
      </trkpt>
      <trkpt lat="45.82398" lon="1.855">
        <ele>709.5</ele>
        <time>2026-07-09T08:26:30.000Z</time>
      </trkpt>
      <trkpt lat="45.82398" lon="1.85501">
        <ele>709.5</ele>
        <time>2026-07-09T08:26:31.000Z</time>
      </trkpt>
      <trkpt lat="45.82398" lon="1.85501">
        <ele>709.5</ele>
        <time>2026-07-09T08:26:32.000Z</time>
      </trkpt>
      <trkpt lat="45.82398" lon="1.85501">
        <ele>709.9</ele>
        <time>2026-07-09T08:26:33.000Z</time>
      </trkpt>
      <trkpt lat="45.82398" lon="1.85501">
        <ele>709.8</ele>
        <time>2026-07-09T08:26:34.000Z</time>
      </trkpt>
      <trkpt lat="45.82398" lon="1.85502">
        <ele>709.8</ele>
        <time>2026-07-09T08:26:35.000Z</time>
      </trkpt>
      <trkpt lat="45.82398" lon="1.85502">
        <ele>709.8</ele>
        <time>2026-07-09T08:26:36.000Z</time>
      </trkpt>
      <trkpt lat="45.82398" lon="1.85503">
        <ele>709.7</ele>
        <time>2026-07-09T08:26:37.000Z</time>
      </trkpt>
      <trkpt lat="45.82397" lon="1.85503">
        <ele>709.7</ele>
        <time>2026-07-09T08:26:38.000Z</time>
      </trkpt>
      <trkpt lat="45.82397" lon="1.85502">
        <ele>709.8</ele>
        <time>2026-07-09T08:26:39.000Z</time>
      </trkpt>
      <trkpt lat="45.82396" lon="1.85501">
        <ele>709.3</ele>
        <time>2026-07-09T08:26:40.000Z</time>
      </trkpt>
      <trkpt lat="45.82396" lon="1.85499">
        <ele>708.9</ele>
        <time>2026-07-09T08:26:41.000Z</time>
      </trkpt>
      <trkpt lat="45.82395" lon="1.85496">
        <ele>709</ele>
        <time>2026-07-09T08:26:42.000Z</time>
      </trkpt>
      <trkpt lat="45.82393" lon="1.85493">
        <ele>708.7</ele>
        <time>2026-07-09T08:26:43.000Z</time>
      </trkpt>
      <trkpt lat="45.82392" lon="1.8549">
        <ele>708.1</ele>
        <time>2026-07-09T08:26:44.000Z</time>
      </trkpt>
      <trkpt lat="45.82391" lon="1.85487">
        <ele>707.9</ele>
        <time>2026-07-09T08:26:45.000Z</time>
      </trkpt>
      <trkpt lat="45.8239" lon="1.85485">
        <ele>707.7</ele>
        <time>2026-07-09T08:26:46.000Z</time>
      </trkpt>
      <trkpt lat="45.82389" lon="1.85483">
        <ele>707.9</ele>
        <time>2026-07-09T08:26:47.000Z</time>
      </trkpt>
      <trkpt lat="45.82388" lon="1.85481">
        <ele>708.5</ele>
        <time>2026-07-09T08:26:48.000Z</time>
      </trkpt>
      <trkpt lat="45.82388" lon="1.85478">
        <ele>708.4</ele>
        <time>2026-07-09T08:26:49.000Z</time>
      </trkpt>
      <trkpt lat="45.82387" lon="1.85475">
        <ele>708.5</ele>
        <time>2026-07-09T08:26:50.000Z</time>
      </trkpt>
      <trkpt lat="45.82387" lon="1.85473">
        <ele>709.3</ele>
        <time>2026-07-09T08:26:51.000Z</time>
      </trkpt>
      <trkpt lat="45.82387" lon="1.85471">
        <ele>709.5</ele>
        <time>2026-07-09T08:26:52.000Z</time>
      </trkpt>
      <trkpt lat="45.82387" lon="1.85468">
        <ele>709.8</ele>
        <time>2026-07-09T08:26:53.000Z</time>
      </trkpt>
      <trkpt lat="45.82387" lon="1.85466">
        <ele>709.9</ele>
        <time>2026-07-09T08:26:54.000Z</time>
      </trkpt>
      <trkpt lat="45.82387" lon="1.85463">
        <ele>709.3</ele>
        <time>2026-07-09T08:26:55.000Z</time>
      </trkpt>
      <trkpt lat="45.82386" lon="1.85461">
        <ele>709.2</ele>
        <time>2026-07-09T08:26:56.000Z</time>
      </trkpt>
      <trkpt lat="45.82385" lon="1.85459">
        <ele>709</ele>
        <time>2026-07-09T08:26:57.000Z</time>
      </trkpt>
      <trkpt lat="45.82383" lon="1.85456">
        <ele>708.5</ele>
        <time>2026-07-09T08:26:58.000Z</time>
      </trkpt>
      <trkpt lat="45.82382" lon="1.85454">
        <ele>708.5</ele>
        <time>2026-07-09T08:26:59.000Z</time>
      </trkpt>
      <trkpt lat="45.82382" lon="1.85451">
        <ele>708.4</ele>
        <time>2026-07-09T08:27:00.000Z</time>
      </trkpt>
      <trkpt lat="45.82381" lon="1.85448">
        <ele>709.3</ele>
        <time>2026-07-09T08:27:01.000Z</time>
      </trkpt>
      <trkpt lat="45.8238" lon="1.85445">
        <ele>709</ele>
        <time>2026-07-09T08:27:02.000Z</time>
      </trkpt>
      <trkpt lat="45.82379" lon="1.85443">
        <ele>709.5</ele>
        <time>2026-07-09T08:27:03.000Z</time>
      </trkpt>
      <trkpt lat="45.82378" lon="1.8544">
        <ele>709.9</ele>
        <time>2026-07-09T08:27:04.000Z</time>
      </trkpt>
      <trkpt lat="45.82377" lon="1.85437">
        <ele>710.1</ele>
        <time>2026-07-09T08:27:05.000Z</time>
      </trkpt>
      <trkpt lat="45.82376" lon="1.85433">
        <ele>710</ele>
        <time>2026-07-09T08:27:06.000Z</time>
      </trkpt>
      <trkpt lat="45.82375" lon="1.8543">
        <ele>710.1</ele>
        <time>2026-07-09T08:27:07.000Z</time>
      </trkpt>
      <trkpt lat="45.82374" lon="1.85427">
        <ele>710.1</ele>
        <time>2026-07-09T08:27:08.000Z</time>
      </trkpt>
      <trkpt lat="45.82373" lon="1.85424">
        <ele>710.4</ele>
        <time>2026-07-09T08:27:09.000Z</time>
      </trkpt>
      <trkpt lat="45.82372" lon="1.85422">
        <ele>710.3</ele>
        <time>2026-07-09T08:27:10.000Z</time>
      </trkpt>
      <trkpt lat="45.82372" lon="1.85419">
        <ele>710.7</ele>
        <time>2026-07-09T08:27:11.000Z</time>
      </trkpt>
      <trkpt lat="45.82371" lon="1.85416">
        <ele>710.7</ele>
        <time>2026-07-09T08:27:12.000Z</time>
      </trkpt>
      <trkpt lat="45.82371" lon="1.85413">
        <ele>711</ele>
        <time>2026-07-09T08:27:13.000Z</time>
      </trkpt>
      <trkpt lat="45.8237" lon="1.8541">
        <ele>711</ele>
        <time>2026-07-09T08:27:14.000Z</time>
      </trkpt>
      <trkpt lat="45.82369" lon="1.85407">
        <ele>711.3</ele>
        <time>2026-07-09T08:27:15.000Z</time>
      </trkpt>
      <trkpt lat="45.82368" lon="1.85404">
        <ele>711.6</ele>
        <time>2026-07-09T08:27:16.000Z</time>
      </trkpt>
      <trkpt lat="45.82367" lon="1.85401">
        <ele>711.7</ele>
        <time>2026-07-09T08:27:17.000Z</time>
      </trkpt>
      <trkpt lat="45.82366" lon="1.85398">
        <ele>711.9</ele>
        <time>2026-07-09T08:27:18.000Z</time>
      </trkpt>
      <trkpt lat="45.82365" lon="1.85395">
        <ele>712.3</ele>
        <time>2026-07-09T08:27:19.000Z</time>
      </trkpt>
      <trkpt lat="45.82364" lon="1.85392">
        <ele>712.2</ele>
        <time>2026-07-09T08:27:20.000Z</time>
      </trkpt>
      <trkpt lat="45.82363" lon="1.8539">
        <ele>712.3</ele>
        <time>2026-07-09T08:27:21.000Z</time>
      </trkpt>
      <trkpt lat="45.82362" lon="1.85388">
        <ele>712.6</ele>
        <time>2026-07-09T08:27:22.000Z</time>
      </trkpt>
      <trkpt lat="45.82361" lon="1.85386">
        <ele>713.3</ele>
        <time>2026-07-09T08:27:23.000Z</time>
      </trkpt>
      <trkpt lat="45.82361" lon="1.85382">
        <ele>713.4</ele>
        <time>2026-07-09T08:27:24.000Z</time>
      </trkpt>
      <trkpt lat="45.82359" lon="1.85381">
        <ele>713.6</ele>
        <time>2026-07-09T08:27:25.000Z</time>
      </trkpt>
      <trkpt lat="45.82357" lon="1.8538">
        <ele>713.8</ele>
        <time>2026-07-09T08:27:26.000Z</time>
      </trkpt>
      <trkpt lat="45.82355" lon="1.85378">
        <ele>714.1</ele>
        <time>2026-07-09T08:27:27.000Z</time>
      </trkpt>
      <trkpt lat="45.82354" lon="1.85376">
        <ele>713.2</ele>
        <time>2026-07-09T08:27:28.000Z</time>
      </trkpt>
      <trkpt lat="45.82352" lon="1.85375">
        <ele>713</ele>
        <time>2026-07-09T08:27:29.000Z</time>
      </trkpt>
      <trkpt lat="45.82351" lon="1.85373">
        <ele>712.9</ele>
        <time>2026-07-09T08:27:30.000Z</time>
      </trkpt>
      <trkpt lat="45.82349" lon="1.85371">
        <ele>713.2</ele>
        <time>2026-07-09T08:27:31.000Z</time>
      </trkpt>
      <trkpt lat="45.82348" lon="1.85368">
        <ele>713.1</ele>
        <time>2026-07-09T08:27:32.000Z</time>
      </trkpt>
      <trkpt lat="45.82346" lon="1.85366">
        <ele>712.5</ele>
        <time>2026-07-09T08:27:33.000Z</time>
      </trkpt>
      <trkpt lat="45.82345" lon="1.85364">
        <ele>712.7</ele>
        <time>2026-07-09T08:27:34.000Z</time>
      </trkpt>
      <trkpt lat="45.82343" lon="1.85362">
        <ele>713.9</ele>
        <time>2026-07-09T08:27:35.000Z</time>
      </trkpt>
      <trkpt lat="45.82341" lon="1.85359">
        <ele>714.1</ele>
        <time>2026-07-09T08:27:36.000Z</time>
      </trkpt>
      <trkpt lat="45.8234" lon="1.85356">
        <ele>714.5</ele>
        <time>2026-07-09T08:27:37.000Z</time>
      </trkpt>
      <trkpt lat="45.82339" lon="1.85354">
        <ele>714.5</ele>
        <time>2026-07-09T08:27:38.000Z</time>
      </trkpt>
      <trkpt lat="45.82338" lon="1.85351">
        <ele>714.5</ele>
        <time>2026-07-09T08:27:39.000Z</time>
      </trkpt>
      <trkpt lat="45.82336" lon="1.85348">
        <ele>714.8</ele>
        <time>2026-07-09T08:27:40.000Z</time>
      </trkpt>
      <trkpt lat="45.82336" lon="1.85344">
        <ele>715.3</ele>
        <time>2026-07-09T08:27:41.000Z</time>
      </trkpt>
      <trkpt lat="45.82336" lon="1.85341">
        <ele>715.6</ele>
        <time>2026-07-09T08:27:42.000Z</time>
      </trkpt>
      <trkpt lat="45.82335" lon="1.85338">
        <ele>716.1</ele>
        <time>2026-07-09T08:27:43.000Z</time>
      </trkpt>
      <trkpt lat="45.82335" lon="1.85336">
        <ele>716.2</ele>
        <time>2026-07-09T08:27:44.000Z</time>
      </trkpt>
      <trkpt lat="45.82335" lon="1.85333">
        <ele>716.3</ele>
        <time>2026-07-09T08:27:45.000Z</time>
      </trkpt>
      <trkpt lat="45.82335" lon="1.85331">
        <ele>716.4</ele>
        <time>2026-07-09T08:27:46.000Z</time>
      </trkpt>
      <trkpt lat="45.82335" lon="1.85328">
        <ele>716.5</ele>
        <time>2026-07-09T08:27:47.000Z</time>
      </trkpt>
      <trkpt lat="45.82335" lon="1.85325">
        <ele>717.5</ele>
        <time>2026-07-09T08:27:48.000Z</time>
      </trkpt>
      <trkpt lat="45.82336" lon="1.85322">
        <ele>717.8</ele>
        <time>2026-07-09T08:27:49.000Z</time>
      </trkpt>
      <trkpt lat="45.82336" lon="1.85319">
        <ele>718.2</ele>
        <time>2026-07-09T08:27:50.000Z</time>
      </trkpt>
      <trkpt lat="45.82337" lon="1.85317">
        <ele>718.6</ele>
        <time>2026-07-09T08:27:51.000Z</time>
      </trkpt>
      <trkpt lat="45.82338" lon="1.85314">
        <ele>718.8</ele>
        <time>2026-07-09T08:27:52.000Z</time>
      </trkpt>
      <trkpt lat="45.82338" lon="1.85311">
        <ele>718.8</ele>
        <time>2026-07-09T08:27:53.000Z</time>
      </trkpt>
      <trkpt lat="45.82338" lon="1.85309">
        <ele>718.8</ele>
        <time>2026-07-09T08:27:54.000Z</time>
      </trkpt>
      <trkpt lat="45.82338" lon="1.85306">
        <ele>718.4</ele>
        <time>2026-07-09T08:27:55.000Z</time>
      </trkpt>
      <trkpt lat="45.82339" lon="1.85303">
        <ele>718.3</ele>
        <time>2026-07-09T08:27:56.000Z</time>
      </trkpt>
      <trkpt lat="45.82339" lon="1.853">
        <ele>718.1</ele>
        <time>2026-07-09T08:27:57.000Z</time>
      </trkpt>
      <trkpt lat="45.82339" lon="1.85297">
        <ele>718.1</ele>
        <time>2026-07-09T08:27:58.000Z</time>
      </trkpt>
      <trkpt lat="45.82339" lon="1.85295">
        <ele>718.3</ele>
        <time>2026-07-09T08:27:59.000Z</time>
      </trkpt>
      <trkpt lat="45.8234" lon="1.85292">
        <ele>718.2</ele>
        <time>2026-07-09T08:28:00.000Z</time>
      </trkpt>
      <trkpt lat="45.8234" lon="1.85289">
        <ele>717.9</ele>
        <time>2026-07-09T08:28:01.000Z</time>
      </trkpt>
      <trkpt lat="45.8234" lon="1.85287">
        <ele>717.8</ele>
        <time>2026-07-09T08:28:02.000Z</time>
      </trkpt>
      <trkpt lat="45.8234" lon="1.85284">
        <ele>717.9</ele>
        <time>2026-07-09T08:28:03.000Z</time>
      </trkpt>
      <trkpt lat="45.82341" lon="1.85281">
        <ele>717.9</ele>
        <time>2026-07-09T08:28:04.000Z</time>
      </trkpt>
      <trkpt lat="45.82341" lon="1.85278">
        <ele>718.3</ele>
        <time>2026-07-09T08:28:05.000Z</time>
      </trkpt>
      <trkpt lat="45.82341" lon="1.85276">
        <ele>718.7</ele>
        <time>2026-07-09T08:28:06.000Z</time>
      </trkpt>
      <trkpt lat="45.82342" lon="1.85273">
        <ele>718.7</ele>
        <time>2026-07-09T08:28:07.000Z</time>
      </trkpt>
      <trkpt lat="45.82342" lon="1.8527">
        <ele>718.7</ele>
        <time>2026-07-09T08:28:08.000Z</time>
      </trkpt>
      <trkpt lat="45.82342" lon="1.85268">
        <ele>719</ele>
        <time>2026-07-09T08:28:09.000Z</time>
      </trkpt>
      <trkpt lat="45.82342" lon="1.85265">
        <ele>719</ele>
        <time>2026-07-09T08:28:10.000Z</time>
      </trkpt>
      <trkpt lat="45.82342" lon="1.85262">
        <ele>719.1</ele>
        <time>2026-07-09T08:28:11.000Z</time>
      </trkpt>
      <trkpt lat="45.82343" lon="1.8526">
        <ele>719</ele>
        <time>2026-07-09T08:28:12.000Z</time>
      </trkpt>
      <trkpt lat="45.82343" lon="1.85257">
        <ele>719.3</ele>
        <time>2026-07-09T08:28:13.000Z</time>
      </trkpt>
      <trkpt lat="45.82343" lon="1.85255">
        <ele>719.3</ele>
        <time>2026-07-09T08:28:14.000Z</time>
      </trkpt>
      <trkpt lat="45.82343" lon="1.85252">
        <ele>718.9</ele>
        <time>2026-07-09T08:28:15.000Z</time>
      </trkpt>
      <trkpt lat="45.82343" lon="1.85249">
        <ele>719.2</ele>
        <time>2026-07-09T08:28:16.000Z</time>
      </trkpt>
      <trkpt lat="45.82343" lon="1.85247">
        <ele>719.2</ele>
        <time>2026-07-09T08:28:17.000Z</time>
      </trkpt>
      <trkpt lat="45.82343" lon="1.85244">
        <ele>719.2</ele>
        <time>2026-07-09T08:28:18.000Z</time>
      </trkpt>
      <trkpt lat="45.82343" lon="1.85242">
        <ele>719.6</ele>
        <time>2026-07-09T08:28:19.000Z</time>
      </trkpt>
      <trkpt lat="45.82344" lon="1.8524">
        <ele>719.8</ele>
        <time>2026-07-09T08:28:20.000Z</time>
      </trkpt>
      <trkpt lat="45.82344" lon="1.85237">
        <ele>720.3</ele>
        <time>2026-07-09T08:28:21.000Z</time>
      </trkpt>
      <trkpt lat="45.82344" lon="1.85234">
        <ele>720.1</ele>
        <time>2026-07-09T08:28:22.000Z</time>
      </trkpt>
      <trkpt lat="45.82344" lon="1.85232">
        <ele>719.5</ele>
        <time>2026-07-09T08:28:23.000Z</time>
      </trkpt>
      <trkpt lat="45.82344" lon="1.85229">
        <ele>719</ele>
        <time>2026-07-09T08:28:24.000Z</time>
      </trkpt>
      <trkpt lat="45.82343" lon="1.85227">
        <ele>719.7</ele>
        <time>2026-07-09T08:28:25.000Z</time>
      </trkpt>
      <trkpt lat="45.82344" lon="1.85224">
        <ele>719.6</ele>
        <time>2026-07-09T08:28:26.000Z</time>
      </trkpt>
      <trkpt lat="45.82343" lon="1.85221">
        <ele>719.6</ele>
        <time>2026-07-09T08:28:27.000Z</time>
      </trkpt>
      <trkpt lat="45.82344" lon="1.85218">
        <ele>720.1</ele>
        <time>2026-07-09T08:28:28.000Z</time>
      </trkpt>
      <trkpt lat="45.82344" lon="1.85215">
        <ele>720.1</ele>
        <time>2026-07-09T08:28:29.000Z</time>
      </trkpt>
      <trkpt lat="45.82344" lon="1.85212">
        <ele>720.3</ele>
        <time>2026-07-09T08:28:30.000Z</time>
      </trkpt>
      <trkpt lat="45.82345" lon="1.85209">
        <ele>720.4</ele>
        <time>2026-07-09T08:28:31.000Z</time>
      </trkpt>
      <trkpt lat="45.82345" lon="1.85206">
        <ele>720.6</ele>
        <time>2026-07-09T08:28:32.000Z</time>
      </trkpt>
      <trkpt lat="45.82345" lon="1.85203">
        <ele>720.7</ele>
        <time>2026-07-09T08:28:33.000Z</time>
      </trkpt>
      <trkpt lat="45.82345" lon="1.852">
        <ele>721</ele>
        <time>2026-07-09T08:28:34.000Z</time>
      </trkpt>
      <trkpt lat="45.82345" lon="1.85198">
        <ele>721.3</ele>
        <time>2026-07-09T08:28:35.000Z</time>
      </trkpt>
      <trkpt lat="45.82345" lon="1.85195">
        <ele>720.8</ele>
        <time>2026-07-09T08:28:36.000Z</time>
      </trkpt>
      <trkpt lat="45.82345" lon="1.85192">
        <ele>720.9</ele>
        <time>2026-07-09T08:28:37.000Z</time>
      </trkpt>
      <trkpt lat="45.82345" lon="1.85189">
        <ele>720.5</ele>
        <time>2026-07-09T08:28:38.000Z</time>
      </trkpt>
      <trkpt lat="45.82345" lon="1.85186">
        <ele>720.5</ele>
        <time>2026-07-09T08:28:39.000Z</time>
      </trkpt>
      <trkpt lat="45.82345" lon="1.85183">
        <ele>720.5</ele>
        <time>2026-07-09T08:28:40.000Z</time>
      </trkpt>
      <trkpt lat="45.82345" lon="1.8518">
        <ele>720.7</ele>
        <time>2026-07-09T08:28:41.000Z</time>
      </trkpt>
      <trkpt lat="45.82345" lon="1.85177">
        <ele>720.9</ele>
        <time>2026-07-09T08:28:42.000Z</time>
      </trkpt>
      <trkpt lat="45.82345" lon="1.85175">
        <ele>722.3</ele>
        <time>2026-07-09T08:28:43.000Z</time>
      </trkpt>
      <trkpt lat="45.82346" lon="1.85172">
        <ele>722.5</ele>
        <time>2026-07-09T08:28:44.000Z</time>
      </trkpt>
      <trkpt lat="45.82346" lon="1.85169">
        <ele>722.9</ele>
        <time>2026-07-09T08:28:45.000Z</time>
      </trkpt>
      <trkpt lat="45.82346" lon="1.85166">
        <ele>723.4</ele>
        <time>2026-07-09T08:28:46.000Z</time>
      </trkpt>
      <trkpt lat="45.82346" lon="1.85164">
        <ele>723.4</ele>
        <time>2026-07-09T08:28:47.000Z</time>
      </trkpt>
      <trkpt lat="45.82346" lon="1.85161">
        <ele>723.9</ele>
        <time>2026-07-09T08:28:48.000Z</time>
      </trkpt>
      <trkpt lat="45.82347" lon="1.85158">
        <ele>724.2</ele>
        <time>2026-07-09T08:28:49.000Z</time>
      </trkpt>
      <trkpt lat="45.82347" lon="1.85155">
        <ele>724.5</ele>
        <time>2026-07-09T08:28:50.000Z</time>
      </trkpt>
      <trkpt lat="45.82348" lon="1.85152">
        <ele>724.7</ele>
        <time>2026-07-09T08:28:51.000Z</time>
      </trkpt>
      <trkpt lat="45.82348" lon="1.8515">
        <ele>725.1</ele>
        <time>2026-07-09T08:28:52.000Z</time>
      </trkpt>
      <trkpt lat="45.82348" lon="1.85147">
        <ele>725.6</ele>
        <time>2026-07-09T08:28:53.000Z</time>
      </trkpt>
      <trkpt lat="45.82348" lon="1.85144">
        <ele>725.7</ele>
        <time>2026-07-09T08:28:54.000Z</time>
      </trkpt>
      <trkpt lat="45.82348" lon="1.85142">
        <ele>725.7</ele>
        <time>2026-07-09T08:28:55.000Z</time>
      </trkpt>
      <trkpt lat="45.82349" lon="1.85139">
        <ele>726</ele>
        <time>2026-07-09T08:28:56.000Z</time>
      </trkpt>
      <trkpt lat="45.82349" lon="1.85136">
        <ele>726.2</ele>
        <time>2026-07-09T08:28:57.000Z</time>
      </trkpt>
      <trkpt lat="45.82349" lon="1.85133">
        <ele>726.2</ele>
        <time>2026-07-09T08:28:58.000Z</time>
      </trkpt>
      <trkpt lat="45.82349" lon="1.85131">
        <ele>726</ele>
        <time>2026-07-09T08:28:59.000Z</time>
      </trkpt>
      <trkpt lat="45.82349" lon="1.85128">
        <ele>726</ele>
        <time>2026-07-09T08:29:00.000Z</time>
      </trkpt>
      <trkpt lat="45.82349" lon="1.85126">
        <ele>726.1</ele>
        <time>2026-07-09T08:29:01.000Z</time>
      </trkpt>
      <trkpt lat="45.82349" lon="1.85124">
        <ele>725.9</ele>
        <time>2026-07-09T08:29:02.000Z</time>
      </trkpt>
      <trkpt lat="45.82349" lon="1.85121">
        <ele>725.9</ele>
        <time>2026-07-09T08:29:03.000Z</time>
      </trkpt>
      <trkpt lat="45.82349" lon="1.85119">
        <ele>726.1</ele>
        <time>2026-07-09T08:29:04.000Z</time>
      </trkpt>
      <trkpt lat="45.82349" lon="1.85116">
        <ele>726.7</ele>
        <time>2026-07-09T08:29:05.000Z</time>
      </trkpt>
      <trkpt lat="45.82349" lon="1.85114">
        <ele>726.8</ele>
        <time>2026-07-09T08:29:06.000Z</time>
      </trkpt>
      <trkpt lat="45.82349" lon="1.85111">
        <ele>727.4</ele>
        <time>2026-07-09T08:29:07.000Z</time>
      </trkpt>
      <trkpt lat="45.82349" lon="1.85109">
        <ele>727.5</ele>
        <time>2026-07-09T08:29:08.000Z</time>
      </trkpt>
      <trkpt lat="45.82349" lon="1.85107">
        <ele>726.9</ele>
        <time>2026-07-09T08:29:09.000Z</time>
      </trkpt>
      <trkpt lat="45.82349" lon="1.85105">
        <ele>726.8</ele>
        <time>2026-07-09T08:29:10.000Z</time>
      </trkpt>
      <trkpt lat="45.8235" lon="1.85105">
        <ele>725.9</ele>
        <time>2026-07-09T08:29:11.000Z</time>
      </trkpt>
      <trkpt lat="45.8235" lon="1.85106">
        <ele>726.6</ele>
        <time>2026-07-09T08:29:12.000Z</time>
      </trkpt>
      <trkpt lat="45.8235" lon="1.85107">
        <ele>726.4</ele>
        <time>2026-07-09T08:29:13.000Z</time>
      </trkpt>
      <trkpt lat="45.8235" lon="1.85107">
        <ele>726.4</ele>
        <time>2026-07-09T08:29:14.000Z</time>
      </trkpt>
      <trkpt lat="45.8235" lon="1.85107">
        <ele>726.4</ele>
        <time>2026-07-09T08:29:15.000Z</time>
      </trkpt>
      <trkpt lat="45.8235" lon="1.85107">
        <ele>726.4</ele>
        <time>2026-07-09T08:29:16.000Z</time>
      </trkpt>
      <trkpt lat="45.8235" lon="1.85107">
        <ele>726.4</ele>
        <time>2026-07-09T08:29:17.000Z</time>
      </trkpt>
      <trkpt lat="45.8235" lon="1.85107">
        <ele>726.4</ele>
        <time>2026-07-09T08:29:18.000Z</time>
      </trkpt>
      <trkpt lat="45.8235" lon="1.85107">
        <ele>726.4</ele>
        <time>2026-07-09T08:29:19.000Z</time>
      </trkpt>
      <trkpt lat="45.8235" lon="1.85107">
        <ele>726.4</ele>
        <time>2026-07-09T08:29:20.000Z</time>
      </trkpt>
      <trkpt lat="45.8235" lon="1.85107">
        <ele>726.4</ele>
        <time>2026-07-09T08:29:21.000Z</time>
      </trkpt>
      <trkpt lat="45.8235" lon="1.85107">
        <ele>725.8</ele>
        <time>2026-07-09T08:29:22.000Z</time>
      </trkpt>
      <trkpt lat="45.8235" lon="1.85108">
        <ele>725.8</ele>
        <time>2026-07-09T08:29:23.000Z</time>
      </trkpt>
      <trkpt lat="45.8235" lon="1.85108">
        <ele>725.8</ele>
        <time>2026-07-09T08:29:24.000Z</time>
      </trkpt>
      <trkpt lat="45.8235" lon="1.85108">
        <ele>725.8</ele>
        <time>2026-07-09T08:29:25.000Z</time>
      </trkpt>
      <trkpt lat="45.8235" lon="1.85108">
        <ele>725.8</ele>
        <time>2026-07-09T08:29:26.000Z</time>
      </trkpt>
      <trkpt lat="45.8235" lon="1.85108">
        <ele>725.8</ele>
        <time>2026-07-09T08:29:27.000Z</time>
      </trkpt>
      <trkpt lat="45.8235" lon="1.85108">
        <ele>725.8</ele>
        <time>2026-07-09T08:29:28.000Z</time>
      </trkpt>
      <trkpt lat="45.8235" lon="1.85108">
        <ele>725.8</ele>
        <time>2026-07-09T08:29:29.000Z</time>
      </trkpt>
      <trkpt lat="45.8235" lon="1.85108">
        <ele>725.8</ele>
        <time>2026-07-09T08:29:30.000Z</time>
      </trkpt>
      <trkpt lat="45.8235" lon="1.85108">
        <ele>725.8</ele>
        <time>2026-07-09T08:29:31.000Z</time>
      </trkpt>
      <trkpt lat="45.8235" lon="1.85108">
        <ele>725.8</ele>
        <time>2026-07-09T08:29:32.000Z</time>
      </trkpt>
      <trkpt lat="45.8235" lon="1.85108">
        <ele>725.8</ele>
        <time>2026-07-09T08:29:33.000Z</time>
      </trkpt>
      <trkpt lat="45.8235" lon="1.85108">
        <ele>725.8</ele>
        <time>2026-07-09T08:29:34.000Z</time>
      </trkpt>
      <trkpt lat="45.8235" lon="1.85108">
        <ele>725.8</ele>
        <time>2026-07-09T08:29:35.000Z</time>
      </trkpt>
      <trkpt lat="45.8235" lon="1.85108">
        <ele>725.8</ele>
        <time>2026-07-09T08:29:36.000Z</time>
      </trkpt>
      <trkpt lat="45.8235" lon="1.85108">
        <ele>725.8</ele>
        <time>2026-07-09T08:29:37.000Z</time>
      </trkpt>
      <trkpt lat="45.8235" lon="1.85108">
        <ele>725.8</ele>
        <time>2026-07-09T08:29:38.000Z</time>
      </trkpt>
      <trkpt lat="45.8235" lon="1.85108">
        <ele>725.8</ele>
        <time>2026-07-09T08:29:39.000Z</time>
      </trkpt>
      <trkpt lat="45.8235" lon="1.85108">
        <ele>725.8</ele>
        <time>2026-07-09T08:29:40.000Z</time>
      </trkpt>
      <trkpt lat="45.8235" lon="1.85108">
        <ele>725.8</ele>
        <time>2026-07-09T08:29:41.000Z</time>
      </trkpt>
      <trkpt lat="45.8235" lon="1.85108">
        <ele>725.8</ele>
        <time>2026-07-09T08:29:42.000Z</time>
      </trkpt>
      <trkpt lat="45.8235" lon="1.85108">
        <ele>725.8</ele>
        <time>2026-07-09T08:29:43.000Z</time>
      </trkpt>
      <trkpt lat="45.8235" lon="1.85108">
        <ele>725.8</ele>
        <time>2026-07-09T08:29:44.000Z</time>
      </trkpt>
      <trkpt lat="45.8235" lon="1.85108">
        <ele>725.8</ele>
        <time>2026-07-09T08:29:45.000Z</time>
      </trkpt>
      <trkpt lat="45.8235" lon="1.85108">
        <ele>725.8</ele>
        <time>2026-07-09T08:29:46.000Z</time>
      </trkpt>
      <trkpt lat="45.8235" lon="1.85108">
        <ele>725.8</ele>
        <time>2026-07-09T08:29:47.000Z</time>
      </trkpt>
      <trkpt lat="45.8235" lon="1.85108">
        <ele>725.8</ele>
        <time>2026-07-09T08:29:48.000Z</time>
      </trkpt>
      <trkpt lat="45.8235" lon="1.85108">
        <ele>725.8</ele>
        <time>2026-07-09T08:29:49.000Z</time>
      </trkpt>
      <trkpt lat="45.8235" lon="1.85108">
        <ele>725.8</ele>
        <time>2026-07-09T08:29:50.000Z</time>
      </trkpt>
      <trkpt lat="45.8235" lon="1.85108">
        <ele>725.8</ele>
        <time>2026-07-09T08:29:51.000Z</time>
      </trkpt>
      <trkpt lat="45.8235" lon="1.85108">
        <ele>725.8</ele>
        <time>2026-07-09T08:29:52.000Z</time>
      </trkpt>
      <trkpt lat="45.8235" lon="1.85108">
        <ele>725.8</ele>
        <time>2026-07-09T08:29:53.000Z</time>
      </trkpt>
      <trkpt lat="45.8235" lon="1.85107">
        <ele>726</ele>
        <time>2026-07-09T08:29:54.000Z</time>
      </trkpt>
      <trkpt lat="45.8235" lon="1.85107">
        <ele>726.3</ele>
        <time>2026-07-09T08:29:55.000Z</time>
      </trkpt>
      <trkpt lat="45.8235" lon="1.85108">
        <ele>726.2</ele>
        <time>2026-07-09T08:29:56.000Z</time>
      </trkpt>
      <trkpt lat="45.8235" lon="1.85109">
        <ele>726.2</ele>
        <time>2026-07-09T08:29:57.000Z</time>
      </trkpt>
      <trkpt lat="45.8235" lon="1.85109">
        <ele>726.1</ele>
        <time>2026-07-09T08:29:58.000Z</time>
      </trkpt>
      <trkpt lat="45.8235" lon="1.8511">
        <ele>726.1</ele>
        <time>2026-07-09T08:29:59.000Z</time>
      </trkpt>
      <trkpt lat="45.8235" lon="1.8511">
        <ele>726.1</ele>
        <time>2026-07-09T08:30:00.000Z</time>
      </trkpt>
      <trkpt lat="45.8235" lon="1.8511">
        <ele>726.1</ele>
        <time>2026-07-09T08:30:01.000Z</time>
      </trkpt>
      <trkpt lat="45.8235" lon="1.8511">
        <ele>726.1</ele>
        <time>2026-07-09T08:30:02.000Z</time>
      </trkpt>
      <trkpt lat="45.8235" lon="1.8511">
        <ele>726.1</ele>
        <time>2026-07-09T08:30:03.000Z</time>
      </trkpt>
      <trkpt lat="45.8235" lon="1.8511">
        <ele>726.1</ele>
        <time>2026-07-09T08:30:04.000Z</time>
      </trkpt>
      <trkpt lat="45.8235" lon="1.8511">
        <ele>726.1</ele>
        <time>2026-07-09T08:30:05.000Z</time>
      </trkpt>
      <trkpt lat="45.8235" lon="1.8511">
        <ele>726.1</ele>
        <time>2026-07-09T08:30:06.000Z</time>
      </trkpt>
      <trkpt lat="45.8235" lon="1.8511">
        <ele>726.1</ele>
        <time>2026-07-09T08:30:07.000Z</time>
      </trkpt>
      <trkpt lat="45.8235" lon="1.8511">
        <ele>726.1</ele>
        <time>2026-07-09T08:30:08.000Z</time>
      </trkpt>
      <trkpt lat="45.8235" lon="1.8511">
        <ele>726.1</ele>
        <time>2026-07-09T08:30:09.000Z</time>
      </trkpt>
      <trkpt lat="45.8235" lon="1.8511">
        <ele>726.1</ele>
        <time>2026-07-09T08:30:10.000Z</time>
      </trkpt>
      <trkpt lat="45.8235" lon="1.8511">
        <ele>726.1</ele>
        <time>2026-07-09T08:30:11.000Z</time>
      </trkpt>
      <trkpt lat="45.8235" lon="1.8511">
        <ele>726.1</ele>
        <time>2026-07-09T08:30:12.000Z</time>
      </trkpt>
      <trkpt lat="45.8235" lon="1.8511">
        <ele>726.1</ele>
        <time>2026-07-09T08:30:13.000Z</time>
      </trkpt>
      <trkpt lat="45.8235" lon="1.8511">
        <ele>726.1</ele>
        <time>2026-07-09T08:30:14.000Z</time>
      </trkpt>
      <trkpt lat="45.8235" lon="1.8511">
        <ele>726.1</ele>
        <time>2026-07-09T08:30:15.000Z</time>
      </trkpt>
      <trkpt lat="45.8235" lon="1.8511">
        <ele>726.1</ele>
        <time>2026-07-09T08:30:16.000Z</time>
      </trkpt>
      <trkpt lat="45.8235" lon="1.8511">
        <ele>726.1</ele>
        <time>2026-07-09T08:30:17.000Z</time>
      </trkpt>
      <trkpt lat="45.8235" lon="1.8511">
        <ele>726.1</ele>
        <time>2026-07-09T08:30:18.000Z</time>
      </trkpt>
      <trkpt lat="45.8235" lon="1.8511">
        <ele>726.1</ele>
        <time>2026-07-09T08:30:19.000Z</time>
      </trkpt>
      <trkpt lat="45.8235" lon="1.85111">
        <ele>725.8</ele>
        <time>2026-07-09T08:30:20.000Z</time>
      </trkpt>
      <trkpt lat="45.8235" lon="1.85111">
        <ele>725.7</ele>
        <time>2026-07-09T08:30:21.000Z</time>
      </trkpt>
      <trkpt lat="45.8235" lon="1.85113">
        <ele>725.5</ele>
        <time>2026-07-09T08:30:22.000Z</time>
      </trkpt>
      <trkpt lat="45.8235" lon="1.85114">
        <ele>725.9</ele>
        <time>2026-07-09T08:30:23.000Z</time>
      </trkpt>
      <trkpt lat="45.8235" lon="1.85114">
        <ele>725.9</ele>
        <time>2026-07-09T08:30:24.000Z</time>
      </trkpt>
      <trkpt lat="45.8235" lon="1.85114">
        <ele>725.9</ele>
        <time>2026-07-09T08:30:25.000Z</time>
      </trkpt>
      <trkpt lat="45.8235" lon="1.85114">
        <ele>725.9</ele>
        <time>2026-07-09T08:30:26.000Z</time>
      </trkpt>
      <trkpt lat="45.8235" lon="1.85114">
        <ele>725.9</ele>
        <time>2026-07-09T08:30:27.000Z</time>
      </trkpt>
      <trkpt lat="45.8235" lon="1.85114">
        <ele>725.9</ele>
        <time>2026-07-09T08:30:28.000Z</time>
      </trkpt>
      <trkpt lat="45.8235" lon="1.85114">
        <ele>725.9</ele>
        <time>2026-07-09T08:30:29.000Z</time>
      </trkpt>
      <trkpt lat="45.8235" lon="1.85114">
        <ele>725.9</ele>
        <time>2026-07-09T08:30:30.000Z</time>
      </trkpt>
      <trkpt lat="45.8235" lon="1.85114">
        <ele>725.9</ele>
        <time>2026-07-09T08:30:31.000Z</time>
      </trkpt>
      <trkpt lat="45.8235" lon="1.85114">
        <ele>725.9</ele>
        <time>2026-07-09T08:30:32.000Z</time>
      </trkpt>
      <trkpt lat="45.8235" lon="1.85114">
        <ele>725.9</ele>
        <time>2026-07-09T08:30:33.000Z</time>
      </trkpt>
      <trkpt lat="45.8235" lon="1.85114">
        <ele>725.9</ele>
        <time>2026-07-09T08:30:34.000Z</time>
      </trkpt>
      <trkpt lat="45.8235" lon="1.85114">
        <ele>725.9</ele>
        <time>2026-07-09T08:30:35.000Z</time>
      </trkpt>
      <trkpt lat="45.8235" lon="1.85114">
        <ele>725.7</ele>
        <time>2026-07-09T08:30:36.000Z</time>
      </trkpt>
      <trkpt lat="45.8235" lon="1.85114">
        <ele>725.7</ele>
        <time>2026-07-09T08:30:37.000Z</time>
      </trkpt>
      <trkpt lat="45.8235" lon="1.85114">
        <ele>725.7</ele>
        <time>2026-07-09T08:30:38.000Z</time>
      </trkpt>
      <trkpt lat="45.8235" lon="1.85114">
        <ele>725.6</ele>
        <time>2026-07-09T08:30:39.000Z</time>
      </trkpt>
      <trkpt lat="45.8235" lon="1.85114">
        <ele>725.8</ele>
        <time>2026-07-09T08:30:40.000Z</time>
      </trkpt>
      <trkpt lat="45.8235" lon="1.85113">
        <ele>726</ele>
        <time>2026-07-09T08:30:41.000Z</time>
      </trkpt>
      <trkpt lat="45.8235" lon="1.85113">
        <ele>726.3</ele>
        <time>2026-07-09T08:30:42.000Z</time>
      </trkpt>
      <trkpt lat="45.8235" lon="1.85113">
        <ele>726.3</ele>
        <time>2026-07-09T08:30:43.000Z</time>
      </trkpt>
      <trkpt lat="45.8235" lon="1.85114">
        <ele>726.3</ele>
        <time>2026-07-09T08:30:44.000Z</time>
      </trkpt>
      <trkpt lat="45.8235" lon="1.85114">
        <ele>726.3</ele>
        <time>2026-07-09T08:30:45.000Z</time>
      </trkpt>
      <trkpt lat="45.8235" lon="1.85114">
        <ele>726.3</ele>
        <time>2026-07-09T08:30:46.000Z</time>
      </trkpt>
      <trkpt lat="45.8235" lon="1.85114">
        <ele>726.3</ele>
        <time>2026-07-09T08:30:47.000Z</time>
      </trkpt>
      <trkpt lat="45.8235" lon="1.85114">
        <ele>726.3</ele>
        <time>2026-07-09T08:30:48.000Z</time>
      </trkpt>
      <trkpt lat="45.8235" lon="1.85114">
        <ele>726.3</ele>
        <time>2026-07-09T08:30:49.000Z</time>
      </trkpt>
      <trkpt lat="45.8235" lon="1.85114">
        <ele>726.3</ele>
        <time>2026-07-09T08:30:50.000Z</time>
      </trkpt>
      <trkpt lat="45.8235" lon="1.85114">
        <ele>726.3</ele>
        <time>2026-07-09T08:30:51.000Z</time>
      </trkpt>
      <trkpt lat="45.8235" lon="1.85114">
        <ele>726.3</ele>
        <time>2026-07-09T08:30:52.000Z</time>
      </trkpt>
      <trkpt lat="45.8235" lon="1.85114">
        <ele>726.3</ele>
        <time>2026-07-09T08:30:53.000Z</time>
      </trkpt>
      <trkpt lat="45.8235" lon="1.85114">
        <ele>726.3</ele>
        <time>2026-07-09T08:30:54.000Z</time>
      </trkpt>
      <trkpt lat="45.8235" lon="1.85114">
        <ele>726.4</ele>
        <time>2026-07-09T08:30:55.000Z</time>
      </trkpt>
      <trkpt lat="45.8235" lon="1.85115">
        <ele>726.4</ele>
        <time>2026-07-09T08:30:56.000Z</time>
      </trkpt>
      <trkpt lat="45.82351" lon="1.85115">
        <ele>726.4</ele>
        <time>2026-07-09T08:30:57.000Z</time>
      </trkpt>
      <trkpt lat="45.82351" lon="1.85115">
        <ele>726.4</ele>
        <time>2026-07-09T08:30:58.000Z</time>
      </trkpt>
      <trkpt lat="45.82351" lon="1.85115">
        <ele>726.4</ele>
        <time>2026-07-09T08:30:59.000Z</time>
      </trkpt>
      <trkpt lat="45.82351" lon="1.85115">
        <ele>726.4</ele>
        <time>2026-07-09T08:31:00.000Z</time>
      </trkpt>
      <trkpt lat="45.82351" lon="1.85115">
        <ele>726.4</ele>
        <time>2026-07-09T08:31:01.000Z</time>
      </trkpt>
      <trkpt lat="45.82351" lon="1.85115">
        <ele>726.4</ele>
        <time>2026-07-09T08:31:02.000Z</time>
      </trkpt>
      <trkpt lat="45.8235" lon="1.85115">
        <ele>726.3</ele>
        <time>2026-07-09T08:31:03.000Z</time>
      </trkpt>
      <trkpt lat="45.8235" lon="1.85115">
        <ele>726.3</ele>
        <time>2026-07-09T08:31:04.000Z</time>
      </trkpt>
      <trkpt lat="45.8235" lon="1.85115">
        <ele>726.3</ele>
        <time>2026-07-09T08:31:05.000Z</time>
      </trkpt>
      <trkpt lat="45.8235" lon="1.85115">
        <ele>726.3</ele>
        <time>2026-07-09T08:31:06.000Z</time>
      </trkpt>
      <trkpt lat="45.8235" lon="1.85115">
        <ele>726.3</ele>
        <time>2026-07-09T08:31:07.000Z</time>
      </trkpt>
      <trkpt lat="45.8235" lon="1.85115">
        <ele>726.3</ele>
        <time>2026-07-09T08:31:08.000Z</time>
      </trkpt>
      <trkpt lat="45.8235" lon="1.85115">
        <ele>726.3</ele>
        <time>2026-07-09T08:31:09.000Z</time>
      </trkpt>
      <trkpt lat="45.8235" lon="1.85115">
        <ele>726.3</ele>
        <time>2026-07-09T08:31:10.000Z</time>
      </trkpt>
      <trkpt lat="45.8235" lon="1.85115">
        <ele>726.3</ele>
        <time>2026-07-09T08:31:11.000Z</time>
      </trkpt>
      <trkpt lat="45.8235" lon="1.85115">
        <ele>726.3</ele>
        <time>2026-07-09T08:31:12.000Z</time>
      </trkpt>
      <trkpt lat="45.8235" lon="1.85115">
        <ele>726.3</ele>
        <time>2026-07-09T08:31:13.000Z</time>
      </trkpt>
      <trkpt lat="45.8235" lon="1.85115">
        <ele>726.3</ele>
        <time>2026-07-09T08:31:14.000Z</time>
      </trkpt>
      <trkpt lat="45.8235" lon="1.85115">
        <ele>726.3</ele>
        <time>2026-07-09T08:31:15.000Z</time>
      </trkpt>
      <trkpt lat="45.8235" lon="1.85115">
        <ele>726.3</ele>
        <time>2026-07-09T08:31:16.000Z</time>
      </trkpt>
      <trkpt lat="45.8235" lon="1.85115">
        <ele>726.3</ele>
        <time>2026-07-09T08:31:17.000Z</time>
      </trkpt>
      <trkpt lat="45.8235" lon="1.85115">
        <ele>726.3</ele>
        <time>2026-07-09T08:31:18.000Z</time>
      </trkpt>
      <trkpt lat="45.8235" lon="1.85115">
        <ele>726.3</ele>
        <time>2026-07-09T08:31:19.000Z</time>
      </trkpt>
      <trkpt lat="45.8235" lon="1.85115">
        <ele>726.3</ele>
        <time>2026-07-09T08:31:20.000Z</time>
      </trkpt>
      <trkpt lat="45.8235" lon="1.85115">
        <ele>726.3</ele>
        <time>2026-07-09T08:31:21.000Z</time>
      </trkpt>
      <trkpt lat="45.8235" lon="1.85115">
        <ele>726.3</ele>
        <time>2026-07-09T08:31:22.000Z</time>
      </trkpt>
      <trkpt lat="45.8235" lon="1.85115">
        <ele>726.3</ele>
        <time>2026-07-09T08:31:23.000Z</time>
      </trkpt>
      <trkpt lat="45.8235" lon="1.85115">
        <ele>726.3</ele>
        <time>2026-07-09T08:31:24.000Z</time>
      </trkpt>
      <trkpt lat="45.8235" lon="1.85115">
        <ele>726.3</ele>
        <time>2026-07-09T08:31:25.000Z</time>
      </trkpt>
      <trkpt lat="45.8235" lon="1.85115">
        <ele>726.3</ele>
        <time>2026-07-09T08:31:26.000Z</time>
      </trkpt>
      <trkpt lat="45.8235" lon="1.85115">
        <ele>726.3</ele>
        <time>2026-07-09T08:31:27.000Z</time>
      </trkpt>
      <trkpt lat="45.8235" lon="1.85115">
        <ele>726.3</ele>
        <time>2026-07-09T08:31:28.000Z</time>
      </trkpt>
      <trkpt lat="45.8235" lon="1.85115">
        <ele>726.3</ele>
        <time>2026-07-09T08:31:29.000Z</time>
      </trkpt>
      <trkpt lat="45.8235" lon="1.85115">
        <ele>726.3</ele>
        <time>2026-07-09T08:31:30.000Z</time>
      </trkpt>
      <trkpt lat="45.8235" lon="1.85115">
        <ele>726.3</ele>
        <time>2026-07-09T08:31:31.000Z</time>
      </trkpt>
      <trkpt lat="45.8235" lon="1.85115">
        <ele>726.3</ele>
        <time>2026-07-09T08:31:32.000Z</time>
      </trkpt>
      <trkpt lat="45.8235" lon="1.85115">
        <ele>726.3</ele>
        <time>2026-07-09T08:31:33.000Z</time>
      </trkpt>
      <trkpt lat="45.8235" lon="1.85115">
        <ele>726.3</ele>
        <time>2026-07-09T08:31:34.000Z</time>
      </trkpt>
      <trkpt lat="45.8235" lon="1.85115">
        <ele>726.3</ele>
        <time>2026-07-09T08:31:35.000Z</time>
      </trkpt>
      <trkpt lat="45.8235" lon="1.85115">
        <ele>726.3</ele>
        <time>2026-07-09T08:31:36.000Z</time>
      </trkpt>
      <trkpt lat="45.8235" lon="1.85115">
        <ele>726.4</ele>
        <time>2026-07-09T08:31:37.000Z</time>
      </trkpt>
      <trkpt lat="45.8235" lon="1.85115">
        <ele>726.4</ele>
        <time>2026-07-09T08:31:38.000Z</time>
      </trkpt>
      <trkpt lat="45.8235" lon="1.85115">
        <ele>726.4</ele>
        <time>2026-07-09T08:31:39.000Z</time>
      </trkpt>
      <trkpt lat="45.8235" lon="1.85115">
        <ele>726.4</ele>
        <time>2026-07-09T08:31:40.000Z</time>
      </trkpt>
      <trkpt lat="45.8235" lon="1.85115">
        <ele>726.4</ele>
        <time>2026-07-09T08:31:41.000Z</time>
      </trkpt>
      <trkpt lat="45.8235" lon="1.85115">
        <ele>726.4</ele>
        <time>2026-07-09T08:31:42.000Z</time>
      </trkpt>
      <trkpt lat="45.8235" lon="1.85115">
        <ele>726.4</ele>
        <time>2026-07-09T08:31:43.000Z</time>
      </trkpt>
      <trkpt lat="45.8235" lon="1.85115">
        <ele>726.4</ele>
        <time>2026-07-09T08:31:44.000Z</time>
      </trkpt>
      <trkpt lat="45.8235" lon="1.85115">
        <ele>726.4</ele>
        <time>2026-07-09T08:31:45.000Z</time>
      </trkpt>
      <trkpt lat="45.8235" lon="1.85115">
        <ele>726.4</ele>
        <time>2026-07-09T08:31:46.000Z</time>
      </trkpt>
      <trkpt lat="45.8235" lon="1.85115">
        <ele>726.4</ele>
        <time>2026-07-09T08:31:47.000Z</time>
      </trkpt>
      <trkpt lat="45.8235" lon="1.85115">
        <ele>726.4</ele>
        <time>2026-07-09T08:31:48.000Z</time>
      </trkpt>
      <trkpt lat="45.8235" lon="1.85115">
        <ele>726.4</ele>
        <time>2026-07-09T08:31:49.000Z</time>
      </trkpt>
      <trkpt lat="45.8235" lon="1.85115">
        <ele>726.4</ele>
        <time>2026-07-09T08:31:50.000Z</time>
      </trkpt>
      <trkpt lat="45.8235" lon="1.85115">
        <ele>726.4</ele>
        <time>2026-07-09T08:31:51.000Z</time>
      </trkpt>
      <trkpt lat="45.8235" lon="1.85115">
        <ele>726.6</ele>
        <time>2026-07-09T08:31:52.000Z</time>
      </trkpt>
      <trkpt lat="45.8235" lon="1.85115">
        <ele>726.6</ele>
        <time>2026-07-09T08:31:53.000Z</time>
      </trkpt>
      <trkpt lat="45.8235" lon="1.85115">
        <ele>726.6</ele>
        <time>2026-07-09T08:31:54.000Z</time>
      </trkpt>
      <trkpt lat="45.8235" lon="1.85115">
        <ele>726.6</ele>
        <time>2026-07-09T08:31:55.000Z</time>
      </trkpt>
      <trkpt lat="45.8235" lon="1.85115">
        <ele>726.6</ele>
        <time>2026-07-09T08:31:56.000Z</time>
      </trkpt>
      <trkpt lat="45.8235" lon="1.85115">
        <ele>726.6</ele>
        <time>2026-07-09T08:31:57.000Z</time>
      </trkpt>
      <trkpt lat="45.8235" lon="1.85116">
        <ele>726.8</ele>
        <time>2026-07-09T08:31:58.000Z</time>
      </trkpt>
      <trkpt lat="45.82351" lon="1.85116">
        <ele>727</ele>
        <time>2026-07-09T08:31:59.000Z</time>
      </trkpt>
      <trkpt lat="45.82352" lon="1.85114">
        <ele>726.8</ele>
        <time>2026-07-09T08:32:00.000Z</time>
      </trkpt>
      <trkpt lat="45.82353" lon="1.85112">
        <ele>726.9</ele>
        <time>2026-07-09T08:32:01.000Z</time>
      </trkpt>
      <trkpt lat="45.82353" lon="1.85109">
        <ele>726.7</ele>
        <time>2026-07-09T08:32:02.000Z</time>
      </trkpt>
      <trkpt lat="45.82352" lon="1.85107">
        <ele>726.5</ele>
        <time>2026-07-09T08:32:03.000Z</time>
      </trkpt>
      <trkpt lat="45.82351" lon="1.85104">
        <ele>726.3</ele>
        <time>2026-07-09T08:32:04.000Z</time>
      </trkpt>
      <trkpt lat="45.82351" lon="1.85102">
        <ele>726.2</ele>
        <time>2026-07-09T08:32:05.000Z</time>
      </trkpt>
      <trkpt lat="45.8235" lon="1.85099">
        <ele>726.3</ele>
        <time>2026-07-09T08:32:06.000Z</time>
      </trkpt>
      <trkpt lat="45.82349" lon="1.85095">
        <ele>727.3</ele>
        <time>2026-07-09T08:32:07.000Z</time>
      </trkpt>
      <trkpt lat="45.82349" lon="1.85092">
        <ele>727.9</ele>
        <time>2026-07-09T08:32:08.000Z</time>
      </trkpt>
      <trkpt lat="45.82349" lon="1.85091">
        <ele>728.2</ele>
        <time>2026-07-09T08:32:09.000Z</time>
      </trkpt>
      <trkpt lat="45.82349" lon="1.85088">
        <ele>728.3</ele>
        <time>2026-07-09T08:32:10.000Z</time>
      </trkpt>
      <trkpt lat="45.82349" lon="1.85085">
        <ele>728.4</ele>
        <time>2026-07-09T08:32:11.000Z</time>
      </trkpt>
      <trkpt lat="45.82348" lon="1.85083">
        <ele>728.4</ele>
        <time>2026-07-09T08:32:12.000Z</time>
      </trkpt>
      <trkpt lat="45.82348" lon="1.8508">
        <ele>728.1</ele>
        <time>2026-07-09T08:32:13.000Z</time>
      </trkpt>
      <trkpt lat="45.82348" lon="1.85077">
        <ele>728.3</ele>
        <time>2026-07-09T08:32:14.000Z</time>
      </trkpt>
      <trkpt lat="45.82349" lon="1.85073">
        <ele>728.3</ele>
        <time>2026-07-09T08:32:15.000Z</time>
      </trkpt>
      <trkpt lat="45.82349" lon="1.8507">
        <ele>728</ele>
        <time>2026-07-09T08:32:16.000Z</time>
      </trkpt>
      <trkpt lat="45.82349" lon="1.85067">
        <ele>728</ele>
        <time>2026-07-09T08:32:17.000Z</time>
      </trkpt>
      <trkpt lat="45.82349" lon="1.85064">
        <ele>727.8</ele>
        <time>2026-07-09T08:32:18.000Z</time>
      </trkpt>
      <trkpt lat="45.82349" lon="1.85062">
        <ele>728</ele>
        <time>2026-07-09T08:32:19.000Z</time>
      </trkpt>
      <trkpt lat="45.82349" lon="1.85059">
        <ele>728.1</ele>
        <time>2026-07-09T08:32:20.000Z</time>
      </trkpt>
      <trkpt lat="45.82349" lon="1.85056">
        <ele>728.1</ele>
        <time>2026-07-09T08:32:21.000Z</time>
      </trkpt>
      <trkpt lat="45.82348" lon="1.85053">
        <ele>728.1</ele>
        <time>2026-07-09T08:32:22.000Z</time>
      </trkpt>
      <trkpt lat="45.82348" lon="1.8505">
        <ele>728.1</ele>
        <time>2026-07-09T08:32:23.000Z</time>
      </trkpt>
      <trkpt lat="45.82348" lon="1.85047">
        <ele>728.1</ele>
        <time>2026-07-09T08:32:24.000Z</time>
      </trkpt>
      <trkpt lat="45.82348" lon="1.85045">
        <ele>728</ele>
        <time>2026-07-09T08:32:25.000Z</time>
      </trkpt>
      <trkpt lat="45.82348" lon="1.85042">
        <ele>727.8</ele>
        <time>2026-07-09T08:32:26.000Z</time>
      </trkpt>
      <trkpt lat="45.82349" lon="1.85039">
        <ele>727.7</ele>
        <time>2026-07-09T08:32:27.000Z</time>
      </trkpt>
      <trkpt lat="45.82349" lon="1.85037">
        <ele>727.6</ele>
        <time>2026-07-09T08:32:28.000Z</time>
      </trkpt>
      <trkpt lat="45.82349" lon="1.85034">
        <ele>727.6</ele>
        <time>2026-07-09T08:32:29.000Z</time>
      </trkpt>
      <trkpt lat="45.82349" lon="1.85031">
        <ele>727.3</ele>
        <time>2026-07-09T08:32:30.000Z</time>
      </trkpt>
      <trkpt lat="45.82349" lon="1.85029">
        <ele>727.2</ele>
        <time>2026-07-09T08:32:31.000Z</time>
      </trkpt>
      <trkpt lat="45.82349" lon="1.85026">
        <ele>727.1</ele>
        <time>2026-07-09T08:32:32.000Z</time>
      </trkpt>
      <trkpt lat="45.82349" lon="1.85025">
        <ele>727</ele>
        <time>2026-07-09T08:32:33.000Z</time>
      </trkpt>
      <trkpt lat="45.82349" lon="1.85022">
        <ele>726.8</ele>
        <time>2026-07-09T08:32:34.000Z</time>
      </trkpt>
      <trkpt lat="45.82349" lon="1.8502">
        <ele>726.9</ele>
        <time>2026-07-09T08:32:35.000Z</time>
      </trkpt>
      <trkpt lat="45.82349" lon="1.85017">
        <ele>727</ele>
        <time>2026-07-09T08:32:36.000Z</time>
      </trkpt>
      <trkpt lat="45.82349" lon="1.85014">
        <ele>726.9</ele>
        <time>2026-07-09T08:32:37.000Z</time>
      </trkpt>
      <trkpt lat="45.8235" lon="1.85012">
        <ele>726.9</ele>
        <time>2026-07-09T08:32:38.000Z</time>
      </trkpt>
      <trkpt lat="45.8235" lon="1.85009">
        <ele>726.7</ele>
        <time>2026-07-09T08:32:39.000Z</time>
      </trkpt>
      <trkpt lat="45.8235" lon="1.85006">
        <ele>726.5</ele>
        <time>2026-07-09T08:32:40.000Z</time>
      </trkpt>
      <trkpt lat="45.8235" lon="1.85004">
        <ele>726.5</ele>
        <time>2026-07-09T08:32:41.000Z</time>
      </trkpt>
      <trkpt lat="45.8235" lon="1.85001">
        <ele>726.4</ele>
        <time>2026-07-09T08:32:42.000Z</time>
      </trkpt>
      <trkpt lat="45.8235" lon="1.84998">
        <ele>726.4</ele>
        <time>2026-07-09T08:32:43.000Z</time>
      </trkpt>
      <trkpt lat="45.8235" lon="1.84996">
        <ele>726.3</ele>
        <time>2026-07-09T08:32:44.000Z</time>
      </trkpt>
      <trkpt lat="45.8235" lon="1.84993">
        <ele>726</ele>
        <time>2026-07-09T08:32:45.000Z</time>
      </trkpt>
      <trkpt lat="45.8235" lon="1.8499">
        <ele>725.9</ele>
        <time>2026-07-09T08:32:46.000Z</time>
      </trkpt>
      <trkpt lat="45.8235" lon="1.84986">
        <ele>725.7</ele>
        <time>2026-07-09T08:32:47.000Z</time>
      </trkpt>
      <trkpt lat="45.8235" lon="1.84984">
        <ele>725.7</ele>
        <time>2026-07-09T08:32:48.000Z</time>
      </trkpt>
      <trkpt lat="45.8235" lon="1.84982">
        <ele>725.5</ele>
        <time>2026-07-09T08:32:49.000Z</time>
      </trkpt>
      <trkpt lat="45.8235" lon="1.84979">
        <ele>725.5</ele>
        <time>2026-07-09T08:32:50.000Z</time>
      </trkpt>
      <trkpt lat="45.82351" lon="1.84977">
        <ele>725.4</ele>
        <time>2026-07-09T08:32:51.000Z</time>
      </trkpt>
      <trkpt lat="45.82351" lon="1.84974">
        <ele>725.5</ele>
        <time>2026-07-09T08:32:52.000Z</time>
      </trkpt>
      <trkpt lat="45.82352" lon="1.84972">
        <ele>725.3</ele>
        <time>2026-07-09T08:32:53.000Z</time>
      </trkpt>
      <trkpt lat="45.82352" lon="1.84969">
        <ele>725.5</ele>
        <time>2026-07-09T08:32:54.000Z</time>
      </trkpt>
      <trkpt lat="45.82352" lon="1.84967">
        <ele>725.4</ele>
        <time>2026-07-09T08:32:55.000Z</time>
      </trkpt>
      <trkpt lat="45.82352" lon="1.84965">
        <ele>725.3</ele>
        <time>2026-07-09T08:32:56.000Z</time>
      </trkpt>
      <trkpt lat="45.82352" lon="1.84962">
        <ele>724.9</ele>
        <time>2026-07-09T08:32:57.000Z</time>
      </trkpt>
      <trkpt lat="45.82352" lon="1.8496">
        <ele>724.7</ele>
        <time>2026-07-09T08:32:58.000Z</time>
      </trkpt>
      <trkpt lat="45.82353" lon="1.84957">
        <ele>724.7</ele>
        <time>2026-07-09T08:32:59.000Z</time>
      </trkpt>
      <trkpt lat="45.82353" lon="1.84956">
        <ele>724.8</ele>
        <time>2026-07-09T08:33:00.000Z</time>
      </trkpt>
      <trkpt lat="45.82353" lon="1.84953">
        <ele>724.8</ele>
        <time>2026-07-09T08:33:01.000Z</time>
      </trkpt>
      <trkpt lat="45.82353" lon="1.8495">
        <ele>724.6</ele>
        <time>2026-07-09T08:33:02.000Z</time>
      </trkpt>
      <trkpt lat="45.82353" lon="1.84947">
        <ele>724.5</ele>
        <time>2026-07-09T08:33:03.000Z</time>
      </trkpt>
      <trkpt lat="45.82353" lon="1.84945">
        <ele>724.3</ele>
        <time>2026-07-09T08:33:04.000Z</time>
      </trkpt>
      <trkpt lat="45.82354" lon="1.84943">
        <ele>724.1</ele>
        <time>2026-07-09T08:33:05.000Z</time>
      </trkpt>
      <trkpt lat="45.82354" lon="1.84941">
        <ele>724.3</ele>
        <time>2026-07-09T08:33:06.000Z</time>
      </trkpt>
      <trkpt lat="45.82355" lon="1.84939">
        <ele>724.3</ele>
        <time>2026-07-09T08:33:07.000Z</time>
      </trkpt>
      <trkpt lat="45.82355" lon="1.84938">
        <ele>724.1</ele>
        <time>2026-07-09T08:33:08.000Z</time>
      </trkpt>
      <trkpt lat="45.82355" lon="1.84937">
        <ele>724.1</ele>
        <time>2026-07-09T08:33:09.000Z</time>
      </trkpt>
      <trkpt lat="45.82355" lon="1.84937">
        <ele>724.1</ele>
        <time>2026-07-09T08:33:10.000Z</time>
      </trkpt>
      <trkpt lat="45.82355" lon="1.84936">
        <ele>724.2</ele>
        <time>2026-07-09T08:33:11.000Z</time>
      </trkpt>
      <trkpt lat="45.82356" lon="1.84933">
        <ele>723.6</ele>
        <time>2026-07-09T08:33:12.000Z</time>
      </trkpt>
      <trkpt lat="45.82356" lon="1.8493">
        <ele>723.7</ele>
        <time>2026-07-09T08:33:13.000Z</time>
      </trkpt>
      <trkpt lat="45.82356" lon="1.84928">
        <ele>723.3</ele>
        <time>2026-07-09T08:33:14.000Z</time>
      </trkpt>
      <trkpt lat="45.82356" lon="1.84925">
        <ele>723.3</ele>
        <time>2026-07-09T08:33:15.000Z</time>
      </trkpt>
      <trkpt lat="45.82356" lon="1.84923">
        <ele>723.2</ele>
        <time>2026-07-09T08:33:16.000Z</time>
      </trkpt>
      <trkpt lat="45.82357" lon="1.8492">
        <ele>722.9</ele>
        <time>2026-07-09T08:33:17.000Z</time>
      </trkpt>
      <trkpt lat="45.82357" lon="1.84917">
        <ele>722.4</ele>
        <time>2026-07-09T08:33:18.000Z</time>
      </trkpt>
      <trkpt lat="45.82357" lon="1.84915">
        <ele>722.1</ele>
        <time>2026-07-09T08:33:19.000Z</time>
      </trkpt>
      <trkpt lat="45.82357" lon="1.84912">
        <ele>722</ele>
        <time>2026-07-09T08:33:20.000Z</time>
      </trkpt>
      <trkpt lat="45.82358" lon="1.84909">
        <ele>722</ele>
        <time>2026-07-09T08:33:21.000Z</time>
      </trkpt>
      <trkpt lat="45.82358" lon="1.84907">
        <ele>721.8</ele>
        <time>2026-07-09T08:33:22.000Z</time>
      </trkpt>
      <trkpt lat="45.82358" lon="1.84904">
        <ele>721.7</ele>
        <time>2026-07-09T08:33:23.000Z</time>
      </trkpt>
      <trkpt lat="45.82358" lon="1.84901">
        <ele>721.5</ele>
        <time>2026-07-09T08:33:24.000Z</time>
      </trkpt>
      <trkpt lat="45.82358" lon="1.84898">
        <ele>721.4</ele>
        <time>2026-07-09T08:33:25.000Z</time>
      </trkpt>
      <trkpt lat="45.82358" lon="1.84895">
        <ele>721</ele>
        <time>2026-07-09T08:33:26.000Z</time>
      </trkpt>
      <trkpt lat="45.82358" lon="1.84892">
        <ele>720.7</ele>
        <time>2026-07-09T08:33:27.000Z</time>
      </trkpt>
      <trkpt lat="45.82358" lon="1.8489">
        <ele>720.3</ele>
        <time>2026-07-09T08:33:28.000Z</time>
      </trkpt>
      <trkpt lat="45.82358" lon="1.84887">
        <ele>720.2</ele>
        <time>2026-07-09T08:33:29.000Z</time>
      </trkpt>
      <trkpt lat="45.82358" lon="1.84884">
        <ele>719.8</ele>
        <time>2026-07-09T08:33:30.000Z</time>
      </trkpt>
      <trkpt lat="45.82358" lon="1.84881">
        <ele>719.6</ele>
        <time>2026-07-09T08:33:31.000Z</time>
      </trkpt>
      <trkpt lat="45.82358" lon="1.84879">
        <ele>719.4</ele>
        <time>2026-07-09T08:33:32.000Z</time>
      </trkpt>
      <trkpt lat="45.82358" lon="1.84876">
        <ele>719.1</ele>
        <time>2026-07-09T08:33:33.000Z</time>
      </trkpt>
      <trkpt lat="45.82358" lon="1.84873">
        <ele>718.8</ele>
        <time>2026-07-09T08:33:34.000Z</time>
      </trkpt>
      <trkpt lat="45.82359" lon="1.8487">
        <ele>718.5</ele>
        <time>2026-07-09T08:33:35.000Z</time>
      </trkpt>
      <trkpt lat="45.82358" lon="1.84867">
        <ele>718.3</ele>
        <time>2026-07-09T08:33:36.000Z</time>
      </trkpt>
      <trkpt lat="45.82358" lon="1.84865">
        <ele>718.1</ele>
        <time>2026-07-09T08:33:37.000Z</time>
      </trkpt>
      <trkpt lat="45.82358" lon="1.84862">
        <ele>718</ele>
        <time>2026-07-09T08:33:38.000Z</time>
      </trkpt>
      <trkpt lat="45.82358" lon="1.8486">
        <ele>717.7</ele>
        <time>2026-07-09T08:33:39.000Z</time>
      </trkpt>
      <trkpt lat="45.82358" lon="1.84857">
        <ele>717.5</ele>
        <time>2026-07-09T08:33:40.000Z</time>
      </trkpt>
      <trkpt lat="45.82358" lon="1.84855">
        <ele>717.3</ele>
        <time>2026-07-09T08:33:41.000Z</time>
      </trkpt>
      <trkpt lat="45.82358" lon="1.84853">
        <ele>717.1</ele>
        <time>2026-07-09T08:33:42.000Z</time>
      </trkpt>
      <trkpt lat="45.82359" lon="1.84851">
        <ele>716.9</ele>
        <time>2026-07-09T08:33:43.000Z</time>
      </trkpt>
      <trkpt lat="45.82361" lon="1.84849">
        <ele>717</ele>
        <time>2026-07-09T08:33:44.000Z</time>
      </trkpt>
      <trkpt lat="45.82362" lon="1.84847">
        <ele>716.8</ele>
        <time>2026-07-09T08:33:45.000Z</time>
      </trkpt>
      <trkpt lat="45.82364" lon="1.84844">
        <ele>716.7</ele>
        <time>2026-07-09T08:33:46.000Z</time>
      </trkpt>
      <trkpt lat="45.82367" lon="1.84842">
        <ele>716.9</ele>
        <time>2026-07-09T08:33:47.000Z</time>
      </trkpt>
      <trkpt lat="45.82369" lon="1.84841">
        <ele>717.2</ele>
        <time>2026-07-09T08:33:48.000Z</time>
      </trkpt>
      <trkpt lat="45.82371" lon="1.84839">
        <ele>717.3</ele>
        <time>2026-07-09T08:33:49.000Z</time>
      </trkpt>
      <trkpt lat="45.82372" lon="1.84838">
        <ele>717.2</ele>
        <time>2026-07-09T08:33:50.000Z</time>
      </trkpt>
      <trkpt lat="45.82374" lon="1.84837">
        <ele>717.5</ele>
        <time>2026-07-09T08:33:51.000Z</time>
      </trkpt>
      <trkpt lat="45.82376" lon="1.84836">
        <ele>717.5</ele>
        <time>2026-07-09T08:33:52.000Z</time>
      </trkpt>
      <trkpt lat="45.82378" lon="1.84835">
        <ele>717</ele>
        <time>2026-07-09T08:33:53.000Z</time>
      </trkpt>
      <trkpt lat="45.8238" lon="1.84834">
        <ele>716.9</ele>
        <time>2026-07-09T08:33:54.000Z</time>
      </trkpt>
      <trkpt lat="45.82381" lon="1.84832">
        <ele>717</ele>
        <time>2026-07-09T08:33:55.000Z</time>
      </trkpt>
      <trkpt lat="45.82383" lon="1.84831">
        <ele>717</ele>
        <time>2026-07-09T08:33:56.000Z</time>
      </trkpt>
      <trkpt lat="45.82384" lon="1.84829">
        <ele>717.3</ele>
        <time>2026-07-09T08:33:57.000Z</time>
      </trkpt>
      <trkpt lat="45.82385" lon="1.84827">
        <ele>716.9</ele>
        <time>2026-07-09T08:33:58.000Z</time>
      </trkpt>
      <trkpt lat="45.82386" lon="1.84826">
        <ele>716.6</ele>
        <time>2026-07-09T08:33:59.000Z</time>
      </trkpt>
      <trkpt lat="45.82386" lon="1.84824">
        <ele>715.6</ele>
        <time>2026-07-09T08:34:00.000Z</time>
      </trkpt>
      <trkpt lat="45.82386" lon="1.84822">
        <ele>715.3</ele>
        <time>2026-07-09T08:34:01.000Z</time>
      </trkpt>
      <trkpt lat="45.82386" lon="1.84821">
        <ele>715.4</ele>
        <time>2026-07-09T08:34:02.000Z</time>
      </trkpt>
      <trkpt lat="45.82389" lon="1.84819">
        <ele>714.7</ele>
        <time>2026-07-09T08:34:03.000Z</time>
      </trkpt>
      <trkpt lat="45.82391" lon="1.84818">
        <ele>714.3</ele>
        <time>2026-07-09T08:34:04.000Z</time>
      </trkpt>
      <trkpt lat="45.82393" lon="1.84816">
        <ele>714</ele>
        <time>2026-07-09T08:34:05.000Z</time>
      </trkpt>
      <trkpt lat="45.82395" lon="1.84813">
        <ele>713.6</ele>
        <time>2026-07-09T08:34:06.000Z</time>
      </trkpt>
      <trkpt lat="45.82396" lon="1.8481">
        <ele>714.5</ele>
        <time>2026-07-09T08:34:07.000Z</time>
      </trkpt>
      <trkpt lat="45.82394" lon="1.84808">
        <ele>712.5</ele>
        <time>2026-07-09T08:34:08.000Z</time>
      </trkpt>
      <trkpt lat="45.82395" lon="1.84806">
        <ele>712.6</ele>
        <time>2026-07-09T08:34:09.000Z</time>
      </trkpt>
      <trkpt lat="45.82395" lon="1.84804">
        <ele>712.6</ele>
        <time>2026-07-09T08:34:10.000Z</time>
      </trkpt>
      <trkpt lat="45.82396" lon="1.84802">
        <ele>713</ele>
        <time>2026-07-09T08:34:11.000Z</time>
      </trkpt>
      <trkpt lat="45.82397" lon="1.84799">
        <ele>712.8</ele>
        <time>2026-07-09T08:34:12.000Z</time>
      </trkpt>
      <trkpt lat="45.82397" lon="1.84795">
        <ele>712.4</ele>
        <time>2026-07-09T08:34:13.000Z</time>
      </trkpt>
      <trkpt lat="45.82398" lon="1.84792">
        <ele>713.4</ele>
        <time>2026-07-09T08:34:14.000Z</time>
      </trkpt>
      <trkpt lat="45.82399" lon="1.8479">
        <ele>714</ele>
        <time>2026-07-09T08:34:15.000Z</time>
      </trkpt>
      <trkpt lat="45.82401" lon="1.84787">
        <ele>713.8</ele>
        <time>2026-07-09T08:34:16.000Z</time>
      </trkpt>
      <trkpt lat="45.82402" lon="1.84785">
        <ele>712.6</ele>
        <time>2026-07-09T08:34:17.000Z</time>
      </trkpt>
      <trkpt lat="45.82403" lon="1.84783">
        <ele>712.8</ele>
        <time>2026-07-09T08:34:18.000Z</time>
      </trkpt>
      <trkpt lat="45.82404" lon="1.84781">
        <ele>713</ele>
        <time>2026-07-09T08:34:19.000Z</time>
      </trkpt>
      <trkpt lat="45.82406" lon="1.84779">
        <ele>713.1</ele>
        <time>2026-07-09T08:34:20.000Z</time>
      </trkpt>
      <trkpt lat="45.82407" lon="1.84777">
        <ele>712.9</ele>
        <time>2026-07-09T08:34:21.000Z</time>
      </trkpt>
      <trkpt lat="45.82409" lon="1.84775">
        <ele>712.5</ele>
        <time>2026-07-09T08:34:22.000Z</time>
      </trkpt>
      <trkpt lat="45.8241" lon="1.84774">
        <ele>712</ele>
        <time>2026-07-09T08:34:23.000Z</time>
      </trkpt>
      <trkpt lat="45.82411" lon="1.84773">
        <ele>712.1</ele>
        <time>2026-07-09T08:34:24.000Z</time>
      </trkpt>
      <trkpt lat="45.82412" lon="1.84771">
        <ele>712.2</ele>
        <time>2026-07-09T08:34:25.000Z</time>
      </trkpt>
      <trkpt lat="45.82413" lon="1.84769">
        <ele>711.3</ele>
        <time>2026-07-09T08:34:26.000Z</time>
      </trkpt>
      <trkpt lat="45.82413" lon="1.84768">
        <ele>710.8</ele>
        <time>2026-07-09T08:34:27.000Z</time>
      </trkpt>
      <trkpt lat="45.82413" lon="1.84765">
        <ele>709.5</ele>
        <time>2026-07-09T08:34:28.000Z</time>
      </trkpt>
      <trkpt lat="45.82412" lon="1.84763">
        <ele>708.8</ele>
        <time>2026-07-09T08:34:29.000Z</time>
      </trkpt>
      <trkpt lat="45.8241" lon="1.84761">
        <ele>708.5</ele>
        <time>2026-07-09T08:34:30.000Z</time>
      </trkpt>
      <trkpt lat="45.82409" lon="1.84759">
        <ele>706.5</ele>
        <time>2026-07-09T08:34:31.000Z</time>
      </trkpt>
      <trkpt lat="45.82407" lon="1.84757">
        <ele>706.2</ele>
        <time>2026-07-09T08:34:32.000Z</time>
      </trkpt>
      <trkpt lat="45.82406" lon="1.84755">
        <ele>706</ele>
        <time>2026-07-09T08:34:33.000Z</time>
      </trkpt>
      <trkpt lat="45.82404" lon="1.84753">
        <ele>705.1</ele>
        <time>2026-07-09T08:34:34.000Z</time>
      </trkpt>
      <trkpt lat="45.82403" lon="1.84752">
        <ele>704.5</ele>
        <time>2026-07-09T08:34:35.000Z</time>
      </trkpt>
      <trkpt lat="45.82402" lon="1.8475">
        <ele>705.1</ele>
        <time>2026-07-09T08:34:36.000Z</time>
      </trkpt>
      <trkpt lat="45.82401" lon="1.84749">
        <ele>703.4</ele>
        <time>2026-07-09T08:34:37.000Z</time>
      </trkpt>
      <trkpt lat="45.824" lon="1.84749">
        <ele>703.5</ele>
        <time>2026-07-09T08:34:38.000Z</time>
      </trkpt>
      <trkpt lat="45.82399" lon="1.84747">
        <ele>704.1</ele>
        <time>2026-07-09T08:34:39.000Z</time>
      </trkpt>
      <trkpt lat="45.82398" lon="1.84746">
        <ele>703.5</ele>
        <time>2026-07-09T08:34:40.000Z</time>
      </trkpt>
      <trkpt lat="45.82397" lon="1.84745">
        <ele>702.2</ele>
        <time>2026-07-09T08:34:41.000Z</time>
      </trkpt>
      <trkpt lat="45.82396" lon="1.84742">
        <ele>701.5</ele>
        <time>2026-07-09T08:34:42.000Z</time>
      </trkpt>
      <trkpt lat="45.82396" lon="1.84741">
        <ele>700.9</ele>
        <time>2026-07-09T08:34:43.000Z</time>
      </trkpt>
      <trkpt lat="45.82396" lon="1.8474">
        <ele>701.4</ele>
        <time>2026-07-09T08:34:44.000Z</time>
      </trkpt>
      <trkpt lat="45.82396" lon="1.84739">
        <ele>700.5</ele>
        <time>2026-07-09T08:34:45.000Z</time>
      </trkpt>
      <trkpt lat="45.82396" lon="1.84738">
        <ele>700</ele>
        <time>2026-07-09T08:34:46.000Z</time>
      </trkpt>
      <trkpt lat="45.82396" lon="1.84737">
        <ele>699.6</ele>
        <time>2026-07-09T08:34:47.000Z</time>
      </trkpt>
      <trkpt lat="45.82396" lon="1.84735">
        <ele>698.9</ele>
        <time>2026-07-09T08:34:48.000Z</time>
      </trkpt>
      <trkpt lat="45.82396" lon="1.84734">
        <ele>698.4</ele>
        <time>2026-07-09T08:34:49.000Z</time>
      </trkpt>
      <trkpt lat="45.82396" lon="1.84733">
        <ele>698.4</ele>
        <time>2026-07-09T08:34:50.000Z</time>
      </trkpt>
      <trkpt lat="45.82396" lon="1.84731">
        <ele>698.7</ele>
        <time>2026-07-09T08:34:51.000Z</time>
      </trkpt>
      <trkpt lat="45.82396" lon="1.8473">
        <ele>699.4</ele>
        <time>2026-07-09T08:34:52.000Z</time>
      </trkpt>
      <trkpt lat="45.82396" lon="1.84728">
        <ele>698.6</ele>
        <time>2026-07-09T08:34:53.000Z</time>
      </trkpt>
      <trkpt lat="45.82396" lon="1.84726">
        <ele>698</ele>
        <time>2026-07-09T08:34:54.000Z</time>
      </trkpt>
      <trkpt lat="45.82396" lon="1.84723">
        <ele>697.2</ele>
        <time>2026-07-09T08:34:55.000Z</time>
      </trkpt>
      <trkpt lat="45.82396" lon="1.8472">
        <ele>697.3</ele>
        <time>2026-07-09T08:34:56.000Z</time>
      </trkpt>
      <trkpt lat="45.82396" lon="1.84716">
        <ele>697.6</ele>
        <time>2026-07-09T08:34:57.000Z</time>
      </trkpt>
      <trkpt lat="45.82397" lon="1.84713">
        <ele>696.9</ele>
        <time>2026-07-09T08:34:58.000Z</time>
      </trkpt>
      <trkpt lat="45.82398" lon="1.84709">
        <ele>696.4</ele>
        <time>2026-07-09T08:34:59.000Z</time>
      </trkpt>
      <trkpt lat="45.82399" lon="1.84706">
        <ele>696.7</ele>
        <time>2026-07-09T08:35:00.000Z</time>
      </trkpt>
      <trkpt lat="45.824" lon="1.84703">
        <ele>696.7</ele>
        <time>2026-07-09T08:35:01.000Z</time>
      </trkpt>
      <trkpt lat="45.824" lon="1.847">
        <ele>696.2</ele>
        <time>2026-07-09T08:35:02.000Z</time>
      </trkpt>
      <trkpt lat="45.82401" lon="1.84696">
        <ele>696.8</ele>
        <time>2026-07-09T08:35:03.000Z</time>
      </trkpt>
      <trkpt lat="45.82401" lon="1.84693">
        <ele>696.3</ele>
        <time>2026-07-09T08:35:04.000Z</time>
      </trkpt>
      <trkpt lat="45.82401" lon="1.8469">
        <ele>695.8</ele>
        <time>2026-07-09T08:35:05.000Z</time>
      </trkpt>
      <trkpt lat="45.82401" lon="1.84687">
        <ele>696.5</ele>
        <time>2026-07-09T08:35:06.000Z</time>
      </trkpt>
      <trkpt lat="45.82402" lon="1.84684">
        <ele>696.3</ele>
        <time>2026-07-09T08:35:07.000Z</time>
      </trkpt>
      <trkpt lat="45.82402" lon="1.84681">
        <ele>697.2</ele>
        <time>2026-07-09T08:35:08.000Z</time>
      </trkpt>
      <trkpt lat="45.82402" lon="1.84677">
        <ele>696.9</ele>
        <time>2026-07-09T08:35:09.000Z</time>
      </trkpt>
      <trkpt lat="45.82402" lon="1.84674">
        <ele>696.4</ele>
        <time>2026-07-09T08:35:10.000Z</time>
      </trkpt>
      <trkpt lat="45.82402" lon="1.84671">
        <ele>695.8</ele>
        <time>2026-07-09T08:35:11.000Z</time>
      </trkpt>
      <trkpt lat="45.82402" lon="1.84668">
        <ele>696.4</ele>
        <time>2026-07-09T08:35:12.000Z</time>
      </trkpt>
      <trkpt lat="45.82402" lon="1.84665">
        <ele>697</ele>
        <time>2026-07-09T08:35:13.000Z</time>
      </trkpt>
      <trkpt lat="45.82401" lon="1.84662">
        <ele>696.6</ele>
        <time>2026-07-09T08:35:14.000Z</time>
      </trkpt>
      <trkpt lat="45.82401" lon="1.84659">
        <ele>697.4</ele>
        <time>2026-07-09T08:35:15.000Z</time>
      </trkpt>
      <trkpt lat="45.82401" lon="1.84657">
        <ele>697.4</ele>
        <time>2026-07-09T08:35:16.000Z</time>
      </trkpt>
      <trkpt lat="45.82401" lon="1.84654">
        <ele>697.6</ele>
        <time>2026-07-09T08:35:17.000Z</time>
      </trkpt>
      <trkpt lat="45.82401" lon="1.84652">
        <ele>697.4</ele>
        <time>2026-07-09T08:35:18.000Z</time>
      </trkpt>
      <trkpt lat="45.824" lon="1.8465">
        <ele>697.9</ele>
        <time>2026-07-09T08:35:19.000Z</time>
      </trkpt>
      <trkpt lat="45.824" lon="1.84647">
        <ele>697.8</ele>
        <time>2026-07-09T08:35:20.000Z</time>
      </trkpt>
      <trkpt lat="45.82399" lon="1.84645">
        <ele>697.3</ele>
        <time>2026-07-09T08:35:21.000Z</time>
      </trkpt>
      <trkpt lat="45.82398" lon="1.84643">
        <ele>696.5</ele>
        <time>2026-07-09T08:35:22.000Z</time>
      </trkpt>
      <trkpt lat="45.82397" lon="1.8464">
        <ele>695.6</ele>
        <time>2026-07-09T08:35:23.000Z</time>
      </trkpt>
      <trkpt lat="45.82397" lon="1.84638">
        <ele>696.2</ele>
        <time>2026-07-09T08:35:24.000Z</time>
      </trkpt>
      <trkpt lat="45.82396" lon="1.84635">
        <ele>696.7</ele>
        <time>2026-07-09T08:35:25.000Z</time>
      </trkpt>
      <trkpt lat="45.82396" lon="1.84631">
        <ele>698.2</ele>
        <time>2026-07-09T08:35:26.000Z</time>
      </trkpt>
      <trkpt lat="45.82395" lon="1.84628">
        <ele>698.4</ele>
        <time>2026-07-09T08:35:27.000Z</time>
      </trkpt>
      <trkpt lat="45.82394" lon="1.84625">
        <ele>698.5</ele>
        <time>2026-07-09T08:35:28.000Z</time>
      </trkpt>
      <trkpt lat="45.82394" lon="1.84622">
        <ele>698.5</ele>
        <time>2026-07-09T08:35:29.000Z</time>
      </trkpt>
      <trkpt lat="45.82393" lon="1.84619">
        <ele>698.1</ele>
        <time>2026-07-09T08:35:30.000Z</time>
      </trkpt>
      <trkpt lat="45.82393" lon="1.84617">
        <ele>698</ele>
        <time>2026-07-09T08:35:31.000Z</time>
      </trkpt>
      <trkpt lat="45.82392" lon="1.84614">
        <ele>698</ele>
        <time>2026-07-09T08:35:32.000Z</time>
      </trkpt>
      <trkpt lat="45.82392" lon="1.84611">
        <ele>698.4</ele>
        <time>2026-07-09T08:35:33.000Z</time>
      </trkpt>
      <trkpt lat="45.82391" lon="1.84608">
        <ele>698.7</ele>
        <time>2026-07-09T08:35:34.000Z</time>
      </trkpt>
      <trkpt lat="45.8239" lon="1.84606">
        <ele>698.6</ele>
        <time>2026-07-09T08:35:35.000Z</time>
      </trkpt>
      <trkpt lat="45.82389" lon="1.84603">
        <ele>698.6</ele>
        <time>2026-07-09T08:35:36.000Z</time>
      </trkpt>
      <trkpt lat="45.82389" lon="1.84601">
        <ele>698.4</ele>
        <time>2026-07-09T08:35:37.000Z</time>
      </trkpt>
      <trkpt lat="45.82388" lon="1.84598">
        <ele>698.1</ele>
        <time>2026-07-09T08:35:38.000Z</time>
      </trkpt>
      <trkpt lat="45.82388" lon="1.84596">
        <ele>698</ele>
        <time>2026-07-09T08:35:39.000Z</time>
      </trkpt>
      <trkpt lat="45.82387" lon="1.84593">
        <ele>698.3</ele>
        <time>2026-07-09T08:35:40.000Z</time>
      </trkpt>
      <trkpt lat="45.82386" lon="1.84589">
        <ele>697.6</ele>
        <time>2026-07-09T08:35:41.000Z</time>
      </trkpt>
      <trkpt lat="45.82385" lon="1.84585">
        <ele>696.9</ele>
        <time>2026-07-09T08:35:42.000Z</time>
      </trkpt>
      <trkpt lat="45.82384" lon="1.84581">
        <ele>697.2</ele>
        <time>2026-07-09T08:35:43.000Z</time>
      </trkpt>
      <trkpt lat="45.82383" lon="1.84578">
        <ele>697.4</ele>
        <time>2026-07-09T08:35:44.000Z</time>
      </trkpt>
      <trkpt lat="45.82382" lon="1.84575">
        <ele>696.7</ele>
        <time>2026-07-09T08:35:45.000Z</time>
      </trkpt>
      <trkpt lat="45.82381" lon="1.84572">
        <ele>696.7</ele>
        <time>2026-07-09T08:35:46.000Z</time>
      </trkpt>
      <trkpt lat="45.82379" lon="1.84569">
        <ele>696.8</ele>
        <time>2026-07-09T08:35:47.000Z</time>
      </trkpt>
      <trkpt lat="45.82378" lon="1.84565">
        <ele>697.7</ele>
        <time>2026-07-09T08:35:48.000Z</time>
      </trkpt>
      <trkpt lat="45.82378" lon="1.84561">
        <ele>697.6</ele>
        <time>2026-07-09T08:35:49.000Z</time>
      </trkpt>
      <trkpt lat="45.82379" lon="1.84558">
        <ele>698.2</ele>
        <time>2026-07-09T08:35:50.000Z</time>
      </trkpt>
      <trkpt lat="45.8238" lon="1.84556">
        <ele>698.5</ele>
        <time>2026-07-09T08:35:51.000Z</time>
      </trkpt>
      <trkpt lat="45.82379" lon="1.84553">
        <ele>699.1</ele>
        <time>2026-07-09T08:35:52.000Z</time>
      </trkpt>
      <trkpt lat="45.82379" lon="1.8455">
        <ele>699</ele>
        <time>2026-07-09T08:35:53.000Z</time>
      </trkpt>
      <trkpt lat="45.82379" lon="1.84547">
        <ele>697.8</ele>
        <time>2026-07-09T08:35:54.000Z</time>
      </trkpt>
      <trkpt lat="45.82379" lon="1.84544">
        <ele>697.4</ele>
        <time>2026-07-09T08:35:55.000Z</time>
      </trkpt>
      <trkpt lat="45.8238" lon="1.84542">
        <ele>697.5</ele>
        <time>2026-07-09T08:35:56.000Z</time>
      </trkpt>
      <trkpt lat="45.8238" lon="1.8454">
        <ele>697.6</ele>
        <time>2026-07-09T08:35:57.000Z</time>
      </trkpt>
      <trkpt lat="45.8238" lon="1.84537">
        <ele>697.8</ele>
        <time>2026-07-09T08:35:58.000Z</time>
      </trkpt>
      <trkpt lat="45.82379" lon="1.84535">
        <ele>696.9</ele>
        <time>2026-07-09T08:35:59.000Z</time>
      </trkpt>
      <trkpt lat="45.82379" lon="1.84532">
        <ele>697.6</ele>
        <time>2026-07-09T08:36:00.000Z</time>
      </trkpt>
      <trkpt lat="45.82378" lon="1.84529">
        <ele>698.5</ele>
        <time>2026-07-09T08:36:01.000Z</time>
      </trkpt>
      <trkpt lat="45.82377" lon="1.84527">
        <ele>698.4</ele>
        <time>2026-07-09T08:36:02.000Z</time>
      </trkpt>
      <trkpt lat="45.82376" lon="1.84524">
        <ele>699.4</ele>
        <time>2026-07-09T08:36:03.000Z</time>
      </trkpt>
      <trkpt lat="45.82375" lon="1.84522">
        <ele>700.3</ele>
        <time>2026-07-09T08:36:04.000Z</time>
      </trkpt>
      <trkpt lat="45.82375" lon="1.84519">
        <ele>700.7</ele>
        <time>2026-07-09T08:36:05.000Z</time>
      </trkpt>
      <trkpt lat="45.82378" lon="1.84528">
        <ele>698.9</ele>
        <time>2026-07-09T08:36:06.000Z</time>
      </trkpt>
      <trkpt lat="45.82377" lon="1.84524">
        <ele>698.9</ele>
        <time>2026-07-09T08:36:07.000Z</time>
      </trkpt>
      <trkpt lat="45.82377" lon="1.84523">
        <ele>699.2</ele>
        <time>2026-07-09T08:36:08.000Z</time>
      </trkpt>
      <trkpt lat="45.82378" lon="1.8452">
        <ele>699.4</ele>
        <time>2026-07-09T08:36:09.000Z</time>
      </trkpt>
      <trkpt lat="45.82378" lon="1.84517">
        <ele>699.8</ele>
        <time>2026-07-09T08:36:10.000Z</time>
      </trkpt>
      <trkpt lat="45.82379" lon="1.84516">
        <ele>700.4</ele>
        <time>2026-07-09T08:36:11.000Z</time>
      </trkpt>
      <trkpt lat="45.8238" lon="1.84514">
        <ele>700.7</ele>
        <time>2026-07-09T08:36:12.000Z</time>
      </trkpt>
      <trkpt lat="45.82381" lon="1.84511">
        <ele>700.9</ele>
        <time>2026-07-09T08:36:13.000Z</time>
      </trkpt>
      <trkpt lat="45.82381" lon="1.84509">
        <ele>700.6</ele>
        <time>2026-07-09T08:36:14.000Z</time>
      </trkpt>
      <trkpt lat="45.82382" lon="1.84506">
        <ele>700.5</ele>
        <time>2026-07-09T08:36:15.000Z</time>
      </trkpt>
      <trkpt lat="45.82382" lon="1.84504">
        <ele>700.4</ele>
        <time>2026-07-09T08:36:16.000Z</time>
      </trkpt>
      <trkpt lat="45.82383" lon="1.84502">
        <ele>700.2</ele>
        <time>2026-07-09T08:36:17.000Z</time>
      </trkpt>
      <trkpt lat="45.82383" lon="1.845">
        <ele>700.4</ele>
        <time>2026-07-09T08:36:18.000Z</time>
      </trkpt>
      <trkpt lat="45.82384" lon="1.84499">
        <ele>701</ele>
        <time>2026-07-09T08:36:19.000Z</time>
      </trkpt>
      <trkpt lat="45.82385" lon="1.84498">
        <ele>701.4</ele>
        <time>2026-07-09T08:36:20.000Z</time>
      </trkpt>
      <trkpt lat="45.82387" lon="1.84496">
        <ele>701.7</ele>
        <time>2026-07-09T08:36:21.000Z</time>
      </trkpt>
      <trkpt lat="45.82387" lon="1.84494">
        <ele>701.4</ele>
        <time>2026-07-09T08:36:22.000Z</time>
      </trkpt>
      <trkpt lat="45.82387" lon="1.84492">
        <ele>701.4</ele>
        <time>2026-07-09T08:36:23.000Z</time>
      </trkpt>
      <trkpt lat="45.82386" lon="1.8449">
        <ele>701.4</ele>
        <time>2026-07-09T08:36:24.000Z</time>
      </trkpt>
      <trkpt lat="45.82385" lon="1.84489">
        <ele>701.2</ele>
        <time>2026-07-09T08:36:25.000Z</time>
      </trkpt>
      <trkpt lat="45.82384" lon="1.84487">
        <ele>701.1</ele>
        <time>2026-07-09T08:36:26.000Z</time>
      </trkpt>
      <trkpt lat="45.82384" lon="1.84486">
        <ele>701</ele>
        <time>2026-07-09T08:36:27.000Z</time>
      </trkpt>
      <trkpt lat="45.82383" lon="1.84485">
        <ele>701</ele>
        <time>2026-07-09T08:36:28.000Z</time>
      </trkpt>
      <trkpt lat="45.82383" lon="1.84485">
        <ele>700.9</ele>
        <time>2026-07-09T08:36:29.000Z</time>
      </trkpt>
      <trkpt lat="45.82383" lon="1.84485">
        <ele>700.9</ele>
        <time>2026-07-09T08:36:30.000Z</time>
      </trkpt>
      <trkpt lat="45.82383" lon="1.84483">
        <ele>701</ele>
        <time>2026-07-09T08:36:31.000Z</time>
      </trkpt>
      <trkpt lat="45.82382" lon="1.84481">
        <ele>699.9</ele>
        <time>2026-07-09T08:36:32.000Z</time>
      </trkpt>
      <trkpt lat="45.82379" lon="1.84481">
        <ele>699.8</ele>
        <time>2026-07-09T08:36:33.000Z</time>
      </trkpt>
      <trkpt lat="45.82378" lon="1.84482">
        <ele>699.6</ele>
        <time>2026-07-09T08:36:34.000Z</time>
      </trkpt>
      <trkpt lat="45.82377" lon="1.84482">
        <ele>697.4</ele>
        <time>2026-07-09T08:36:35.000Z</time>
      </trkpt>
      <trkpt lat="45.82376" lon="1.84481">
        <ele>696.6</ele>
        <time>2026-07-09T08:36:36.000Z</time>
      </trkpt>
      <trkpt lat="45.82376" lon="1.84481">
        <ele>696.9</ele>
        <time>2026-07-09T08:36:37.000Z</time>
      </trkpt>
      <trkpt lat="45.82376" lon="1.84481">
        <ele>697</ele>
        <time>2026-07-09T08:36:38.000Z</time>
      </trkpt>
      <trkpt lat="45.82376" lon="1.84482">
        <ele>697</ele>
        <time>2026-07-09T08:36:39.000Z</time>
      </trkpt>
      <trkpt lat="45.82376" lon="1.84482">
        <ele>697</ele>
        <time>2026-07-09T08:36:40.000Z</time>
      </trkpt>
      <trkpt lat="45.82376" lon="1.84482">
        <ele>697</ele>
        <time>2026-07-09T08:36:41.000Z</time>
      </trkpt>
      <trkpt lat="45.82376" lon="1.84482">
        <ele>697</ele>
        <time>2026-07-09T08:36:42.000Z</time>
      </trkpt>
      <trkpt lat="45.82376" lon="1.84482">
        <ele>697</ele>
        <time>2026-07-09T08:36:43.000Z</time>
      </trkpt>
      <trkpt lat="45.82376" lon="1.84482">
        <ele>697</ele>
        <time>2026-07-09T08:36:44.000Z</time>
      </trkpt>
      <trkpt lat="45.82376" lon="1.84482">
        <ele>697</ele>
        <time>2026-07-09T08:36:45.000Z</time>
      </trkpt>
      <trkpt lat="45.82376" lon="1.84482">
        <ele>697</ele>
        <time>2026-07-09T08:36:46.000Z</time>
      </trkpt>
      <trkpt lat="45.82376" lon="1.84481">
        <ele>697.2</ele>
        <time>2026-07-09T08:36:47.000Z</time>
      </trkpt>
      <trkpt lat="45.82377" lon="1.84481">
        <ele>696.8</ele>
        <time>2026-07-09T08:36:48.000Z</time>
      </trkpt>
      <trkpt lat="45.82374" lon="1.84481">
        <ele>696.7</ele>
        <time>2026-07-09T08:36:49.000Z</time>
      </trkpt>
      <trkpt lat="45.82374" lon="1.84481">
        <ele>697</ele>
        <time>2026-07-09T08:36:50.000Z</time>
      </trkpt>
      <trkpt lat="45.82373" lon="1.8448">
        <ele>697.1</ele>
        <time>2026-07-09T08:36:51.000Z</time>
      </trkpt>
      <trkpt lat="45.82373" lon="1.8448">
        <ele>697.8</ele>
        <time>2026-07-09T08:36:52.000Z</time>
      </trkpt>
      <trkpt lat="45.82373" lon="1.84481">
        <ele>698</ele>
        <time>2026-07-09T08:36:53.000Z</time>
      </trkpt>
      <trkpt lat="45.82374" lon="1.84481">
        <ele>698</ele>
        <time>2026-07-09T08:36:54.000Z</time>
      </trkpt>
      <trkpt lat="45.82374" lon="1.84481">
        <ele>698.1</ele>
        <time>2026-07-09T08:36:55.000Z</time>
      </trkpt>
      <trkpt lat="45.82374" lon="1.84481">
        <ele>698.4</ele>
        <time>2026-07-09T08:36:56.000Z</time>
      </trkpt>
      <trkpt lat="45.82374" lon="1.84482">
        <ele>699.1</ele>
        <time>2026-07-09T08:36:57.000Z</time>
      </trkpt>
      <trkpt lat="45.82374" lon="1.84482">
        <ele>700.6</ele>
        <time>2026-07-09T08:36:58.000Z</time>
      </trkpt>
      <trkpt lat="45.82374" lon="1.84482">
        <ele>701.5</ele>
        <time>2026-07-09T08:36:59.000Z</time>
      </trkpt>
      <trkpt lat="45.82374" lon="1.84483">
        <ele>701.5</ele>
        <time>2026-07-09T08:37:00.000Z</time>
      </trkpt>
      <trkpt lat="45.82374" lon="1.84483">
        <ele>701.5</ele>
        <time>2026-07-09T08:37:01.000Z</time>
      </trkpt>
      <trkpt lat="45.82375" lon="1.84483">
        <ele>702.4</ele>
        <time>2026-07-09T08:37:02.000Z</time>
      </trkpt>
      <trkpt lat="45.82375" lon="1.84482">
        <ele>702.4</ele>
        <time>2026-07-09T08:37:03.000Z</time>
      </trkpt>
      <trkpt lat="45.82375" lon="1.84482">
        <ele>702.4</ele>
        <time>2026-07-09T08:37:04.000Z</time>
      </trkpt>
      <trkpt lat="45.82375" lon="1.84482">
        <ele>702.3</ele>
        <time>2026-07-09T08:37:05.000Z</time>
      </trkpt>
      <trkpt lat="45.82373" lon="1.84486">
        <ele>702.2</ele>
        <time>2026-07-09T08:37:06.000Z</time>
      </trkpt>
      <trkpt lat="45.82372" lon="1.84487">
        <ele>702.2</ele>
        <time>2026-07-09T08:37:07.000Z</time>
      </trkpt>
      <trkpt lat="45.82373" lon="1.84486">
        <ele>701.9</ele>
        <time>2026-07-09T08:37:08.000Z</time>
      </trkpt>
      <trkpt lat="45.82373" lon="1.84485">
        <ele>701.5</ele>
        <time>2026-07-09T08:37:09.000Z</time>
      </trkpt>
      <trkpt lat="45.82374" lon="1.84483">
        <ele>701.4</ele>
        <time>2026-07-09T08:37:10.000Z</time>
      </trkpt>
      <trkpt lat="45.82374" lon="1.8448">
        <ele>701.1</ele>
        <time>2026-07-09T08:37:11.000Z</time>
      </trkpt>
      <trkpt lat="45.82375" lon="1.84477">
        <ele>700.3</ele>
        <time>2026-07-09T08:37:12.000Z</time>
      </trkpt>
      <trkpt lat="45.82373" lon="1.84475">
        <ele>699.5</ele>
        <time>2026-07-09T08:37:13.000Z</time>
      </trkpt>
      <trkpt lat="45.82374" lon="1.84472">
        <ele>699.3</ele>
        <time>2026-07-09T08:37:14.000Z</time>
      </trkpt>
      <trkpt lat="45.82375" lon="1.84469">
        <ele>699.1</ele>
        <time>2026-07-09T08:37:15.000Z</time>
      </trkpt>
      <trkpt lat="45.82375" lon="1.84467">
        <ele>699.2</ele>
        <time>2026-07-09T08:37:16.000Z</time>
      </trkpt>
      <trkpt lat="45.82376" lon="1.84464">
        <ele>699.5</ele>
        <time>2026-07-09T08:37:17.000Z</time>
      </trkpt>
      <trkpt lat="45.82377" lon="1.84462">
        <ele>700</ele>
        <time>2026-07-09T08:37:18.000Z</time>
      </trkpt>
      <trkpt lat="45.82378" lon="1.8446">
        <ele>700.1</ele>
        <time>2026-07-09T08:37:19.000Z</time>
      </trkpt>
      <trkpt lat="45.82379" lon="1.84458">
        <ele>700.1</ele>
        <time>2026-07-09T08:37:20.000Z</time>
      </trkpt>
      <trkpt lat="45.8238" lon="1.84456">
        <ele>700.4</ele>
        <time>2026-07-09T08:37:21.000Z</time>
      </trkpt>
      <trkpt lat="45.82381" lon="1.84453">
        <ele>700.2</ele>
        <time>2026-07-09T08:37:22.000Z</time>
      </trkpt>
      <trkpt lat="45.82382" lon="1.84451">
        <ele>700.4</ele>
        <time>2026-07-09T08:37:23.000Z</time>
      </trkpt>
      <trkpt lat="45.82383" lon="1.84449">
        <ele>699.9</ele>
        <time>2026-07-09T08:37:24.000Z</time>
      </trkpt>
      <trkpt lat="45.82383" lon="1.84447">
        <ele>700.6</ele>
        <time>2026-07-09T08:37:25.000Z</time>
      </trkpt>
      <trkpt lat="45.82383" lon="1.84445">
        <ele>700.5</ele>
        <time>2026-07-09T08:37:26.000Z</time>
      </trkpt>
      <trkpt lat="45.82383" lon="1.84443">
        <ele>700.1</ele>
        <time>2026-07-09T08:37:27.000Z</time>
      </trkpt>
      <trkpt lat="45.82383" lon="1.84441">
        <ele>700.2</ele>
        <time>2026-07-09T08:37:28.000Z</time>
      </trkpt>
      <trkpt lat="45.82383" lon="1.84439">
        <ele>699.9</ele>
        <time>2026-07-09T08:37:29.000Z</time>
      </trkpt>
      <trkpt lat="45.82383" lon="1.84437">
        <ele>699.9</ele>
        <time>2026-07-09T08:37:30.000Z</time>
      </trkpt>
      <trkpt lat="45.82383" lon="1.84435">
        <ele>699.5</ele>
        <time>2026-07-09T08:37:31.000Z</time>
      </trkpt>
      <trkpt lat="45.82383" lon="1.84434">
        <ele>699.7</ele>
        <time>2026-07-09T08:37:32.000Z</time>
      </trkpt>
      <trkpt lat="45.82382" lon="1.84432">
        <ele>699.9</ele>
        <time>2026-07-09T08:37:33.000Z</time>
      </trkpt>
      <trkpt lat="45.82381" lon="1.84431">
        <ele>698.7</ele>
        <time>2026-07-09T08:37:34.000Z</time>
      </trkpt>
      <trkpt lat="45.8238" lon="1.84431">
        <ele>697.8</ele>
        <time>2026-07-09T08:37:35.000Z</time>
      </trkpt>
      <trkpt lat="45.82379" lon="1.8443">
        <ele>696.9</ele>
        <time>2026-07-09T08:37:36.000Z</time>
      </trkpt>
      <trkpt lat="45.82378" lon="1.8443">
        <ele>695.3</ele>
        <time>2026-07-09T08:37:37.000Z</time>
      </trkpt>
      <trkpt lat="45.82376" lon="1.84429">
        <ele>694.3</ele>
        <time>2026-07-09T08:37:38.000Z</time>
      </trkpt>
      <trkpt lat="45.82375" lon="1.84429">
        <ele>694.3</ele>
        <time>2026-07-09T08:37:39.000Z</time>
      </trkpt>
      <trkpt lat="45.82374" lon="1.84429">
        <ele>693.1</ele>
        <time>2026-07-09T08:37:40.000Z</time>
      </trkpt>
      <trkpt lat="45.82372" lon="1.84429">
        <ele>693.2</ele>
        <time>2026-07-09T08:37:41.000Z</time>
      </trkpt>
      <trkpt lat="45.82371" lon="1.84428">
        <ele>693.4</ele>
        <time>2026-07-09T08:37:42.000Z</time>
      </trkpt>
      <trkpt lat="45.82369" lon="1.84428">
        <ele>692.9</ele>
        <time>2026-07-09T08:37:43.000Z</time>
      </trkpt>
      <trkpt lat="45.82368" lon="1.84427">
        <ele>692.8</ele>
        <time>2026-07-09T08:37:44.000Z</time>
      </trkpt>
      <trkpt lat="45.82366" lon="1.84427">
        <ele>693</ele>
        <time>2026-07-09T08:37:45.000Z</time>
      </trkpt>
      <trkpt lat="45.82365" lon="1.84427">
        <ele>693.2</ele>
        <time>2026-07-09T08:37:46.000Z</time>
      </trkpt>
      <trkpt lat="45.82363" lon="1.84427">
        <ele>693.8</ele>
        <time>2026-07-09T08:37:47.000Z</time>
      </trkpt>
      <trkpt lat="45.82361" lon="1.84427">
        <ele>694.2</ele>
        <time>2026-07-09T08:37:48.000Z</time>
      </trkpt>
      <trkpt lat="45.8236" lon="1.84427">
        <ele>694.6</ele>
        <time>2026-07-09T08:37:49.000Z</time>
      </trkpt>
      <trkpt lat="45.82358" lon="1.84427">
        <ele>695.3</ele>
        <time>2026-07-09T08:37:50.000Z</time>
      </trkpt>
      <trkpt lat="45.82357" lon="1.84428">
        <ele>695.7</ele>
        <time>2026-07-09T08:37:51.000Z</time>
      </trkpt>
      <trkpt lat="45.82355" lon="1.84428">
        <ele>695.3</ele>
        <time>2026-07-09T08:37:52.000Z</time>
      </trkpt>
      <trkpt lat="45.82354" lon="1.84428">
        <ele>694.9</ele>
        <time>2026-07-09T08:37:53.000Z</time>
      </trkpt>
      <trkpt lat="45.82352" lon="1.84428">
        <ele>694.9</ele>
        <time>2026-07-09T08:37:54.000Z</time>
      </trkpt>
      <trkpt lat="45.82351" lon="1.84429">
        <ele>694.8</ele>
        <time>2026-07-09T08:37:55.000Z</time>
      </trkpt>
      <trkpt lat="45.82349" lon="1.84429">
        <ele>694.3</ele>
        <time>2026-07-09T08:37:56.000Z</time>
      </trkpt>
      <trkpt lat="45.82348" lon="1.8443">
        <ele>694.3</ele>
        <time>2026-07-09T08:37:57.000Z</time>
      </trkpt>
      <trkpt lat="45.82347" lon="1.84431">
        <ele>694.2</ele>
        <time>2026-07-09T08:37:58.000Z</time>
      </trkpt>
      <trkpt lat="45.82345" lon="1.84432">
        <ele>693.1</ele>
        <time>2026-07-09T08:37:59.000Z</time>
      </trkpt>
      <trkpt lat="45.82344" lon="1.84432">
        <ele>692.4</ele>
        <time>2026-07-09T08:38:00.000Z</time>
      </trkpt>
      <trkpt lat="45.82343" lon="1.84433">
        <ele>692.7</ele>
        <time>2026-07-09T08:38:01.000Z</time>
      </trkpt>
      <trkpt lat="45.82342" lon="1.84434">
        <ele>693.1</ele>
        <time>2026-07-09T08:38:02.000Z</time>
      </trkpt>
      <trkpt lat="45.82341" lon="1.84434">
        <ele>693.1</ele>
        <time>2026-07-09T08:38:03.000Z</time>
      </trkpt>
      <trkpt lat="45.82339" lon="1.84434">
        <ele>692</ele>
        <time>2026-07-09T08:38:04.000Z</time>
      </trkpt>
      <trkpt lat="45.82338" lon="1.84434">
        <ele>692.3</ele>
        <time>2026-07-09T08:38:05.000Z</time>
      </trkpt>
      <trkpt lat="45.82336" lon="1.84435">
        <ele>693</ele>
        <time>2026-07-09T08:38:06.000Z</time>
      </trkpt>
      <trkpt lat="45.82335" lon="1.84435">
        <ele>692.7</ele>
        <time>2026-07-09T08:38:07.000Z</time>
      </trkpt>
      <trkpt lat="45.82333" lon="1.84435">
        <ele>693.1</ele>
        <time>2026-07-09T08:38:08.000Z</time>
      </trkpt>
      <trkpt lat="45.82331" lon="1.84434">
        <ele>692.6</ele>
        <time>2026-07-09T08:38:09.000Z</time>
      </trkpt>
      <trkpt lat="45.82329" lon="1.84434">
        <ele>693.2</ele>
        <time>2026-07-09T08:38:10.000Z</time>
      </trkpt>
      <trkpt lat="45.82328" lon="1.84434">
        <ele>692.6</ele>
        <time>2026-07-09T08:38:11.000Z</time>
      </trkpt>
      <trkpt lat="45.82327" lon="1.84434">
        <ele>692.5</ele>
        <time>2026-07-09T08:38:12.000Z</time>
      </trkpt>
      <trkpt lat="45.82326" lon="1.84435">
        <ele>693.2</ele>
        <time>2026-07-09T08:38:13.000Z</time>
      </trkpt>
      <trkpt lat="45.82324" lon="1.84435">
        <ele>693.4</ele>
        <time>2026-07-09T08:38:14.000Z</time>
      </trkpt>
      <trkpt lat="45.82323" lon="1.84436">
        <ele>693</ele>
        <time>2026-07-09T08:38:15.000Z</time>
      </trkpt>
      <trkpt lat="45.82321" lon="1.84436">
        <ele>693.3</ele>
        <time>2026-07-09T08:38:16.000Z</time>
      </trkpt>
      <trkpt lat="45.8232" lon="1.84435">
        <ele>692.4</ele>
        <time>2026-07-09T08:38:17.000Z</time>
      </trkpt>
      <trkpt lat="45.82319" lon="1.84435">
        <ele>692.5</ele>
        <time>2026-07-09T08:38:18.000Z</time>
      </trkpt>
      <trkpt lat="45.82317" lon="1.84436">
        <ele>692.7</ele>
        <time>2026-07-09T08:38:19.000Z</time>
      </trkpt>
      <trkpt lat="45.82315" lon="1.84437">
        <ele>693.1</ele>
        <time>2026-07-09T08:38:20.000Z</time>
      </trkpt>
      <trkpt lat="45.82314" lon="1.84437">
        <ele>693.5</ele>
        <time>2026-07-09T08:38:21.000Z</time>
      </trkpt>
      <trkpt lat="45.82313" lon="1.84438">
        <ele>693.3</ele>
        <time>2026-07-09T08:38:22.000Z</time>
      </trkpt>
      <trkpt lat="45.82311" lon="1.84439">
        <ele>692.7</ele>
        <time>2026-07-09T08:38:23.000Z</time>
      </trkpt>
      <trkpt lat="45.8231" lon="1.8444">
        <ele>692.9</ele>
        <time>2026-07-09T08:38:24.000Z</time>
      </trkpt>
      <trkpt lat="45.82308" lon="1.8444">
        <ele>692.4</ele>
        <time>2026-07-09T08:38:25.000Z</time>
      </trkpt>
      <trkpt lat="45.82307" lon="1.84441">
        <ele>692.5</ele>
        <time>2026-07-09T08:38:26.000Z</time>
      </trkpt>
      <trkpt lat="45.82305" lon="1.84441">
        <ele>691.8</ele>
        <time>2026-07-09T08:38:27.000Z</time>
      </trkpt>
      <trkpt lat="45.82304" lon="1.84441">
        <ele>691.7</ele>
        <time>2026-07-09T08:38:28.000Z</time>
      </trkpt>
      <trkpt lat="45.82302" lon="1.84441">
        <ele>691.5</ele>
        <time>2026-07-09T08:38:29.000Z</time>
      </trkpt>
      <trkpt lat="45.82301" lon="1.84442">
        <ele>692.1</ele>
        <time>2026-07-09T08:38:30.000Z</time>
      </trkpt>
      <trkpt lat="45.823" lon="1.84442">
        <ele>691.5</ele>
        <time>2026-07-09T08:38:31.000Z</time>
      </trkpt>
      <trkpt lat="45.82298" lon="1.84442">
        <ele>691.6</ele>
        <time>2026-07-09T08:38:32.000Z</time>
      </trkpt>
      <trkpt lat="45.82296" lon="1.84443">
        <ele>692.9</ele>
        <time>2026-07-09T08:38:33.000Z</time>
      </trkpt>
      <trkpt lat="45.82295" lon="1.84444">
        <ele>692.9</ele>
        <time>2026-07-09T08:38:34.000Z</time>
      </trkpt>
      <trkpt lat="45.82293" lon="1.84445">
        <ele>693.8</ele>
        <time>2026-07-09T08:38:35.000Z</time>
      </trkpt>
      <trkpt lat="45.82292" lon="1.84444">
        <ele>693.7</ele>
        <time>2026-07-09T08:38:36.000Z</time>
      </trkpt>
      <trkpt lat="45.8229" lon="1.84445">
        <ele>693.6</ele>
        <time>2026-07-09T08:38:37.000Z</time>
      </trkpt>
      <trkpt lat="45.82289" lon="1.84445">
        <ele>693.2</ele>
        <time>2026-07-09T08:38:38.000Z</time>
      </trkpt>
      <trkpt lat="45.82287" lon="1.84446">
        <ele>693.7</ele>
        <time>2026-07-09T08:38:39.000Z</time>
      </trkpt>
      <trkpt lat="45.82286" lon="1.84448">
        <ele>693.8</ele>
        <time>2026-07-09T08:38:40.000Z</time>
      </trkpt>
      <trkpt lat="45.82284" lon="1.8445">
        <ele>693.5</ele>
        <time>2026-07-09T08:38:41.000Z</time>
      </trkpt>
      <trkpt lat="45.82283" lon="1.84452">
        <ele>693.4</ele>
        <time>2026-07-09T08:38:42.000Z</time>
      </trkpt>
      <trkpt lat="45.82281" lon="1.84454">
        <ele>693</ele>
        <time>2026-07-09T08:38:43.000Z</time>
      </trkpt>
      <trkpt lat="45.8228" lon="1.84455">
        <ele>692.8</ele>
        <time>2026-07-09T08:38:44.000Z</time>
      </trkpt>
      <trkpt lat="45.82279" lon="1.84456">
        <ele>692.4</ele>
        <time>2026-07-09T08:38:45.000Z</time>
      </trkpt>
      <trkpt lat="45.82277" lon="1.84457">
        <ele>692.2</ele>
        <time>2026-07-09T08:38:46.000Z</time>
      </trkpt>
      <trkpt lat="45.82276" lon="1.84459">
        <ele>691.1</ele>
        <time>2026-07-09T08:38:47.000Z</time>
      </trkpt>
      <trkpt lat="45.82275" lon="1.84461">
        <ele>690.8</ele>
        <time>2026-07-09T08:38:48.000Z</time>
      </trkpt>
      <trkpt lat="45.82273" lon="1.84463">
        <ele>691.9</ele>
        <time>2026-07-09T08:38:49.000Z</time>
      </trkpt>
      <trkpt lat="45.82272" lon="1.84465">
        <ele>691.8</ele>
        <time>2026-07-09T08:38:50.000Z</time>
      </trkpt>
      <trkpt lat="45.8227" lon="1.84467">
        <ele>692.4</ele>
        <time>2026-07-09T08:38:51.000Z</time>
      </trkpt>
      <trkpt lat="45.82269" lon="1.84468">
        <ele>694.3</ele>
        <time>2026-07-09T08:38:52.000Z</time>
      </trkpt>
      <trkpt lat="45.82267" lon="1.84469">
        <ele>694.3</ele>
        <time>2026-07-09T08:38:53.000Z</time>
      </trkpt>
      <trkpt lat="45.82265" lon="1.8447">
        <ele>694.2</ele>
        <time>2026-07-09T08:38:54.000Z</time>
      </trkpt>
      <trkpt lat="45.82263" lon="1.84471">
        <ele>695.1</ele>
        <time>2026-07-09T08:38:55.000Z</time>
      </trkpt>
      <trkpt lat="45.82261" lon="1.84471">
        <ele>695</ele>
        <time>2026-07-09T08:38:56.000Z</time>
      </trkpt>
      <trkpt lat="45.82259" lon="1.84471">
        <ele>696.1</ele>
        <time>2026-07-09T08:38:57.000Z</time>
      </trkpt>
      <trkpt lat="45.82257" lon="1.84472">
        <ele>694.6</ele>
        <time>2026-07-09T08:38:58.000Z</time>
      </trkpt>
      <trkpt lat="45.82255" lon="1.84471">
        <ele>694.5</ele>
        <time>2026-07-09T08:38:59.000Z</time>
      </trkpt>
      <trkpt lat="45.82254" lon="1.84471">
        <ele>694.9</ele>
        <time>2026-07-09T08:39:00.000Z</time>
      </trkpt>
      <trkpt lat="45.82253" lon="1.8447">
        <ele>695</ele>
        <time>2026-07-09T08:39:01.000Z</time>
      </trkpt>
      <trkpt lat="45.82253" lon="1.8447">
        <ele>695.1</ele>
        <time>2026-07-09T08:39:02.000Z</time>
      </trkpt>
      <trkpt lat="45.82253" lon="1.8447">
        <ele>695.2</ele>
        <time>2026-07-09T08:39:03.000Z</time>
      </trkpt>
      <trkpt lat="45.82253" lon="1.8447">
        <ele>695.2</ele>
        <time>2026-07-09T08:39:04.000Z</time>
      </trkpt>
      <trkpt lat="45.82253" lon="1.8447">
        <ele>695.2</ele>
        <time>2026-07-09T08:39:05.000Z</time>
      </trkpt>
      <trkpt lat="45.82253" lon="1.8447">
        <ele>695.2</ele>
        <time>2026-07-09T08:39:06.000Z</time>
      </trkpt>
      <trkpt lat="45.82253" lon="1.8447">
        <ele>695.2</ele>
        <time>2026-07-09T08:39:07.000Z</time>
      </trkpt>
      <trkpt lat="45.82253" lon="1.8447">
        <ele>695.2</ele>
        <time>2026-07-09T08:39:08.000Z</time>
      </trkpt>
      <trkpt lat="45.82253" lon="1.8447">
        <ele>695.2</ele>
        <time>2026-07-09T08:39:09.000Z</time>
      </trkpt>
      <trkpt lat="45.82253" lon="1.8447">
        <ele>695.2</ele>
        <time>2026-07-09T08:39:10.000Z</time>
      </trkpt>
      <trkpt lat="45.82253" lon="1.8447">
        <ele>695.2</ele>
        <time>2026-07-09T08:39:11.000Z</time>
      </trkpt>
      <trkpt lat="45.82253" lon="1.8447">
        <ele>695.2</ele>
        <time>2026-07-09T08:39:12.000Z</time>
      </trkpt>
      <trkpt lat="45.82253" lon="1.8447">
        <ele>695.2</ele>
        <time>2026-07-09T08:39:13.000Z</time>
      </trkpt>
      <trkpt lat="45.82253" lon="1.8447">
        <ele>695.2</ele>
        <time>2026-07-09T08:39:14.000Z</time>
      </trkpt>
      <trkpt lat="45.82253" lon="1.8447">
        <ele>695.2</ele>
        <time>2026-07-09T08:39:15.000Z</time>
      </trkpt>
      <trkpt lat="45.82253" lon="1.8447">
        <ele>695.2</ele>
        <time>2026-07-09T08:39:16.000Z</time>
      </trkpt>
      <trkpt lat="45.82253" lon="1.8447">
        <ele>695.2</ele>
        <time>2026-07-09T08:39:17.000Z</time>
      </trkpt>
      <trkpt lat="45.82252" lon="1.8447">
        <ele>695.1</ele>
        <time>2026-07-09T08:39:18.000Z</time>
      </trkpt>
      <trkpt lat="45.82252" lon="1.84471">
        <ele>695.3</ele>
        <time>2026-07-09T08:39:19.000Z</time>
      </trkpt>
      <trkpt lat="45.82252" lon="1.84471">
        <ele>695.3</ele>
        <time>2026-07-09T08:39:20.000Z</time>
      </trkpt>
      <trkpt lat="45.82252" lon="1.84471">
        <ele>695.4</ele>
        <time>2026-07-09T08:39:21.000Z</time>
      </trkpt>
      <trkpt lat="45.82252" lon="1.84471">
        <ele>695.4</ele>
        <time>2026-07-09T08:39:22.000Z</time>
      </trkpt>
      <trkpt lat="45.82252" lon="1.84471">
        <ele>695.4</ele>
        <time>2026-07-09T08:39:23.000Z</time>
      </trkpt>
      <trkpt lat="45.82252" lon="1.84471">
        <ele>695.4</ele>
        <time>2026-07-09T08:39:24.000Z</time>
      </trkpt>
      <trkpt lat="45.82252" lon="1.84471">
        <ele>695.4</ele>
        <time>2026-07-09T08:39:25.000Z</time>
      </trkpt>
      <trkpt lat="45.82252" lon="1.84471">
        <ele>695.6</ele>
        <time>2026-07-09T08:39:26.000Z</time>
      </trkpt>
      <trkpt lat="45.82252" lon="1.84471">
        <ele>695.6</ele>
        <time>2026-07-09T08:39:27.000Z</time>
      </trkpt>
      <trkpt lat="45.82252" lon="1.84471">
        <ele>695.7</ele>
        <time>2026-07-09T08:39:28.000Z</time>
      </trkpt>
      <trkpt lat="45.82252" lon="1.84471">
        <ele>695.7</ele>
        <time>2026-07-09T08:39:29.000Z</time>
      </trkpt>
      <trkpt lat="45.82252" lon="1.84471">
        <ele>695.7</ele>
        <time>2026-07-09T08:39:30.000Z</time>
      </trkpt>
      <trkpt lat="45.82252" lon="1.84471">
        <ele>695.7</ele>
        <time>2026-07-09T08:39:31.000Z</time>
      </trkpt>
      <trkpt lat="45.82252" lon="1.84471">
        <ele>695.7</ele>
        <time>2026-07-09T08:39:32.000Z</time>
      </trkpt>
      <trkpt lat="45.82251" lon="1.8447">
        <ele>696.2</ele>
        <time>2026-07-09T08:39:33.000Z</time>
      </trkpt>
      <trkpt lat="45.8225" lon="1.8447">
        <ele>696.3</ele>
        <time>2026-07-09T08:39:34.000Z</time>
      </trkpt>
      <trkpt lat="45.8225" lon="1.8447">
        <ele>696.3</ele>
        <time>2026-07-09T08:39:35.000Z</time>
      </trkpt>
      <trkpt lat="45.8225" lon="1.8447">
        <ele>696.3</ele>
        <time>2026-07-09T08:39:36.000Z</time>
      </trkpt>
      <trkpt lat="45.8225" lon="1.8447">
        <ele>696.3</ele>
        <time>2026-07-09T08:39:37.000Z</time>
      </trkpt>
      <trkpt lat="45.8225" lon="1.8447">
        <ele>696.3</ele>
        <time>2026-07-09T08:39:38.000Z</time>
      </trkpt>
      <trkpt lat="45.8225" lon="1.8447">
        <ele>697.3</ele>
        <time>2026-07-09T08:39:39.000Z</time>
      </trkpt>
      <trkpt lat="45.8225" lon="1.8447">
        <ele>697.7</ele>
        <time>2026-07-09T08:39:40.000Z</time>
      </trkpt>
      <trkpt lat="45.8225" lon="1.84471">
        <ele>697.9</ele>
        <time>2026-07-09T08:39:41.000Z</time>
      </trkpt>
      <trkpt lat="45.8225" lon="1.84471">
        <ele>697.9</ele>
        <time>2026-07-09T08:39:42.000Z</time>
      </trkpt>
      <trkpt lat="45.8225" lon="1.84471">
        <ele>697.9</ele>
        <time>2026-07-09T08:39:43.000Z</time>
      </trkpt>
      <trkpt lat="45.8225" lon="1.84471">
        <ele>697.9</ele>
        <time>2026-07-09T08:39:44.000Z</time>
      </trkpt>
      <trkpt lat="45.8225" lon="1.84471">
        <ele>697.9</ele>
        <time>2026-07-09T08:39:45.000Z</time>
      </trkpt>
      <trkpt lat="45.8225" lon="1.84471">
        <ele>697.9</ele>
        <time>2026-07-09T08:39:46.000Z</time>
      </trkpt>
      <trkpt lat="45.8225" lon="1.84471">
        <ele>697.9</ele>
        <time>2026-07-09T08:39:47.000Z</time>
      </trkpt>
      <trkpt lat="45.8225" lon="1.84471">
        <ele>697.9</ele>
        <time>2026-07-09T08:39:48.000Z</time>
      </trkpt>
      <trkpt lat="45.8225" lon="1.84471">
        <ele>697.9</ele>
        <time>2026-07-09T08:39:49.000Z</time>
      </trkpt>
      <trkpt lat="45.8225" lon="1.84471">
        <ele>697.9</ele>
        <time>2026-07-09T08:39:50.000Z</time>
      </trkpt>
      <trkpt lat="45.8225" lon="1.84471">
        <ele>698</ele>
        <time>2026-07-09T08:39:51.000Z</time>
      </trkpt>
      <trkpt lat="45.8225" lon="1.8447">
        <ele>697.7</ele>
        <time>2026-07-09T08:39:52.000Z</time>
      </trkpt>
      <trkpt lat="45.8225" lon="1.8447">
        <ele>697.8</ele>
        <time>2026-07-09T08:39:53.000Z</time>
      </trkpt>
      <trkpt lat="45.8225" lon="1.8447">
        <ele>697.8</ele>
        <time>2026-07-09T08:39:54.000Z</time>
      </trkpt>
      <trkpt lat="45.8225" lon="1.8447">
        <ele>697.8</ele>
        <time>2026-07-09T08:39:55.000Z</time>
      </trkpt>
      <trkpt lat="45.8225" lon="1.8447">
        <ele>697.8</ele>
        <time>2026-07-09T08:39:56.000Z</time>
      </trkpt>
      <trkpt lat="45.8225" lon="1.8447">
        <ele>697.8</ele>
        <time>2026-07-09T08:39:57.000Z</time>
      </trkpt>
      <trkpt lat="45.8225" lon="1.8447">
        <ele>697.8</ele>
        <time>2026-07-09T08:39:58.000Z</time>
      </trkpt>
      <trkpt lat="45.8225" lon="1.8447">
        <ele>697.8</ele>
        <time>2026-07-09T08:39:59.000Z</time>
      </trkpt>
      <trkpt lat="45.8225" lon="1.8447">
        <ele>697.8</ele>
        <time>2026-07-09T08:40:00.000Z</time>
      </trkpt>
      <trkpt lat="45.8225" lon="1.8447">
        <ele>697.8</ele>
        <time>2026-07-09T08:40:01.000Z</time>
      </trkpt>
      <trkpt lat="45.8225" lon="1.8447">
        <ele>697.8</ele>
        <time>2026-07-09T08:40:02.000Z</time>
      </trkpt>
      <trkpt lat="45.8225" lon="1.8447">
        <ele>697.8</ele>
        <time>2026-07-09T08:40:03.000Z</time>
      </trkpt>
      <trkpt lat="45.8225" lon="1.8447">
        <ele>697.4</ele>
        <time>2026-07-09T08:40:04.000Z</time>
      </trkpt>
      <trkpt lat="45.8225" lon="1.8447">
        <ele>697.4</ele>
        <time>2026-07-09T08:40:05.000Z</time>
      </trkpt>
      <trkpt lat="45.8225" lon="1.8447">
        <ele>697.4</ele>
        <time>2026-07-09T08:40:06.000Z</time>
      </trkpt>
      <trkpt lat="45.8225" lon="1.8447">
        <ele>697.4</ele>
        <time>2026-07-09T08:40:07.000Z</time>
      </trkpt>
      <trkpt lat="45.8225" lon="1.8447">
        <ele>697.4</ele>
        <time>2026-07-09T08:40:08.000Z</time>
      </trkpt>
      <trkpt lat="45.8225" lon="1.8447">
        <ele>697.5</ele>
        <time>2026-07-09T08:40:09.000Z</time>
      </trkpt>
      <trkpt lat="45.8225" lon="1.84471">
        <ele>697.6</ele>
        <time>2026-07-09T08:40:10.000Z</time>
      </trkpt>
      <trkpt lat="45.82249" lon="1.84471">
        <ele>697.5</ele>
        <time>2026-07-09T08:40:11.000Z</time>
      </trkpt>
      <trkpt lat="45.82249" lon="1.84471">
        <ele>697.3</ele>
        <time>2026-07-09T08:40:12.000Z</time>
      </trkpt>
      <trkpt lat="45.82248" lon="1.84471">
        <ele>697.3</ele>
        <time>2026-07-09T08:40:13.000Z</time>
      </trkpt>
      <trkpt lat="45.82247" lon="1.84471">
        <ele>696.9</ele>
        <time>2026-07-09T08:40:14.000Z</time>
      </trkpt>
      <trkpt lat="45.82245" lon="1.84471">
        <ele>697.2</ele>
        <time>2026-07-09T08:40:15.000Z</time>
      </trkpt>
      <trkpt lat="45.82244" lon="1.84471">
        <ele>696.9</ele>
        <time>2026-07-09T08:40:16.000Z</time>
      </trkpt>
      <trkpt lat="45.82242" lon="1.84471">
        <ele>697</ele>
        <time>2026-07-09T08:40:17.000Z</time>
      </trkpt>
      <trkpt lat="45.8224" lon="1.8447">
        <ele>696.2</ele>
        <time>2026-07-09T08:40:18.000Z</time>
      </trkpt>
      <trkpt lat="45.82239" lon="1.8447">
        <ele>696.1</ele>
        <time>2026-07-09T08:40:19.000Z</time>
      </trkpt>
      <trkpt lat="45.82237" lon="1.84469">
        <ele>695.8</ele>
        <time>2026-07-09T08:40:20.000Z</time>
      </trkpt>
      <trkpt lat="45.82235" lon="1.84468">
        <ele>695.5</ele>
        <time>2026-07-09T08:40:21.000Z</time>
      </trkpt>
      <trkpt lat="45.82233" lon="1.84468">
        <ele>694.5</ele>
        <time>2026-07-09T08:40:22.000Z</time>
      </trkpt>
      <trkpt lat="45.82232" lon="1.84469">
        <ele>694.3</ele>
        <time>2026-07-09T08:40:23.000Z</time>
      </trkpt>
      <trkpt lat="45.8223" lon="1.84469">
        <ele>694.3</ele>
        <time>2026-07-09T08:40:24.000Z</time>
      </trkpt>
      <trkpt lat="45.82228" lon="1.84469">
        <ele>693.5</ele>
        <time>2026-07-09T08:40:25.000Z</time>
      </trkpt>
      <trkpt lat="45.82227" lon="1.84469">
        <ele>694.1</ele>
        <time>2026-07-09T08:40:26.000Z</time>
      </trkpt>
      <trkpt lat="45.82225" lon="1.84468">
        <ele>694.4</ele>
        <time>2026-07-09T08:40:27.000Z</time>
      </trkpt>
      <trkpt lat="45.82224" lon="1.84468">
        <ele>694.2</ele>
        <time>2026-07-09T08:40:28.000Z</time>
      </trkpt>
      <trkpt lat="45.82222" lon="1.84469">
        <ele>694.1</ele>
        <time>2026-07-09T08:40:29.000Z</time>
      </trkpt>
      <trkpt lat="45.82221" lon="1.84468">
        <ele>694.4</ele>
        <time>2026-07-09T08:40:30.000Z</time>
      </trkpt>
      <trkpt lat="45.82219" lon="1.84468">
        <ele>694.9</ele>
        <time>2026-07-09T08:40:31.000Z</time>
      </trkpt>
      <trkpt lat="45.82218" lon="1.84468">
        <ele>695</ele>
        <time>2026-07-09T08:40:32.000Z</time>
      </trkpt>
      <trkpt lat="45.82216" lon="1.84468">
        <ele>694.9</ele>
        <time>2026-07-09T08:40:33.000Z</time>
      </trkpt>
      <trkpt lat="45.82214" lon="1.84467">
        <ele>694.4</ele>
        <time>2026-07-09T08:40:34.000Z</time>
      </trkpt>
      <trkpt lat="45.82213" lon="1.84466">
        <ele>694.3</ele>
        <time>2026-07-09T08:40:35.000Z</time>
      </trkpt>
      <trkpt lat="45.82211" lon="1.84466">
        <ele>694.1</ele>
        <time>2026-07-09T08:40:36.000Z</time>
      </trkpt>
      <trkpt lat="45.8221" lon="1.84465">
        <ele>694.6</ele>
        <time>2026-07-09T08:40:37.000Z</time>
      </trkpt>
      <trkpt lat="45.82208" lon="1.84465">
        <ele>693.8</ele>
        <time>2026-07-09T08:40:38.000Z</time>
      </trkpt>
      <trkpt lat="45.82206" lon="1.84465">
        <ele>693.8</ele>
        <time>2026-07-09T08:40:39.000Z</time>
      </trkpt>
      <trkpt lat="45.82204" lon="1.84465">
        <ele>694.7</ele>
        <time>2026-07-09T08:40:40.000Z</time>
      </trkpt>
      <trkpt lat="45.82202" lon="1.84465">
        <ele>694.9</ele>
        <time>2026-07-09T08:40:41.000Z</time>
      </trkpt>
      <trkpt lat="45.822" lon="1.84465">
        <ele>694.1</ele>
        <time>2026-07-09T08:40:42.000Z</time>
      </trkpt>
      <trkpt lat="45.82199" lon="1.84465">
        <ele>694.2</ele>
        <time>2026-07-09T08:40:43.000Z</time>
      </trkpt>
      <trkpt lat="45.82197" lon="1.84465">
        <ele>693.3</ele>
        <time>2026-07-09T08:40:44.000Z</time>
      </trkpt>
      <trkpt lat="45.82195" lon="1.84464">
        <ele>693.9</ele>
        <time>2026-07-09T08:40:45.000Z</time>
      </trkpt>
      <trkpt lat="45.82194" lon="1.84464">
        <ele>693.8</ele>
        <time>2026-07-09T08:40:46.000Z</time>
      </trkpt>
      <trkpt lat="45.82192" lon="1.84464">
        <ele>693.7</ele>
        <time>2026-07-09T08:40:47.000Z</time>
      </trkpt>
      <trkpt lat="45.82191" lon="1.84464">
        <ele>693.6</ele>
        <time>2026-07-09T08:40:48.000Z</time>
      </trkpt>
      <trkpt lat="45.82189" lon="1.84463">
        <ele>693.6</ele>
        <time>2026-07-09T08:40:49.000Z</time>
      </trkpt>
      <trkpt lat="45.82188" lon="1.84463">
        <ele>694.3</ele>
        <time>2026-07-09T08:40:50.000Z</time>
      </trkpt>
      <trkpt lat="45.82187" lon="1.84463">
        <ele>694.3</ele>
        <time>2026-07-09T08:40:51.000Z</time>
      </trkpt>
      <trkpt lat="45.82185" lon="1.84463">
        <ele>694.4</ele>
        <time>2026-07-09T08:40:52.000Z</time>
      </trkpt>
      <trkpt lat="45.82183" lon="1.84464">
        <ele>695</ele>
        <time>2026-07-09T08:40:53.000Z</time>
      </trkpt>
      <trkpt lat="45.82181" lon="1.84464">
        <ele>693.9</ele>
        <time>2026-07-09T08:40:54.000Z</time>
      </trkpt>
      <trkpt lat="45.8218" lon="1.84464">
        <ele>693.4</ele>
        <time>2026-07-09T08:40:55.000Z</time>
      </trkpt>
      <trkpt lat="45.82178" lon="1.84464">
        <ele>692.3</ele>
        <time>2026-07-09T08:40:56.000Z</time>
      </trkpt>
      <trkpt lat="45.82176" lon="1.84463">
        <ele>691.1</ele>
        <time>2026-07-09T08:40:57.000Z</time>
      </trkpt>
      <trkpt lat="45.82174" lon="1.84462">
        <ele>691</ele>
        <time>2026-07-09T08:40:58.000Z</time>
      </trkpt>
      <trkpt lat="45.82172" lon="1.84462">
        <ele>690.2</ele>
        <time>2026-07-09T08:40:59.000Z</time>
      </trkpt>
      <trkpt lat="45.8217" lon="1.84461">
        <ele>690.4</ele>
        <time>2026-07-09T08:41:00.000Z</time>
      </trkpt>
      <trkpt lat="45.82169" lon="1.84461">
        <ele>691.5</ele>
        <time>2026-07-09T08:41:01.000Z</time>
      </trkpt>
      <trkpt lat="45.82167" lon="1.84461">
        <ele>692</ele>
        <time>2026-07-09T08:41:02.000Z</time>
      </trkpt>
      <trkpt lat="45.82165" lon="1.84462">
        <ele>692</ele>
        <time>2026-07-09T08:41:03.000Z</time>
      </trkpt>
      <trkpt lat="45.82163" lon="1.84462">
        <ele>691.8</ele>
        <time>2026-07-09T08:41:04.000Z</time>
      </trkpt>
      <trkpt lat="45.82161" lon="1.84462">
        <ele>691.8</ele>
        <time>2026-07-09T08:41:05.000Z</time>
      </trkpt>
      <trkpt lat="45.82159" lon="1.84461">
        <ele>691.8</ele>
        <time>2026-07-09T08:41:06.000Z</time>
      </trkpt>
      <trkpt lat="45.82158" lon="1.84461">
        <ele>691.3</ele>
        <time>2026-07-09T08:41:07.000Z</time>
      </trkpt>
      <trkpt lat="45.82158" lon="1.8446">
        <ele>691.3</ele>
        <time>2026-07-09T08:41:08.000Z</time>
      </trkpt>
      <trkpt lat="45.82155" lon="1.84459">
        <ele>692.2</ele>
        <time>2026-07-09T08:41:09.000Z</time>
      </trkpt>
      <trkpt lat="45.82153" lon="1.84459">
        <ele>693.2</ele>
        <time>2026-07-09T08:41:10.000Z</time>
      </trkpt>
      <trkpt lat="45.82151" lon="1.84458">
        <ele>692.6</ele>
        <time>2026-07-09T08:41:11.000Z</time>
      </trkpt>
      <trkpt lat="45.82149" lon="1.84458">
        <ele>691.9</ele>
        <time>2026-07-09T08:41:12.000Z</time>
      </trkpt>
      <trkpt lat="45.82147" lon="1.84457">
        <ele>691.9</ele>
        <time>2026-07-09T08:41:13.000Z</time>
      </trkpt>
      <trkpt lat="45.82146" lon="1.84457">
        <ele>691.7</ele>
        <time>2026-07-09T08:41:14.000Z</time>
      </trkpt>
      <trkpt lat="45.82145" lon="1.84456">
        <ele>691.5</ele>
        <time>2026-07-09T08:41:15.000Z</time>
      </trkpt>
      <trkpt lat="45.82144" lon="1.84456">
        <ele>692</ele>
        <time>2026-07-09T08:41:16.000Z</time>
      </trkpt>
      <trkpt lat="45.82142" lon="1.84455">
        <ele>693.1</ele>
        <time>2026-07-09T08:41:17.000Z</time>
      </trkpt>
      <trkpt lat="45.82141" lon="1.84454">
        <ele>693.7</ele>
        <time>2026-07-09T08:41:18.000Z</time>
      </trkpt>
      <trkpt lat="45.82139" lon="1.84454">
        <ele>693.9</ele>
        <time>2026-07-09T08:41:19.000Z</time>
      </trkpt>
      <trkpt lat="45.82138" lon="1.84454">
        <ele>693.8</ele>
        <time>2026-07-09T08:41:20.000Z</time>
      </trkpt>
      <trkpt lat="45.82136" lon="1.84453">
        <ele>693.6</ele>
        <time>2026-07-09T08:41:21.000Z</time>
      </trkpt>
      <trkpt lat="45.82135" lon="1.84453">
        <ele>693.8</ele>
        <time>2026-07-09T08:41:22.000Z</time>
      </trkpt>
      <trkpt lat="45.82133" lon="1.84452">
        <ele>694</ele>
        <time>2026-07-09T08:41:23.000Z</time>
      </trkpt>
      <trkpt lat="45.82131" lon="1.84451">
        <ele>694</ele>
        <time>2026-07-09T08:41:24.000Z</time>
      </trkpt>
      <trkpt lat="45.8213" lon="1.8445">
        <ele>693.8</ele>
        <time>2026-07-09T08:41:25.000Z</time>
      </trkpt>
      <trkpt lat="45.82128" lon="1.84449">
        <ele>695.3</ele>
        <time>2026-07-09T08:41:26.000Z</time>
      </trkpt>
      <trkpt lat="45.82126" lon="1.84447">
        <ele>694.9</ele>
        <time>2026-07-09T08:41:27.000Z</time>
      </trkpt>
      <trkpt lat="45.82125" lon="1.84446">
        <ele>694.6</ele>
        <time>2026-07-09T08:41:28.000Z</time>
      </trkpt>
      <trkpt lat="45.82124" lon="1.84445">
        <ele>693.3</ele>
        <time>2026-07-09T08:41:29.000Z</time>
      </trkpt>
      <trkpt lat="45.82123" lon="1.84444">
        <ele>693.9</ele>
        <time>2026-07-09T08:41:30.000Z</time>
      </trkpt>
      <trkpt lat="45.82121" lon="1.84443">
        <ele>693.7</ele>
        <time>2026-07-09T08:41:31.000Z</time>
      </trkpt>
      <trkpt lat="45.8212" lon="1.84442">
        <ele>695</ele>
        <time>2026-07-09T08:41:32.000Z</time>
      </trkpt>
      <trkpt lat="45.82118" lon="1.84441">
        <ele>695.7</ele>
        <time>2026-07-09T08:41:33.000Z</time>
      </trkpt>
      <trkpt lat="45.82117" lon="1.8444">
        <ele>695.8</ele>
        <time>2026-07-09T08:41:34.000Z</time>
      </trkpt>
      <trkpt lat="45.82116" lon="1.8444">
        <ele>694.7</ele>
        <time>2026-07-09T08:41:35.000Z</time>
      </trkpt>
      <trkpt lat="45.82114" lon="1.8444">
        <ele>693.3</ele>
        <time>2026-07-09T08:41:36.000Z</time>
      </trkpt>
      <trkpt lat="45.82113" lon="1.8444">
        <ele>692.6</ele>
        <time>2026-07-09T08:41:37.000Z</time>
      </trkpt>
      <trkpt lat="45.82111" lon="1.8444">
        <ele>692.5</ele>
        <time>2026-07-09T08:41:38.000Z</time>
      </trkpt>
      <trkpt lat="45.82109" lon="1.84439">
        <ele>691.4</ele>
        <time>2026-07-09T08:41:39.000Z</time>
      </trkpt>
      <trkpt lat="45.82108" lon="1.84439">
        <ele>691.4</ele>
        <time>2026-07-09T08:41:40.000Z</time>
      </trkpt>
      <trkpt lat="45.82106" lon="1.84439">
        <ele>690.9</ele>
        <time>2026-07-09T08:41:41.000Z</time>
      </trkpt>
      <trkpt lat="45.82105" lon="1.84439">
        <ele>691.3</ele>
        <time>2026-07-09T08:41:42.000Z</time>
      </trkpt>
      <trkpt lat="45.82103" lon="1.84439">
        <ele>691.9</ele>
        <time>2026-07-09T08:41:43.000Z</time>
      </trkpt>
      <trkpt lat="45.82102" lon="1.84439">
        <ele>690.3</ele>
        <time>2026-07-09T08:41:44.000Z</time>
      </trkpt>
      <trkpt lat="45.82099" lon="1.84438">
        <ele>691.4</ele>
        <time>2026-07-09T08:41:45.000Z</time>
      </trkpt>
      <trkpt lat="45.82096" lon="1.84438">
        <ele>691.4</ele>
        <time>2026-07-09T08:41:46.000Z</time>
      </trkpt>
      <trkpt lat="45.82093" lon="1.84438">
        <ele>690.8</ele>
        <time>2026-07-09T08:41:47.000Z</time>
      </trkpt>
      <trkpt lat="45.8209" lon="1.84437">
        <ele>690.1</ele>
        <time>2026-07-09T08:41:48.000Z</time>
      </trkpt>
      <trkpt lat="45.82087" lon="1.84436">
        <ele>689.3</ele>
        <time>2026-07-09T08:41:49.000Z</time>
      </trkpt>
      <trkpt lat="45.82084" lon="1.84436">
        <ele>688.6</ele>
        <time>2026-07-09T08:41:50.000Z</time>
      </trkpt>
      <trkpt lat="45.82081" lon="1.84436">
        <ele>688.7</ele>
        <time>2026-07-09T08:41:51.000Z</time>
      </trkpt>
      <trkpt lat="45.82078" lon="1.84435">
        <ele>691.5</ele>
        <time>2026-07-09T08:41:52.000Z</time>
      </trkpt>
      <trkpt lat="45.82076" lon="1.84435">
        <ele>691.5</ele>
        <time>2026-07-09T08:41:53.000Z</time>
      </trkpt>
      <trkpt lat="45.82074" lon="1.84435">
        <ele>692.6</ele>
        <time>2026-07-09T08:41:54.000Z</time>
      </trkpt>
      <trkpt lat="45.82071" lon="1.84434">
        <ele>693.8</ele>
        <time>2026-07-09T08:41:55.000Z</time>
      </trkpt>
      <trkpt lat="45.82068" lon="1.84433">
        <ele>694.7</ele>
        <time>2026-07-09T08:41:56.000Z</time>
      </trkpt>
      <trkpt lat="45.82065" lon="1.84432">
        <ele>693.5</ele>
        <time>2026-07-09T08:41:57.000Z</time>
      </trkpt>
      <trkpt lat="45.82062" lon="1.8443">
        <ele>694.5</ele>
        <time>2026-07-09T08:41:58.000Z</time>
      </trkpt>
      <trkpt lat="45.8206" lon="1.8443">
        <ele>695</ele>
        <time>2026-07-09T08:41:59.000Z</time>
      </trkpt>
      <trkpt lat="45.82057" lon="1.84429">
        <ele>695.7</ele>
        <time>2026-07-09T08:42:00.000Z</time>
      </trkpt>
      <trkpt lat="45.82054" lon="1.84429">
        <ele>696.7</ele>
        <time>2026-07-09T08:42:01.000Z</time>
      </trkpt>
      <trkpt lat="45.82051" lon="1.84429">
        <ele>696.7</ele>
        <time>2026-07-09T08:42:02.000Z</time>
      </trkpt>
      <trkpt lat="45.82048" lon="1.84428">
        <ele>696.4</ele>
        <time>2026-07-09T08:42:03.000Z</time>
      </trkpt>
      <trkpt lat="45.82045" lon="1.84427">
        <ele>694.7</ele>
        <time>2026-07-09T08:42:04.000Z</time>
      </trkpt>
      <trkpt lat="45.82042" lon="1.84427">
        <ele>694.1</ele>
        <time>2026-07-09T08:42:05.000Z</time>
      </trkpt>
      <trkpt lat="45.82039" lon="1.84427">
        <ele>694.6</ele>
        <time>2026-07-09T08:42:06.000Z</time>
      </trkpt>
      <trkpt lat="45.82038" lon="1.84427">
        <ele>694.7</ele>
        <time>2026-07-09T08:42:07.000Z</time>
      </trkpt>
      <trkpt lat="45.82037" lon="1.84428">
        <ele>694.5</ele>
        <time>2026-07-09T08:42:08.000Z</time>
      </trkpt>
      <trkpt lat="45.82035" lon="1.84427">
        <ele>693.6</ele>
        <time>2026-07-09T08:42:09.000Z</time>
      </trkpt>
      <trkpt lat="45.82033" lon="1.84427">
        <ele>694.4</ele>
        <time>2026-07-09T08:42:10.000Z</time>
      </trkpt>
      <trkpt lat="45.82031" lon="1.84428">
        <ele>694.8</ele>
        <time>2026-07-09T08:42:11.000Z</time>
      </trkpt>
      <trkpt lat="45.8203" lon="1.84429">
        <ele>694.7</ele>
        <time>2026-07-09T08:42:12.000Z</time>
      </trkpt>
      <trkpt lat="45.82029" lon="1.8443">
        <ele>694.5</ele>
        <time>2026-07-09T08:42:13.000Z</time>
      </trkpt>
      <trkpt lat="45.82028" lon="1.84431">
        <ele>694.5</ele>
        <time>2026-07-09T08:42:14.000Z</time>
      </trkpt>
      <trkpt lat="45.82025" lon="1.84432">
        <ele>696.4</ele>
        <time>2026-07-09T08:42:15.000Z</time>
      </trkpt>
      <trkpt lat="45.82023" lon="1.84433">
        <ele>696.8</ele>
        <time>2026-07-09T08:42:16.000Z</time>
      </trkpt>
      <trkpt lat="45.82022" lon="1.84434">
        <ele>697.1</ele>
        <time>2026-07-09T08:42:17.000Z</time>
      </trkpt>
      <trkpt lat="45.82019" lon="1.84436">
        <ele>697.5</ele>
        <time>2026-07-09T08:42:18.000Z</time>
      </trkpt>
      <trkpt lat="45.82018" lon="1.84437">
        <ele>697.3</ele>
        <time>2026-07-09T08:42:19.000Z</time>
      </trkpt>
      <trkpt lat="45.82016" lon="1.84439">
        <ele>697.8</ele>
        <time>2026-07-09T08:42:20.000Z</time>
      </trkpt>
      <trkpt lat="45.82014" lon="1.84441">
        <ele>698.4</ele>
        <time>2026-07-09T08:42:21.000Z</time>
      </trkpt>
      <trkpt lat="45.82013" lon="1.84442">
        <ele>698.3</ele>
        <time>2026-07-09T08:42:22.000Z</time>
      </trkpt>
      <trkpt lat="45.82011" lon="1.84443">
        <ele>697.8</ele>
        <time>2026-07-09T08:42:23.000Z</time>
      </trkpt>
      <trkpt lat="45.82009" lon="1.84444">
        <ele>698</ele>
        <time>2026-07-09T08:42:24.000Z</time>
      </trkpt>
      <trkpt lat="45.82008" lon="1.84445">
        <ele>698</ele>
        <time>2026-07-09T08:42:25.000Z</time>
      </trkpt>
      <trkpt lat="45.82006" lon="1.84445">
        <ele>698.6</ele>
        <time>2026-07-09T08:42:26.000Z</time>
      </trkpt>
      <trkpt lat="45.82004" lon="1.84445">
        <ele>699.1</ele>
        <time>2026-07-09T08:42:27.000Z</time>
      </trkpt>
      <trkpt lat="45.82002" lon="1.84442">
        <ele>699.1</ele>
        <time>2026-07-09T08:42:28.000Z</time>
      </trkpt>
      <trkpt lat="45.82001" lon="1.84445">
        <ele>697.4</ele>
        <time>2026-07-09T08:42:29.000Z</time>
      </trkpt>
      <trkpt lat="45.82" lon="1.84443">
        <ele>697.1</ele>
        <time>2026-07-09T08:42:30.000Z</time>
      </trkpt>
      <trkpt lat="45.81998" lon="1.84446">
        <ele>697</ele>
        <time>2026-07-09T08:42:31.000Z</time>
      </trkpt>
      <trkpt lat="45.81997" lon="1.84447">
        <ele>697.2</ele>
        <time>2026-07-09T08:42:32.000Z</time>
      </trkpt>
      <trkpt lat="45.81996" lon="1.84448">
        <ele>695.8</ele>
        <time>2026-07-09T08:42:33.000Z</time>
      </trkpt>
      <trkpt lat="45.81993" lon="1.84449">
        <ele>695.7</ele>
        <time>2026-07-09T08:42:34.000Z</time>
      </trkpt>
      <trkpt lat="45.81991" lon="1.84448">
        <ele>695.5</ele>
        <time>2026-07-09T08:42:35.000Z</time>
      </trkpt>
      <trkpt lat="45.81989" lon="1.84448">
        <ele>694.8</ele>
        <time>2026-07-09T08:42:36.000Z</time>
      </trkpt>
      <trkpt lat="45.81987" lon="1.84448">
        <ele>695.1</ele>
        <time>2026-07-09T08:42:37.000Z</time>
      </trkpt>
      <trkpt lat="45.81986" lon="1.84447">
        <ele>696.5</ele>
        <time>2026-07-09T08:42:38.000Z</time>
      </trkpt>
      <trkpt lat="45.81985" lon="1.84447">
        <ele>697.7</ele>
        <time>2026-07-09T08:42:39.000Z</time>
      </trkpt>
      <trkpt lat="45.81983" lon="1.84447">
        <ele>697.6</ele>
        <time>2026-07-09T08:42:40.000Z</time>
      </trkpt>
      <trkpt lat="45.81981" lon="1.84446">
        <ele>696.9</ele>
        <time>2026-07-09T08:42:41.000Z</time>
      </trkpt>
      <trkpt lat="45.8198" lon="1.84445">
        <ele>696.6</ele>
        <time>2026-07-09T08:42:42.000Z</time>
      </trkpt>
      <trkpt lat="45.81979" lon="1.84444">
        <ele>696.5</ele>
        <time>2026-07-09T08:42:43.000Z</time>
      </trkpt>
      <trkpt lat="45.81978" lon="1.84443">
        <ele>696.6</ele>
        <time>2026-07-09T08:42:44.000Z</time>
      </trkpt>
      <trkpt lat="45.81977" lon="1.84442">
        <ele>696.1</ele>
        <time>2026-07-09T08:42:45.000Z</time>
      </trkpt>
      <trkpt lat="45.81975" lon="1.84442">
        <ele>696.3</ele>
        <time>2026-07-09T08:42:46.000Z</time>
      </trkpt>
      <trkpt lat="45.81974" lon="1.84442">
        <ele>696.2</ele>
        <time>2026-07-09T08:42:47.000Z</time>
      </trkpt>
      <trkpt lat="45.81972" lon="1.84442">
        <ele>696.5</ele>
        <time>2026-07-09T08:42:48.000Z</time>
      </trkpt>
      <trkpt lat="45.8197" lon="1.84441">
        <ele>696.4</ele>
        <time>2026-07-09T08:42:49.000Z</time>
      </trkpt>
      <trkpt lat="45.81969" lon="1.8444">
        <ele>696.3</ele>
        <time>2026-07-09T08:42:50.000Z</time>
      </trkpt>
      <trkpt lat="45.81967" lon="1.84439">
        <ele>696</ele>
        <time>2026-07-09T08:42:51.000Z</time>
      </trkpt>
      <trkpt lat="45.81966" lon="1.84433">
        <ele>695.6</ele>
        <time>2026-07-09T08:42:52.000Z</time>
      </trkpt>
      <trkpt lat="45.81965" lon="1.84431">
        <ele>696</ele>
        <time>2026-07-09T08:42:53.000Z</time>
      </trkpt>
      <trkpt lat="45.81963" lon="1.84437">
        <ele>695.3</ele>
        <time>2026-07-09T08:42:54.000Z</time>
      </trkpt>
      <trkpt lat="45.81962" lon="1.84437">
        <ele>695.2</ele>
        <time>2026-07-09T08:42:55.000Z</time>
      </trkpt>
      <trkpt lat="45.81962" lon="1.84437">
        <ele>695.7</ele>
        <time>2026-07-09T08:42:56.000Z</time>
      </trkpt>
      <trkpt lat="45.81961" lon="1.84437">
        <ele>695.8</ele>
        <time>2026-07-09T08:42:57.000Z</time>
      </trkpt>
      <trkpt lat="45.81961" lon="1.84436">
        <ele>696.3</ele>
        <time>2026-07-09T08:42:58.000Z</time>
      </trkpt>
      <trkpt lat="45.8196" lon="1.84436">
        <ele>696.1</ele>
        <time>2026-07-09T08:42:59.000Z</time>
      </trkpt>
      <trkpt lat="45.81959" lon="1.84436">
        <ele>696.3</ele>
        <time>2026-07-09T08:43:00.000Z</time>
      </trkpt>
      <trkpt lat="45.81959" lon="1.84436">
        <ele>696.4</ele>
        <time>2026-07-09T08:43:01.000Z</time>
      </trkpt>
      <trkpt lat="45.81959" lon="1.84436">
        <ele>696.7</ele>
        <time>2026-07-09T08:43:02.000Z</time>
      </trkpt>
      <trkpt lat="45.81958" lon="1.84436">
        <ele>697.2</ele>
        <time>2026-07-09T08:43:03.000Z</time>
      </trkpt>
      <trkpt lat="45.81958" lon="1.84435">
        <ele>697.4</ele>
        <time>2026-07-09T08:43:04.000Z</time>
      </trkpt>
      <trkpt lat="45.81958" lon="1.84435">
        <ele>697.8</ele>
        <time>2026-07-09T08:43:05.000Z</time>
      </trkpt>
      <trkpt lat="45.81953" lon="1.84434">
        <ele>697.4</ele>
        <time>2026-07-09T08:43:06.000Z</time>
      </trkpt>
      <trkpt lat="45.81951" lon="1.84435">
        <ele>695.8</ele>
        <time>2026-07-09T08:43:07.000Z</time>
      </trkpt>
      <trkpt lat="45.81947" lon="1.84433">
        <ele>695.2</ele>
        <time>2026-07-09T08:43:08.000Z</time>
      </trkpt>
      <trkpt lat="45.81945" lon="1.84433">
        <ele>696.3</ele>
        <time>2026-07-09T08:43:09.000Z</time>
      </trkpt>
      <trkpt lat="45.81942" lon="1.84432">
        <ele>695.8</ele>
        <time>2026-07-09T08:43:10.000Z</time>
      </trkpt>
      <trkpt lat="45.81939" lon="1.84432">
        <ele>695.9</ele>
        <time>2026-07-09T08:43:11.000Z</time>
      </trkpt>
      <trkpt lat="45.81938" lon="1.84431">
        <ele>696.3</ele>
        <time>2026-07-09T08:43:12.000Z</time>
      </trkpt>
      <trkpt lat="45.81936" lon="1.8443">
        <ele>696.3</ele>
        <time>2026-07-09T08:43:13.000Z</time>
      </trkpt>
      <trkpt lat="45.81934" lon="1.8443">
        <ele>696.1</ele>
        <time>2026-07-09T08:43:14.000Z</time>
      </trkpt>
      <trkpt lat="45.81931" lon="1.84428">
        <ele>696.9</ele>
        <time>2026-07-09T08:43:15.000Z</time>
      </trkpt>
      <trkpt lat="45.81929" lon="1.84428">
        <ele>697</ele>
        <time>2026-07-09T08:43:16.000Z</time>
      </trkpt>
      <trkpt lat="45.81927" lon="1.84426">
        <ele>697</ele>
        <time>2026-07-09T08:43:17.000Z</time>
      </trkpt>
      <trkpt lat="45.81924" lon="1.84425">
        <ele>696.7</ele>
        <time>2026-07-09T08:43:18.000Z</time>
      </trkpt>
      <trkpt lat="45.81922" lon="1.84423">
        <ele>695.8</ele>
        <time>2026-07-09T08:43:19.000Z</time>
      </trkpt>
      <trkpt lat="45.8192" lon="1.84422">
        <ele>696.6</ele>
        <time>2026-07-09T08:43:20.000Z</time>
      </trkpt>
      <trkpt lat="45.81918" lon="1.84422">
        <ele>696.2</ele>
        <time>2026-07-09T08:43:21.000Z</time>
      </trkpt>
      <trkpt lat="45.81917" lon="1.84422">
        <ele>696.5</ele>
        <time>2026-07-09T08:43:22.000Z</time>
      </trkpt>
      <trkpt lat="45.81915" lon="1.84421">
        <ele>696.6</ele>
        <time>2026-07-09T08:43:23.000Z</time>
      </trkpt>
      <trkpt lat="45.81914" lon="1.84421">
        <ele>695.5</ele>
        <time>2026-07-09T08:43:24.000Z</time>
      </trkpt>
      <trkpt lat="45.81913" lon="1.8442">
        <ele>696</ele>
        <time>2026-07-09T08:43:25.000Z</time>
      </trkpt>
      <trkpt lat="45.81911" lon="1.84418">
        <ele>696.4</ele>
        <time>2026-07-09T08:43:26.000Z</time>
      </trkpt>
      <trkpt lat="45.81909" lon="1.84416">
        <ele>695.6</ele>
        <time>2026-07-09T08:43:27.000Z</time>
      </trkpt>
      <trkpt lat="45.81907" lon="1.84415">
        <ele>695.1</ele>
        <time>2026-07-09T08:43:28.000Z</time>
      </trkpt>
      <trkpt lat="45.81905" lon="1.84413">
        <ele>694.1</ele>
        <time>2026-07-09T08:43:29.000Z</time>
      </trkpt>
      <trkpt lat="45.81903" lon="1.84413">
        <ele>693.5</ele>
        <time>2026-07-09T08:43:30.000Z</time>
      </trkpt>
      <trkpt lat="45.81901" lon="1.84412">
        <ele>693.6</ele>
        <time>2026-07-09T08:43:31.000Z</time>
      </trkpt>
      <trkpt lat="45.819" lon="1.84411">
        <ele>692.6</ele>
        <time>2026-07-09T08:43:32.000Z</time>
      </trkpt>
      <trkpt lat="45.81898" lon="1.84411">
        <ele>692.2</ele>
        <time>2026-07-09T08:43:33.000Z</time>
      </trkpt>
      <trkpt lat="45.81897" lon="1.84411">
        <ele>691.8</ele>
        <time>2026-07-09T08:43:34.000Z</time>
      </trkpt>
      <trkpt lat="45.81895" lon="1.84411">
        <ele>691.6</ele>
        <time>2026-07-09T08:43:35.000Z</time>
      </trkpt>
      <trkpt lat="45.81894" lon="1.84412">
        <ele>691.7</ele>
        <time>2026-07-09T08:43:36.000Z</time>
      </trkpt>
      <trkpt lat="45.81893" lon="1.84412">
        <ele>691.3</ele>
        <time>2026-07-09T08:43:37.000Z</time>
      </trkpt>
      <trkpt lat="45.81891" lon="1.84411">
        <ele>691.9</ele>
        <time>2026-07-09T08:43:38.000Z</time>
      </trkpt>
      <trkpt lat="45.81889" lon="1.84411">
        <ele>692.4</ele>
        <time>2026-07-09T08:43:39.000Z</time>
      </trkpt>
      <trkpt lat="45.81887" lon="1.8441">
        <ele>692.8</ele>
        <time>2026-07-09T08:43:40.000Z</time>
      </trkpt>
      <trkpt lat="45.81885" lon="1.84408">
        <ele>692.5</ele>
        <time>2026-07-09T08:43:41.000Z</time>
      </trkpt>
      <trkpt lat="45.81883" lon="1.84407">
        <ele>691</ele>
        <time>2026-07-09T08:43:42.000Z</time>
      </trkpt>
      <trkpt lat="45.81882" lon="1.84406">
        <ele>690.7</ele>
        <time>2026-07-09T08:43:43.000Z</time>
      </trkpt>
      <trkpt lat="45.8188" lon="1.84405">
        <ele>689.8</ele>
        <time>2026-07-09T08:43:44.000Z</time>
      </trkpt>
      <trkpt lat="45.81878" lon="1.84404">
        <ele>690.2</ele>
        <time>2026-07-09T08:43:45.000Z</time>
      </trkpt>
      <trkpt lat="45.81876" lon="1.84403">
        <ele>689.3</ele>
        <time>2026-07-09T08:43:46.000Z</time>
      </trkpt>
      <trkpt lat="45.81875" lon="1.84402">
        <ele>689</ele>
        <time>2026-07-09T08:43:47.000Z</time>
      </trkpt>
      <trkpt lat="45.81873" lon="1.84401">
        <ele>689.9</ele>
        <time>2026-07-09T08:43:48.000Z</time>
      </trkpt>
      <trkpt lat="45.81872" lon="1.84399">
        <ele>688.9</ele>
        <time>2026-07-09T08:43:49.000Z</time>
      </trkpt>
      <trkpt lat="45.8187" lon="1.84398">
        <ele>687.8</ele>
        <time>2026-07-09T08:43:50.000Z</time>
      </trkpt>
      <trkpt lat="45.81868" lon="1.84397">
        <ele>689.3</ele>
        <time>2026-07-09T08:43:51.000Z</time>
      </trkpt>
      <trkpt lat="45.81866" lon="1.84396">
        <ele>689.7</ele>
        <time>2026-07-09T08:43:52.000Z</time>
      </trkpt>
      <trkpt lat="45.81864" lon="1.84396">
        <ele>689.7</ele>
        <time>2026-07-09T08:43:53.000Z</time>
      </trkpt>
      <trkpt lat="45.81863" lon="1.84395">
        <ele>688.8</ele>
        <time>2026-07-09T08:43:54.000Z</time>
      </trkpt>
      <trkpt lat="45.81861" lon="1.84393">
        <ele>689</ele>
        <time>2026-07-09T08:43:55.000Z</time>
      </trkpt>
      <trkpt lat="45.81859" lon="1.84393">
        <ele>688.8</ele>
        <time>2026-07-09T08:43:56.000Z</time>
      </trkpt>
      <trkpt lat="45.81857" lon="1.84392">
        <ele>689.7</ele>
        <time>2026-07-09T08:43:57.000Z</time>
      </trkpt>
      <trkpt lat="45.81855" lon="1.84392">
        <ele>689.9</ele>
        <time>2026-07-09T08:43:58.000Z</time>
      </trkpt>
      <trkpt lat="45.81853" lon="1.84391">
        <ele>689.8</ele>
        <time>2026-07-09T08:43:59.000Z</time>
      </trkpt>
      <trkpt lat="45.81851" lon="1.84391">
        <ele>689.3</ele>
        <time>2026-07-09T08:44:00.000Z</time>
      </trkpt>
      <trkpt lat="45.8185" lon="1.8439">
        <ele>688</ele>
        <time>2026-07-09T08:44:01.000Z</time>
      </trkpt>
      <trkpt lat="45.81848" lon="1.8439">
        <ele>688.3</ele>
        <time>2026-07-09T08:44:02.000Z</time>
      </trkpt>
      <trkpt lat="45.81847" lon="1.84389">
        <ele>688.2</ele>
        <time>2026-07-09T08:44:03.000Z</time>
      </trkpt>
      <trkpt lat="45.81845" lon="1.84389">
        <ele>689</ele>
        <time>2026-07-09T08:44:04.000Z</time>
      </trkpt>
      <trkpt lat="45.81843" lon="1.84389">
        <ele>689.4</ele>
        <time>2026-07-09T08:44:05.000Z</time>
      </trkpt>
      <trkpt lat="45.81842" lon="1.84389">
        <ele>689.1</ele>
        <time>2026-07-09T08:44:06.000Z</time>
      </trkpt>
      <trkpt lat="45.8184" lon="1.84388">
        <ele>688.8</ele>
        <time>2026-07-09T08:44:07.000Z</time>
      </trkpt>
      <trkpt lat="45.81838" lon="1.84387">
        <ele>687.6</ele>
        <time>2026-07-09T08:44:08.000Z</time>
      </trkpt>
      <trkpt lat="45.81836" lon="1.84387">
        <ele>686.5</ele>
        <time>2026-07-09T08:44:09.000Z</time>
      </trkpt>
      <trkpt lat="45.81834" lon="1.84386">
        <ele>685.4</ele>
        <time>2026-07-09T08:44:10.000Z</time>
      </trkpt>
      <trkpt lat="45.81833" lon="1.84386">
        <ele>685.2</ele>
        <time>2026-07-09T08:44:11.000Z</time>
      </trkpt>
      <trkpt lat="45.81831" lon="1.84386">
        <ele>684.9</ele>
        <time>2026-07-09T08:44:12.000Z</time>
      </trkpt>
      <trkpt lat="45.8183" lon="1.84386">
        <ele>685.4</ele>
        <time>2026-07-09T08:44:13.000Z</time>
      </trkpt>
      <trkpt lat="45.81828" lon="1.84386">
        <ele>685.6</ele>
        <time>2026-07-09T08:44:14.000Z</time>
      </trkpt>
      <trkpt lat="45.81827" lon="1.84386">
        <ele>685.4</ele>
        <time>2026-07-09T08:44:15.000Z</time>
      </trkpt>
      <trkpt lat="45.81825" lon="1.84386">
        <ele>685.1</ele>
        <time>2026-07-09T08:44:16.000Z</time>
      </trkpt>
      <trkpt lat="45.81824" lon="1.84386">
        <ele>684.6</ele>
        <time>2026-07-09T08:44:17.000Z</time>
      </trkpt>
      <trkpt lat="45.81823" lon="1.84386">
        <ele>683.7</ele>
        <time>2026-07-09T08:44:18.000Z</time>
      </trkpt>
      <trkpt lat="45.81822" lon="1.84386">
        <ele>684.8</ele>
        <time>2026-07-09T08:44:19.000Z</time>
      </trkpt>
      <trkpt lat="45.81821" lon="1.84386">
        <ele>683.9</ele>
        <time>2026-07-09T08:44:20.000Z</time>
      </trkpt>
      <trkpt lat="45.81819" lon="1.84386">
        <ele>683.7</ele>
        <time>2026-07-09T08:44:21.000Z</time>
      </trkpt>
      <trkpt lat="45.81818" lon="1.84386">
        <ele>683.3</ele>
        <time>2026-07-09T08:44:22.000Z</time>
      </trkpt>
      <trkpt lat="45.81817" lon="1.84387">
        <ele>683.2</ele>
        <time>2026-07-09T08:44:23.000Z</time>
      </trkpt>
      <trkpt lat="45.81816" lon="1.84387">
        <ele>682.3</ele>
        <time>2026-07-09T08:44:24.000Z</time>
      </trkpt>
      <trkpt lat="45.81815" lon="1.84385">
        <ele>682.7</ele>
        <time>2026-07-09T08:44:25.000Z</time>
      </trkpt>
      <trkpt lat="45.81814" lon="1.84384">
        <ele>681</ele>
        <time>2026-07-09T08:44:26.000Z</time>
      </trkpt>
      <trkpt lat="45.81813" lon="1.84383">
        <ele>680.9</ele>
        <time>2026-07-09T08:44:27.000Z</time>
      </trkpt>
      <trkpt lat="45.81812" lon="1.84382">
        <ele>680.8</ele>
        <time>2026-07-09T08:44:28.000Z</time>
      </trkpt>
      <trkpt lat="45.81811" lon="1.84382">
        <ele>681</ele>
        <time>2026-07-09T08:44:29.000Z</time>
      </trkpt>
      <trkpt lat="45.81809" lon="1.84381">
        <ele>680.8</ele>
        <time>2026-07-09T08:44:30.000Z</time>
      </trkpt>
      <trkpt lat="45.81808" lon="1.8438">
        <ele>681.6</ele>
        <time>2026-07-09T08:44:31.000Z</time>
      </trkpt>
      <trkpt lat="45.81807" lon="1.8438">
        <ele>681.8</ele>
        <time>2026-07-09T08:44:32.000Z</time>
      </trkpt>
      <trkpt lat="45.81805" lon="1.84381">
        <ele>681.8</ele>
        <time>2026-07-09T08:44:33.000Z</time>
      </trkpt>
      <trkpt lat="45.81804" lon="1.84382">
        <ele>681.7</ele>
        <time>2026-07-09T08:44:34.000Z</time>
      </trkpt>
      <trkpt lat="45.81803" lon="1.84383">
        <ele>681.5</ele>
        <time>2026-07-09T08:44:35.000Z</time>
      </trkpt>
      <trkpt lat="45.81802" lon="1.84383">
        <ele>680.5</ele>
        <time>2026-07-09T08:44:36.000Z</time>
      </trkpt>
      <trkpt lat="45.818" lon="1.84383">
        <ele>680.3</ele>
        <time>2026-07-09T08:44:37.000Z</time>
      </trkpt>
      <trkpt lat="45.81799" lon="1.84382">
        <ele>678.8</ele>
        <time>2026-07-09T08:44:38.000Z</time>
      </trkpt>
      <trkpt lat="45.81797" lon="1.84382">
        <ele>678.5</ele>
        <time>2026-07-09T08:44:39.000Z</time>
      </trkpt>
      <trkpt lat="45.81794" lon="1.84381">
        <ele>679.4</ele>
        <time>2026-07-09T08:44:40.000Z</time>
      </trkpt>
      <trkpt lat="45.81792" lon="1.8438">
        <ele>679.8</ele>
        <time>2026-07-09T08:44:41.000Z</time>
      </trkpt>
      <trkpt lat="45.8179" lon="1.8438">
        <ele>680</ele>
        <time>2026-07-09T08:44:42.000Z</time>
      </trkpt>
      <trkpt lat="45.81788" lon="1.8438">
        <ele>680</ele>
        <time>2026-07-09T08:44:43.000Z</time>
      </trkpt>
      <trkpt lat="45.81786" lon="1.84381">
        <ele>680.4</ele>
        <time>2026-07-09T08:44:44.000Z</time>
      </trkpt>
      <trkpt lat="45.81783" lon="1.84382">
        <ele>678.5</ele>
        <time>2026-07-09T08:44:45.000Z</time>
      </trkpt>
      <trkpt lat="45.81782" lon="1.84384">
        <ele>678.5</ele>
        <time>2026-07-09T08:44:46.000Z</time>
      </trkpt>
      <trkpt lat="45.8178" lon="1.84385">
        <ele>677.9</ele>
        <time>2026-07-09T08:44:47.000Z</time>
      </trkpt>
      <trkpt lat="45.81779" lon="1.84385">
        <ele>677.4</ele>
        <time>2026-07-09T08:44:48.000Z</time>
      </trkpt>
      <trkpt lat="45.81777" lon="1.84385">
        <ele>677.3</ele>
        <time>2026-07-09T08:44:49.000Z</time>
      </trkpt>
      <trkpt lat="45.81775" lon="1.84384">
        <ele>680.5</ele>
        <time>2026-07-09T08:44:50.000Z</time>
      </trkpt>
      <trkpt lat="45.81773" lon="1.84382">
        <ele>682.5</ele>
        <time>2026-07-09T08:44:51.000Z</time>
      </trkpt>
      <trkpt lat="45.81771" lon="1.84382">
        <ele>680.4</ele>
        <time>2026-07-09T08:44:52.000Z</time>
      </trkpt>
      <trkpt lat="45.81769" lon="1.84382">
        <ele>680</ele>
        <time>2026-07-09T08:44:53.000Z</time>
      </trkpt>
      <trkpt lat="45.81767" lon="1.84383">
        <ele>679.3</ele>
        <time>2026-07-09T08:44:54.000Z</time>
      </trkpt>
      <trkpt lat="45.81765" lon="1.84383">
        <ele>681.2</ele>
        <time>2026-07-09T08:44:55.000Z</time>
      </trkpt>
      <trkpt lat="45.81764" lon="1.84383">
        <ele>680.3</ele>
        <time>2026-07-09T08:44:56.000Z</time>
      </trkpt>
      <trkpt lat="45.81762" lon="1.84384">
        <ele>680.2</ele>
        <time>2026-07-09T08:44:57.000Z</time>
      </trkpt>
      <trkpt lat="45.81761" lon="1.84384">
        <ele>679.8</ele>
        <time>2026-07-09T08:44:58.000Z</time>
      </trkpt>
      <trkpt lat="45.81759" lon="1.84385">
        <ele>681</ele>
        <time>2026-07-09T08:44:59.000Z</time>
      </trkpt>
      <trkpt lat="45.81757" lon="1.84385">
        <ele>681.2</ele>
        <time>2026-07-09T08:45:00.000Z</time>
      </trkpt>
      <trkpt lat="45.81755" lon="1.84386">
        <ele>682.1</ele>
        <time>2026-07-09T08:45:01.000Z</time>
      </trkpt>
      <trkpt lat="45.81753" lon="1.84386">
        <ele>681.2</ele>
        <time>2026-07-09T08:45:02.000Z</time>
      </trkpt>
      <trkpt lat="45.81751" lon="1.84387">
        <ele>680.2</ele>
        <time>2026-07-09T08:45:03.000Z</time>
      </trkpt>
      <trkpt lat="45.8175" lon="1.84388">
        <ele>679.9</ele>
        <time>2026-07-09T08:45:04.000Z</time>
      </trkpt>
      <trkpt lat="45.81749" lon="1.84389">
        <ele>679.7</ele>
        <time>2026-07-09T08:45:05.000Z</time>
      </trkpt>
      <trkpt lat="45.81747" lon="1.8439">
        <ele>679.2</ele>
        <time>2026-07-09T08:45:06.000Z</time>
      </trkpt>
      <trkpt lat="45.81746" lon="1.84391">
        <ele>679.1</ele>
        <time>2026-07-09T08:45:07.000Z</time>
      </trkpt>
      <trkpt lat="45.81744" lon="1.84392">
        <ele>679.7</ele>
        <time>2026-07-09T08:45:08.000Z</time>
      </trkpt>
      <trkpt lat="45.81742" lon="1.84392">
        <ele>679.6</ele>
        <time>2026-07-09T08:45:09.000Z</time>
      </trkpt>
      <trkpt lat="45.81741" lon="1.84393">
        <ele>679.5</ele>
        <time>2026-07-09T08:45:10.000Z</time>
      </trkpt>
      <trkpt lat="45.81739" lon="1.84395">
        <ele>679.1</ele>
        <time>2026-07-09T08:45:11.000Z</time>
      </trkpt>
      <trkpt lat="45.81738" lon="1.84395">
        <ele>679.5</ele>
        <time>2026-07-09T08:45:12.000Z</time>
      </trkpt>
      <trkpt lat="45.81736" lon="1.84396">
        <ele>677.8</ele>
        <time>2026-07-09T08:45:13.000Z</time>
      </trkpt>
      <trkpt lat="45.81735" lon="1.84396">
        <ele>677</ele>
        <time>2026-07-09T08:45:14.000Z</time>
      </trkpt>
      <trkpt lat="45.81733" lon="1.84397">
        <ele>676.7</ele>
        <time>2026-07-09T08:45:15.000Z</time>
      </trkpt>
      <trkpt lat="45.81732" lon="1.84398">
        <ele>676.9</ele>
        <time>2026-07-09T08:45:16.000Z</time>
      </trkpt>
      <trkpt lat="45.81731" lon="1.84399">
        <ele>677.1</ele>
        <time>2026-07-09T08:45:17.000Z</time>
      </trkpt>
      <trkpt lat="45.8173" lon="1.844">
        <ele>678.6</ele>
        <time>2026-07-09T08:45:18.000Z</time>
      </trkpt>
      <trkpt lat="45.81728" lon="1.844">
        <ele>680.1</ele>
        <time>2026-07-09T08:45:19.000Z</time>
      </trkpt>
      <trkpt lat="45.81727" lon="1.84401">
        <ele>680.1</ele>
        <time>2026-07-09T08:45:20.000Z</time>
      </trkpt>
      <trkpt lat="45.81725" lon="1.84402">
        <ele>679.9</ele>
        <time>2026-07-09T08:45:21.000Z</time>
      </trkpt>
      <trkpt lat="45.81723" lon="1.84402">
        <ele>679.3</ele>
        <time>2026-07-09T08:45:22.000Z</time>
      </trkpt>
      <trkpt lat="45.81721" lon="1.84402">
        <ele>676.1</ele>
        <time>2026-07-09T08:45:23.000Z</time>
      </trkpt>
      <trkpt lat="45.81719" lon="1.84403">
        <ele>675.3</ele>
        <time>2026-07-09T08:45:24.000Z</time>
      </trkpt>
      <trkpt lat="45.81718" lon="1.84403">
        <ele>676.4</ele>
        <time>2026-07-09T08:45:25.000Z</time>
      </trkpt>
      <trkpt lat="45.81716" lon="1.84405">
        <ele>677.6</ele>
        <time>2026-07-09T08:45:26.000Z</time>
      </trkpt>
      <trkpt lat="45.81715" lon="1.84406">
        <ele>677.9</ele>
        <time>2026-07-09T08:45:27.000Z</time>
      </trkpt>
      <trkpt lat="45.81713" lon="1.84407">
        <ele>677.8</ele>
        <time>2026-07-09T08:45:28.000Z</time>
      </trkpt>
      <trkpt lat="45.81711" lon="1.84408">
        <ele>677.7</ele>
        <time>2026-07-09T08:45:29.000Z</time>
      </trkpt>
      <trkpt lat="45.8171" lon="1.84409">
        <ele>677.2</ele>
        <time>2026-07-09T08:45:30.000Z</time>
      </trkpt>
      <trkpt lat="45.81709" lon="1.84411">
        <ele>677</ele>
        <time>2026-07-09T08:45:31.000Z</time>
      </trkpt>
      <trkpt lat="45.81708" lon="1.84412">
        <ele>678.1</ele>
        <time>2026-07-09T08:45:32.000Z</time>
      </trkpt>
      <trkpt lat="45.81707" lon="1.84413">
        <ele>678.2</ele>
        <time>2026-07-09T08:45:33.000Z</time>
      </trkpt>
      <trkpt lat="45.81705" lon="1.84414">
        <ele>677.9</ele>
        <time>2026-07-09T08:45:34.000Z</time>
      </trkpt>
      <trkpt lat="45.81705" lon="1.84416">
        <ele>678.1</ele>
        <time>2026-07-09T08:45:35.000Z</time>
      </trkpt>
      <trkpt lat="45.81703" lon="1.84416">
        <ele>678.8</ele>
        <time>2026-07-09T08:45:36.000Z</time>
      </trkpt>
      <trkpt lat="45.81702" lon="1.84418">
        <ele>678.3</ele>
        <time>2026-07-09T08:45:37.000Z</time>
      </trkpt>
      <trkpt lat="45.817" lon="1.84419">
        <ele>676.8</ele>
        <time>2026-07-09T08:45:38.000Z</time>
      </trkpt>
      <trkpt lat="45.81698" lon="1.8442">
        <ele>676.8</ele>
        <time>2026-07-09T08:45:39.000Z</time>
      </trkpt>
      <trkpt lat="45.81697" lon="1.84421">
        <ele>676.4</ele>
        <time>2026-07-09T08:45:40.000Z</time>
      </trkpt>
      <trkpt lat="45.81695" lon="1.84423">
        <ele>676.3</ele>
        <time>2026-07-09T08:45:41.000Z</time>
      </trkpt>
      <trkpt lat="45.81693" lon="1.84425">
        <ele>675.4</ele>
        <time>2026-07-09T08:45:42.000Z</time>
      </trkpt>
      <trkpt lat="45.81691" lon="1.84428">
        <ele>676</ele>
        <time>2026-07-09T08:45:43.000Z</time>
      </trkpt>
      <trkpt lat="45.81688" lon="1.84429">
        <ele>676</ele>
        <time>2026-07-09T08:45:44.000Z</time>
      </trkpt>
      <trkpt lat="45.81686" lon="1.8443">
        <ele>673.6</ele>
        <time>2026-07-09T08:45:45.000Z</time>
      </trkpt>
      <trkpt lat="45.81683" lon="1.8443">
        <ele>673.6</ele>
        <time>2026-07-09T08:45:46.000Z</time>
      </trkpt>
      <trkpt lat="45.8168" lon="1.8443">
        <ele>673.6</ele>
        <time>2026-07-09T08:45:47.000Z</time>
      </trkpt>
      <trkpt lat="45.81678" lon="1.8443">
        <ele>673.3</ele>
        <time>2026-07-09T08:45:48.000Z</time>
      </trkpt>
      <trkpt lat="45.81675" lon="1.84431">
        <ele>672.5</ele>
        <time>2026-07-09T08:45:49.000Z</time>
      </trkpt>
      <trkpt lat="45.81673" lon="1.84431">
        <ele>671.4</ele>
        <time>2026-07-09T08:45:50.000Z</time>
      </trkpt>
      <trkpt lat="45.81671" lon="1.84431">
        <ele>670.5</ele>
        <time>2026-07-09T08:45:51.000Z</time>
      </trkpt>
      <trkpt lat="45.81669" lon="1.84432">
        <ele>668.8</ele>
        <time>2026-07-09T08:45:52.000Z</time>
      </trkpt>
      <trkpt lat="45.81667" lon="1.84432">
        <ele>668.4</ele>
        <time>2026-07-09T08:45:53.000Z</time>
      </trkpt>
      <trkpt lat="45.81666" lon="1.84432">
        <ele>668.5</ele>
        <time>2026-07-09T08:45:54.000Z</time>
      </trkpt>
      <trkpt lat="45.81664" lon="1.84433">
        <ele>668.5</ele>
        <time>2026-07-09T08:45:55.000Z</time>
      </trkpt>
      <trkpt lat="45.81662" lon="1.84434">
        <ele>668.7</ele>
        <time>2026-07-09T08:45:56.000Z</time>
      </trkpt>
      <trkpt lat="45.8166" lon="1.84435">
        <ele>669.4</ele>
        <time>2026-07-09T08:45:57.000Z</time>
      </trkpt>
      <trkpt lat="45.81659" lon="1.84435">
        <ele>670.6</ele>
        <time>2026-07-09T08:45:58.000Z</time>
      </trkpt>
      <trkpt lat="45.81657" lon="1.84435">
        <ele>669.1</ele>
        <time>2026-07-09T08:45:59.000Z</time>
      </trkpt>
      <trkpt lat="45.81656" lon="1.84436">
        <ele>669</ele>
        <time>2026-07-09T08:46:00.000Z</time>
      </trkpt>
      <trkpt lat="45.81654" lon="1.84437">
        <ele>670</ele>
        <time>2026-07-09T08:46:01.000Z</time>
      </trkpt>
      <trkpt lat="45.81653" lon="1.84437">
        <ele>670.6</ele>
        <time>2026-07-09T08:46:02.000Z</time>
      </trkpt>
      <trkpt lat="45.81651" lon="1.84438">
        <ele>670.8</ele>
        <time>2026-07-09T08:46:03.000Z</time>
      </trkpt>
      <trkpt lat="45.81649" lon="1.84439">
        <ele>671</ele>
        <time>2026-07-09T08:46:04.000Z</time>
      </trkpt>
      <trkpt lat="45.81648" lon="1.8444">
        <ele>671.5</ele>
        <time>2026-07-09T08:46:05.000Z</time>
      </trkpt>
      <trkpt lat="45.81646" lon="1.84441">
        <ele>671.2</ele>
        <time>2026-07-09T08:46:06.000Z</time>
      </trkpt>
      <trkpt lat="45.81645" lon="1.84442">
        <ele>671.3</ele>
        <time>2026-07-09T08:46:07.000Z</time>
      </trkpt>
      <trkpt lat="45.81643" lon="1.84443">
        <ele>672.5</ele>
        <time>2026-07-09T08:46:08.000Z</time>
      </trkpt>
      <trkpt lat="45.81641" lon="1.84444">
        <ele>670.5</ele>
        <time>2026-07-09T08:46:09.000Z</time>
      </trkpt>
      <trkpt lat="45.81639" lon="1.84445">
        <ele>670.1</ele>
        <time>2026-07-09T08:46:10.000Z</time>
      </trkpt>
      <trkpt lat="45.81638" lon="1.84446">
        <ele>670.7</ele>
        <time>2026-07-09T08:46:11.000Z</time>
      </trkpt>
      <trkpt lat="45.81636" lon="1.84448">
        <ele>672.1</ele>
        <time>2026-07-09T08:46:12.000Z</time>
      </trkpt>
      <trkpt lat="45.81634" lon="1.84449">
        <ele>669.7</ele>
        <time>2026-07-09T08:46:13.000Z</time>
      </trkpt>
      <trkpt lat="45.81633" lon="1.84451">
        <ele>669.3</ele>
        <time>2026-07-09T08:46:14.000Z</time>
      </trkpt>
      <trkpt lat="45.81631" lon="1.84452">
        <ele>670.2</ele>
        <time>2026-07-09T08:46:15.000Z</time>
      </trkpt>
      <trkpt lat="45.8163" lon="1.84454">
        <ele>669.2</ele>
        <time>2026-07-09T08:46:16.000Z</time>
      </trkpt>
      <trkpt lat="45.81629" lon="1.84456">
        <ele>671.1</ele>
        <time>2026-07-09T08:46:17.000Z</time>
      </trkpt>
      <trkpt lat="45.81627" lon="1.84457">
        <ele>670.4</ele>
        <time>2026-07-09T08:46:18.000Z</time>
      </trkpt>
      <trkpt lat="45.81626" lon="1.84459">
        <ele>668.9</ele>
        <time>2026-07-09T08:46:19.000Z</time>
      </trkpt>
      <trkpt lat="45.81625" lon="1.84461">
        <ele>668.5</ele>
        <time>2026-07-09T08:46:20.000Z</time>
      </trkpt>
      <trkpt lat="45.81624" lon="1.84463">
        <ele>668.6</ele>
        <time>2026-07-09T08:46:21.000Z</time>
      </trkpt>
      <trkpt lat="45.81623" lon="1.84467">
        <ele>669.1</ele>
        <time>2026-07-09T08:46:22.000Z</time>
      </trkpt>
      <trkpt lat="45.81622" lon="1.84469">
        <ele>669.5</ele>
        <time>2026-07-09T08:46:23.000Z</time>
      </trkpt>
      <trkpt lat="45.81622" lon="1.84471">
        <ele>669.4</ele>
        <time>2026-07-09T08:46:24.000Z</time>
      </trkpt>
      <trkpt lat="45.81621" lon="1.84473">
        <ele>669</ele>
        <time>2026-07-09T08:46:25.000Z</time>
      </trkpt>
      <trkpt lat="45.81621" lon="1.84474">
        <ele>668.5</ele>
        <time>2026-07-09T08:46:26.000Z</time>
      </trkpt>
      <trkpt lat="45.81621" lon="1.84476">
        <ele>668.6</ele>
        <time>2026-07-09T08:46:27.000Z</time>
      </trkpt>
      <trkpt lat="45.81621" lon="1.84477">
        <ele>667.8</ele>
        <time>2026-07-09T08:46:28.000Z</time>
      </trkpt>
      <trkpt lat="45.81621" lon="1.84479">
        <ele>668.5</ele>
        <time>2026-07-09T08:46:29.000Z</time>
      </trkpt>
      <trkpt lat="45.81621" lon="1.8448">
        <ele>669</ele>
        <time>2026-07-09T08:46:30.000Z</time>
      </trkpt>
      <trkpt lat="45.8162" lon="1.84482">
        <ele>668.7</ele>
        <time>2026-07-09T08:46:31.000Z</time>
      </trkpt>
      <trkpt lat="45.81619" lon="1.84485">
        <ele>667.6</ele>
        <time>2026-07-09T08:46:32.000Z</time>
      </trkpt>
      <trkpt lat="45.81619" lon="1.84488">
        <ele>667</ele>
        <time>2026-07-09T08:46:33.000Z</time>
      </trkpt>
      <trkpt lat="45.81617" lon="1.84491">
        <ele>668.1</ele>
        <time>2026-07-09T08:46:34.000Z</time>
      </trkpt>
      <trkpt lat="45.81616" lon="1.84494">
        <ele>668.2</ele>
        <time>2026-07-09T08:46:35.000Z</time>
      </trkpt>
      <trkpt lat="45.81615" lon="1.84496">
        <ele>668.6</ele>
        <time>2026-07-09T08:46:36.000Z</time>
      </trkpt>
      <trkpt lat="45.81613" lon="1.84498">
        <ele>668.8</ele>
        <time>2026-07-09T08:46:37.000Z</time>
      </trkpt>
      <trkpt lat="45.81612" lon="1.845">
        <ele>668.8</ele>
        <time>2026-07-09T08:46:38.000Z</time>
      </trkpt>
      <trkpt lat="45.8161" lon="1.845">
        <ele>669.9</ele>
        <time>2026-07-09T08:46:39.000Z</time>
      </trkpt>
      <trkpt lat="45.81607" lon="1.84499">
        <ele>669.9</ele>
        <time>2026-07-09T08:46:40.000Z</time>
      </trkpt>
      <trkpt lat="45.81605" lon="1.84498">
        <ele>670.1</ele>
        <time>2026-07-09T08:46:41.000Z</time>
      </trkpt>
      <trkpt lat="45.81603" lon="1.84497">
        <ele>670.7</ele>
        <time>2026-07-09T08:46:42.000Z</time>
      </trkpt>
      <trkpt lat="45.81601" lon="1.84496">
        <ele>672</ele>
        <time>2026-07-09T08:46:43.000Z</time>
      </trkpt>
      <trkpt lat="45.81599" lon="1.84495">
        <ele>672.1</ele>
        <time>2026-07-09T08:46:44.000Z</time>
      </trkpt>
      <trkpt lat="45.81597" lon="1.84494">
        <ele>672.7</ele>
        <time>2026-07-09T08:46:45.000Z</time>
      </trkpt>
      <trkpt lat="45.81595" lon="1.84494">
        <ele>673.1</ele>
        <time>2026-07-09T08:46:46.000Z</time>
      </trkpt>
      <trkpt lat="45.81593" lon="1.84494">
        <ele>673.7</ele>
        <time>2026-07-09T08:46:47.000Z</time>
      </trkpt>
      <trkpt lat="45.81591" lon="1.84494">
        <ele>673.5</ele>
        <time>2026-07-09T08:46:48.000Z</time>
      </trkpt>
      <trkpt lat="45.81589" lon="1.84494">
        <ele>672.4</ele>
        <time>2026-07-09T08:46:49.000Z</time>
      </trkpt>
      <trkpt lat="45.81587" lon="1.84496">
        <ele>672</ele>
        <time>2026-07-09T08:46:50.000Z</time>
      </trkpt>
      <trkpt lat="45.81584" lon="1.84497">
        <ele>671.8</ele>
        <time>2026-07-09T08:46:51.000Z</time>
      </trkpt>
      <trkpt lat="45.81581" lon="1.84499">
        <ele>669.4</ele>
        <time>2026-07-09T08:46:52.000Z</time>
      </trkpt>
      <trkpt lat="45.81578" lon="1.84501">
        <ele>668.9</ele>
        <time>2026-07-09T08:46:53.000Z</time>
      </trkpt>
      <trkpt lat="45.81576" lon="1.84505">
        <ele>668.8</ele>
        <time>2026-07-09T08:46:54.000Z</time>
      </trkpt>
      <trkpt lat="45.81574" lon="1.8451">
        <ele>669.8</ele>
        <time>2026-07-09T08:46:55.000Z</time>
      </trkpt>
      <trkpt lat="45.81574" lon="1.84515">
        <ele>671.8</ele>
        <time>2026-07-09T08:46:56.000Z</time>
      </trkpt>
      <trkpt lat="45.81573" lon="1.8452">
        <ele>672.8</ele>
        <time>2026-07-09T08:46:57.000Z</time>
      </trkpt>
      <trkpt lat="45.81573" lon="1.84525">
        <ele>673.1</ele>
        <time>2026-07-09T08:46:58.000Z</time>
      </trkpt>
      <trkpt lat="45.81572" lon="1.84528">
        <ele>673.3</ele>
        <time>2026-07-09T08:46:59.000Z</time>
      </trkpt>
      <trkpt lat="45.81571" lon="1.84531">
        <ele>672.9</ele>
        <time>2026-07-09T08:47:00.000Z</time>
      </trkpt>
      <trkpt lat="45.81569" lon="1.84535">
        <ele>672</ele>
        <time>2026-07-09T08:47:01.000Z</time>
      </trkpt>
      <trkpt lat="45.81568" lon="1.84538">
        <ele>671.6</ele>
        <time>2026-07-09T08:47:02.000Z</time>
      </trkpt>
      <trkpt lat="45.81566" lon="1.84541">
        <ele>671.1</ele>
        <time>2026-07-09T08:47:03.000Z</time>
      </trkpt>
      <trkpt lat="45.81563" lon="1.84544">
        <ele>670.5</ele>
        <time>2026-07-09T08:47:04.000Z</time>
      </trkpt>
      <trkpt lat="45.81561" lon="1.84543">
        <ele>669.5</ele>
        <time>2026-07-09T08:47:05.000Z</time>
      </trkpt>
      <trkpt lat="45.81559" lon="1.84541">
        <ele>668.9</ele>
        <time>2026-07-09T08:47:06.000Z</time>
      </trkpt>
      <trkpt lat="45.81557" lon="1.84538">
        <ele>665.9</ele>
        <time>2026-07-09T08:47:07.000Z</time>
      </trkpt>
      <trkpt lat="45.81556" lon="1.84533">
        <ele>666.3</ele>
        <time>2026-07-09T08:47:08.000Z</time>
      </trkpt>
      <trkpt lat="45.81556" lon="1.84529">
        <ele>666.7</ele>
        <time>2026-07-09T08:47:09.000Z</time>
      </trkpt>
      <trkpt lat="45.81556" lon="1.84527">
        <ele>668.2</ele>
        <time>2026-07-09T08:47:10.000Z</time>
      </trkpt>
      <trkpt lat="45.81557" lon="1.84523">
        <ele>668.4</ele>
        <time>2026-07-09T08:47:11.000Z</time>
      </trkpt>
      <trkpt lat="45.81557" lon="1.84519">
        <ele>668.5</ele>
        <time>2026-07-09T08:47:12.000Z</time>
      </trkpt>
      <trkpt lat="45.81557" lon="1.84517">
        <ele>669</ele>
        <time>2026-07-09T08:47:13.000Z</time>
      </trkpt>
      <trkpt lat="45.81557" lon="1.84514">
        <ele>669.8</ele>
        <time>2026-07-09T08:47:14.000Z</time>
      </trkpt>
      <trkpt lat="45.81557" lon="1.84511">
        <ele>669.3</ele>
        <time>2026-07-09T08:47:15.000Z</time>
      </trkpt>
      <trkpt lat="45.81557" lon="1.8451">
        <ele>669.6</ele>
        <time>2026-07-09T08:47:16.000Z</time>
      </trkpt>
      <trkpt lat="45.81556" lon="1.84506">
        <ele>669.7</ele>
        <time>2026-07-09T08:47:17.000Z</time>
      </trkpt>
      <trkpt lat="45.81556" lon="1.84504">
        <ele>669</ele>
        <time>2026-07-09T08:47:18.000Z</time>
      </trkpt>
      <trkpt lat="45.81555" lon="1.84502">
        <ele>668.6</ele>
        <time>2026-07-09T08:47:19.000Z</time>
      </trkpt>
      <trkpt lat="45.81554" lon="1.845">
        <ele>669.2</ele>
        <time>2026-07-09T08:47:20.000Z</time>
      </trkpt>
      <trkpt lat="45.81554" lon="1.84499">
        <ele>669.6</ele>
        <time>2026-07-09T08:47:21.000Z</time>
      </trkpt>
      <trkpt lat="45.81553" lon="1.84498">
        <ele>669.4</ele>
        <time>2026-07-09T08:47:22.000Z</time>
      </trkpt>
      <trkpt lat="45.81551" lon="1.84496">
        <ele>669.4</ele>
        <time>2026-07-09T08:47:23.000Z</time>
      </trkpt>
      <trkpt lat="45.8155" lon="1.84495">
        <ele>670.4</ele>
        <time>2026-07-09T08:47:24.000Z</time>
      </trkpt>
      <trkpt lat="45.81549" lon="1.84494">
        <ele>670.3</ele>
        <time>2026-07-09T08:47:25.000Z</time>
      </trkpt>
      <trkpt lat="45.81548" lon="1.84493">
        <ele>670</ele>
        <time>2026-07-09T08:47:26.000Z</time>
      </trkpt>
      <trkpt lat="45.81546" lon="1.84491">
        <ele>669.7</ele>
        <time>2026-07-09T08:47:27.000Z</time>
      </trkpt>
      <trkpt lat="45.81545" lon="1.8449">
        <ele>670</ele>
        <time>2026-07-09T08:47:28.000Z</time>
      </trkpt>
      <trkpt lat="45.81544" lon="1.84489">
        <ele>670.1</ele>
        <time>2026-07-09T08:47:29.000Z</time>
      </trkpt>
      <trkpt lat="45.81543" lon="1.84488">
        <ele>669.5</ele>
        <time>2026-07-09T08:47:30.000Z</time>
      </trkpt>
      <trkpt lat="45.81541" lon="1.84488">
        <ele>668.4</ele>
        <time>2026-07-09T08:47:31.000Z</time>
      </trkpt>
      <trkpt lat="45.81541" lon="1.84487">
        <ele>669.3</ele>
        <time>2026-07-09T08:47:32.000Z</time>
      </trkpt>
      <trkpt lat="45.81539" lon="1.84488">
        <ele>667.5</ele>
        <time>2026-07-09T08:47:33.000Z</time>
      </trkpt>
      <trkpt lat="45.81538" lon="1.84489">
        <ele>667.9</ele>
        <time>2026-07-09T08:47:34.000Z</time>
      </trkpt>
      <trkpt lat="45.81537" lon="1.8449">
        <ele>669.5</ele>
        <time>2026-07-09T08:47:35.000Z</time>
      </trkpt>
      <trkpt lat="45.81536" lon="1.84492">
        <ele>670</ele>
        <time>2026-07-09T08:47:36.000Z</time>
      </trkpt>
      <trkpt lat="45.81535" lon="1.84493">
        <ele>670.8</ele>
        <time>2026-07-09T08:47:37.000Z</time>
      </trkpt>
      <trkpt lat="45.81535" lon="1.84494">
        <ele>671.3</ele>
        <time>2026-07-09T08:47:38.000Z</time>
      </trkpt>
      <trkpt lat="45.81534" lon="1.84496">
        <ele>672</ele>
        <time>2026-07-09T08:47:39.000Z</time>
      </trkpt>
      <trkpt lat="45.81533" lon="1.84499">
        <ele>672.4</ele>
        <time>2026-07-09T08:47:40.000Z</time>
      </trkpt>
      <trkpt lat="45.81533" lon="1.84501">
        <ele>672.8</ele>
        <time>2026-07-09T08:47:41.000Z</time>
      </trkpt>
      <trkpt lat="45.81532" lon="1.84503">
        <ele>672.9</ele>
        <time>2026-07-09T08:47:42.000Z</time>
      </trkpt>
      <trkpt lat="45.81531" lon="1.84506">
        <ele>672.6</ele>
        <time>2026-07-09T08:47:43.000Z</time>
      </trkpt>
      <trkpt lat="45.8153" lon="1.84508">
        <ele>673.6</ele>
        <time>2026-07-09T08:47:44.000Z</time>
      </trkpt>
      <trkpt lat="45.8153" lon="1.8451">
        <ele>673.5</ele>
        <time>2026-07-09T08:47:45.000Z</time>
      </trkpt>
      <trkpt lat="45.81529" lon="1.84513">
        <ele>673.6</ele>
        <time>2026-07-09T08:47:46.000Z</time>
      </trkpt>
      <trkpt lat="45.81528" lon="1.84515">
        <ele>673.8</ele>
        <time>2026-07-09T08:47:47.000Z</time>
      </trkpt>
      <trkpt lat="45.81527" lon="1.84517">
        <ele>674.3</ele>
        <time>2026-07-09T08:47:48.000Z</time>
      </trkpt>
      <trkpt lat="45.81526" lon="1.84519">
        <ele>674.4</ele>
        <time>2026-07-09T08:47:49.000Z</time>
      </trkpt>
      <trkpt lat="45.81525" lon="1.84522">
        <ele>674.9</ele>
        <time>2026-07-09T08:47:50.000Z</time>
      </trkpt>
      <trkpt lat="45.81523" lon="1.84524">
        <ele>675.4</ele>
        <time>2026-07-09T08:47:51.000Z</time>
      </trkpt>
      <trkpt lat="45.81522" lon="1.84526">
        <ele>675.7</ele>
        <time>2026-07-09T08:47:52.000Z</time>
      </trkpt>
      <trkpt lat="45.81521" lon="1.84529">
        <ele>676.4</ele>
        <time>2026-07-09T08:47:53.000Z</time>
      </trkpt>
      <trkpt lat="45.8152" lon="1.84531">
        <ele>676.5</ele>
        <time>2026-07-09T08:47:54.000Z</time>
      </trkpt>
      <trkpt lat="45.81519" lon="1.84534">
        <ele>676.8</ele>
        <time>2026-07-09T08:47:55.000Z</time>
      </trkpt>
      <trkpt lat="45.81518" lon="1.84537">
        <ele>676.7</ele>
        <time>2026-07-09T08:47:56.000Z</time>
      </trkpt>
      <trkpt lat="45.81517" lon="1.8454">
        <ele>677.5</ele>
        <time>2026-07-09T08:47:57.000Z</time>
      </trkpt>
      <trkpt lat="45.81516" lon="1.84542">
        <ele>679.4</ele>
        <time>2026-07-09T08:47:58.000Z</time>
      </trkpt>
      <trkpt lat="45.81514" lon="1.84544">
        <ele>679.5</ele>
        <time>2026-07-09T08:47:59.000Z</time>
      </trkpt>
      <trkpt lat="45.81513" lon="1.84547">
        <ele>679.2</ele>
        <time>2026-07-09T08:48:00.000Z</time>
      </trkpt>
      <trkpt lat="45.81512" lon="1.84549">
        <ele>679.4</ele>
        <time>2026-07-09T08:48:01.000Z</time>
      </trkpt>
      <trkpt lat="45.81511" lon="1.84551">
        <ele>679.5</ele>
        <time>2026-07-09T08:48:02.000Z</time>
      </trkpt>
      <trkpt lat="45.8151" lon="1.84554">
        <ele>679.8</ele>
        <time>2026-07-09T08:48:03.000Z</time>
      </trkpt>
      <trkpt lat="45.81509" lon="1.84556">
        <ele>679.6</ele>
        <time>2026-07-09T08:48:04.000Z</time>
      </trkpt>
      <trkpt lat="45.81508" lon="1.84559">
        <ele>679.6</ele>
        <time>2026-07-09T08:48:05.000Z</time>
      </trkpt>
      <trkpt lat="45.81507" lon="1.84561">
        <ele>679.9</ele>
        <time>2026-07-09T08:48:06.000Z</time>
      </trkpt>
      <trkpt lat="45.81506" lon="1.84563">
        <ele>679.2</ele>
        <time>2026-07-09T08:48:07.000Z</time>
      </trkpt>
      <trkpt lat="45.81506" lon="1.84565">
        <ele>678.8</ele>
        <time>2026-07-09T08:48:08.000Z</time>
      </trkpt>
      <trkpt lat="45.81506" lon="1.84567">
        <ele>678.8</ele>
        <time>2026-07-09T08:48:09.000Z</time>
      </trkpt>
      <trkpt lat="45.81505" lon="1.84569">
        <ele>678.8</ele>
        <time>2026-07-09T08:48:10.000Z</time>
      </trkpt>
      <trkpt lat="45.81504" lon="1.84571">
        <ele>678.4</ele>
        <time>2026-07-09T08:48:11.000Z</time>
      </trkpt>
      <trkpt lat="45.81503" lon="1.84574">
        <ele>679.1</ele>
        <time>2026-07-09T08:48:12.000Z</time>
      </trkpt>
      <trkpt lat="45.81502" lon="1.84576">
        <ele>678.9</ele>
        <time>2026-07-09T08:48:13.000Z</time>
      </trkpt>
      <trkpt lat="45.81501" lon="1.84579">
        <ele>678.8</ele>
        <time>2026-07-09T08:48:14.000Z</time>
      </trkpt>
      <trkpt lat="45.81501" lon="1.84582">
        <ele>679.2</ele>
        <time>2026-07-09T08:48:15.000Z</time>
      </trkpt>
      <trkpt lat="45.815" lon="1.84584">
        <ele>679.7</ele>
        <time>2026-07-09T08:48:16.000Z</time>
      </trkpt>
      <trkpt lat="45.81499" lon="1.84586">
        <ele>679.7</ele>
        <time>2026-07-09T08:48:17.000Z</time>
      </trkpt>
      <trkpt lat="45.81499" lon="1.84589">
        <ele>679.7</ele>
        <time>2026-07-09T08:48:18.000Z</time>
      </trkpt>
      <trkpt lat="45.81498" lon="1.84592">
        <ele>680.2</ele>
        <time>2026-07-09T08:48:19.000Z</time>
      </trkpt>
      <trkpt lat="45.81497" lon="1.84594">
        <ele>680.3</ele>
        <time>2026-07-09T08:48:20.000Z</time>
      </trkpt>
      <trkpt lat="45.81497" lon="1.84597">
        <ele>680.5</ele>
        <time>2026-07-09T08:48:21.000Z</time>
      </trkpt>
      <trkpt lat="45.81496" lon="1.84599">
        <ele>680.9</ele>
        <time>2026-07-09T08:48:22.000Z</time>
      </trkpt>
      <trkpt lat="45.81494" lon="1.84602">
        <ele>681.1</ele>
        <time>2026-07-09T08:48:23.000Z</time>
      </trkpt>
      <trkpt lat="45.81494" lon="1.84604">
        <ele>681.4</ele>
        <time>2026-07-09T08:48:24.000Z</time>
      </trkpt>
      <trkpt lat="45.81493" lon="1.84607">
        <ele>681.2</ele>
        <time>2026-07-09T08:48:25.000Z</time>
      </trkpt>
      <trkpt lat="45.81493" lon="1.84609">
        <ele>681.8</ele>
        <time>2026-07-09T08:48:26.000Z</time>
      </trkpt>
      <trkpt lat="45.81492" lon="1.84612">
        <ele>682.6</ele>
        <time>2026-07-09T08:48:27.000Z</time>
      </trkpt>
      <trkpt lat="45.81491" lon="1.84614">
        <ele>682</ele>
        <time>2026-07-09T08:48:28.000Z</time>
      </trkpt>
      <trkpt lat="45.8149" lon="1.84616">
        <ele>681.8</ele>
        <time>2026-07-09T08:48:29.000Z</time>
      </trkpt>
      <trkpt lat="45.81489" lon="1.84618">
        <ele>682.9</ele>
        <time>2026-07-09T08:48:30.000Z</time>
      </trkpt>
      <trkpt lat="45.81489" lon="1.8462">
        <ele>683.2</ele>
        <time>2026-07-09T08:48:31.000Z</time>
      </trkpt>
      <trkpt lat="45.81489" lon="1.84623">
        <ele>682.9</ele>
        <time>2026-07-09T08:48:32.000Z</time>
      </trkpt>
      <trkpt lat="45.81488" lon="1.84625">
        <ele>684</ele>
        <time>2026-07-09T08:48:33.000Z</time>
      </trkpt>
      <trkpt lat="45.81487" lon="1.84627">
        <ele>684.9</ele>
        <time>2026-07-09T08:48:34.000Z</time>
      </trkpt>
      <trkpt lat="45.81486" lon="1.84628">
        <ele>685.9</ele>
        <time>2026-07-09T08:48:35.000Z</time>
      </trkpt>
      <trkpt lat="45.81485" lon="1.8463">
        <ele>686</ele>
        <time>2026-07-09T08:48:36.000Z</time>
      </trkpt>
      <trkpt lat="45.81484" lon="1.84632">
        <ele>686.2</ele>
        <time>2026-07-09T08:48:37.000Z</time>
      </trkpt>
      <trkpt lat="45.81483" lon="1.84634">
        <ele>687.1</ele>
        <time>2026-07-09T08:48:38.000Z</time>
      </trkpt>
      <trkpt lat="45.81482" lon="1.84635">
        <ele>687.6</ele>
        <time>2026-07-09T08:48:39.000Z</time>
      </trkpt>
      <trkpt lat="45.81481" lon="1.84637">
        <ele>688.3</ele>
        <time>2026-07-09T08:48:40.000Z</time>
      </trkpt>
      <trkpt lat="45.8148" lon="1.84638">
        <ele>688.8</ele>
        <time>2026-07-09T08:48:41.000Z</time>
      </trkpt>
      <trkpt lat="45.8148" lon="1.8464">
        <ele>688.8</ele>
        <time>2026-07-09T08:48:42.000Z</time>
      </trkpt>
      <trkpt lat="45.81479" lon="1.84642">
        <ele>688.3</ele>
        <time>2026-07-09T08:48:43.000Z</time>
      </trkpt>
      <trkpt lat="45.81478" lon="1.84644">
        <ele>689.4</ele>
        <time>2026-07-09T08:48:44.000Z</time>
      </trkpt>
      <trkpt lat="45.81478" lon="1.84646">
        <ele>690.2</ele>
        <time>2026-07-09T08:48:45.000Z</time>
      </trkpt>
      <trkpt lat="45.81477" lon="1.84648">
        <ele>690.6</ele>
        <time>2026-07-09T08:48:46.000Z</time>
      </trkpt>
      <trkpt lat="45.81476" lon="1.8465">
        <ele>690.5</ele>
        <time>2026-07-09T08:48:47.000Z</time>
      </trkpt>
      <trkpt lat="45.81476" lon="1.84652">
        <ele>690.5</ele>
        <time>2026-07-09T08:48:48.000Z</time>
      </trkpt>
      <trkpt lat="45.81475" lon="1.84654">
        <ele>691.1</ele>
        <time>2026-07-09T08:48:49.000Z</time>
      </trkpt>
      <trkpt lat="45.81475" lon="1.84656">
        <ele>691.2</ele>
        <time>2026-07-09T08:48:50.000Z</time>
      </trkpt>
      <trkpt lat="45.81474" lon="1.84658">
        <ele>691.6</ele>
        <time>2026-07-09T08:48:51.000Z</time>
      </trkpt>
      <trkpt lat="45.81474" lon="1.8466">
        <ele>691</ele>
        <time>2026-07-09T08:48:52.000Z</time>
      </trkpt>
      <trkpt lat="45.81473" lon="1.84662">
        <ele>692</ele>
        <time>2026-07-09T08:48:53.000Z</time>
      </trkpt>
      <trkpt lat="45.81473" lon="1.84664">
        <ele>691.8</ele>
        <time>2026-07-09T08:48:54.000Z</time>
      </trkpt>
      <trkpt lat="45.81472" lon="1.84666">
        <ele>691.9</ele>
        <time>2026-07-09T08:48:55.000Z</time>
      </trkpt>
      <trkpt lat="45.81472" lon="1.84668">
        <ele>693</ele>
        <time>2026-07-09T08:48:56.000Z</time>
      </trkpt>
      <trkpt lat="45.81471" lon="1.8467">
        <ele>692.9</ele>
        <time>2026-07-09T08:48:57.000Z</time>
      </trkpt>
      <trkpt lat="45.8147" lon="1.84672">
        <ele>693.7</ele>
        <time>2026-07-09T08:48:58.000Z</time>
      </trkpt>
      <trkpt lat="45.81469" lon="1.84674">
        <ele>694.2</ele>
        <time>2026-07-09T08:48:59.000Z</time>
      </trkpt>
      <trkpt lat="45.81469" lon="1.84677">
        <ele>694.4</ele>
        <time>2026-07-09T08:49:00.000Z</time>
      </trkpt>
      <trkpt lat="45.81468" lon="1.84679">
        <ele>693.8</ele>
        <time>2026-07-09T08:49:01.000Z</time>
      </trkpt>
      <trkpt lat="45.81467" lon="1.84682">
        <ele>693.5</ele>
        <time>2026-07-09T08:49:02.000Z</time>
      </trkpt>
      <trkpt lat="45.81466" lon="1.84685">
        <ele>694.5</ele>
        <time>2026-07-09T08:49:03.000Z</time>
      </trkpt>
      <trkpt lat="45.81465" lon="1.84689">
        <ele>694.2</ele>
        <time>2026-07-09T08:49:04.000Z</time>
      </trkpt>
      <trkpt lat="45.81464" lon="1.84692">
        <ele>694.4</ele>
        <time>2026-07-09T08:49:05.000Z</time>
      </trkpt>
      <trkpt lat="45.81463" lon="1.84695">
        <ele>695.6</ele>
        <time>2026-07-09T08:49:06.000Z</time>
      </trkpt>
      <trkpt lat="45.81462" lon="1.84697">
        <ele>696</ele>
        <time>2026-07-09T08:49:07.000Z</time>
      </trkpt>
      <trkpt lat="45.81461" lon="1.847">
        <ele>695.8</ele>
        <time>2026-07-09T08:49:08.000Z</time>
      </trkpt>
      <trkpt lat="45.8146" lon="1.84702">
        <ele>696.1</ele>
        <time>2026-07-09T08:49:09.000Z</time>
      </trkpt>
      <trkpt lat="45.81459" lon="1.84704">
        <ele>696</ele>
        <time>2026-07-09T08:49:10.000Z</time>
      </trkpt>
      <trkpt lat="45.81458" lon="1.84706">
        <ele>696.6</ele>
        <time>2026-07-09T08:49:11.000Z</time>
      </trkpt>
      <trkpt lat="45.81457" lon="1.84708">
        <ele>696.5</ele>
        <time>2026-07-09T08:49:12.000Z</time>
      </trkpt>
      <trkpt lat="45.81456" lon="1.84709">
        <ele>696.6</ele>
        <time>2026-07-09T08:49:13.000Z</time>
      </trkpt>
      <trkpt lat="45.81455" lon="1.84711">
        <ele>697</ele>
        <time>2026-07-09T08:49:14.000Z</time>
      </trkpt>
      <trkpt lat="45.81454" lon="1.84711">
        <ele>698.1</ele>
        <time>2026-07-09T08:49:15.000Z</time>
      </trkpt>
      <trkpt lat="45.81453" lon="1.84712">
        <ele>698.5</ele>
        <time>2026-07-09T08:49:16.000Z</time>
      </trkpt>
      <trkpt lat="45.81452" lon="1.84713">
        <ele>698.8</ele>
        <time>2026-07-09T08:49:17.000Z</time>
      </trkpt>
      <trkpt lat="45.81451" lon="1.84714">
        <ele>699.1</ele>
        <time>2026-07-09T08:49:18.000Z</time>
      </trkpt>
      <trkpt lat="45.8145" lon="1.84714">
        <ele>699.6</ele>
        <time>2026-07-09T08:49:19.000Z</time>
      </trkpt>
      <trkpt lat="45.81448" lon="1.84715">
        <ele>700.2</ele>
        <time>2026-07-09T08:49:20.000Z</time>
      </trkpt>
      <trkpt lat="45.81447" lon="1.84715">
        <ele>700.4</ele>
        <time>2026-07-09T08:49:21.000Z</time>
      </trkpt>
      <trkpt lat="45.81446" lon="1.84716">
        <ele>699.6</ele>
        <time>2026-07-09T08:49:22.000Z</time>
      </trkpt>
      <trkpt lat="45.81444" lon="1.84717">
        <ele>700.6</ele>
        <time>2026-07-09T08:49:23.000Z</time>
      </trkpt>
      <trkpt lat="45.81443" lon="1.84718">
        <ele>701.1</ele>
        <time>2026-07-09T08:49:24.000Z</time>
      </trkpt>
      <trkpt lat="45.81441" lon="1.84719">
        <ele>701.3</ele>
        <time>2026-07-09T08:49:25.000Z</time>
      </trkpt>
      <trkpt lat="45.8144" lon="1.8472">
        <ele>701.5</ele>
        <time>2026-07-09T08:49:26.000Z</time>
      </trkpt>
      <trkpt lat="45.81439" lon="1.84721">
        <ele>701.6</ele>
        <time>2026-07-09T08:49:27.000Z</time>
      </trkpt>
      <trkpt lat="45.81438" lon="1.84722">
        <ele>701.3</ele>
        <time>2026-07-09T08:49:28.000Z</time>
      </trkpt>
      <trkpt lat="45.81437" lon="1.84724">
        <ele>702.2</ele>
        <time>2026-07-09T08:49:29.000Z</time>
      </trkpt>
      <trkpt lat="45.81436" lon="1.84725">
        <ele>702.9</ele>
        <time>2026-07-09T08:49:30.000Z</time>
      </trkpt>
      <trkpt lat="45.81435" lon="1.84727">
        <ele>703.1</ele>
        <time>2026-07-09T08:49:31.000Z</time>
      </trkpt>
      <trkpt lat="45.81435" lon="1.84729">
        <ele>702.7</ele>
        <time>2026-07-09T08:49:32.000Z</time>
      </trkpt>
      <trkpt lat="45.81434" lon="1.84731">
        <ele>703.1</ele>
        <time>2026-07-09T08:49:33.000Z</time>
      </trkpt>
      <trkpt lat="45.81433" lon="1.84733">
        <ele>703.5</ele>
        <time>2026-07-09T08:49:34.000Z</time>
      </trkpt>
      <trkpt lat="45.81433" lon="1.84735">
        <ele>704.5</ele>
        <time>2026-07-09T08:49:35.000Z</time>
      </trkpt>
      <trkpt lat="45.81433" lon="1.84737">
        <ele>705</ele>
        <time>2026-07-09T08:49:36.000Z</time>
      </trkpt>
      <trkpt lat="45.81432" lon="1.84739">
        <ele>705</ele>
        <time>2026-07-09T08:49:37.000Z</time>
      </trkpt>
      <trkpt lat="45.81432" lon="1.84741">
        <ele>705.3</ele>
        <time>2026-07-09T08:49:38.000Z</time>
      </trkpt>
      <trkpt lat="45.81432" lon="1.84744">
        <ele>703.9</ele>
        <time>2026-07-09T08:49:39.000Z</time>
      </trkpt>
      <trkpt lat="45.81432" lon="1.84746">
        <ele>703.7</ele>
        <time>2026-07-09T08:49:40.000Z</time>
      </trkpt>
      <trkpt lat="45.81431" lon="1.84749">
        <ele>703.2</ele>
        <time>2026-07-09T08:49:41.000Z</time>
      </trkpt>
      <trkpt lat="45.81431" lon="1.84751">
        <ele>703.5</ele>
        <time>2026-07-09T08:49:42.000Z</time>
      </trkpt>
      <trkpt lat="45.81431" lon="1.84753">
        <ele>703.9</ele>
        <time>2026-07-09T08:49:43.000Z</time>
      </trkpt>
      <trkpt lat="45.8143" lon="1.84756">
        <ele>705.1</ele>
        <time>2026-07-09T08:49:44.000Z</time>
      </trkpt>
      <trkpt lat="45.8143" lon="1.84758">
        <ele>704.9</ele>
        <time>2026-07-09T08:49:45.000Z</time>
      </trkpt>
      <trkpt lat="45.8143" lon="1.8476">
        <ele>705.7</ele>
        <time>2026-07-09T08:49:46.000Z</time>
      </trkpt>
      <trkpt lat="45.8143" lon="1.84762">
        <ele>705.8</ele>
        <time>2026-07-09T08:49:47.000Z</time>
      </trkpt>
      <trkpt lat="45.8143" lon="1.84764">
        <ele>705.6</ele>
        <time>2026-07-09T08:49:48.000Z</time>
      </trkpt>
      <trkpt lat="45.8143" lon="1.84767">
        <ele>705.6</ele>
        <time>2026-07-09T08:49:49.000Z</time>
      </trkpt>
      <trkpt lat="45.81431" lon="1.84769">
        <ele>704.9</ele>
        <time>2026-07-09T08:49:50.000Z</time>
      </trkpt>
      <trkpt lat="45.81431" lon="1.84771">
        <ele>704.7</ele>
        <time>2026-07-09T08:49:51.000Z</time>
      </trkpt>
      <trkpt lat="45.81431" lon="1.84773">
        <ele>704.9</ele>
        <time>2026-07-09T08:49:52.000Z</time>
      </trkpt>
      <trkpt lat="45.81431" lon="1.84776">
        <ele>704.7</ele>
        <time>2026-07-09T08:49:53.000Z</time>
      </trkpt>
      <trkpt lat="45.81431" lon="1.84778">
        <ele>705.3</ele>
        <time>2026-07-09T08:49:54.000Z</time>
      </trkpt>
      <trkpt lat="45.81431" lon="1.84781">
        <ele>705.8</ele>
        <time>2026-07-09T08:49:55.000Z</time>
      </trkpt>
      <trkpt lat="45.81431" lon="1.84783">
        <ele>706.1</ele>
        <time>2026-07-09T08:49:56.000Z</time>
      </trkpt>
      <trkpt lat="45.81431" lon="1.84785">
        <ele>705.1</ele>
        <time>2026-07-09T08:49:57.000Z</time>
      </trkpt>
      <trkpt lat="45.81431" lon="1.84788">
        <ele>705.6</ele>
        <time>2026-07-09T08:49:58.000Z</time>
      </trkpt>
      <trkpt lat="45.8143" lon="1.8479">
        <ele>705.3</ele>
        <time>2026-07-09T08:49:59.000Z</time>
      </trkpt>
      <trkpt lat="45.81429" lon="1.84792">
        <ele>706.2</ele>
        <time>2026-07-09T08:50:00.000Z</time>
      </trkpt>
      <trkpt lat="45.81428" lon="1.84794">
        <ele>707.4</ele>
        <time>2026-07-09T08:50:01.000Z</time>
      </trkpt>
      <trkpt lat="45.81427" lon="1.84796">
        <ele>707.8</ele>
        <time>2026-07-09T08:50:02.000Z</time>
      </trkpt>
      <trkpt lat="45.81427" lon="1.84799">
        <ele>709</ele>
        <time>2026-07-09T08:50:03.000Z</time>
      </trkpt>
      <trkpt lat="45.81426" lon="1.84801">
        <ele>710</ele>
        <time>2026-07-09T08:50:04.000Z</time>
      </trkpt>
      <trkpt lat="45.81425" lon="1.84804">
        <ele>710.2</ele>
        <time>2026-07-09T08:50:05.000Z</time>
      </trkpt>
      <trkpt lat="45.81424" lon="1.84806">
        <ele>710.2</ele>
        <time>2026-07-09T08:50:06.000Z</time>
      </trkpt>
      <trkpt lat="45.81424" lon="1.84807">
        <ele>711.5</ele>
        <time>2026-07-09T08:50:07.000Z</time>
      </trkpt>
      <trkpt lat="45.81423" lon="1.84809">
        <ele>710.9</ele>
        <time>2026-07-09T08:50:08.000Z</time>
      </trkpt>
      <trkpt lat="45.81422" lon="1.84811">
        <ele>711.4</ele>
        <time>2026-07-09T08:50:09.000Z</time>
      </trkpt>
      <trkpt lat="45.81422" lon="1.84813">
        <ele>711.5</ele>
        <time>2026-07-09T08:50:10.000Z</time>
      </trkpt>
      <trkpt lat="45.8142" lon="1.84816">
        <ele>711.2</ele>
        <time>2026-07-09T08:50:11.000Z</time>
      </trkpt>
      <trkpt lat="45.8142" lon="1.84818">
        <ele>711.6</ele>
        <time>2026-07-09T08:50:12.000Z</time>
      </trkpt>
      <trkpt lat="45.81418" lon="1.8482">
        <ele>713</ele>
        <time>2026-07-09T08:50:13.000Z</time>
      </trkpt>
      <trkpt lat="45.81418" lon="1.84822">
        <ele>714.4</ele>
        <time>2026-07-09T08:50:14.000Z</time>
      </trkpt>
      <trkpt lat="45.81417" lon="1.84824">
        <ele>715.2</ele>
        <time>2026-07-09T08:50:15.000Z</time>
      </trkpt>
      <trkpt lat="45.81416" lon="1.84826">
        <ele>716</ele>
        <time>2026-07-09T08:50:16.000Z</time>
      </trkpt>
      <trkpt lat="45.81415" lon="1.84828">
        <ele>715.4</ele>
        <time>2026-07-09T08:50:17.000Z</time>
      </trkpt>
      <trkpt lat="45.81414" lon="1.8483">
        <ele>715.7</ele>
        <time>2026-07-09T08:50:18.000Z</time>
      </trkpt>
      <trkpt lat="45.81414" lon="1.84832">
        <ele>715.3</ele>
        <time>2026-07-09T08:50:19.000Z</time>
      </trkpt>
      <trkpt lat="45.81413" lon="1.84833">
        <ele>716.7</ele>
        <time>2026-07-09T08:50:20.000Z</time>
      </trkpt>
      <trkpt lat="45.81412" lon="1.84835">
        <ele>716.8</ele>
        <time>2026-07-09T08:50:21.000Z</time>
      </trkpt>
      <trkpt lat="45.81411" lon="1.84837">
        <ele>717.1</ele>
        <time>2026-07-09T08:50:22.000Z</time>
      </trkpt>
      <trkpt lat="45.8141" lon="1.84839">
        <ele>716</ele>
        <time>2026-07-09T08:50:23.000Z</time>
      </trkpt>
      <trkpt lat="45.81409" lon="1.84841">
        <ele>715.3</ele>
        <time>2026-07-09T08:50:24.000Z</time>
      </trkpt>
      <trkpt lat="45.81408" lon="1.84843">
        <ele>715.3</ele>
        <time>2026-07-09T08:50:25.000Z</time>
      </trkpt>
      <trkpt lat="45.81408" lon="1.84845">
        <ele>715.3</ele>
        <time>2026-07-09T08:50:26.000Z</time>
      </trkpt>
      <trkpt lat="45.81407" lon="1.84847">
        <ele>715.2</ele>
        <time>2026-07-09T08:50:27.000Z</time>
      </trkpt>
      <trkpt lat="45.81407" lon="1.84848">
        <ele>714.8</ele>
        <time>2026-07-09T08:50:28.000Z</time>
      </trkpt>
      <trkpt lat="45.81406" lon="1.8485">
        <ele>715.5</ele>
        <time>2026-07-09T08:50:29.000Z</time>
      </trkpt>
      <trkpt lat="45.81405" lon="1.84852">
        <ele>714.2</ele>
        <time>2026-07-09T08:50:30.000Z</time>
      </trkpt>
      <trkpt lat="45.81404" lon="1.84854">
        <ele>713.7</ele>
        <time>2026-07-09T08:50:31.000Z</time>
      </trkpt>
      <trkpt lat="45.81403" lon="1.84856">
        <ele>713.9</ele>
        <time>2026-07-09T08:50:32.000Z</time>
      </trkpt>
      <trkpt lat="45.81403" lon="1.84858">
        <ele>713.6</ele>
        <time>2026-07-09T08:50:33.000Z</time>
      </trkpt>
      <trkpt lat="45.81402" lon="1.8486">
        <ele>714.4</ele>
        <time>2026-07-09T08:50:34.000Z</time>
      </trkpt>
      <trkpt lat="45.81402" lon="1.8486">
        <ele>714.6</ele>
        <time>2026-07-09T08:50:35.000Z</time>
      </trkpt>
      <trkpt lat="45.81401" lon="1.84862">
        <ele>715.6</ele>
        <time>2026-07-09T08:50:36.000Z</time>
      </trkpt>
      <trkpt lat="45.81401" lon="1.84863">
        <ele>715.3</ele>
        <time>2026-07-09T08:50:37.000Z</time>
      </trkpt>
      <trkpt lat="45.814" lon="1.84866">
        <ele>715.9</ele>
        <time>2026-07-09T08:50:38.000Z</time>
      </trkpt>
      <trkpt lat="45.814" lon="1.84868">
        <ele>716.3</ele>
        <time>2026-07-09T08:50:39.000Z</time>
      </trkpt>
      <trkpt lat="45.81399" lon="1.8487">
        <ele>716</ele>
        <time>2026-07-09T08:50:40.000Z</time>
      </trkpt>
      <trkpt lat="45.81399" lon="1.84872">
        <ele>715</ele>
        <time>2026-07-09T08:50:41.000Z</time>
      </trkpt>
      <trkpt lat="45.81398" lon="1.84874">
        <ele>714.7</ele>
        <time>2026-07-09T08:50:42.000Z</time>
      </trkpt>
      <trkpt lat="45.81398" lon="1.84876">
        <ele>714.8</ele>
        <time>2026-07-09T08:50:43.000Z</time>
      </trkpt>
      <trkpt lat="45.81398" lon="1.84878">
        <ele>714.8</ele>
        <time>2026-07-09T08:50:44.000Z</time>
      </trkpt>
      <trkpt lat="45.81397" lon="1.8488">
        <ele>714.1</ele>
        <time>2026-07-09T08:50:45.000Z</time>
      </trkpt>
      <trkpt lat="45.81396" lon="1.84882">
        <ele>714.5</ele>
        <time>2026-07-09T08:50:46.000Z</time>
      </trkpt>
      <trkpt lat="45.81396" lon="1.84885">
        <ele>714.7</ele>
        <time>2026-07-09T08:50:47.000Z</time>
      </trkpt>
      <trkpt lat="45.81395" lon="1.84887">
        <ele>714.2</ele>
        <time>2026-07-09T08:50:48.000Z</time>
      </trkpt>
      <trkpt lat="45.81394" lon="1.84888">
        <ele>713.7</ele>
        <time>2026-07-09T08:50:49.000Z</time>
      </trkpt>
      <trkpt lat="45.81393" lon="1.8489">
        <ele>713.9</ele>
        <time>2026-07-09T08:50:50.000Z</time>
      </trkpt>
      <trkpt lat="45.81392" lon="1.84891">
        <ele>713.4</ele>
        <time>2026-07-09T08:50:51.000Z</time>
      </trkpt>
      <trkpt lat="45.81392" lon="1.84892">
        <ele>713.5</ele>
        <time>2026-07-09T08:50:52.000Z</time>
      </trkpt>
      <trkpt lat="45.81391" lon="1.84894">
        <ele>713.3</ele>
        <time>2026-07-09T08:50:53.000Z</time>
      </trkpt>
      <trkpt lat="45.8139" lon="1.84895">
        <ele>713.9</ele>
        <time>2026-07-09T08:50:54.000Z</time>
      </trkpt>
      <trkpt lat="45.81389" lon="1.84897">
        <ele>713.8</ele>
        <time>2026-07-09T08:50:55.000Z</time>
      </trkpt>
      <trkpt lat="45.81389" lon="1.84899">
        <ele>713.5</ele>
        <time>2026-07-09T08:50:56.000Z</time>
      </trkpt>
      <trkpt lat="45.81388" lon="1.849">
        <ele>712.9</ele>
        <time>2026-07-09T08:50:57.000Z</time>
      </trkpt>
      <trkpt lat="45.81387" lon="1.84902">
        <ele>712.3</ele>
        <time>2026-07-09T08:50:58.000Z</time>
      </trkpt>
      <trkpt lat="45.81386" lon="1.84903">
        <ele>711.3</ele>
        <time>2026-07-09T08:50:59.000Z</time>
      </trkpt>
      <trkpt lat="45.81386" lon="1.84905">
        <ele>711.8</ele>
        <time>2026-07-09T08:51:00.000Z</time>
      </trkpt>
      <trkpt lat="45.81385" lon="1.84906">
        <ele>711.7</ele>
        <time>2026-07-09T08:51:01.000Z</time>
      </trkpt>
      <trkpt lat="45.81384" lon="1.84908">
        <ele>711.1</ele>
        <time>2026-07-09T08:51:02.000Z</time>
      </trkpt>
      <trkpt lat="45.81383" lon="1.8491">
        <ele>710.8</ele>
        <time>2026-07-09T08:51:03.000Z</time>
      </trkpt>
      <trkpt lat="45.81381" lon="1.84911">
        <ele>711.9</ele>
        <time>2026-07-09T08:51:04.000Z</time>
      </trkpt>
      <trkpt lat="45.8138" lon="1.84912">
        <ele>712.8</ele>
        <time>2026-07-09T08:51:05.000Z</time>
      </trkpt>
      <trkpt lat="45.81378" lon="1.84913">
        <ele>713.3</ele>
        <time>2026-07-09T08:51:06.000Z</time>
      </trkpt>
      <trkpt lat="45.81377" lon="1.84915">
        <ele>713.8</ele>
        <time>2026-07-09T08:51:07.000Z</time>
      </trkpt>
      <trkpt lat="45.81376" lon="1.84916">
        <ele>713.2</ele>
        <time>2026-07-09T08:51:08.000Z</time>
      </trkpt>
      <trkpt lat="45.81376" lon="1.84918">
        <ele>713.7</ele>
        <time>2026-07-09T08:51:09.000Z</time>
      </trkpt>
      <trkpt lat="45.81375" lon="1.8492">
        <ele>713.8</ele>
        <time>2026-07-09T08:51:10.000Z</time>
      </trkpt>
      <trkpt lat="45.81374" lon="1.84921">
        <ele>713.9</ele>
        <time>2026-07-09T08:51:11.000Z</time>
      </trkpt>
      <trkpt lat="45.81373" lon="1.84923">
        <ele>713.6</ele>
        <time>2026-07-09T08:51:12.000Z</time>
      </trkpt>
      <trkpt lat="45.81372" lon="1.84925">
        <ele>713.5</ele>
        <time>2026-07-09T08:51:13.000Z</time>
      </trkpt>
      <trkpt lat="45.81371" lon="1.84926">
        <ele>713</ele>
        <time>2026-07-09T08:51:14.000Z</time>
      </trkpt>
      <trkpt lat="45.81369" lon="1.84927">
        <ele>712.5</ele>
        <time>2026-07-09T08:51:15.000Z</time>
      </trkpt>
      <trkpt lat="45.81368" lon="1.84928">
        <ele>712.2</ele>
        <time>2026-07-09T08:51:16.000Z</time>
      </trkpt>
      <trkpt lat="45.81367" lon="1.84929">
        <ele>711.9</ele>
        <time>2026-07-09T08:51:17.000Z</time>
      </trkpt>
      <trkpt lat="45.81366" lon="1.8493">
        <ele>712.2</ele>
        <time>2026-07-09T08:51:18.000Z</time>
      </trkpt>
      <trkpt lat="45.81365" lon="1.84931">
        <ele>712.5</ele>
        <time>2026-07-09T08:51:19.000Z</time>
      </trkpt>
      <trkpt lat="45.81364" lon="1.84934">
        <ele>714.7</ele>
        <time>2026-07-09T08:51:20.000Z</time>
      </trkpt>
      <trkpt lat="45.81363" lon="1.84936">
        <ele>714.5</ele>
        <time>2026-07-09T08:51:21.000Z</time>
      </trkpt>
      <trkpt lat="45.81362" lon="1.84937">
        <ele>715.1</ele>
        <time>2026-07-09T08:51:22.000Z</time>
      </trkpt>
      <trkpt lat="45.81361" lon="1.84939">
        <ele>714.7</ele>
        <time>2026-07-09T08:51:23.000Z</time>
      </trkpt>
      <trkpt lat="45.81359" lon="1.8494">
        <ele>714.7</ele>
        <time>2026-07-09T08:51:24.000Z</time>
      </trkpt>
      <trkpt lat="45.81358" lon="1.84941">
        <ele>714.6</ele>
        <time>2026-07-09T08:51:25.000Z</time>
      </trkpt>
      <trkpt lat="45.81356" lon="1.8494">
        <ele>713.9</ele>
        <time>2026-07-09T08:51:26.000Z</time>
      </trkpt>
      <trkpt lat="45.81353" lon="1.84944">
        <ele>714.3</ele>
        <time>2026-07-09T08:51:27.000Z</time>
      </trkpt>
      <trkpt lat="45.81352" lon="1.84943">
        <ele>715</ele>
        <time>2026-07-09T08:51:28.000Z</time>
      </trkpt>
      <trkpt lat="45.8135" lon="1.84943">
        <ele>714.5</ele>
        <time>2026-07-09T08:51:29.000Z</time>
      </trkpt>
      <trkpt lat="45.81348" lon="1.84942">
        <ele>713.8</ele>
        <time>2026-07-09T08:51:30.000Z</time>
      </trkpt>
      <trkpt lat="45.81347" lon="1.84942">
        <ele>713</ele>
        <time>2026-07-09T08:51:31.000Z</time>
      </trkpt>
      <trkpt lat="45.81346" lon="1.84943">
        <ele>712.9</ele>
        <time>2026-07-09T08:51:32.000Z</time>
      </trkpt>
      <trkpt lat="45.81344" lon="1.84944">
        <ele>711.6</ele>
        <time>2026-07-09T08:51:33.000Z</time>
      </trkpt>
      <trkpt lat="45.81342" lon="1.84944">
        <ele>711</ele>
        <time>2026-07-09T08:51:34.000Z</time>
      </trkpt>
      <trkpt lat="45.81341" lon="1.84946">
        <ele>711</ele>
        <time>2026-07-09T08:51:35.000Z</time>
      </trkpt>
      <trkpt lat="45.8134" lon="1.84947">
        <ele>711</ele>
        <time>2026-07-09T08:51:36.000Z</time>
      </trkpt>
      <trkpt lat="45.81339" lon="1.84949">
        <ele>711.4</ele>
        <time>2026-07-09T08:51:37.000Z</time>
      </trkpt>
      <trkpt lat="45.81339" lon="1.8495">
        <ele>711.7</ele>
        <time>2026-07-09T08:51:38.000Z</time>
      </trkpt>
      <trkpt lat="45.81339" lon="1.84951">
        <ele>711.9</ele>
        <time>2026-07-09T08:51:39.000Z</time>
      </trkpt>
      <trkpt lat="45.81338" lon="1.84951">
        <ele>712</ele>
        <time>2026-07-09T08:51:40.000Z</time>
      </trkpt>
      <trkpt lat="45.81336" lon="1.84952">
        <ele>712.3</ele>
        <time>2026-07-09T08:51:41.000Z</time>
      </trkpt>
      <trkpt lat="45.81335" lon="1.84953">
        <ele>712.8</ele>
        <time>2026-07-09T08:51:42.000Z</time>
      </trkpt>
      <trkpt lat="45.81334" lon="1.84954">
        <ele>712.7</ele>
        <time>2026-07-09T08:51:43.000Z</time>
      </trkpt>
      <trkpt lat="45.81333" lon="1.84955">
        <ele>712.9</ele>
        <time>2026-07-09T08:51:44.000Z</time>
      </trkpt>
      <trkpt lat="45.81332" lon="1.84955">
        <ele>713.1</ele>
        <time>2026-07-09T08:51:45.000Z</time>
      </trkpt>
      <trkpt lat="45.81333" lon="1.84955">
        <ele>713.1</ele>
        <time>2026-07-09T08:51:46.000Z</time>
      </trkpt>
      <trkpt lat="45.81333" lon="1.84956">
        <ele>713.3</ele>
        <time>2026-07-09T08:51:47.000Z</time>
      </trkpt>
      <trkpt lat="45.81333" lon="1.84956">
        <ele>713.3</ele>
        <time>2026-07-09T08:51:48.000Z</time>
      </trkpt>
      <trkpt lat="45.81333" lon="1.84956">
        <ele>713.4</ele>
        <time>2026-07-09T08:51:49.000Z</time>
      </trkpt>
      <trkpt lat="45.81333" lon="1.84957">
        <ele>713.8</ele>
        <time>2026-07-09T08:51:50.000Z</time>
      </trkpt>
      <trkpt lat="45.81332" lon="1.84958">
        <ele>714.2</ele>
        <time>2026-07-09T08:51:51.000Z</time>
      </trkpt>
      <trkpt lat="45.81331" lon="1.8496">
        <ele>714.3</ele>
        <time>2026-07-09T08:51:52.000Z</time>
      </trkpt>
      <trkpt lat="45.81332" lon="1.8496">
        <ele>714.3</ele>
        <time>2026-07-09T08:51:53.000Z</time>
      </trkpt>
      <trkpt lat="45.81332" lon="1.84961">
        <ele>714</ele>
        <time>2026-07-09T08:51:54.000Z</time>
      </trkpt>
      <trkpt lat="45.81332" lon="1.84962">
        <ele>713.8</ele>
        <time>2026-07-09T08:51:55.000Z</time>
      </trkpt>
      <trkpt lat="45.81332" lon="1.84964">
        <ele>714</ele>
        <time>2026-07-09T08:51:56.000Z</time>
      </trkpt>
      <trkpt lat="45.81332" lon="1.84967">
        <ele>713.8</ele>
        <time>2026-07-09T08:51:57.000Z</time>
      </trkpt>
      <trkpt lat="45.81332" lon="1.84969">
        <ele>713.7</ele>
        <time>2026-07-09T08:51:58.000Z</time>
      </trkpt>
      <trkpt lat="45.81332" lon="1.84972">
        <ele>713.6</ele>
        <time>2026-07-09T08:51:59.000Z</time>
      </trkpt>
      <trkpt lat="45.81332" lon="1.84974">
        <ele>713.3</ele>
        <time>2026-07-09T08:52:00.000Z</time>
      </trkpt>
      <trkpt lat="45.81332" lon="1.84976">
        <ele>713</ele>
        <time>2026-07-09T08:52:01.000Z</time>
      </trkpt>
      <trkpt lat="45.81332" lon="1.84978">
        <ele>713.3</ele>
        <time>2026-07-09T08:52:02.000Z</time>
      </trkpt>
      <trkpt lat="45.81332" lon="1.8498">
        <ele>713</ele>
        <time>2026-07-09T08:52:03.000Z</time>
      </trkpt>
      <trkpt lat="45.81332" lon="1.84982">
        <ele>712.8</ele>
        <time>2026-07-09T08:52:04.000Z</time>
      </trkpt>
      <trkpt lat="45.81332" lon="1.84984">
        <ele>712.5</ele>
        <time>2026-07-09T08:52:05.000Z</time>
      </trkpt>
      <trkpt lat="45.81333" lon="1.84986">
        <ele>712.4</ele>
        <time>2026-07-09T08:52:06.000Z</time>
      </trkpt>
      <trkpt lat="45.81333" lon="1.84988">
        <ele>712.3</ele>
        <time>2026-07-09T08:52:07.000Z</time>
      </trkpt>
      <trkpt lat="45.81333" lon="1.8499">
        <ele>712</ele>
        <time>2026-07-09T08:52:08.000Z</time>
      </trkpt>
      <trkpt lat="45.81333" lon="1.84992">
        <ele>711.8</ele>
        <time>2026-07-09T08:52:09.000Z</time>
      </trkpt>
      <trkpt lat="45.81333" lon="1.84994">
        <ele>710.9</ele>
        <time>2026-07-09T08:52:10.000Z</time>
      </trkpt>
      <trkpt lat="45.81333" lon="1.84996">
        <ele>710.7</ele>
        <time>2026-07-09T08:52:11.000Z</time>
      </trkpt>
      <trkpt lat="45.81332" lon="1.85">
        <ele>711.8</ele>
        <time>2026-07-09T08:52:12.000Z</time>
      </trkpt>
      <trkpt lat="45.81331" lon="1.85003">
        <ele>711.4</ele>
        <time>2026-07-09T08:52:13.000Z</time>
      </trkpt>
      <trkpt lat="45.8133" lon="1.85006">
        <ele>711.5</ele>
        <time>2026-07-09T08:52:14.000Z</time>
      </trkpt>
      <trkpt lat="45.8133" lon="1.85008">
        <ele>711.7</ele>
        <time>2026-07-09T08:52:15.000Z</time>
      </trkpt>
      <trkpt lat="45.81329" lon="1.8501">
        <ele>711.7</ele>
        <time>2026-07-09T08:52:16.000Z</time>
      </trkpt>
      <trkpt lat="45.81329" lon="1.85013">
        <ele>711.2</ele>
        <time>2026-07-09T08:52:17.000Z</time>
      </trkpt>
      <trkpt lat="45.81329" lon="1.85015">
        <ele>711.2</ele>
        <time>2026-07-09T08:52:18.000Z</time>
      </trkpt>
      <trkpt lat="45.81329" lon="1.85018">
        <ele>711.2</ele>
        <time>2026-07-09T08:52:19.000Z</time>
      </trkpt>
      <trkpt lat="45.81328" lon="1.8502">
        <ele>711.1</ele>
        <time>2026-07-09T08:52:20.000Z</time>
      </trkpt>
      <trkpt lat="45.81327" lon="1.85023">
        <ele>711.3</ele>
        <time>2026-07-09T08:52:21.000Z</time>
      </trkpt>
      <trkpt lat="45.81327" lon="1.85026">
        <ele>711.3</ele>
        <time>2026-07-09T08:52:22.000Z</time>
      </trkpt>
      <trkpt lat="45.81326" lon="1.85028">
        <ele>710.9</ele>
        <time>2026-07-09T08:52:23.000Z</time>
      </trkpt>
      <trkpt lat="45.81326" lon="1.85031">
        <ele>711.7</ele>
        <time>2026-07-09T08:52:24.000Z</time>
      </trkpt>
      <trkpt lat="45.81326" lon="1.85033">
        <ele>712.8</ele>
        <time>2026-07-09T08:52:25.000Z</time>
      </trkpt>
      <trkpt lat="45.81327" lon="1.85035">
        <ele>711.4</ele>
        <time>2026-07-09T08:52:26.000Z</time>
      </trkpt>
      <trkpt lat="45.81327" lon="1.85038">
        <ele>712.6</ele>
        <time>2026-07-09T08:52:27.000Z</time>
      </trkpt>
      <trkpt lat="45.81327" lon="1.8504">
        <ele>713.4</ele>
        <time>2026-07-09T08:52:28.000Z</time>
      </trkpt>
      <trkpt lat="45.81328" lon="1.85043">
        <ele>713.9</ele>
        <time>2026-07-09T08:52:29.000Z</time>
      </trkpt>
      <trkpt lat="45.81328" lon="1.85045">
        <ele>714.2</ele>
        <time>2026-07-09T08:52:30.000Z</time>
      </trkpt>
      <trkpt lat="45.81328" lon="1.85047">
        <ele>714.8</ele>
        <time>2026-07-09T08:52:31.000Z</time>
      </trkpt>
      <trkpt lat="45.81328" lon="1.85049">
        <ele>715.5</ele>
        <time>2026-07-09T08:52:32.000Z</time>
      </trkpt>
      <trkpt lat="45.81328" lon="1.85052">
        <ele>715.6</ele>
        <time>2026-07-09T08:52:33.000Z</time>
      </trkpt>
      <trkpt lat="45.81329" lon="1.85054">
        <ele>714.6</ele>
        <time>2026-07-09T08:52:34.000Z</time>
      </trkpt>
      <trkpt lat="45.81328" lon="1.85056">
        <ele>715.3</ele>
        <time>2026-07-09T08:52:35.000Z</time>
      </trkpt>
      <trkpt lat="45.81329" lon="1.85059">
        <ele>714.9</ele>
        <time>2026-07-09T08:52:36.000Z</time>
      </trkpt>
      <trkpt lat="45.81329" lon="1.85062">
        <ele>714</ele>
        <time>2026-07-09T08:52:37.000Z</time>
      </trkpt>
      <trkpt lat="45.81329" lon="1.85064">
        <ele>714.1</ele>
        <time>2026-07-09T08:52:38.000Z</time>
      </trkpt>
      <trkpt lat="45.81329" lon="1.85066">
        <ele>712.7</ele>
        <time>2026-07-09T08:52:39.000Z</time>
      </trkpt>
      <trkpt lat="45.81329" lon="1.85069">
        <ele>712.1</ele>
        <time>2026-07-09T08:52:40.000Z</time>
      </trkpt>
      <trkpt lat="45.81329" lon="1.85071">
        <ele>711.2</ele>
        <time>2026-07-09T08:52:41.000Z</time>
      </trkpt>
      <trkpt lat="45.8133" lon="1.85073">
        <ele>710.9</ele>
        <time>2026-07-09T08:52:42.000Z</time>
      </trkpt>
      <trkpt lat="45.8133" lon="1.85075">
        <ele>710.7</ele>
        <time>2026-07-09T08:52:43.000Z</time>
      </trkpt>
      <trkpt lat="45.81331" lon="1.85076">
        <ele>709</ele>
        <time>2026-07-09T08:52:44.000Z</time>
      </trkpt>
      <trkpt lat="45.81331" lon="1.85078">
        <ele>708.2</ele>
        <time>2026-07-09T08:52:45.000Z</time>
      </trkpt>
      <trkpt lat="45.81331" lon="1.8508">
        <ele>707</ele>
        <time>2026-07-09T08:52:46.000Z</time>
      </trkpt>
      <trkpt lat="45.81333" lon="1.85082">
        <ele>707</ele>
        <time>2026-07-09T08:52:47.000Z</time>
      </trkpt>
      <trkpt lat="45.81334" lon="1.85085">
        <ele>706.8</ele>
        <time>2026-07-09T08:52:48.000Z</time>
      </trkpt>
      <trkpt lat="45.81336" lon="1.85087">
        <ele>706.6</ele>
        <time>2026-07-09T08:52:49.000Z</time>
      </trkpt>
      <trkpt lat="45.81337" lon="1.85089">
        <ele>706.4</ele>
        <time>2026-07-09T08:52:50.000Z</time>
      </trkpt>
      <trkpt lat="45.81339" lon="1.8509">
        <ele>705.9</ele>
        <time>2026-07-09T08:52:51.000Z</time>
      </trkpt>
      <trkpt lat="45.8134" lon="1.85091">
        <ele>705.2</ele>
        <time>2026-07-09T08:52:52.000Z</time>
      </trkpt>
      <trkpt lat="45.81342" lon="1.85093">
        <ele>705.8</ele>
        <time>2026-07-09T08:52:53.000Z</time>
      </trkpt>
      <trkpt lat="45.81344" lon="1.85094">
        <ele>706.2</ele>
        <time>2026-07-09T08:52:54.000Z</time>
      </trkpt>
      <trkpt lat="45.81345" lon="1.85096">
        <ele>706.2</ele>
        <time>2026-07-09T08:52:55.000Z</time>
      </trkpt>
      <trkpt lat="45.81347" lon="1.85097">
        <ele>706</ele>
        <time>2026-07-09T08:52:56.000Z</time>
      </trkpt>
      <trkpt lat="45.81348" lon="1.85097">
        <ele>706</ele>
        <time>2026-07-09T08:52:57.000Z</time>
      </trkpt>
      <trkpt lat="45.8135" lon="1.85098">
        <ele>706.2</ele>
        <time>2026-07-09T08:52:58.000Z</time>
      </trkpt>
      <trkpt lat="45.81352" lon="1.85098">
        <ele>706.6</ele>
        <time>2026-07-09T08:52:59.000Z</time>
      </trkpt>
      <trkpt lat="45.81354" lon="1.85099">
        <ele>706.7</ele>
        <time>2026-07-09T08:53:00.000Z</time>
      </trkpt>
      <trkpt lat="45.81355" lon="1.851">
        <ele>706.8</ele>
        <time>2026-07-09T08:53:01.000Z</time>
      </trkpt>
      <trkpt lat="45.81357" lon="1.85101">
        <ele>707.1</ele>
        <time>2026-07-09T08:53:02.000Z</time>
      </trkpt>
      <trkpt lat="45.81359" lon="1.85102">
        <ele>707.1</ele>
        <time>2026-07-09T08:53:03.000Z</time>
      </trkpt>
      <trkpt lat="45.8136" lon="1.85103">
        <ele>706.8</ele>
        <time>2026-07-09T08:53:04.000Z</time>
      </trkpt>
      <trkpt lat="45.81361" lon="1.85104">
        <ele>706.6</ele>
        <time>2026-07-09T08:53:05.000Z</time>
      </trkpt>
      <trkpt lat="45.81363" lon="1.85105">
        <ele>706.8</ele>
        <time>2026-07-09T08:53:06.000Z</time>
      </trkpt>
      <trkpt lat="45.81364" lon="1.85106">
        <ele>707</ele>
        <time>2026-07-09T08:53:07.000Z</time>
      </trkpt>
      <trkpt lat="45.81366" lon="1.85108">
        <ele>707.2</ele>
        <time>2026-07-09T08:53:08.000Z</time>
      </trkpt>
      <trkpt lat="45.81367" lon="1.85109">
        <ele>707.2</ele>
        <time>2026-07-09T08:53:09.000Z</time>
      </trkpt>
      <trkpt lat="45.81368" lon="1.85111">
        <ele>707.1</ele>
        <time>2026-07-09T08:53:10.000Z</time>
      </trkpt>
      <trkpt lat="45.81369" lon="1.85113">
        <ele>707.2</ele>
        <time>2026-07-09T08:53:11.000Z</time>
      </trkpt>
      <trkpt lat="45.81369" lon="1.85115">
        <ele>706.9</ele>
        <time>2026-07-09T08:53:12.000Z</time>
      </trkpt>
      <trkpt lat="45.8137" lon="1.85116">
        <ele>707.3</ele>
        <time>2026-07-09T08:53:13.000Z</time>
      </trkpt>
      <trkpt lat="45.81371" lon="1.85118">
        <ele>707.3</ele>
        <time>2026-07-09T08:53:14.000Z</time>
      </trkpt>
      <trkpt lat="45.81372" lon="1.8512">
        <ele>707.6</ele>
        <time>2026-07-09T08:53:15.000Z</time>
      </trkpt>
      <trkpt lat="45.81373" lon="1.85121">
        <ele>707.6</ele>
        <time>2026-07-09T08:53:16.000Z</time>
      </trkpt>
      <trkpt lat="45.81374" lon="1.85123">
        <ele>707.4</ele>
        <time>2026-07-09T08:53:17.000Z</time>
      </trkpt>
      <trkpt lat="45.81375" lon="1.85124">
        <ele>706.9</ele>
        <time>2026-07-09T08:53:18.000Z</time>
      </trkpt>
      <trkpt lat="45.81376" lon="1.85126">
        <ele>706.6</ele>
        <time>2026-07-09T08:53:19.000Z</time>
      </trkpt>
      <trkpt lat="45.81377" lon="1.85128">
        <ele>706.5</ele>
        <time>2026-07-09T08:53:20.000Z</time>
      </trkpt>
      <trkpt lat="45.81378" lon="1.85129">
        <ele>706.5</ele>
        <time>2026-07-09T08:53:21.000Z</time>
      </trkpt>
      <trkpt lat="45.81379" lon="1.85131">
        <ele>706.5</ele>
        <time>2026-07-09T08:53:22.000Z</time>
      </trkpt>
      <trkpt lat="45.8138" lon="1.85132">
        <ele>706.4</ele>
        <time>2026-07-09T08:53:23.000Z</time>
      </trkpt>
      <trkpt lat="45.81381" lon="1.85134">
        <ele>706.5</ele>
        <time>2026-07-09T08:53:24.000Z</time>
      </trkpt>
      <trkpt lat="45.81382" lon="1.85135">
        <ele>706.6</ele>
        <time>2026-07-09T08:53:25.000Z</time>
      </trkpt>
      <trkpt lat="45.81383" lon="1.85136">
        <ele>706.5</ele>
        <time>2026-07-09T08:53:26.000Z</time>
      </trkpt>
      <trkpt lat="45.81385" lon="1.85138">
        <ele>706.3</ele>
        <time>2026-07-09T08:53:27.000Z</time>
      </trkpt>
      <trkpt lat="45.81386" lon="1.85139">
        <ele>706.1</ele>
        <time>2026-07-09T08:53:28.000Z</time>
      </trkpt>
      <trkpt lat="45.81387" lon="1.85141">
        <ele>706</ele>
        <time>2026-07-09T08:53:29.000Z</time>
      </trkpt>
      <trkpt lat="45.81388" lon="1.85143">
        <ele>706.1</ele>
        <time>2026-07-09T08:53:30.000Z</time>
      </trkpt>
      <trkpt lat="45.81389" lon="1.85145">
        <ele>706.3</ele>
        <time>2026-07-09T08:53:31.000Z</time>
      </trkpt>
      <trkpt lat="45.8139" lon="1.85146">
        <ele>706.4</ele>
        <time>2026-07-09T08:53:32.000Z</time>
      </trkpt>
      <trkpt lat="45.81391" lon="1.85147">
        <ele>706.3</ele>
        <time>2026-07-09T08:53:33.000Z</time>
      </trkpt>
      <trkpt lat="45.81392" lon="1.85149">
        <ele>706.3</ele>
        <time>2026-07-09T08:53:34.000Z</time>
      </trkpt>
      <trkpt lat="45.81392" lon="1.8515">
        <ele>706.1</ele>
        <time>2026-07-09T08:53:35.000Z</time>
      </trkpt>
      <trkpt lat="45.81393" lon="1.85151">
        <ele>706.2</ele>
        <time>2026-07-09T08:53:36.000Z</time>
      </trkpt>
      <trkpt lat="45.81394" lon="1.85153">
        <ele>706.2</ele>
        <time>2026-07-09T08:53:37.000Z</time>
      </trkpt>
      <trkpt lat="45.81395" lon="1.85154">
        <ele>706</ele>
        <time>2026-07-09T08:53:38.000Z</time>
      </trkpt>
      <trkpt lat="45.81395" lon="1.85155">
        <ele>705.8</ele>
        <time>2026-07-09T08:53:39.000Z</time>
      </trkpt>
      <trkpt lat="45.81396" lon="1.85157">
        <ele>705.5</ele>
        <time>2026-07-09T08:53:40.000Z</time>
      </trkpt>
      <trkpt lat="45.81397" lon="1.85158">
        <ele>705.7</ele>
        <time>2026-07-09T08:53:41.000Z</time>
      </trkpt>
      <trkpt lat="45.81398" lon="1.8516">
        <ele>705.7</ele>
        <time>2026-07-09T08:53:42.000Z</time>
      </trkpt>
      <trkpt lat="45.81398" lon="1.85162">
        <ele>705.8</ele>
        <time>2026-07-09T08:53:43.000Z</time>
      </trkpt>
      <trkpt lat="45.81399" lon="1.85163">
        <ele>705.5</ele>
        <time>2026-07-09T08:53:44.000Z</time>
      </trkpt>
      <trkpt lat="45.814" lon="1.85164">
        <ele>706</ele>
        <time>2026-07-09T08:53:45.000Z</time>
      </trkpt>
      <trkpt lat="45.81401" lon="1.85165">
        <ele>705.7</ele>
        <time>2026-07-09T08:53:46.000Z</time>
      </trkpt>
      <trkpt lat="45.81402" lon="1.85166">
        <ele>706.2</ele>
        <time>2026-07-09T08:53:47.000Z</time>
      </trkpt>
      <trkpt lat="45.81403" lon="1.85168">
        <ele>706.2</ele>
        <time>2026-07-09T08:53:48.000Z</time>
      </trkpt>
      <trkpt lat="45.81404" lon="1.8517">
        <ele>705.1</ele>
        <time>2026-07-09T08:53:49.000Z</time>
      </trkpt>
      <trkpt lat="45.81405" lon="1.85172">
        <ele>705.3</ele>
        <time>2026-07-09T08:53:50.000Z</time>
      </trkpt>
      <trkpt lat="45.81406" lon="1.85174">
        <ele>705</ele>
        <time>2026-07-09T08:53:51.000Z</time>
      </trkpt>
      <trkpt lat="45.81407" lon="1.85176">
        <ele>705</ele>
        <time>2026-07-09T08:53:52.000Z</time>
      </trkpt>
      <trkpt lat="45.81408" lon="1.85178">
        <ele>705.4</ele>
        <time>2026-07-09T08:53:53.000Z</time>
      </trkpt>
      <trkpt lat="45.81408" lon="1.8518">
        <ele>705</ele>
        <time>2026-07-09T08:53:54.000Z</time>
      </trkpt>
      <trkpt lat="45.81409" lon="1.85181">
        <ele>704.8</ele>
        <time>2026-07-09T08:53:55.000Z</time>
      </trkpt>
      <trkpt lat="45.8141" lon="1.85183">
        <ele>704.8</ele>
        <time>2026-07-09T08:53:56.000Z</time>
      </trkpt>
      <trkpt lat="45.81411" lon="1.85185">
        <ele>705</ele>
        <time>2026-07-09T08:53:57.000Z</time>
      </trkpt>
      <trkpt lat="45.81412" lon="1.85186">
        <ele>705.1</ele>
        <time>2026-07-09T08:53:58.000Z</time>
      </trkpt>
      <trkpt lat="45.81413" lon="1.85188">
        <ele>705</ele>
        <time>2026-07-09T08:53:59.000Z</time>
      </trkpt>
      <trkpt lat="45.81414" lon="1.85191">
        <ele>705.4</ele>
        <time>2026-07-09T08:54:00.000Z</time>
      </trkpt>
      <trkpt lat="45.81415" lon="1.85193">
        <ele>705.6</ele>
        <time>2026-07-09T08:54:01.000Z</time>
      </trkpt>
      <trkpt lat="45.81417" lon="1.85195">
        <ele>705.2</ele>
        <time>2026-07-09T08:54:02.000Z</time>
      </trkpt>
      <trkpt lat="45.81417" lon="1.85197">
        <ele>705.2</ele>
        <time>2026-07-09T08:54:03.000Z</time>
      </trkpt>
      <trkpt lat="45.81418" lon="1.852">
        <ele>705.9</ele>
        <time>2026-07-09T08:54:04.000Z</time>
      </trkpt>
      <trkpt lat="45.81419" lon="1.85203">
        <ele>706</ele>
        <time>2026-07-09T08:54:05.000Z</time>
      </trkpt>
      <trkpt lat="45.8142" lon="1.85206">
        <ele>706.6</ele>
        <time>2026-07-09T08:54:06.000Z</time>
      </trkpt>
      <trkpt lat="45.81421" lon="1.85209">
        <ele>707.8</ele>
        <time>2026-07-09T08:54:07.000Z</time>
      </trkpt>
      <trkpt lat="45.81422" lon="1.85212">
        <ele>708.2</ele>
        <time>2026-07-09T08:54:08.000Z</time>
      </trkpt>
      <trkpt lat="45.81423" lon="1.85213">
        <ele>707.8</ele>
        <time>2026-07-09T08:54:09.000Z</time>
      </trkpt>
      <trkpt lat="45.81424" lon="1.85213">
        <ele>707</ele>
        <time>2026-07-09T08:54:10.000Z</time>
      </trkpt>
      <trkpt lat="45.81425" lon="1.85214">
        <ele>706.1</ele>
        <time>2026-07-09T08:54:11.000Z</time>
      </trkpt>
      <trkpt lat="45.81425" lon="1.85214">
        <ele>705.2</ele>
        <time>2026-07-09T08:54:12.000Z</time>
      </trkpt>
      <trkpt lat="45.81426" lon="1.85214">
        <ele>704.9</ele>
        <time>2026-07-09T08:54:13.000Z</time>
      </trkpt>
      <trkpt lat="45.81427" lon="1.85215">
        <ele>704.9</ele>
        <time>2026-07-09T08:54:14.000Z</time>
      </trkpt>
      <trkpt lat="45.81428" lon="1.85216">
        <ele>704.8</ele>
        <time>2026-07-09T08:54:15.000Z</time>
      </trkpt>
      <trkpt lat="45.81429" lon="1.85218">
        <ele>705.4</ele>
        <time>2026-07-09T08:54:16.000Z</time>
      </trkpt>
      <trkpt lat="45.8143" lon="1.85219">
        <ele>705.1</ele>
        <time>2026-07-09T08:54:17.000Z</time>
      </trkpt>
      <trkpt lat="45.81431" lon="1.85221">
        <ele>705</ele>
        <time>2026-07-09T08:54:18.000Z</time>
      </trkpt>
      <trkpt lat="45.81432" lon="1.85223">
        <ele>705.2</ele>
        <time>2026-07-09T08:54:19.000Z</time>
      </trkpt>
      <trkpt lat="45.81432" lon="1.85224">
        <ele>705.1</ele>
        <time>2026-07-09T08:54:20.000Z</time>
      </trkpt>
      <trkpt lat="45.81433" lon="1.85226">
        <ele>705.1</ele>
        <time>2026-07-09T08:54:21.000Z</time>
      </trkpt>
      <trkpt lat="45.81434" lon="1.85228">
        <ele>705.5</ele>
        <time>2026-07-09T08:54:22.000Z</time>
      </trkpt>
      <trkpt lat="45.81435" lon="1.8523">
        <ele>705.8</ele>
        <time>2026-07-09T08:54:23.000Z</time>
      </trkpt>
      <trkpt lat="45.81436" lon="1.85231">
        <ele>705.1</ele>
        <time>2026-07-09T08:54:24.000Z</time>
      </trkpt>
      <trkpt lat="45.81437" lon="1.85233">
        <ele>705.5</ele>
        <time>2026-07-09T08:54:25.000Z</time>
      </trkpt>
      <trkpt lat="45.81438" lon="1.85235">
        <ele>705.4</ele>
        <time>2026-07-09T08:54:26.000Z</time>
      </trkpt>
      <trkpt lat="45.81439" lon="1.85237">
        <ele>705.6</ele>
        <time>2026-07-09T08:54:27.000Z</time>
      </trkpt>
      <trkpt lat="45.8144" lon="1.85238">
        <ele>705.6</ele>
        <time>2026-07-09T08:54:28.000Z</time>
      </trkpt>
      <trkpt lat="45.81441" lon="1.8524">
        <ele>705.9</ele>
        <time>2026-07-09T08:54:29.000Z</time>
      </trkpt>
      <trkpt lat="45.81442" lon="1.85242">
        <ele>705.9</ele>
        <time>2026-07-09T08:54:30.000Z</time>
      </trkpt>
      <trkpt lat="45.81443" lon="1.85244">
        <ele>706.1</ele>
        <time>2026-07-09T08:54:31.000Z</time>
      </trkpt>
      <trkpt lat="45.81444" lon="1.85246">
        <ele>705.9</ele>
        <time>2026-07-09T08:54:32.000Z</time>
      </trkpt>
      <trkpt lat="45.81445" lon="1.85248">
        <ele>705.8</ele>
        <time>2026-07-09T08:54:33.000Z</time>
      </trkpt>
      <trkpt lat="45.81446" lon="1.8525">
        <ele>705.8</ele>
        <time>2026-07-09T08:54:34.000Z</time>
      </trkpt>
      <trkpt lat="45.81446" lon="1.85252">
        <ele>706.4</ele>
        <time>2026-07-09T08:54:35.000Z</time>
      </trkpt>
      <trkpt lat="45.81447" lon="1.85254">
        <ele>706.5</ele>
        <time>2026-07-09T08:54:36.000Z</time>
      </trkpt>
      <trkpt lat="45.81448" lon="1.85256">
        <ele>706.2</ele>
        <time>2026-07-09T08:54:37.000Z</time>
      </trkpt>
      <trkpt lat="45.81449" lon="1.85258">
        <ele>706.2</ele>
        <time>2026-07-09T08:54:38.000Z</time>
      </trkpt>
      <trkpt lat="45.81449" lon="1.8526">
        <ele>705.5</ele>
        <time>2026-07-09T08:54:39.000Z</time>
      </trkpt>
      <trkpt lat="45.8145" lon="1.85262">
        <ele>705</ele>
        <time>2026-07-09T08:54:40.000Z</time>
      </trkpt>
      <trkpt lat="45.81449" lon="1.85265">
        <ele>704.5</ele>
        <time>2026-07-09T08:54:41.000Z</time>
      </trkpt>
      <trkpt lat="45.8145" lon="1.85266">
        <ele>704.2</ele>
        <time>2026-07-09T08:54:42.000Z</time>
      </trkpt>
      <trkpt lat="45.8145" lon="1.85269">
        <ele>704.3</ele>
        <time>2026-07-09T08:54:43.000Z</time>
      </trkpt>
      <trkpt lat="45.8145" lon="1.85271">
        <ele>704.9</ele>
        <time>2026-07-09T08:54:44.000Z</time>
      </trkpt>
      <trkpt lat="45.81451" lon="1.85273">
        <ele>704.8</ele>
        <time>2026-07-09T08:54:45.000Z</time>
      </trkpt>
      <trkpt lat="45.81453" lon="1.85275">
        <ele>705.1</ele>
        <time>2026-07-09T08:54:46.000Z</time>
      </trkpt>
      <trkpt lat="45.81454" lon="1.85276">
        <ele>705</ele>
        <time>2026-07-09T08:54:47.000Z</time>
      </trkpt>
      <trkpt lat="45.81455" lon="1.85278">
        <ele>704.7</ele>
        <time>2026-07-09T08:54:48.000Z</time>
      </trkpt>
      <trkpt lat="45.81457" lon="1.8528">
        <ele>704.5</ele>
        <time>2026-07-09T08:54:49.000Z</time>
      </trkpt>
      <trkpt lat="45.81458" lon="1.85282">
        <ele>704.9</ele>
        <time>2026-07-09T08:54:50.000Z</time>
      </trkpt>
      <trkpt lat="45.81459" lon="1.85283">
        <ele>704.8</ele>
        <time>2026-07-09T08:54:51.000Z</time>
      </trkpt>
      <trkpt lat="45.81461" lon="1.85285">
        <ele>705.2</ele>
        <time>2026-07-09T08:54:52.000Z</time>
      </trkpt>
      <trkpt lat="45.81462" lon="1.85287">
        <ele>705.3</ele>
        <time>2026-07-09T08:54:53.000Z</time>
      </trkpt>
      <trkpt lat="45.81463" lon="1.85289">
        <ele>705.4</ele>
        <time>2026-07-09T08:54:54.000Z</time>
      </trkpt>
      <trkpt lat="45.81465" lon="1.85291">
        <ele>705.2</ele>
        <time>2026-07-09T08:54:55.000Z</time>
      </trkpt>
      <trkpt lat="45.81466" lon="1.85292">
        <ele>705.3</ele>
        <time>2026-07-09T08:54:56.000Z</time>
      </trkpt>
      <trkpt lat="45.81467" lon="1.85294">
        <ele>705.5</ele>
        <time>2026-07-09T08:54:57.000Z</time>
      </trkpt>
      <trkpt lat="45.81468" lon="1.85296">
        <ele>705.6</ele>
        <time>2026-07-09T08:54:58.000Z</time>
      </trkpt>
      <trkpt lat="45.81469" lon="1.85298">
        <ele>705.6</ele>
        <time>2026-07-09T08:54:59.000Z</time>
      </trkpt>
      <trkpt lat="45.8147" lon="1.853">
        <ele>705.7</ele>
        <time>2026-07-09T08:55:00.000Z</time>
      </trkpt>
      <trkpt lat="45.81471" lon="1.85302">
        <ele>706</ele>
        <time>2026-07-09T08:55:01.000Z</time>
      </trkpt>
      <trkpt lat="45.81472" lon="1.85303">
        <ele>706</ele>
        <time>2026-07-09T08:55:02.000Z</time>
      </trkpt>
      <trkpt lat="45.81474" lon="1.85305">
        <ele>706.2</ele>
        <time>2026-07-09T08:55:03.000Z</time>
      </trkpt>
      <trkpt lat="45.81475" lon="1.85307">
        <ele>706.2</ele>
        <time>2026-07-09T08:55:04.000Z</time>
      </trkpt>
      <trkpt lat="45.81476" lon="1.85309">
        <ele>706.1</ele>
        <time>2026-07-09T08:55:05.000Z</time>
      </trkpt>
      <trkpt lat="45.81477" lon="1.8531">
        <ele>706.2</ele>
        <time>2026-07-09T08:55:06.000Z</time>
      </trkpt>
      <trkpt lat="45.81478" lon="1.85312">
        <ele>706</ele>
        <time>2026-07-09T08:55:07.000Z</time>
      </trkpt>
      <trkpt lat="45.81479" lon="1.85314">
        <ele>706.2</ele>
        <time>2026-07-09T08:55:08.000Z</time>
      </trkpt>
      <trkpt lat="45.8148" lon="1.85316">
        <ele>706.5</ele>
        <time>2026-07-09T08:55:09.000Z</time>
      </trkpt>
      <trkpt lat="45.81481" lon="1.85318">
        <ele>706.7</ele>
        <time>2026-07-09T08:55:10.000Z</time>
      </trkpt>
      <trkpt lat="45.81482" lon="1.85319">
        <ele>706.7</ele>
        <time>2026-07-09T08:55:11.000Z</time>
      </trkpt>
      <trkpt lat="45.81483" lon="1.85321">
        <ele>706.7</ele>
        <time>2026-07-09T08:55:12.000Z</time>
      </trkpt>
      <trkpt lat="45.81484" lon="1.85323">
        <ele>706.6</ele>
        <time>2026-07-09T08:55:13.000Z</time>
      </trkpt>
      <trkpt lat="45.81485" lon="1.85324">
        <ele>706.6</ele>
        <time>2026-07-09T08:55:14.000Z</time>
      </trkpt>
      <trkpt lat="45.81486" lon="1.85326">
        <ele>706.8</ele>
        <time>2026-07-09T08:55:15.000Z</time>
      </trkpt>
      <trkpt lat="45.81487" lon="1.85328">
        <ele>707</ele>
        <time>2026-07-09T08:55:16.000Z</time>
      </trkpt>
      <trkpt lat="45.81488" lon="1.8533">
        <ele>707</ele>
        <time>2026-07-09T08:55:17.000Z</time>
      </trkpt>
      <trkpt lat="45.81489" lon="1.85332">
        <ele>707</ele>
        <time>2026-07-09T08:55:18.000Z</time>
      </trkpt>
      <trkpt lat="45.8149" lon="1.85334">
        <ele>707.1</ele>
        <time>2026-07-09T08:55:19.000Z</time>
      </trkpt>
      <trkpt lat="45.81491" lon="1.85336">
        <ele>707.2</ele>
        <time>2026-07-09T08:55:20.000Z</time>
      </trkpt>
      <trkpt lat="45.81492" lon="1.85339">
        <ele>707.1</ele>
        <time>2026-07-09T08:55:21.000Z</time>
      </trkpt>
      <trkpt lat="45.81493" lon="1.85341">
        <ele>707.4</ele>
        <time>2026-07-09T08:55:22.000Z</time>
      </trkpt>
      <trkpt lat="45.81494" lon="1.85342">
        <ele>707.1</ele>
        <time>2026-07-09T08:55:23.000Z</time>
      </trkpt>
      <trkpt lat="45.81496" lon="1.85344">
        <ele>706.8</ele>
        <time>2026-07-09T08:55:24.000Z</time>
      </trkpt>
      <trkpt lat="45.81497" lon="1.85345">
        <ele>706.7</ele>
        <time>2026-07-09T08:55:25.000Z</time>
      </trkpt>
      <trkpt lat="45.81498" lon="1.85347">
        <ele>706.5</ele>
        <time>2026-07-09T08:55:26.000Z</time>
      </trkpt>
      <trkpt lat="45.81499" lon="1.85348">
        <ele>706.3</ele>
        <time>2026-07-09T08:55:27.000Z</time>
      </trkpt>
      <trkpt lat="45.815" lon="1.8535">
        <ele>706.2</ele>
        <time>2026-07-09T08:55:28.000Z</time>
      </trkpt>
      <trkpt lat="45.81501" lon="1.85352">
        <ele>706.1</ele>
        <time>2026-07-09T08:55:29.000Z</time>
      </trkpt>
      <trkpt lat="45.81502" lon="1.85354">
        <ele>706.1</ele>
        <time>2026-07-09T08:55:30.000Z</time>
      </trkpt>
      <trkpt lat="45.81504" lon="1.85356">
        <ele>706</ele>
        <time>2026-07-09T08:55:31.000Z</time>
      </trkpt>
      <trkpt lat="45.81505" lon="1.85357">
        <ele>706</ele>
        <time>2026-07-09T08:55:32.000Z</time>
      </trkpt>
      <trkpt lat="45.81506" lon="1.85359">
        <ele>705.7</ele>
        <time>2026-07-09T08:55:33.000Z</time>
      </trkpt>
      <trkpt lat="45.81507" lon="1.85361">
        <ele>705.6</ele>
        <time>2026-07-09T08:55:34.000Z</time>
      </trkpt>
      <trkpt lat="45.81508" lon="1.85362">
        <ele>705.3</ele>
        <time>2026-07-09T08:55:35.000Z</time>
      </trkpt>
      <trkpt lat="45.81509" lon="1.85364">
        <ele>705.2</ele>
        <time>2026-07-09T08:55:36.000Z</time>
      </trkpt>
      <trkpt lat="45.81509" lon="1.85366">
        <ele>705.1</ele>
        <time>2026-07-09T08:55:37.000Z</time>
      </trkpt>
      <trkpt lat="45.8151" lon="1.85367">
        <ele>705.1</ele>
        <time>2026-07-09T08:55:38.000Z</time>
      </trkpt>
      <trkpt lat="45.81511" lon="1.85369">
        <ele>705.4</ele>
        <time>2026-07-09T08:55:39.000Z</time>
      </trkpt>
      <trkpt lat="45.81513" lon="1.85371">
        <ele>705.1</ele>
        <time>2026-07-09T08:55:40.000Z</time>
      </trkpt>
      <trkpt lat="45.81514" lon="1.85373">
        <ele>704.9</ele>
        <time>2026-07-09T08:55:41.000Z</time>
      </trkpt>
      <trkpt lat="45.81515" lon="1.85374">
        <ele>705.2</ele>
        <time>2026-07-09T08:55:42.000Z</time>
      </trkpt>
      <trkpt lat="45.81516" lon="1.85376">
        <ele>705.1</ele>
        <time>2026-07-09T08:55:43.000Z</time>
      </trkpt>
      <trkpt lat="45.81517" lon="1.85378">
        <ele>705.2</ele>
        <time>2026-07-09T08:55:44.000Z</time>
      </trkpt>
      <trkpt lat="45.81517" lon="1.8538">
        <ele>705.3</ele>
        <time>2026-07-09T08:55:45.000Z</time>
      </trkpt>
      <trkpt lat="45.81518" lon="1.85382">
        <ele>705.2</ele>
        <time>2026-07-09T08:55:46.000Z</time>
      </trkpt>
      <trkpt lat="45.81519" lon="1.85384">
        <ele>705.4</ele>
        <time>2026-07-09T08:55:47.000Z</time>
      </trkpt>
      <trkpt lat="45.8152" lon="1.85386">
        <ele>705.6</ele>
        <time>2026-07-09T08:55:48.000Z</time>
      </trkpt>
      <trkpt lat="45.81521" lon="1.85388">
        <ele>705.8</ele>
        <time>2026-07-09T08:55:49.000Z</time>
      </trkpt>
      <trkpt lat="45.81523" lon="1.8539">
        <ele>705.5</ele>
        <time>2026-07-09T08:55:50.000Z</time>
      </trkpt>
      <trkpt lat="45.81524" lon="1.85392">
        <ele>705.4</ele>
        <time>2026-07-09T08:55:51.000Z</time>
      </trkpt>
      <trkpt lat="45.81525" lon="1.85393">
        <ele>705.2</ele>
        <time>2026-07-09T08:55:52.000Z</time>
      </trkpt>
      <trkpt lat="45.81526" lon="1.85395">
        <ele>705.1</ele>
        <time>2026-07-09T08:55:53.000Z</time>
      </trkpt>
      <trkpt lat="45.81527" lon="1.85397">
        <ele>705.1</ele>
        <time>2026-07-09T08:55:54.000Z</time>
      </trkpt>
      <trkpt lat="45.81527" lon="1.85399">
        <ele>705.6</ele>
        <time>2026-07-09T08:55:55.000Z</time>
      </trkpt>
      <trkpt lat="45.81528" lon="1.85401">
        <ele>705</ele>
        <time>2026-07-09T08:55:56.000Z</time>
      </trkpt>
      <trkpt lat="45.81529" lon="1.85404">
        <ele>705</ele>
        <time>2026-07-09T08:55:57.000Z</time>
      </trkpt>
      <trkpt lat="45.8153" lon="1.85406">
        <ele>705.3</ele>
        <time>2026-07-09T08:55:58.000Z</time>
      </trkpt>
      <trkpt lat="45.81531" lon="1.85408">
        <ele>705.4</ele>
        <time>2026-07-09T08:55:59.000Z</time>
      </trkpt>
      <trkpt lat="45.81533" lon="1.8541">
        <ele>705.7</ele>
        <time>2026-07-09T08:56:00.000Z</time>
      </trkpt>
      <trkpt lat="45.81534" lon="1.85412">
        <ele>706</ele>
        <time>2026-07-09T08:56:01.000Z</time>
      </trkpt>
      <trkpt lat="45.81535" lon="1.85414">
        <ele>706.1</ele>
        <time>2026-07-09T08:56:02.000Z</time>
      </trkpt>
      <trkpt lat="45.81536" lon="1.85416">
        <ele>706.3</ele>
        <time>2026-07-09T08:56:03.000Z</time>
      </trkpt>
      <trkpt lat="45.81537" lon="1.85418">
        <ele>706.3</ele>
        <time>2026-07-09T08:56:04.000Z</time>
      </trkpt>
      <trkpt lat="45.81538" lon="1.8542">
        <ele>706.3</ele>
        <time>2026-07-09T08:56:05.000Z</time>
      </trkpt>
      <trkpt lat="45.81539" lon="1.85422">
        <ele>706.3</ele>
        <time>2026-07-09T08:56:06.000Z</time>
      </trkpt>
      <trkpt lat="45.8154" lon="1.85424">
        <ele>706.2</ele>
        <time>2026-07-09T08:56:07.000Z</time>
      </trkpt>
      <trkpt lat="45.81541" lon="1.85426">
        <ele>706.1</ele>
        <time>2026-07-09T08:56:08.000Z</time>
      </trkpt>
      <trkpt lat="45.81542" lon="1.85428">
        <ele>706.4</ele>
        <time>2026-07-09T08:56:09.000Z</time>
      </trkpt>
      <trkpt lat="45.81543" lon="1.85431">
        <ele>706.5</ele>
        <time>2026-07-09T08:56:10.000Z</time>
      </trkpt>
      <trkpt lat="45.81544" lon="1.85433">
        <ele>706.6</ele>
        <time>2026-07-09T08:56:11.000Z</time>
      </trkpt>
      <trkpt lat="45.81546" lon="1.85435">
        <ele>706.5</ele>
        <time>2026-07-09T08:56:12.000Z</time>
      </trkpt>
      <trkpt lat="45.81547" lon="1.85437">
        <ele>706.8</ele>
        <time>2026-07-09T08:56:13.000Z</time>
      </trkpt>
      <trkpt lat="45.81548" lon="1.85439">
        <ele>706.8</ele>
        <time>2026-07-09T08:56:14.000Z</time>
      </trkpt>
      <trkpt lat="45.81549" lon="1.85441">
        <ele>706.8</ele>
        <time>2026-07-09T08:56:15.000Z</time>
      </trkpt>
      <trkpt lat="45.8155" lon="1.85443">
        <ele>706.4</ele>
        <time>2026-07-09T08:56:16.000Z</time>
      </trkpt>
      <trkpt lat="45.81551" lon="1.85445">
        <ele>706.5</ele>
        <time>2026-07-09T08:56:17.000Z</time>
      </trkpt>
      <trkpt lat="45.81552" lon="1.85447">
        <ele>706.7</ele>
        <time>2026-07-09T08:56:18.000Z</time>
      </trkpt>
      <trkpt lat="45.81553" lon="1.85449">
        <ele>706.3</ele>
        <time>2026-07-09T08:56:19.000Z</time>
      </trkpt>
      <trkpt lat="45.81554" lon="1.85451">
        <ele>706.2</ele>
        <time>2026-07-09T08:56:20.000Z</time>
      </trkpt>
      <trkpt lat="45.81555" lon="1.85453">
        <ele>706</ele>
        <time>2026-07-09T08:56:21.000Z</time>
      </trkpt>
      <trkpt lat="45.81556" lon="1.85455">
        <ele>706.3</ele>
        <time>2026-07-09T08:56:22.000Z</time>
      </trkpt>
      <trkpt lat="45.81557" lon="1.85457">
        <ele>706.7</ele>
        <time>2026-07-09T08:56:23.000Z</time>
      </trkpt>
      <trkpt lat="45.81558" lon="1.85459">
        <ele>707.3</ele>
        <time>2026-07-09T08:56:24.000Z</time>
      </trkpt>
      <trkpt lat="45.81559" lon="1.85461">
        <ele>707.3</ele>
        <time>2026-07-09T08:56:25.000Z</time>
      </trkpt>
      <trkpt lat="45.8156" lon="1.85463">
        <ele>707.4</ele>
        <time>2026-07-09T08:56:26.000Z</time>
      </trkpt>
      <trkpt lat="45.81561" lon="1.85465">
        <ele>707.4</ele>
        <time>2026-07-09T08:56:27.000Z</time>
      </trkpt>
      <trkpt lat="45.81562" lon="1.85467">
        <ele>707.2</ele>
        <time>2026-07-09T08:56:28.000Z</time>
      </trkpt>
      <trkpt lat="45.81563" lon="1.85469">
        <ele>707.1</ele>
        <time>2026-07-09T08:56:29.000Z</time>
      </trkpt>
      <trkpt lat="45.81564" lon="1.85472">
        <ele>707.8</ele>
        <time>2026-07-09T08:56:30.000Z</time>
      </trkpt>
      <trkpt lat="45.81564" lon="1.85474">
        <ele>708.5</ele>
        <time>2026-07-09T08:56:31.000Z</time>
      </trkpt>
      <trkpt lat="45.81565" lon="1.85477">
        <ele>709.3</ele>
        <time>2026-07-09T08:56:32.000Z</time>
      </trkpt>
      <trkpt lat="45.81566" lon="1.85479">
        <ele>709.1</ele>
        <time>2026-07-09T08:56:33.000Z</time>
      </trkpt>
      <trkpt lat="45.81567" lon="1.8548">
        <ele>709</ele>
        <time>2026-07-09T08:56:34.000Z</time>
      </trkpt>
      <trkpt lat="45.81568" lon="1.85482">
        <ele>709.1</ele>
        <time>2026-07-09T08:56:35.000Z</time>
      </trkpt>
      <trkpt lat="45.81569" lon="1.85484">
        <ele>709.1</ele>
        <time>2026-07-09T08:56:36.000Z</time>
      </trkpt>
      <trkpt lat="45.81569" lon="1.85486">
        <ele>708.8</ele>
        <time>2026-07-09T08:56:37.000Z</time>
      </trkpt>
      <trkpt lat="45.81571" lon="1.85488">
        <ele>708.8</ele>
        <time>2026-07-09T08:56:38.000Z</time>
      </trkpt>
      <trkpt lat="45.81571" lon="1.8549">
        <ele>708.9</ele>
        <time>2026-07-09T08:56:39.000Z</time>
      </trkpt>
      <trkpt lat="45.81572" lon="1.85492">
        <ele>708.7</ele>
        <time>2026-07-09T08:56:40.000Z</time>
      </trkpt>
      <trkpt lat="45.81573" lon="1.85495">
        <ele>708.9</ele>
        <time>2026-07-09T08:56:41.000Z</time>
      </trkpt>
      <trkpt lat="45.81574" lon="1.85497">
        <ele>709.2</ele>
        <time>2026-07-09T08:56:42.000Z</time>
      </trkpt>
      <trkpt lat="45.81574" lon="1.85499">
        <ele>709.7</ele>
        <time>2026-07-09T08:56:43.000Z</time>
      </trkpt>
      <trkpt lat="45.81575" lon="1.85501">
        <ele>709.9</ele>
        <time>2026-07-09T08:56:44.000Z</time>
      </trkpt>
      <trkpt lat="45.81576" lon="1.85504">
        <ele>710</ele>
        <time>2026-07-09T08:56:45.000Z</time>
      </trkpt>
      <trkpt lat="45.81576" lon="1.85506">
        <ele>710.2</ele>
        <time>2026-07-09T08:56:46.000Z</time>
      </trkpt>
      <trkpt lat="45.81576" lon="1.85508">
        <ele>710.2</ele>
        <time>2026-07-09T08:56:47.000Z</time>
      </trkpt>
      <trkpt lat="45.81576" lon="1.8551">
        <ele>709.4</ele>
        <time>2026-07-09T08:56:48.000Z</time>
      </trkpt>
      <trkpt lat="45.81576" lon="1.85512">
        <ele>709.8</ele>
        <time>2026-07-09T08:56:49.000Z</time>
      </trkpt>
      <trkpt lat="45.81576" lon="1.85515">
        <ele>710</ele>
        <time>2026-07-09T08:56:50.000Z</time>
      </trkpt>
      <trkpt lat="45.81575" lon="1.85517">
        <ele>709.4</ele>
        <time>2026-07-09T08:56:51.000Z</time>
      </trkpt>
      <trkpt lat="45.81575" lon="1.85518">
        <ele>708.4</ele>
        <time>2026-07-09T08:56:52.000Z</time>
      </trkpt>
      <trkpt lat="45.81574" lon="1.85519">
        <ele>707.1</ele>
        <time>2026-07-09T08:56:53.000Z</time>
      </trkpt>
      <trkpt lat="45.81573" lon="1.85521">
        <ele>706.3</ele>
        <time>2026-07-09T08:56:54.000Z</time>
      </trkpt>
      <trkpt lat="45.81572" lon="1.85522">
        <ele>705.4</ele>
        <time>2026-07-09T08:56:55.000Z</time>
      </trkpt>
      <trkpt lat="45.81571" lon="1.85525">
        <ele>704.8</ele>
        <time>2026-07-09T08:56:56.000Z</time>
      </trkpt>
      <trkpt lat="45.8157" lon="1.85527">
        <ele>704.8</ele>
        <time>2026-07-09T08:56:57.000Z</time>
      </trkpt>
      <trkpt lat="45.8157" lon="1.8553">
        <ele>705.5</ele>
        <time>2026-07-09T08:56:58.000Z</time>
      </trkpt>
      <trkpt lat="45.81569" lon="1.85532">
        <ele>705.5</ele>
        <time>2026-07-09T08:56:59.000Z</time>
      </trkpt>
      <trkpt lat="45.81568" lon="1.85534">
        <ele>705.8</ele>
        <time>2026-07-09T08:57:00.000Z</time>
      </trkpt>
      <trkpt lat="45.81566" lon="1.85537">
        <ele>706.1</ele>
        <time>2026-07-09T08:57:01.000Z</time>
      </trkpt>
      <trkpt lat="45.81565" lon="1.85539">
        <ele>706.6</ele>
        <time>2026-07-09T08:57:02.000Z</time>
      </trkpt>
      <trkpt lat="45.81564" lon="1.85541">
        <ele>707.3</ele>
        <time>2026-07-09T08:57:03.000Z</time>
      </trkpt>
      <trkpt lat="45.81563" lon="1.85543">
        <ele>708.1</ele>
        <time>2026-07-09T08:57:04.000Z</time>
      </trkpt>
      <trkpt lat="45.81562" lon="1.85546">
        <ele>708.7</ele>
        <time>2026-07-09T08:57:05.000Z</time>
      </trkpt>
      <trkpt lat="45.81562" lon="1.85548">
        <ele>708.9</ele>
        <time>2026-07-09T08:57:06.000Z</time>
      </trkpt>
      <trkpt lat="45.81561" lon="1.85549">
        <ele>708.2</ele>
        <time>2026-07-09T08:57:07.000Z</time>
      </trkpt>
      <trkpt lat="45.81561" lon="1.85551">
        <ele>708.4</ele>
        <time>2026-07-09T08:57:08.000Z</time>
      </trkpt>
      <trkpt lat="45.8156" lon="1.85553">
        <ele>708.3</ele>
        <time>2026-07-09T08:57:09.000Z</time>
      </trkpt>
      <trkpt lat="45.81559" lon="1.85554">
        <ele>708.1</ele>
        <time>2026-07-09T08:57:10.000Z</time>
      </trkpt>
      <trkpt lat="45.81557" lon="1.85555">
        <ele>708.2</ele>
        <time>2026-07-09T08:57:11.000Z</time>
      </trkpt>
      <trkpt lat="45.81556" lon="1.85556">
        <ele>708.8</ele>
        <time>2026-07-09T08:57:12.000Z</time>
      </trkpt>
      <trkpt lat="45.81555" lon="1.85558">
        <ele>709.1</ele>
        <time>2026-07-09T08:57:13.000Z</time>
      </trkpt>
      <trkpt lat="45.81554" lon="1.8556">
        <ele>709</ele>
        <time>2026-07-09T08:57:14.000Z</time>
      </trkpt>
      <trkpt lat="45.81553" lon="1.85562">
        <ele>708.8</ele>
        <time>2026-07-09T08:57:15.000Z</time>
      </trkpt>
      <trkpt lat="45.81552" lon="1.85564">
        <ele>708.8</ele>
        <time>2026-07-09T08:57:16.000Z</time>
      </trkpt>
      <trkpt lat="45.81551" lon="1.85565">
        <ele>708.2</ele>
        <time>2026-07-09T08:57:17.000Z</time>
      </trkpt>
      <trkpt lat="45.8155" lon="1.85567">
        <ele>707.9</ele>
        <time>2026-07-09T08:57:18.000Z</time>
      </trkpt>
      <trkpt lat="45.81549" lon="1.85569">
        <ele>706.8</ele>
        <time>2026-07-09T08:57:19.000Z</time>
      </trkpt>
      <trkpt lat="45.81548" lon="1.85572">
        <ele>706.7</ele>
        <time>2026-07-09T08:57:20.000Z</time>
      </trkpt>
      <trkpt lat="45.81547" lon="1.85574">
        <ele>706.5</ele>
        <time>2026-07-09T08:57:21.000Z</time>
      </trkpt>
      <trkpt lat="45.81547" lon="1.85576">
        <ele>706.7</ele>
        <time>2026-07-09T08:57:22.000Z</time>
      </trkpt>
      <trkpt lat="45.81546" lon="1.85579">
        <ele>706.8</ele>
        <time>2026-07-09T08:57:23.000Z</time>
      </trkpt>
      <trkpt lat="45.81545" lon="1.85581">
        <ele>707.2</ele>
        <time>2026-07-09T08:57:24.000Z</time>
      </trkpt>
      <trkpt lat="45.81544" lon="1.85583">
        <ele>707.4</ele>
        <time>2026-07-09T08:57:25.000Z</time>
      </trkpt>
      <trkpt lat="45.81543" lon="1.85585">
        <ele>707.1</ele>
        <time>2026-07-09T08:57:26.000Z</time>
      </trkpt>
      <trkpt lat="45.81543" lon="1.85587">
        <ele>707.5</ele>
        <time>2026-07-09T08:57:27.000Z</time>
      </trkpt>
      <trkpt lat="45.81542" lon="1.85589">
        <ele>708</ele>
        <time>2026-07-09T08:57:28.000Z</time>
      </trkpt>
      <trkpt lat="45.81541" lon="1.85591">
        <ele>707.1</ele>
        <time>2026-07-09T08:57:29.000Z</time>
      </trkpt>
      <trkpt lat="45.8154" lon="1.85594">
        <ele>706.5</ele>
        <time>2026-07-09T08:57:30.000Z</time>
      </trkpt>
      <trkpt lat="45.81539" lon="1.85596">
        <ele>706.6</ele>
        <time>2026-07-09T08:57:31.000Z</time>
      </trkpt>
      <trkpt lat="45.81539" lon="1.85598">
        <ele>706.8</ele>
        <time>2026-07-09T08:57:32.000Z</time>
      </trkpt>
      <trkpt lat="45.81538" lon="1.856">
        <ele>706.9</ele>
        <time>2026-07-09T08:57:33.000Z</time>
      </trkpt>
      <trkpt lat="45.81536" lon="1.85602">
        <ele>706</ele>
        <time>2026-07-09T08:57:34.000Z</time>
      </trkpt>
      <trkpt lat="45.81534" lon="1.85604">
        <ele>706</ele>
        <time>2026-07-09T08:57:35.000Z</time>
      </trkpt>
      <trkpt lat="45.81532" lon="1.85607">
        <ele>705.8</ele>
        <time>2026-07-09T08:57:36.000Z</time>
      </trkpt>
      <trkpt lat="45.81531" lon="1.85609">
        <ele>706.1</ele>
        <time>2026-07-09T08:57:37.000Z</time>
      </trkpt>
      <trkpt lat="45.81529" lon="1.85612">
        <ele>706.8</ele>
        <time>2026-07-09T08:57:38.000Z</time>
      </trkpt>
      <trkpt lat="45.81528" lon="1.85614">
        <ele>707.8</ele>
        <time>2026-07-09T08:57:39.000Z</time>
      </trkpt>
      <trkpt lat="45.81527" lon="1.85616">
        <ele>707.8</ele>
        <time>2026-07-09T08:57:40.000Z</time>
      </trkpt>
      <trkpt lat="45.81526" lon="1.85618">
        <ele>707.5</ele>
        <time>2026-07-09T08:57:41.000Z</time>
      </trkpt>
      <trkpt lat="45.81525" lon="1.8562">
        <ele>707.2</ele>
        <time>2026-07-09T08:57:42.000Z</time>
      </trkpt>
      <trkpt lat="45.81523" lon="1.85622">
        <ele>706.6</ele>
        <time>2026-07-09T08:57:43.000Z</time>
      </trkpt>
      <trkpt lat="45.81521" lon="1.85622">
        <ele>706.5</ele>
        <time>2026-07-09T08:57:44.000Z</time>
      </trkpt>
      <trkpt lat="45.8152" lon="1.85622">
        <ele>706.4</ele>
        <time>2026-07-09T08:57:45.000Z</time>
      </trkpt>
      <trkpt lat="45.81519" lon="1.85623">
        <ele>707.5</ele>
        <time>2026-07-09T08:57:46.000Z</time>
      </trkpt>
      <trkpt lat="45.81518" lon="1.85624">
        <ele>708.3</ele>
        <time>2026-07-09T08:57:47.000Z</time>
      </trkpt>
      <trkpt lat="45.81517" lon="1.85626">
        <ele>709.4</ele>
        <time>2026-07-09T08:57:48.000Z</time>
      </trkpt>
      <trkpt lat="45.81516" lon="1.85627">
        <ele>710</ele>
        <time>2026-07-09T08:57:49.000Z</time>
      </trkpt>
      <trkpt lat="45.81515" lon="1.85629">
        <ele>709.5</ele>
        <time>2026-07-09T08:57:50.000Z</time>
      </trkpt>
      <trkpt lat="45.81514" lon="1.8563">
        <ele>709.8</ele>
        <time>2026-07-09T08:57:51.000Z</time>
      </trkpt>
      <trkpt lat="45.81513" lon="1.85631">
        <ele>708.6</ele>
        <time>2026-07-09T08:57:52.000Z</time>
      </trkpt>
      <trkpt lat="45.81511" lon="1.85631">
        <ele>707.8</ele>
        <time>2026-07-09T08:57:53.000Z</time>
      </trkpt>
      <trkpt lat="45.81509" lon="1.85629">
        <ele>707.4</ele>
        <time>2026-07-09T08:57:54.000Z</time>
      </trkpt>
      <trkpt lat="45.81508" lon="1.85628">
        <ele>706.8</ele>
        <time>2026-07-09T08:57:55.000Z</time>
      </trkpt>
      <trkpt lat="45.81507" lon="1.85628">
        <ele>705.7</ele>
        <time>2026-07-09T08:57:56.000Z</time>
      </trkpt>
      <trkpt lat="45.81505" lon="1.85628">
        <ele>707</ele>
        <time>2026-07-09T08:57:57.000Z</time>
      </trkpt>
      <trkpt lat="45.81506" lon="1.85627">
        <ele>707.1</ele>
        <time>2026-07-09T08:57:58.000Z</time>
      </trkpt>
      <trkpt lat="45.81506" lon="1.85627">
        <ele>707.1</ele>
        <time>2026-07-09T08:57:59.000Z</time>
      </trkpt>
      <trkpt lat="45.81506" lon="1.85627">
        <ele>707.1</ele>
        <time>2026-07-09T08:58:00.000Z</time>
      </trkpt>
      <trkpt lat="45.81506" lon="1.85627">
        <ele>707.1</ele>
        <time>2026-07-09T08:58:01.000Z</time>
      </trkpt>
      <trkpt lat="45.81506" lon="1.85627">
        <ele>707.1</ele>
        <time>2026-07-09T08:58:02.000Z</time>
      </trkpt>
      <trkpt lat="45.81506" lon="1.85627">
        <ele>707.1</ele>
        <time>2026-07-09T08:58:03.000Z</time>
      </trkpt>
      <trkpt lat="45.81506" lon="1.85627">
        <ele>707.1</ele>
        <time>2026-07-09T08:58:04.000Z</time>
      </trkpt>
      <trkpt lat="45.81506" lon="1.85627">
        <ele>707.1</ele>
        <time>2026-07-09T08:58:05.000Z</time>
      </trkpt>
      <trkpt lat="45.81506" lon="1.85627">
        <ele>707.1</ele>
        <time>2026-07-09T08:58:06.000Z</time>
      </trkpt>
      <trkpt lat="45.81506" lon="1.85627">
        <ele>707.1</ele>
        <time>2026-07-09T08:58:07.000Z</time>
      </trkpt>
      <trkpt lat="45.81506" lon="1.85627">
        <ele>707.1</ele>
        <time>2026-07-09T08:58:08.000Z</time>
      </trkpt>
      <trkpt lat="45.81506" lon="1.85627">
        <ele>707.1</ele>
        <time>2026-07-09T08:58:09.000Z</time>
      </trkpt>
      <trkpt lat="45.81506" lon="1.85627">
        <ele>707.1</ele>
        <time>2026-07-09T08:58:10.000Z</time>
      </trkpt>
      <trkpt lat="45.81506" lon="1.85627">
        <ele>707.1</ele>
        <time>2026-07-09T08:58:11.000Z</time>
      </trkpt>
      <trkpt lat="45.81506" lon="1.85627">
        <ele>707.1</ele>
        <time>2026-07-09T08:58:12.000Z</time>
      </trkpt>
      <trkpt lat="45.81505" lon="1.85627">
        <ele>707.4</ele>
        <time>2026-07-09T08:58:13.000Z</time>
      </trkpt>
      <trkpt lat="45.81505" lon="1.85628">
        <ele>706.8</ele>
        <time>2026-07-09T08:58:14.000Z</time>
      </trkpt>
      <trkpt lat="45.81505" lon="1.85629">
        <ele>706.4</ele>
        <time>2026-07-09T08:58:15.000Z</time>
      </trkpt>
      <trkpt lat="45.81505" lon="1.85631">
        <ele>706.3</ele>
        <time>2026-07-09T08:58:16.000Z</time>
      </trkpt>
      <trkpt lat="45.81504" lon="1.85633">
        <ele>706.3</ele>
        <time>2026-07-09T08:58:17.000Z</time>
      </trkpt>
      <trkpt lat="45.81504" lon="1.85634">
        <ele>706.7</ele>
        <time>2026-07-09T08:58:18.000Z</time>
      </trkpt>
      <trkpt lat="45.81503" lon="1.85636">
        <ele>706.7</ele>
        <time>2026-07-09T08:58:19.000Z</time>
      </trkpt>
      <trkpt lat="45.81501" lon="1.85638">
        <ele>705.9</ele>
        <time>2026-07-09T08:58:20.000Z</time>
      </trkpt>
      <trkpt lat="45.815" lon="1.8564">
        <ele>705.5</ele>
        <time>2026-07-09T08:58:21.000Z</time>
      </trkpt>
      <trkpt lat="45.815" lon="1.85642">
        <ele>705.3</ele>
        <time>2026-07-09T08:58:22.000Z</time>
      </trkpt>
      <trkpt lat="45.815" lon="1.85644">
        <ele>705.6</ele>
        <time>2026-07-09T08:58:23.000Z</time>
      </trkpt>
      <trkpt lat="45.815" lon="1.85646">
        <ele>705.5</ele>
        <time>2026-07-09T08:58:24.000Z</time>
      </trkpt>
      <trkpt lat="45.815" lon="1.85648">
        <ele>705.5</ele>
        <time>2026-07-09T08:58:25.000Z</time>
      </trkpt>
      <trkpt lat="45.815" lon="1.8565">
        <ele>705.1</ele>
        <time>2026-07-09T08:58:26.000Z</time>
      </trkpt>
      <trkpt lat="45.81501" lon="1.85651">
        <ele>705.8</ele>
        <time>2026-07-09T08:58:27.000Z</time>
      </trkpt>
      <trkpt lat="45.815" lon="1.85652">
        <ele>705.1</ele>
        <time>2026-07-09T08:58:28.000Z</time>
      </trkpt>
      <trkpt lat="45.81499" lon="1.85654">
        <ele>705.6</ele>
        <time>2026-07-09T08:58:29.000Z</time>
      </trkpt>
      <trkpt lat="45.81499" lon="1.85655">
        <ele>705.1</ele>
        <time>2026-07-09T08:58:30.000Z</time>
      </trkpt>
      <trkpt lat="45.81498" lon="1.85657">
        <ele>704.9</ele>
        <time>2026-07-09T08:58:31.000Z</time>
      </trkpt>
      <trkpt lat="45.81498" lon="1.85658">
        <ele>705</ele>
        <time>2026-07-09T08:58:32.000Z</time>
      </trkpt>
      <trkpt lat="45.81497" lon="1.85659">
        <ele>705.3</ele>
        <time>2026-07-09T08:58:33.000Z</time>
      </trkpt>
      <trkpt lat="45.81497" lon="1.8566">
        <ele>704.7</ele>
        <time>2026-07-09T08:58:34.000Z</time>
      </trkpt>
      <trkpt lat="45.81497" lon="1.85661">
        <ele>704.3</ele>
        <time>2026-07-09T08:58:35.000Z</time>
      </trkpt>
      <trkpt lat="45.81497" lon="1.85663">
        <ele>703.9</ele>
        <time>2026-07-09T08:58:36.000Z</time>
      </trkpt>
      <trkpt lat="45.81497" lon="1.85665">
        <ele>703.2</ele>
        <time>2026-07-09T08:58:37.000Z</time>
      </trkpt>
      <trkpt lat="45.81497" lon="1.85667">
        <ele>703.3</ele>
        <time>2026-07-09T08:58:38.000Z</time>
      </trkpt>
      <trkpt lat="45.81497" lon="1.85668">
        <ele>703.6</ele>
        <time>2026-07-09T08:58:39.000Z</time>
      </trkpt>
      <trkpt lat="45.81497" lon="1.8567">
        <ele>702.7</ele>
        <time>2026-07-09T08:58:40.000Z</time>
      </trkpt>
      <trkpt lat="45.81498" lon="1.85671">
        <ele>702.9</ele>
        <time>2026-07-09T08:58:41.000Z</time>
      </trkpt>
      <trkpt lat="45.81498" lon="1.85673">
        <ele>702.6</ele>
        <time>2026-07-09T08:58:42.000Z</time>
      </trkpt>
      <trkpt lat="45.81499" lon="1.85674">
        <ele>702.5</ele>
        <time>2026-07-09T08:58:43.000Z</time>
      </trkpt>
      <trkpt lat="45.81499" lon="1.85675">
        <ele>703</ele>
        <time>2026-07-09T08:58:44.000Z</time>
      </trkpt>
      <trkpt lat="45.815" lon="1.85677">
        <ele>703.6</ele>
        <time>2026-07-09T08:58:45.000Z</time>
      </trkpt>
      <trkpt lat="45.815" lon="1.85679">
        <ele>703.4</ele>
        <time>2026-07-09T08:58:46.000Z</time>
      </trkpt>
      <trkpt lat="45.81501" lon="1.85674">
        <ele>700.5</ele>
        <time>2026-07-09T08:58:47.000Z</time>
      </trkpt>
      <trkpt lat="45.81502" lon="1.85673">
        <ele>700.5</ele>
        <time>2026-07-09T08:58:48.000Z</time>
      </trkpt>
      <trkpt lat="45.81502" lon="1.85672">
        <ele>700.5</ele>
        <time>2026-07-09T08:58:49.000Z</time>
      </trkpt>
      <trkpt lat="45.81502" lon="1.85673">
        <ele>700.1</ele>
        <time>2026-07-09T08:58:50.000Z</time>
      </trkpt>
      <trkpt lat="45.81502" lon="1.85675">
        <ele>699.8</ele>
        <time>2026-07-09T08:58:51.000Z</time>
      </trkpt>
      <trkpt lat="45.81501" lon="1.85677">
        <ele>699.5</ele>
        <time>2026-07-09T08:58:52.000Z</time>
      </trkpt>
      <trkpt lat="45.81501" lon="1.85679">
        <ele>698.7</ele>
        <time>2026-07-09T08:58:53.000Z</time>
      </trkpt>
      <trkpt lat="45.815" lon="1.85681">
        <ele>698.5</ele>
        <time>2026-07-09T08:58:54.000Z</time>
      </trkpt>
      <trkpt lat="45.815" lon="1.85683">
        <ele>698.5</ele>
        <time>2026-07-09T08:58:55.000Z</time>
      </trkpt>
      <trkpt lat="45.815" lon="1.85683">
        <ele>698.7</ele>
        <time>2026-07-09T08:58:56.000Z</time>
      </trkpt>
      <trkpt lat="45.815" lon="1.85684">
        <ele>698.7</ele>
        <time>2026-07-09T08:58:57.000Z</time>
      </trkpt>
      <trkpt lat="45.815" lon="1.85685">
        <ele>698.3</ele>
        <time>2026-07-09T08:58:58.000Z</time>
      </trkpt>
      <trkpt lat="45.815" lon="1.85687">
        <ele>698.2</ele>
        <time>2026-07-09T08:58:59.000Z</time>
      </trkpt>
      <trkpt lat="45.815" lon="1.85687">
        <ele>698.3</ele>
        <time>2026-07-09T08:59:00.000Z</time>
      </trkpt>
      <trkpt lat="45.815" lon="1.85686">
        <ele>697.2</ele>
        <time>2026-07-09T08:59:01.000Z</time>
      </trkpt>
      <trkpt lat="45.815" lon="1.85686">
        <ele>697.4</ele>
        <time>2026-07-09T08:59:02.000Z</time>
      </trkpt>
      <trkpt lat="45.81501" lon="1.85686">
        <ele>697.1</ele>
        <time>2026-07-09T08:59:03.000Z</time>
      </trkpt>
      <trkpt lat="45.81501" lon="1.85686">
        <ele>697.1</ele>
        <time>2026-07-09T08:59:04.000Z</time>
      </trkpt>
      <trkpt lat="45.81501" lon="1.85687">
        <ele>697.1</ele>
        <time>2026-07-09T08:59:05.000Z</time>
      </trkpt>
      <trkpt lat="45.81501" lon="1.85687">
        <ele>697.1</ele>
        <time>2026-07-09T08:59:06.000Z</time>
      </trkpt>
      <trkpt lat="45.81501" lon="1.85687">
        <ele>697.1</ele>
        <time>2026-07-09T08:59:07.000Z</time>
      </trkpt>
      <trkpt lat="45.81501" lon="1.85687">
        <ele>697.1</ele>
        <time>2026-07-09T08:59:08.000Z</time>
      </trkpt>
      <trkpt lat="45.81501" lon="1.85687">
        <ele>697.1</ele>
        <time>2026-07-09T08:59:09.000Z</time>
      </trkpt>
      <trkpt lat="45.81501" lon="1.85687">
        <ele>697.1</ele>
        <time>2026-07-09T08:59:10.000Z</time>
      </trkpt>
      <trkpt lat="45.81501" lon="1.85687">
        <ele>697.1</ele>
        <time>2026-07-09T08:59:11.000Z</time>
      </trkpt>
      <trkpt lat="45.81501" lon="1.85687">
        <ele>697.1</ele>
        <time>2026-07-09T08:59:12.000Z</time>
      </trkpt>
      <trkpt lat="45.81501" lon="1.85687">
        <ele>697.1</ele>
        <time>2026-07-09T08:59:13.000Z</time>
      </trkpt>
      <trkpt lat="45.81501" lon="1.85687">
        <ele>697.1</ele>
        <time>2026-07-09T08:59:14.000Z</time>
      </trkpt>
      <trkpt lat="45.81501" lon="1.85687">
        <ele>697.1</ele>
        <time>2026-07-09T08:59:15.000Z</time>
      </trkpt>
      <trkpt lat="45.81501" lon="1.85687">
        <ele>697.1</ele>
        <time>2026-07-09T08:59:16.000Z</time>
      </trkpt>
      <trkpt lat="45.81501" lon="1.85687">
        <ele>697.1</ele>
        <time>2026-07-09T08:59:17.000Z</time>
      </trkpt>
      <trkpt lat="45.81501" lon="1.85687">
        <ele>697.1</ele>
        <time>2026-07-09T08:59:18.000Z</time>
      </trkpt>
      <trkpt lat="45.81501" lon="1.85687">
        <ele>697.1</ele>
        <time>2026-07-09T08:59:19.000Z</time>
      </trkpt>
      <trkpt lat="45.81501" lon="1.85687">
        <ele>697.1</ele>
        <time>2026-07-09T08:59:20.000Z</time>
      </trkpt>
      <trkpt lat="45.81501" lon="1.85687">
        <ele>697.1</ele>
        <time>2026-07-09T08:59:21.000Z</time>
      </trkpt>
      <trkpt lat="45.81501" lon="1.85687">
        <ele>697.1</ele>
        <time>2026-07-09T08:59:22.000Z</time>
      </trkpt>
      <trkpt lat="45.81501" lon="1.85687">
        <ele>697.1</ele>
        <time>2026-07-09T08:59:23.000Z</time>
      </trkpt>
      <trkpt lat="45.81501" lon="1.85687">
        <ele>697.1</ele>
        <time>2026-07-09T08:59:24.000Z</time>
      </trkpt>
      <trkpt lat="45.81501" lon="1.85687">
        <ele>697.1</ele>
        <time>2026-07-09T08:59:25.000Z</time>
      </trkpt>
      <trkpt lat="45.81501" lon="1.85687">
        <ele>697.1</ele>
        <time>2026-07-09T08:59:26.000Z</time>
      </trkpt>
      <trkpt lat="45.81501" lon="1.85687">
        <ele>697.4</ele>
        <time>2026-07-09T08:59:27.000Z</time>
      </trkpt>
      <trkpt lat="45.81501" lon="1.85686">
        <ele>697.2</ele>
        <time>2026-07-09T08:59:28.000Z</time>
      </trkpt>
      <trkpt lat="45.81501" lon="1.85686">
        <ele>697.4</ele>
        <time>2026-07-09T08:59:29.000Z</time>
      </trkpt>
      <trkpt lat="45.81501" lon="1.85686">
        <ele>697.4</ele>
        <time>2026-07-09T08:59:30.000Z</time>
      </trkpt>
      <trkpt lat="45.81501" lon="1.85685">
        <ele>697.6</ele>
        <time>2026-07-09T08:59:31.000Z</time>
      </trkpt>
      <trkpt lat="45.815" lon="1.85685">
        <ele>697.6</ele>
        <time>2026-07-09T08:59:32.000Z</time>
      </trkpt>
      <trkpt lat="45.815" lon="1.85685">
        <ele>698</ele>
        <time>2026-07-09T08:59:33.000Z</time>
      </trkpt>
      <trkpt lat="45.815" lon="1.85685">
        <ele>697.8</ele>
        <time>2026-07-09T08:59:34.000Z</time>
      </trkpt>
      <trkpt lat="45.81499" lon="1.85685">
        <ele>698.9</ele>
        <time>2026-07-09T08:59:35.000Z</time>
      </trkpt>
      <trkpt lat="45.81499" lon="1.85685">
        <ele>699.3</ele>
        <time>2026-07-09T08:59:36.000Z</time>
      </trkpt>
      <trkpt lat="45.81498" lon="1.85685">
        <ele>700</ele>
        <time>2026-07-09T08:59:37.000Z</time>
      </trkpt>
      <trkpt lat="45.81498" lon="1.85686">
        <ele>700.2</ele>
        <time>2026-07-09T08:59:38.000Z</time>
      </trkpt>
      <trkpt lat="45.81497" lon="1.85686">
        <ele>700.4</ele>
        <time>2026-07-09T08:59:39.000Z</time>
      </trkpt>
      <trkpt lat="45.81496" lon="1.85686">
        <ele>700.4</ele>
        <time>2026-07-09T08:59:40.000Z</time>
      </trkpt>
      <trkpt lat="45.81495" lon="1.85688">
        <ele>700.6</ele>
        <time>2026-07-09T08:59:41.000Z</time>
      </trkpt>
      <trkpt lat="45.81494" lon="1.85688">
        <ele>700.6</ele>
        <time>2026-07-09T08:59:42.000Z</time>
      </trkpt>
      <trkpt lat="45.81494" lon="1.8569">
        <ele>700.1</ele>
        <time>2026-07-09T08:59:43.000Z</time>
      </trkpt>
      <trkpt lat="45.81493" lon="1.85691">
        <ele>700</ele>
        <time>2026-07-09T08:59:44.000Z</time>
      </trkpt>
      <trkpt lat="45.81493" lon="1.85692">
        <ele>699.9</ele>
        <time>2026-07-09T08:59:45.000Z</time>
      </trkpt>
      <trkpt lat="45.81493" lon="1.85694">
        <ele>699.6</ele>
        <time>2026-07-09T08:59:46.000Z</time>
      </trkpt>
      <trkpt lat="45.81493" lon="1.85695">
        <ele>699.5</ele>
        <time>2026-07-09T08:59:47.000Z</time>
      </trkpt>
      <trkpt lat="45.81493" lon="1.85695">
        <ele>699.5</ele>
        <time>2026-07-09T08:59:48.000Z</time>
      </trkpt>
      <trkpt lat="45.81493" lon="1.85695">
        <ele>699.5</ele>
        <time>2026-07-09T08:59:49.000Z</time>
      </trkpt>
      <trkpt lat="45.81493" lon="1.85695">
        <ele>699.5</ele>
        <time>2026-07-09T08:59:50.000Z</time>
      </trkpt>
      <trkpt lat="45.81493" lon="1.85695">
        <ele>699.5</ele>
        <time>2026-07-09T08:59:51.000Z</time>
      </trkpt>
      <trkpt lat="45.81493" lon="1.85695">
        <ele>699.3</ele>
        <time>2026-07-09T08:59:52.000Z</time>
      </trkpt>
      <trkpt lat="45.81493" lon="1.85695">
        <ele>699.2</ele>
        <time>2026-07-09T08:59:53.000Z</time>
      </trkpt>
      <trkpt lat="45.81493" lon="1.85695">
        <ele>699.1</ele>
        <time>2026-07-09T08:59:54.000Z</time>
      </trkpt>
      <trkpt lat="45.81493" lon="1.85696">
        <ele>699.1</ele>
        <time>2026-07-09T08:59:55.000Z</time>
      </trkpt>
      <trkpt lat="45.81493" lon="1.85696">
        <ele>699.1</ele>
        <time>2026-07-09T08:59:56.000Z</time>
      </trkpt>
      <trkpt lat="45.81493" lon="1.85696">
        <ele>699.1</ele>
        <time>2026-07-09T08:59:57.000Z</time>
      </trkpt>
      <trkpt lat="45.81493" lon="1.85696">
        <ele>699.1</ele>
        <time>2026-07-09T08:59:58.000Z</time>
      </trkpt>
      <trkpt lat="45.81493" lon="1.85696">
        <ele>699.1</ele>
        <time>2026-07-09T08:59:59.000Z</time>
      </trkpt>
      <trkpt lat="45.81493" lon="1.85696">
        <ele>699.1</ele>
        <time>2026-07-09T09:00:00.000Z</time>
      </trkpt>
      <trkpt lat="45.81493" lon="1.85696">
        <ele>699.1</ele>
        <time>2026-07-09T09:00:01.000Z</time>
      </trkpt>
      <trkpt lat="45.81494" lon="1.85696">
        <ele>699.3</ele>
        <time>2026-07-09T09:00:02.000Z</time>
      </trkpt>
      <trkpt lat="45.81493" lon="1.85696">
        <ele>699.1</ele>
        <time>2026-07-09T09:00:03.000Z</time>
      </trkpt>
      <trkpt lat="45.81493" lon="1.85696">
        <ele>699.3</ele>
        <time>2026-07-09T09:00:04.000Z</time>
      </trkpt>
      <trkpt lat="45.81494" lon="1.85697">
        <ele>699.4</ele>
        <time>2026-07-09T09:00:05.000Z</time>
      </trkpt>
      <trkpt lat="45.81495" lon="1.85698">
        <ele>699.6</ele>
        <time>2026-07-09T09:00:06.000Z</time>
      </trkpt>
      <trkpt lat="45.81495" lon="1.85699">
        <ele>699.6</ele>
        <time>2026-07-09T09:00:07.000Z</time>
      </trkpt>
      <trkpt lat="45.81495" lon="1.85699">
        <ele>699.6</ele>
        <time>2026-07-09T09:00:08.000Z</time>
      </trkpt>
      <trkpt lat="45.81495" lon="1.85699">
        <ele>699.6</ele>
        <time>2026-07-09T09:00:09.000Z</time>
      </trkpt>
      <trkpt lat="45.81495" lon="1.85699">
        <ele>699.6</ele>
        <time>2026-07-09T09:00:10.000Z</time>
      </trkpt>
      <trkpt lat="45.81495" lon="1.85699">
        <ele>699.6</ele>
        <time>2026-07-09T09:00:11.000Z</time>
      </trkpt>
      <trkpt lat="45.81495" lon="1.85699">
        <ele>699.6</ele>
        <time>2026-07-09T09:00:12.000Z</time>
      </trkpt>
      <trkpt lat="45.81495" lon="1.85699">
        <ele>699.6</ele>
        <time>2026-07-09T09:00:13.000Z</time>
      </trkpt>
      <trkpt lat="45.81495" lon="1.85699">
        <ele>699.6</ele>
        <time>2026-07-09T09:00:14.000Z</time>
      </trkpt>
      <trkpt lat="45.81495" lon="1.85699">
        <ele>699.7</ele>
        <time>2026-07-09T09:00:15.000Z</time>
      </trkpt>
      <trkpt lat="45.81495" lon="1.85699">
        <ele>699.7</ele>
        <time>2026-07-09T09:00:16.000Z</time>
      </trkpt>
      <trkpt lat="45.81495" lon="1.85699">
        <ele>699.7</ele>
        <time>2026-07-09T09:00:17.000Z</time>
      </trkpt>
      <trkpt lat="45.81495" lon="1.85699">
        <ele>699.9</ele>
        <time>2026-07-09T09:00:18.000Z</time>
      </trkpt>
      <trkpt lat="45.81495" lon="1.85699">
        <ele>699.9</ele>
        <time>2026-07-09T09:00:19.000Z</time>
      </trkpt>
      <trkpt lat="45.81494" lon="1.85699">
        <ele>699.6</ele>
        <time>2026-07-09T09:00:20.000Z</time>
      </trkpt>
      <trkpt lat="45.81495" lon="1.85699">
        <ele>699.5</ele>
        <time>2026-07-09T09:00:21.000Z</time>
      </trkpt>
      <trkpt lat="45.81495" lon="1.85699">
        <ele>699.5</ele>
        <time>2026-07-09T09:00:22.000Z</time>
      </trkpt>
      <trkpt lat="45.81495" lon="1.85699">
        <ele>699.5</ele>
        <time>2026-07-09T09:00:23.000Z</time>
      </trkpt>
      <trkpt lat="45.81495" lon="1.85699">
        <ele>699.5</ele>
        <time>2026-07-09T09:00:24.000Z</time>
      </trkpt>
      <trkpt lat="45.81495" lon="1.85699">
        <ele>699.5</ele>
        <time>2026-07-09T09:00:25.000Z</time>
      </trkpt>
      <trkpt lat="45.81495" lon="1.85699">
        <ele>699.5</ele>
        <time>2026-07-09T09:00:26.000Z</time>
      </trkpt>
      <trkpt lat="45.81495" lon="1.85699">
        <ele>699.5</ele>
        <time>2026-07-09T09:00:27.000Z</time>
      </trkpt>
      <trkpt lat="45.81495" lon="1.85699">
        <ele>699.5</ele>
        <time>2026-07-09T09:00:28.000Z</time>
      </trkpt>
      <trkpt lat="45.81495" lon="1.85699">
        <ele>699.8</ele>
        <time>2026-07-09T09:00:29.000Z</time>
      </trkpt>
      <trkpt lat="45.81495" lon="1.85699">
        <ele>699.8</ele>
        <time>2026-07-09T09:00:30.000Z</time>
      </trkpt>
      <trkpt lat="45.81495" lon="1.85699">
        <ele>699.8</ele>
        <time>2026-07-09T09:00:31.000Z</time>
      </trkpt>
      <trkpt lat="45.81495" lon="1.85699">
        <ele>699.8</ele>
        <time>2026-07-09T09:00:32.000Z</time>
      </trkpt>
      <trkpt lat="45.81495" lon="1.85699">
        <ele>699.8</ele>
        <time>2026-07-09T09:00:33.000Z</time>
      </trkpt>
      <trkpt lat="45.81495" lon="1.85699">
        <ele>699.8</ele>
        <time>2026-07-09T09:00:34.000Z</time>
      </trkpt>
      <trkpt lat="45.81495" lon="1.85699">
        <ele>699.8</ele>
        <time>2026-07-09T09:00:35.000Z</time>
      </trkpt>
      <trkpt lat="45.81495" lon="1.85699">
        <ele>699.8</ele>
        <time>2026-07-09T09:00:36.000Z</time>
      </trkpt>
      <trkpt lat="45.81495" lon="1.85699">
        <ele>699.8</ele>
        <time>2026-07-09T09:00:37.000Z</time>
      </trkpt>
      <trkpt lat="45.81495" lon="1.85699">
        <ele>699.8</ele>
        <time>2026-07-09T09:00:38.000Z</time>
      </trkpt>
      <trkpt lat="45.81495" lon="1.85699">
        <ele>699.8</ele>
        <time>2026-07-09T09:00:39.000Z</time>
      </trkpt>
      <trkpt lat="45.81495" lon="1.85699">
        <ele>699.8</ele>
        <time>2026-07-09T09:00:40.000Z</time>
      </trkpt>
      <trkpt lat="45.81495" lon="1.85699">
        <ele>699.8</ele>
        <time>2026-07-09T09:00:41.000Z</time>
      </trkpt>
      <trkpt lat="45.81495" lon="1.85699">
        <ele>699.8</ele>
        <time>2026-07-09T09:00:42.000Z</time>
      </trkpt>
      <trkpt lat="45.81495" lon="1.85699">
        <ele>699.8</ele>
        <time>2026-07-09T09:00:43.000Z</time>
      </trkpt>
      <trkpt lat="45.81495" lon="1.85699">
        <ele>699.8</ele>
        <time>2026-07-09T09:00:44.000Z</time>
      </trkpt>
      <trkpt lat="45.81495" lon="1.85699">
        <ele>699.8</ele>
        <time>2026-07-09T09:00:45.000Z</time>
      </trkpt>
      <trkpt lat="45.81495" lon="1.85699">
        <ele>699.8</ele>
        <time>2026-07-09T09:00:46.000Z</time>
      </trkpt>
      <trkpt lat="45.81495" lon="1.85699">
        <ele>699.8</ele>
        <time>2026-07-09T09:00:47.000Z</time>
      </trkpt>
      <trkpt lat="45.81495" lon="1.85699">
        <ele>699.8</ele>
        <time>2026-07-09T09:00:48.000Z</time>
      </trkpt>
      <trkpt lat="45.81495" lon="1.85699">
        <ele>699.8</ele>
        <time>2026-07-09T09:00:49.000Z</time>
      </trkpt>
      <trkpt lat="45.81495" lon="1.85699">
        <ele>699.8</ele>
        <time>2026-07-09T09:00:50.000Z</time>
      </trkpt>
      <trkpt lat="45.81495" lon="1.85699">
        <ele>699.8</ele>
        <time>2026-07-09T09:00:51.000Z</time>
      </trkpt>
      <trkpt lat="45.81495" lon="1.85699">
        <ele>699.8</ele>
        <time>2026-07-09T09:00:52.000Z</time>
      </trkpt>
      <trkpt lat="45.81495" lon="1.85699">
        <ele>699.8</ele>
        <time>2026-07-09T09:00:53.000Z</time>
      </trkpt>
      <trkpt lat="45.81495" lon="1.85699">
        <ele>699.8</ele>
        <time>2026-07-09T09:00:54.000Z</time>
      </trkpt>
      <trkpt lat="45.81496" lon="1.85699">
        <ele>699.9</ele>
        <time>2026-07-09T09:00:55.000Z</time>
      </trkpt>
      <trkpt lat="45.81496" lon="1.85699">
        <ele>699.8</ele>
        <time>2026-07-09T09:00:56.000Z</time>
      </trkpt>
      <trkpt lat="45.81496" lon="1.85699">
        <ele>699.8</ele>
        <time>2026-07-09T09:00:57.000Z</time>
      </trkpt>
      <trkpt lat="45.81496" lon="1.85699">
        <ele>699.6</ele>
        <time>2026-07-09T09:00:58.000Z</time>
      </trkpt>
      <trkpt lat="45.81496" lon="1.85698">
        <ele>699.1</ele>
        <time>2026-07-09T09:00:59.000Z</time>
      </trkpt>
      <trkpt lat="45.81496" lon="1.85697">
        <ele>699.4</ele>
        <time>2026-07-09T09:01:00.000Z</time>
      </trkpt>
      <trkpt lat="45.81497" lon="1.85697">
        <ele>699.4</ele>
        <time>2026-07-09T09:01:01.000Z</time>
      </trkpt>
      <trkpt lat="45.81497" lon="1.85697">
        <ele>699.4</ele>
        <time>2026-07-09T09:01:02.000Z</time>
      </trkpt>
      <trkpt lat="45.81497" lon="1.85697">
        <ele>699.4</ele>
        <time>2026-07-09T09:01:03.000Z</time>
      </trkpt>
      <trkpt lat="45.81497" lon="1.85697">
        <ele>699.4</ele>
        <time>2026-07-09T09:01:04.000Z</time>
      </trkpt>
      <trkpt lat="45.81497" lon="1.85696">
        <ele>699.4</ele>
        <time>2026-07-09T09:01:05.000Z</time>
      </trkpt>
      <trkpt lat="45.81497" lon="1.85696">
        <ele>699.2</ele>
        <time>2026-07-09T09:01:06.000Z</time>
      </trkpt>
      <trkpt lat="45.81497" lon="1.85696">
        <ele>699</ele>
        <time>2026-07-09T09:01:07.000Z</time>
      </trkpt>
      <trkpt lat="45.81497" lon="1.85694">
        <ele>699</ele>
        <time>2026-07-09T09:01:08.000Z</time>
      </trkpt>
      <trkpt lat="45.81497" lon="1.85693">
        <ele>699</ele>
        <time>2026-07-09T09:01:09.000Z</time>
      </trkpt>
      <trkpt lat="45.81498" lon="1.85692">
        <ele>699.4</ele>
        <time>2026-07-09T09:01:10.000Z</time>
      </trkpt>
      <trkpt lat="45.81499" lon="1.85691">
        <ele>699.7</ele>
        <time>2026-07-09T09:01:11.000Z</time>
      </trkpt>
      <trkpt lat="45.815" lon="1.85689">
        <ele>700.1</ele>
        <time>2026-07-09T09:01:12.000Z</time>
      </trkpt>
      <trkpt lat="45.81501" lon="1.85688">
        <ele>700.5</ele>
        <time>2026-07-09T09:01:13.000Z</time>
      </trkpt>
      <trkpt lat="45.81502" lon="1.85686">
        <ele>701.3</ele>
        <time>2026-07-09T09:01:14.000Z</time>
      </trkpt>
      <trkpt lat="45.81503" lon="1.85684">
        <ele>701.6</ele>
        <time>2026-07-09T09:01:15.000Z</time>
      </trkpt>
      <trkpt lat="45.81504" lon="1.85683">
        <ele>701.7</ele>
        <time>2026-07-09T09:01:16.000Z</time>
      </trkpt>
      <trkpt lat="45.81505" lon="1.8568">
        <ele>702</ele>
        <time>2026-07-09T09:01:17.000Z</time>
      </trkpt>
      <trkpt lat="45.81505" lon="1.85679">
        <ele>701.3</ele>
        <time>2026-07-09T09:01:18.000Z</time>
      </trkpt>
      <trkpt lat="45.81507" lon="1.85679">
        <ele>701</ele>
        <time>2026-07-09T09:01:19.000Z</time>
      </trkpt>
      <trkpt lat="45.81508" lon="1.8568">
        <ele>701.1</ele>
        <time>2026-07-09T09:01:20.000Z</time>
      </trkpt>
      <trkpt lat="45.81509" lon="1.85681">
        <ele>701.2</ele>
        <time>2026-07-09T09:01:21.000Z</time>
      </trkpt>
      <trkpt lat="45.81508" lon="1.85686">
        <ele>706.7</ele>
        <time>2026-07-09T09:01:22.000Z</time>
      </trkpt>
      <trkpt lat="45.81507" lon="1.85689">
        <ele>707.2</ele>
        <time>2026-07-09T09:01:23.000Z</time>
      </trkpt>
      <trkpt lat="45.81506" lon="1.85691">
        <ele>707.7</ele>
        <time>2026-07-09T09:01:24.000Z</time>
      </trkpt>
      <trkpt lat="45.81502" lon="1.85693">
        <ele>709.5</ele>
        <time>2026-07-09T09:01:25.000Z</time>
      </trkpt>
      <trkpt lat="45.81501" lon="1.85693">
        <ele>709.5</ele>
        <time>2026-07-09T09:01:26.000Z</time>
      </trkpt>
      <trkpt lat="45.81501" lon="1.85693">
        <ele>709.5</ele>
        <time>2026-07-09T09:01:27.000Z</time>
      </trkpt>
      <trkpt lat="45.81501" lon="1.85693">
        <ele>709.5</ele>
        <time>2026-07-09T09:01:28.000Z</time>
      </trkpt>
      <trkpt lat="45.81501" lon="1.85693">
        <ele>709.4</ele>
        <time>2026-07-09T09:01:29.000Z</time>
      </trkpt>
      <trkpt lat="45.81501" lon="1.85693">
        <ele>709.4</ele>
        <time>2026-07-09T09:01:30.000Z</time>
      </trkpt>
      <trkpt lat="45.81501" lon="1.85693">
        <ele>709.4</ele>
        <time>2026-07-09T09:01:31.000Z</time>
      </trkpt>
      <trkpt lat="45.81501" lon="1.85694">
        <ele>709.7</ele>
        <time>2026-07-09T09:01:32.000Z</time>
      </trkpt>
      <trkpt lat="45.81501" lon="1.85694">
        <ele>709.8</ele>
        <time>2026-07-09T09:01:33.000Z</time>
      </trkpt>
      <trkpt lat="45.81501" lon="1.85694">
        <ele>709.8</ele>
        <time>2026-07-09T09:01:34.000Z</time>
      </trkpt>
      <trkpt lat="45.81501" lon="1.85694">
        <ele>709.8</ele>
        <time>2026-07-09T09:01:35.000Z</time>
      </trkpt>
      <trkpt lat="45.81501" lon="1.85694">
        <ele>709.7</ele>
        <time>2026-07-09T09:01:36.000Z</time>
      </trkpt>
      <trkpt lat="45.81501" lon="1.85694">
        <ele>709.7</ele>
        <time>2026-07-09T09:01:37.000Z</time>
      </trkpt>
      <trkpt lat="45.81501" lon="1.85694">
        <ele>709.7</ele>
        <time>2026-07-09T09:01:38.000Z</time>
      </trkpt>
      <trkpt lat="45.81501" lon="1.85694">
        <ele>709.7</ele>
        <time>2026-07-09T09:01:39.000Z</time>
      </trkpt>
      <trkpt lat="45.81501" lon="1.85694">
        <ele>709.7</ele>
        <time>2026-07-09T09:01:40.000Z</time>
      </trkpt>
      <trkpt lat="45.81501" lon="1.85694">
        <ele>709.7</ele>
        <time>2026-07-09T09:01:41.000Z</time>
      </trkpt>
      <trkpt lat="45.81501" lon="1.85694">
        <ele>709.7</ele>
        <time>2026-07-09T09:01:42.000Z</time>
      </trkpt>
      <trkpt lat="45.81501" lon="1.85694">
        <ele>709.7</ele>
        <time>2026-07-09T09:01:43.000Z</time>
      </trkpt>
      <trkpt lat="45.81501" lon="1.85694">
        <ele>709.7</ele>
        <time>2026-07-09T09:01:44.000Z</time>
      </trkpt>
      <trkpt lat="45.81501" lon="1.85694">
        <ele>709.7</ele>
        <time>2026-07-09T09:01:45.000Z</time>
      </trkpt>
      <trkpt lat="45.81501" lon="1.85694">
        <ele>709.7</ele>
        <time>2026-07-09T09:01:46.000Z</time>
      </trkpt>
      <trkpt lat="45.81501" lon="1.85694">
        <ele>709.7</ele>
        <time>2026-07-09T09:01:47.000Z</time>
      </trkpt>
      <trkpt lat="45.81501" lon="1.85694">
        <ele>709.7</ele>
        <time>2026-07-09T09:01:48.000Z</time>
      </trkpt>
      <trkpt lat="45.81501" lon="1.85694">
        <ele>709.7</ele>
        <time>2026-07-09T09:01:49.000Z</time>
      </trkpt>
      <trkpt lat="45.81502" lon="1.85694">
        <ele>709.7</ele>
        <time>2026-07-09T09:01:50.000Z</time>
      </trkpt>
      <trkpt lat="45.81502" lon="1.85694">
        <ele>710.1</ele>
        <time>2026-07-09T09:01:51.000Z</time>
      </trkpt>
      <trkpt lat="45.81502" lon="1.85694">
        <ele>710</ele>
        <time>2026-07-09T09:01:52.000Z</time>
      </trkpt>
      <trkpt lat="45.81502" lon="1.85694">
        <ele>710</ele>
        <time>2026-07-09T09:01:53.000Z</time>
      </trkpt>
      <trkpt lat="45.81502" lon="1.85694">
        <ele>710</ele>
        <time>2026-07-09T09:01:54.000Z</time>
      </trkpt>
      <trkpt lat="45.81502" lon="1.85694">
        <ele>710</ele>
        <time>2026-07-09T09:01:55.000Z</time>
      </trkpt>
      <trkpt lat="45.81502" lon="1.85694">
        <ele>710</ele>
        <time>2026-07-09T09:01:56.000Z</time>
      </trkpt>
      <trkpt lat="45.81503" lon="1.85694">
        <ele>710</ele>
        <time>2026-07-09T09:01:57.000Z</time>
      </trkpt>
      <trkpt lat="45.81503" lon="1.85694">
        <ele>709.7</ele>
        <time>2026-07-09T09:01:58.000Z</time>
      </trkpt>
      <trkpt lat="45.81503" lon="1.85694">
        <ele>709.8</ele>
        <time>2026-07-09T09:01:59.000Z</time>
      </trkpt>
      <trkpt lat="45.81503" lon="1.85694">
        <ele>709.6</ele>
        <time>2026-07-09T09:02:00.000Z</time>
      </trkpt>
      <trkpt lat="45.81504" lon="1.85694">
        <ele>709.4</ele>
        <time>2026-07-09T09:02:01.000Z</time>
      </trkpt>
      <trkpt lat="45.81504" lon="1.85694">
        <ele>708.9</ele>
        <time>2026-07-09T09:02:02.000Z</time>
      </trkpt>
      <trkpt lat="45.81504" lon="1.85694">
        <ele>708.9</ele>
        <time>2026-07-09T09:02:03.000Z</time>
      </trkpt>
      <trkpt lat="45.81504" lon="1.85694">
        <ele>708.9</ele>
        <time>2026-07-09T09:02:04.000Z</time>
      </trkpt>
      <trkpt lat="45.81504" lon="1.85694">
        <ele>708.9</ele>
        <time>2026-07-09T09:02:05.000Z</time>
      </trkpt>
      <trkpt lat="45.81504" lon="1.85694">
        <ele>708.9</ele>
        <time>2026-07-09T09:02:06.000Z</time>
      </trkpt>
      <trkpt lat="45.81504" lon="1.85694">
        <ele>708.9</ele>
        <time>2026-07-09T09:02:07.000Z</time>
      </trkpt>
      <trkpt lat="45.81504" lon="1.85694">
        <ele>708.9</ele>
        <time>2026-07-09T09:02:08.000Z</time>
      </trkpt>
      <trkpt lat="45.81504" lon="1.85695">
        <ele>708.8</ele>
        <time>2026-07-09T09:02:09.000Z</time>
      </trkpt>
      <trkpt lat="45.81505" lon="1.85695">
        <ele>708.7</ele>
        <time>2026-07-09T09:02:10.000Z</time>
      </trkpt>
      <trkpt lat="45.81505" lon="1.85695">
        <ele>708.7</ele>
        <time>2026-07-09T09:02:11.000Z</time>
      </trkpt>
      <trkpt lat="45.81505" lon="1.85695">
        <ele>708.4</ele>
        <time>2026-07-09T09:02:12.000Z</time>
      </trkpt>
      <trkpt lat="45.81505" lon="1.85695">
        <ele>708.4</ele>
        <time>2026-07-09T09:02:13.000Z</time>
      </trkpt>
      <trkpt lat="45.81505" lon="1.85695">
        <ele>708.4</ele>
        <time>2026-07-09T09:02:14.000Z</time>
      </trkpt>
      <trkpt lat="45.81505" lon="1.85695">
        <ele>708.4</ele>
        <time>2026-07-09T09:02:15.000Z</time>
      </trkpt>
      <trkpt lat="45.81505" lon="1.85695">
        <ele>708.4</ele>
        <time>2026-07-09T09:02:16.000Z</time>
      </trkpt>
      <trkpt lat="45.81505" lon="1.85695">
        <ele>708.4</ele>
        <time>2026-07-09T09:02:17.000Z</time>
      </trkpt>
      <trkpt lat="45.81505" lon="1.85695">
        <ele>708.4</ele>
        <time>2026-07-09T09:02:18.000Z</time>
      </trkpt>
      <trkpt lat="45.81505" lon="1.85695">
        <ele>708.4</ele>
        <time>2026-07-09T09:02:19.000Z</time>
      </trkpt>
      <trkpt lat="45.81505" lon="1.85695">
        <ele>708.4</ele>
        <time>2026-07-09T09:02:20.000Z</time>
      </trkpt>
      <trkpt lat="45.81505" lon="1.85695">
        <ele>708.4</ele>
        <time>2026-07-09T09:02:21.000Z</time>
      </trkpt>
      <trkpt lat="45.81505" lon="1.85695">
        <ele>708.4</ele>
        <time>2026-07-09T09:02:22.000Z</time>
      </trkpt>
      <trkpt lat="45.81505" lon="1.85695">
        <ele>708.4</ele>
        <time>2026-07-09T09:02:23.000Z</time>
      </trkpt>
      <trkpt lat="45.81505" lon="1.85695">
        <ele>708.4</ele>
        <time>2026-07-09T09:02:24.000Z</time>
      </trkpt>
      <trkpt lat="45.81505" lon="1.85695">
        <ele>708.4</ele>
        <time>2026-07-09T09:02:25.000Z</time>
      </trkpt>
      <trkpt lat="45.81505" lon="1.85694">
        <ele>708.3</ele>
        <time>2026-07-09T09:02:26.000Z</time>
      </trkpt>
      <trkpt lat="45.81505" lon="1.85695">
        <ele>707.9</ele>
        <time>2026-07-09T09:02:27.000Z</time>
      </trkpt>
      <trkpt lat="45.81505" lon="1.85695">
        <ele>707.9</ele>
        <time>2026-07-09T09:02:28.000Z</time>
      </trkpt>
      <trkpt lat="45.81505" lon="1.85695">
        <ele>707.9</ele>
        <time>2026-07-09T09:02:29.000Z</time>
      </trkpt>
      <trkpt lat="45.81505" lon="1.85695">
        <ele>707.9</ele>
        <time>2026-07-09T09:02:30.000Z</time>
      </trkpt>
      <trkpt lat="45.81505" lon="1.85695">
        <ele>707.9</ele>
        <time>2026-07-09T09:02:31.000Z</time>
      </trkpt>
      <trkpt lat="45.81505" lon="1.85695">
        <ele>707.9</ele>
        <time>2026-07-09T09:02:32.000Z</time>
      </trkpt>
      <trkpt lat="45.81505" lon="1.85695">
        <ele>707.9</ele>
        <time>2026-07-09T09:02:33.000Z</time>
      </trkpt>
      <trkpt lat="45.81505" lon="1.85696">
        <ele>707.7</ele>
        <time>2026-07-09T09:02:34.000Z</time>
      </trkpt>
      <trkpt lat="45.81505" lon="1.85697">
        <ele>707.9</ele>
        <time>2026-07-09T09:02:35.000Z</time>
      </trkpt>
      <trkpt lat="45.81506" lon="1.857">
        <ele>708.4</ele>
        <time>2026-07-09T09:02:36.000Z</time>
      </trkpt>
      <trkpt lat="45.81507" lon="1.85702">
        <ele>706.6</ele>
        <time>2026-07-09T09:02:37.000Z</time>
      </trkpt>
      <trkpt lat="45.81507" lon="1.85704">
        <ele>706.7</ele>
        <time>2026-07-09T09:02:38.000Z</time>
      </trkpt>
      <trkpt lat="45.81508" lon="1.85705">
        <ele>706.6</ele>
        <time>2026-07-09T09:02:39.000Z</time>
      </trkpt>
      <trkpt lat="45.81508" lon="1.85707">
        <ele>706.1</ele>
        <time>2026-07-09T09:02:40.000Z</time>
      </trkpt>
      <trkpt lat="45.81508" lon="1.85709">
        <ele>705.8</ele>
        <time>2026-07-09T09:02:41.000Z</time>
      </trkpt>
      <trkpt lat="45.81509" lon="1.8571">
        <ele>704.9</ele>
        <time>2026-07-09T09:02:42.000Z</time>
      </trkpt>
      <trkpt lat="45.8151" lon="1.85712">
        <ele>705.1</ele>
        <time>2026-07-09T09:02:43.000Z</time>
      </trkpt>
      <trkpt lat="45.8151" lon="1.85713">
        <ele>705.5</ele>
        <time>2026-07-09T09:02:44.000Z</time>
      </trkpt>
      <trkpt lat="45.81511" lon="1.85715">
        <ele>705.4</ele>
        <time>2026-07-09T09:02:45.000Z</time>
      </trkpt>
      <trkpt lat="45.81511" lon="1.85717">
        <ele>705.8</ele>
        <time>2026-07-09T09:02:46.000Z</time>
      </trkpt>
      <trkpt lat="45.81512" lon="1.85719">
        <ele>705.3</ele>
        <time>2026-07-09T09:02:47.000Z</time>
      </trkpt>
      <trkpt lat="45.81513" lon="1.85721">
        <ele>705.3</ele>
        <time>2026-07-09T09:02:48.000Z</time>
      </trkpt>
      <trkpt lat="45.81514" lon="1.85722">
        <ele>705.8</ele>
        <time>2026-07-09T09:02:49.000Z</time>
      </trkpt>
      <trkpt lat="45.81515" lon="1.85725">
        <ele>706.1</ele>
        <time>2026-07-09T09:02:50.000Z</time>
      </trkpt>
      <trkpt lat="45.81516" lon="1.85727">
        <ele>706.5</ele>
        <time>2026-07-09T09:02:51.000Z</time>
      </trkpt>
      <trkpt lat="45.81517" lon="1.85729">
        <ele>705.9</ele>
        <time>2026-07-09T09:02:52.000Z</time>
      </trkpt>
      <trkpt lat="45.81518" lon="1.85731">
        <ele>705.5</ele>
        <time>2026-07-09T09:02:53.000Z</time>
      </trkpt>
      <trkpt lat="45.81519" lon="1.85733">
        <ele>705.4</ele>
        <time>2026-07-09T09:02:54.000Z</time>
      </trkpt>
      <trkpt lat="45.81521" lon="1.85735">
        <ele>705.5</ele>
        <time>2026-07-09T09:02:55.000Z</time>
      </trkpt>
      <trkpt lat="45.81522" lon="1.85737">
        <ele>705.7</ele>
        <time>2026-07-09T09:02:56.000Z</time>
      </trkpt>
      <trkpt lat="45.81523" lon="1.8574">
        <ele>706.4</ele>
        <time>2026-07-09T09:02:57.000Z</time>
      </trkpt>
      <trkpt lat="45.81524" lon="1.85742">
        <ele>706.6</ele>
        <time>2026-07-09T09:02:58.000Z</time>
      </trkpt>
      <trkpt lat="45.81525" lon="1.85744">
        <ele>706.7</ele>
        <time>2026-07-09T09:02:59.000Z</time>
      </trkpt>
      <trkpt lat="45.81526" lon="1.85746">
        <ele>707.1</ele>
        <time>2026-07-09T09:03:00.000Z</time>
      </trkpt>
      <trkpt lat="45.81527" lon="1.85748">
        <ele>707.1</ele>
        <time>2026-07-09T09:03:01.000Z</time>
      </trkpt>
      <trkpt lat="45.81528" lon="1.85749">
        <ele>705.8</ele>
        <time>2026-07-09T09:03:02.000Z</time>
      </trkpt>
      <trkpt lat="45.81529" lon="1.85752">
        <ele>706.4</ele>
        <time>2026-07-09T09:03:03.000Z</time>
      </trkpt>
      <trkpt lat="45.81531" lon="1.85754">
        <ele>706.5</ele>
        <time>2026-07-09T09:03:04.000Z</time>
      </trkpt>
      <trkpt lat="45.81532" lon="1.85756">
        <ele>707.1</ele>
        <time>2026-07-09T09:03:05.000Z</time>
      </trkpt>
      <trkpt lat="45.81533" lon="1.85756">
        <ele>707.2</ele>
        <time>2026-07-09T09:03:06.000Z</time>
      </trkpt>
      <trkpt lat="45.81534" lon="1.85757">
        <ele>707.6</ele>
        <time>2026-07-09T09:03:07.000Z</time>
      </trkpt>
      <trkpt lat="45.81535" lon="1.85758">
        <ele>708</ele>
        <time>2026-07-09T09:03:08.000Z</time>
      </trkpt>
      <trkpt lat="45.81537" lon="1.85758">
        <ele>707.8</ele>
        <time>2026-07-09T09:03:09.000Z</time>
      </trkpt>
      <trkpt lat="45.81538" lon="1.85758">
        <ele>707.6</ele>
        <time>2026-07-09T09:03:10.000Z</time>
      </trkpt>
      <trkpt lat="45.81539" lon="1.85759">
        <ele>706.7</ele>
        <time>2026-07-09T09:03:11.000Z</time>
      </trkpt>
      <trkpt lat="45.81539" lon="1.85758">
        <ele>707.1</ele>
        <time>2026-07-09T09:03:12.000Z</time>
      </trkpt>
      <trkpt lat="45.81539" lon="1.85758">
        <ele>707.1</ele>
        <time>2026-07-09T09:03:13.000Z</time>
      </trkpt>
      <trkpt lat="45.81539" lon="1.85758">
        <ele>707.1</ele>
        <time>2026-07-09T09:03:14.000Z</time>
      </trkpt>
      <trkpt lat="45.81539" lon="1.85759">
        <ele>707.3</ele>
        <time>2026-07-09T09:03:15.000Z</time>
      </trkpt>
      <trkpt lat="45.81539" lon="1.85761">
        <ele>707.2</ele>
        <time>2026-07-09T09:03:16.000Z</time>
      </trkpt>
      <trkpt lat="45.81539" lon="1.85762">
        <ele>706.8</ele>
        <time>2026-07-09T09:03:17.000Z</time>
      </trkpt>
      <trkpt lat="45.81538" lon="1.85764">
        <ele>706.7</ele>
        <time>2026-07-09T09:03:18.000Z</time>
      </trkpt>
      <trkpt lat="45.81537" lon="1.85765">
        <ele>706.4</ele>
        <time>2026-07-09T09:03:19.000Z</time>
      </trkpt>
      <trkpt lat="45.81536" lon="1.85766">
        <ele>705.8</ele>
        <time>2026-07-09T09:03:20.000Z</time>
      </trkpt>
      <trkpt lat="45.81534" lon="1.85767">
        <ele>705.4</ele>
        <time>2026-07-09T09:03:21.000Z</time>
      </trkpt>
      <trkpt lat="45.81534" lon="1.85768">
        <ele>705.4</ele>
        <time>2026-07-09T09:03:22.000Z</time>
      </trkpt>
      <trkpt lat="45.81534" lon="1.8577">
        <ele>705</ele>
        <time>2026-07-09T09:03:23.000Z</time>
      </trkpt>
      <trkpt lat="45.81534" lon="1.85771">
        <ele>704.9</ele>
        <time>2026-07-09T09:03:24.000Z</time>
      </trkpt>
      <trkpt lat="45.81534" lon="1.85774">
        <ele>705.3</ele>
        <time>2026-07-09T09:03:25.000Z</time>
      </trkpt>
      <trkpt lat="45.81535" lon="1.85776">
        <ele>706</ele>
        <time>2026-07-09T09:03:26.000Z</time>
      </trkpt>
      <trkpt lat="45.81536" lon="1.85777">
        <ele>706.2</ele>
        <time>2026-07-09T09:03:27.000Z</time>
      </trkpt>
      <trkpt lat="45.81538" lon="1.85778">
        <ele>706</ele>
        <time>2026-07-09T09:03:28.000Z</time>
      </trkpt>
      <trkpt lat="45.8154" lon="1.85778">
        <ele>706.1</ele>
        <time>2026-07-09T09:03:29.000Z</time>
      </trkpt>
      <trkpt lat="45.81541" lon="1.85779">
        <ele>704.8</ele>
        <time>2026-07-09T09:03:30.000Z</time>
      </trkpt>
      <trkpt lat="45.81543" lon="1.8578">
        <ele>703.9</ele>
        <time>2026-07-09T09:03:31.000Z</time>
      </trkpt>
      <trkpt lat="45.81544" lon="1.85781">
        <ele>703.9</ele>
        <time>2026-07-09T09:03:32.000Z</time>
      </trkpt>
      <trkpt lat="45.81545" lon="1.85781">
        <ele>704.3</ele>
        <time>2026-07-09T09:03:33.000Z</time>
      </trkpt>
      <trkpt lat="45.81547" lon="1.85781">
        <ele>703.8</ele>
        <time>2026-07-09T09:03:34.000Z</time>
      </trkpt>
      <trkpt lat="45.81548" lon="1.85782">
        <ele>702.8</ele>
        <time>2026-07-09T09:03:35.000Z</time>
      </trkpt>
      <trkpt lat="45.8155" lon="1.85782">
        <ele>703.9</ele>
        <time>2026-07-09T09:03:36.000Z</time>
      </trkpt>
      <trkpt lat="45.81551" lon="1.8578">
        <ele>704.2</ele>
        <time>2026-07-09T09:03:37.000Z</time>
      </trkpt>
      <trkpt lat="45.81552" lon="1.85778">
        <ele>704.8</ele>
        <time>2026-07-09T09:03:38.000Z</time>
      </trkpt>
      <trkpt lat="45.81553" lon="1.85782">
        <ele>704.4</ele>
        <time>2026-07-09T09:03:39.000Z</time>
      </trkpt>
      <trkpt lat="45.81555" lon="1.85784">
        <ele>704.6</ele>
        <time>2026-07-09T09:03:40.000Z</time>
      </trkpt>
      <trkpt lat="45.81557" lon="1.85786">
        <ele>705.4</ele>
        <time>2026-07-09T09:03:41.000Z</time>
      </trkpt>
      <trkpt lat="45.81559" lon="1.85788">
        <ele>706</ele>
        <time>2026-07-09T09:03:42.000Z</time>
      </trkpt>
      <trkpt lat="45.8156" lon="1.85789">
        <ele>706.2</ele>
        <time>2026-07-09T09:03:43.000Z</time>
      </trkpt>
      <trkpt lat="45.81562" lon="1.8579">
        <ele>706.4</ele>
        <time>2026-07-09T09:03:44.000Z</time>
      </trkpt>
      <trkpt lat="45.81564" lon="1.85791">
        <ele>706.6</ele>
        <time>2026-07-09T09:03:45.000Z</time>
      </trkpt>
      <trkpt lat="45.81565" lon="1.85791">
        <ele>706.7</ele>
        <time>2026-07-09T09:03:46.000Z</time>
      </trkpt>
      <trkpt lat="45.81567" lon="1.85792">
        <ele>706.8</ele>
        <time>2026-07-09T09:03:47.000Z</time>
      </trkpt>
      <trkpt lat="45.81568" lon="1.85793">
        <ele>707.2</ele>
        <time>2026-07-09T09:03:48.000Z</time>
      </trkpt>
      <trkpt lat="45.8157" lon="1.85794">
        <ele>707.1</ele>
        <time>2026-07-09T09:03:49.000Z</time>
      </trkpt>
      <trkpt lat="45.81571" lon="1.85795">
        <ele>707.3</ele>
        <time>2026-07-09T09:03:50.000Z</time>
      </trkpt>
      <trkpt lat="45.81573" lon="1.85795">
        <ele>707.6</ele>
        <time>2026-07-09T09:03:51.000Z</time>
      </trkpt>
      <trkpt lat="45.81574" lon="1.85796">
        <ele>707.6</ele>
        <time>2026-07-09T09:03:52.000Z</time>
      </trkpt>
      <trkpt lat="45.81576" lon="1.85796">
        <ele>707.5</ele>
        <time>2026-07-09T09:03:53.000Z</time>
      </trkpt>
      <trkpt lat="45.81577" lon="1.85797">
        <ele>707</ele>
        <time>2026-07-09T09:03:54.000Z</time>
      </trkpt>
      <trkpt lat="45.81579" lon="1.85797">
        <ele>707</ele>
        <time>2026-07-09T09:03:55.000Z</time>
      </trkpt>
      <trkpt lat="45.8158" lon="1.85797">
        <ele>707.4</ele>
        <time>2026-07-09T09:03:56.000Z</time>
      </trkpt>
      <trkpt lat="45.81582" lon="1.85798">
        <ele>707.5</ele>
        <time>2026-07-09T09:03:57.000Z</time>
      </trkpt>
      <trkpt lat="45.81583" lon="1.85799">
        <ele>707.4</ele>
        <time>2026-07-09T09:03:58.000Z</time>
      </trkpt>
      <trkpt lat="45.81585" lon="1.858">
        <ele>707.4</ele>
        <time>2026-07-09T09:03:59.000Z</time>
      </trkpt>
      <trkpt lat="45.81587" lon="1.85801">
        <ele>707.3</ele>
        <time>2026-07-09T09:04:00.000Z</time>
      </trkpt>
      <trkpt lat="45.81588" lon="1.85801">
        <ele>707.2</ele>
        <time>2026-07-09T09:04:01.000Z</time>
      </trkpt>
      <trkpt lat="45.8159" lon="1.85801">
        <ele>707.3</ele>
        <time>2026-07-09T09:04:02.000Z</time>
      </trkpt>
      <trkpt lat="45.81592" lon="1.858">
        <ele>707.5</ele>
        <time>2026-07-09T09:04:03.000Z</time>
      </trkpt>
      <trkpt lat="45.81594" lon="1.858">
        <ele>707.4</ele>
        <time>2026-07-09T09:04:04.000Z</time>
      </trkpt>
      <trkpt lat="45.81595" lon="1.85799">
        <ele>708.2</ele>
        <time>2026-07-09T09:04:05.000Z</time>
      </trkpt>
      <trkpt lat="45.81597" lon="1.85798">
        <ele>708.4</ele>
        <time>2026-07-09T09:04:06.000Z</time>
      </trkpt>
      <trkpt lat="45.81599" lon="1.85797">
        <ele>708.8</ele>
        <time>2026-07-09T09:04:07.000Z</time>
      </trkpt>
      <trkpt lat="45.816" lon="1.85795">
        <ele>709</ele>
        <time>2026-07-09T09:04:08.000Z</time>
      </trkpt>
      <trkpt lat="45.81602" lon="1.85793">
        <ele>709</ele>
        <time>2026-07-09T09:04:09.000Z</time>
      </trkpt>
      <trkpt lat="45.81604" lon="1.85792">
        <ele>709.4</ele>
        <time>2026-07-09T09:04:10.000Z</time>
      </trkpt>
      <trkpt lat="45.81606" lon="1.85791">
        <ele>710.4</ele>
        <time>2026-07-09T09:04:11.000Z</time>
      </trkpt>
      <trkpt lat="45.81608" lon="1.8579">
        <ele>710.3</ele>
        <time>2026-07-09T09:04:12.000Z</time>
      </trkpt>
      <trkpt lat="45.8161" lon="1.8579">
        <ele>709.5</ele>
        <time>2026-07-09T09:04:13.000Z</time>
      </trkpt>
      <trkpt lat="45.81613" lon="1.8579">
        <ele>709.8</ele>
        <time>2026-07-09T09:04:14.000Z</time>
      </trkpt>
      <trkpt lat="45.81615" lon="1.85791">
        <ele>710.8</ele>
        <time>2026-07-09T09:04:15.000Z</time>
      </trkpt>
      <trkpt lat="45.81617" lon="1.85793">
        <ele>711.2</ele>
        <time>2026-07-09T09:04:16.000Z</time>
      </trkpt>
      <trkpt lat="45.81619" lon="1.85795">
        <ele>710.3</ele>
        <time>2026-07-09T09:04:17.000Z</time>
      </trkpt>
      <trkpt lat="45.8162" lon="1.85796">
        <ele>710.4</ele>
        <time>2026-07-09T09:04:18.000Z</time>
      </trkpt>
      <trkpt lat="45.81622" lon="1.85796">
        <ele>710</ele>
        <time>2026-07-09T09:04:19.000Z</time>
      </trkpt>
      <trkpt lat="45.81623" lon="1.85796">
        <ele>709.1</ele>
        <time>2026-07-09T09:04:20.000Z</time>
      </trkpt>
      <trkpt lat="45.81624" lon="1.85796">
        <ele>709.3</ele>
        <time>2026-07-09T09:04:21.000Z</time>
      </trkpt>
      <trkpt lat="45.81626" lon="1.85796">
        <ele>709.2</ele>
        <time>2026-07-09T09:04:22.000Z</time>
      </trkpt>
      <trkpt lat="45.81628" lon="1.85797">
        <ele>709</ele>
        <time>2026-07-09T09:04:23.000Z</time>
      </trkpt>
      <trkpt lat="45.8163" lon="1.85796">
        <ele>709.1</ele>
        <time>2026-07-09T09:04:24.000Z</time>
      </trkpt>
      <trkpt lat="45.81633" lon="1.85795">
        <ele>708.6</ele>
        <time>2026-07-09T09:04:25.000Z</time>
      </trkpt>
      <trkpt lat="45.81635" lon="1.85794">
        <ele>709.2</ele>
        <time>2026-07-09T09:04:26.000Z</time>
      </trkpt>
      <trkpt lat="45.81637" lon="1.85793">
        <ele>709.8</ele>
        <time>2026-07-09T09:04:27.000Z</time>
      </trkpt>
      <trkpt lat="45.81639" lon="1.85792">
        <ele>709.8</ele>
        <time>2026-07-09T09:04:28.000Z</time>
      </trkpt>
      <trkpt lat="45.8164" lon="1.85792">
        <ele>709.4</ele>
        <time>2026-07-09T09:04:29.000Z</time>
      </trkpt>
      <trkpt lat="45.81642" lon="1.85792">
        <ele>709.4</ele>
        <time>2026-07-09T09:04:30.000Z</time>
      </trkpt>
      <trkpt lat="45.81643" lon="1.85793">
        <ele>708.9</ele>
        <time>2026-07-09T09:04:31.000Z</time>
      </trkpt>
      <trkpt lat="45.81644" lon="1.85793">
        <ele>708.8</ele>
        <time>2026-07-09T09:04:32.000Z</time>
      </trkpt>
      <trkpt lat="45.81645" lon="1.85794">
        <ele>709.1</ele>
        <time>2026-07-09T09:04:33.000Z</time>
      </trkpt>
      <trkpt lat="45.81647" lon="1.85795">
        <ele>708.1</ele>
        <time>2026-07-09T09:04:34.000Z</time>
      </trkpt>
      <trkpt lat="45.81648" lon="1.85795">
        <ele>708.1</ele>
        <time>2026-07-09T09:04:35.000Z</time>
      </trkpt>
      <trkpt lat="45.8165" lon="1.85795">
        <ele>707.7</ele>
        <time>2026-07-09T09:04:36.000Z</time>
      </trkpt>
      <trkpt lat="45.81652" lon="1.85795">
        <ele>707.8</ele>
        <time>2026-07-09T09:04:37.000Z</time>
      </trkpt>
      <trkpt lat="45.81654" lon="1.85794">
        <ele>708.2</ele>
        <time>2026-07-09T09:04:38.000Z</time>
      </trkpt>
      <trkpt lat="45.81655" lon="1.85794">
        <ele>709.1</ele>
        <time>2026-07-09T09:04:39.000Z</time>
      </trkpt>
      <trkpt lat="45.81657" lon="1.85793">
        <ele>708.8</ele>
        <time>2026-07-09T09:04:40.000Z</time>
      </trkpt>
      <trkpt lat="45.81657" lon="1.85793">
        <ele>708.1</ele>
        <time>2026-07-09T09:04:41.000Z</time>
      </trkpt>
      <trkpt lat="45.81658" lon="1.85793">
        <ele>707.5</ele>
        <time>2026-07-09T09:04:42.000Z</time>
      </trkpt>
      <trkpt lat="45.8166" lon="1.85794">
        <ele>707.1</ele>
        <time>2026-07-09T09:04:43.000Z</time>
      </trkpt>
      <trkpt lat="45.81661" lon="1.85795">
        <ele>706.7</ele>
        <time>2026-07-09T09:04:44.000Z</time>
      </trkpt>
      <trkpt lat="45.81663" lon="1.85796">
        <ele>706.5</ele>
        <time>2026-07-09T09:04:45.000Z</time>
      </trkpt>
      <trkpt lat="45.81664" lon="1.85797">
        <ele>706.2</ele>
        <time>2026-07-09T09:04:46.000Z</time>
      </trkpt>
      <trkpt lat="45.81666" lon="1.85798">
        <ele>706.6</ele>
        <time>2026-07-09T09:04:47.000Z</time>
      </trkpt>
      <trkpt lat="45.81668" lon="1.85799">
        <ele>706.7</ele>
        <time>2026-07-09T09:04:48.000Z</time>
      </trkpt>
      <trkpt lat="45.81669" lon="1.85799">
        <ele>706.7</ele>
        <time>2026-07-09T09:04:49.000Z</time>
      </trkpt>
      <trkpt lat="45.81671" lon="1.858">
        <ele>706.5</ele>
        <time>2026-07-09T09:04:50.000Z</time>
      </trkpt>
      <trkpt lat="45.81672" lon="1.858">
        <ele>706.3</ele>
        <time>2026-07-09T09:04:51.000Z</time>
      </trkpt>
      <trkpt lat="45.81674" lon="1.858">
        <ele>706.2</ele>
        <time>2026-07-09T09:04:52.000Z</time>
      </trkpt>
      <trkpt lat="45.81675" lon="1.85801">
        <ele>706.2</ele>
        <time>2026-07-09T09:04:53.000Z</time>
      </trkpt>
      <trkpt lat="45.81676" lon="1.85801">
        <ele>706.2</ele>
        <time>2026-07-09T09:04:54.000Z</time>
      </trkpt>
      <trkpt lat="45.81678" lon="1.85802">
        <ele>705.8</ele>
        <time>2026-07-09T09:04:55.000Z</time>
      </trkpt>
      <trkpt lat="45.81679" lon="1.85803">
        <ele>705.7</ele>
        <time>2026-07-09T09:04:56.000Z</time>
      </trkpt>
      <trkpt lat="45.8168" lon="1.85805">
        <ele>705.4</ele>
        <time>2026-07-09T09:04:57.000Z</time>
      </trkpt>
      <trkpt lat="45.81681" lon="1.85807">
        <ele>705.2</ele>
        <time>2026-07-09T09:04:58.000Z</time>
      </trkpt>
      <trkpt lat="45.81681" lon="1.85809">
        <ele>705</ele>
        <time>2026-07-09T09:04:59.000Z</time>
      </trkpt>
      <trkpt lat="45.81681" lon="1.85811">
        <ele>704.7</ele>
        <time>2026-07-09T09:05:00.000Z</time>
      </trkpt>
      <trkpt lat="45.81682" lon="1.85813">
        <ele>704.7</ele>
        <time>2026-07-09T09:05:01.000Z</time>
      </trkpt>
      <trkpt lat="45.81682" lon="1.85815">
        <ele>704.5</ele>
        <time>2026-07-09T09:05:02.000Z</time>
      </trkpt>
      <trkpt lat="45.81682" lon="1.85818">
        <ele>704.3</ele>
        <time>2026-07-09T09:05:03.000Z</time>
      </trkpt>
      <trkpt lat="45.81682" lon="1.8582">
        <ele>704.1</ele>
        <time>2026-07-09T09:05:04.000Z</time>
      </trkpt>
      <trkpt lat="45.81683" lon="1.85822">
        <ele>704.2</ele>
        <time>2026-07-09T09:05:05.000Z</time>
      </trkpt>
      <trkpt lat="45.81683" lon="1.85824">
        <ele>704.3</ele>
        <time>2026-07-09T09:05:06.000Z</time>
      </trkpt>
      <trkpt lat="45.81683" lon="1.85826">
        <ele>704.3</ele>
        <time>2026-07-09T09:05:07.000Z</time>
      </trkpt>
      <trkpt lat="45.81684" lon="1.85828">
        <ele>704.2</ele>
        <time>2026-07-09T09:05:08.000Z</time>
      </trkpt>
      <trkpt lat="45.81684" lon="1.8583">
        <ele>704</ele>
        <time>2026-07-09T09:05:09.000Z</time>
      </trkpt>
      <trkpt lat="45.81684" lon="1.85831">
        <ele>703.6</ele>
        <time>2026-07-09T09:05:10.000Z</time>
      </trkpt>
      <trkpt lat="45.81686" lon="1.85832">
        <ele>702.1</ele>
        <time>2026-07-09T09:05:11.000Z</time>
      </trkpt>
      <trkpt lat="45.81686" lon="1.85835">
        <ele>703.6</ele>
        <time>2026-07-09T09:05:12.000Z</time>
      </trkpt>
      <trkpt lat="45.81686" lon="1.85837">
        <ele>703.8</ele>
        <time>2026-07-09T09:05:13.000Z</time>
      </trkpt>
      <trkpt lat="45.81686" lon="1.85839">
        <ele>703.9</ele>
        <time>2026-07-09T09:05:14.000Z</time>
      </trkpt>
      <trkpt lat="45.81686" lon="1.85841">
        <ele>703.9</ele>
        <time>2026-07-09T09:05:15.000Z</time>
      </trkpt>
      <trkpt lat="45.81687" lon="1.85843">
        <ele>703.9</ele>
        <time>2026-07-09T09:05:16.000Z</time>
      </trkpt>
      <trkpt lat="45.81687" lon="1.85845">
        <ele>704</ele>
        <time>2026-07-09T09:05:17.000Z</time>
      </trkpt>
      <trkpt lat="45.81687" lon="1.85847">
        <ele>703.7</ele>
        <time>2026-07-09T09:05:18.000Z</time>
      </trkpt>
      <trkpt lat="45.81688" lon="1.85849">
        <ele>703.9</ele>
        <time>2026-07-09T09:05:19.000Z</time>
      </trkpt>
      <trkpt lat="45.81688" lon="1.85851">
        <ele>704.1</ele>
        <time>2026-07-09T09:05:20.000Z</time>
      </trkpt>
      <trkpt lat="45.81689" lon="1.85853">
        <ele>704.1</ele>
        <time>2026-07-09T09:05:21.000Z</time>
      </trkpt>
      <trkpt lat="45.81689" lon="1.85854">
        <ele>704.1</ele>
        <time>2026-07-09T09:05:22.000Z</time>
      </trkpt>
      <trkpt lat="45.81689" lon="1.85855">
        <ele>704.2</ele>
        <time>2026-07-09T09:05:23.000Z</time>
      </trkpt>
      <trkpt lat="45.8169" lon="1.85857">
        <ele>703.7</ele>
        <time>2026-07-09T09:05:24.000Z</time>
      </trkpt>
      <trkpt lat="45.8169" lon="1.85859">
        <ele>703.4</ele>
        <time>2026-07-09T09:05:25.000Z</time>
      </trkpt>
      <trkpt lat="45.81691" lon="1.85861">
        <ele>703.4</ele>
        <time>2026-07-09T09:05:26.000Z</time>
      </trkpt>
      <trkpt lat="45.81691" lon="1.85864">
        <ele>702.9</ele>
        <time>2026-07-09T09:05:27.000Z</time>
      </trkpt>
      <trkpt lat="45.81692" lon="1.85866">
        <ele>702.8</ele>
        <time>2026-07-09T09:05:28.000Z</time>
      </trkpt>
      <trkpt lat="45.81692" lon="1.85868">
        <ele>702.8</ele>
        <time>2026-07-09T09:05:29.000Z</time>
      </trkpt>
      <trkpt lat="45.81693" lon="1.85871">
        <ele>702.7</ele>
        <time>2026-07-09T09:05:30.000Z</time>
      </trkpt>
      <trkpt lat="45.81693" lon="1.85873">
        <ele>702.7</ele>
        <time>2026-07-09T09:05:31.000Z</time>
      </trkpt>
      <trkpt lat="45.81694" lon="1.85875">
        <ele>702.8</ele>
        <time>2026-07-09T09:05:32.000Z</time>
      </trkpt>
      <trkpt lat="45.81694" lon="1.85877">
        <ele>702.9</ele>
        <time>2026-07-09T09:05:33.000Z</time>
      </trkpt>
      <trkpt lat="45.81695" lon="1.8588">
        <ele>703.3</ele>
        <time>2026-07-09T09:05:34.000Z</time>
      </trkpt>
      <trkpt lat="45.81695" lon="1.85882">
        <ele>703.4</ele>
        <time>2026-07-09T09:05:35.000Z</time>
      </trkpt>
      <trkpt lat="45.81695" lon="1.85884">
        <ele>703.4</ele>
        <time>2026-07-09T09:05:36.000Z</time>
      </trkpt>
      <trkpt lat="45.81696" lon="1.85887">
        <ele>703.8</ele>
        <time>2026-07-09T09:05:37.000Z</time>
      </trkpt>
      <trkpt lat="45.81696" lon="1.85889">
        <ele>703.5</ele>
        <time>2026-07-09T09:05:38.000Z</time>
      </trkpt>
      <trkpt lat="45.81696" lon="1.85891">
        <ele>703.4</ele>
        <time>2026-07-09T09:05:39.000Z</time>
      </trkpt>
      <trkpt lat="45.81697" lon="1.85894">
        <ele>703.5</ele>
        <time>2026-07-09T09:05:40.000Z</time>
      </trkpt>
      <trkpt lat="45.81697" lon="1.85896">
        <ele>703.6</ele>
        <time>2026-07-09T09:05:41.000Z</time>
      </trkpt>
      <trkpt lat="45.81698" lon="1.85898">
        <ele>703.7</ele>
        <time>2026-07-09T09:05:42.000Z</time>
      </trkpt>
      <trkpt lat="45.81698" lon="1.859">
        <ele>703.5</ele>
        <time>2026-07-09T09:05:43.000Z</time>
      </trkpt>
      <trkpt lat="45.81699" lon="1.85902">
        <ele>703.9</ele>
        <time>2026-07-09T09:05:44.000Z</time>
      </trkpt>
      <trkpt lat="45.81699" lon="1.85904">
        <ele>703.7</ele>
        <time>2026-07-09T09:05:45.000Z</time>
      </trkpt>
      <trkpt lat="45.817" lon="1.85906">
        <ele>703.6</ele>
        <time>2026-07-09T09:05:46.000Z</time>
      </trkpt>
      <trkpt lat="45.817" lon="1.85908">
        <ele>703.4</ele>
        <time>2026-07-09T09:05:47.000Z</time>
      </trkpt>
      <trkpt lat="45.817" lon="1.8591">
        <ele>703.3</ele>
        <time>2026-07-09T09:05:48.000Z</time>
      </trkpt>
      <trkpt lat="45.81701" lon="1.85912">
        <ele>703.1</ele>
        <time>2026-07-09T09:05:49.000Z</time>
      </trkpt>
      <trkpt lat="45.81701" lon="1.85914">
        <ele>703.1</ele>
        <time>2026-07-09T09:05:50.000Z</time>
      </trkpt>
      <trkpt lat="45.81701" lon="1.85916">
        <ele>703</ele>
        <time>2026-07-09T09:05:51.000Z</time>
      </trkpt>
      <trkpt lat="45.81702" lon="1.85918">
        <ele>702.8</ele>
        <time>2026-07-09T09:05:52.000Z</time>
      </trkpt>
      <trkpt lat="45.81702" lon="1.8592">
        <ele>702.8</ele>
        <time>2026-07-09T09:05:53.000Z</time>
      </trkpt>
      <trkpt lat="45.81703" lon="1.85922">
        <ele>702.6</ele>
        <time>2026-07-09T09:05:54.000Z</time>
      </trkpt>
      <trkpt lat="45.81703" lon="1.85924">
        <ele>703</ele>
        <time>2026-07-09T09:05:55.000Z</time>
      </trkpt>
      <trkpt lat="45.81704" lon="1.85926">
        <ele>703</ele>
        <time>2026-07-09T09:05:56.000Z</time>
      </trkpt>
      <trkpt lat="45.81704" lon="1.85928">
        <ele>702.9</ele>
        <time>2026-07-09T09:05:57.000Z</time>
      </trkpt>
      <trkpt lat="45.81705" lon="1.85931">
        <ele>702.9</ele>
        <time>2026-07-09T09:05:58.000Z</time>
      </trkpt>
      <trkpt lat="45.81705" lon="1.85933">
        <ele>702.8</ele>
        <time>2026-07-09T09:05:59.000Z</time>
      </trkpt>
      <trkpt lat="45.81705" lon="1.85935">
        <ele>702.9</ele>
        <time>2026-07-09T09:06:00.000Z</time>
      </trkpt>
      <trkpt lat="45.81706" lon="1.85937">
        <ele>702.9</ele>
        <time>2026-07-09T09:06:01.000Z</time>
      </trkpt>
      <trkpt lat="45.81706" lon="1.85939">
        <ele>702.7</ele>
        <time>2026-07-09T09:06:02.000Z</time>
      </trkpt>
      <trkpt lat="45.81707" lon="1.85941">
        <ele>702.8</ele>
        <time>2026-07-09T09:06:03.000Z</time>
      </trkpt>
      <trkpt lat="45.81707" lon="1.85943">
        <ele>702.6</ele>
        <time>2026-07-09T09:06:04.000Z</time>
      </trkpt>
      <trkpt lat="45.81707" lon="1.85945">
        <ele>702.6</ele>
        <time>2026-07-09T09:06:05.000Z</time>
      </trkpt>
      <trkpt lat="45.81708" lon="1.85947">
        <ele>702.6</ele>
        <time>2026-07-09T09:06:06.000Z</time>
      </trkpt>
      <trkpt lat="45.81708" lon="1.85949">
        <ele>702.3</ele>
        <time>2026-07-09T09:06:07.000Z</time>
      </trkpt>
      <trkpt lat="45.81709" lon="1.85951">
        <ele>702.2</ele>
        <time>2026-07-09T09:06:08.000Z</time>
      </trkpt>
      <trkpt lat="45.8171" lon="1.85954">
        <ele>702.1</ele>
        <time>2026-07-09T09:06:09.000Z</time>
      </trkpt>
      <trkpt lat="45.8171" lon="1.85956">
        <ele>701.9</ele>
        <time>2026-07-09T09:06:10.000Z</time>
      </trkpt>
      <trkpt lat="45.81711" lon="1.85958">
        <ele>701.6</ele>
        <time>2026-07-09T09:06:11.000Z</time>
      </trkpt>
      <trkpt lat="45.81711" lon="1.8596">
        <ele>701.9</ele>
        <time>2026-07-09T09:06:12.000Z</time>
      </trkpt>
      <trkpt lat="45.81711" lon="1.85962">
        <ele>701.9</ele>
        <time>2026-07-09T09:06:13.000Z</time>
      </trkpt>
      <trkpt lat="45.8171" lon="1.85964">
        <ele>701.9</ele>
        <time>2026-07-09T09:06:14.000Z</time>
      </trkpt>
      <trkpt lat="45.8171" lon="1.85966">
        <ele>702</ele>
        <time>2026-07-09T09:06:15.000Z</time>
      </trkpt>
      <trkpt lat="45.81709" lon="1.85969">
        <ele>701.9</ele>
        <time>2026-07-09T09:06:16.000Z</time>
      </trkpt>
      <trkpt lat="45.81709" lon="1.85971">
        <ele>702.1</ele>
        <time>2026-07-09T09:06:17.000Z</time>
      </trkpt>
      <trkpt lat="45.8171" lon="1.85973">
        <ele>702.2</ele>
        <time>2026-07-09T09:06:18.000Z</time>
      </trkpt>
      <trkpt lat="45.8171" lon="1.85975">
        <ele>702.2</ele>
        <time>2026-07-09T09:06:19.000Z</time>
      </trkpt>
      <trkpt lat="45.81711" lon="1.85977">
        <ele>702.5</ele>
        <time>2026-07-09T09:06:20.000Z</time>
      </trkpt>
      <trkpt lat="45.81711" lon="1.85979">
        <ele>702.6</ele>
        <time>2026-07-09T09:06:21.000Z</time>
      </trkpt>
      <trkpt lat="45.81713" lon="1.85981">
        <ele>702.3</ele>
        <time>2026-07-09T09:06:22.000Z</time>
      </trkpt>
      <trkpt lat="45.81714" lon="1.85983">
        <ele>702.2</ele>
        <time>2026-07-09T09:06:23.000Z</time>
      </trkpt>
      <trkpt lat="45.81715" lon="1.85984">
        <ele>702</ele>
        <time>2026-07-09T09:06:24.000Z</time>
      </trkpt>
      <trkpt lat="45.81716" lon="1.85986">
        <ele>701.9</ele>
        <time>2026-07-09T09:06:25.000Z</time>
      </trkpt>
      <trkpt lat="45.81717" lon="1.85988">
        <ele>702.1</ele>
        <time>2026-07-09T09:06:26.000Z</time>
      </trkpt>
      <trkpt lat="45.81717" lon="1.8599">
        <ele>702.1</ele>
        <time>2026-07-09T09:06:27.000Z</time>
      </trkpt>
      <trkpt lat="45.81718" lon="1.85992">
        <ele>702.2</ele>
        <time>2026-07-09T09:06:28.000Z</time>
      </trkpt>
      <trkpt lat="45.81719" lon="1.85994">
        <ele>702.3</ele>
        <time>2026-07-09T09:06:29.000Z</time>
      </trkpt>
      <trkpt lat="45.8172" lon="1.85995">
        <ele>702.2</ele>
        <time>2026-07-09T09:06:30.000Z</time>
      </trkpt>
      <trkpt lat="45.8172" lon="1.85997">
        <ele>702.3</ele>
        <time>2026-07-09T09:06:31.000Z</time>
      </trkpt>
      <trkpt lat="45.81722" lon="1.85999">
        <ele>701.8</ele>
        <time>2026-07-09T09:06:32.000Z</time>
      </trkpt>
      <trkpt lat="45.81722" lon="1.86001">
        <ele>701.7</ele>
        <time>2026-07-09T09:06:33.000Z</time>
      </trkpt>
      <trkpt lat="45.81723" lon="1.86004">
        <ele>701.4</ele>
        <time>2026-07-09T09:06:34.000Z</time>
      </trkpt>
      <trkpt lat="45.81723" lon="1.86005">
        <ele>702.7</ele>
        <time>2026-07-09T09:06:35.000Z</time>
      </trkpt>
      <trkpt lat="45.81722" lon="1.86006">
        <ele>703.3</ele>
        <time>2026-07-09T09:06:36.000Z</time>
      </trkpt>
      <trkpt lat="45.81722" lon="1.86006">
        <ele>703.5</ele>
        <time>2026-07-09T09:06:37.000Z</time>
      </trkpt>
      <trkpt lat="45.81722" lon="1.8601">
        <ele>705.8</ele>
        <time>2026-07-09T09:06:38.000Z</time>
      </trkpt>
      <trkpt lat="45.81721" lon="1.86012">
        <ele>707</ele>
        <time>2026-07-09T09:06:39.000Z</time>
      </trkpt>
      <trkpt lat="45.81721" lon="1.86014">
        <ele>707.8</ele>
        <time>2026-07-09T09:06:40.000Z</time>
      </trkpt>
      <trkpt lat="45.81721" lon="1.86015">
        <ele>707.2</ele>
        <time>2026-07-09T09:06:41.000Z</time>
      </trkpt>
      <trkpt lat="45.81721" lon="1.86016">
        <ele>707.3</ele>
        <time>2026-07-09T09:06:42.000Z</time>
      </trkpt>
      <trkpt lat="45.81721" lon="1.86015">
        <ele>706.9</ele>
        <time>2026-07-09T09:06:43.000Z</time>
      </trkpt>
      <trkpt lat="45.81721" lon="1.86015">
        <ele>706.9</ele>
        <time>2026-07-09T09:06:44.000Z</time>
      </trkpt>
      <trkpt lat="45.81721" lon="1.86014">
        <ele>706.9</ele>
        <time>2026-07-09T09:06:45.000Z</time>
      </trkpt>
      <trkpt lat="45.81721" lon="1.86014">
        <ele>706.9</ele>
        <time>2026-07-09T09:06:46.000Z</time>
      </trkpt>
      <trkpt lat="45.81721" lon="1.86014">
        <ele>706.9</ele>
        <time>2026-07-09T09:06:47.000Z</time>
      </trkpt>
      <trkpt lat="45.81721" lon="1.86014">
        <ele>707.1</ele>
        <time>2026-07-09T09:06:48.000Z</time>
      </trkpt>
      <trkpt lat="45.81721" lon="1.86014">
        <ele>707.4</ele>
        <time>2026-07-09T09:06:49.000Z</time>
      </trkpt>
      <trkpt lat="45.81722" lon="1.86015">
        <ele>706.8</ele>
        <time>2026-07-09T09:06:50.000Z</time>
      </trkpt>
      <trkpt lat="45.81723" lon="1.86014">
        <ele>706.1</ele>
        <time>2026-07-09T09:06:51.000Z</time>
      </trkpt>
      <trkpt lat="45.81726" lon="1.86014">
        <ele>706.3</ele>
        <time>2026-07-09T09:06:52.000Z</time>
      </trkpt>
      <trkpt lat="45.81727" lon="1.86015">
        <ele>706.3</ele>
        <time>2026-07-09T09:06:53.000Z</time>
      </trkpt>
      <trkpt lat="45.81728" lon="1.86017">
        <ele>706.1</ele>
        <time>2026-07-09T09:06:54.000Z</time>
      </trkpt>
      <trkpt lat="45.81729" lon="1.86018">
        <ele>706.5</ele>
        <time>2026-07-09T09:06:55.000Z</time>
      </trkpt>
      <trkpt lat="45.8173" lon="1.8602">
        <ele>706.1</ele>
        <time>2026-07-09T09:06:56.000Z</time>
      </trkpt>
      <trkpt lat="45.81731" lon="1.86021">
        <ele>706</ele>
        <time>2026-07-09T09:06:57.000Z</time>
      </trkpt>
      <trkpt lat="45.81732" lon="1.86022">
        <ele>706</ele>
        <time>2026-07-09T09:06:58.000Z</time>
      </trkpt>
      <trkpt lat="45.81733" lon="1.86023">
        <ele>705.9</ele>
        <time>2026-07-09T09:06:59.000Z</time>
      </trkpt>
      <trkpt lat="45.81734" lon="1.86024">
        <ele>705.6</ele>
        <time>2026-07-09T09:07:00.000Z</time>
      </trkpt>
      <trkpt lat="45.81735" lon="1.86025">
        <ele>705.6</ele>
        <time>2026-07-09T09:07:01.000Z</time>
      </trkpt>
      <trkpt lat="45.81736" lon="1.86026">
        <ele>705.6</ele>
        <time>2026-07-09T09:07:02.000Z</time>
      </trkpt>
      <trkpt lat="45.81737" lon="1.86027">
        <ele>705.7</ele>
        <time>2026-07-09T09:07:03.000Z</time>
      </trkpt>
      <trkpt lat="45.81739" lon="1.86028">
        <ele>705.5</ele>
        <time>2026-07-09T09:07:04.000Z</time>
      </trkpt>
      <trkpt lat="45.8174" lon="1.86029">
        <ele>705.4</ele>
        <time>2026-07-09T09:07:05.000Z</time>
      </trkpt>
      <trkpt lat="45.81741" lon="1.86029">
        <ele>705.3</ele>
        <time>2026-07-09T09:07:06.000Z</time>
      </trkpt>
      <trkpt lat="45.81743" lon="1.86029">
        <ele>705.4</ele>
        <time>2026-07-09T09:07:07.000Z</time>
      </trkpt>
      <trkpt lat="45.81744" lon="1.8603">
        <ele>705.3</ele>
        <time>2026-07-09T09:07:08.000Z</time>
      </trkpt>
      <trkpt lat="45.81745" lon="1.8603">
        <ele>704.8</ele>
        <time>2026-07-09T09:07:09.000Z</time>
      </trkpt>
      <trkpt lat="45.81746" lon="1.86031">
        <ele>704.8</ele>
        <time>2026-07-09T09:07:10.000Z</time>
      </trkpt>
      <trkpt lat="45.81747" lon="1.86032">
        <ele>705</ele>
        <time>2026-07-09T09:07:11.000Z</time>
      </trkpt>
      <trkpt lat="45.81749" lon="1.86032">
        <ele>704.4</ele>
        <time>2026-07-09T09:07:12.000Z</time>
      </trkpt>
      <trkpt lat="45.8175" lon="1.86032">
        <ele>704.2</ele>
        <time>2026-07-09T09:07:13.000Z</time>
      </trkpt>
      <trkpt lat="45.81751" lon="1.86033">
        <ele>703.9</ele>
        <time>2026-07-09T09:07:14.000Z</time>
      </trkpt>
      <trkpt lat="45.81753" lon="1.86033">
        <ele>703.9</ele>
        <time>2026-07-09T09:07:15.000Z</time>
      </trkpt>
      <trkpt lat="45.81754" lon="1.86034">
        <ele>703.8</ele>
        <time>2026-07-09T09:07:16.000Z</time>
      </trkpt>
      <trkpt lat="45.81755" lon="1.86034">
        <ele>703.7</ele>
        <time>2026-07-09T09:07:17.000Z</time>
      </trkpt>
      <trkpt lat="45.81756" lon="1.86035">
        <ele>703.9</ele>
        <time>2026-07-09T09:07:18.000Z</time>
      </trkpt>
      <trkpt lat="45.81757" lon="1.86036">
        <ele>703.7</ele>
        <time>2026-07-09T09:07:19.000Z</time>
      </trkpt>
      <trkpt lat="45.81759" lon="1.86037">
        <ele>703.6</ele>
        <time>2026-07-09T09:07:20.000Z</time>
      </trkpt>
      <trkpt lat="45.8176" lon="1.86038">
        <ele>703</ele>
        <time>2026-07-09T09:07:21.000Z</time>
      </trkpt>
      <trkpt lat="45.81761" lon="1.8604">
        <ele>703.1</ele>
        <time>2026-07-09T09:07:22.000Z</time>
      </trkpt>
      <trkpt lat="45.81762" lon="1.86041">
        <ele>703</ele>
        <time>2026-07-09T09:07:23.000Z</time>
      </trkpt>
      <trkpt lat="45.81764" lon="1.86042">
        <ele>702.9</ele>
        <time>2026-07-09T09:07:24.000Z</time>
      </trkpt>
      <trkpt lat="45.81765" lon="1.86044">
        <ele>702.9</ele>
        <time>2026-07-09T09:07:25.000Z</time>
      </trkpt>
      <trkpt lat="45.81767" lon="1.86045">
        <ele>702.7</ele>
        <time>2026-07-09T09:07:26.000Z</time>
      </trkpt>
      <trkpt lat="45.81768" lon="1.86047">
        <ele>702.9</ele>
        <time>2026-07-09T09:07:27.000Z</time>
      </trkpt>
      <trkpt lat="45.8177" lon="1.86048">
        <ele>703</ele>
        <time>2026-07-09T09:07:28.000Z</time>
      </trkpt>
      <trkpt lat="45.81771" lon="1.86049">
        <ele>702.9</ele>
        <time>2026-07-09T09:07:29.000Z</time>
      </trkpt>
      <trkpt lat="45.81772" lon="1.86051">
        <ele>702.9</ele>
        <time>2026-07-09T09:07:30.000Z</time>
      </trkpt>
      <trkpt lat="45.81774" lon="1.86052">
        <ele>703</ele>
        <time>2026-07-09T09:07:31.000Z</time>
      </trkpt>
      <trkpt lat="45.81775" lon="1.86053">
        <ele>703</ele>
        <time>2026-07-09T09:07:32.000Z</time>
      </trkpt>
      <trkpt lat="45.81777" lon="1.86054">
        <ele>703.4</ele>
        <time>2026-07-09T09:07:33.000Z</time>
      </trkpt>
      <trkpt lat="45.81779" lon="1.86054">
        <ele>703.4</ele>
        <time>2026-07-09T09:07:34.000Z</time>
      </trkpt>
      <trkpt lat="45.8178" lon="1.86055">
        <ele>703.3</ele>
        <time>2026-07-09T09:07:35.000Z</time>
      </trkpt>
      <trkpt lat="45.81782" lon="1.86056">
        <ele>703</ele>
        <time>2026-07-09T09:07:36.000Z</time>
      </trkpt>
      <trkpt lat="45.81783" lon="1.86056">
        <ele>703.3</ele>
        <time>2026-07-09T09:07:37.000Z</time>
      </trkpt>
      <trkpt lat="45.81785" lon="1.86057">
        <ele>703.2</ele>
        <time>2026-07-09T09:07:38.000Z</time>
      </trkpt>
      <trkpt lat="45.81787" lon="1.86057">
        <ele>703.1</ele>
        <time>2026-07-09T09:07:39.000Z</time>
      </trkpt>
      <trkpt lat="45.81789" lon="1.86057">
        <ele>703.2</ele>
        <time>2026-07-09T09:07:40.000Z</time>
      </trkpt>
      <trkpt lat="45.81791" lon="1.86058">
        <ele>704</ele>
        <time>2026-07-09T09:07:41.000Z</time>
      </trkpt>
      <trkpt lat="45.81792" lon="1.86058">
        <ele>703.5</ele>
        <time>2026-07-09T09:07:42.000Z</time>
      </trkpt>
      <trkpt lat="45.81794" lon="1.86058">
        <ele>703.5</ele>
        <time>2026-07-09T09:07:43.000Z</time>
      </trkpt>
      <trkpt lat="45.81796" lon="1.86058">
        <ele>703.4</ele>
        <time>2026-07-09T09:07:44.000Z</time>
      </trkpt>
      <trkpt lat="45.81797" lon="1.86059">
        <ele>703.3</ele>
        <time>2026-07-09T09:07:45.000Z</time>
      </trkpt>
      <trkpt lat="45.81798" lon="1.8606">
        <ele>703.7</ele>
        <time>2026-07-09T09:07:46.000Z</time>
      </trkpt>
      <trkpt lat="45.818" lon="1.86061">
        <ele>703.6</ele>
        <time>2026-07-09T09:07:47.000Z</time>
      </trkpt>
      <trkpt lat="45.81802" lon="1.86061">
        <ele>703.6</ele>
        <time>2026-07-09T09:07:48.000Z</time>
      </trkpt>
      <trkpt lat="45.81803" lon="1.86061">
        <ele>703.4</ele>
        <time>2026-07-09T09:07:49.000Z</time>
      </trkpt>
      <trkpt lat="45.81805" lon="1.86061">
        <ele>703.4</ele>
        <time>2026-07-09T09:07:50.000Z</time>
      </trkpt>
      <trkpt lat="45.81807" lon="1.86061">
        <ele>703.4</ele>
        <time>2026-07-09T09:07:51.000Z</time>
      </trkpt>
      <trkpt lat="45.81808" lon="1.86061">
        <ele>703.5</ele>
        <time>2026-07-09T09:07:52.000Z</time>
      </trkpt>
      <trkpt lat="45.8181" lon="1.86061">
        <ele>703.2</ele>
        <time>2026-07-09T09:07:53.000Z</time>
      </trkpt>
      <trkpt lat="45.81811" lon="1.86061">
        <ele>703.4</ele>
        <time>2026-07-09T09:07:54.000Z</time>
      </trkpt>
      <trkpt lat="45.81813" lon="1.86061">
        <ele>703.5</ele>
        <time>2026-07-09T09:07:55.000Z</time>
      </trkpt>
      <trkpt lat="45.81814" lon="1.86062">
        <ele>703.8</ele>
        <time>2026-07-09T09:07:56.000Z</time>
      </trkpt>
      <trkpt lat="45.81815" lon="1.86063">
        <ele>703.7</ele>
        <time>2026-07-09T09:07:57.000Z</time>
      </trkpt>
      <trkpt lat="45.81816" lon="1.86065">
        <ele>703.9</ele>
        <time>2026-07-09T09:07:58.000Z</time>
      </trkpt>
      <trkpt lat="45.81817" lon="1.86066">
        <ele>703.8</ele>
        <time>2026-07-09T09:07:59.000Z</time>
      </trkpt>
      <trkpt lat="45.81817" lon="1.86066">
        <ele>703.8</ele>
        <time>2026-07-09T09:08:00.000Z</time>
      </trkpt>
      <trkpt lat="45.81817" lon="1.86066">
        <ele>703.8</ele>
        <time>2026-07-09T09:08:01.000Z</time>
      </trkpt>
      <trkpt lat="45.81817" lon="1.86066">
        <ele>703.7</ele>
        <time>2026-07-09T09:08:02.000Z</time>
      </trkpt>
      <trkpt lat="45.81817" lon="1.86066">
        <ele>703.7</ele>
        <time>2026-07-09T09:08:03.000Z</time>
      </trkpt>
      <trkpt lat="45.81817" lon="1.86067">
        <ele>703.7</ele>
        <time>2026-07-09T09:08:04.000Z</time>
      </trkpt>
      <trkpt lat="45.81818" lon="1.86068">
        <ele>703.4</ele>
        <time>2026-07-09T09:08:05.000Z</time>
      </trkpt>
      <trkpt lat="45.81818" lon="1.86068">
        <ele>703.4</ele>
        <time>2026-07-09T09:08:06.000Z</time>
      </trkpt>
      <trkpt lat="45.81818" lon="1.86068">
        <ele>703.4</ele>
        <time>2026-07-09T09:08:07.000Z</time>
      </trkpt>
      <trkpt lat="45.81818" lon="1.86068">
        <ele>703.4</ele>
        <time>2026-07-09T09:08:08.000Z</time>
      </trkpt>
      <trkpt lat="45.81818" lon="1.86068">
        <ele>703.4</ele>
        <time>2026-07-09T09:08:09.000Z</time>
      </trkpt>
      <trkpt lat="45.81819" lon="1.86068">
        <ele>703.5</ele>
        <time>2026-07-09T09:08:10.000Z</time>
      </trkpt>
      <trkpt lat="45.8182" lon="1.86068">
        <ele>703.7</ele>
        <time>2026-07-09T09:08:11.000Z</time>
      </trkpt>
      <trkpt lat="45.81822" lon="1.86068">
        <ele>703.9</ele>
        <time>2026-07-09T09:08:12.000Z</time>
      </trkpt>
      <trkpt lat="45.81823" lon="1.86069">
        <ele>704.6</ele>
        <time>2026-07-09T09:08:13.000Z</time>
      </trkpt>
      <trkpt lat="45.81825" lon="1.86068">
        <ele>704.9</ele>
        <time>2026-07-09T09:08:14.000Z</time>
      </trkpt>
      <trkpt lat="45.81827" lon="1.86071">
        <ele>704.4</ele>
        <time>2026-07-09T09:08:15.000Z</time>
      </trkpt>
      <trkpt lat="45.8183" lon="1.8607">
        <ele>705.3</ele>
        <time>2026-07-09T09:08:16.000Z</time>
      </trkpt>
      <trkpt lat="45.81831" lon="1.86069">
        <ele>705.4</ele>
        <time>2026-07-09T09:08:17.000Z</time>
      </trkpt>
      <trkpt lat="45.81833" lon="1.86068">
        <ele>705.6</ele>
        <time>2026-07-09T09:08:18.000Z</time>
      </trkpt>
      <trkpt lat="45.81834" lon="1.86067">
        <ele>705.6</ele>
        <time>2026-07-09T09:08:19.000Z</time>
      </trkpt>
      <trkpt lat="45.81836" lon="1.86066">
        <ele>706.1</ele>
        <time>2026-07-09T09:08:20.000Z</time>
      </trkpt>
      <trkpt lat="45.81837" lon="1.86065">
        <ele>706.4</ele>
        <time>2026-07-09T09:08:21.000Z</time>
      </trkpt>
      <trkpt lat="45.81839" lon="1.86064">
        <ele>706.8</ele>
        <time>2026-07-09T09:08:22.000Z</time>
      </trkpt>
      <trkpt lat="45.8184" lon="1.86063">
        <ele>706.4</ele>
        <time>2026-07-09T09:08:23.000Z</time>
      </trkpt>
      <trkpt lat="45.81842" lon="1.86062">
        <ele>707.7</ele>
        <time>2026-07-09T09:08:24.000Z</time>
      </trkpt>
      <trkpt lat="45.81845" lon="1.86062">
        <ele>707.3</ele>
        <time>2026-07-09T09:08:25.000Z</time>
      </trkpt>
      <trkpt lat="45.81846" lon="1.86061">
        <ele>707.7</ele>
        <time>2026-07-09T09:08:26.000Z</time>
      </trkpt>
      <trkpt lat="45.81847" lon="1.8606">
        <ele>707.6</ele>
        <time>2026-07-09T09:08:27.000Z</time>
      </trkpt>
      <trkpt lat="45.81848" lon="1.86059">
        <ele>708</ele>
        <time>2026-07-09T09:08:28.000Z</time>
      </trkpt>
      <trkpt lat="45.8185" lon="1.86058">
        <ele>708</ele>
        <time>2026-07-09T09:08:29.000Z</time>
      </trkpt>
      <trkpt lat="45.81851" lon="1.86058">
        <ele>709.1</ele>
        <time>2026-07-09T09:08:30.000Z</time>
      </trkpt>
      <trkpt lat="45.81852" lon="1.86057">
        <ele>709.6</ele>
        <time>2026-07-09T09:08:31.000Z</time>
      </trkpt>
      <trkpt lat="45.81853" lon="1.86056">
        <ele>709.3</ele>
        <time>2026-07-09T09:08:32.000Z</time>
      </trkpt>
      <trkpt lat="45.81855" lon="1.86055">
        <ele>709.5</ele>
        <time>2026-07-09T09:08:33.000Z</time>
      </trkpt>
      <trkpt lat="45.81856" lon="1.86054">
        <ele>711.1</ele>
        <time>2026-07-09T09:08:34.000Z</time>
      </trkpt>
      <trkpt lat="45.81857" lon="1.86054">
        <ele>711.3</ele>
        <time>2026-07-09T09:08:35.000Z</time>
      </trkpt>
      <trkpt lat="45.81858" lon="1.86053">
        <ele>711.6</ele>
        <time>2026-07-09T09:08:36.000Z</time>
      </trkpt>
      <trkpt lat="45.81859" lon="1.86052">
        <ele>712.6</ele>
        <time>2026-07-09T09:08:37.000Z</time>
      </trkpt>
      <trkpt lat="45.81861" lon="1.86052">
        <ele>712.5</ele>
        <time>2026-07-09T09:08:38.000Z</time>
      </trkpt>
      <trkpt lat="45.81862" lon="1.86051">
        <ele>712.6</ele>
        <time>2026-07-09T09:08:39.000Z</time>
      </trkpt>
      <trkpt lat="45.81864" lon="1.86051">
        <ele>711.4</ele>
        <time>2026-07-09T09:08:40.000Z</time>
      </trkpt>
      <trkpt lat="45.81865" lon="1.8605">
        <ele>709.9</ele>
        <time>2026-07-09T09:08:41.000Z</time>
      </trkpt>
      <trkpt lat="45.81866" lon="1.86049">
        <ele>710.3</ele>
        <time>2026-07-09T09:08:42.000Z</time>
      </trkpt>
      <trkpt lat="45.81867" lon="1.86049">
        <ele>710.8</ele>
        <time>2026-07-09T09:08:43.000Z</time>
      </trkpt>
      <trkpt lat="45.81869" lon="1.86049">
        <ele>711.2</ele>
        <time>2026-07-09T09:08:44.000Z</time>
      </trkpt>
      <trkpt lat="45.8187" lon="1.86048">
        <ele>711.5</ele>
        <time>2026-07-09T09:08:45.000Z</time>
      </trkpt>
      <trkpt lat="45.81871" lon="1.86048">
        <ele>711.6</ele>
        <time>2026-07-09T09:08:46.000Z</time>
      </trkpt>
      <trkpt lat="45.81873" lon="1.86048">
        <ele>713</ele>
        <time>2026-07-09T09:08:47.000Z</time>
      </trkpt>
      <trkpt lat="45.81874" lon="1.86047">
        <ele>713.8</ele>
        <time>2026-07-09T09:08:48.000Z</time>
      </trkpt>
      <trkpt lat="45.81875" lon="1.86047">
        <ele>714.2</ele>
        <time>2026-07-09T09:08:49.000Z</time>
      </trkpt>
      <trkpt lat="45.81877" lon="1.86046">
        <ele>714.4</ele>
        <time>2026-07-09T09:08:50.000Z</time>
      </trkpt>
      <trkpt lat="45.81878" lon="1.86045">
        <ele>714.4</ele>
        <time>2026-07-09T09:08:51.000Z</time>
      </trkpt>
      <trkpt lat="45.8188" lon="1.86044">
        <ele>714.3</ele>
        <time>2026-07-09T09:08:52.000Z</time>
      </trkpt>
      <trkpt lat="45.81881" lon="1.86044">
        <ele>715.6</ele>
        <time>2026-07-09T09:08:53.000Z</time>
      </trkpt>
      <trkpt lat="45.81883" lon="1.86044">
        <ele>715.5</ele>
        <time>2026-07-09T09:08:54.000Z</time>
      </trkpt>
      <trkpt lat="45.81885" lon="1.86043">
        <ele>715.6</ele>
        <time>2026-07-09T09:08:55.000Z</time>
      </trkpt>
      <trkpt lat="45.81886" lon="1.86043">
        <ele>716.2</ele>
        <time>2026-07-09T09:08:56.000Z</time>
      </trkpt>
      <trkpt lat="45.81889" lon="1.86041">
        <ele>716.7</ele>
        <time>2026-07-09T09:08:57.000Z</time>
      </trkpt>
      <trkpt lat="45.81891" lon="1.8604">
        <ele>716.8</ele>
        <time>2026-07-09T09:08:58.000Z</time>
      </trkpt>
      <trkpt lat="45.81893" lon="1.86039">
        <ele>717</ele>
        <time>2026-07-09T09:08:59.000Z</time>
      </trkpt>
      <trkpt lat="45.81895" lon="1.86038">
        <ele>716.9</ele>
        <time>2026-07-09T09:09:00.000Z</time>
      </trkpt>
      <trkpt lat="45.81896" lon="1.86036">
        <ele>717.1</ele>
        <time>2026-07-09T09:09:01.000Z</time>
      </trkpt>
      <trkpt lat="45.81898" lon="1.86035">
        <ele>717.9</ele>
        <time>2026-07-09T09:09:02.000Z</time>
      </trkpt>
      <trkpt lat="45.81899" lon="1.86035">
        <ele>718.2</ele>
        <time>2026-07-09T09:09:03.000Z</time>
      </trkpt>
      <trkpt lat="45.819" lon="1.86033">
        <ele>718.2</ele>
        <time>2026-07-09T09:09:04.000Z</time>
      </trkpt>
      <trkpt lat="45.81902" lon="1.86032">
        <ele>718.1</ele>
        <time>2026-07-09T09:09:05.000Z</time>
      </trkpt>
      <trkpt lat="45.81903" lon="1.86031">
        <ele>718.3</ele>
        <time>2026-07-09T09:09:06.000Z</time>
      </trkpt>
      <trkpt lat="45.81904" lon="1.8603">
        <ele>717.5</ele>
        <time>2026-07-09T09:09:07.000Z</time>
      </trkpt>
      <trkpt lat="45.81906" lon="1.86028">
        <ele>717.4</ele>
        <time>2026-07-09T09:09:08.000Z</time>
      </trkpt>
      <trkpt lat="45.81907" lon="1.86027">
        <ele>717.2</ele>
        <time>2026-07-09T09:09:09.000Z</time>
      </trkpt>
      <trkpt lat="45.81909" lon="1.86025">
        <ele>717.3</ele>
        <time>2026-07-09T09:09:10.000Z</time>
      </trkpt>
      <trkpt lat="45.8191" lon="1.86024">
        <ele>717.1</ele>
        <time>2026-07-09T09:09:11.000Z</time>
      </trkpt>
      <trkpt lat="45.81911" lon="1.86022">
        <ele>716.8</ele>
        <time>2026-07-09T09:09:12.000Z</time>
      </trkpt>
      <trkpt lat="45.81912" lon="1.86021">
        <ele>716.7</ele>
        <time>2026-07-09T09:09:13.000Z</time>
      </trkpt>
      <trkpt lat="45.81913" lon="1.86019">
        <ele>717.4</ele>
        <time>2026-07-09T09:09:14.000Z</time>
      </trkpt>
      <trkpt lat="45.81914" lon="1.86018">
        <ele>717.5</ele>
        <time>2026-07-09T09:09:15.000Z</time>
      </trkpt>
      <trkpt lat="45.81915" lon="1.86016">
        <ele>717.2</ele>
        <time>2026-07-09T09:09:16.000Z</time>
      </trkpt>
      <trkpt lat="45.81916" lon="1.86014">
        <ele>717.1</ele>
        <time>2026-07-09T09:09:17.000Z</time>
      </trkpt>
      <trkpt lat="45.81918" lon="1.86012">
        <ele>716.9</ele>
        <time>2026-07-09T09:09:18.000Z</time>
      </trkpt>
      <trkpt lat="45.81918" lon="1.8601">
        <ele>717</ele>
        <time>2026-07-09T09:09:19.000Z</time>
      </trkpt>
      <trkpt lat="45.81919" lon="1.86008">
        <ele>717.4</ele>
        <time>2026-07-09T09:09:20.000Z</time>
      </trkpt>
      <trkpt lat="45.8192" lon="1.86007">
        <ele>716.6</ele>
        <time>2026-07-09T09:09:21.000Z</time>
      </trkpt>
      <trkpt lat="45.81921" lon="1.86005">
        <ele>716.3</ele>
        <time>2026-07-09T09:09:22.000Z</time>
      </trkpt>
      <trkpt lat="45.81922" lon="1.86003">
        <ele>717.2</ele>
        <time>2026-07-09T09:09:23.000Z</time>
      </trkpt>
      <trkpt lat="45.81924" lon="1.86001">
        <ele>717.1</ele>
        <time>2026-07-09T09:09:24.000Z</time>
      </trkpt>
      <trkpt lat="45.81925" lon="1.86">
        <ele>717.2</ele>
        <time>2026-07-09T09:09:25.000Z</time>
      </trkpt>
      <trkpt lat="45.81926" lon="1.85998">
        <ele>716.8</ele>
        <time>2026-07-09T09:09:26.000Z</time>
      </trkpt>
      <trkpt lat="45.81927" lon="1.85996">
        <ele>716.9</ele>
        <time>2026-07-09T09:09:27.000Z</time>
      </trkpt>
      <trkpt lat="45.81928" lon="1.85994">
        <ele>717.1</ele>
        <time>2026-07-09T09:09:28.000Z</time>
      </trkpt>
      <trkpt lat="45.81929" lon="1.85992">
        <ele>717.8</ele>
        <time>2026-07-09T09:09:29.000Z</time>
      </trkpt>
      <trkpt lat="45.8193" lon="1.85991">
        <ele>717.5</ele>
        <time>2026-07-09T09:09:30.000Z</time>
      </trkpt>
      <trkpt lat="45.81932" lon="1.85989">
        <ele>717.1</ele>
        <time>2026-07-09T09:09:31.000Z</time>
      </trkpt>
      <trkpt lat="45.81933" lon="1.85987">
        <ele>717</ele>
        <time>2026-07-09T09:09:32.000Z</time>
      </trkpt>
      <trkpt lat="45.81934" lon="1.85986">
        <ele>717.1</ele>
        <time>2026-07-09T09:09:33.000Z</time>
      </trkpt>
      <trkpt lat="45.81935" lon="1.85984">
        <ele>717.1</ele>
        <time>2026-07-09T09:09:34.000Z</time>
      </trkpt>
      <trkpt lat="45.81937" lon="1.85982">
        <ele>716.3</ele>
        <time>2026-07-09T09:09:35.000Z</time>
      </trkpt>
      <trkpt lat="45.81938" lon="1.8598">
        <ele>717</ele>
        <time>2026-07-09T09:09:36.000Z</time>
      </trkpt>
      <trkpt lat="45.81939" lon="1.85978">
        <ele>717</ele>
        <time>2026-07-09T09:09:37.000Z</time>
      </trkpt>
      <trkpt lat="45.8194" lon="1.85976">
        <ele>716.9</ele>
        <time>2026-07-09T09:09:38.000Z</time>
      </trkpt>
      <trkpt lat="45.81941" lon="1.85974">
        <ele>716.8</ele>
        <time>2026-07-09T09:09:39.000Z</time>
      </trkpt>
      <trkpt lat="45.81942" lon="1.85972">
        <ele>717.2</ele>
        <time>2026-07-09T09:09:40.000Z</time>
      </trkpt>
      <trkpt lat="45.81943" lon="1.85971">
        <ele>717.7</ele>
        <time>2026-07-09T09:09:41.000Z</time>
      </trkpt>
      <trkpt lat="45.81944" lon="1.85969">
        <ele>717.2</ele>
        <time>2026-07-09T09:09:42.000Z</time>
      </trkpt>
      <trkpt lat="45.81945" lon="1.85968">
        <ele>716.4</ele>
        <time>2026-07-09T09:09:43.000Z</time>
      </trkpt>
      <trkpt lat="45.81947" lon="1.85966">
        <ele>716.9</ele>
        <time>2026-07-09T09:09:44.000Z</time>
      </trkpt>
      <trkpt lat="45.81948" lon="1.85964">
        <ele>717.8</ele>
        <time>2026-07-09T09:09:45.000Z</time>
      </trkpt>
      <trkpt lat="45.8195" lon="1.85962">
        <ele>717.4</ele>
        <time>2026-07-09T09:09:46.000Z</time>
      </trkpt>
      <trkpt lat="45.81952" lon="1.85959">
        <ele>717.2</ele>
        <time>2026-07-09T09:09:47.000Z</time>
      </trkpt>
      <trkpt lat="45.81954" lon="1.85957">
        <ele>716.7</ele>
        <time>2026-07-09T09:09:48.000Z</time>
      </trkpt>
      <trkpt lat="45.81955" lon="1.85956">
        <ele>717.2</ele>
        <time>2026-07-09T09:09:49.000Z</time>
      </trkpt>
      <trkpt lat="45.81957" lon="1.85953">
        <ele>717</ele>
        <time>2026-07-09T09:09:50.000Z</time>
      </trkpt>
      <trkpt lat="45.81958" lon="1.85951">
        <ele>717.1</ele>
        <time>2026-07-09T09:09:51.000Z</time>
      </trkpt>
      <trkpt lat="45.8196" lon="1.85949">
        <ele>716.5</ele>
        <time>2026-07-09T09:09:52.000Z</time>
      </trkpt>
      <trkpt lat="45.81961" lon="1.85947">
        <ele>715.9</ele>
        <time>2026-07-09T09:09:53.000Z</time>
      </trkpt>
      <trkpt lat="45.81962" lon="1.85945">
        <ele>716.7</ele>
        <time>2026-07-09T09:09:54.000Z</time>
      </trkpt>
      <trkpt lat="45.81963" lon="1.85942">
        <ele>718.4</ele>
        <time>2026-07-09T09:09:55.000Z</time>
      </trkpt>
      <trkpt lat="45.81964" lon="1.8594">
        <ele>718.3</ele>
        <time>2026-07-09T09:09:56.000Z</time>
      </trkpt>
      <trkpt lat="45.81966" lon="1.85938">
        <ele>718.5</ele>
        <time>2026-07-09T09:09:57.000Z</time>
      </trkpt>
      <trkpt lat="45.81967" lon="1.85937">
        <ele>718.1</ele>
        <time>2026-07-09T09:09:58.000Z</time>
      </trkpt>
      <trkpt lat="45.81969" lon="1.85934">
        <ele>717.6</ele>
        <time>2026-07-09T09:09:59.000Z</time>
      </trkpt>
      <trkpt lat="45.8197" lon="1.85931">
        <ele>718.8</ele>
        <time>2026-07-09T09:10:00.000Z</time>
      </trkpt>
      <trkpt lat="45.81973" lon="1.85929">
        <ele>718.8</ele>
        <time>2026-07-09T09:10:01.000Z</time>
      </trkpt>
      <trkpt lat="45.81976" lon="1.85927">
        <ele>719.1</ele>
        <time>2026-07-09T09:10:02.000Z</time>
      </trkpt>
      <trkpt lat="45.81979" lon="1.85925">
        <ele>719</ele>
        <time>2026-07-09T09:10:03.000Z</time>
      </trkpt>
      <trkpt lat="45.81982" lon="1.85922">
        <ele>718.9</ele>
        <time>2026-07-09T09:10:04.000Z</time>
      </trkpt>
      <trkpt lat="45.81985" lon="1.8592">
        <ele>718.8</ele>
        <time>2026-07-09T09:10:05.000Z</time>
      </trkpt>
      <trkpt lat="45.81989" lon="1.85918">
        <ele>719.4</ele>
        <time>2026-07-09T09:10:06.000Z</time>
      </trkpt>
      <trkpt lat="45.81993" lon="1.85916">
        <ele>718.7</ele>
        <time>2026-07-09T09:10:07.000Z</time>
      </trkpt>
      <trkpt lat="45.81996" lon="1.85914">
        <ele>718.8</ele>
        <time>2026-07-09T09:10:08.000Z</time>
      </trkpt>
      <trkpt lat="45.81999" lon="1.85912">
        <ele>718.5</ele>
        <time>2026-07-09T09:10:09.000Z</time>
      </trkpt>
      <trkpt lat="45.82002" lon="1.8591">
        <ele>718.6</ele>
        <time>2026-07-09T09:10:10.000Z</time>
      </trkpt>
      <trkpt lat="45.82005" lon="1.85908">
        <ele>718.2</ele>
        <time>2026-07-09T09:10:11.000Z</time>
      </trkpt>
      <trkpt lat="45.82007" lon="1.85907">
        <ele>718.3</ele>
        <time>2026-07-09T09:10:12.000Z</time>
      </trkpt>
      <trkpt lat="45.82009" lon="1.85905">
        <ele>718.5</ele>
        <time>2026-07-09T09:10:13.000Z</time>
      </trkpt>
      <trkpt lat="45.82012" lon="1.85904">
        <ele>718.5</ele>
        <time>2026-07-09T09:10:14.000Z</time>
      </trkpt>
      <trkpt lat="45.82015" lon="1.85903">
        <ele>719.4</ele>
        <time>2026-07-09T09:10:15.000Z</time>
      </trkpt>
      <trkpt lat="45.82018" lon="1.85902">
        <ele>719.7</ele>
        <time>2026-07-09T09:10:16.000Z</time>
      </trkpt>
      <trkpt lat="45.8202" lon="1.85902">
        <ele>720</ele>
        <time>2026-07-09T09:10:17.000Z</time>
      </trkpt>
      <trkpt lat="45.82023" lon="1.85901">
        <ele>720.1</ele>
        <time>2026-07-09T09:10:18.000Z</time>
      </trkpt>
      <trkpt lat="45.82024" lon="1.85901">
        <ele>720.3</ele>
        <time>2026-07-09T09:10:19.000Z</time>
      </trkpt>
      <trkpt lat="45.82026" lon="1.859">
        <ele>720.4</ele>
        <time>2026-07-09T09:10:20.000Z</time>
      </trkpt>
      <trkpt lat="45.82027" lon="1.859">
        <ele>720.1</ele>
        <time>2026-07-09T09:10:21.000Z</time>
      </trkpt>
      <trkpt lat="45.82028" lon="1.859">
        <ele>719.4</ele>
        <time>2026-07-09T09:10:22.000Z</time>
      </trkpt>
      <trkpt lat="45.82029" lon="1.85898">
        <ele>718.5</ele>
        <time>2026-07-09T09:10:23.000Z</time>
      </trkpt>
      <trkpt lat="45.82031" lon="1.85897">
        <ele>717.9</ele>
        <time>2026-07-09T09:10:24.000Z</time>
      </trkpt>
      <trkpt lat="45.82033" lon="1.85895">
        <ele>718</ele>
        <time>2026-07-09T09:10:25.000Z</time>
      </trkpt>
      <trkpt lat="45.82035" lon="1.85893">
        <ele>717.7</ele>
        <time>2026-07-09T09:10:26.000Z</time>
      </trkpt>
      <trkpt lat="45.82037" lon="1.85892">
        <ele>718.2</ele>
        <time>2026-07-09T09:10:27.000Z</time>
      </trkpt>
      <trkpt lat="45.82039" lon="1.8589">
        <ele>718.5</ele>
        <time>2026-07-09T09:10:28.000Z</time>
      </trkpt>
      <trkpt lat="45.82041" lon="1.85891">
        <ele>718.4</ele>
        <time>2026-07-09T09:10:29.000Z</time>
      </trkpt>
      <trkpt lat="45.82039" lon="1.85891">
        <ele>718.2</ele>
        <time>2026-07-09T09:10:30.000Z</time>
      </trkpt>
      <trkpt lat="45.8204" lon="1.85891">
        <ele>718.2</ele>
        <time>2026-07-09T09:10:31.000Z</time>
      </trkpt>
      <trkpt lat="45.82042" lon="1.8589">
        <ele>718.2</ele>
        <time>2026-07-09T09:10:32.000Z</time>
      </trkpt>
      <trkpt lat="45.82043" lon="1.8589">
        <ele>717.9</ele>
        <time>2026-07-09T09:10:33.000Z</time>
      </trkpt>
      <trkpt lat="45.82044" lon="1.85888">
        <ele>719.3</ele>
        <time>2026-07-09T09:10:34.000Z</time>
      </trkpt>
      <trkpt lat="45.82045" lon="1.85887">
        <ele>718.5</ele>
        <time>2026-07-09T09:10:35.000Z</time>
      </trkpt>
      <trkpt lat="45.82046" lon="1.85885">
        <ele>718</ele>
        <time>2026-07-09T09:10:36.000Z</time>
      </trkpt>
      <trkpt lat="45.82046" lon="1.85883">
        <ele>719.8</ele>
        <time>2026-07-09T09:10:37.000Z</time>
      </trkpt>
      <trkpt lat="45.82047" lon="1.85882">
        <ele>719.9</ele>
        <time>2026-07-09T09:10:38.000Z</time>
      </trkpt>
      <trkpt lat="45.82048" lon="1.8588">
        <ele>719.9</ele>
        <time>2026-07-09T09:10:39.000Z</time>
      </trkpt>
      <trkpt lat="45.82049" lon="1.85879">
        <ele>719.8</ele>
        <time>2026-07-09T09:10:40.000Z</time>
      </trkpt>
      <trkpt lat="45.8205" lon="1.85877">
        <ele>719.3</ele>
        <time>2026-07-09T09:10:41.000Z</time>
      </trkpt>
      <trkpt lat="45.82051" lon="1.85876">
        <ele>719.9</ele>
        <time>2026-07-09T09:10:42.000Z</time>
      </trkpt>
      <trkpt lat="45.82052" lon="1.85875">
        <ele>719.8</ele>
        <time>2026-07-09T09:10:43.000Z</time>
      </trkpt>
      <trkpt lat="45.82053" lon="1.85874">
        <ele>719.9</ele>
        <time>2026-07-09T09:10:44.000Z</time>
      </trkpt>
      <trkpt lat="45.82054" lon="1.85873">
        <ele>720.4</ele>
        <time>2026-07-09T09:10:45.000Z</time>
      </trkpt>
      <trkpt lat="45.82055" lon="1.85872">
        <ele>719.7</ele>
        <time>2026-07-09T09:10:46.000Z</time>
      </trkpt>
      <trkpt lat="45.82057" lon="1.85871">
        <ele>719.3</ele>
        <time>2026-07-09T09:10:47.000Z</time>
      </trkpt>
      <trkpt lat="45.82058" lon="1.8587">
        <ele>719.2</ele>
        <time>2026-07-09T09:10:48.000Z</time>
      </trkpt>
      <trkpt lat="45.82059" lon="1.85869">
        <ele>719.3</ele>
        <time>2026-07-09T09:10:49.000Z</time>
      </trkpt>
      <trkpt lat="45.8206" lon="1.85868">
        <ele>720.1</ele>
        <time>2026-07-09T09:10:50.000Z</time>
      </trkpt>
      <trkpt lat="45.82061" lon="1.85866">
        <ele>720.4</ele>
        <time>2026-07-09T09:10:51.000Z</time>
      </trkpt>
      <trkpt lat="45.82063" lon="1.85865">
        <ele>719</ele>
        <time>2026-07-09T09:10:52.000Z</time>
      </trkpt>
      <trkpt lat="45.82064" lon="1.85863">
        <ele>719.1</ele>
        <time>2026-07-09T09:10:53.000Z</time>
      </trkpt>
      <trkpt lat="45.82066" lon="1.85862">
        <ele>718.8</ele>
        <time>2026-07-09T09:10:54.000Z</time>
      </trkpt>
      <trkpt lat="45.82067" lon="1.85861">
        <ele>718.5</ele>
        <time>2026-07-09T09:10:55.000Z</time>
      </trkpt>
      <trkpt lat="45.82068" lon="1.85859">
        <ele>717.7</ele>
        <time>2026-07-09T09:10:56.000Z</time>
      </trkpt>
      <trkpt lat="45.8207" lon="1.85858">
        <ele>717.1</ele>
        <time>2026-07-09T09:10:57.000Z</time>
      </trkpt>
      <trkpt lat="45.82071" lon="1.85857">
        <ele>716.2</ele>
        <time>2026-07-09T09:10:58.000Z</time>
      </trkpt>
      <trkpt lat="45.82073" lon="1.85856">
        <ele>716</ele>
        <time>2026-07-09T09:10:59.000Z</time>
      </trkpt>
      <trkpt lat="45.82075" lon="1.85855">
        <ele>715.9</ele>
        <time>2026-07-09T09:11:00.000Z</time>
      </trkpt>
      <trkpt lat="45.82077" lon="1.85854">
        <ele>715.6</ele>
        <time>2026-07-09T09:11:01.000Z</time>
      </trkpt>
      <trkpt lat="45.82078" lon="1.85852">
        <ele>715.2</ele>
        <time>2026-07-09T09:11:02.000Z</time>
      </trkpt>
      <trkpt lat="45.82079" lon="1.8585">
        <ele>715.1</ele>
        <time>2026-07-09T09:11:03.000Z</time>
      </trkpt>
      <trkpt lat="45.82081" lon="1.85848">
        <ele>714.8</ele>
        <time>2026-07-09T09:11:04.000Z</time>
      </trkpt>
      <trkpt lat="45.82082" lon="1.85847">
        <ele>714.7</ele>
        <time>2026-07-09T09:11:05.000Z</time>
      </trkpt>
      <trkpt lat="45.82085" lon="1.85845">
        <ele>714.7</ele>
        <time>2026-07-09T09:11:06.000Z</time>
      </trkpt>
      <trkpt lat="45.82087" lon="1.85844">
        <ele>714.9</ele>
        <time>2026-07-09T09:11:07.000Z</time>
      </trkpt>
      <trkpt lat="45.82089" lon="1.85842">
        <ele>714.6</ele>
        <time>2026-07-09T09:11:08.000Z</time>
      </trkpt>
      <trkpt lat="45.82089" lon="1.85838">
        <ele>714.7</ele>
        <time>2026-07-09T09:11:09.000Z</time>
      </trkpt>
      <trkpt lat="45.8209" lon="1.85836">
        <ele>715.3</ele>
        <time>2026-07-09T09:11:10.000Z</time>
      </trkpt>
      <trkpt lat="45.82091" lon="1.85834">
        <ele>715.1</ele>
        <time>2026-07-09T09:11:11.000Z</time>
      </trkpt>
      <trkpt lat="45.82093" lon="1.85832">
        <ele>715</ele>
        <time>2026-07-09T09:11:12.000Z</time>
      </trkpt>
      <trkpt lat="45.82094" lon="1.85831">
        <ele>714.5</ele>
        <time>2026-07-09T09:11:13.000Z</time>
      </trkpt>
      <trkpt lat="45.82096" lon="1.8583">
        <ele>714.7</ele>
        <time>2026-07-09T09:11:14.000Z</time>
      </trkpt>
      <trkpt lat="45.82098" lon="1.85829">
        <ele>714.7</ele>
        <time>2026-07-09T09:11:15.000Z</time>
      </trkpt>
      <trkpt lat="45.82099" lon="1.85828">
        <ele>714.6</ele>
        <time>2026-07-09T09:11:16.000Z</time>
      </trkpt>
      <trkpt lat="45.82101" lon="1.85827">
        <ele>713.9</ele>
        <time>2026-07-09T09:11:17.000Z</time>
      </trkpt>
      <trkpt lat="45.82103" lon="1.85826">
        <ele>713.6</ele>
        <time>2026-07-09T09:11:18.000Z</time>
      </trkpt>
      <trkpt lat="45.82104" lon="1.85826">
        <ele>713</ele>
        <time>2026-07-09T09:11:19.000Z</time>
      </trkpt>
      <trkpt lat="45.82106" lon="1.85825">
        <ele>712.5</ele>
        <time>2026-07-09T09:11:20.000Z</time>
      </trkpt>
      <trkpt lat="45.82107" lon="1.85823">
        <ele>712.7</ele>
        <time>2026-07-09T09:11:21.000Z</time>
      </trkpt>
      <trkpt lat="45.82109" lon="1.85822">
        <ele>712.3</ele>
        <time>2026-07-09T09:11:22.000Z</time>
      </trkpt>
      <trkpt lat="45.82111" lon="1.85821">
        <ele>712</ele>
        <time>2026-07-09T09:11:23.000Z</time>
      </trkpt>
      <trkpt lat="45.82112" lon="1.8582">
        <ele>711.9</ele>
        <time>2026-07-09T09:11:24.000Z</time>
      </trkpt>
      <trkpt lat="45.82113" lon="1.8582">
        <ele>711.6</ele>
        <time>2026-07-09T09:11:25.000Z</time>
      </trkpt>
      <trkpt lat="45.82115" lon="1.85819">
        <ele>711.4</ele>
        <time>2026-07-09T09:11:26.000Z</time>
      </trkpt>
      <trkpt lat="45.82116" lon="1.85818">
        <ele>711.2</ele>
        <time>2026-07-09T09:11:27.000Z</time>
      </trkpt>
      <trkpt lat="45.82117" lon="1.85817">
        <ele>710.9</ele>
        <time>2026-07-09T09:11:28.000Z</time>
      </trkpt>
      <trkpt lat="45.82118" lon="1.85816">
        <ele>710.7</ele>
        <time>2026-07-09T09:11:29.000Z</time>
      </trkpt>
      <trkpt lat="45.8212" lon="1.85815">
        <ele>710.6</ele>
        <time>2026-07-09T09:11:30.000Z</time>
      </trkpt>
      <trkpt lat="45.82121" lon="1.85814">
        <ele>710.3</ele>
        <time>2026-07-09T09:11:31.000Z</time>
      </trkpt>
      <trkpt lat="45.82122" lon="1.85813">
        <ele>709.8</ele>
        <time>2026-07-09T09:11:32.000Z</time>
      </trkpt>
      <trkpt lat="45.82124" lon="1.85811">
        <ele>709.4</ele>
        <time>2026-07-09T09:11:33.000Z</time>
      </trkpt>
      <trkpt lat="45.82125" lon="1.85809">
        <ele>709.3</ele>
        <time>2026-07-09T09:11:34.000Z</time>
      </trkpt>
      <trkpt lat="45.82126" lon="1.85806">
        <ele>709.1</ele>
        <time>2026-07-09T09:11:35.000Z</time>
      </trkpt>
      <trkpt lat="45.82127" lon="1.85804">
        <ele>709</ele>
        <time>2026-07-09T09:11:36.000Z</time>
      </trkpt>
      <trkpt lat="45.82128" lon="1.85802">
        <ele>708.5</ele>
        <time>2026-07-09T09:11:37.000Z</time>
      </trkpt>
      <trkpt lat="45.82128" lon="1.85799">
        <ele>708.5</ele>
        <time>2026-07-09T09:11:38.000Z</time>
      </trkpt>
      <trkpt lat="45.82128" lon="1.85797">
        <ele>708.2</ele>
        <time>2026-07-09T09:11:39.000Z</time>
      </trkpt>
      <trkpt lat="45.82127" lon="1.85794">
        <ele>707.8</ele>
        <time>2026-07-09T09:11:40.000Z</time>
      </trkpt>
      <trkpt lat="45.82126" lon="1.85792">
        <ele>707.2</ele>
        <time>2026-07-09T09:11:41.000Z</time>
      </trkpt>
      <trkpt lat="45.82126" lon="1.8579">
        <ele>707.1</ele>
        <time>2026-07-09T09:11:42.000Z</time>
      </trkpt>
      <trkpt lat="45.82125" lon="1.85789">
        <ele>707</ele>
        <time>2026-07-09T09:11:43.000Z</time>
      </trkpt>
      <trkpt lat="45.82125" lon="1.85787">
        <ele>706.9</ele>
        <time>2026-07-09T09:11:44.000Z</time>
      </trkpt>
      <trkpt lat="45.82125" lon="1.85785">
        <ele>706.8</ele>
        <time>2026-07-09T09:11:45.000Z</time>
      </trkpt>
      <trkpt lat="45.82125" lon="1.85785">
        <ele>707.1</ele>
        <time>2026-07-09T09:11:46.000Z</time>
      </trkpt>
      <trkpt lat="45.82125" lon="1.85785">
        <ele>707</ele>
        <time>2026-07-09T09:11:47.000Z</time>
      </trkpt>
      <trkpt lat="45.82125" lon="1.85784">
        <ele>707.1</ele>
        <time>2026-07-09T09:11:48.000Z</time>
      </trkpt>
      <trkpt lat="45.82124" lon="1.85783">
        <ele>707</ele>
        <time>2026-07-09T09:11:49.000Z</time>
      </trkpt>
      <trkpt lat="45.82123" lon="1.85782">
        <ele>706.8</ele>
        <time>2026-07-09T09:11:50.000Z</time>
      </trkpt>
      <trkpt lat="45.82122" lon="1.8578">
        <ele>706.8</ele>
        <time>2026-07-09T09:11:51.000Z</time>
      </trkpt>
      <trkpt lat="45.82121" lon="1.85779">
        <ele>706.9</ele>
        <time>2026-07-09T09:11:52.000Z</time>
      </trkpt>
      <trkpt lat="45.8212" lon="1.85778">
        <ele>706.9</ele>
        <time>2026-07-09T09:11:53.000Z</time>
      </trkpt>
      <trkpt lat="45.82119" lon="1.85778">
        <ele>707</ele>
        <time>2026-07-09T09:11:54.000Z</time>
      </trkpt>
      <trkpt lat="45.82117" lon="1.85778">
        <ele>706.9</ele>
        <time>2026-07-09T09:11:55.000Z</time>
      </trkpt>
      <trkpt lat="45.82115" lon="1.85778">
        <ele>706.7</ele>
        <time>2026-07-09T09:11:56.000Z</time>
      </trkpt>
      <trkpt lat="45.82114" lon="1.85778">
        <ele>706.9</ele>
        <time>2026-07-09T09:11:57.000Z</time>
      </trkpt>
      <trkpt lat="45.82113" lon="1.85779">
        <ele>706.8</ele>
        <time>2026-07-09T09:11:58.000Z</time>
      </trkpt>
      <trkpt lat="45.82111" lon="1.85782">
        <ele>706.9</ele>
        <time>2026-07-09T09:11:59.000Z</time>
      </trkpt>
      <trkpt lat="45.8211" lon="1.8578">
        <ele>707.7</ele>
        <time>2026-07-09T09:12:00.000Z</time>
      </trkpt>
      <trkpt lat="45.82108" lon="1.85781">
        <ele>708</ele>
        <time>2026-07-09T09:12:01.000Z</time>
      </trkpt>
      <trkpt lat="45.82106" lon="1.85782">
        <ele>707.8</ele>
        <time>2026-07-09T09:12:02.000Z</time>
      </trkpt>
      <trkpt lat="45.82104" lon="1.85782">
        <ele>707.9</ele>
        <time>2026-07-09T09:12:03.000Z</time>
      </trkpt>
      <trkpt lat="45.82103" lon="1.85781">
        <ele>707.9</ele>
        <time>2026-07-09T09:12:04.000Z</time>
      </trkpt>
      <trkpt lat="45.82103" lon="1.85781">
        <ele>707.8</ele>
        <time>2026-07-09T09:12:05.000Z</time>
      </trkpt>
      <trkpt lat="45.82103" lon="1.85781">
        <ele>707.7</ele>
        <time>2026-07-09T09:12:06.000Z</time>
      </trkpt>
      <trkpt lat="45.82103" lon="1.85781">
        <ele>707.4</ele>
        <time>2026-07-09T09:12:07.000Z</time>
      </trkpt>
      <trkpt lat="45.82103" lon="1.85781">
        <ele>706.8</ele>
        <time>2026-07-09T09:12:08.000Z</time>
      </trkpt>
      <trkpt lat="45.82103" lon="1.8578">
        <ele>707</ele>
        <time>2026-07-09T09:12:09.000Z</time>
      </trkpt>
      <trkpt lat="45.82105" lon="1.8578">
        <ele>707.1</ele>
        <time>2026-07-09T09:12:10.000Z</time>
      </trkpt>
      <trkpt lat="45.82106" lon="1.8578">
        <ele>707</ele>
        <time>2026-07-09T09:12:11.000Z</time>
      </trkpt>
      <trkpt lat="45.82108" lon="1.8578">
        <ele>706.6</ele>
        <time>2026-07-09T09:12:12.000Z</time>
      </trkpt>
      <trkpt lat="45.8211" lon="1.8578">
        <ele>706.6</ele>
        <time>2026-07-09T09:12:13.000Z</time>
      </trkpt>
      <trkpt lat="45.82111" lon="1.85781">
        <ele>706.7</ele>
        <time>2026-07-09T09:12:14.000Z</time>
      </trkpt>
      <trkpt lat="45.82113" lon="1.85781">
        <ele>706.9</ele>
        <time>2026-07-09T09:12:15.000Z</time>
      </trkpt>
      <trkpt lat="45.82115" lon="1.85781">
        <ele>706.9</ele>
        <time>2026-07-09T09:12:16.000Z</time>
      </trkpt>
      <trkpt lat="45.82117" lon="1.85781">
        <ele>706.8</ele>
        <time>2026-07-09T09:12:17.000Z</time>
      </trkpt>
      <trkpt lat="45.82119" lon="1.85781">
        <ele>707.2</ele>
        <time>2026-07-09T09:12:18.000Z</time>
      </trkpt>
      <trkpt lat="45.82121" lon="1.85781">
        <ele>707.5</ele>
        <time>2026-07-09T09:12:19.000Z</time>
      </trkpt>
      <trkpt lat="45.82123" lon="1.85781">
        <ele>707.7</ele>
        <time>2026-07-09T09:12:20.000Z</time>
      </trkpt>
      <trkpt lat="45.82125" lon="1.85781">
        <ele>708</ele>
        <time>2026-07-09T09:12:21.000Z</time>
      </trkpt>
      <trkpt lat="45.82127" lon="1.85781">
        <ele>708.2</ele>
        <time>2026-07-09T09:12:22.000Z</time>
      </trkpt>
      <trkpt lat="45.82128" lon="1.8578">
        <ele>708.3</ele>
        <time>2026-07-09T09:12:23.000Z</time>
      </trkpt>
      <trkpt lat="45.8213" lon="1.8578">
        <ele>708</ele>
        <time>2026-07-09T09:12:24.000Z</time>
      </trkpt>
      <trkpt lat="45.82132" lon="1.8578">
        <ele>707.8</ele>
        <time>2026-07-09T09:12:25.000Z</time>
      </trkpt>
      <trkpt lat="45.82133" lon="1.85779">
        <ele>708</ele>
        <time>2026-07-09T09:12:26.000Z</time>
      </trkpt>
      <trkpt lat="45.82135" lon="1.85778">
        <ele>708.1</ele>
        <time>2026-07-09T09:12:27.000Z</time>
      </trkpt>
      <trkpt lat="45.82137" lon="1.85778">
        <ele>708.4</ele>
        <time>2026-07-09T09:12:28.000Z</time>
      </trkpt>
      <trkpt lat="45.82139" lon="1.85777">
        <ele>708.2</ele>
        <time>2026-07-09T09:12:29.000Z</time>
      </trkpt>
      <trkpt lat="45.82141" lon="1.85776">
        <ele>708.1</ele>
        <time>2026-07-09T09:12:30.000Z</time>
      </trkpt>
      <trkpt lat="45.82143" lon="1.85775">
        <ele>708.5</ele>
        <time>2026-07-09T09:12:31.000Z</time>
      </trkpt>
      <trkpt lat="45.82144" lon="1.85774">
        <ele>708.5</ele>
        <time>2026-07-09T09:12:32.000Z</time>
      </trkpt>
      <trkpt lat="45.82146" lon="1.85773">
        <ele>708.6</ele>
        <time>2026-07-09T09:12:33.000Z</time>
      </trkpt>
      <trkpt lat="45.82148" lon="1.85772">
        <ele>708.6</ele>
        <time>2026-07-09T09:12:34.000Z</time>
      </trkpt>
      <trkpt lat="45.82149" lon="1.85771">
        <ele>708.9</ele>
        <time>2026-07-09T09:12:35.000Z</time>
      </trkpt>
      <trkpt lat="45.82151" lon="1.8577">
        <ele>708.8</ele>
        <time>2026-07-09T09:12:36.000Z</time>
      </trkpt>
      <trkpt lat="45.82152" lon="1.85768">
        <ele>708.7</ele>
        <time>2026-07-09T09:12:37.000Z</time>
      </trkpt>
      <trkpt lat="45.82153" lon="1.85767">
        <ele>708.7</ele>
        <time>2026-07-09T09:12:38.000Z</time>
      </trkpt>
      <trkpt lat="45.82154" lon="1.85765">
        <ele>708.5</ele>
        <time>2026-07-09T09:12:39.000Z</time>
      </trkpt>
      <trkpt lat="45.82156" lon="1.85763">
        <ele>708.6</ele>
        <time>2026-07-09T09:12:40.000Z</time>
      </trkpt>
      <trkpt lat="45.82157" lon="1.85762">
        <ele>708.7</ele>
        <time>2026-07-09T09:12:41.000Z</time>
      </trkpt>
      <trkpt lat="45.82158" lon="1.8576">
        <ele>708.8</ele>
        <time>2026-07-09T09:12:42.000Z</time>
      </trkpt>
      <trkpt lat="45.82158" lon="1.85757">
        <ele>708.8</ele>
        <time>2026-07-09T09:12:43.000Z</time>
      </trkpt>
      <trkpt lat="45.82159" lon="1.85755">
        <ele>708.9</ele>
        <time>2026-07-09T09:12:44.000Z</time>
      </trkpt>
      <trkpt lat="45.82161" lon="1.85753">
        <ele>709</ele>
        <time>2026-07-09T09:12:45.000Z</time>
      </trkpt>
      <trkpt lat="45.82161" lon="1.85751">
        <ele>708.9</ele>
        <time>2026-07-09T09:12:46.000Z</time>
      </trkpt>
      <trkpt lat="45.82162" lon="1.85749">
        <ele>708.8</ele>
        <time>2026-07-09T09:12:47.000Z</time>
      </trkpt>
      <trkpt lat="45.82163" lon="1.85747">
        <ele>708.9</ele>
        <time>2026-07-09T09:12:48.000Z</time>
      </trkpt>
      <trkpt lat="45.82164" lon="1.85744">
        <ele>708.8</ele>
        <time>2026-07-09T09:12:49.000Z</time>
      </trkpt>
      <trkpt lat="45.82164" lon="1.85742">
        <ele>709</ele>
        <time>2026-07-09T09:12:50.000Z</time>
      </trkpt>
      <trkpt lat="45.82165" lon="1.8574">
        <ele>708.9</ele>
        <time>2026-07-09T09:12:51.000Z</time>
      </trkpt>
      <trkpt lat="45.82166" lon="1.85738">
        <ele>709</ele>
        <time>2026-07-09T09:12:52.000Z</time>
      </trkpt>
      <trkpt lat="45.82167" lon="1.85736">
        <ele>709</ele>
        <time>2026-07-09T09:12:53.000Z</time>
      </trkpt>
      <trkpt lat="45.82168" lon="1.85734">
        <ele>709</ele>
        <time>2026-07-09T09:12:54.000Z</time>
      </trkpt>
      <trkpt lat="45.82169" lon="1.85732">
        <ele>708.7</ele>
        <time>2026-07-09T09:12:55.000Z</time>
      </trkpt>
      <trkpt lat="45.8217" lon="1.8573">
        <ele>708.7</ele>
        <time>2026-07-09T09:12:56.000Z</time>
      </trkpt>
      <trkpt lat="45.82171" lon="1.85728">
        <ele>708.8</ele>
        <time>2026-07-09T09:12:57.000Z</time>
      </trkpt>
      <trkpt lat="45.82172" lon="1.85726">
        <ele>708.8</ele>
        <time>2026-07-09T09:12:58.000Z</time>
      </trkpt>
      <trkpt lat="45.82173" lon="1.85724">
        <ele>708.6</ele>
        <time>2026-07-09T09:12:59.000Z</time>
      </trkpt>
      <trkpt lat="45.82175" lon="1.85723">
        <ele>708.8</ele>
        <time>2026-07-09T09:13:00.000Z</time>
      </trkpt>
      <trkpt lat="45.82176" lon="1.85721">
        <ele>709.1</ele>
        <time>2026-07-09T09:13:01.000Z</time>
      </trkpt>
      <trkpt lat="45.82177" lon="1.85719">
        <ele>709.2</ele>
        <time>2026-07-09T09:13:02.000Z</time>
      </trkpt>
      <trkpt lat="45.82179" lon="1.85717">
        <ele>709.6</ele>
        <time>2026-07-09T09:13:03.000Z</time>
      </trkpt>
      <trkpt lat="45.8218" lon="1.85716">
        <ele>709.8</ele>
        <time>2026-07-09T09:13:04.000Z</time>
      </trkpt>
      <trkpt lat="45.82182" lon="1.85715">
        <ele>710.1</ele>
        <time>2026-07-09T09:13:05.000Z</time>
      </trkpt>
      <trkpt lat="45.82184" lon="1.85716">
        <ele>710.8</ele>
        <time>2026-07-09T09:13:06.000Z</time>
      </trkpt>
      <trkpt lat="45.82185" lon="1.85718">
        <ele>711.3</ele>
        <time>2026-07-09T09:13:07.000Z</time>
      </trkpt>
      <trkpt lat="45.82186" lon="1.8572">
        <ele>711.7</ele>
        <time>2026-07-09T09:13:08.000Z</time>
      </trkpt>
      <trkpt lat="45.82188" lon="1.85722">
        <ele>711.7</ele>
        <time>2026-07-09T09:13:09.000Z</time>
      </trkpt>
      <trkpt lat="45.8219" lon="1.85724">
        <ele>712</ele>
        <time>2026-07-09T09:13:10.000Z</time>
      </trkpt>
      <trkpt lat="45.82191" lon="1.85726">
        <ele>712.1</ele>
        <time>2026-07-09T09:13:11.000Z</time>
      </trkpt>
      <trkpt lat="45.82193" lon="1.85727">
        <ele>712.4</ele>
        <time>2026-07-09T09:13:12.000Z</time>
      </trkpt>
      <trkpt lat="45.82195" lon="1.85728">
        <ele>712.5</ele>
        <time>2026-07-09T09:13:13.000Z</time>
      </trkpt>
      <trkpt lat="45.82196" lon="1.8573">
        <ele>712.6</ele>
        <time>2026-07-09T09:13:14.000Z</time>
      </trkpt>
      <trkpt lat="45.82198" lon="1.85731">
        <ele>712.7</ele>
        <time>2026-07-09T09:13:15.000Z</time>
      </trkpt>
      <trkpt lat="45.82199" lon="1.85732">
        <ele>713</ele>
        <time>2026-07-09T09:13:16.000Z</time>
      </trkpt>
      <trkpt lat="45.822" lon="1.85733">
        <ele>713.2</ele>
        <time>2026-07-09T09:13:17.000Z</time>
      </trkpt>
      <trkpt lat="45.82202" lon="1.85735">
        <ele>713.4</ele>
        <time>2026-07-09T09:13:18.000Z</time>
      </trkpt>
      <trkpt lat="45.82203" lon="1.85736">
        <ele>713.6</ele>
        <time>2026-07-09T09:13:19.000Z</time>
      </trkpt>
      <trkpt lat="45.82205" lon="1.85737">
        <ele>713.8</ele>
        <time>2026-07-09T09:13:20.000Z</time>
      </trkpt>
      <trkpt lat="45.82206" lon="1.85738">
        <ele>714.1</ele>
        <time>2026-07-09T09:13:21.000Z</time>
      </trkpt>
      <trkpt lat="45.82207" lon="1.85739">
        <ele>714.1</ele>
        <time>2026-07-09T09:13:22.000Z</time>
      </trkpt>
      <trkpt lat="45.82209" lon="1.85741">
        <ele>714.3</ele>
        <time>2026-07-09T09:13:23.000Z</time>
      </trkpt>
      <trkpt lat="45.8221" lon="1.85742">
        <ele>714.5</ele>
        <time>2026-07-09T09:13:24.000Z</time>
      </trkpt>
      <trkpt lat="45.82212" lon="1.85743">
        <ele>714.7</ele>
        <time>2026-07-09T09:13:25.000Z</time>
      </trkpt>
      <trkpt lat="45.82213" lon="1.85745">
        <ele>715.1</ele>
        <time>2026-07-09T09:13:26.000Z</time>
      </trkpt>
      <trkpt lat="45.82215" lon="1.85746">
        <ele>715.7</ele>
        <time>2026-07-09T09:13:27.000Z</time>
      </trkpt>
      <trkpt lat="45.82216" lon="1.85747">
        <ele>715.6</ele>
        <time>2026-07-09T09:13:28.000Z</time>
      </trkpt>
      <trkpt lat="45.82218" lon="1.85748">
        <ele>715.9</ele>
        <time>2026-07-09T09:13:29.000Z</time>
      </trkpt>
      <trkpt lat="45.82219" lon="1.85749">
        <ele>716</ele>
        <time>2026-07-09T09:13:30.000Z</time>
      </trkpt>
      <trkpt lat="45.82221" lon="1.8575">
        <ele>716.4</ele>
        <time>2026-07-09T09:13:31.000Z</time>
      </trkpt>
      <trkpt lat="45.82223" lon="1.85751">
        <ele>716.9</ele>
        <time>2026-07-09T09:13:32.000Z</time>
      </trkpt>
      <trkpt lat="45.82224" lon="1.85752">
        <ele>717.4</ele>
        <time>2026-07-09T09:13:33.000Z</time>
      </trkpt>
      <trkpt lat="45.82226" lon="1.85753">
        <ele>717</ele>
        <time>2026-07-09T09:13:34.000Z</time>
      </trkpt>
      <trkpt lat="45.82227" lon="1.85755">
        <ele>717.2</ele>
        <time>2026-07-09T09:13:35.000Z</time>
      </trkpt>
      <trkpt lat="45.82228" lon="1.85757">
        <ele>716.8</ele>
        <time>2026-07-09T09:13:36.000Z</time>
      </trkpt>
      <trkpt lat="45.82229" lon="1.85759">
        <ele>716.7</ele>
        <time>2026-07-09T09:13:37.000Z</time>
      </trkpt>
      <trkpt lat="45.8223" lon="1.85761">
        <ele>716.9</ele>
        <time>2026-07-09T09:13:38.000Z</time>
      </trkpt>
      <trkpt lat="45.82231" lon="1.85763">
        <ele>716.6</ele>
        <time>2026-07-09T09:13:39.000Z</time>
      </trkpt>
      <trkpt lat="45.82232" lon="1.85765">
        <ele>716.3</ele>
        <time>2026-07-09T09:13:40.000Z</time>
      </trkpt>
      <trkpt lat="45.82233" lon="1.85766">
        <ele>716.2</ele>
        <time>2026-07-09T09:13:41.000Z</time>
      </trkpt>
      <trkpt lat="45.82234" lon="1.85768">
        <ele>716.3</ele>
        <time>2026-07-09T09:13:42.000Z</time>
      </trkpt>
      <trkpt lat="45.82234" lon="1.85771">
        <ele>716.5</ele>
        <time>2026-07-09T09:13:43.000Z</time>
      </trkpt>
      <trkpt lat="45.82235" lon="1.85773">
        <ele>716.4</ele>
        <time>2026-07-09T09:13:44.000Z</time>
      </trkpt>
      <trkpt lat="45.82235" lon="1.85775">
        <ele>716.8</ele>
        <time>2026-07-09T09:13:45.000Z</time>
      </trkpt>
      <trkpt lat="45.82236" lon="1.85777">
        <ele>717.3</ele>
        <time>2026-07-09T09:13:46.000Z</time>
      </trkpt>
      <trkpt lat="45.82236" lon="1.85779">
        <ele>717.6</ele>
        <time>2026-07-09T09:13:47.000Z</time>
      </trkpt>
      <trkpt lat="45.82236" lon="1.85781">
        <ele>718.1</ele>
        <time>2026-07-09T09:13:48.000Z</time>
      </trkpt>
      <trkpt lat="45.82237" lon="1.85783">
        <ele>718.3</ele>
        <time>2026-07-09T09:13:49.000Z</time>
      </trkpt>
      <trkpt lat="45.82237" lon="1.85785">
        <ele>719.1</ele>
        <time>2026-07-09T09:13:50.000Z</time>
      </trkpt>
      <trkpt lat="45.82238" lon="1.85788">
        <ele>719</ele>
        <time>2026-07-09T09:13:51.000Z</time>
      </trkpt>
      <trkpt lat="45.82238" lon="1.8579">
        <ele>719.3</ele>
        <time>2026-07-09T09:13:52.000Z</time>
      </trkpt>
      <trkpt lat="45.82238" lon="1.85792">
        <ele>719.8</ele>
        <time>2026-07-09T09:13:53.000Z</time>
      </trkpt>
      <trkpt lat="45.82239" lon="1.85794">
        <ele>719.6</ele>
        <time>2026-07-09T09:13:54.000Z</time>
      </trkpt>
      <trkpt lat="45.82239" lon="1.85796">
        <ele>719.7</ele>
        <time>2026-07-09T09:13:55.000Z</time>
      </trkpt>
      <trkpt lat="45.8224" lon="1.85798">
        <ele>719.8</ele>
        <time>2026-07-09T09:13:56.000Z</time>
      </trkpt>
      <trkpt lat="45.8224" lon="1.858">
        <ele>719.9</ele>
        <time>2026-07-09T09:13:57.000Z</time>
      </trkpt>
      <trkpt lat="45.82241" lon="1.85802">
        <ele>720.1</ele>
        <time>2026-07-09T09:13:58.000Z</time>
      </trkpt>
      <trkpt lat="45.82241" lon="1.85804">
        <ele>720.3</ele>
        <time>2026-07-09T09:13:59.000Z</time>
      </trkpt>
      <trkpt lat="45.82241" lon="1.85807">
        <ele>720.9</ele>
        <time>2026-07-09T09:14:00.000Z</time>
      </trkpt>
      <trkpt lat="45.82241" lon="1.85809">
        <ele>720.5</ele>
        <time>2026-07-09T09:14:01.000Z</time>
      </trkpt>
      <trkpt lat="45.82242" lon="1.85811">
        <ele>720.8</ele>
        <time>2026-07-09T09:14:02.000Z</time>
      </trkpt>
      <trkpt lat="45.82242" lon="1.85812">
        <ele>721.2</ele>
        <time>2026-07-09T09:14:03.000Z</time>
      </trkpt>
      <trkpt lat="45.82242" lon="1.85814">
        <ele>720.9</ele>
        <time>2026-07-09T09:14:04.000Z</time>
      </trkpt>
      <trkpt lat="45.82242" lon="1.85816">
        <ele>721</ele>
        <time>2026-07-09T09:14:05.000Z</time>
      </trkpt>
      <trkpt lat="45.82243" lon="1.85818">
        <ele>721.6</ele>
        <time>2026-07-09T09:14:06.000Z</time>
      </trkpt>
      <trkpt lat="45.82243" lon="1.8582">
        <ele>721.8</ele>
        <time>2026-07-09T09:14:07.000Z</time>
      </trkpt>
      <trkpt lat="45.82243" lon="1.85822">
        <ele>722.2</ele>
        <time>2026-07-09T09:14:08.000Z</time>
      </trkpt>
      <trkpt lat="45.82243" lon="1.85825">
        <ele>722.3</ele>
        <time>2026-07-09T09:14:09.000Z</time>
      </trkpt>
      <trkpt lat="45.82244" lon="1.85827">
        <ele>723.1</ele>
        <time>2026-07-09T09:14:10.000Z</time>
      </trkpt>
      <trkpt lat="45.82244" lon="1.85829">
        <ele>723.1</ele>
        <time>2026-07-09T09:14:11.000Z</time>
      </trkpt>
      <trkpt lat="45.82245" lon="1.85831">
        <ele>722.4</ele>
        <time>2026-07-09T09:14:12.000Z</time>
      </trkpt>
      <trkpt lat="45.82245" lon="1.85833">
        <ele>722.7</ele>
        <time>2026-07-09T09:14:13.000Z</time>
      </trkpt>
      <trkpt lat="45.82245" lon="1.85835">
        <ele>722.8</ele>
        <time>2026-07-09T09:14:14.000Z</time>
      </trkpt>
      <trkpt lat="45.82246" lon="1.85837">
        <ele>722.7</ele>
        <time>2026-07-09T09:14:15.000Z</time>
      </trkpt>
      <trkpt lat="45.82246" lon="1.8584">
        <ele>723.2</ele>
        <time>2026-07-09T09:14:16.000Z</time>
      </trkpt>
      <trkpt lat="45.82246" lon="1.85842">
        <ele>723.2</ele>
        <time>2026-07-09T09:14:17.000Z</time>
      </trkpt>
      <trkpt lat="45.82246" lon="1.85844">
        <ele>723.3</ele>
        <time>2026-07-09T09:14:18.000Z</time>
      </trkpt>
      <trkpt lat="45.82247" lon="1.85846">
        <ele>723.3</ele>
        <time>2026-07-09T09:14:19.000Z</time>
      </trkpt>
      <trkpt lat="45.82247" lon="1.85848">
        <ele>723.5</ele>
        <time>2026-07-09T09:14:20.000Z</time>
      </trkpt>
      <trkpt lat="45.82247" lon="1.8585">
        <ele>723.5</ele>
        <time>2026-07-09T09:14:21.000Z</time>
      </trkpt>
      <trkpt lat="45.82247" lon="1.85852">
        <ele>723.8</ele>
        <time>2026-07-09T09:14:22.000Z</time>
      </trkpt>
      <trkpt lat="45.82247" lon="1.85854">
        <ele>723.6</ele>
        <time>2026-07-09T09:14:23.000Z</time>
      </trkpt>
      <trkpt lat="45.82247" lon="1.85856">
        <ele>723.8</ele>
        <time>2026-07-09T09:14:24.000Z</time>
      </trkpt>
      <trkpt lat="45.82247" lon="1.85858">
        <ele>723.8</ele>
        <time>2026-07-09T09:14:25.000Z</time>
      </trkpt>
      <trkpt lat="45.82247" lon="1.8586">
        <ele>723.7</ele>
        <time>2026-07-09T09:14:26.000Z</time>
      </trkpt>
      <trkpt lat="45.82247" lon="1.85862">
        <ele>723.2</ele>
        <time>2026-07-09T09:14:27.000Z</time>
      </trkpt>
      <trkpt lat="45.82246" lon="1.85864">
        <ele>722.8</ele>
        <time>2026-07-09T09:14:28.000Z</time>
      </trkpt>
      <trkpt lat="45.82246" lon="1.85866">
        <ele>722.5</ele>
        <time>2026-07-09T09:14:29.000Z</time>
      </trkpt>
      <trkpt lat="45.82246" lon="1.85868">
        <ele>722.5</ele>
        <time>2026-07-09T09:14:30.000Z</time>
      </trkpt>
      <trkpt lat="45.82245" lon="1.8587">
        <ele>722.7</ele>
        <time>2026-07-09T09:14:31.000Z</time>
      </trkpt>
      <trkpt lat="45.82244" lon="1.85872">
        <ele>721.9</ele>
        <time>2026-07-09T09:14:32.000Z</time>
      </trkpt>
      <trkpt lat="45.82244" lon="1.85874">
        <ele>721.2</ele>
        <time>2026-07-09T09:14:33.000Z</time>
      </trkpt>
      <trkpt lat="45.82243" lon="1.85876">
        <ele>720.8</ele>
        <time>2026-07-09T09:14:34.000Z</time>
      </trkpt>
      <trkpt lat="45.82242" lon="1.85879">
        <ele>720.8</ele>
        <time>2026-07-09T09:14:35.000Z</time>
      </trkpt>
      <trkpt lat="45.82241" lon="1.85881">
        <ele>720.9</ele>
        <time>2026-07-09T09:14:36.000Z</time>
      </trkpt>
      <trkpt lat="45.8224" lon="1.85883">
        <ele>721</ele>
        <time>2026-07-09T09:14:37.000Z</time>
      </trkpt>
      <trkpt lat="45.82239" lon="1.85884">
        <ele>721.1</ele>
        <time>2026-07-09T09:14:38.000Z</time>
      </trkpt>
      <trkpt lat="45.82238" lon="1.85886">
        <ele>721.5</ele>
        <time>2026-07-09T09:14:39.000Z</time>
      </trkpt>
      <trkpt lat="45.82237" lon="1.85888">
        <ele>721.9</ele>
        <time>2026-07-09T09:14:40.000Z</time>
      </trkpt>
      <trkpt lat="45.82237" lon="1.8589">
        <ele>721.2</ele>
        <time>2026-07-09T09:14:41.000Z</time>
      </trkpt>
      <trkpt lat="45.82236" lon="1.85892">
        <ele>721.2</ele>
        <time>2026-07-09T09:14:42.000Z</time>
      </trkpt>
      <trkpt lat="45.82235" lon="1.85894">
        <ele>721.4</ele>
        <time>2026-07-09T09:14:43.000Z</time>
      </trkpt>
      <trkpt lat="45.82234" lon="1.85897">
        <ele>721.5</ele>
        <time>2026-07-09T09:14:44.000Z</time>
      </trkpt>
      <trkpt lat="45.82233" lon="1.859">
        <ele>721.2</ele>
        <time>2026-07-09T09:14:45.000Z</time>
      </trkpt>
      <trkpt lat="45.82233" lon="1.85903">
        <ele>720.5</ele>
        <time>2026-07-09T09:14:46.000Z</time>
      </trkpt>
      <trkpt lat="45.82231" lon="1.85907">
        <ele>720.2</ele>
        <time>2026-07-09T09:14:47.000Z</time>
      </trkpt>
      <trkpt lat="45.82229" lon="1.85912">
        <ele>720.1</ele>
        <time>2026-07-09T09:14:48.000Z</time>
      </trkpt>
      <trkpt lat="45.82228" lon="1.85918">
        <ele>719.7</ele>
        <time>2026-07-09T09:14:49.000Z</time>
      </trkpt>
      <trkpt lat="45.82226" lon="1.85922">
        <ele>719.8</ele>
        <time>2026-07-09T09:14:50.000Z</time>
      </trkpt>
      <trkpt lat="45.82225" lon="1.85927">
        <ele>719.5</ele>
        <time>2026-07-09T09:14:51.000Z</time>
      </trkpt>
      <trkpt lat="45.82224" lon="1.8593">
        <ele>719.6</ele>
        <time>2026-07-09T09:14:52.000Z</time>
      </trkpt>
      <trkpt lat="45.82223" lon="1.85933">
        <ele>719.1</ele>
        <time>2026-07-09T09:14:53.000Z</time>
      </trkpt>
      <trkpt lat="45.82222" lon="1.85935">
        <ele>719.8</ele>
        <time>2026-07-09T09:14:54.000Z</time>
      </trkpt>
      <trkpt lat="45.82222" lon="1.85937">
        <ele>720.2</ele>
        <time>2026-07-09T09:14:55.000Z</time>
      </trkpt>
      <trkpt lat="45.82221" lon="1.8594">
        <ele>720</ele>
        <time>2026-07-09T09:14:56.000Z</time>
      </trkpt>
      <trkpt lat="45.8222" lon="1.85942">
        <ele>721.9</ele>
        <time>2026-07-09T09:14:57.000Z</time>
      </trkpt>
      <trkpt lat="45.82219" lon="1.85944">
        <ele>721.1</ele>
        <time>2026-07-09T09:14:58.000Z</time>
      </trkpt>
      <trkpt lat="45.82217" lon="1.85946">
        <ele>722</ele>
        <time>2026-07-09T09:14:59.000Z</time>
      </trkpt>
      <trkpt lat="45.82216" lon="1.85948">
        <ele>722.8</ele>
        <time>2026-07-09T09:15:00.000Z</time>
      </trkpt>
      <trkpt lat="45.82215" lon="1.85951">
        <ele>722.5</ele>
        <time>2026-07-09T09:15:01.000Z</time>
      </trkpt>
      <trkpt lat="45.82213" lon="1.85953">
        <ele>723</ele>
        <time>2026-07-09T09:15:02.000Z</time>
      </trkpt>
      <trkpt lat="45.82211" lon="1.85955">
        <ele>723.4</ele>
        <time>2026-07-09T09:15:03.000Z</time>
      </trkpt>
      <trkpt lat="45.82209" lon="1.85958">
        <ele>723.3</ele>
        <time>2026-07-09T09:15:04.000Z</time>
      </trkpt>
      <trkpt lat="45.82208" lon="1.8596">
        <ele>723.4</ele>
        <time>2026-07-09T09:15:05.000Z</time>
      </trkpt>
      <trkpt lat="45.82206" lon="1.85962">
        <ele>723.2</ele>
        <time>2026-07-09T09:15:06.000Z</time>
      </trkpt>
      <trkpt lat="45.82203" lon="1.85963">
        <ele>724.7</ele>
        <time>2026-07-09T09:15:07.000Z</time>
      </trkpt>
      <trkpt lat="45.82201" lon="1.85964">
        <ele>726.5</ele>
        <time>2026-07-09T09:15:08.000Z</time>
      </trkpt>
      <trkpt lat="45.82199" lon="1.85965">
        <ele>727.5</ele>
        <time>2026-07-09T09:15:09.000Z</time>
      </trkpt>
      <trkpt lat="45.82195" lon="1.85966">
        <ele>728.8</ele>
        <time>2026-07-09T09:15:10.000Z</time>
      </trkpt>
      <trkpt lat="45.82191" lon="1.85969">
        <ele>728.9</ele>
        <time>2026-07-09T09:15:11.000Z</time>
      </trkpt>
      <trkpt lat="45.82187" lon="1.85973">
        <ele>728.8</ele>
        <time>2026-07-09T09:15:12.000Z</time>
      </trkpt>
      <trkpt lat="45.82184" lon="1.85976">
        <ele>727.3</ele>
        <time>2026-07-09T09:15:13.000Z</time>
      </trkpt>
      <trkpt lat="45.82181" lon="1.85979">
        <ele>726</ele>
        <time>2026-07-09T09:15:14.000Z</time>
      </trkpt>
      <trkpt lat="45.82179" lon="1.85982">
        <ele>724.3</ele>
        <time>2026-07-09T09:15:15.000Z</time>
      </trkpt>
      <trkpt lat="45.82176" lon="1.85986">
        <ele>724.1</ele>
        <time>2026-07-09T09:15:16.000Z</time>
      </trkpt>
      <trkpt lat="45.82173" lon="1.85992">
        <ele>724.7</ele>
        <time>2026-07-09T09:15:17.000Z</time>
      </trkpt>
      <trkpt lat="45.82171" lon="1.85993">
        <ele>724</ele>
        <time>2026-07-09T09:15:18.000Z</time>
      </trkpt>
      <trkpt lat="45.82168" lon="1.85996">
        <ele>722.6</ele>
        <time>2026-07-09T09:15:19.000Z</time>
      </trkpt>
      <trkpt lat="45.82167" lon="1.85999">
        <ele>721.8</ele>
        <time>2026-07-09T09:15:20.000Z</time>
      </trkpt>
      <trkpt lat="45.82166" lon="1.86002">
        <ele>721.3</ele>
        <time>2026-07-09T09:15:21.000Z</time>
      </trkpt>
      <trkpt lat="45.82167" lon="1.86006">
        <ele>721.5</ele>
        <time>2026-07-09T09:15:22.000Z</time>
      </trkpt>
      <trkpt lat="45.82167" lon="1.8601">
        <ele>721.6</ele>
        <time>2026-07-09T09:15:23.000Z</time>
      </trkpt>
      <trkpt lat="45.82167" lon="1.86013">
        <ele>721.5</ele>
        <time>2026-07-09T09:15:24.000Z</time>
      </trkpt>
      <trkpt lat="45.82167" lon="1.86016">
        <ele>721.2</ele>
        <time>2026-07-09T09:15:25.000Z</time>
      </trkpt>
      <trkpt lat="45.82167" lon="1.86018">
        <ele>721.8</ele>
        <time>2026-07-09T09:15:26.000Z</time>
      </trkpt>
      <trkpt lat="45.82167" lon="1.8602">
        <ele>721.8</ele>
        <time>2026-07-09T09:15:27.000Z</time>
      </trkpt>
      <trkpt lat="45.82166" lon="1.86023">
        <ele>723</ele>
        <time>2026-07-09T09:15:28.000Z</time>
      </trkpt>
      <trkpt lat="45.82166" lon="1.86025">
        <ele>722.8</ele>
        <time>2026-07-09T09:15:29.000Z</time>
      </trkpt>
      <trkpt lat="45.82166" lon="1.86028">
        <ele>723.5</ele>
        <time>2026-07-09T09:15:30.000Z</time>
      </trkpt>
      <trkpt lat="45.82166" lon="1.86032">
        <ele>724.1</ele>
        <time>2026-07-09T09:15:31.000Z</time>
      </trkpt>
      <trkpt lat="45.82166" lon="1.86036">
        <ele>723.8</ele>
        <time>2026-07-09T09:15:32.000Z</time>
      </trkpt>
      <trkpt lat="45.82166" lon="1.86039">
        <ele>724.1</ele>
        <time>2026-07-09T09:15:33.000Z</time>
      </trkpt>
      <trkpt lat="45.82166" lon="1.86044">
        <ele>724.5</ele>
        <time>2026-07-09T09:15:34.000Z</time>
      </trkpt>
      <trkpt lat="45.82166" lon="1.86048">
        <ele>725.5</ele>
        <time>2026-07-09T09:15:35.000Z</time>
      </trkpt>
      <trkpt lat="45.82166" lon="1.86051">
        <ele>726.1</ele>
        <time>2026-07-09T09:15:36.000Z</time>
      </trkpt>
      <trkpt lat="45.82166" lon="1.86055">
        <ele>727.2</ele>
        <time>2026-07-09T09:15:37.000Z</time>
      </trkpt>
      <trkpt lat="45.82166" lon="1.86059">
        <ele>727.9</ele>
        <time>2026-07-09T09:15:38.000Z</time>
      </trkpt>
      <trkpt lat="45.82166" lon="1.86063">
        <ele>729.2</ele>
        <time>2026-07-09T09:15:39.000Z</time>
      </trkpt>
      <trkpt lat="45.82165" lon="1.86066">
        <ele>730.2</ele>
        <time>2026-07-09T09:15:40.000Z</time>
      </trkpt>
      <trkpt lat="45.82165" lon="1.8607">
        <ele>730.3</ele>
        <time>2026-07-09T09:15:41.000Z</time>
      </trkpt>
      <trkpt lat="45.82164" lon="1.86074">
        <ele>730.7</ele>
        <time>2026-07-09T09:15:42.000Z</time>
      </trkpt>
      <trkpt lat="45.82163" lon="1.86078">
        <ele>730.5</ele>
        <time>2026-07-09T09:15:43.000Z</time>
      </trkpt>
      <trkpt lat="45.82163" lon="1.86081">
        <ele>730.4</ele>
        <time>2026-07-09T09:15:44.000Z</time>
      </trkpt>
      <trkpt lat="45.82163" lon="1.86084">
        <ele>730.7</ele>
        <time>2026-07-09T09:15:45.000Z</time>
      </trkpt>
      <trkpt lat="45.82163" lon="1.86087">
        <ele>731.4</ele>
        <time>2026-07-09T09:15:46.000Z</time>
      </trkpt>
      <trkpt lat="45.82163" lon="1.8609">
        <ele>731.4</ele>
        <time>2026-07-09T09:15:47.000Z</time>
      </trkpt>
      <trkpt lat="45.82163" lon="1.86094">
        <ele>732.9</ele>
        <time>2026-07-09T09:15:48.000Z</time>
      </trkpt>
      <trkpt lat="45.82164" lon="1.86097">
        <ele>733.3</ele>
        <time>2026-07-09T09:15:49.000Z</time>
      </trkpt>
      <trkpt lat="45.82164" lon="1.861">
        <ele>733.6</ele>
        <time>2026-07-09T09:15:50.000Z</time>
      </trkpt>
      <trkpt lat="45.82164" lon="1.86102">
        <ele>733.5</ele>
        <time>2026-07-09T09:15:51.000Z</time>
      </trkpt>
      <trkpt lat="45.82164" lon="1.86105">
        <ele>734.2</ele>
        <time>2026-07-09T09:15:52.000Z</time>
      </trkpt>
      <trkpt lat="45.82164" lon="1.86109">
        <ele>734.4</ele>
        <time>2026-07-09T09:15:53.000Z</time>
      </trkpt>
      <trkpt lat="45.82163" lon="1.86112">
        <ele>734.1</ele>
        <time>2026-07-09T09:15:54.000Z</time>
      </trkpt>
      <trkpt lat="45.82163" lon="1.86115">
        <ele>734.9</ele>
        <time>2026-07-09T09:15:55.000Z</time>
      </trkpt>
      <trkpt lat="45.82162" lon="1.86118">
        <ele>734.2</ele>
        <time>2026-07-09T09:15:56.000Z</time>
      </trkpt>
      <trkpt lat="45.82162" lon="1.86121">
        <ele>734</ele>
        <time>2026-07-09T09:15:57.000Z</time>
      </trkpt>
      <trkpt lat="45.82161" lon="1.86123">
        <ele>734</ele>
        <time>2026-07-09T09:15:58.000Z</time>
      </trkpt>
      <trkpt lat="45.8216" lon="1.86126">
        <ele>733.5</ele>
        <time>2026-07-09T09:15:59.000Z</time>
      </trkpt>
      <trkpt lat="45.8216" lon="1.86129">
        <ele>733.8</ele>
        <time>2026-07-09T09:16:00.000Z</time>
      </trkpt>
      <trkpt lat="45.8216" lon="1.86132">
        <ele>734.8</ele>
        <time>2026-07-09T09:16:01.000Z</time>
      </trkpt>
      <trkpt lat="45.82159" lon="1.86135">
        <ele>735.9</ele>
        <time>2026-07-09T09:16:02.000Z</time>
      </trkpt>
      <trkpt lat="45.82159" lon="1.86137">
        <ele>736.2</ele>
        <time>2026-07-09T09:16:03.000Z</time>
      </trkpt>
      <trkpt lat="45.82159" lon="1.8614">
        <ele>736.2</ele>
        <time>2026-07-09T09:16:04.000Z</time>
      </trkpt>
      <trkpt lat="45.8216" lon="1.86142">
        <ele>737.1</ele>
        <time>2026-07-09T09:16:05.000Z</time>
      </trkpt>
      <trkpt lat="45.8216" lon="1.86144">
        <ele>737.7</ele>
        <time>2026-07-09T09:16:06.000Z</time>
      </trkpt>
      <trkpt lat="45.8216" lon="1.86147">
        <ele>737.5</ele>
        <time>2026-07-09T09:16:07.000Z</time>
      </trkpt>
      <trkpt lat="45.8216" lon="1.86149">
        <ele>737.7</ele>
        <time>2026-07-09T09:16:08.000Z</time>
      </trkpt>
      <trkpt lat="45.8216" lon="1.86151">
        <ele>738</ele>
        <time>2026-07-09T09:16:09.000Z</time>
      </trkpt>
      <trkpt lat="45.82161" lon="1.86154">
        <ele>738.1</ele>
        <time>2026-07-09T09:16:10.000Z</time>
      </trkpt>
      <trkpt lat="45.82161" lon="1.86156">
        <ele>739.2</ele>
        <time>2026-07-09T09:16:11.000Z</time>
      </trkpt>
      <trkpt lat="45.82161" lon="1.86158">
        <ele>740.3</ele>
        <time>2026-07-09T09:16:12.000Z</time>
      </trkpt>
      <trkpt lat="45.82161" lon="1.86161">
        <ele>740</ele>
        <time>2026-07-09T09:16:13.000Z</time>
      </trkpt>
      <trkpt lat="45.82162" lon="1.86163">
        <ele>739.8</ele>
        <time>2026-07-09T09:16:14.000Z</time>
      </trkpt>
      <trkpt lat="45.82162" lon="1.86166">
        <ele>740.8</ele>
        <time>2026-07-09T09:16:15.000Z</time>
      </trkpt>
      <trkpt lat="45.82162" lon="1.86169">
        <ele>741.1</ele>
        <time>2026-07-09T09:16:16.000Z</time>
      </trkpt>
      <trkpt lat="45.82162" lon="1.86172">
        <ele>741.6</ele>
        <time>2026-07-09T09:16:17.000Z</time>
      </trkpt>
      <trkpt lat="45.82162" lon="1.86174">
        <ele>743</ele>
        <time>2026-07-09T09:16:18.000Z</time>
      </trkpt>
      <trkpt lat="45.82163" lon="1.86176">
        <ele>742.1</ele>
        <time>2026-07-09T09:16:19.000Z</time>
      </trkpt>
      <trkpt lat="45.82163" lon="1.86179">
        <ele>743.2</ele>
        <time>2026-07-09T09:16:20.000Z</time>
      </trkpt>
      <trkpt lat="45.82164" lon="1.86181">
        <ele>744.7</ele>
        <time>2026-07-09T09:16:21.000Z</time>
      </trkpt>
      <trkpt lat="45.82164" lon="1.86183">
        <ele>746</ele>
        <time>2026-07-09T09:16:22.000Z</time>
      </trkpt>
      <trkpt lat="45.82165" lon="1.86185">
        <ele>746.4</ele>
        <time>2026-07-09T09:16:23.000Z</time>
      </trkpt>
      <trkpt lat="45.82165" lon="1.86187">
        <ele>746.5</ele>
        <time>2026-07-09T09:16:24.000Z</time>
      </trkpt>
      <trkpt lat="45.82165" lon="1.86189">
        <ele>746.6</ele>
        <time>2026-07-09T09:16:25.000Z</time>
      </trkpt>
      <trkpt lat="45.82166" lon="1.8619">
        <ele>746.7</ele>
        <time>2026-07-09T09:16:26.000Z</time>
      </trkpt>
      <trkpt lat="45.82166" lon="1.86192">
        <ele>747.5</ele>
        <time>2026-07-09T09:16:27.000Z</time>
      </trkpt>
      <trkpt lat="45.82166" lon="1.86194">
        <ele>747.3</ele>
        <time>2026-07-09T09:16:28.000Z</time>
      </trkpt>
      <trkpt lat="45.82166" lon="1.86197">
        <ele>747.4</ele>
        <time>2026-07-09T09:16:29.000Z</time>
      </trkpt>
      <trkpt lat="45.82165" lon="1.86199">
        <ele>747.4</ele>
        <time>2026-07-09T09:16:30.000Z</time>
      </trkpt>
      <trkpt lat="45.82165" lon="1.86201">
        <ele>747.3</ele>
        <time>2026-07-09T09:16:31.000Z</time>
      </trkpt>
      <trkpt lat="45.82164" lon="1.86204">
        <ele>747</ele>
        <time>2026-07-09T09:16:32.000Z</time>
      </trkpt>
      <trkpt lat="45.82163" lon="1.86206">
        <ele>747.5</ele>
        <time>2026-07-09T09:16:33.000Z</time>
      </trkpt>
      <trkpt lat="45.82163" lon="1.86208">
        <ele>747.8</ele>
        <time>2026-07-09T09:16:34.000Z</time>
      </trkpt>
      <trkpt lat="45.82163" lon="1.8621">
        <ele>747.6</ele>
        <time>2026-07-09T09:16:35.000Z</time>
      </trkpt>
      <trkpt lat="45.82163" lon="1.86212">
        <ele>747.6</ele>
        <time>2026-07-09T09:16:36.000Z</time>
      </trkpt>
      <trkpt lat="45.82163" lon="1.86213">
        <ele>748.5</ele>
        <time>2026-07-09T09:16:37.000Z</time>
      </trkpt>
      <trkpt lat="45.82163" lon="1.86215">
        <ele>748.4</ele>
        <time>2026-07-09T09:16:38.000Z</time>
      </trkpt>
      <trkpt lat="45.82162" lon="1.86217">
        <ele>748.9</ele>
        <time>2026-07-09T09:16:39.000Z</time>
      </trkpt>
      <trkpt lat="45.82162" lon="1.86219">
        <ele>748.3</ele>
        <time>2026-07-09T09:16:40.000Z</time>
      </trkpt>
      <trkpt lat="45.82162" lon="1.86221">
        <ele>748</ele>
        <time>2026-07-09T09:16:41.000Z</time>
      </trkpt>
      <trkpt lat="45.82162" lon="1.86223">
        <ele>747.8</ele>
        <time>2026-07-09T09:16:42.000Z</time>
      </trkpt>
      <trkpt lat="45.82162" lon="1.86225">
        <ele>748.6</ele>
        <time>2026-07-09T09:16:43.000Z</time>
      </trkpt>
      <trkpt lat="45.82162" lon="1.86227">
        <ele>748.1</ele>
        <time>2026-07-09T09:16:44.000Z</time>
      </trkpt>
      <trkpt lat="45.82162" lon="1.86229">
        <ele>748.8</ele>
        <time>2026-07-09T09:16:45.000Z</time>
      </trkpt>
      <trkpt lat="45.82162" lon="1.86231">
        <ele>748.9</ele>
        <time>2026-07-09T09:16:46.000Z</time>
      </trkpt>
      <trkpt lat="45.82162" lon="1.86233">
        <ele>749.2</ele>
        <time>2026-07-09T09:16:47.000Z</time>
      </trkpt>
      <trkpt lat="45.82162" lon="1.86236">
        <ele>748.9</ele>
        <time>2026-07-09T09:16:48.000Z</time>
      </trkpt>
      <trkpt lat="45.82162" lon="1.86238">
        <ele>749.5</ele>
        <time>2026-07-09T09:16:49.000Z</time>
      </trkpt>
      <trkpt lat="45.82162" lon="1.8624">
        <ele>749.9</ele>
        <time>2026-07-09T09:16:50.000Z</time>
      </trkpt>
      <trkpt lat="45.82162" lon="1.86243">
        <ele>749.3</ele>
        <time>2026-07-09T09:16:51.000Z</time>
      </trkpt>
      <trkpt lat="45.82162" lon="1.86245">
        <ele>749.1</ele>
        <time>2026-07-09T09:16:52.000Z</time>
      </trkpt>
      <trkpt lat="45.82162" lon="1.86248">
        <ele>748.6</ele>
        <time>2026-07-09T09:16:53.000Z</time>
      </trkpt>
      <trkpt lat="45.82162" lon="1.8625">
        <ele>749.3</ele>
        <time>2026-07-09T09:16:54.000Z</time>
      </trkpt>
      <trkpt lat="45.82162" lon="1.86252">
        <ele>749.5</ele>
        <time>2026-07-09T09:16:55.000Z</time>
      </trkpt>
      <trkpt lat="45.82162" lon="1.86254">
        <ele>748.9</ele>
        <time>2026-07-09T09:16:56.000Z</time>
      </trkpt>
      <trkpt lat="45.82162" lon="1.86256">
        <ele>748.7</ele>
        <time>2026-07-09T09:16:57.000Z</time>
      </trkpt>
      <trkpt lat="45.82162" lon="1.86259">
        <ele>748.5</ele>
        <time>2026-07-09T09:16:58.000Z</time>
      </trkpt>
      <trkpt lat="45.82162" lon="1.86261">
        <ele>748.7</ele>
        <time>2026-07-09T09:16:59.000Z</time>
      </trkpt>
      <trkpt lat="45.82162" lon="1.86263">
        <ele>748.6</ele>
        <time>2026-07-09T09:17:00.000Z</time>
      </trkpt>
      <trkpt lat="45.82162" lon="1.86265">
        <ele>748.3</ele>
        <time>2026-07-09T09:17:01.000Z</time>
      </trkpt>
      <trkpt lat="45.82162" lon="1.86267">
        <ele>748.9</ele>
        <time>2026-07-09T09:17:02.000Z</time>
      </trkpt>
      <trkpt lat="45.82162" lon="1.86269">
        <ele>748.7</ele>
        <time>2026-07-09T09:17:03.000Z</time>
      </trkpt>
      <trkpt lat="45.82163" lon="1.86272">
        <ele>749</ele>
        <time>2026-07-09T09:17:04.000Z</time>
      </trkpt>
      <trkpt lat="45.82163" lon="1.86274">
        <ele>748.4</ele>
        <time>2026-07-09T09:17:05.000Z</time>
      </trkpt>
      <trkpt lat="45.82163" lon="1.86276">
        <ele>748.4</ele>
        <time>2026-07-09T09:17:06.000Z</time>
      </trkpt>
      <trkpt lat="45.82162" lon="1.86278">
        <ele>748</ele>
        <time>2026-07-09T09:17:07.000Z</time>
      </trkpt>
      <trkpt lat="45.82162" lon="1.86281">
        <ele>748.1</ele>
        <time>2026-07-09T09:17:08.000Z</time>
      </trkpt>
      <trkpt lat="45.82161" lon="1.86283">
        <ele>748.1</ele>
        <time>2026-07-09T09:17:09.000Z</time>
      </trkpt>
      <trkpt lat="45.82161" lon="1.86285">
        <ele>748.2</ele>
        <time>2026-07-09T09:17:10.000Z</time>
      </trkpt>
      <trkpt lat="45.82161" lon="1.86288">
        <ele>748.7</ele>
        <time>2026-07-09T09:17:11.000Z</time>
      </trkpt>
      <trkpt lat="45.8216" lon="1.8629">
        <ele>749.3</ele>
        <time>2026-07-09T09:17:12.000Z</time>
      </trkpt>
      <trkpt lat="45.8216" lon="1.86293">
        <ele>749.6</ele>
        <time>2026-07-09T09:17:13.000Z</time>
      </trkpt>
      <trkpt lat="45.82159" lon="1.86297">
        <ele>749.6</ele>
        <time>2026-07-09T09:17:14.000Z</time>
      </trkpt>
      <trkpt lat="45.82159" lon="1.863">
        <ele>749.4</ele>
        <time>2026-07-09T09:17:15.000Z</time>
      </trkpt>
      <trkpt lat="45.82158" lon="1.86303">
        <ele>749.2</ele>
        <time>2026-07-09T09:17:16.000Z</time>
      </trkpt>
      <trkpt lat="45.82158" lon="1.86306">
        <ele>749.6</ele>
        <time>2026-07-09T09:17:17.000Z</time>
      </trkpt>
      <trkpt lat="45.82157" lon="1.86308">
        <ele>749.3</ele>
        <time>2026-07-09T09:17:18.000Z</time>
      </trkpt>
      <trkpt lat="45.82157" lon="1.8631">
        <ele>748.1</ele>
        <time>2026-07-09T09:17:19.000Z</time>
      </trkpt>
      <trkpt lat="45.82157" lon="1.86312">
        <ele>748.7</ele>
        <time>2026-07-09T09:17:20.000Z</time>
      </trkpt>
      <trkpt lat="45.82156" lon="1.86314">
        <ele>748.2</ele>
        <time>2026-07-09T09:17:21.000Z</time>
      </trkpt>
      <trkpt lat="45.82156" lon="1.86316">
        <ele>747.7</ele>
        <time>2026-07-09T09:17:22.000Z</time>
      </trkpt>
      <trkpt lat="45.82155" lon="1.86318">
        <ele>746</ele>
        <time>2026-07-09T09:17:23.000Z</time>
      </trkpt>
      <trkpt lat="45.82154" lon="1.8632">
        <ele>745.6</ele>
        <time>2026-07-09T09:17:24.000Z</time>
      </trkpt>
      <trkpt lat="45.82153" lon="1.86322">
        <ele>746.4</ele>
        <time>2026-07-09T09:17:25.000Z</time>
      </trkpt>
      <trkpt lat="45.82152" lon="1.86324">
        <ele>746.9</ele>
        <time>2026-07-09T09:17:26.000Z</time>
      </trkpt>
      <trkpt lat="45.82152" lon="1.86326">
        <ele>747.6</ele>
        <time>2026-07-09T09:17:27.000Z</time>
      </trkpt>
      <trkpt lat="45.8215" lon="1.86328">
        <ele>748.3</ele>
        <time>2026-07-09T09:17:28.000Z</time>
      </trkpt>
      <trkpt lat="45.82149" lon="1.86329">
        <ele>748.2</ele>
        <time>2026-07-09T09:17:29.000Z</time>
      </trkpt>
      <trkpt lat="45.82148" lon="1.86331">
        <ele>747.8</ele>
        <time>2026-07-09T09:17:30.000Z</time>
      </trkpt>
      <trkpt lat="45.82147" lon="1.86333">
        <ele>747.9</ele>
        <time>2026-07-09T09:17:31.000Z</time>
      </trkpt>
      <trkpt lat="45.82146" lon="1.86334">
        <ele>747.8</ele>
        <time>2026-07-09T09:17:32.000Z</time>
      </trkpt>
      <trkpt lat="45.82145" lon="1.86335">
        <ele>748.2</ele>
        <time>2026-07-09T09:17:33.000Z</time>
      </trkpt>
      <trkpt lat="45.82143" lon="1.86337">
        <ele>748.4</ele>
        <time>2026-07-09T09:17:34.000Z</time>
      </trkpt>
      <trkpt lat="45.82142" lon="1.86338">
        <ele>748.9</ele>
        <time>2026-07-09T09:17:35.000Z</time>
      </trkpt>
      <trkpt lat="45.8214" lon="1.86339">
        <ele>748</ele>
        <time>2026-07-09T09:17:36.000Z</time>
      </trkpt>
      <trkpt lat="45.82139" lon="1.8634">
        <ele>747.8</ele>
        <time>2026-07-09T09:17:37.000Z</time>
      </trkpt>
      <trkpt lat="45.82137" lon="1.86342">
        <ele>748.2</ele>
        <time>2026-07-09T09:17:38.000Z</time>
      </trkpt>
      <trkpt lat="45.82136" lon="1.86343">
        <ele>747.9</ele>
        <time>2026-07-09T09:17:39.000Z</time>
      </trkpt>
      <trkpt lat="45.82135" lon="1.86345">
        <ele>747.7</ele>
        <time>2026-07-09T09:17:40.000Z</time>
      </trkpt>
      <trkpt lat="45.82134" lon="1.86346">
        <ele>747.4</ele>
        <time>2026-07-09T09:17:41.000Z</time>
      </trkpt>
      <trkpt lat="45.82133" lon="1.86348">
        <ele>747.2</ele>
        <time>2026-07-09T09:17:42.000Z</time>
      </trkpt>
      <trkpt lat="45.82132" lon="1.8635">
        <ele>746.9</ele>
        <time>2026-07-09T09:17:43.000Z</time>
      </trkpt>
      <trkpt lat="45.82131" lon="1.86352">
        <ele>746.3</ele>
        <time>2026-07-09T09:17:44.000Z</time>
      </trkpt>
      <trkpt lat="45.8213" lon="1.86355">
        <ele>745.1</ele>
        <time>2026-07-09T09:17:45.000Z</time>
      </trkpt>
      <trkpt lat="45.8213" lon="1.86357">
        <ele>744.3</ele>
        <time>2026-07-09T09:17:46.000Z</time>
      </trkpt>
      <trkpt lat="45.82129" lon="1.86359">
        <ele>744.7</ele>
        <time>2026-07-09T09:17:47.000Z</time>
      </trkpt>
      <trkpt lat="45.82128" lon="1.86362">
        <ele>744</ele>
        <time>2026-07-09T09:17:48.000Z</time>
      </trkpt>
      <trkpt lat="45.82127" lon="1.86364">
        <ele>744.2</ele>
        <time>2026-07-09T09:17:49.000Z</time>
      </trkpt>
      <trkpt lat="45.82126" lon="1.86366">
        <ele>743.3</ele>
        <time>2026-07-09T09:17:50.000Z</time>
      </trkpt>
      <trkpt lat="45.82126" lon="1.86369">
        <ele>743.7</ele>
        <time>2026-07-09T09:17:51.000Z</time>
      </trkpt>
      <trkpt lat="45.82125" lon="1.86372">
        <ele>743.2</ele>
        <time>2026-07-09T09:17:52.000Z</time>
      </trkpt>
      <trkpt lat="45.82123" lon="1.86375">
        <ele>744.1</ele>
        <time>2026-07-09T09:17:53.000Z</time>
      </trkpt>
      <trkpt lat="45.82121" lon="1.86378">
        <ele>744.3</ele>
        <time>2026-07-09T09:17:54.000Z</time>
      </trkpt>
      <trkpt lat="45.8212" lon="1.86381">
        <ele>745.6</ele>
        <time>2026-07-09T09:17:55.000Z</time>
      </trkpt>
      <trkpt lat="45.82119" lon="1.86383">
        <ele>746.2</ele>
        <time>2026-07-09T09:17:56.000Z</time>
      </trkpt>
      <trkpt lat="45.82118" lon="1.86385">
        <ele>745.4</ele>
        <time>2026-07-09T09:17:57.000Z</time>
      </trkpt>
      <trkpt lat="45.82118" lon="1.86387">
        <ele>745.8</ele>
        <time>2026-07-09T09:17:58.000Z</time>
      </trkpt>
      <trkpt lat="45.82117" lon="1.86388">
        <ele>746</ele>
        <time>2026-07-09T09:17:59.000Z</time>
      </trkpt>
      <trkpt lat="45.82117" lon="1.8639">
        <ele>748</ele>
        <time>2026-07-09T09:18:00.000Z</time>
      </trkpt>
      <trkpt lat="45.82116" lon="1.86392">
        <ele>747.9</ele>
        <time>2026-07-09T09:18:01.000Z</time>
      </trkpt>
      <trkpt lat="45.82116" lon="1.86394">
        <ele>748.4</ele>
        <time>2026-07-09T09:18:02.000Z</time>
      </trkpt>
      <trkpt lat="45.82116" lon="1.86396">
        <ele>748.7</ele>
        <time>2026-07-09T09:18:03.000Z</time>
      </trkpt>
      <trkpt lat="45.82115" lon="1.86398">
        <ele>749</ele>
        <time>2026-07-09T09:18:04.000Z</time>
      </trkpt>
      <trkpt lat="45.82115" lon="1.864">
        <ele>748.8</ele>
        <time>2026-07-09T09:18:05.000Z</time>
      </trkpt>
      <trkpt lat="45.82115" lon="1.86403">
        <ele>747.8</ele>
        <time>2026-07-09T09:18:06.000Z</time>
      </trkpt>
      <trkpt lat="45.82114" lon="1.86406">
        <ele>746.9</ele>
        <time>2026-07-09T09:18:07.000Z</time>
      </trkpt>
      <trkpt lat="45.82114" lon="1.86408">
        <ele>747.1</ele>
        <time>2026-07-09T09:18:08.000Z</time>
      </trkpt>
      <trkpt lat="45.82113" lon="1.86411">
        <ele>746.4</ele>
        <time>2026-07-09T09:18:09.000Z</time>
      </trkpt>
      <trkpt lat="45.82112" lon="1.86413">
        <ele>746.2</ele>
        <time>2026-07-09T09:18:10.000Z</time>
      </trkpt>
      <trkpt lat="45.82111" lon="1.86415">
        <ele>747</ele>
        <time>2026-07-09T09:18:11.000Z</time>
      </trkpt>
      <trkpt lat="45.82111" lon="1.86417">
        <ele>746.9</ele>
        <time>2026-07-09T09:18:12.000Z</time>
      </trkpt>
      <trkpt lat="45.8211" lon="1.86419">
        <ele>745.5</ele>
        <time>2026-07-09T09:18:13.000Z</time>
      </trkpt>
      <trkpt lat="45.8211" lon="1.86421">
        <ele>745.8</ele>
        <time>2026-07-09T09:18:14.000Z</time>
      </trkpt>
      <trkpt lat="45.82109" lon="1.86423">
        <ele>746</ele>
        <time>2026-07-09T09:18:15.000Z</time>
      </trkpt>
      <trkpt lat="45.82109" lon="1.86424">
        <ele>745.7</ele>
        <time>2026-07-09T09:18:16.000Z</time>
      </trkpt>
      <trkpt lat="45.82108" lon="1.86426">
        <ele>745.6</ele>
        <time>2026-07-09T09:18:17.000Z</time>
      </trkpt>
      <trkpt lat="45.82108" lon="1.86427">
        <ele>745.6</ele>
        <time>2026-07-09T09:18:18.000Z</time>
      </trkpt>
      <trkpt lat="45.82107" lon="1.86428">
        <ele>744.6</ele>
        <time>2026-07-09T09:18:19.000Z</time>
      </trkpt>
      <trkpt lat="45.82107" lon="1.8643">
        <ele>744.2</ele>
        <time>2026-07-09T09:18:20.000Z</time>
      </trkpt>
      <trkpt lat="45.82106" lon="1.86431">
        <ele>744.9</ele>
        <time>2026-07-09T09:18:21.000Z</time>
      </trkpt>
      <trkpt lat="45.82105" lon="1.86433">
        <ele>745.2</ele>
        <time>2026-07-09T09:18:22.000Z</time>
      </trkpt>
      <trkpt lat="45.82105" lon="1.86434">
        <ele>744.8</ele>
        <time>2026-07-09T09:18:23.000Z</time>
      </trkpt>
      <trkpt lat="45.82105" lon="1.86436">
        <ele>744.5</ele>
        <time>2026-07-09T09:18:24.000Z</time>
      </trkpt>
      <trkpt lat="45.82104" lon="1.86438">
        <ele>744.8</ele>
        <time>2026-07-09T09:18:25.000Z</time>
      </trkpt>
      <trkpt lat="45.82104" lon="1.8644">
        <ele>744.5</ele>
        <time>2026-07-09T09:18:26.000Z</time>
      </trkpt>
      <trkpt lat="45.82103" lon="1.86442">
        <ele>743.6</ele>
        <time>2026-07-09T09:18:27.000Z</time>
      </trkpt>
      <trkpt lat="45.82103" lon="1.86444">
        <ele>743.3</ele>
        <time>2026-07-09T09:18:28.000Z</time>
      </trkpt>
      <trkpt lat="45.82103" lon="1.86446">
        <ele>744.5</ele>
        <time>2026-07-09T09:18:29.000Z</time>
      </trkpt>
      <trkpt lat="45.82102" lon="1.86448">
        <ele>744.9</ele>
        <time>2026-07-09T09:18:30.000Z</time>
      </trkpt>
      <trkpt lat="45.82101" lon="1.8645">
        <ele>744.6</ele>
        <time>2026-07-09T09:18:31.000Z</time>
      </trkpt>
      <trkpt lat="45.82099" lon="1.86451">
        <ele>744.2</ele>
        <time>2026-07-09T09:18:32.000Z</time>
      </trkpt>
      <trkpt lat="45.82098" lon="1.86452">
        <ele>744.1</ele>
        <time>2026-07-09T09:18:33.000Z</time>
      </trkpt>
      <trkpt lat="45.82098" lon="1.86455">
        <ele>744</ele>
        <time>2026-07-09T09:18:34.000Z</time>
      </trkpt>
      <trkpt lat="45.82098" lon="1.86457">
        <ele>743.8</ele>
        <time>2026-07-09T09:18:35.000Z</time>
      </trkpt>
      <trkpt lat="45.82097" lon="1.86459">
        <ele>743.6</ele>
        <time>2026-07-09T09:18:36.000Z</time>
      </trkpt>
      <trkpt lat="45.82097" lon="1.86461">
        <ele>742.9</ele>
        <time>2026-07-09T09:18:37.000Z</time>
      </trkpt>
      <trkpt lat="45.82096" lon="1.86463">
        <ele>742.6</ele>
        <time>2026-07-09T09:18:38.000Z</time>
      </trkpt>
      <trkpt lat="45.82095" lon="1.86465">
        <ele>743.3</ele>
        <time>2026-07-09T09:18:39.000Z</time>
      </trkpt>
      <trkpt lat="45.82094" lon="1.86466">
        <ele>744.2</ele>
        <time>2026-07-09T09:18:40.000Z</time>
      </trkpt>
      <trkpt lat="45.82092" lon="1.86468">
        <ele>745.8</ele>
        <time>2026-07-09T09:18:41.000Z</time>
      </trkpt>
      <trkpt lat="45.82091" lon="1.8647">
        <ele>745.4</ele>
        <time>2026-07-09T09:18:42.000Z</time>
      </trkpt>
      <trkpt lat="45.82091" lon="1.86472">
        <ele>746.6</ele>
        <time>2026-07-09T09:18:43.000Z</time>
      </trkpt>
      <trkpt lat="45.8209" lon="1.86472">
        <ele>747.6</ele>
        <time>2026-07-09T09:18:44.000Z</time>
      </trkpt>
      <trkpt lat="45.82089" lon="1.86474">
        <ele>747.7</ele>
        <time>2026-07-09T09:18:45.000Z</time>
      </trkpt>
      <trkpt lat="45.82089" lon="1.86476">
        <ele>748.8</ele>
        <time>2026-07-09T09:18:46.000Z</time>
      </trkpt>
      <trkpt lat="45.82088" lon="1.86478">
        <ele>748.8</ele>
        <time>2026-07-09T09:18:47.000Z</time>
      </trkpt>
      <trkpt lat="45.82088" lon="1.86479">
        <ele>749.4</ele>
        <time>2026-07-09T09:18:48.000Z</time>
      </trkpt>
      <trkpt lat="45.82088" lon="1.86481">
        <ele>749.7</ele>
        <time>2026-07-09T09:18:49.000Z</time>
      </trkpt>
      <trkpt lat="45.82088" lon="1.86483">
        <ele>749.7</ele>
        <time>2026-07-09T09:18:50.000Z</time>
      </trkpt>
      <trkpt lat="45.82088" lon="1.86485">
        <ele>748.9</ele>
        <time>2026-07-09T09:18:51.000Z</time>
      </trkpt>
      <trkpt lat="45.82087" lon="1.86487">
        <ele>749.2</ele>
        <time>2026-07-09T09:18:52.000Z</time>
      </trkpt>
      <trkpt lat="45.82087" lon="1.86489">
        <ele>749.8</ele>
        <time>2026-07-09T09:18:53.000Z</time>
      </trkpt>
      <trkpt lat="45.82086" lon="1.86491">
        <ele>751.3</ele>
        <time>2026-07-09T09:18:54.000Z</time>
      </trkpt>
      <trkpt lat="45.82085" lon="1.86493">
        <ele>751.4</ele>
        <time>2026-07-09T09:18:55.000Z</time>
      </trkpt>
      <trkpt lat="45.82085" lon="1.86495">
        <ele>751.1</ele>
        <time>2026-07-09T09:18:56.000Z</time>
      </trkpt>
      <trkpt lat="45.82085" lon="1.86497">
        <ele>750.7</ele>
        <time>2026-07-09T09:18:57.000Z</time>
      </trkpt>
      <trkpt lat="45.82085" lon="1.865">
        <ele>750.5</ele>
        <time>2026-07-09T09:18:58.000Z</time>
      </trkpt>
      <trkpt lat="45.82084" lon="1.86502">
        <ele>750.1</ele>
        <time>2026-07-09T09:18:59.000Z</time>
      </trkpt>
      <trkpt lat="45.82084" lon="1.86504">
        <ele>748.4</ele>
        <time>2026-07-09T09:19:00.000Z</time>
      </trkpt>
      <trkpt lat="45.82085" lon="1.86506">
        <ele>746.7</ele>
        <time>2026-07-09T09:19:01.000Z</time>
      </trkpt>
      <trkpt lat="45.82085" lon="1.86509">
        <ele>747.1</ele>
        <time>2026-07-09T09:19:02.000Z</time>
      </trkpt>
      <trkpt lat="45.82084" lon="1.86511">
        <ele>747.1</ele>
        <time>2026-07-09T09:19:03.000Z</time>
      </trkpt>
      <trkpt lat="45.82084" lon="1.86513">
        <ele>746.3</ele>
        <time>2026-07-09T09:19:04.000Z</time>
      </trkpt>
      <trkpt lat="45.82085" lon="1.86516">
        <ele>746.7</ele>
        <time>2026-07-09T09:19:05.000Z</time>
      </trkpt>
      <trkpt lat="45.82085" lon="1.86518">
        <ele>745.9</ele>
        <time>2026-07-09T09:19:06.000Z</time>
      </trkpt>
      <trkpt lat="45.82082" lon="1.8653">
        <ele>750</ele>
        <time>2026-07-09T09:19:07.000Z</time>
      </trkpt>
      <trkpt lat="45.82082" lon="1.86532">
        <ele>750.1</ele>
        <time>2026-07-09T09:19:08.000Z</time>
      </trkpt>
      <trkpt lat="45.82082" lon="1.86534">
        <ele>749.5</ele>
        <time>2026-07-09T09:19:09.000Z</time>
      </trkpt>
      <trkpt lat="45.82083" lon="1.86537">
        <ele>749.4</ele>
        <time>2026-07-09T09:19:10.000Z</time>
      </trkpt>
      <trkpt lat="45.82082" lon="1.86539">
        <ele>748.7</ele>
        <time>2026-07-09T09:19:11.000Z</time>
      </trkpt>
      <trkpt lat="45.82082" lon="1.86541">
        <ele>748.4</ele>
        <time>2026-07-09T09:19:12.000Z</time>
      </trkpt>
      <trkpt lat="45.82082" lon="1.86544">
        <ele>748.6</ele>
        <time>2026-07-09T09:19:13.000Z</time>
      </trkpt>
      <trkpt lat="45.82082" lon="1.86546">
        <ele>748.8</ele>
        <time>2026-07-09T09:19:14.000Z</time>
      </trkpt>
      <trkpt lat="45.82082" lon="1.86548">
        <ele>749.2</ele>
        <time>2026-07-09T09:19:15.000Z</time>
      </trkpt>
      <trkpt lat="45.82081" lon="1.86551">
        <ele>749.2</ele>
        <time>2026-07-09T09:19:16.000Z</time>
      </trkpt>
      <trkpt lat="45.82081" lon="1.86553">
        <ele>748.8</ele>
        <time>2026-07-09T09:19:17.000Z</time>
      </trkpt>
      <trkpt lat="45.82081" lon="1.86555">
        <ele>748.6</ele>
        <time>2026-07-09T09:19:18.000Z</time>
      </trkpt>
      <trkpt lat="45.82081" lon="1.86557">
        <ele>748</ele>
        <time>2026-07-09T09:19:19.000Z</time>
      </trkpt>
      <trkpt lat="45.82081" lon="1.8656">
        <ele>747.7</ele>
        <time>2026-07-09T09:19:20.000Z</time>
      </trkpt>
      <trkpt lat="45.82081" lon="1.86562">
        <ele>747.8</ele>
        <time>2026-07-09T09:19:21.000Z</time>
      </trkpt>
      <trkpt lat="45.82081" lon="1.86565">
        <ele>747.5</ele>
        <time>2026-07-09T09:19:22.000Z</time>
      </trkpt>
      <trkpt lat="45.82081" lon="1.86567">
        <ele>747.6</ele>
        <time>2026-07-09T09:19:23.000Z</time>
      </trkpt>
      <trkpt lat="45.82081" lon="1.8657">
        <ele>747.4</ele>
        <time>2026-07-09T09:19:24.000Z</time>
      </trkpt>
      <trkpt lat="45.82081" lon="1.86572">
        <ele>747.4</ele>
        <time>2026-07-09T09:19:25.000Z</time>
      </trkpt>
      <trkpt lat="45.82081" lon="1.86574">
        <ele>747.6</ele>
        <time>2026-07-09T09:19:26.000Z</time>
      </trkpt>
      <trkpt lat="45.82082" lon="1.86577">
        <ele>747.7</ele>
        <time>2026-07-09T09:19:27.000Z</time>
      </trkpt>
      <trkpt lat="45.82082" lon="1.86579">
        <ele>747.5</ele>
        <time>2026-07-09T09:19:28.000Z</time>
      </trkpt>
      <trkpt lat="45.82083" lon="1.86581">
        <ele>747</ele>
        <time>2026-07-09T09:19:29.000Z</time>
      </trkpt>
      <trkpt lat="45.82083" lon="1.86583">
        <ele>747</ele>
        <time>2026-07-09T09:19:30.000Z</time>
      </trkpt>
      <trkpt lat="45.82084" lon="1.86586">
        <ele>746.8</ele>
        <time>2026-07-09T09:19:31.000Z</time>
      </trkpt>
      <trkpt lat="45.82085" lon="1.86588">
        <ele>746</ele>
        <time>2026-07-09T09:19:32.000Z</time>
      </trkpt>
      <trkpt lat="45.82085" lon="1.8659">
        <ele>746</ele>
        <time>2026-07-09T09:19:33.000Z</time>
      </trkpt>
      <trkpt lat="45.82085" lon="1.86592">
        <ele>746.2</ele>
        <time>2026-07-09T09:19:34.000Z</time>
      </trkpt>
      <trkpt lat="45.82086" lon="1.86595">
        <ele>746.2</ele>
        <time>2026-07-09T09:19:35.000Z</time>
      </trkpt>
      <trkpt lat="45.82086" lon="1.86597">
        <ele>745.8</ele>
        <time>2026-07-09T09:19:36.000Z</time>
      </trkpt>
      <trkpt lat="45.82086" lon="1.86599">
        <ele>745.8</ele>
        <time>2026-07-09T09:19:37.000Z</time>
      </trkpt>
      <trkpt lat="45.82086" lon="1.86602">
        <ele>745.7</ele>
        <time>2026-07-09T09:19:38.000Z</time>
      </trkpt>
      <trkpt lat="45.82086" lon="1.86604">
        <ele>745.8</ele>
        <time>2026-07-09T09:19:39.000Z</time>
      </trkpt>
      <trkpt lat="45.82086" lon="1.86606">
        <ele>745.7</ele>
        <time>2026-07-09T09:19:40.000Z</time>
      </trkpt>
      <trkpt lat="45.82086" lon="1.86608">
        <ele>745.6</ele>
        <time>2026-07-09T09:19:41.000Z</time>
      </trkpt>
      <trkpt lat="45.82083" lon="1.8661">
        <ele>746.4</ele>
        <time>2026-07-09T09:19:42.000Z</time>
      </trkpt>
      <trkpt lat="45.82082" lon="1.86612">
        <ele>746.3</ele>
        <time>2026-07-09T09:19:43.000Z</time>
      </trkpt>
      <trkpt lat="45.82082" lon="1.86614">
        <ele>746.5</ele>
        <time>2026-07-09T09:19:44.000Z</time>
      </trkpt>
      <trkpt lat="45.82081" lon="1.86616">
        <ele>746.7</ele>
        <time>2026-07-09T09:19:45.000Z</time>
      </trkpt>
      <trkpt lat="45.82081" lon="1.86618">
        <ele>746.3</ele>
        <time>2026-07-09T09:19:46.000Z</time>
      </trkpt>
      <trkpt lat="45.82082" lon="1.86621">
        <ele>745.1</ele>
        <time>2026-07-09T09:19:47.000Z</time>
      </trkpt>
      <trkpt lat="45.82081" lon="1.86624">
        <ele>745.7</ele>
        <time>2026-07-09T09:19:48.000Z</time>
      </trkpt>
      <trkpt lat="45.82081" lon="1.86626">
        <ele>745</ele>
        <time>2026-07-09T09:19:49.000Z</time>
      </trkpt>
      <trkpt lat="45.82081" lon="1.86629">
        <ele>744.3</ele>
        <time>2026-07-09T09:19:50.000Z</time>
      </trkpt>
      <trkpt lat="45.82081" lon="1.86631">
        <ele>744.1</ele>
        <time>2026-07-09T09:19:51.000Z</time>
      </trkpt>
      <trkpt lat="45.82081" lon="1.86633">
        <ele>743.6</ele>
        <time>2026-07-09T09:19:52.000Z</time>
      </trkpt>
      <trkpt lat="45.8208" lon="1.86635">
        <ele>743.4</ele>
        <time>2026-07-09T09:19:53.000Z</time>
      </trkpt>
      <trkpt lat="45.8208" lon="1.86637">
        <ele>743.3</ele>
        <time>2026-07-09T09:19:54.000Z</time>
      </trkpt>
      <trkpt lat="45.8208" lon="1.8664">
        <ele>743.1</ele>
        <time>2026-07-09T09:19:55.000Z</time>
      </trkpt>
      <trkpt lat="45.8208" lon="1.86641">
        <ele>743.4</ele>
        <time>2026-07-09T09:19:56.000Z</time>
      </trkpt>
      <trkpt lat="45.82079" lon="1.86643">
        <ele>744.4</ele>
        <time>2026-07-09T09:19:57.000Z</time>
      </trkpt>
      <trkpt lat="45.82079" lon="1.86645">
        <ele>744.4</ele>
        <time>2026-07-09T09:19:58.000Z</time>
      </trkpt>
      <trkpt lat="45.82078" lon="1.86647">
        <ele>743.4</ele>
        <time>2026-07-09T09:19:59.000Z</time>
      </trkpt>
      <trkpt lat="45.82078" lon="1.8665">
        <ele>743.2</ele>
        <time>2026-07-09T09:20:00.000Z</time>
      </trkpt>
      <trkpt lat="45.82077" lon="1.86652">
        <ele>742.9</ele>
        <time>2026-07-09T09:20:01.000Z</time>
      </trkpt>
      <trkpt lat="45.82077" lon="1.86655">
        <ele>742.6</ele>
        <time>2026-07-09T09:20:02.000Z</time>
      </trkpt>
      <trkpt lat="45.82076" lon="1.86657">
        <ele>742.2</ele>
        <time>2026-07-09T09:20:03.000Z</time>
      </trkpt>
      <trkpt lat="45.82075" lon="1.86659">
        <ele>742.1</ele>
        <time>2026-07-09T09:20:04.000Z</time>
      </trkpt>
      <trkpt lat="45.82075" lon="1.86661">
        <ele>742.6</ele>
        <time>2026-07-09T09:20:05.000Z</time>
      </trkpt>
      <trkpt lat="45.82074" lon="1.86664">
        <ele>743.1</ele>
        <time>2026-07-09T09:20:06.000Z</time>
      </trkpt>
      <trkpt lat="45.82073" lon="1.86666">
        <ele>743.4</ele>
        <time>2026-07-09T09:20:07.000Z</time>
      </trkpt>
      <trkpt lat="45.82073" lon="1.86668">
        <ele>743.1</ele>
        <time>2026-07-09T09:20:08.000Z</time>
      </trkpt>
      <trkpt lat="45.82072" lon="1.86671">
        <ele>742.9</ele>
        <time>2026-07-09T09:20:09.000Z</time>
      </trkpt>
      <trkpt lat="45.82072" lon="1.86674">
        <ele>742.6</ele>
        <time>2026-07-09T09:20:10.000Z</time>
      </trkpt>
      <trkpt lat="45.82071" lon="1.86677">
        <ele>742.5</ele>
        <time>2026-07-09T09:20:11.000Z</time>
      </trkpt>
      <trkpt lat="45.82071" lon="1.86679">
        <ele>741.8</ele>
        <time>2026-07-09T09:20:12.000Z</time>
      </trkpt>
      <trkpt lat="45.82071" lon="1.86681">
        <ele>741.6</ele>
        <time>2026-07-09T09:20:13.000Z</time>
      </trkpt>
      <trkpt lat="45.8207" lon="1.86683">
        <ele>741.6</ele>
        <time>2026-07-09T09:20:14.000Z</time>
      </trkpt>
      <trkpt lat="45.8207" lon="1.86686">
        <ele>742</ele>
        <time>2026-07-09T09:20:15.000Z</time>
      </trkpt>
      <trkpt lat="45.82068" lon="1.86689">
        <ele>742</ele>
        <time>2026-07-09T09:20:16.000Z</time>
      </trkpt>
      <trkpt lat="45.82068" lon="1.86693">
        <ele>742.7</ele>
        <time>2026-07-09T09:20:17.000Z</time>
      </trkpt>
      <trkpt lat="45.82068" lon="1.86696">
        <ele>742.6</ele>
        <time>2026-07-09T09:20:18.000Z</time>
      </trkpt>
      <trkpt lat="45.82067" lon="1.86699">
        <ele>742.2</ele>
        <time>2026-07-09T09:20:19.000Z</time>
      </trkpt>
      <trkpt lat="45.82066" lon="1.86701">
        <ele>742.7</ele>
        <time>2026-07-09T09:20:20.000Z</time>
      </trkpt>
      <trkpt lat="45.82066" lon="1.86703">
        <ele>742.7</ele>
        <time>2026-07-09T09:20:21.000Z</time>
      </trkpt>
      <trkpt lat="45.82065" lon="1.86705">
        <ele>742.7</ele>
        <time>2026-07-09T09:20:22.000Z</time>
      </trkpt>
      <trkpt lat="45.82064" lon="1.86708">
        <ele>742.9</ele>
        <time>2026-07-09T09:20:23.000Z</time>
      </trkpt>
      <trkpt lat="45.82063" lon="1.8671">
        <ele>743.1</ele>
        <time>2026-07-09T09:20:24.000Z</time>
      </trkpt>
      <trkpt lat="45.82063" lon="1.86712">
        <ele>742.6</ele>
        <time>2026-07-09T09:20:25.000Z</time>
      </trkpt>
      <trkpt lat="45.82062" lon="1.86714">
        <ele>742.1</ele>
        <time>2026-07-09T09:20:26.000Z</time>
      </trkpt>
      <trkpt lat="45.82062" lon="1.86717">
        <ele>742.2</ele>
        <time>2026-07-09T09:20:27.000Z</time>
      </trkpt>
      <trkpt lat="45.82061" lon="1.86719">
        <ele>742.1</ele>
        <time>2026-07-09T09:20:28.000Z</time>
      </trkpt>
      <trkpt lat="45.8206" lon="1.86721">
        <ele>742.1</ele>
        <time>2026-07-09T09:20:29.000Z</time>
      </trkpt>
      <trkpt lat="45.82059" lon="1.86723">
        <ele>741.4</ele>
        <time>2026-07-09T09:20:30.000Z</time>
      </trkpt>
      <trkpt lat="45.82058" lon="1.86725">
        <ele>741</ele>
        <time>2026-07-09T09:20:31.000Z</time>
      </trkpt>
      <trkpt lat="45.82057" lon="1.86728">
        <ele>741.1</ele>
        <time>2026-07-09T09:20:32.000Z</time>
      </trkpt>
      <trkpt lat="45.82056" lon="1.8673">
        <ele>741.1</ele>
        <time>2026-07-09T09:20:33.000Z</time>
      </trkpt>
      <trkpt lat="45.82055" lon="1.86733">
        <ele>740.9</ele>
        <time>2026-07-09T09:20:34.000Z</time>
      </trkpt>
      <trkpt lat="45.82055" lon="1.86735">
        <ele>741</ele>
        <time>2026-07-09T09:20:35.000Z</time>
      </trkpt>
      <trkpt lat="45.82054" lon="1.86738">
        <ele>741.6</ele>
        <time>2026-07-09T09:20:36.000Z</time>
      </trkpt>
      <trkpt lat="45.82053" lon="1.8674">
        <ele>740.9</ele>
        <time>2026-07-09T09:20:37.000Z</time>
      </trkpt>
      <trkpt lat="45.82052" lon="1.86741">
        <ele>740.6</ele>
        <time>2026-07-09T09:20:38.000Z</time>
      </trkpt>
      <trkpt lat="45.82051" lon="1.86743">
        <ele>740.3</ele>
        <time>2026-07-09T09:20:39.000Z</time>
      </trkpt>
      <trkpt lat="45.8205" lon="1.86746">
        <ele>740.2</ele>
        <time>2026-07-09T09:20:40.000Z</time>
      </trkpt>
      <trkpt lat="45.82049" lon="1.86748">
        <ele>740.4</ele>
        <time>2026-07-09T09:20:41.000Z</time>
      </trkpt>
      <trkpt lat="45.82049" lon="1.86751">
        <ele>740.4</ele>
        <time>2026-07-09T09:20:42.000Z</time>
      </trkpt>
      <trkpt lat="45.82048" lon="1.86753">
        <ele>740.5</ele>
        <time>2026-07-09T09:20:43.000Z</time>
      </trkpt>
      <trkpt lat="45.82047" lon="1.86756">
        <ele>740.1</ele>
        <time>2026-07-09T09:20:44.000Z</time>
      </trkpt>
      <trkpt lat="45.82046" lon="1.86758">
        <ele>740.3</ele>
        <time>2026-07-09T09:20:45.000Z</time>
      </trkpt>
      <trkpt lat="45.82045" lon="1.8676">
        <ele>740.4</ele>
        <time>2026-07-09T09:20:46.000Z</time>
      </trkpt>
      <trkpt lat="45.82044" lon="1.86763">
        <ele>740.1</ele>
        <time>2026-07-09T09:20:47.000Z</time>
      </trkpt>
      <trkpt lat="45.82043" lon="1.86765">
        <ele>739.8</ele>
        <time>2026-07-09T09:20:48.000Z</time>
      </trkpt>
      <trkpt lat="45.82042" lon="1.86768">
        <ele>740</ele>
        <time>2026-07-09T09:20:49.000Z</time>
      </trkpt>
      <trkpt lat="45.82041" lon="1.8677">
        <ele>740.2</ele>
        <time>2026-07-09T09:20:50.000Z</time>
      </trkpt>
      <trkpt lat="45.8204" lon="1.86773">
        <ele>740.3</ele>
        <time>2026-07-09T09:20:51.000Z</time>
      </trkpt>
      <trkpt lat="45.8204" lon="1.86776">
        <ele>740.5</ele>
        <time>2026-07-09T09:20:52.000Z</time>
      </trkpt>
      <trkpt lat="45.82039" lon="1.86779">
        <ele>740.7</ele>
        <time>2026-07-09T09:20:53.000Z</time>
      </trkpt>
      <trkpt lat="45.82038" lon="1.86781">
        <ele>741</ele>
        <time>2026-07-09T09:20:54.000Z</time>
      </trkpt>
      <trkpt lat="45.82037" lon="1.86784">
        <ele>741</ele>
        <time>2026-07-09T09:20:55.000Z</time>
      </trkpt>
      <trkpt lat="45.82036" lon="1.86786">
        <ele>741.2</ele>
        <time>2026-07-09T09:20:56.000Z</time>
      </trkpt>
      <trkpt lat="45.82035" lon="1.86789">
        <ele>741.7</ele>
        <time>2026-07-09T09:20:57.000Z</time>
      </trkpt>
      <trkpt lat="45.82034" lon="1.86791">
        <ele>741.5</ele>
        <time>2026-07-09T09:20:58.000Z</time>
      </trkpt>
      <trkpt lat="45.82033" lon="1.86794">
        <ele>741.9</ele>
        <time>2026-07-09T09:20:59.000Z</time>
      </trkpt>
      <trkpt lat="45.82033" lon="1.86796">
        <ele>741.9</ele>
        <time>2026-07-09T09:21:00.000Z</time>
      </trkpt>
      <trkpt lat="45.82032" lon="1.86799">
        <ele>742</ele>
        <time>2026-07-09T09:21:01.000Z</time>
      </trkpt>
      <trkpt lat="45.82032" lon="1.86802">
        <ele>741.8</ele>
        <time>2026-07-09T09:21:02.000Z</time>
      </trkpt>
      <trkpt lat="45.82029" lon="1.86803">
        <ele>741.5</ele>
        <time>2026-07-09T09:21:03.000Z</time>
      </trkpt>
      <trkpt lat="45.82028" lon="1.86805">
        <ele>741.7</ele>
        <time>2026-07-09T09:21:04.000Z</time>
      </trkpt>
      <trkpt lat="45.82027" lon="1.86808">
        <ele>741.8</ele>
        <time>2026-07-09T09:21:05.000Z</time>
      </trkpt>
      <trkpt lat="45.82027" lon="1.86811">
        <ele>741.8</ele>
        <time>2026-07-09T09:21:06.000Z</time>
      </trkpt>
      <trkpt lat="45.82027" lon="1.86814">
        <ele>741.9</ele>
        <time>2026-07-09T09:21:07.000Z</time>
      </trkpt>
      <trkpt lat="45.82026" lon="1.86817">
        <ele>741.8</ele>
        <time>2026-07-09T09:21:08.000Z</time>
      </trkpt>
      <trkpt lat="45.82026" lon="1.8682">
        <ele>741.5</ele>
        <time>2026-07-09T09:21:09.000Z</time>
      </trkpt>
      <trkpt lat="45.82026" lon="1.86823">
        <ele>741.7</ele>
        <time>2026-07-09T09:21:10.000Z</time>
      </trkpt>
      <trkpt lat="45.82026" lon="1.86826">
        <ele>741.7</ele>
        <time>2026-07-09T09:21:11.000Z</time>
      </trkpt>
      <trkpt lat="45.82025" lon="1.86829">
        <ele>741.8</ele>
        <time>2026-07-09T09:21:12.000Z</time>
      </trkpt>
      <trkpt lat="45.82025" lon="1.86831">
        <ele>741.9</ele>
        <time>2026-07-09T09:21:13.000Z</time>
      </trkpt>
      <trkpt lat="45.82023" lon="1.86834">
        <ele>741.4</ele>
        <time>2026-07-09T09:21:14.000Z</time>
      </trkpt>
      <trkpt lat="45.82022" lon="1.86836">
        <ele>740.6</ele>
        <time>2026-07-09T09:21:15.000Z</time>
      </trkpt>
      <trkpt lat="45.82022" lon="1.86837">
        <ele>740.5</ele>
        <time>2026-07-09T09:21:16.000Z</time>
      </trkpt>
      <trkpt lat="45.82021" lon="1.86839">
        <ele>740.5</ele>
        <time>2026-07-09T09:21:17.000Z</time>
      </trkpt>
      <trkpt lat="45.8202" lon="1.86841">
        <ele>740.5</ele>
        <time>2026-07-09T09:21:18.000Z</time>
      </trkpt>
      <trkpt lat="45.82019" lon="1.86843">
        <ele>740.5</ele>
        <time>2026-07-09T09:21:19.000Z</time>
      </trkpt>
      <trkpt lat="45.82019" lon="1.86845">
        <ele>740.4</ele>
        <time>2026-07-09T09:21:20.000Z</time>
      </trkpt>
      <trkpt lat="45.82018" lon="1.86846">
        <ele>740.3</ele>
        <time>2026-07-09T09:21:21.000Z</time>
      </trkpt>
      <trkpt lat="45.82018" lon="1.86848">
        <ele>740.7</ele>
        <time>2026-07-09T09:21:22.000Z</time>
      </trkpt>
      <trkpt lat="45.82018" lon="1.86851">
        <ele>741</ele>
        <time>2026-07-09T09:21:23.000Z</time>
      </trkpt>
      <trkpt lat="45.82017" lon="1.86853">
        <ele>740.9</ele>
        <time>2026-07-09T09:21:24.000Z</time>
      </trkpt>
      <trkpt lat="45.82016" lon="1.86855">
        <ele>740.8</ele>
        <time>2026-07-09T09:21:25.000Z</time>
      </trkpt>
      <trkpt lat="45.82016" lon="1.86857">
        <ele>741</ele>
        <time>2026-07-09T09:21:26.000Z</time>
      </trkpt>
      <trkpt lat="45.82016" lon="1.8686">
        <ele>741.4</ele>
        <time>2026-07-09T09:21:27.000Z</time>
      </trkpt>
      <trkpt lat="45.82016" lon="1.86863">
        <ele>741.6</ele>
        <time>2026-07-09T09:21:28.000Z</time>
      </trkpt>
      <trkpt lat="45.82015" lon="1.86866">
        <ele>741.4</ele>
        <time>2026-07-09T09:21:29.000Z</time>
      </trkpt>
      <trkpt lat="45.82014" lon="1.86869">
        <ele>741.4</ele>
        <time>2026-07-09T09:21:30.000Z</time>
      </trkpt>
      <trkpt lat="45.82014" lon="1.86871">
        <ele>741.8</ele>
        <time>2026-07-09T09:21:31.000Z</time>
      </trkpt>
      <trkpt lat="45.82014" lon="1.86873">
        <ele>742.4</ele>
        <time>2026-07-09T09:21:32.000Z</time>
      </trkpt>
      <trkpt lat="45.82013" lon="1.86876">
        <ele>743.2</ele>
        <time>2026-07-09T09:21:33.000Z</time>
      </trkpt>
      <trkpt lat="45.82013" lon="1.86878">
        <ele>743.4</ele>
        <time>2026-07-09T09:21:34.000Z</time>
      </trkpt>
      <trkpt lat="45.82012" lon="1.8688">
        <ele>742.3</ele>
        <time>2026-07-09T09:21:35.000Z</time>
      </trkpt>
      <trkpt lat="45.82011" lon="1.86881">
        <ele>742.1</ele>
        <time>2026-07-09T09:21:36.000Z</time>
      </trkpt>
      <trkpt lat="45.8201" lon="1.86882">
        <ele>742.6</ele>
        <time>2026-07-09T09:21:37.000Z</time>
      </trkpt>
      <trkpt lat="45.82009" lon="1.86883">
        <ele>742.5</ele>
        <time>2026-07-09T09:21:38.000Z</time>
      </trkpt>
      <trkpt lat="45.82008" lon="1.86883">
        <ele>743</ele>
        <time>2026-07-09T09:21:39.000Z</time>
      </trkpt>
      <trkpt lat="45.82006" lon="1.86883">
        <ele>742.7</ele>
        <time>2026-07-09T09:21:40.000Z</time>
      </trkpt>
      <trkpt lat="45.82005" lon="1.86882">
        <ele>742.7</ele>
        <time>2026-07-09T09:21:41.000Z</time>
      </trkpt>
      <trkpt lat="45.82003" lon="1.86883">
        <ele>743.1</ele>
        <time>2026-07-09T09:21:42.000Z</time>
      </trkpt>
      <trkpt lat="45.82002" lon="1.86883">
        <ele>742.6</ele>
        <time>2026-07-09T09:21:43.000Z</time>
      </trkpt>
      <trkpt lat="45.82" lon="1.86883">
        <ele>742.3</ele>
        <time>2026-07-09T09:21:44.000Z</time>
      </trkpt>
      <trkpt lat="45.81999" lon="1.86883">
        <ele>742</ele>
        <time>2026-07-09T09:21:45.000Z</time>
      </trkpt>
      <trkpt lat="45.81997" lon="1.86883">
        <ele>741.9</ele>
        <time>2026-07-09T09:21:46.000Z</time>
      </trkpt>
      <trkpt lat="45.81996" lon="1.86883">
        <ele>742</ele>
        <time>2026-07-09T09:21:47.000Z</time>
      </trkpt>
      <trkpt lat="45.81994" lon="1.86883">
        <ele>741.5</ele>
        <time>2026-07-09T09:21:48.000Z</time>
      </trkpt>
      <trkpt lat="45.81993" lon="1.86883">
        <ele>741.6</ele>
        <time>2026-07-09T09:21:49.000Z</time>
      </trkpt>
      <trkpt lat="45.81992" lon="1.86883">
        <ele>741.7</ele>
        <time>2026-07-09T09:21:50.000Z</time>
      </trkpt>
      <trkpt lat="45.8199" lon="1.86884">
        <ele>741.4</ele>
        <time>2026-07-09T09:21:51.000Z</time>
      </trkpt>
      <trkpt lat="45.81989" lon="1.86884">
        <ele>741.3</ele>
        <time>2026-07-09T09:21:52.000Z</time>
      </trkpt>
      <trkpt lat="45.81987" lon="1.86884">
        <ele>741.1</ele>
        <time>2026-07-09T09:21:53.000Z</time>
      </trkpt>
      <trkpt lat="45.81985" lon="1.86884">
        <ele>740.4</ele>
        <time>2026-07-09T09:21:54.000Z</time>
      </trkpt>
      <trkpt lat="45.81983" lon="1.86885">
        <ele>739.5</ele>
        <time>2026-07-09T09:21:55.000Z</time>
      </trkpt>
      <trkpt lat="45.81981" lon="1.86885">
        <ele>738.8</ele>
        <time>2026-07-09T09:21:56.000Z</time>
      </trkpt>
      <trkpt lat="45.81978" lon="1.86885">
        <ele>738.4</ele>
        <time>2026-07-09T09:21:57.000Z</time>
      </trkpt>
      <trkpt lat="45.81975" lon="1.86885">
        <ele>738.9</ele>
        <time>2026-07-09T09:21:58.000Z</time>
      </trkpt>
      <trkpt lat="45.81971" lon="1.86884">
        <ele>739.4</ele>
        <time>2026-07-09T09:21:59.000Z</time>
      </trkpt>
      <trkpt lat="45.81968" lon="1.86883">
        <ele>740.1</ele>
        <time>2026-07-09T09:22:00.000Z</time>
      </trkpt>
      <trkpt lat="45.81965" lon="1.86883">
        <ele>740.6</ele>
        <time>2026-07-09T09:22:01.000Z</time>
      </trkpt>
      <trkpt lat="45.81962" lon="1.86883">
        <ele>740.3</ele>
        <time>2026-07-09T09:22:02.000Z</time>
      </trkpt>
      <trkpt lat="45.81958" lon="1.86882">
        <ele>740.3</ele>
        <time>2026-07-09T09:22:03.000Z</time>
      </trkpt>
      <trkpt lat="45.81954" lon="1.86882">
        <ele>739.8</ele>
        <time>2026-07-09T09:22:04.000Z</time>
      </trkpt>
      <trkpt lat="45.8195" lon="1.86883">
        <ele>739.9</ele>
        <time>2026-07-09T09:22:05.000Z</time>
      </trkpt>
      <trkpt lat="45.81946" lon="1.86883">
        <ele>738.9</ele>
        <time>2026-07-09T09:22:06.000Z</time>
      </trkpt>
      <trkpt lat="45.81943" lon="1.86884">
        <ele>739.8</ele>
        <time>2026-07-09T09:22:07.000Z</time>
      </trkpt>
      <trkpt lat="45.81939" lon="1.86884">
        <ele>740.2</ele>
        <time>2026-07-09T09:22:08.000Z</time>
      </trkpt>
      <trkpt lat="45.81934" lon="1.86884">
        <ele>739.6</ele>
        <time>2026-07-09T09:22:09.000Z</time>
      </trkpt>
      <trkpt lat="45.81928" lon="1.86884">
        <ele>740.3</ele>
        <time>2026-07-09T09:22:10.000Z</time>
      </trkpt>
      <trkpt lat="45.81923" lon="1.86884">
        <ele>741.7</ele>
        <time>2026-07-09T09:22:11.000Z</time>
      </trkpt>
      <trkpt lat="45.81918" lon="1.86884">
        <ele>741.9</ele>
        <time>2026-07-09T09:22:12.000Z</time>
      </trkpt>
      <trkpt lat="45.81913" lon="1.86883">
        <ele>742.1</ele>
        <time>2026-07-09T09:22:13.000Z</time>
      </trkpt>
      <trkpt lat="45.81909" lon="1.86884">
        <ele>742.3</ele>
        <time>2026-07-09T09:22:14.000Z</time>
      </trkpt>
      <trkpt lat="45.81903" lon="1.86885">
        <ele>742.1</ele>
        <time>2026-07-09T09:22:15.000Z</time>
      </trkpt>
      <trkpt lat="45.81898" lon="1.86885">
        <ele>742.9</ele>
        <time>2026-07-09T09:22:16.000Z</time>
      </trkpt>
      <trkpt lat="45.81893" lon="1.86885">
        <ele>743.3</ele>
        <time>2026-07-09T09:22:17.000Z</time>
      </trkpt>
      <trkpt lat="45.81887" lon="1.86885">
        <ele>743.4</ele>
        <time>2026-07-09T09:22:18.000Z</time>
      </trkpt>
      <trkpt lat="45.81882" lon="1.86886">
        <ele>743.4</ele>
        <time>2026-07-09T09:22:19.000Z</time>
      </trkpt>
      <trkpt lat="45.81876" lon="1.86886">
        <ele>743.6</ele>
        <time>2026-07-09T09:22:20.000Z</time>
      </trkpt>
      <trkpt lat="45.81871" lon="1.86886">
        <ele>743.9</ele>
        <time>2026-07-09T09:22:21.000Z</time>
      </trkpt>
      <trkpt lat="45.81866" lon="1.86885">
        <ele>742.8</ele>
        <time>2026-07-09T09:22:22.000Z</time>
      </trkpt>
      <trkpt lat="45.81861" lon="1.86884">
        <ele>743.1</ele>
        <time>2026-07-09T09:22:23.000Z</time>
      </trkpt>
      <trkpt lat="45.81857" lon="1.86885">
        <ele>742.7</ele>
        <time>2026-07-09T09:22:24.000Z</time>
      </trkpt>
      <trkpt lat="45.81852" lon="1.86885">
        <ele>742.3</ele>
        <time>2026-07-09T09:22:25.000Z</time>
      </trkpt>
      <trkpt lat="45.81847" lon="1.86885">
        <ele>743.5</ele>
        <time>2026-07-09T09:22:26.000Z</time>
      </trkpt>
      <trkpt lat="45.81842" lon="1.86886">
        <ele>743.1</ele>
        <time>2026-07-09T09:22:27.000Z</time>
      </trkpt>
      <trkpt lat="45.81838" lon="1.86887">
        <ele>743.6</ele>
        <time>2026-07-09T09:22:28.000Z</time>
      </trkpt>
      <trkpt lat="45.81834" lon="1.86888">
        <ele>744</ele>
        <time>2026-07-09T09:22:29.000Z</time>
      </trkpt>
      <trkpt lat="45.81831" lon="1.86889">
        <ele>744.3</ele>
        <time>2026-07-09T09:22:30.000Z</time>
      </trkpt>
      <trkpt lat="45.81827" lon="1.86892">
        <ele>745.1</ele>
        <time>2026-07-09T09:22:31.000Z</time>
      </trkpt>
      <trkpt lat="45.81824" lon="1.86896">
        <ele>745.4</ele>
        <time>2026-07-09T09:22:32.000Z</time>
      </trkpt>
      <trkpt lat="45.81821" lon="1.869">
        <ele>744.7</ele>
        <time>2026-07-09T09:22:33.000Z</time>
      </trkpt>
      <trkpt lat="45.81818" lon="1.86905">
        <ele>744.2</ele>
        <time>2026-07-09T09:22:34.000Z</time>
      </trkpt>
      <trkpt lat="45.81815" lon="1.8691">
        <ele>745</ele>
        <time>2026-07-09T09:22:35.000Z</time>
      </trkpt>
      <trkpt lat="45.81813" lon="1.86915">
        <ele>744.8</ele>
        <time>2026-07-09T09:22:36.000Z</time>
      </trkpt>
      <trkpt lat="45.8181" lon="1.8692">
        <ele>744.5</ele>
        <time>2026-07-09T09:22:37.000Z</time>
      </trkpt>
      <trkpt lat="45.81807" lon="1.86925">
        <ele>743.8</ele>
        <time>2026-07-09T09:22:38.000Z</time>
      </trkpt>
      <trkpt lat="45.81805" lon="1.86929">
        <ele>744.1</ele>
        <time>2026-07-09T09:22:39.000Z</time>
      </trkpt>
      <trkpt lat="45.81803" lon="1.86932">
        <ele>743.1</ele>
        <time>2026-07-09T09:22:40.000Z</time>
      </trkpt>
      <trkpt lat="45.818" lon="1.86935">
        <ele>744.1</ele>
        <time>2026-07-09T09:22:41.000Z</time>
      </trkpt>
      <trkpt lat="45.81795" lon="1.86938">
        <ele>744.2</ele>
        <time>2026-07-09T09:22:42.000Z</time>
      </trkpt>
      <trkpt lat="45.81791" lon="1.86942">
        <ele>744.2</ele>
        <time>2026-07-09T09:22:43.000Z</time>
      </trkpt>
      <trkpt lat="45.81788" lon="1.86945">
        <ele>744.3</ele>
        <time>2026-07-09T09:22:44.000Z</time>
      </trkpt>
      <trkpt lat="45.81784" lon="1.8695">
        <ele>745.4</ele>
        <time>2026-07-09T09:22:45.000Z</time>
      </trkpt>
      <trkpt lat="45.81783" lon="1.86951">
        <ele>745.6</ele>
        <time>2026-07-09T09:22:46.000Z</time>
      </trkpt>
      <trkpt lat="45.81782" lon="1.86954">
        <ele>744.2</ele>
        <time>2026-07-09T09:22:47.000Z</time>
      </trkpt>
      <trkpt lat="45.81781" lon="1.86956">
        <ele>743.9</ele>
        <time>2026-07-09T09:22:48.000Z</time>
      </trkpt>
      <trkpt lat="45.8178" lon="1.86957">
        <ele>743.3</ele>
        <time>2026-07-09T09:22:49.000Z</time>
      </trkpt>
      <trkpt lat="45.8178" lon="1.86957">
        <ele>743.2</ele>
        <time>2026-07-09T09:22:50.000Z</time>
      </trkpt>
      <trkpt lat="45.81779" lon="1.86958">
        <ele>743.8</ele>
        <time>2026-07-09T09:22:51.000Z</time>
      </trkpt>
      <trkpt lat="45.81779" lon="1.8696">
        <ele>743.9</ele>
        <time>2026-07-09T09:22:52.000Z</time>
      </trkpt>
      <trkpt lat="45.81777" lon="1.86962">
        <ele>743.5</ele>
        <time>2026-07-09T09:22:53.000Z</time>
      </trkpt>
      <trkpt lat="45.81777" lon="1.86963">
        <ele>743.4</ele>
        <time>2026-07-09T09:22:54.000Z</time>
      </trkpt>
      <trkpt lat="45.81776" lon="1.86965">
        <ele>743.3</ele>
        <time>2026-07-09T09:22:55.000Z</time>
      </trkpt>
      <trkpt lat="45.81775" lon="1.86966">
        <ele>743.7</ele>
        <time>2026-07-09T09:22:56.000Z</time>
      </trkpt>
      <trkpt lat="45.81773" lon="1.86967">
        <ele>743.8</ele>
        <time>2026-07-09T09:22:57.000Z</time>
      </trkpt>
      <trkpt lat="45.81772" lon="1.86969">
        <ele>743.7</ele>
        <time>2026-07-09T09:22:58.000Z</time>
      </trkpt>
      <trkpt lat="45.81772" lon="1.86972">
        <ele>743.4</ele>
        <time>2026-07-09T09:22:59.000Z</time>
      </trkpt>
      <trkpt lat="45.81772" lon="1.86972">
        <ele>744.1</ele>
        <time>2026-07-09T09:23:00.000Z</time>
      </trkpt>
      <trkpt lat="45.81771" lon="1.86973">
        <ele>743.9</ele>
        <time>2026-07-09T09:23:01.000Z</time>
      </trkpt>
      <trkpt lat="45.8177" lon="1.86974">
        <ele>744.3</ele>
        <time>2026-07-09T09:23:02.000Z</time>
      </trkpt>
      <trkpt lat="45.81768" lon="1.86976">
        <ele>743.7</ele>
        <time>2026-07-09T09:23:03.000Z</time>
      </trkpt>
      <trkpt lat="45.81766" lon="1.86977">
        <ele>744</ele>
        <time>2026-07-09T09:23:04.000Z</time>
      </trkpt>
      <trkpt lat="45.81765" lon="1.86978">
        <ele>744.4</ele>
        <time>2026-07-09T09:23:05.000Z</time>
      </trkpt>
      <trkpt lat="45.81764" lon="1.8698">
        <ele>743.9</ele>
        <time>2026-07-09T09:23:06.000Z</time>
      </trkpt>
      <trkpt lat="45.81764" lon="1.86982">
        <ele>742.5</ele>
        <time>2026-07-09T09:23:07.000Z</time>
      </trkpt>
      <trkpt lat="45.81763" lon="1.86984">
        <ele>742.1</ele>
        <time>2026-07-09T09:23:08.000Z</time>
      </trkpt>
      <trkpt lat="45.81763" lon="1.86985">
        <ele>742.5</ele>
        <time>2026-07-09T09:23:09.000Z</time>
      </trkpt>
      <trkpt lat="45.81762" lon="1.86987">
        <ele>740.7</ele>
        <time>2026-07-09T09:23:10.000Z</time>
      </trkpt>
      <trkpt lat="45.81761" lon="1.86989">
        <ele>740</ele>
        <time>2026-07-09T09:23:11.000Z</time>
      </trkpt>
      <trkpt lat="45.81761" lon="1.86991">
        <ele>739.5</ele>
        <time>2026-07-09T09:23:12.000Z</time>
      </trkpt>
      <trkpt lat="45.8176" lon="1.86993">
        <ele>738.9</ele>
        <time>2026-07-09T09:23:13.000Z</time>
      </trkpt>
      <trkpt lat="45.81759" lon="1.86995">
        <ele>738.2</ele>
        <time>2026-07-09T09:23:14.000Z</time>
      </trkpt>
      <trkpt lat="45.81758" lon="1.86996">
        <ele>737.9</ele>
        <time>2026-07-09T09:23:15.000Z</time>
      </trkpt>
      <trkpt lat="45.81758" lon="1.86995">
        <ele>738.5</ele>
        <time>2026-07-09T09:23:16.000Z</time>
      </trkpt>
      <trkpt lat="45.81758" lon="1.86995">
        <ele>739.1</ele>
        <time>2026-07-09T09:23:17.000Z</time>
      </trkpt>
      <trkpt lat="45.81758" lon="1.86994">
        <ele>738.9</ele>
        <time>2026-07-09T09:23:18.000Z</time>
      </trkpt>
      <trkpt lat="45.81758" lon="1.86993">
        <ele>738.9</ele>
        <time>2026-07-09T09:23:19.000Z</time>
      </trkpt>
      <trkpt lat="45.81756" lon="1.86995">
        <ele>738.8</ele>
        <time>2026-07-09T09:23:20.000Z</time>
      </trkpt>
      <trkpt lat="45.81756" lon="1.86998">
        <ele>738.3</ele>
        <time>2026-07-09T09:23:21.000Z</time>
      </trkpt>
      <trkpt lat="45.81756" lon="1.87">
        <ele>738.3</ele>
        <time>2026-07-09T09:23:22.000Z</time>
      </trkpt>
      <trkpt lat="45.81757" lon="1.87002">
        <ele>738</ele>
        <time>2026-07-09T09:23:23.000Z</time>
      </trkpt>
      <trkpt lat="45.81758" lon="1.87004">
        <ele>737.9</ele>
        <time>2026-07-09T09:23:24.000Z</time>
      </trkpt>
      <trkpt lat="45.81759" lon="1.87007">
        <ele>737.4</ele>
        <time>2026-07-09T09:23:25.000Z</time>
      </trkpt>
      <trkpt lat="45.81761" lon="1.87012">
        <ele>735.5</ele>
        <time>2026-07-09T09:23:26.000Z</time>
      </trkpt>
      <trkpt lat="45.8176" lon="1.87016">
        <ele>735.9</ele>
        <time>2026-07-09T09:23:27.000Z</time>
      </trkpt>
      <trkpt lat="45.81761" lon="1.87015">
        <ele>735.5</ele>
        <time>2026-07-09T09:23:28.000Z</time>
      </trkpt>
      <trkpt lat="45.81761" lon="1.87015">
        <ele>735.3</ele>
        <time>2026-07-09T09:23:29.000Z</time>
      </trkpt>
      <trkpt lat="45.81761" lon="1.87015">
        <ele>735.4</ele>
        <time>2026-07-09T09:23:30.000Z</time>
      </trkpt>
      <trkpt lat="45.81761" lon="1.87015">
        <ele>735.8</ele>
        <time>2026-07-09T09:23:31.000Z</time>
      </trkpt>
      <trkpt lat="45.81761" lon="1.87015">
        <ele>735.6</ele>
        <time>2026-07-09T09:23:32.000Z</time>
      </trkpt>
      <trkpt lat="45.81761" lon="1.87015">
        <ele>736</ele>
        <time>2026-07-09T09:23:33.000Z</time>
      </trkpt>
      <trkpt lat="45.81762" lon="1.87015">
        <ele>736.3</ele>
        <time>2026-07-09T09:23:34.000Z</time>
      </trkpt>
      <trkpt lat="45.81762" lon="1.87016">
        <ele>735.9</ele>
        <time>2026-07-09T09:23:35.000Z</time>
      </trkpt>
      <trkpt lat="45.81762" lon="1.87017">
        <ele>735.5</ele>
        <time>2026-07-09T09:23:36.000Z</time>
      </trkpt>
      <trkpt lat="45.81762" lon="1.87017">
        <ele>735.8</ele>
        <time>2026-07-09T09:23:37.000Z</time>
      </trkpt>
      <trkpt lat="45.81761" lon="1.87018">
        <ele>735.8</ele>
        <time>2026-07-09T09:23:38.000Z</time>
      </trkpt>
      <trkpt lat="45.81761" lon="1.87018">
        <ele>735.6</ele>
        <time>2026-07-09T09:23:39.000Z</time>
      </trkpt>
      <trkpt lat="45.8176" lon="1.8702">
        <ele>735.7</ele>
        <time>2026-07-09T09:23:40.000Z</time>
      </trkpt>
      <trkpt lat="45.81759" lon="1.87022">
        <ele>735.4</ele>
        <time>2026-07-09T09:23:41.000Z</time>
      </trkpt>
      <trkpt lat="45.81759" lon="1.87025">
        <ele>735.5</ele>
        <time>2026-07-09T09:23:42.000Z</time>
      </trkpt>
      <trkpt lat="45.8176" lon="1.87027">
        <ele>735.5</ele>
        <time>2026-07-09T09:23:43.000Z</time>
      </trkpt>
      <trkpt lat="45.81761" lon="1.8703">
        <ele>735.2</ele>
        <time>2026-07-09T09:23:44.000Z</time>
      </trkpt>
      <trkpt lat="45.81762" lon="1.87032">
        <ele>734.6</ele>
        <time>2026-07-09T09:23:45.000Z</time>
      </trkpt>
      <trkpt lat="45.81762" lon="1.87034">
        <ele>734.7</ele>
        <time>2026-07-09T09:23:46.000Z</time>
      </trkpt>
      <trkpt lat="45.81763" lon="1.87037">
        <ele>734.7</ele>
        <time>2026-07-09T09:23:47.000Z</time>
      </trkpt>
      <trkpt lat="45.81764" lon="1.87039">
        <ele>734.2</ele>
        <time>2026-07-09T09:23:48.000Z</time>
      </trkpt>
      <trkpt lat="45.81764" lon="1.87042">
        <ele>734.4</ele>
        <time>2026-07-09T09:23:49.000Z</time>
      </trkpt>
      <trkpt lat="45.81765" lon="1.87044">
        <ele>734.5</ele>
        <time>2026-07-09T09:23:50.000Z</time>
      </trkpt>
      <trkpt lat="45.81765" lon="1.87047">
        <ele>734.5</ele>
        <time>2026-07-09T09:23:51.000Z</time>
      </trkpt>
      <trkpt lat="45.81765" lon="1.87049">
        <ele>734.3</ele>
        <time>2026-07-09T09:23:52.000Z</time>
      </trkpt>
      <trkpt lat="45.81765" lon="1.87051">
        <ele>734.5</ele>
        <time>2026-07-09T09:23:53.000Z</time>
      </trkpt>
      <trkpt lat="45.81767" lon="1.87053">
        <ele>734.6</ele>
        <time>2026-07-09T09:23:54.000Z</time>
      </trkpt>
      <trkpt lat="45.81768" lon="1.87055">
        <ele>734.5</ele>
        <time>2026-07-09T09:23:55.000Z</time>
      </trkpt>
      <trkpt lat="45.81765" lon="1.87059">
        <ele>735.5</ele>
        <time>2026-07-09T09:23:56.000Z</time>
      </trkpt>
      <trkpt lat="45.81764" lon="1.87061">
        <ele>735.4</ele>
        <time>2026-07-09T09:23:57.000Z</time>
      </trkpt>
      <trkpt lat="45.81763" lon="1.87064">
        <ele>734.8</ele>
        <time>2026-07-09T09:23:58.000Z</time>
      </trkpt>
      <trkpt lat="45.81762" lon="1.87066">
        <ele>734.8</ele>
        <time>2026-07-09T09:23:59.000Z</time>
      </trkpt>
      <trkpt lat="45.81761" lon="1.87069">
        <ele>734.7</ele>
        <time>2026-07-09T09:24:00.000Z</time>
      </trkpt>
      <trkpt lat="45.81761" lon="1.87071">
        <ele>734.8</ele>
        <time>2026-07-09T09:24:01.000Z</time>
      </trkpt>
      <trkpt lat="45.8176" lon="1.87074">
        <ele>735.1</ele>
        <time>2026-07-09T09:24:02.000Z</time>
      </trkpt>
      <trkpt lat="45.81758" lon="1.87077">
        <ele>735.3</ele>
        <time>2026-07-09T09:24:03.000Z</time>
      </trkpt>
      <trkpt lat="45.81757" lon="1.87079">
        <ele>734.8</ele>
        <time>2026-07-09T09:24:04.000Z</time>
      </trkpt>
      <trkpt lat="45.81756" lon="1.87081">
        <ele>734.8</ele>
        <time>2026-07-09T09:24:05.000Z</time>
      </trkpt>
      <trkpt lat="45.81756" lon="1.87083">
        <ele>733.7</ele>
        <time>2026-07-09T09:24:06.000Z</time>
      </trkpt>
      <trkpt lat="45.81755" lon="1.87085">
        <ele>733.2</ele>
        <time>2026-07-09T09:24:07.000Z</time>
      </trkpt>
      <trkpt lat="45.81754" lon="1.87087">
        <ele>733</ele>
        <time>2026-07-09T09:24:08.000Z</time>
      </trkpt>
      <trkpt lat="45.81753" lon="1.87089">
        <ele>732.5</ele>
        <time>2026-07-09T09:24:09.000Z</time>
      </trkpt>
      <trkpt lat="45.81752" lon="1.8709">
        <ele>732</ele>
        <time>2026-07-09T09:24:10.000Z</time>
      </trkpt>
      <trkpt lat="45.81751" lon="1.87092">
        <ele>731.9</ele>
        <time>2026-07-09T09:24:11.000Z</time>
      </trkpt>
      <trkpt lat="45.8175" lon="1.87094">
        <ele>731.7</ele>
        <time>2026-07-09T09:24:12.000Z</time>
      </trkpt>
      <trkpt lat="45.81749" lon="1.87096">
        <ele>731.6</ele>
        <time>2026-07-09T09:24:13.000Z</time>
      </trkpt>
      <trkpt lat="45.81748" lon="1.87098">
        <ele>731.5</ele>
        <time>2026-07-09T09:24:14.000Z</time>
      </trkpt>
      <trkpt lat="45.81747" lon="1.87101">
        <ele>731.3</ele>
        <time>2026-07-09T09:24:15.000Z</time>
      </trkpt>
      <trkpt lat="45.81746" lon="1.87103">
        <ele>731</ele>
        <time>2026-07-09T09:24:16.000Z</time>
      </trkpt>
      <trkpt lat="45.81745" lon="1.87106">
        <ele>731</ele>
        <time>2026-07-09T09:24:17.000Z</time>
      </trkpt>
      <trkpt lat="45.81744" lon="1.87108">
        <ele>730.7</ele>
        <time>2026-07-09T09:24:18.000Z</time>
      </trkpt>
      <trkpt lat="45.81743" lon="1.8711">
        <ele>730.5</ele>
        <time>2026-07-09T09:24:19.000Z</time>
      </trkpt>
      <trkpt lat="45.81742" lon="1.87112">
        <ele>730.5</ele>
        <time>2026-07-09T09:24:20.000Z</time>
      </trkpt>
      <trkpt lat="45.81741" lon="1.87114">
        <ele>730.7</ele>
        <time>2026-07-09T09:24:21.000Z</time>
      </trkpt>
      <trkpt lat="45.8174" lon="1.87116">
        <ele>730.5</ele>
        <time>2026-07-09T09:24:22.000Z</time>
      </trkpt>
      <trkpt lat="45.81739" lon="1.87117">
        <ele>730.4</ele>
        <time>2026-07-09T09:24:23.000Z</time>
      </trkpt>
      <trkpt lat="45.81738" lon="1.87119">
        <ele>730.3</ele>
        <time>2026-07-09T09:24:24.000Z</time>
      </trkpt>
      <trkpt lat="45.81737" lon="1.87121">
        <ele>730.2</ele>
        <time>2026-07-09T09:24:25.000Z</time>
      </trkpt>
      <trkpt lat="45.81736" lon="1.87123">
        <ele>730.2</ele>
        <time>2026-07-09T09:24:26.000Z</time>
      </trkpt>
      <trkpt lat="45.81735" lon="1.87125">
        <ele>730.2</ele>
        <time>2026-07-09T09:24:27.000Z</time>
      </trkpt>
      <trkpt lat="45.81734" lon="1.87128">
        <ele>730.2</ele>
        <time>2026-07-09T09:24:28.000Z</time>
      </trkpt>
      <trkpt lat="45.81734" lon="1.8713">
        <ele>730.2</ele>
        <time>2026-07-09T09:24:29.000Z</time>
      </trkpt>
      <trkpt lat="45.81734" lon="1.87132">
        <ele>730.4</ele>
        <time>2026-07-09T09:24:30.000Z</time>
      </trkpt>
      <trkpt lat="45.81734" lon="1.87135">
        <ele>730.1</ele>
        <time>2026-07-09T09:24:31.000Z</time>
      </trkpt>
      <trkpt lat="45.81733" lon="1.87137">
        <ele>730.2</ele>
        <time>2026-07-09T09:24:32.000Z</time>
      </trkpt>
      <trkpt lat="45.81732" lon="1.87139">
        <ele>730.2</ele>
        <time>2026-07-09T09:24:33.000Z</time>
      </trkpt>
      <trkpt lat="45.81731" lon="1.8714">
        <ele>730.2</ele>
        <time>2026-07-09T09:24:34.000Z</time>
      </trkpt>
      <trkpt lat="45.8173" lon="1.87142">
        <ele>730.4</ele>
        <time>2026-07-09T09:24:35.000Z</time>
      </trkpt>
      <trkpt lat="45.81729" lon="1.87143">
        <ele>730.5</ele>
        <time>2026-07-09T09:24:36.000Z</time>
      </trkpt>
      <trkpt lat="45.81727" lon="1.87144">
        <ele>730.4</ele>
        <time>2026-07-09T09:24:37.000Z</time>
      </trkpt>
      <trkpt lat="45.81726" lon="1.87145">
        <ele>730.1</ele>
        <time>2026-07-09T09:24:38.000Z</time>
      </trkpt>
      <trkpt lat="45.81725" lon="1.87147">
        <ele>730.4</ele>
        <time>2026-07-09T09:24:39.000Z</time>
      </trkpt>
      <trkpt lat="45.81724" lon="1.87148">
        <ele>729.8</ele>
        <time>2026-07-09T09:24:40.000Z</time>
      </trkpt>
      <trkpt lat="45.81723" lon="1.87149">
        <ele>730.5</ele>
        <time>2026-07-09T09:24:41.000Z</time>
      </trkpt>
      <trkpt lat="45.81722" lon="1.87151">
        <ele>731.6</ele>
        <time>2026-07-09T09:24:42.000Z</time>
      </trkpt>
      <trkpt lat="45.8172" lon="1.87152">
        <ele>732.1</ele>
        <time>2026-07-09T09:24:43.000Z</time>
      </trkpt>
      <trkpt lat="45.81719" lon="1.87153">
        <ele>733.1</ele>
        <time>2026-07-09T09:24:44.000Z</time>
      </trkpt>
      <trkpt lat="45.81718" lon="1.87155">
        <ele>733.6</ele>
        <time>2026-07-09T09:24:45.000Z</time>
      </trkpt>
      <trkpt lat="45.81717" lon="1.87156">
        <ele>734.3</ele>
        <time>2026-07-09T09:24:46.000Z</time>
      </trkpt>
      <trkpt lat="45.81717" lon="1.87158">
        <ele>734.6</ele>
        <time>2026-07-09T09:24:47.000Z</time>
      </trkpt>
      <trkpt lat="45.81716" lon="1.8716">
        <ele>734.5</ele>
        <time>2026-07-09T09:24:48.000Z</time>
      </trkpt>
      <trkpt lat="45.81714" lon="1.87161">
        <ele>735</ele>
        <time>2026-07-09T09:24:49.000Z</time>
      </trkpt>
      <trkpt lat="45.81713" lon="1.87162">
        <ele>735.3</ele>
        <time>2026-07-09T09:24:50.000Z</time>
      </trkpt>
      <trkpt lat="45.81712" lon="1.87163">
        <ele>735.7</ele>
        <time>2026-07-09T09:24:51.000Z</time>
      </trkpt>
      <trkpt lat="45.81711" lon="1.87164">
        <ele>735.4</ele>
        <time>2026-07-09T09:24:52.000Z</time>
      </trkpt>
      <trkpt lat="45.81711" lon="1.87165">
        <ele>735.7</ele>
        <time>2026-07-09T09:24:53.000Z</time>
      </trkpt>
      <trkpt lat="45.8171" lon="1.87166">
        <ele>736.5</ele>
        <time>2026-07-09T09:24:54.000Z</time>
      </trkpt>
      <trkpt lat="45.81709" lon="1.87167">
        <ele>736.4</ele>
        <time>2026-07-09T09:24:55.000Z</time>
      </trkpt>
      <trkpt lat="45.81709" lon="1.87168">
        <ele>737</ele>
        <time>2026-07-09T09:24:56.000Z</time>
      </trkpt>
      <trkpt lat="45.81709" lon="1.87171">
        <ele>736.3</ele>
        <time>2026-07-09T09:24:57.000Z</time>
      </trkpt>
      <trkpt lat="45.81708" lon="1.87174">
        <ele>736.2</ele>
        <time>2026-07-09T09:24:58.000Z</time>
      </trkpt>
      <trkpt lat="45.81706" lon="1.87176">
        <ele>735.5</ele>
        <time>2026-07-09T09:24:59.000Z</time>
      </trkpt>
      <trkpt lat="45.81705" lon="1.87178">
        <ele>735.3</ele>
        <time>2026-07-09T09:25:00.000Z</time>
      </trkpt>
      <trkpt lat="45.81704" lon="1.87181">
        <ele>735.7</ele>
        <time>2026-07-09T09:25:01.000Z</time>
      </trkpt>
      <trkpt lat="45.81702" lon="1.87183">
        <ele>736.2</ele>
        <time>2026-07-09T09:25:02.000Z</time>
      </trkpt>
      <trkpt lat="45.81701" lon="1.87185">
        <ele>736.2</ele>
        <time>2026-07-09T09:25:03.000Z</time>
      </trkpt>
      <trkpt lat="45.817" lon="1.87187">
        <ele>736.5</ele>
        <time>2026-07-09T09:25:04.000Z</time>
      </trkpt>
      <trkpt lat="45.81699" lon="1.87189">
        <ele>736.7</ele>
        <time>2026-07-09T09:25:05.000Z</time>
      </trkpt>
      <trkpt lat="45.81698" lon="1.87191">
        <ele>736.7</ele>
        <time>2026-07-09T09:25:06.000Z</time>
      </trkpt>
      <trkpt lat="45.81696" lon="1.87193">
        <ele>736.6</ele>
        <time>2026-07-09T09:25:07.000Z</time>
      </trkpt>
      <trkpt lat="45.81695" lon="1.87195">
        <ele>736.6</ele>
        <time>2026-07-09T09:25:08.000Z</time>
      </trkpt>
      <trkpt lat="45.81694" lon="1.87197">
        <ele>736</ele>
        <time>2026-07-09T09:25:09.000Z</time>
      </trkpt>
      <trkpt lat="45.81693" lon="1.87199">
        <ele>735.7</ele>
        <time>2026-07-09T09:25:10.000Z</time>
      </trkpt>
      <trkpt lat="45.81692" lon="1.87201">
        <ele>735.5</ele>
        <time>2026-07-09T09:25:11.000Z</time>
      </trkpt>
      <trkpt lat="45.81691" lon="1.87203">
        <ele>736.1</ele>
        <time>2026-07-09T09:25:12.000Z</time>
      </trkpt>
      <trkpt lat="45.8169" lon="1.87205">
        <ele>735.5</ele>
        <time>2026-07-09T09:25:13.000Z</time>
      </trkpt>
      <trkpt lat="45.81689" lon="1.87207">
        <ele>734.6</ele>
        <time>2026-07-09T09:25:14.000Z</time>
      </trkpt>
      <trkpt lat="45.81688" lon="1.87208">
        <ele>734.5</ele>
        <time>2026-07-09T09:25:15.000Z</time>
      </trkpt>
      <trkpt lat="45.81686" lon="1.8721">
        <ele>733.8</ele>
        <time>2026-07-09T09:25:16.000Z</time>
      </trkpt>
      <trkpt lat="45.81685" lon="1.87211">
        <ele>733.3</ele>
        <time>2026-07-09T09:25:17.000Z</time>
      </trkpt>
      <trkpt lat="45.81684" lon="1.87214">
        <ele>733.1</ele>
        <time>2026-07-09T09:25:18.000Z</time>
      </trkpt>
      <trkpt lat="45.81682" lon="1.87215">
        <ele>733.3</ele>
        <time>2026-07-09T09:25:19.000Z</time>
      </trkpt>
      <trkpt lat="45.81681" lon="1.87217">
        <ele>733.6</ele>
        <time>2026-07-09T09:25:20.000Z</time>
      </trkpt>
      <trkpt lat="45.8168" lon="1.87219">
        <ele>734.2</ele>
        <time>2026-07-09T09:25:21.000Z</time>
      </trkpt>
      <trkpt lat="45.81679" lon="1.87219">
        <ele>734.5</ele>
        <time>2026-07-09T09:25:22.000Z</time>
      </trkpt>
      <trkpt lat="45.81679" lon="1.87219">
        <ele>734.6</ele>
        <time>2026-07-09T09:25:23.000Z</time>
      </trkpt>
      <trkpt lat="45.81679" lon="1.87219">
        <ele>734.6</ele>
        <time>2026-07-09T09:25:24.000Z</time>
      </trkpt>
      <trkpt lat="45.81679" lon="1.87219">
        <ele>734.6</ele>
        <time>2026-07-09T09:25:25.000Z</time>
      </trkpt>
      <trkpt lat="45.81679" lon="1.87219">
        <ele>734.3</ele>
        <time>2026-07-09T09:25:26.000Z</time>
      </trkpt>
      <trkpt lat="45.81679" lon="1.87219">
        <ele>734.3</ele>
        <time>2026-07-09T09:25:27.000Z</time>
      </trkpt>
      <trkpt lat="45.81679" lon="1.8722">
        <ele>734.3</ele>
        <time>2026-07-09T09:25:28.000Z</time>
      </trkpt>
      <trkpt lat="45.81679" lon="1.87219">
        <ele>734.6</ele>
        <time>2026-07-09T09:25:29.000Z</time>
      </trkpt>
      <trkpt lat="45.81678" lon="1.8722">
        <ele>734.5</ele>
        <time>2026-07-09T09:25:30.000Z</time>
      </trkpt>
      <trkpt lat="45.81677" lon="1.8722">
        <ele>734.4</ele>
        <time>2026-07-09T09:25:31.000Z</time>
      </trkpt>
      <trkpt lat="45.81675" lon="1.8722">
        <ele>734.7</ele>
        <time>2026-07-09T09:25:32.000Z</time>
      </trkpt>
      <trkpt lat="45.81674" lon="1.87221">
        <ele>734.7</ele>
        <time>2026-07-09T09:25:33.000Z</time>
      </trkpt>
      <trkpt lat="45.81672" lon="1.87221">
        <ele>734.3</ele>
        <time>2026-07-09T09:25:34.000Z</time>
      </trkpt>
      <trkpt lat="45.81671" lon="1.87222">
        <ele>734.7</ele>
        <time>2026-07-09T09:25:35.000Z</time>
      </trkpt>
      <trkpt lat="45.8167" lon="1.87223">
        <ele>734.8</ele>
        <time>2026-07-09T09:25:36.000Z</time>
      </trkpt>
      <trkpt lat="45.81669" lon="1.87224">
        <ele>734.6</ele>
        <time>2026-07-09T09:25:37.000Z</time>
      </trkpt>
      <trkpt lat="45.81668" lon="1.87226">
        <ele>734.4</ele>
        <time>2026-07-09T09:25:38.000Z</time>
      </trkpt>
      <trkpt lat="45.81667" lon="1.87227">
        <ele>734.3</ele>
        <time>2026-07-09T09:25:39.000Z</time>
      </trkpt>
      <trkpt lat="45.81665" lon="1.87228">
        <ele>734.1</ele>
        <time>2026-07-09T09:25:40.000Z</time>
      </trkpt>
      <trkpt lat="45.81664" lon="1.8723">
        <ele>734.3</ele>
        <time>2026-07-09T09:25:41.000Z</time>
      </trkpt>
      <trkpt lat="45.81663" lon="1.87231">
        <ele>734.1</ele>
        <time>2026-07-09T09:25:42.000Z</time>
      </trkpt>
      <trkpt lat="45.81661" lon="1.87232">
        <ele>733.9</ele>
        <time>2026-07-09T09:25:43.000Z</time>
      </trkpt>
      <trkpt lat="45.8166" lon="1.87234">
        <ele>733.1</ele>
        <time>2026-07-09T09:25:44.000Z</time>
      </trkpt>
      <trkpt lat="45.81659" lon="1.87234">
        <ele>733</ele>
        <time>2026-07-09T09:25:45.000Z</time>
      </trkpt>
      <trkpt lat="45.81657" lon="1.87236">
        <ele>733.2</ele>
        <time>2026-07-09T09:25:46.000Z</time>
      </trkpt>
      <trkpt lat="45.81656" lon="1.87237">
        <ele>733.3</ele>
        <time>2026-07-09T09:25:47.000Z</time>
      </trkpt>
      <trkpt lat="45.81654" lon="1.87238">
        <ele>733.1</ele>
        <time>2026-07-09T09:25:48.000Z</time>
      </trkpt>
      <trkpt lat="45.81652" lon="1.87238">
        <ele>732.6</ele>
        <time>2026-07-09T09:25:49.000Z</time>
      </trkpt>
      <trkpt lat="45.81651" lon="1.87239">
        <ele>732</ele>
        <time>2026-07-09T09:25:50.000Z</time>
      </trkpt>
      <trkpt lat="45.8165" lon="1.87241">
        <ele>731.8</ele>
        <time>2026-07-09T09:25:51.000Z</time>
      </trkpt>
      <trkpt lat="45.81648" lon="1.87242">
        <ele>732</ele>
        <time>2026-07-09T09:25:52.000Z</time>
      </trkpt>
      <trkpt lat="45.81647" lon="1.87243">
        <ele>732.1</ele>
        <time>2026-07-09T09:25:53.000Z</time>
      </trkpt>
      <trkpt lat="45.81645" lon="1.87243">
        <ele>732.7</ele>
        <time>2026-07-09T09:25:54.000Z</time>
      </trkpt>
      <trkpt lat="45.81644" lon="1.87244">
        <ele>732.4</ele>
        <time>2026-07-09T09:25:55.000Z</time>
      </trkpt>
      <trkpt lat="45.81643" lon="1.87245">
        <ele>732</ele>
        <time>2026-07-09T09:25:56.000Z</time>
      </trkpt>
      <trkpt lat="45.81642" lon="1.87246">
        <ele>733.2</ele>
        <time>2026-07-09T09:25:57.000Z</time>
      </trkpt>
      <trkpt lat="45.8164" lon="1.87247">
        <ele>733.1</ele>
        <time>2026-07-09T09:25:58.000Z</time>
      </trkpt>
      <trkpt lat="45.81639" lon="1.87249">
        <ele>733.3</ele>
        <time>2026-07-09T09:25:59.000Z</time>
      </trkpt>
      <trkpt lat="45.81638" lon="1.87249">
        <ele>733.1</ele>
        <time>2026-07-09T09:26:00.000Z</time>
      </trkpt>
      <trkpt lat="45.81637" lon="1.87251">
        <ele>733.1</ele>
        <time>2026-07-09T09:26:01.000Z</time>
      </trkpt>
      <trkpt lat="45.81635" lon="1.87252">
        <ele>733.4</ele>
        <time>2026-07-09T09:26:02.000Z</time>
      </trkpt>
      <trkpt lat="45.81634" lon="1.87253">
        <ele>732.6</ele>
        <time>2026-07-09T09:26:03.000Z</time>
      </trkpt>
      <trkpt lat="45.81632" lon="1.87254">
        <ele>732.5</ele>
        <time>2026-07-09T09:26:04.000Z</time>
      </trkpt>
      <trkpt lat="45.81631" lon="1.87255">
        <ele>732.5</ele>
        <time>2026-07-09T09:26:05.000Z</time>
      </trkpt>
      <trkpt lat="45.81629" lon="1.87256">
        <ele>733</ele>
        <time>2026-07-09T09:26:06.000Z</time>
      </trkpt>
      <trkpt lat="45.81628" lon="1.87257">
        <ele>732.5</ele>
        <time>2026-07-09T09:26:07.000Z</time>
      </trkpt>
      <trkpt lat="45.81626" lon="1.87257">
        <ele>731.9</ele>
        <time>2026-07-09T09:26:08.000Z</time>
      </trkpt>
      <trkpt lat="45.81625" lon="1.87258">
        <ele>732.2</ele>
        <time>2026-07-09T09:26:09.000Z</time>
      </trkpt>
      <trkpt lat="45.81623" lon="1.87259">
        <ele>733</ele>
        <time>2026-07-09T09:26:10.000Z</time>
      </trkpt>
      <trkpt lat="45.81622" lon="1.87261">
        <ele>733.3</ele>
        <time>2026-07-09T09:26:11.000Z</time>
      </trkpt>
      <trkpt lat="45.8162" lon="1.87262">
        <ele>733.7</ele>
        <time>2026-07-09T09:26:12.000Z</time>
      </trkpt>
      <trkpt lat="45.81619" lon="1.87263">
        <ele>734.4</ele>
        <time>2026-07-09T09:26:13.000Z</time>
      </trkpt>
      <trkpt lat="45.81617" lon="1.87263">
        <ele>734.3</ele>
        <time>2026-07-09T09:26:14.000Z</time>
      </trkpt>
      <trkpt lat="45.81616" lon="1.87263">
        <ele>734</ele>
        <time>2026-07-09T09:26:15.000Z</time>
      </trkpt>
      <trkpt lat="45.81614" lon="1.87264">
        <ele>734.2</ele>
        <time>2026-07-09T09:26:16.000Z</time>
      </trkpt>
      <trkpt lat="45.81613" lon="1.87265">
        <ele>734.2</ele>
        <time>2026-07-09T09:26:17.000Z</time>
      </trkpt>
      <trkpt lat="45.81611" lon="1.87266">
        <ele>733.8</ele>
        <time>2026-07-09T09:26:18.000Z</time>
      </trkpt>
      <trkpt lat="45.81609" lon="1.87266">
        <ele>733.8</ele>
        <time>2026-07-09T09:26:19.000Z</time>
      </trkpt>
      <trkpt lat="45.81608" lon="1.87267">
        <ele>734</ele>
        <time>2026-07-09T09:26:20.000Z</time>
      </trkpt>
      <trkpt lat="45.81606" lon="1.87268">
        <ele>734</ele>
        <time>2026-07-09T09:26:21.000Z</time>
      </trkpt>
      <trkpt lat="45.81605" lon="1.87269">
        <ele>734.3</ele>
        <time>2026-07-09T09:26:22.000Z</time>
      </trkpt>
      <trkpt lat="45.81603" lon="1.87271">
        <ele>733.8</ele>
        <time>2026-07-09T09:26:23.000Z</time>
      </trkpt>
      <trkpt lat="45.81602" lon="1.87272">
        <ele>733.6</ele>
        <time>2026-07-09T09:26:24.000Z</time>
      </trkpt>
      <trkpt lat="45.81601" lon="1.87272">
        <ele>733.9</ele>
        <time>2026-07-09T09:26:25.000Z</time>
      </trkpt>
      <trkpt lat="45.81599" lon="1.87273">
        <ele>733.8</ele>
        <time>2026-07-09T09:26:26.000Z</time>
      </trkpt>
      <trkpt lat="45.81597" lon="1.87273">
        <ele>734.5</ele>
        <time>2026-07-09T09:26:27.000Z</time>
      </trkpt>
      <trkpt lat="45.81596" lon="1.87274">
        <ele>735.8</ele>
        <time>2026-07-09T09:26:28.000Z</time>
      </trkpt>
      <trkpt lat="45.81595" lon="1.87275">
        <ele>736.9</ele>
        <time>2026-07-09T09:26:29.000Z</time>
      </trkpt>
      <trkpt lat="45.81593" lon="1.87277">
        <ele>737.3</ele>
        <time>2026-07-09T09:26:30.000Z</time>
      </trkpt>
      <trkpt lat="45.81592" lon="1.87278">
        <ele>738.6</ele>
        <time>2026-07-09T09:26:31.000Z</time>
      </trkpt>
      <trkpt lat="45.81592" lon="1.87281">
        <ele>738.6</ele>
        <time>2026-07-09T09:26:32.000Z</time>
      </trkpt>
      <trkpt lat="45.81591" lon="1.87283">
        <ele>738.3</ele>
        <time>2026-07-09T09:26:33.000Z</time>
      </trkpt>
      <trkpt lat="45.8159" lon="1.87284">
        <ele>737.6</ele>
        <time>2026-07-09T09:26:34.000Z</time>
      </trkpt>
      <trkpt lat="45.81589" lon="1.87285">
        <ele>737.4</ele>
        <time>2026-07-09T09:26:35.000Z</time>
      </trkpt>
      <trkpt lat="45.81587" lon="1.87286">
        <ele>737.1</ele>
        <time>2026-07-09T09:26:36.000Z</time>
      </trkpt>
      <trkpt lat="45.81586" lon="1.87287">
        <ele>736</ele>
        <time>2026-07-09T09:26:37.000Z</time>
      </trkpt>
      <trkpt lat="45.81584" lon="1.87287">
        <ele>736.1</ele>
        <time>2026-07-09T09:26:38.000Z</time>
      </trkpt>
      <trkpt lat="45.81583" lon="1.87289">
        <ele>736.7</ele>
        <time>2026-07-09T09:26:39.000Z</time>
      </trkpt>
      <trkpt lat="45.81582" lon="1.8729">
        <ele>736.4</ele>
        <time>2026-07-09T09:26:40.000Z</time>
      </trkpt>
      <trkpt lat="45.8158" lon="1.87291">
        <ele>737.7</ele>
        <time>2026-07-09T09:26:41.000Z</time>
      </trkpt>
      <trkpt lat="45.81579" lon="1.87292">
        <ele>737.6</ele>
        <time>2026-07-09T09:26:42.000Z</time>
      </trkpt>
      <trkpt lat="45.81578" lon="1.87294">
        <ele>737.6</ele>
        <time>2026-07-09T09:26:43.000Z</time>
      </trkpt>
      <trkpt lat="45.81577" lon="1.87296">
        <ele>738.5</ele>
        <time>2026-07-09T09:26:44.000Z</time>
      </trkpt>
      <trkpt lat="45.81576" lon="1.87298">
        <ele>739</ele>
        <time>2026-07-09T09:26:45.000Z</time>
      </trkpt>
      <trkpt lat="45.81574" lon="1.873">
        <ele>739.3</ele>
        <time>2026-07-09T09:26:46.000Z</time>
      </trkpt>
      <trkpt lat="45.81573" lon="1.87301">
        <ele>739.5</ele>
        <time>2026-07-09T09:26:47.000Z</time>
      </trkpt>
      <trkpt lat="45.81571" lon="1.87303">
        <ele>739.7</ele>
        <time>2026-07-09T09:26:48.000Z</time>
      </trkpt>
      <trkpt lat="45.8157" lon="1.87305">
        <ele>740.2</ele>
        <time>2026-07-09T09:26:49.000Z</time>
      </trkpt>
      <trkpt lat="45.81569" lon="1.87307">
        <ele>740.2</ele>
        <time>2026-07-09T09:26:50.000Z</time>
      </trkpt>
      <trkpt lat="45.81567" lon="1.87308">
        <ele>740.1</ele>
        <time>2026-07-09T09:26:51.000Z</time>
      </trkpt>
      <trkpt lat="45.81566" lon="1.8731">
        <ele>739.8</ele>
        <time>2026-07-09T09:26:52.000Z</time>
      </trkpt>
      <trkpt lat="45.81565" lon="1.87312">
        <ele>740</ele>
        <time>2026-07-09T09:26:53.000Z</time>
      </trkpt>
      <trkpt lat="45.81564" lon="1.87313">
        <ele>739</ele>
        <time>2026-07-09T09:26:54.000Z</time>
      </trkpt>
      <trkpt lat="45.81563" lon="1.87315">
        <ele>739.6</ele>
        <time>2026-07-09T09:26:55.000Z</time>
      </trkpt>
      <trkpt lat="45.81562" lon="1.87316">
        <ele>739.7</ele>
        <time>2026-07-09T09:26:56.000Z</time>
      </trkpt>
      <trkpt lat="45.8156" lon="1.87318">
        <ele>739.7</ele>
        <time>2026-07-09T09:26:57.000Z</time>
      </trkpt>
      <trkpt lat="45.81559" lon="1.87319">
        <ele>739.9</ele>
        <time>2026-07-09T09:26:58.000Z</time>
      </trkpt>
      <trkpt lat="45.81558" lon="1.87321">
        <ele>739.9</ele>
        <time>2026-07-09T09:26:59.000Z</time>
      </trkpt>
      <trkpt lat="45.81557" lon="1.87323">
        <ele>740</ele>
        <time>2026-07-09T09:27:00.000Z</time>
      </trkpt>
      <trkpt lat="45.81555" lon="1.87324">
        <ele>740.1</ele>
        <time>2026-07-09T09:27:01.000Z</time>
      </trkpt>
      <trkpt lat="45.81554" lon="1.87326">
        <ele>740.5</ele>
        <time>2026-07-09T09:27:02.000Z</time>
      </trkpt>
      <trkpt lat="45.81553" lon="1.87328">
        <ele>740.6</ele>
        <time>2026-07-09T09:27:03.000Z</time>
      </trkpt>
      <trkpt lat="45.81551" lon="1.87328">
        <ele>740.5</ele>
        <time>2026-07-09T09:27:04.000Z</time>
      </trkpt>
      <trkpt lat="45.8155" lon="1.87329">
        <ele>740.3</ele>
        <time>2026-07-09T09:27:05.000Z</time>
      </trkpt>
      <trkpt lat="45.81548" lon="1.87328">
        <ele>740.9</ele>
        <time>2026-07-09T09:27:06.000Z</time>
      </trkpt>
      <trkpt lat="45.81547" lon="1.87329">
        <ele>741.6</ele>
        <time>2026-07-09T09:27:07.000Z</time>
      </trkpt>
      <trkpt lat="45.81545" lon="1.87328">
        <ele>742.8</ele>
        <time>2026-07-09T09:27:08.000Z</time>
      </trkpt>
      <trkpt lat="45.81543" lon="1.87329">
        <ele>742.2</ele>
        <time>2026-07-09T09:27:09.000Z</time>
      </trkpt>
      <trkpt lat="45.81542" lon="1.87331">
        <ele>742.6</ele>
        <time>2026-07-09T09:27:10.000Z</time>
      </trkpt>
      <trkpt lat="45.81542" lon="1.87333">
        <ele>742.9</ele>
        <time>2026-07-09T09:27:11.000Z</time>
      </trkpt>
      <trkpt lat="45.81541" lon="1.87334">
        <ele>743.1</ele>
        <time>2026-07-09T09:27:12.000Z</time>
      </trkpt>
      <trkpt lat="45.8154" lon="1.87336">
        <ele>742.9</ele>
        <time>2026-07-09T09:27:13.000Z</time>
      </trkpt>
      <trkpt lat="45.81539" lon="1.87338">
        <ele>743.1</ele>
        <time>2026-07-09T09:27:14.000Z</time>
      </trkpt>
      <trkpt lat="45.81538" lon="1.87339">
        <ele>743.3</ele>
        <time>2026-07-09T09:27:15.000Z</time>
      </trkpt>
      <trkpt lat="45.81537" lon="1.87341">
        <ele>743.3</ele>
        <time>2026-07-09T09:27:16.000Z</time>
      </trkpt>
      <trkpt lat="45.81535" lon="1.87342">
        <ele>743</ele>
        <time>2026-07-09T09:27:17.000Z</time>
      </trkpt>
      <trkpt lat="45.81534" lon="1.87344">
        <ele>743.3</ele>
        <time>2026-07-09T09:27:18.000Z</time>
      </trkpt>
      <trkpt lat="45.81533" lon="1.87346">
        <ele>742.6</ele>
        <time>2026-07-09T09:27:19.000Z</time>
      </trkpt>
      <trkpt lat="45.81532" lon="1.87348">
        <ele>742.8</ele>
        <time>2026-07-09T09:27:20.000Z</time>
      </trkpt>
      <trkpt lat="45.81531" lon="1.8735">
        <ele>742.7</ele>
        <time>2026-07-09T09:27:21.000Z</time>
      </trkpt>
      <trkpt lat="45.8153" lon="1.87352">
        <ele>743</ele>
        <time>2026-07-09T09:27:22.000Z</time>
      </trkpt>
      <trkpt lat="45.8153" lon="1.87355">
        <ele>742.9</ele>
        <time>2026-07-09T09:27:23.000Z</time>
      </trkpt>
      <trkpt lat="45.81531" lon="1.87359">
        <ele>742.2</ele>
        <time>2026-07-09T09:27:24.000Z</time>
      </trkpt>
      <trkpt lat="45.81529" lon="1.87363">
        <ele>742.5</ele>
        <time>2026-07-09T09:27:25.000Z</time>
      </trkpt>
      <trkpt lat="45.8153" lon="1.87365">
        <ele>742.8</ele>
        <time>2026-07-09T09:27:26.000Z</time>
      </trkpt>
      <trkpt lat="45.81528" lon="1.87367">
        <ele>742.8</ele>
        <time>2026-07-09T09:27:27.000Z</time>
      </trkpt>
      <trkpt lat="45.81527" lon="1.87369">
        <ele>741.7</ele>
        <time>2026-07-09T09:27:28.000Z</time>
      </trkpt>
      <trkpt lat="45.81526" lon="1.87371">
        <ele>742.9</ele>
        <time>2026-07-09T09:27:29.000Z</time>
      </trkpt>
      <trkpt lat="45.81525" lon="1.87373">
        <ele>744.5</ele>
        <time>2026-07-09T09:27:30.000Z</time>
      </trkpt>
      <trkpt lat="45.81524" lon="1.87375">
        <ele>743.9</ele>
        <time>2026-07-09T09:27:31.000Z</time>
      </trkpt>
      <trkpt lat="45.81523" lon="1.87376">
        <ele>743.5</ele>
        <time>2026-07-09T09:27:32.000Z</time>
      </trkpt>
      <trkpt lat="45.81522" lon="1.87378">
        <ele>743.2</ele>
        <time>2026-07-09T09:27:33.000Z</time>
      </trkpt>
      <trkpt lat="45.81521" lon="1.87379">
        <ele>742.9</ele>
        <time>2026-07-09T09:27:34.000Z</time>
      </trkpt>
      <trkpt lat="45.8152" lon="1.87381">
        <ele>743.6</ele>
        <time>2026-07-09T09:27:35.000Z</time>
      </trkpt>
      <trkpt lat="45.81519" lon="1.87383">
        <ele>743.4</ele>
        <time>2026-07-09T09:27:36.000Z</time>
      </trkpt>
      <trkpt lat="45.81518" lon="1.87385">
        <ele>743.6</ele>
        <time>2026-07-09T09:27:37.000Z</time>
      </trkpt>
      <trkpt lat="45.81517" lon="1.87387">
        <ele>744</ele>
        <time>2026-07-09T09:27:38.000Z</time>
      </trkpt>
      <trkpt lat="45.81516" lon="1.87389">
        <ele>743.9</ele>
        <time>2026-07-09T09:27:39.000Z</time>
      </trkpt>
      <trkpt lat="45.81515" lon="1.8739">
        <ele>743.7</ele>
        <time>2026-07-09T09:27:40.000Z</time>
      </trkpt>
      <trkpt lat="45.81514" lon="1.87392">
        <ele>744.2</ele>
        <time>2026-07-09T09:27:41.000Z</time>
      </trkpt>
      <trkpt lat="45.81514" lon="1.87394">
        <ele>744.1</ele>
        <time>2026-07-09T09:27:42.000Z</time>
      </trkpt>
      <trkpt lat="45.81513" lon="1.87395">
        <ele>743.4</ele>
        <time>2026-07-09T09:27:43.000Z</time>
      </trkpt>
      <trkpt lat="45.81512" lon="1.87397">
        <ele>743.6</ele>
        <time>2026-07-09T09:27:44.000Z</time>
      </trkpt>
      <trkpt lat="45.81512" lon="1.87399">
        <ele>743.6</ele>
        <time>2026-07-09T09:27:45.000Z</time>
      </trkpt>
      <trkpt lat="45.81511" lon="1.87401">
        <ele>743.6</ele>
        <time>2026-07-09T09:27:46.000Z</time>
      </trkpt>
      <trkpt lat="45.8151" lon="1.87403">
        <ele>743.3</ele>
        <time>2026-07-09T09:27:47.000Z</time>
      </trkpt>
      <trkpt lat="45.8151" lon="1.87405">
        <ele>742.6</ele>
        <time>2026-07-09T09:27:48.000Z</time>
      </trkpt>
      <trkpt lat="45.81507" lon="1.87405">
        <ele>743.9</ele>
        <time>2026-07-09T09:27:49.000Z</time>
      </trkpt>
      <trkpt lat="45.81505" lon="1.87406">
        <ele>743.6</ele>
        <time>2026-07-09T09:27:50.000Z</time>
      </trkpt>
      <trkpt lat="45.81506" lon="1.87409">
        <ele>742.4</ele>
        <time>2026-07-09T09:27:51.000Z</time>
      </trkpt>
      <trkpt lat="45.81506" lon="1.87411">
        <ele>742</ele>
        <time>2026-07-09T09:27:52.000Z</time>
      </trkpt>
      <trkpt lat="45.81506" lon="1.87413">
        <ele>742.2</ele>
        <time>2026-07-09T09:27:53.000Z</time>
      </trkpt>
      <trkpt lat="45.81505" lon="1.87415">
        <ele>742.7</ele>
        <time>2026-07-09T09:27:54.000Z</time>
      </trkpt>
      <trkpt lat="45.81504" lon="1.87416">
        <ele>742.7</ele>
        <time>2026-07-09T09:27:55.000Z</time>
      </trkpt>
      <trkpt lat="45.81504" lon="1.87418">
        <ele>742.7</ele>
        <time>2026-07-09T09:27:56.000Z</time>
      </trkpt>
      <trkpt lat="45.81503" lon="1.87419">
        <ele>742.8</ele>
        <time>2026-07-09T09:27:57.000Z</time>
      </trkpt>
      <trkpt lat="45.81502" lon="1.87419">
        <ele>742.6</ele>
        <time>2026-07-09T09:27:58.000Z</time>
      </trkpt>
      <trkpt lat="45.81501" lon="1.87419">
        <ele>742.5</ele>
        <time>2026-07-09T09:27:59.000Z</time>
      </trkpt>
      <trkpt lat="45.815" lon="1.87419">
        <ele>742.2</ele>
        <time>2026-07-09T09:28:00.000Z</time>
      </trkpt>
      <trkpt lat="45.81499" lon="1.8742">
        <ele>742.3</ele>
        <time>2026-07-09T09:28:01.000Z</time>
      </trkpt>
      <trkpt lat="45.81498" lon="1.8742">
        <ele>741.8</ele>
        <time>2026-07-09T09:28:02.000Z</time>
      </trkpt>
      <trkpt lat="45.81497" lon="1.87419">
        <ele>741</ele>
        <time>2026-07-09T09:28:03.000Z</time>
      </trkpt>
      <trkpt lat="45.81495" lon="1.87419">
        <ele>740.4</ele>
        <time>2026-07-09T09:28:04.000Z</time>
      </trkpt>
      <trkpt lat="45.81494" lon="1.87419">
        <ele>740.7</ele>
        <time>2026-07-09T09:28:05.000Z</time>
      </trkpt>
      <trkpt lat="45.81493" lon="1.87419">
        <ele>741.2</ele>
        <time>2026-07-09T09:28:06.000Z</time>
      </trkpt>
      <trkpt lat="45.81492" lon="1.87418">
        <ele>742.8</ele>
        <time>2026-07-09T09:28:07.000Z</time>
      </trkpt>
      <trkpt lat="45.81491" lon="1.87418">
        <ele>742</ele>
        <time>2026-07-09T09:28:08.000Z</time>
      </trkpt>
      <trkpt lat="45.8149" lon="1.87419">
        <ele>742.1</ele>
        <time>2026-07-09T09:28:09.000Z</time>
      </trkpt>
      <trkpt lat="45.81488" lon="1.87419">
        <ele>741.6</ele>
        <time>2026-07-09T09:28:10.000Z</time>
      </trkpt>
      <trkpt lat="45.81487" lon="1.87421">
        <ele>741.5</ele>
        <time>2026-07-09T09:28:11.000Z</time>
      </trkpt>
      <trkpt lat="45.81486" lon="1.87422">
        <ele>741.2</ele>
        <time>2026-07-09T09:28:12.000Z</time>
      </trkpt>
      <trkpt lat="45.81486" lon="1.87422">
        <ele>741.4</ele>
        <time>2026-07-09T09:28:13.000Z</time>
      </trkpt>
      <trkpt lat="45.81486" lon="1.87424">
        <ele>741.4</ele>
        <time>2026-07-09T09:28:14.000Z</time>
      </trkpt>
      <trkpt lat="45.81486" lon="1.87425">
        <ele>741.4</ele>
        <time>2026-07-09T09:28:15.000Z</time>
      </trkpt>
      <trkpt lat="45.81486" lon="1.87425">
        <ele>741.4</ele>
        <time>2026-07-09T09:28:16.000Z</time>
      </trkpt>
      <trkpt lat="45.81487" lon="1.87425">
        <ele>741.4</ele>
        <time>2026-07-09T09:28:17.000Z</time>
      </trkpt>
      <trkpt lat="45.81487" lon="1.87425">
        <ele>741.4</ele>
        <time>2026-07-09T09:28:18.000Z</time>
      </trkpt>
      <trkpt lat="45.81487" lon="1.87425">
        <ele>741.4</ele>
        <time>2026-07-09T09:28:19.000Z</time>
      </trkpt>
      <trkpt lat="45.81487" lon="1.87425">
        <ele>741.3</ele>
        <time>2026-07-09T09:28:20.000Z</time>
      </trkpt>
      <trkpt lat="45.81486" lon="1.87425">
        <ele>741.2</ele>
        <time>2026-07-09T09:28:21.000Z</time>
      </trkpt>
      <trkpt lat="45.81486" lon="1.87424">
        <ele>741.2</ele>
        <time>2026-07-09T09:28:22.000Z</time>
      </trkpt>
      <trkpt lat="45.81486" lon="1.87424">
        <ele>741.2</ele>
        <time>2026-07-09T09:28:23.000Z</time>
      </trkpt>
      <trkpt lat="45.81486" lon="1.87424">
        <ele>740.9</ele>
        <time>2026-07-09T09:28:24.000Z</time>
      </trkpt>
      <trkpt lat="45.81488" lon="1.87423">
        <ele>739.2</ele>
        <time>2026-07-09T09:28:25.000Z</time>
      </trkpt>
      <trkpt lat="45.81489" lon="1.87423">
        <ele>739.3</ele>
        <time>2026-07-09T09:28:26.000Z</time>
      </trkpt>
      <trkpt lat="45.8149" lon="1.87423">
        <ele>738.4</ele>
        <time>2026-07-09T09:28:27.000Z</time>
      </trkpt>
      <trkpt lat="45.8149" lon="1.87423">
        <ele>737.8</ele>
        <time>2026-07-09T09:28:28.000Z</time>
      </trkpt>
      <trkpt lat="45.81484" lon="1.87422">
        <ele>738.2</ele>
        <time>2026-07-09T09:28:29.000Z</time>
      </trkpt>
      <trkpt lat="45.81483" lon="1.87421">
        <ele>737.7</ele>
        <time>2026-07-09T09:28:30.000Z</time>
      </trkpt>
      <trkpt lat="45.81481" lon="1.8742">
        <ele>737.5</ele>
        <time>2026-07-09T09:28:31.000Z</time>
      </trkpt>
      <trkpt lat="45.81481" lon="1.8742">
        <ele>736.4</ele>
        <time>2026-07-09T09:28:32.000Z</time>
      </trkpt>
      <trkpt lat="45.8148" lon="1.8742">
        <ele>736.8</ele>
        <time>2026-07-09T09:28:33.000Z</time>
      </trkpt>
      <trkpt lat="45.81479" lon="1.87419">
        <ele>736.9</ele>
        <time>2026-07-09T09:28:34.000Z</time>
      </trkpt>
      <trkpt lat="45.81479" lon="1.87418">
        <ele>736.5</ele>
        <time>2026-07-09T09:28:35.000Z</time>
      </trkpt>
      <trkpt lat="45.81478" lon="1.87417">
        <ele>735.9</ele>
        <time>2026-07-09T09:28:36.000Z</time>
      </trkpt>
      <trkpt lat="45.81477" lon="1.87416">
        <ele>734.7</ele>
        <time>2026-07-09T09:28:37.000Z</time>
      </trkpt>
      <trkpt lat="45.81477" lon="1.87416">
        <ele>734.7</ele>
        <time>2026-07-09T09:28:38.000Z</time>
      </trkpt>
      <trkpt lat="45.81475" lon="1.87416">
        <ele>734.4</ele>
        <time>2026-07-09T09:28:39.000Z</time>
      </trkpt>
      <trkpt lat="45.81474" lon="1.87417">
        <ele>734.2</ele>
        <time>2026-07-09T09:28:40.000Z</time>
      </trkpt>
      <trkpt lat="45.81472" lon="1.87417">
        <ele>733.1</ele>
        <time>2026-07-09T09:28:41.000Z</time>
      </trkpt>
      <trkpt lat="45.81471" lon="1.87418">
        <ele>732.9</ele>
        <time>2026-07-09T09:28:42.000Z</time>
      </trkpt>
      <trkpt lat="45.8147" lon="1.87419">
        <ele>733.3</ele>
        <time>2026-07-09T09:28:43.000Z</time>
      </trkpt>
      <trkpt lat="45.81468" lon="1.8742">
        <ele>733.5</ele>
        <time>2026-07-09T09:28:44.000Z</time>
      </trkpt>
      <trkpt lat="45.81468" lon="1.87421">
        <ele>733.9</ele>
        <time>2026-07-09T09:28:45.000Z</time>
      </trkpt>
      <trkpt lat="45.81466" lon="1.87423">
        <ele>733.6</ele>
        <time>2026-07-09T09:28:46.000Z</time>
      </trkpt>
      <trkpt lat="45.81465" lon="1.87424">
        <ele>733.8</ele>
        <time>2026-07-09T09:28:47.000Z</time>
      </trkpt>
      <trkpt lat="45.81463" lon="1.87425">
        <ele>736.1</ele>
        <time>2026-07-09T09:28:48.000Z</time>
      </trkpt>
      <trkpt lat="45.81461" lon="1.87428">
        <ele>736.1</ele>
        <time>2026-07-09T09:28:49.000Z</time>
      </trkpt>
      <trkpt lat="45.81459" lon="1.8743">
        <ele>736</ele>
        <time>2026-07-09T09:28:50.000Z</time>
      </trkpt>
      <trkpt lat="45.81458" lon="1.87432">
        <ele>736.2</ele>
        <time>2026-07-09T09:28:51.000Z</time>
      </trkpt>
      <trkpt lat="45.81457" lon="1.87434">
        <ele>736</ele>
        <time>2026-07-09T09:28:52.000Z</time>
      </trkpt>
      <trkpt lat="45.81455" lon="1.87436">
        <ele>736.1</ele>
        <time>2026-07-09T09:28:53.000Z</time>
      </trkpt>
      <trkpt lat="45.81455" lon="1.87437">
        <ele>736.5</ele>
        <time>2026-07-09T09:28:54.000Z</time>
      </trkpt>
      <trkpt lat="45.81454" lon="1.87439">
        <ele>736.1</ele>
        <time>2026-07-09T09:28:55.000Z</time>
      </trkpt>
      <trkpt lat="45.81453" lon="1.87441">
        <ele>735.9</ele>
        <time>2026-07-09T09:28:56.000Z</time>
      </trkpt>
      <trkpt lat="45.81451" lon="1.87444">
        <ele>736</ele>
        <time>2026-07-09T09:28:57.000Z</time>
      </trkpt>
      <trkpt lat="45.81449" lon="1.87446">
        <ele>736</ele>
        <time>2026-07-09T09:28:58.000Z</time>
      </trkpt>
      <trkpt lat="45.81448" lon="1.87448">
        <ele>736.1</ele>
        <time>2026-07-09T09:28:59.000Z</time>
      </trkpt>
      <trkpt lat="45.81446" lon="1.8745">
        <ele>738.9</ele>
        <time>2026-07-09T09:29:00.000Z</time>
      </trkpt>
      <trkpt lat="45.81445" lon="1.87452">
        <ele>739.3</ele>
        <time>2026-07-09T09:29:01.000Z</time>
      </trkpt>
      <trkpt lat="45.81444" lon="1.87454">
        <ele>738.9</ele>
        <time>2026-07-09T09:29:02.000Z</time>
      </trkpt>
      <trkpt lat="45.81444" lon="1.87456">
        <ele>738.6</ele>
        <time>2026-07-09T09:29:03.000Z</time>
      </trkpt>
      <trkpt lat="45.81443" lon="1.87458">
        <ele>738.1</ele>
        <time>2026-07-09T09:29:04.000Z</time>
      </trkpt>
      <trkpt lat="45.81442" lon="1.87459">
        <ele>738</ele>
        <time>2026-07-09T09:29:05.000Z</time>
      </trkpt>
      <trkpt lat="45.81441" lon="1.8746">
        <ele>737.2</ele>
        <time>2026-07-09T09:29:06.000Z</time>
      </trkpt>
      <trkpt lat="45.8144" lon="1.87461">
        <ele>735.4</ele>
        <time>2026-07-09T09:29:07.000Z</time>
      </trkpt>
      <trkpt lat="45.8144" lon="1.87464">
        <ele>734.8</ele>
        <time>2026-07-09T09:29:08.000Z</time>
      </trkpt>
      <trkpt lat="45.8144" lon="1.87466">
        <ele>735.9</ele>
        <time>2026-07-09T09:29:09.000Z</time>
      </trkpt>
      <trkpt lat="45.81439" lon="1.87468">
        <ele>736.2</ele>
        <time>2026-07-09T09:29:10.000Z</time>
      </trkpt>
      <trkpt lat="45.81437" lon="1.87469">
        <ele>735.6</ele>
        <time>2026-07-09T09:29:11.000Z</time>
      </trkpt>
      <trkpt lat="45.81436" lon="1.8747">
        <ele>735</ele>
        <time>2026-07-09T09:29:12.000Z</time>
      </trkpt>
      <trkpt lat="45.81434" lon="1.87472">
        <ele>735.8</ele>
        <time>2026-07-09T09:29:13.000Z</time>
      </trkpt>
      <trkpt lat="45.81433" lon="1.87474">
        <ele>736.3</ele>
        <time>2026-07-09T09:29:14.000Z</time>
      </trkpt>
      <trkpt lat="45.81432" lon="1.87476">
        <ele>735.6</ele>
        <time>2026-07-09T09:29:15.000Z</time>
      </trkpt>
      <trkpt lat="45.81431" lon="1.87477">
        <ele>734.9</ele>
        <time>2026-07-09T09:29:16.000Z</time>
      </trkpt>
      <trkpt lat="45.8143" lon="1.87479">
        <ele>733.9</ele>
        <time>2026-07-09T09:29:17.000Z</time>
      </trkpt>
      <trkpt lat="45.8143" lon="1.8748">
        <ele>733.7</ele>
        <time>2026-07-09T09:29:18.000Z</time>
      </trkpt>
      <trkpt lat="45.81429" lon="1.87482">
        <ele>733.8</ele>
        <time>2026-07-09T09:29:19.000Z</time>
      </trkpt>
      <trkpt lat="45.81428" lon="1.87483">
        <ele>733.4</ele>
        <time>2026-07-09T09:29:20.000Z</time>
      </trkpt>
      <trkpt lat="45.81427" lon="1.87486">
        <ele>733.9</ele>
        <time>2026-07-09T09:29:21.000Z</time>
      </trkpt>
      <trkpt lat="45.81425" lon="1.87487">
        <ele>733.8</ele>
        <time>2026-07-09T09:29:22.000Z</time>
      </trkpt>
      <trkpt lat="45.81425" lon="1.87488">
        <ele>732.7</ele>
        <time>2026-07-09T09:29:23.000Z</time>
      </trkpt>
      <trkpt lat="45.81425" lon="1.8749">
        <ele>732.4</ele>
        <time>2026-07-09T09:29:24.000Z</time>
      </trkpt>
      <trkpt lat="45.81424" lon="1.87492">
        <ele>731.7</ele>
        <time>2026-07-09T09:29:25.000Z</time>
      </trkpt>
      <trkpt lat="45.81424" lon="1.87494">
        <ele>730.8</ele>
        <time>2026-07-09T09:29:26.000Z</time>
      </trkpt>
      <trkpt lat="45.81423" lon="1.87496">
        <ele>729.3</ele>
        <time>2026-07-09T09:29:27.000Z</time>
      </trkpt>
      <trkpt lat="45.81422" lon="1.87498">
        <ele>728.7</ele>
        <time>2026-07-09T09:29:28.000Z</time>
      </trkpt>
      <trkpt lat="45.81421" lon="1.875">
        <ele>728.7</ele>
        <time>2026-07-09T09:29:29.000Z</time>
      </trkpt>
      <trkpt lat="45.81421" lon="1.87501">
        <ele>728.3</ele>
        <time>2026-07-09T09:29:30.000Z</time>
      </trkpt>
      <trkpt lat="45.8142" lon="1.87503">
        <ele>728.1</ele>
        <time>2026-07-09T09:29:31.000Z</time>
      </trkpt>
      <trkpt lat="45.81419" lon="1.87505">
        <ele>727.6</ele>
        <time>2026-07-09T09:29:32.000Z</time>
      </trkpt>
      <trkpt lat="45.81418" lon="1.87506">
        <ele>726.2</ele>
        <time>2026-07-09T09:29:33.000Z</time>
      </trkpt>
      <trkpt lat="45.81417" lon="1.87509">
        <ele>725.6</ele>
        <time>2026-07-09T09:29:34.000Z</time>
      </trkpt>
      <trkpt lat="45.81417" lon="1.87511">
        <ele>725.4</ele>
        <time>2026-07-09T09:29:35.000Z</time>
      </trkpt>
      <trkpt lat="45.81415" lon="1.87512">
        <ele>725.1</ele>
        <time>2026-07-09T09:29:36.000Z</time>
      </trkpt>
      <trkpt lat="45.81414" lon="1.87513">
        <ele>725.2</ele>
        <time>2026-07-09T09:29:37.000Z</time>
      </trkpt>
      <trkpt lat="45.81413" lon="1.87515">
        <ele>724.8</ele>
        <time>2026-07-09T09:29:38.000Z</time>
      </trkpt>
      <trkpt lat="45.81412" lon="1.87517">
        <ele>724.7</ele>
        <time>2026-07-09T09:29:39.000Z</time>
      </trkpt>
      <trkpt lat="45.81411" lon="1.87518">
        <ele>725.3</ele>
        <time>2026-07-09T09:29:40.000Z</time>
      </trkpt>
      <trkpt lat="45.81409" lon="1.8752">
        <ele>725.7</ele>
        <time>2026-07-09T09:29:41.000Z</time>
      </trkpt>
      <trkpt lat="45.81408" lon="1.87521">
        <ele>725.6</ele>
        <time>2026-07-09T09:29:42.000Z</time>
      </trkpt>
      <trkpt lat="45.81407" lon="1.87523">
        <ele>724.9</ele>
        <time>2026-07-09T09:29:43.000Z</time>
      </trkpt>
      <trkpt lat="45.81406" lon="1.87524">
        <ele>725.2</ele>
        <time>2026-07-09T09:29:44.000Z</time>
      </trkpt>
      <trkpt lat="45.81405" lon="1.87526">
        <ele>725.2</ele>
        <time>2026-07-09T09:29:45.000Z</time>
      </trkpt>
      <trkpt lat="45.81404" lon="1.87527">
        <ele>726.3</ele>
        <time>2026-07-09T09:29:46.000Z</time>
      </trkpt>
      <trkpt lat="45.81402" lon="1.87528">
        <ele>725.8</ele>
        <time>2026-07-09T09:29:47.000Z</time>
      </trkpt>
      <trkpt lat="45.81401" lon="1.8753">
        <ele>725.6</ele>
        <time>2026-07-09T09:29:48.000Z</time>
      </trkpt>
      <trkpt lat="45.81401" lon="1.87531">
        <ele>725.4</ele>
        <time>2026-07-09T09:29:49.000Z</time>
      </trkpt>
      <trkpt lat="45.81399" lon="1.87533">
        <ele>726.8</ele>
        <time>2026-07-09T09:29:50.000Z</time>
      </trkpt>
      <trkpt lat="45.81399" lon="1.87535">
        <ele>726.5</ele>
        <time>2026-07-09T09:29:51.000Z</time>
      </trkpt>
      <trkpt lat="45.81398" lon="1.87537">
        <ele>726.2</ele>
        <time>2026-07-09T09:29:52.000Z</time>
      </trkpt>
      <trkpt lat="45.81398" lon="1.87539">
        <ele>725.6</ele>
        <time>2026-07-09T09:29:53.000Z</time>
      </trkpt>
      <trkpt lat="45.81397" lon="1.87541">
        <ele>725.4</ele>
        <time>2026-07-09T09:29:54.000Z</time>
      </trkpt>
      <trkpt lat="45.81397" lon="1.87542">
        <ele>725.1</ele>
        <time>2026-07-09T09:29:55.000Z</time>
      </trkpt>
      <trkpt lat="45.81397" lon="1.87545">
        <ele>724.7</ele>
        <time>2026-07-09T09:29:56.000Z</time>
      </trkpt>
      <trkpt lat="45.81397" lon="1.87547">
        <ele>724.3</ele>
        <time>2026-07-09T09:29:57.000Z</time>
      </trkpt>
      <trkpt lat="45.81397" lon="1.87548">
        <ele>724.3</ele>
        <time>2026-07-09T09:29:58.000Z</time>
      </trkpt>
      <trkpt lat="45.81396" lon="1.8755">
        <ele>724.7</ele>
        <time>2026-07-09T09:29:59.000Z</time>
      </trkpt>
      <trkpt lat="45.81396" lon="1.87552">
        <ele>724.5</ele>
        <time>2026-07-09T09:30:00.000Z</time>
      </trkpt>
      <trkpt lat="45.81396" lon="1.87554">
        <ele>724.4</ele>
        <time>2026-07-09T09:30:01.000Z</time>
      </trkpt>
      <trkpt lat="45.81395" lon="1.87556">
        <ele>724.9</ele>
        <time>2026-07-09T09:30:02.000Z</time>
      </trkpt>
      <trkpt lat="45.81395" lon="1.87558">
        <ele>724.8</ele>
        <time>2026-07-09T09:30:03.000Z</time>
      </trkpt>
      <trkpt lat="45.81395" lon="1.8756">
        <ele>725.9</ele>
        <time>2026-07-09T09:30:04.000Z</time>
      </trkpt>
      <trkpt lat="45.81394" lon="1.87562">
        <ele>726.4</ele>
        <time>2026-07-09T09:30:05.000Z</time>
      </trkpt>
      <trkpt lat="45.81393" lon="1.87564">
        <ele>726.9</ele>
        <time>2026-07-09T09:30:06.000Z</time>
      </trkpt>
      <trkpt lat="45.81392" lon="1.87566">
        <ele>727.8</ele>
        <time>2026-07-09T09:30:07.000Z</time>
      </trkpt>
      <trkpt lat="45.81392" lon="1.87563">
        <ele>728.5</ele>
        <time>2026-07-09T09:30:08.000Z</time>
      </trkpt>
      <trkpt lat="45.8139" lon="1.87565">
        <ele>729.5</ele>
        <time>2026-07-09T09:30:09.000Z</time>
      </trkpt>
      <trkpt lat="45.8139" lon="1.87565">
        <ele>729.5</ele>
        <time>2026-07-09T09:30:10.000Z</time>
      </trkpt>
      <trkpt lat="45.8139" lon="1.87565">
        <ele>729.6</ele>
        <time>2026-07-09T09:30:11.000Z</time>
      </trkpt>
      <trkpt lat="45.8139" lon="1.87565">
        <ele>729.5</ele>
        <time>2026-07-09T09:30:12.000Z</time>
      </trkpt>
      <trkpt lat="45.8139" lon="1.87567">
        <ele>729.7</ele>
        <time>2026-07-09T09:30:13.000Z</time>
      </trkpt>
      <trkpt lat="45.81389" lon="1.87569">
        <ele>729.6</ele>
        <time>2026-07-09T09:30:14.000Z</time>
      </trkpt>
      <trkpt lat="45.81389" lon="1.87571">
        <ele>729.4</ele>
        <time>2026-07-09T09:30:15.000Z</time>
      </trkpt>
      <trkpt lat="45.81389" lon="1.87573">
        <ele>729.5</ele>
        <time>2026-07-09T09:30:16.000Z</time>
      </trkpt>
      <trkpt lat="45.81388" lon="1.87574">
        <ele>729.5</ele>
        <time>2026-07-09T09:30:17.000Z</time>
      </trkpt>
      <trkpt lat="45.81388" lon="1.87574">
        <ele>729.4</ele>
        <time>2026-07-09T09:30:18.000Z</time>
      </trkpt>
      <trkpt lat="45.81388" lon="1.87573">
        <ele>729.4</ele>
        <time>2026-07-09T09:30:19.000Z</time>
      </trkpt>
      <trkpt lat="45.81388" lon="1.87573">
        <ele>729.4</ele>
        <time>2026-07-09T09:30:20.000Z</time>
      </trkpt>
      <trkpt lat="45.81388" lon="1.87573">
        <ele>729.4</ele>
        <time>2026-07-09T09:30:21.000Z</time>
      </trkpt>
      <trkpt lat="45.81388" lon="1.87573">
        <ele>729.4</ele>
        <time>2026-07-09T09:30:22.000Z</time>
      </trkpt>
      <trkpt lat="45.81388" lon="1.87574">
        <ele>729.4</ele>
        <time>2026-07-09T09:30:23.000Z</time>
      </trkpt>
      <trkpt lat="45.81388" lon="1.87574">
        <ele>729.4</ele>
        <time>2026-07-09T09:30:24.000Z</time>
      </trkpt>
      <trkpt lat="45.81388" lon="1.87574">
        <ele>729.5</ele>
        <time>2026-07-09T09:30:25.000Z</time>
      </trkpt>
      <trkpt lat="45.81388" lon="1.87574">
        <ele>729.4</ele>
        <time>2026-07-09T09:30:26.000Z</time>
      </trkpt>
      <trkpt lat="45.81388" lon="1.87574">
        <ele>729.4</ele>
        <time>2026-07-09T09:30:27.000Z</time>
      </trkpt>
      <trkpt lat="45.81388" lon="1.87574">
        <ele>729.4</ele>
        <time>2026-07-09T09:30:28.000Z</time>
      </trkpt>
      <trkpt lat="45.81388" lon="1.87574">
        <ele>729.4</ele>
        <time>2026-07-09T09:30:29.000Z</time>
      </trkpt>
      <trkpt lat="45.81388" lon="1.87575">
        <ele>729.8</ele>
        <time>2026-07-09T09:30:30.000Z</time>
      </trkpt>
      <trkpt lat="45.81388" lon="1.87576">
        <ele>729.9</ele>
        <time>2026-07-09T09:30:31.000Z</time>
      </trkpt>
      <trkpt lat="45.81384" lon="1.87579">
        <ele>730</ele>
        <time>2026-07-09T09:30:32.000Z</time>
      </trkpt>
      <trkpt lat="45.81382" lon="1.87586">
        <ele>730.2</ele>
        <time>2026-07-09T09:30:33.000Z</time>
      </trkpt>
      <trkpt lat="45.81381" lon="1.87593">
        <ele>730.2</ele>
        <time>2026-07-09T09:30:34.000Z</time>
      </trkpt>
      <trkpt lat="45.8138" lon="1.87598">
        <ele>730.1</ele>
        <time>2026-07-09T09:30:35.000Z</time>
      </trkpt>
      <trkpt lat="45.81381" lon="1.87596">
        <ele>731.4</ele>
        <time>2026-07-09T09:30:36.000Z</time>
      </trkpt>
      <trkpt lat="45.81381" lon="1.87597">
        <ele>731.8</ele>
        <time>2026-07-09T09:30:37.000Z</time>
      </trkpt>
      <trkpt lat="45.81381" lon="1.876">
        <ele>731.5</ele>
        <time>2026-07-09T09:30:38.000Z</time>
      </trkpt>
      <trkpt lat="45.81382" lon="1.87603">
        <ele>731.8</ele>
        <time>2026-07-09T09:30:39.000Z</time>
      </trkpt>
      <trkpt lat="45.81383" lon="1.87607">
        <ele>732.1</ele>
        <time>2026-07-09T09:30:40.000Z</time>
      </trkpt>
      <trkpt lat="45.81383" lon="1.87611">
        <ele>731.6</ele>
        <time>2026-07-09T09:30:41.000Z</time>
      </trkpt>
      <trkpt lat="45.81384" lon="1.87614">
        <ele>732.2</ele>
        <time>2026-07-09T09:30:42.000Z</time>
      </trkpt>
      <trkpt lat="45.81385" lon="1.87615">
        <ele>731.8</ele>
        <time>2026-07-09T09:30:43.000Z</time>
      </trkpt>
      <trkpt lat="45.81385" lon="1.87616">
        <ele>729.3</ele>
        <time>2026-07-09T09:30:44.000Z</time>
      </trkpt>
      <trkpt lat="45.81385" lon="1.87618">
        <ele>729.8</ele>
        <time>2026-07-09T09:30:45.000Z</time>
      </trkpt>
      <trkpt lat="45.81385" lon="1.87619">
        <ele>729.5</ele>
        <time>2026-07-09T09:30:46.000Z</time>
      </trkpt>
      <trkpt lat="45.81385" lon="1.8762">
        <ele>729.8</ele>
        <time>2026-07-09T09:30:47.000Z</time>
      </trkpt>
      <trkpt lat="45.81384" lon="1.87622">
        <ele>730</ele>
        <time>2026-07-09T09:30:48.000Z</time>
      </trkpt>
      <trkpt lat="45.81383" lon="1.87623">
        <ele>729.5</ele>
        <time>2026-07-09T09:30:49.000Z</time>
      </trkpt>
      <trkpt lat="45.81382" lon="1.87625">
        <ele>729</ele>
        <time>2026-07-09T09:30:50.000Z</time>
      </trkpt>
      <trkpt lat="45.81382" lon="1.87626">
        <ele>729</ele>
        <time>2026-07-09T09:30:51.000Z</time>
      </trkpt>
      <trkpt lat="45.81381" lon="1.87627">
        <ele>729.5</ele>
        <time>2026-07-09T09:30:52.000Z</time>
      </trkpt>
      <trkpt lat="45.81381" lon="1.87629">
        <ele>729.9</ele>
        <time>2026-07-09T09:30:53.000Z</time>
      </trkpt>
      <trkpt lat="45.8138" lon="1.87631">
        <ele>729.5</ele>
        <time>2026-07-09T09:30:54.000Z</time>
      </trkpt>
      <trkpt lat="45.8138" lon="1.87632">
        <ele>729.3</ele>
        <time>2026-07-09T09:30:55.000Z</time>
      </trkpt>
      <trkpt lat="45.81379" lon="1.87634">
        <ele>729.5</ele>
        <time>2026-07-09T09:30:56.000Z</time>
      </trkpt>
      <trkpt lat="45.81378" lon="1.87635">
        <ele>729.8</ele>
        <time>2026-07-09T09:30:57.000Z</time>
      </trkpt>
      <trkpt lat="45.81378" lon="1.87637">
        <ele>729.8</ele>
        <time>2026-07-09T09:30:58.000Z</time>
      </trkpt>
      <trkpt lat="45.81377" lon="1.87638">
        <ele>729.4</ele>
        <time>2026-07-09T09:30:59.000Z</time>
      </trkpt>
      <trkpt lat="45.81377" lon="1.8764">
        <ele>728.9</ele>
        <time>2026-07-09T09:31:00.000Z</time>
      </trkpt>
      <trkpt lat="45.81377" lon="1.87641">
        <ele>729.2</ele>
        <time>2026-07-09T09:31:01.000Z</time>
      </trkpt>
      <trkpt lat="45.81377" lon="1.87643">
        <ele>729.9</ele>
        <time>2026-07-09T09:31:02.000Z</time>
      </trkpt>
      <trkpt lat="45.81377" lon="1.87645">
        <ele>730.2</ele>
        <time>2026-07-09T09:31:03.000Z</time>
      </trkpt>
      <trkpt lat="45.81377" lon="1.87647">
        <ele>730.9</ele>
        <time>2026-07-09T09:31:04.000Z</time>
      </trkpt>
      <trkpt lat="45.81377" lon="1.87649">
        <ele>730.6</ele>
        <time>2026-07-09T09:31:05.000Z</time>
      </trkpt>
      <trkpt lat="45.81377" lon="1.87651">
        <ele>730</ele>
        <time>2026-07-09T09:31:06.000Z</time>
      </trkpt>
      <trkpt lat="45.81378" lon="1.87652">
        <ele>729.8</ele>
        <time>2026-07-09T09:31:07.000Z</time>
      </trkpt>
      <trkpt lat="45.81379" lon="1.87653">
        <ele>729.3</ele>
        <time>2026-07-09T09:31:08.000Z</time>
      </trkpt>
      <trkpt lat="45.8138" lon="1.87654">
        <ele>728.9</ele>
        <time>2026-07-09T09:31:09.000Z</time>
      </trkpt>
      <trkpt lat="45.81382" lon="1.87655">
        <ele>730.4</ele>
        <time>2026-07-09T09:31:10.000Z</time>
      </trkpt>
      <trkpt lat="45.81383" lon="1.87657">
        <ele>730.6</ele>
        <time>2026-07-09T09:31:11.000Z</time>
      </trkpt>
      <trkpt lat="45.81384" lon="1.87658">
        <ele>729.7</ele>
        <time>2026-07-09T09:31:12.000Z</time>
      </trkpt>
      <trkpt lat="45.81385" lon="1.87659">
        <ele>728.3</ele>
        <time>2026-07-09T09:31:13.000Z</time>
      </trkpt>
      <trkpt lat="45.81387" lon="1.8766">
        <ele>728.8</ele>
        <time>2026-07-09T09:31:14.000Z</time>
      </trkpt>
      <trkpt lat="45.81388" lon="1.87661">
        <ele>728.6</ele>
        <time>2026-07-09T09:31:15.000Z</time>
      </trkpt>
      <trkpt lat="45.81389" lon="1.87663">
        <ele>728.6</ele>
        <time>2026-07-09T09:31:16.000Z</time>
      </trkpt>
      <trkpt lat="45.8139" lon="1.87664">
        <ele>729</ele>
        <time>2026-07-09T09:31:17.000Z</time>
      </trkpt>
      <trkpt lat="45.81392" lon="1.87665">
        <ele>728.6</ele>
        <time>2026-07-09T09:31:18.000Z</time>
      </trkpt>
      <trkpt lat="45.81393" lon="1.87666">
        <ele>728.6</ele>
        <time>2026-07-09T09:31:19.000Z</time>
      </trkpt>
      <trkpt lat="45.81394" lon="1.87666">
        <ele>727.8</ele>
        <time>2026-07-09T09:31:20.000Z</time>
      </trkpt>
      <trkpt lat="45.81396" lon="1.87668">
        <ele>727.6</ele>
        <time>2026-07-09T09:31:21.000Z</time>
      </trkpt>
      <trkpt lat="45.81397" lon="1.87669">
        <ele>727.4</ele>
        <time>2026-07-09T09:31:22.000Z</time>
      </trkpt>
      <trkpt lat="45.81398" lon="1.87671">
        <ele>727.8</ele>
        <time>2026-07-09T09:31:23.000Z</time>
      </trkpt>
      <trkpt lat="45.814" lon="1.87672">
        <ele>727.9</ele>
        <time>2026-07-09T09:31:24.000Z</time>
      </trkpt>
      <trkpt lat="45.81401" lon="1.87674">
        <ele>728</ele>
        <time>2026-07-09T09:31:25.000Z</time>
      </trkpt>
      <trkpt lat="45.81402" lon="1.87676">
        <ele>729.7</ele>
        <time>2026-07-09T09:31:26.000Z</time>
      </trkpt>
      <trkpt lat="45.81405" lon="1.87676">
        <ele>729.4</ele>
        <time>2026-07-09T09:31:27.000Z</time>
      </trkpt>
      <trkpt lat="45.81406" lon="1.87674">
        <ele>730.2</ele>
        <time>2026-07-09T09:31:28.000Z</time>
      </trkpt>
      <trkpt lat="45.81407" lon="1.87671">
        <ele>729.7</ele>
        <time>2026-07-09T09:31:29.000Z</time>
      </trkpt>
      <trkpt lat="45.81406" lon="1.87669">
        <ele>728.9</ele>
        <time>2026-07-09T09:31:30.000Z</time>
      </trkpt>
      <trkpt lat="45.81406" lon="1.87669">
        <ele>728.9</ele>
        <time>2026-07-09T09:31:31.000Z</time>
      </trkpt>
      <trkpt lat="45.81405" lon="1.87669">
        <ele>729</ele>
        <time>2026-07-09T09:31:32.000Z</time>
      </trkpt>
      <trkpt lat="45.81406" lon="1.87669">
        <ele>728.8</ele>
        <time>2026-07-09T09:31:33.000Z</time>
      </trkpt>
      <trkpt lat="45.81406" lon="1.87669">
        <ele>728.8</ele>
        <time>2026-07-09T09:31:34.000Z</time>
      </trkpt>
      <trkpt lat="45.81406" lon="1.87669">
        <ele>728.8</ele>
        <time>2026-07-09T09:31:35.000Z</time>
      </trkpt>
      <trkpt lat="45.81406" lon="1.87669">
        <ele>728.9</ele>
        <time>2026-07-09T09:31:36.000Z</time>
      </trkpt>
      <trkpt lat="45.81406" lon="1.87669">
        <ele>728.9</ele>
        <time>2026-07-09T09:31:37.000Z</time>
      </trkpt>
      <trkpt lat="45.81406" lon="1.87669">
        <ele>728.9</ele>
        <time>2026-07-09T09:31:38.000Z</time>
      </trkpt>
      <trkpt lat="45.81406" lon="1.87669">
        <ele>728.9</ele>
        <time>2026-07-09T09:31:39.000Z</time>
      </trkpt>
      <trkpt lat="45.81406" lon="1.87669">
        <ele>728.9</ele>
        <time>2026-07-09T09:31:40.000Z</time>
      </trkpt>
      <trkpt lat="45.81406" lon="1.87669">
        <ele>729</ele>
        <time>2026-07-09T09:31:41.000Z</time>
      </trkpt>
      <trkpt lat="45.81406" lon="1.8767">
        <ele>729.4</ele>
        <time>2026-07-09T09:31:42.000Z</time>
      </trkpt>
      <trkpt lat="45.81408" lon="1.87671">
        <ele>729.5</ele>
        <time>2026-07-09T09:31:43.000Z</time>
      </trkpt>
      <trkpt lat="45.81409" lon="1.87673">
        <ele>729.1</ele>
        <time>2026-07-09T09:31:44.000Z</time>
      </trkpt>
      <trkpt lat="45.8141" lon="1.87675">
        <ele>728.6</ele>
        <time>2026-07-09T09:31:45.000Z</time>
      </trkpt>
      <trkpt lat="45.81411" lon="1.87676">
        <ele>727.7</ele>
        <time>2026-07-09T09:31:46.000Z</time>
      </trkpt>
      <trkpt lat="45.81412" lon="1.87678">
        <ele>726.8</ele>
        <time>2026-07-09T09:31:47.000Z</time>
      </trkpt>
      <trkpt lat="45.81413" lon="1.8768">
        <ele>726.5</ele>
        <time>2026-07-09T09:31:48.000Z</time>
      </trkpt>
      <trkpt lat="45.81414" lon="1.87681">
        <ele>726.7</ele>
        <time>2026-07-09T09:31:49.000Z</time>
      </trkpt>
      <trkpt lat="45.81415" lon="1.87683">
        <ele>727</ele>
        <time>2026-07-09T09:31:50.000Z</time>
      </trkpt>
      <trkpt lat="45.81415" lon="1.87687">
        <ele>726.4</ele>
        <time>2026-07-09T09:31:51.000Z</time>
      </trkpt>
      <trkpt lat="45.81417" lon="1.87695">
        <ele>732.1</ele>
        <time>2026-07-09T09:31:52.000Z</time>
      </trkpt>
      <trkpt lat="45.81419" lon="1.87698">
        <ele>732.2</ele>
        <time>2026-07-09T09:31:53.000Z</time>
      </trkpt>
      <trkpt lat="45.8142" lon="1.877">
        <ele>732.2</ele>
        <time>2026-07-09T09:31:54.000Z</time>
      </trkpt>
      <trkpt lat="45.81422" lon="1.877">
        <ele>731.9</ele>
        <time>2026-07-09T09:31:55.000Z</time>
      </trkpt>
      <trkpt lat="45.81423" lon="1.87702">
        <ele>731.6</ele>
        <time>2026-07-09T09:31:56.000Z</time>
      </trkpt>
      <trkpt lat="45.81424" lon="1.87704">
        <ele>731.5</ele>
        <time>2026-07-09T09:31:57.000Z</time>
      </trkpt>
      <trkpt lat="45.81425" lon="1.87704">
        <ele>732.1</ele>
        <time>2026-07-09T09:31:58.000Z</time>
      </trkpt>
      <trkpt lat="45.81426" lon="1.87705">
        <ele>731.4</ele>
        <time>2026-07-09T09:31:59.000Z</time>
      </trkpt>
      <trkpt lat="45.81427" lon="1.87706">
        <ele>731.7</ele>
        <time>2026-07-09T09:32:00.000Z</time>
      </trkpt>
      <trkpt lat="45.81428" lon="1.87708">
        <ele>732.4</ele>
        <time>2026-07-09T09:32:01.000Z</time>
      </trkpt>
      <trkpt lat="45.81429" lon="1.87709">
        <ele>732</ele>
        <time>2026-07-09T09:32:02.000Z</time>
      </trkpt>
      <trkpt lat="45.8143" lon="1.87711">
        <ele>732</ele>
        <time>2026-07-09T09:32:03.000Z</time>
      </trkpt>
      <trkpt lat="45.81431" lon="1.87712">
        <ele>731.4</ele>
        <time>2026-07-09T09:32:04.000Z</time>
      </trkpt>
      <trkpt lat="45.81432" lon="1.87714">
        <ele>730.8</ele>
        <time>2026-07-09T09:32:05.000Z</time>
      </trkpt>
      <trkpt lat="45.81433" lon="1.87715">
        <ele>731.1</ele>
        <time>2026-07-09T09:32:06.000Z</time>
      </trkpt>
      <trkpt lat="45.81434" lon="1.87717">
        <ele>731.3</ele>
        <time>2026-07-09T09:32:07.000Z</time>
      </trkpt>
      <trkpt lat="45.81436" lon="1.87719">
        <ele>731.8</ele>
        <time>2026-07-09T09:32:08.000Z</time>
      </trkpt>
      <trkpt lat="45.81437" lon="1.87721">
        <ele>731.9</ele>
        <time>2026-07-09T09:32:09.000Z</time>
      </trkpt>
      <trkpt lat="45.81438" lon="1.87723">
        <ele>732.5</ele>
        <time>2026-07-09T09:32:10.000Z</time>
      </trkpt>
      <trkpt lat="45.81439" lon="1.87724">
        <ele>732.8</ele>
        <time>2026-07-09T09:32:11.000Z</time>
      </trkpt>
      <trkpt lat="45.8144" lon="1.87726">
        <ele>732.6</ele>
        <time>2026-07-09T09:32:12.000Z</time>
      </trkpt>
      <trkpt lat="45.81442" lon="1.87728">
        <ele>733.1</ele>
        <time>2026-07-09T09:32:13.000Z</time>
      </trkpt>
      <trkpt lat="45.81442" lon="1.8773">
        <ele>733.1</ele>
        <time>2026-07-09T09:32:14.000Z</time>
      </trkpt>
      <trkpt lat="45.81444" lon="1.87732">
        <ele>733.2</ele>
        <time>2026-07-09T09:32:15.000Z</time>
      </trkpt>
      <trkpt lat="45.81445" lon="1.87733">
        <ele>733</ele>
        <time>2026-07-09T09:32:16.000Z</time>
      </trkpt>
      <trkpt lat="45.81446" lon="1.87735">
        <ele>732.6</ele>
        <time>2026-07-09T09:32:17.000Z</time>
      </trkpt>
      <trkpt lat="45.81447" lon="1.87737">
        <ele>732.5</ele>
        <time>2026-07-09T09:32:18.000Z</time>
      </trkpt>
      <trkpt lat="45.81448" lon="1.87739">
        <ele>732.9</ele>
        <time>2026-07-09T09:32:19.000Z</time>
      </trkpt>
      <trkpt lat="45.81449" lon="1.87741">
        <ele>733.8</ele>
        <time>2026-07-09T09:32:20.000Z</time>
      </trkpt>
      <trkpt lat="45.8145" lon="1.87743">
        <ele>734.5</ele>
        <time>2026-07-09T09:32:21.000Z</time>
      </trkpt>
      <trkpt lat="45.8145" lon="1.87745">
        <ele>734.2</ele>
        <time>2026-07-09T09:32:22.000Z</time>
      </trkpt>
      <trkpt lat="45.81451" lon="1.87747">
        <ele>734.4</ele>
        <time>2026-07-09T09:32:23.000Z</time>
      </trkpt>
      <trkpt lat="45.81452" lon="1.87749">
        <ele>734.5</ele>
        <time>2026-07-09T09:32:24.000Z</time>
      </trkpt>
      <trkpt lat="45.81453" lon="1.8775">
        <ele>734.6</ele>
        <time>2026-07-09T09:32:25.000Z</time>
      </trkpt>
      <trkpt lat="45.81454" lon="1.87752">
        <ele>734.7</ele>
        <time>2026-07-09T09:32:26.000Z</time>
      </trkpt>
      <trkpt lat="45.81455" lon="1.87754">
        <ele>734.6</ele>
        <time>2026-07-09T09:32:27.000Z</time>
      </trkpt>
      <trkpt lat="45.81455" lon="1.87756">
        <ele>734.5</ele>
        <time>2026-07-09T09:32:28.000Z</time>
      </trkpt>
      <trkpt lat="45.81456" lon="1.87757">
        <ele>734.7</ele>
        <time>2026-07-09T09:32:29.000Z</time>
      </trkpt>
      <trkpt lat="45.81457" lon="1.87759">
        <ele>734.7</ele>
        <time>2026-07-09T09:32:30.000Z</time>
      </trkpt>
      <trkpt lat="45.81458" lon="1.87761">
        <ele>734.8</ele>
        <time>2026-07-09T09:32:31.000Z</time>
      </trkpt>
      <trkpt lat="45.81459" lon="1.87763">
        <ele>734.6</ele>
        <time>2026-07-09T09:32:32.000Z</time>
      </trkpt>
      <trkpt lat="45.81459" lon="1.87764">
        <ele>734.3</ele>
        <time>2026-07-09T09:32:33.000Z</time>
      </trkpt>
      <trkpt lat="45.8146" lon="1.87766">
        <ele>734.6</ele>
        <time>2026-07-09T09:32:34.000Z</time>
      </trkpt>
      <trkpt lat="45.81461" lon="1.87768">
        <ele>734.5</ele>
        <time>2026-07-09T09:32:35.000Z</time>
      </trkpt>
      <trkpt lat="45.81461" lon="1.8777">
        <ele>734.7</ele>
        <time>2026-07-09T09:32:36.000Z</time>
      </trkpt>
      <trkpt lat="45.81462" lon="1.87772">
        <ele>734.9</ele>
        <time>2026-07-09T09:32:37.000Z</time>
      </trkpt>
      <trkpt lat="45.81463" lon="1.87774">
        <ele>734.7</ele>
        <time>2026-07-09T09:32:38.000Z</time>
      </trkpt>
      <trkpt lat="45.81464" lon="1.87776">
        <ele>734.9</ele>
        <time>2026-07-09T09:32:39.000Z</time>
      </trkpt>
      <trkpt lat="45.81465" lon="1.87778">
        <ele>734.6</ele>
        <time>2026-07-09T09:32:40.000Z</time>
      </trkpt>
      <trkpt lat="45.81465" lon="1.8778">
        <ele>734.9</ele>
        <time>2026-07-09T09:32:41.000Z</time>
      </trkpt>
      <trkpt lat="45.81466" lon="1.87782">
        <ele>735.1</ele>
        <time>2026-07-09T09:32:42.000Z</time>
      </trkpt>
      <trkpt lat="45.81467" lon="1.87784">
        <ele>735.6</ele>
        <time>2026-07-09T09:32:43.000Z</time>
      </trkpt>
      <trkpt lat="45.81469" lon="1.87785">
        <ele>735.4</ele>
        <time>2026-07-09T09:32:44.000Z</time>
      </trkpt>
      <trkpt lat="45.8147" lon="1.87788">
        <ele>735.4</ele>
        <time>2026-07-09T09:32:45.000Z</time>
      </trkpt>
      <trkpt lat="45.8147" lon="1.8779">
        <ele>734.9</ele>
        <time>2026-07-09T09:32:46.000Z</time>
      </trkpt>
      <trkpt lat="45.81471" lon="1.87792">
        <ele>735.1</ele>
        <time>2026-07-09T09:32:47.000Z</time>
      </trkpt>
      <trkpt lat="45.81472" lon="1.87794">
        <ele>735.1</ele>
        <time>2026-07-09T09:32:48.000Z</time>
      </trkpt>
      <trkpt lat="45.81472" lon="1.87797">
        <ele>735.5</ele>
        <time>2026-07-09T09:32:49.000Z</time>
      </trkpt>
      <trkpt lat="45.81473" lon="1.87798">
        <ele>735.2</ele>
        <time>2026-07-09T09:32:50.000Z</time>
      </trkpt>
      <trkpt lat="45.81474" lon="1.878">
        <ele>734.9</ele>
        <time>2026-07-09T09:32:51.000Z</time>
      </trkpt>
      <trkpt lat="45.81474" lon="1.87802">
        <ele>734.9</ele>
        <time>2026-07-09T09:32:52.000Z</time>
      </trkpt>
      <trkpt lat="45.81475" lon="1.87804">
        <ele>734.7</ele>
        <time>2026-07-09T09:32:53.000Z</time>
      </trkpt>
      <trkpt lat="45.81476" lon="1.87805">
        <ele>734.6</ele>
        <time>2026-07-09T09:32:54.000Z</time>
      </trkpt>
      <trkpt lat="45.81477" lon="1.87807">
        <ele>734.5</ele>
        <time>2026-07-09T09:32:55.000Z</time>
      </trkpt>
      <trkpt lat="45.81477" lon="1.87809">
        <ele>734.5</ele>
        <time>2026-07-09T09:32:56.000Z</time>
      </trkpt>
      <trkpt lat="45.81478" lon="1.87811">
        <ele>734.5</ele>
        <time>2026-07-09T09:32:57.000Z</time>
      </trkpt>
      <trkpt lat="45.81479" lon="1.87813">
        <ele>734.8</ele>
        <time>2026-07-09T09:32:58.000Z</time>
      </trkpt>
      <trkpt lat="45.81479" lon="1.87814">
        <ele>734.9</ele>
        <time>2026-07-09T09:32:59.000Z</time>
      </trkpt>
      <trkpt lat="45.8148" lon="1.87816">
        <ele>735</ele>
        <time>2026-07-09T09:33:00.000Z</time>
      </trkpt>
      <trkpt lat="45.8148" lon="1.87818">
        <ele>735</ele>
        <time>2026-07-09T09:33:01.000Z</time>
      </trkpt>
      <trkpt lat="45.81481" lon="1.8782">
        <ele>735.4</ele>
        <time>2026-07-09T09:33:02.000Z</time>
      </trkpt>
      <trkpt lat="45.81482" lon="1.87821">
        <ele>735.7</ele>
        <time>2026-07-09T09:33:03.000Z</time>
      </trkpt>
      <trkpt lat="45.81483" lon="1.87821">
        <ele>735.6</ele>
        <time>2026-07-09T09:33:04.000Z</time>
      </trkpt>
      <trkpt lat="45.81482" lon="1.87824">
        <ele>736.9</ele>
        <time>2026-07-09T09:33:05.000Z</time>
      </trkpt>
      <trkpt lat="45.81482" lon="1.87824">
        <ele>736.9</ele>
        <time>2026-07-09T09:33:06.000Z</time>
      </trkpt>
      <trkpt lat="45.81483" lon="1.87826">
        <ele>736.7</ele>
        <time>2026-07-09T09:33:07.000Z</time>
      </trkpt>
      <trkpt lat="45.81482" lon="1.8783">
        <ele>738.2</ele>
        <time>2026-07-09T09:33:08.000Z</time>
      </trkpt>
      <trkpt lat="45.81481" lon="1.87834">
        <ele>739.7</ele>
        <time>2026-07-09T09:33:09.000Z</time>
      </trkpt>
      <trkpt lat="45.81482" lon="1.87834">
        <ele>738.4</ele>
        <time>2026-07-09T09:33:10.000Z</time>
      </trkpt>
      <trkpt lat="45.81482" lon="1.87834">
        <ele>738.4</ele>
        <time>2026-07-09T09:33:11.000Z</time>
      </trkpt>
      <trkpt lat="45.81483" lon="1.87836">
        <ele>738.5</ele>
        <time>2026-07-09T09:33:12.000Z</time>
      </trkpt>
      <trkpt lat="45.81483" lon="1.87837">
        <ele>737.9</ele>
        <time>2026-07-09T09:33:13.000Z</time>
      </trkpt>
      <trkpt lat="45.81484" lon="1.87837">
        <ele>737.3</ele>
        <time>2026-07-09T09:33:14.000Z</time>
      </trkpt>
      <trkpt lat="45.81484" lon="1.87837">
        <ele>737.7</ele>
        <time>2026-07-09T09:33:15.000Z</time>
      </trkpt>
      <trkpt lat="45.81485" lon="1.87838">
        <ele>738.1</ele>
        <time>2026-07-09T09:33:16.000Z</time>
      </trkpt>
      <trkpt lat="45.81486" lon="1.87839">
        <ele>738.2</ele>
        <time>2026-07-09T09:33:17.000Z</time>
      </trkpt>
      <trkpt lat="45.81486" lon="1.87841">
        <ele>738.1</ele>
        <time>2026-07-09T09:33:18.000Z</time>
      </trkpt>
      <trkpt lat="45.81486" lon="1.87841">
        <ele>738</ele>
        <time>2026-07-09T09:33:19.000Z</time>
      </trkpt>
      <trkpt lat="45.81485" lon="1.87842">
        <ele>737.5</ele>
        <time>2026-07-09T09:33:20.000Z</time>
      </trkpt>
      <trkpt lat="45.81484" lon="1.87842">
        <ele>736.4</ele>
        <time>2026-07-09T09:33:21.000Z</time>
      </trkpt>
      <trkpt lat="45.81483" lon="1.87843">
        <ele>735.5</ele>
        <time>2026-07-09T09:33:22.000Z</time>
      </trkpt>
      <trkpt lat="45.81483" lon="1.87844">
        <ele>735.3</ele>
        <time>2026-07-09T09:33:23.000Z</time>
      </trkpt>
      <trkpt lat="45.81482" lon="1.87845">
        <ele>735.1</ele>
        <time>2026-07-09T09:33:24.000Z</time>
      </trkpt>
      <trkpt lat="45.81481" lon="1.87847">
        <ele>734.6</ele>
        <time>2026-07-09T09:33:25.000Z</time>
      </trkpt>
      <trkpt lat="45.81481" lon="1.87849">
        <ele>734.2</ele>
        <time>2026-07-09T09:33:26.000Z</time>
      </trkpt>
      <trkpt lat="45.81481" lon="1.87851">
        <ele>734</ele>
        <time>2026-07-09T09:33:27.000Z</time>
      </trkpt>
      <trkpt lat="45.81481" lon="1.87853">
        <ele>733.6</ele>
        <time>2026-07-09T09:33:28.000Z</time>
      </trkpt>
      <trkpt lat="45.81482" lon="1.87855">
        <ele>733.4</ele>
        <time>2026-07-09T09:33:29.000Z</time>
      </trkpt>
      <trkpt lat="45.81483" lon="1.87857">
        <ele>733</ele>
        <time>2026-07-09T09:33:30.000Z</time>
      </trkpt>
      <trkpt lat="45.81484" lon="1.87859">
        <ele>732.8</ele>
        <time>2026-07-09T09:33:31.000Z</time>
      </trkpt>
      <trkpt lat="45.81484" lon="1.87861">
        <ele>732.5</ele>
        <time>2026-07-09T09:33:32.000Z</time>
      </trkpt>
      <trkpt lat="45.81485" lon="1.87863">
        <ele>732.2</ele>
        <time>2026-07-09T09:33:33.000Z</time>
      </trkpt>
      <trkpt lat="45.81486" lon="1.87865">
        <ele>732.1</ele>
        <time>2026-07-09T09:33:34.000Z</time>
      </trkpt>
      <trkpt lat="45.81487" lon="1.87867">
        <ele>732.1</ele>
        <time>2026-07-09T09:33:35.000Z</time>
      </trkpt>
      <trkpt lat="45.81488" lon="1.87869">
        <ele>731.9</ele>
        <time>2026-07-09T09:33:36.000Z</time>
      </trkpt>
      <trkpt lat="45.81489" lon="1.8787">
        <ele>731.5</ele>
        <time>2026-07-09T09:33:37.000Z</time>
      </trkpt>
      <trkpt lat="45.8149" lon="1.87872">
        <ele>731.6</ele>
        <time>2026-07-09T09:33:38.000Z</time>
      </trkpt>
      <trkpt lat="45.81492" lon="1.87873">
        <ele>731.6</ele>
        <time>2026-07-09T09:33:39.000Z</time>
      </trkpt>
      <trkpt lat="45.81492" lon="1.87875">
        <ele>731.3</ele>
        <time>2026-07-09T09:33:40.000Z</time>
      </trkpt>
      <trkpt lat="45.81493" lon="1.87877">
        <ele>731.6</ele>
        <time>2026-07-09T09:33:41.000Z</time>
      </trkpt>
      <trkpt lat="45.81494" lon="1.87878">
        <ele>731.2</ele>
        <time>2026-07-09T09:33:42.000Z</time>
      </trkpt>
      <trkpt lat="45.81494" lon="1.8788">
        <ele>731.1</ele>
        <time>2026-07-09T09:33:43.000Z</time>
      </trkpt>
      <trkpt lat="45.81495" lon="1.87881">
        <ele>730.3</ele>
        <time>2026-07-09T09:33:44.000Z</time>
      </trkpt>
      <trkpt lat="45.81495" lon="1.87882">
        <ele>729.8</ele>
        <time>2026-07-09T09:33:45.000Z</time>
      </trkpt>
      <trkpt lat="45.81495" lon="1.87882">
        <ele>729.4</ele>
        <time>2026-07-09T09:33:46.000Z</time>
      </trkpt>
      <trkpt lat="45.81495" lon="1.87883">
        <ele>728.7</ele>
        <time>2026-07-09T09:33:47.000Z</time>
      </trkpt>
      <trkpt lat="45.81494" lon="1.87885">
        <ele>728.5</ele>
        <time>2026-07-09T09:33:48.000Z</time>
      </trkpt>
      <trkpt lat="45.81493" lon="1.87886">
        <ele>728.3</ele>
        <time>2026-07-09T09:33:49.000Z</time>
      </trkpt>
      <trkpt lat="45.81492" lon="1.87887">
        <ele>728</ele>
        <time>2026-07-09T09:33:50.000Z</time>
      </trkpt>
      <trkpt lat="45.8149" lon="1.87886">
        <ele>727.8</ele>
        <time>2026-07-09T09:33:51.000Z</time>
      </trkpt>
      <trkpt lat="45.81488" lon="1.87885">
        <ele>727.7</ele>
        <time>2026-07-09T09:33:52.000Z</time>
      </trkpt>
      <trkpt lat="45.81486" lon="1.87883">
        <ele>727.5</ele>
        <time>2026-07-09T09:33:53.000Z</time>
      </trkpt>
      <trkpt lat="45.81485" lon="1.87881">
        <ele>727.2</ele>
        <time>2026-07-09T09:33:54.000Z</time>
      </trkpt>
      <trkpt lat="45.81483" lon="1.8788">
        <ele>727.2</ele>
        <time>2026-07-09T09:33:55.000Z</time>
      </trkpt>
      <trkpt lat="45.81482" lon="1.87878">
        <ele>727.2</ele>
        <time>2026-07-09T09:33:56.000Z</time>
      </trkpt>
      <trkpt lat="45.8148" lon="1.87876">
        <ele>727.4</ele>
        <time>2026-07-09T09:33:57.000Z</time>
      </trkpt>
      <trkpt lat="45.81479" lon="1.87873">
        <ele>727.2</ele>
        <time>2026-07-09T09:33:58.000Z</time>
      </trkpt>
      <trkpt lat="45.81477" lon="1.87871">
        <ele>727.3</ele>
        <time>2026-07-09T09:33:59.000Z</time>
      </trkpt>
      <trkpt lat="45.81476" lon="1.87869">
        <ele>727.8</ele>
        <time>2026-07-09T09:34:00.000Z</time>
      </trkpt>
      <trkpt lat="45.81475" lon="1.87867">
        <ele>728</ele>
        <time>2026-07-09T09:34:01.000Z</time>
      </trkpt>
      <trkpt lat="45.81474" lon="1.87865">
        <ele>728</ele>
        <time>2026-07-09T09:34:02.000Z</time>
      </trkpt>
      <trkpt lat="45.81473" lon="1.87864">
        <ele>727.9</ele>
        <time>2026-07-09T09:34:03.000Z</time>
      </trkpt>
      <trkpt lat="45.81473" lon="1.87862">
        <ele>727.7</ele>
        <time>2026-07-09T09:34:04.000Z</time>
      </trkpt>
      <trkpt lat="45.81471" lon="1.87861">
        <ele>727.7</ele>
        <time>2026-07-09T09:34:05.000Z</time>
      </trkpt>
      <trkpt lat="45.81471" lon="1.87859">
        <ele>727.9</ele>
        <time>2026-07-09T09:34:06.000Z</time>
      </trkpt>
      <trkpt lat="45.8147" lon="1.87858">
        <ele>727.5</ele>
        <time>2026-07-09T09:34:07.000Z</time>
      </trkpt>
      <trkpt lat="45.81468" lon="1.87857">
        <ele>727.5</ele>
        <time>2026-07-09T09:34:08.000Z</time>
      </trkpt>
      <trkpt lat="45.81467" lon="1.87856">
        <ele>727.6</ele>
        <time>2026-07-09T09:34:09.000Z</time>
      </trkpt>
      <trkpt lat="45.81465" lon="1.87856">
        <ele>728</ele>
        <time>2026-07-09T09:34:10.000Z</time>
      </trkpt>
      <trkpt lat="45.81463" lon="1.87856">
        <ele>727.8</ele>
        <time>2026-07-09T09:34:11.000Z</time>
      </trkpt>
      <trkpt lat="45.81461" lon="1.87857">
        <ele>727.4</ele>
        <time>2026-07-09T09:34:12.000Z</time>
      </trkpt>
      <trkpt lat="45.8146" lon="1.87859">
        <ele>726.9</ele>
        <time>2026-07-09T09:34:13.000Z</time>
      </trkpt>
      <trkpt lat="45.81459" lon="1.87859">
        <ele>726.1</ele>
        <time>2026-07-09T09:34:14.000Z</time>
      </trkpt>
      <trkpt lat="45.81458" lon="1.87859">
        <ele>725.8</ele>
        <time>2026-07-09T09:34:15.000Z</time>
      </trkpt>
      <trkpt lat="45.81456" lon="1.87859">
        <ele>724.8</ele>
        <time>2026-07-09T09:34:16.000Z</time>
      </trkpt>
      <trkpt lat="45.81454" lon="1.87857">
        <ele>726.6</ele>
        <time>2026-07-09T09:34:17.000Z</time>
      </trkpt>
      <trkpt lat="45.81453" lon="1.87856">
        <ele>726.8</ele>
        <time>2026-07-09T09:34:18.000Z</time>
      </trkpt>
      <trkpt lat="45.81452" lon="1.87855">
        <ele>725.7</ele>
        <time>2026-07-09T09:34:19.000Z</time>
      </trkpt>
      <trkpt lat="45.81452" lon="1.87854">
        <ele>725.9</ele>
        <time>2026-07-09T09:34:20.000Z</time>
      </trkpt>
      <trkpt lat="45.81452" lon="1.87853">
        <ele>725.9</ele>
        <time>2026-07-09T09:34:21.000Z</time>
      </trkpt>
      <trkpt lat="45.81451" lon="1.87852">
        <ele>725.8</ele>
        <time>2026-07-09T09:34:22.000Z</time>
      </trkpt>
      <trkpt lat="45.8145" lon="1.8785">
        <ele>725.9</ele>
        <time>2026-07-09T09:34:23.000Z</time>
      </trkpt>
      <trkpt lat="45.81449" lon="1.87849">
        <ele>726.3</ele>
        <time>2026-07-09T09:34:24.000Z</time>
      </trkpt>
      <trkpt lat="45.81447" lon="1.87848">
        <ele>726</ele>
        <time>2026-07-09T09:34:25.000Z</time>
      </trkpt>
      <trkpt lat="45.81445" lon="1.87848">
        <ele>725.4</ele>
        <time>2026-07-09T09:34:26.000Z</time>
      </trkpt>
      <trkpt lat="45.81444" lon="1.87847">
        <ele>725.4</ele>
        <time>2026-07-09T09:34:27.000Z</time>
      </trkpt>
      <trkpt lat="45.81442" lon="1.87847">
        <ele>725.1</ele>
        <time>2026-07-09T09:34:28.000Z</time>
      </trkpt>
      <trkpt lat="45.8144" lon="1.87847">
        <ele>724.5</ele>
        <time>2026-07-09T09:34:29.000Z</time>
      </trkpt>
      <trkpt lat="45.81438" lon="1.87849">
        <ele>723.7</ele>
        <time>2026-07-09T09:34:30.000Z</time>
      </trkpt>
      <trkpt lat="45.81438" lon="1.87851">
        <ele>723.3</ele>
        <time>2026-07-09T09:34:31.000Z</time>
      </trkpt>
      <trkpt lat="45.81437" lon="1.87853">
        <ele>722.8</ele>
        <time>2026-07-09T09:34:32.000Z</time>
      </trkpt>
      <trkpt lat="45.81436" lon="1.87855">
        <ele>723</ele>
        <time>2026-07-09T09:34:33.000Z</time>
      </trkpt>
      <trkpt lat="45.81435" lon="1.87856">
        <ele>722.3</ele>
        <time>2026-07-09T09:34:34.000Z</time>
      </trkpt>
      <trkpt lat="45.81434" lon="1.87858">
        <ele>721.8</ele>
        <time>2026-07-09T09:34:35.000Z</time>
      </trkpt>
      <trkpt lat="45.81433" lon="1.8786">
        <ele>719.7</ele>
        <time>2026-07-09T09:34:36.000Z</time>
      </trkpt>
      <trkpt lat="45.81432" lon="1.87861">
        <ele>719.3</ele>
        <time>2026-07-09T09:34:37.000Z</time>
      </trkpt>
      <trkpt lat="45.8143" lon="1.87862">
        <ele>718.5</ele>
        <time>2026-07-09T09:34:38.000Z</time>
      </trkpt>
      <trkpt lat="45.81429" lon="1.87861">
        <ele>718.3</ele>
        <time>2026-07-09T09:34:39.000Z</time>
      </trkpt>
      <trkpt lat="45.81427" lon="1.87861">
        <ele>717.6</ele>
        <time>2026-07-09T09:34:40.000Z</time>
      </trkpt>
      <trkpt lat="45.81426" lon="1.8786">
        <ele>716.8</ele>
        <time>2026-07-09T09:34:41.000Z</time>
      </trkpt>
      <trkpt lat="45.81425" lon="1.87858">
        <ele>716.9</ele>
        <time>2026-07-09T09:34:42.000Z</time>
      </trkpt>
      <trkpt lat="45.81424" lon="1.87856">
        <ele>718.3</ele>
        <time>2026-07-09T09:34:43.000Z</time>
      </trkpt>
      <trkpt lat="45.81424" lon="1.87855">
        <ele>718.4</ele>
        <time>2026-07-09T09:34:44.000Z</time>
      </trkpt>
      <trkpt lat="45.81423" lon="1.87853">
        <ele>718.4</ele>
        <time>2026-07-09T09:34:45.000Z</time>
      </trkpt>
      <trkpt lat="45.81422" lon="1.87853">
        <ele>716.9</ele>
        <time>2026-07-09T09:34:46.000Z</time>
      </trkpt>
      <trkpt lat="45.81421" lon="1.87853">
        <ele>716.7</ele>
        <time>2026-07-09T09:34:47.000Z</time>
      </trkpt>
      <trkpt lat="45.8142" lon="1.87852">
        <ele>716</ele>
        <time>2026-07-09T09:34:48.000Z</time>
      </trkpt>
      <trkpt lat="45.81419" lon="1.87851">
        <ele>715.1</ele>
        <time>2026-07-09T09:34:49.000Z</time>
      </trkpt>
      <trkpt lat="45.81419" lon="1.8785">
        <ele>715.1</ele>
        <time>2026-07-09T09:34:50.000Z</time>
      </trkpt>
      <trkpt lat="45.81418" lon="1.8785">
        <ele>715.3</ele>
        <time>2026-07-09T09:34:51.000Z</time>
      </trkpt>
      <trkpt lat="45.81418" lon="1.8785">
        <ele>716.1</ele>
        <time>2026-07-09T09:34:52.000Z</time>
      </trkpt>
      <trkpt lat="45.81417" lon="1.8785">
        <ele>716.2</ele>
        <time>2026-07-09T09:34:53.000Z</time>
      </trkpt>
      <trkpt lat="45.81415" lon="1.87849">
        <ele>715.8</ele>
        <time>2026-07-09T09:34:54.000Z</time>
      </trkpt>
      <trkpt lat="45.81414" lon="1.87849">
        <ele>716.5</ele>
        <time>2026-07-09T09:34:55.000Z</time>
      </trkpt>
      <trkpt lat="45.81412" lon="1.87848">
        <ele>717</ele>
        <time>2026-07-09T09:34:56.000Z</time>
      </trkpt>
      <trkpt lat="45.81411" lon="1.87848">
        <ele>717</ele>
        <time>2026-07-09T09:34:57.000Z</time>
      </trkpt>
      <trkpt lat="45.8141" lon="1.87849">
        <ele>717.6</ele>
        <time>2026-07-09T09:34:58.000Z</time>
      </trkpt>
      <trkpt lat="45.81409" lon="1.8785">
        <ele>717.7</ele>
        <time>2026-07-09T09:34:59.000Z</time>
      </trkpt>
      <trkpt lat="45.81408" lon="1.87851">
        <ele>717.1</ele>
        <time>2026-07-09T09:35:00.000Z</time>
      </trkpt>
      <trkpt lat="45.81406" lon="1.87853">
        <ele>715.4</ele>
        <time>2026-07-09T09:35:01.000Z</time>
      </trkpt>
      <trkpt lat="45.81405" lon="1.87854">
        <ele>715.5</ele>
        <time>2026-07-09T09:35:02.000Z</time>
      </trkpt>
      <trkpt lat="45.81405" lon="1.87856">
        <ele>714.8</ele>
        <time>2026-07-09T09:35:03.000Z</time>
      </trkpt>
      <trkpt lat="45.81405" lon="1.87858">
        <ele>713.9</ele>
        <time>2026-07-09T09:35:04.000Z</time>
      </trkpt>
      <trkpt lat="45.81405" lon="1.8786">
        <ele>713.4</ele>
        <time>2026-07-09T09:35:05.000Z</time>
      </trkpt>
      <trkpt lat="45.81405" lon="1.87861">
        <ele>713</ele>
        <time>2026-07-09T09:35:06.000Z</time>
      </trkpt>
      <trkpt lat="45.81404" lon="1.87863">
        <ele>712.4</ele>
        <time>2026-07-09T09:35:07.000Z</time>
      </trkpt>
      <trkpt lat="45.81404" lon="1.87867">
        <ele>712.1</ele>
        <time>2026-07-09T09:35:08.000Z</time>
      </trkpt>
      <trkpt lat="45.81404" lon="1.87868">
        <ele>711.2</ele>
        <time>2026-07-09T09:35:09.000Z</time>
      </trkpt>
      <trkpt lat="45.81403" lon="1.87872">
        <ele>711.5</ele>
        <time>2026-07-09T09:35:10.000Z</time>
      </trkpt>
      <trkpt lat="45.81402" lon="1.87875">
        <ele>711.2</ele>
        <time>2026-07-09T09:35:11.000Z</time>
      </trkpt>
      <trkpt lat="45.81401" lon="1.87878">
        <ele>712.4</ele>
        <time>2026-07-09T09:35:12.000Z</time>
      </trkpt>
      <trkpt lat="45.814" lon="1.8788">
        <ele>712.2</ele>
        <time>2026-07-09T09:35:13.000Z</time>
      </trkpt>
      <trkpt lat="45.81398" lon="1.87883">
        <ele>711.5</ele>
        <time>2026-07-09T09:35:14.000Z</time>
      </trkpt>
      <trkpt lat="45.81397" lon="1.87885">
        <ele>711.3</ele>
        <time>2026-07-09T09:35:15.000Z</time>
      </trkpt>
      <trkpt lat="45.81396" lon="1.87887">
        <ele>710.9</ele>
        <time>2026-07-09T09:35:16.000Z</time>
      </trkpt>
      <trkpt lat="45.81395" lon="1.87889">
        <ele>711.2</ele>
        <time>2026-07-09T09:35:17.000Z</time>
      </trkpt>
      <trkpt lat="45.81393" lon="1.87892">
        <ele>710.3</ele>
        <time>2026-07-09T09:35:18.000Z</time>
      </trkpt>
      <trkpt lat="45.81392" lon="1.87893">
        <ele>712.1</ele>
        <time>2026-07-09T09:35:19.000Z</time>
      </trkpt>
      <trkpt lat="45.81391" lon="1.87895">
        <ele>711.6</ele>
        <time>2026-07-09T09:35:20.000Z</time>
      </trkpt>
      <trkpt lat="45.8139" lon="1.87896">
        <ele>711.9</ele>
        <time>2026-07-09T09:35:21.000Z</time>
      </trkpt>
      <trkpt lat="45.81389" lon="1.87899">
        <ele>712</ele>
        <time>2026-07-09T09:35:22.000Z</time>
      </trkpt>
      <trkpt lat="45.81388" lon="1.87902">
        <ele>711.6</ele>
        <time>2026-07-09T09:35:23.000Z</time>
      </trkpt>
      <trkpt lat="45.81388" lon="1.87904">
        <ele>711.9</ele>
        <time>2026-07-09T09:35:24.000Z</time>
      </trkpt>
      <trkpt lat="45.81387" lon="1.87906">
        <ele>712.4</ele>
        <time>2026-07-09T09:35:25.000Z</time>
      </trkpt>
      <trkpt lat="45.81386" lon="1.87908">
        <ele>711.8</ele>
        <time>2026-07-09T09:35:26.000Z</time>
      </trkpt>
      <trkpt lat="45.81386" lon="1.87909">
        <ele>712.6</ele>
        <time>2026-07-09T09:35:27.000Z</time>
      </trkpt>
      <trkpt lat="45.81385" lon="1.87912">
        <ele>713</ele>
        <time>2026-07-09T09:35:28.000Z</time>
      </trkpt>
      <trkpt lat="45.81384" lon="1.87914">
        <ele>712.3</ele>
        <time>2026-07-09T09:35:29.000Z</time>
      </trkpt>
      <trkpt lat="45.81382" lon="1.87917">
        <ele>711.8</ele>
        <time>2026-07-09T09:35:30.000Z</time>
      </trkpt>
      <trkpt lat="45.81381" lon="1.87919">
        <ele>711.5</ele>
        <time>2026-07-09T09:35:31.000Z</time>
      </trkpt>
      <trkpt lat="45.81379" lon="1.87921">
        <ele>711.5</ele>
        <time>2026-07-09T09:35:32.000Z</time>
      </trkpt>
      <trkpt lat="45.81377" lon="1.87922">
        <ele>711.4</ele>
        <time>2026-07-09T09:35:33.000Z</time>
      </trkpt>
      <trkpt lat="45.81374" lon="1.87923">
        <ele>711.7</ele>
        <time>2026-07-09T09:35:34.000Z</time>
      </trkpt>
      <trkpt lat="45.81373" lon="1.87923">
        <ele>712</ele>
        <time>2026-07-09T09:35:35.000Z</time>
      </trkpt>
      <trkpt lat="45.81371" lon="1.87923">
        <ele>710.1</ele>
        <time>2026-07-09T09:35:36.000Z</time>
      </trkpt>
      <trkpt lat="45.8137" lon="1.87923">
        <ele>709.1</ele>
        <time>2026-07-09T09:35:37.000Z</time>
      </trkpt>
      <trkpt lat="45.81368" lon="1.87922">
        <ele>709.5</ele>
        <time>2026-07-09T09:35:38.000Z</time>
      </trkpt>
      <trkpt lat="45.81366" lon="1.87922">
        <ele>708.2</ele>
        <time>2026-07-09T09:35:39.000Z</time>
      </trkpt>
      <trkpt lat="45.81365" lon="1.87923">
        <ele>707.5</ele>
        <time>2026-07-09T09:35:40.000Z</time>
      </trkpt>
      <trkpt lat="45.81364" lon="1.87924">
        <ele>706.5</ele>
        <time>2026-07-09T09:35:41.000Z</time>
      </trkpt>
      <trkpt lat="45.81362" lon="1.87925">
        <ele>705.7</ele>
        <time>2026-07-09T09:35:42.000Z</time>
      </trkpt>
      <trkpt lat="45.8136" lon="1.87926">
        <ele>706.5</ele>
        <time>2026-07-09T09:35:43.000Z</time>
      </trkpt>
      <trkpt lat="45.81358" lon="1.87927">
        <ele>706</ele>
        <time>2026-07-09T09:35:44.000Z</time>
      </trkpt>
      <trkpt lat="45.81356" lon="1.87928">
        <ele>705.4</ele>
        <time>2026-07-09T09:35:45.000Z</time>
      </trkpt>
      <trkpt lat="45.81354" lon="1.87928">
        <ele>705.3</ele>
        <time>2026-07-09T09:35:46.000Z</time>
      </trkpt>
      <trkpt lat="45.81352" lon="1.87929">
        <ele>704.5</ele>
        <time>2026-07-09T09:35:47.000Z</time>
      </trkpt>
      <trkpt lat="45.8135" lon="1.8793">
        <ele>704.3</ele>
        <time>2026-07-09T09:35:48.000Z</time>
      </trkpt>
      <trkpt lat="45.81347" lon="1.87931">
        <ele>704.4</ele>
        <time>2026-07-09T09:35:49.000Z</time>
      </trkpt>
      <trkpt lat="45.81345" lon="1.87933">
        <ele>704.5</ele>
        <time>2026-07-09T09:35:50.000Z</time>
      </trkpt>
      <trkpt lat="45.81343" lon="1.87934">
        <ele>703.7</ele>
        <time>2026-07-09T09:35:51.000Z</time>
      </trkpt>
      <trkpt lat="45.8134" lon="1.87935">
        <ele>702.3</ele>
        <time>2026-07-09T09:35:52.000Z</time>
      </trkpt>
      <trkpt lat="45.81339" lon="1.87936">
        <ele>701.3</ele>
        <time>2026-07-09T09:35:53.000Z</time>
      </trkpt>
      <trkpt lat="45.81337" lon="1.87937">
        <ele>701.2</ele>
        <time>2026-07-09T09:35:54.000Z</time>
      </trkpt>
      <trkpt lat="45.81334" lon="1.87938">
        <ele>700.4</ele>
        <time>2026-07-09T09:35:55.000Z</time>
      </trkpt>
      <trkpt lat="45.81331" lon="1.87938">
        <ele>700.8</ele>
        <time>2026-07-09T09:35:56.000Z</time>
      </trkpt>
      <trkpt lat="45.81329" lon="1.87938">
        <ele>700.3</ele>
        <time>2026-07-09T09:35:57.000Z</time>
      </trkpt>
      <trkpt lat="45.81325" lon="1.87938">
        <ele>699.8</ele>
        <time>2026-07-09T09:35:58.000Z</time>
      </trkpt>
      <trkpt lat="45.81323" lon="1.87939">
        <ele>700.2</ele>
        <time>2026-07-09T09:35:59.000Z</time>
      </trkpt>
      <trkpt lat="45.8132" lon="1.8794">
        <ele>700.1</ele>
        <time>2026-07-09T09:36:00.000Z</time>
      </trkpt>
      <trkpt lat="45.81317" lon="1.8794">
        <ele>700.6</ele>
        <time>2026-07-09T09:36:01.000Z</time>
      </trkpt>
      <trkpt lat="45.81315" lon="1.87941">
        <ele>700.5</ele>
        <time>2026-07-09T09:36:02.000Z</time>
      </trkpt>
      <trkpt lat="45.81313" lon="1.87941">
        <ele>700.6</ele>
        <time>2026-07-09T09:36:03.000Z</time>
      </trkpt>
      <trkpt lat="45.81311" lon="1.87941">
        <ele>699.9</ele>
        <time>2026-07-09T09:36:04.000Z</time>
      </trkpt>
      <trkpt lat="45.81309" lon="1.87941">
        <ele>699.6</ele>
        <time>2026-07-09T09:36:05.000Z</time>
      </trkpt>
      <trkpt lat="45.81308" lon="1.87939">
        <ele>699.8</ele>
        <time>2026-07-09T09:36:06.000Z</time>
      </trkpt>
      <trkpt lat="45.81306" lon="1.87938">
        <ele>699.7</ele>
        <time>2026-07-09T09:36:07.000Z</time>
      </trkpt>
      <trkpt lat="45.81304" lon="1.87937">
        <ele>699.1</ele>
        <time>2026-07-09T09:36:08.000Z</time>
      </trkpt>
      <trkpt lat="45.81302" lon="1.87936">
        <ele>698.2</ele>
        <time>2026-07-09T09:36:09.000Z</time>
      </trkpt>
      <trkpt lat="45.813" lon="1.87936">
        <ele>697.7</ele>
        <time>2026-07-09T09:36:10.000Z</time>
      </trkpt>
      <trkpt lat="45.81298" lon="1.87935">
        <ele>697.6</ele>
        <time>2026-07-09T09:36:11.000Z</time>
      </trkpt>
      <trkpt lat="45.81295" lon="1.87935">
        <ele>695.8</ele>
        <time>2026-07-09T09:36:12.000Z</time>
      </trkpt>
      <trkpt lat="45.81293" lon="1.87935">
        <ele>695.3</ele>
        <time>2026-07-09T09:36:13.000Z</time>
      </trkpt>
      <trkpt lat="45.81291" lon="1.87935">
        <ele>696.7</ele>
        <time>2026-07-09T09:36:14.000Z</time>
      </trkpt>
      <trkpt lat="45.81289" lon="1.87936">
        <ele>697.2</ele>
        <time>2026-07-09T09:36:15.000Z</time>
      </trkpt>
      <trkpt lat="45.81287" lon="1.87937">
        <ele>697.1</ele>
        <time>2026-07-09T09:36:16.000Z</time>
      </trkpt>
      <trkpt lat="45.81285" lon="1.87937">
        <ele>696.9</ele>
        <time>2026-07-09T09:36:17.000Z</time>
      </trkpt>
      <trkpt lat="45.81283" lon="1.87937">
        <ele>698</ele>
        <time>2026-07-09T09:36:18.000Z</time>
      </trkpt>
      <trkpt lat="45.81282" lon="1.87938">
        <ele>698.9</ele>
        <time>2026-07-09T09:36:19.000Z</time>
      </trkpt>
      <trkpt lat="45.8128" lon="1.87938">
        <ele>699.4</ele>
        <time>2026-07-09T09:36:20.000Z</time>
      </trkpt>
      <trkpt lat="45.81278" lon="1.87939">
        <ele>700.1</ele>
        <time>2026-07-09T09:36:21.000Z</time>
      </trkpt>
      <trkpt lat="45.81277" lon="1.8794">
        <ele>700.9</ele>
        <time>2026-07-09T09:36:22.000Z</time>
      </trkpt>
      <trkpt lat="45.81276" lon="1.87941">
        <ele>701.2</ele>
        <time>2026-07-09T09:36:23.000Z</time>
      </trkpt>
      <trkpt lat="45.81275" lon="1.87943">
        <ele>700.7</ele>
        <time>2026-07-09T09:36:24.000Z</time>
      </trkpt>
      <trkpt lat="45.81274" lon="1.87944">
        <ele>701</ele>
        <time>2026-07-09T09:36:25.000Z</time>
      </trkpt>
      <trkpt lat="45.81273" lon="1.87946">
        <ele>702.5</ele>
        <time>2026-07-09T09:36:26.000Z</time>
      </trkpt>
      <trkpt lat="45.81272" lon="1.87948">
        <ele>701.9</ele>
        <time>2026-07-09T09:36:27.000Z</time>
      </trkpt>
      <trkpt lat="45.81271" lon="1.87951">
        <ele>701.3</ele>
        <time>2026-07-09T09:36:28.000Z</time>
      </trkpt>
      <trkpt lat="45.8127" lon="1.87953">
        <ele>700.5</ele>
        <time>2026-07-09T09:36:29.000Z</time>
      </trkpt>
      <trkpt lat="45.81268" lon="1.87955">
        <ele>701.6</ele>
        <time>2026-07-09T09:36:30.000Z</time>
      </trkpt>
      <trkpt lat="45.81265" lon="1.87957">
        <ele>704</ele>
        <time>2026-07-09T09:36:31.000Z</time>
      </trkpt>
      <trkpt lat="45.81262" lon="1.87959">
        <ele>705.1</ele>
        <time>2026-07-09T09:36:32.000Z</time>
      </trkpt>
      <trkpt lat="45.81259" lon="1.87964">
        <ele>705</ele>
        <time>2026-07-09T09:36:33.000Z</time>
      </trkpt>
      <trkpt lat="45.81257" lon="1.87969">
        <ele>703.6</ele>
        <time>2026-07-09T09:36:34.000Z</time>
      </trkpt>
      <trkpt lat="45.81256" lon="1.87974">
        <ele>703.9</ele>
        <time>2026-07-09T09:36:35.000Z</time>
      </trkpt>
      <trkpt lat="45.81255" lon="1.87979">
        <ele>704.2</ele>
        <time>2026-07-09T09:36:36.000Z</time>
      </trkpt>
      <trkpt lat="45.81252" lon="1.87984">
        <ele>705.2</ele>
        <time>2026-07-09T09:36:37.000Z</time>
      </trkpt>
      <trkpt lat="45.81249" lon="1.87988">
        <ele>702.5</ele>
        <time>2026-07-09T09:36:38.000Z</time>
      </trkpt>
      <trkpt lat="45.81245" lon="1.87991">
        <ele>701.9</ele>
        <time>2026-07-09T09:36:39.000Z</time>
      </trkpt>
      <trkpt lat="45.81242" lon="1.87993">
        <ele>701.3</ele>
        <time>2026-07-09T09:36:40.000Z</time>
      </trkpt>
      <trkpt lat="45.81238" lon="1.87997">
        <ele>701.7</ele>
        <time>2026-07-09T09:36:41.000Z</time>
      </trkpt>
      <trkpt lat="45.81235" lon="1.88001">
        <ele>702.3</ele>
        <time>2026-07-09T09:36:42.000Z</time>
      </trkpt>
      <trkpt lat="45.81231" lon="1.88005">
        <ele>702.2</ele>
        <time>2026-07-09T09:36:43.000Z</time>
      </trkpt>
      <trkpt lat="45.81229" lon="1.8801">
        <ele>701.8</ele>
        <time>2026-07-09T09:36:44.000Z</time>
      </trkpt>
      <trkpt lat="45.81228" lon="1.88015">
        <ele>702.6</ele>
        <time>2026-07-09T09:36:45.000Z</time>
      </trkpt>
      <trkpt lat="45.81228" lon="1.88019">
        <ele>703.6</ele>
        <time>2026-07-09T09:36:46.000Z</time>
      </trkpt>
      <trkpt lat="45.81227" lon="1.88024">
        <ele>704.7</ele>
        <time>2026-07-09T09:36:47.000Z</time>
      </trkpt>
      <trkpt lat="45.81228" lon="1.88029">
        <ele>705.2</ele>
        <time>2026-07-09T09:36:48.000Z</time>
      </trkpt>
      <trkpt lat="45.81229" lon="1.88033">
        <ele>706.8</ele>
        <time>2026-07-09T09:36:49.000Z</time>
      </trkpt>
      <trkpt lat="45.81228" lon="1.88038">
        <ele>707.4</ele>
        <time>2026-07-09T09:36:50.000Z</time>
      </trkpt>
      <trkpt lat="45.81227" lon="1.88045">
        <ele>709</ele>
        <time>2026-07-09T09:36:51.000Z</time>
      </trkpt>
      <trkpt lat="45.81223" lon="1.88051">
        <ele>711.5</ele>
        <time>2026-07-09T09:36:52.000Z</time>
      </trkpt>
      <trkpt lat="45.81219" lon="1.88057">
        <ele>712.2</ele>
        <time>2026-07-09T09:36:53.000Z</time>
      </trkpt>
      <trkpt lat="45.81215" lon="1.88063">
        <ele>712.4</ele>
        <time>2026-07-09T09:36:54.000Z</time>
      </trkpt>
      <trkpt lat="45.81212" lon="1.88069">
        <ele>713.6</ele>
        <time>2026-07-09T09:36:55.000Z</time>
      </trkpt>
      <trkpt lat="45.81208" lon="1.88075">
        <ele>713.8</ele>
        <time>2026-07-09T09:36:56.000Z</time>
      </trkpt>
      <trkpt lat="45.81203" lon="1.8808">
        <ele>714.1</ele>
        <time>2026-07-09T09:36:57.000Z</time>
      </trkpt>
      <trkpt lat="45.81199" lon="1.88085">
        <ele>715.7</ele>
        <time>2026-07-09T09:36:58.000Z</time>
      </trkpt>
      <trkpt lat="45.81195" lon="1.88089">
        <ele>716</ele>
        <time>2026-07-09T09:36:59.000Z</time>
      </trkpt>
      <trkpt lat="45.81192" lon="1.88093">
        <ele>715.2</ele>
        <time>2026-07-09T09:37:00.000Z</time>
      </trkpt>
      <trkpt lat="45.8119" lon="1.88097">
        <ele>714</ele>
        <time>2026-07-09T09:37:01.000Z</time>
      </trkpt>
      <trkpt lat="45.81186" lon="1.88103">
        <ele>714.6</ele>
        <time>2026-07-09T09:37:02.000Z</time>
      </trkpt>
      <trkpt lat="45.81182" lon="1.88109">
        <ele>715.4</ele>
        <time>2026-07-09T09:37:03.000Z</time>
      </trkpt>
      <trkpt lat="45.81179" lon="1.88114">
        <ele>716.2</ele>
        <time>2026-07-09T09:37:04.000Z</time>
      </trkpt>
      <trkpt lat="45.81176" lon="1.88119">
        <ele>717</ele>
        <time>2026-07-09T09:37:05.000Z</time>
      </trkpt>
      <trkpt lat="45.81176" lon="1.88121">
        <ele>716.9</ele>
        <time>2026-07-09T09:37:06.000Z</time>
      </trkpt>
      <trkpt lat="45.81175" lon="1.88124">
        <ele>717.3</ele>
        <time>2026-07-09T09:37:07.000Z</time>
      </trkpt>
      <trkpt lat="45.81173" lon="1.88127">
        <ele>717</ele>
        <time>2026-07-09T09:37:08.000Z</time>
      </trkpt>
      <trkpt lat="45.81171" lon="1.8813">
        <ele>715.6</ele>
        <time>2026-07-09T09:37:09.000Z</time>
      </trkpt>
      <trkpt lat="45.81169" lon="1.88134">
        <ele>714.6</ele>
        <time>2026-07-09T09:37:10.000Z</time>
      </trkpt>
      <trkpt lat="45.81165" lon="1.8814">
        <ele>715.8</ele>
        <time>2026-07-09T09:37:11.000Z</time>
      </trkpt>
      <trkpt lat="45.81163" lon="1.88146">
        <ele>715.7</ele>
        <time>2026-07-09T09:37:12.000Z</time>
      </trkpt>
      <trkpt lat="45.81161" lon="1.88151">
        <ele>716.9</ele>
        <time>2026-07-09T09:37:13.000Z</time>
      </trkpt>
      <trkpt lat="45.81158" lon="1.88155">
        <ele>717.1</ele>
        <time>2026-07-09T09:37:14.000Z</time>
      </trkpt>
      <trkpt lat="45.81156" lon="1.88159">
        <ele>719.3</ele>
        <time>2026-07-09T09:37:15.000Z</time>
      </trkpt>
      <trkpt lat="45.81154" lon="1.88162">
        <ele>720.6</ele>
        <time>2026-07-09T09:37:16.000Z</time>
      </trkpt>
      <trkpt lat="45.81153" lon="1.88164">
        <ele>721.9</ele>
        <time>2026-07-09T09:37:17.000Z</time>
      </trkpt>
      <trkpt lat="45.81152" lon="1.88166">
        <ele>723.7</ele>
        <time>2026-07-09T09:37:18.000Z</time>
      </trkpt>
      <trkpt lat="45.8115" lon="1.88167">
        <ele>725.9</ele>
        <time>2026-07-09T09:37:19.000Z</time>
      </trkpt>
      <trkpt lat="45.81149" lon="1.88169">
        <ele>726.7</ele>
        <time>2026-07-09T09:37:20.000Z</time>
      </trkpt>
      <trkpt lat="45.81147" lon="1.8817">
        <ele>726.3</ele>
        <time>2026-07-09T09:37:21.000Z</time>
      </trkpt>
      <trkpt lat="45.81145" lon="1.88172">
        <ele>726.3</ele>
        <time>2026-07-09T09:37:22.000Z</time>
      </trkpt>
      <trkpt lat="45.81143" lon="1.88174">
        <ele>727.1</ele>
        <time>2026-07-09T09:37:23.000Z</time>
      </trkpt>
      <trkpt lat="45.81141" lon="1.88173">
        <ele>726.5</ele>
        <time>2026-07-09T09:37:24.000Z</time>
      </trkpt>
      <trkpt lat="45.8114" lon="1.88171">
        <ele>728.1</ele>
        <time>2026-07-09T09:37:25.000Z</time>
      </trkpt>
      <trkpt lat="45.81139" lon="1.8817">
        <ele>727.4</ele>
        <time>2026-07-09T09:37:26.000Z</time>
      </trkpt>
      <trkpt lat="45.81138" lon="1.88169">
        <ele>726.9</ele>
        <time>2026-07-09T09:37:27.000Z</time>
      </trkpt>
      <trkpt lat="45.81136" lon="1.88169">
        <ele>728.2</ele>
        <time>2026-07-09T09:37:28.000Z</time>
      </trkpt>
      <trkpt lat="45.81135" lon="1.8817">
        <ele>729.1</ele>
        <time>2026-07-09T09:37:29.000Z</time>
      </trkpt>
      <trkpt lat="45.81135" lon="1.88172">
        <ele>728.1</ele>
        <time>2026-07-09T09:37:30.000Z</time>
      </trkpt>
      <trkpt lat="45.81136" lon="1.88171">
        <ele>727</ele>
        <time>2026-07-09T09:37:31.000Z</time>
      </trkpt>
      <trkpt lat="45.81137" lon="1.88171">
        <ele>726.4</ele>
        <time>2026-07-09T09:37:32.000Z</time>
      </trkpt>
      <trkpt lat="45.81136" lon="1.88176">
        <ele>726.1</ele>
        <time>2026-07-09T09:37:33.000Z</time>
      </trkpt>
      <trkpt lat="45.81136" lon="1.88173">
        <ele>726.2</ele>
        <time>2026-07-09T09:37:34.000Z</time>
      </trkpt>
      <trkpt lat="45.81136" lon="1.88173">
        <ele>726.2</ele>
        <time>2026-07-09T09:37:35.000Z</time>
      </trkpt>
      <trkpt lat="45.81135" lon="1.88173">
        <ele>725.9</ele>
        <time>2026-07-09T09:37:36.000Z</time>
      </trkpt>
      <trkpt lat="45.81135" lon="1.88174">
        <ele>725.3</ele>
        <time>2026-07-09T09:37:37.000Z</time>
      </trkpt>
      <trkpt lat="45.81134" lon="1.88175">
        <ele>725</ele>
        <time>2026-07-09T09:37:38.000Z</time>
      </trkpt>
      <trkpt lat="45.81133" lon="1.88176">
        <ele>725.8</ele>
        <time>2026-07-09T09:37:39.000Z</time>
      </trkpt>
      <trkpt lat="45.81132" lon="1.88176">
        <ele>725.9</ele>
        <time>2026-07-09T09:37:40.000Z</time>
      </trkpt>
      <trkpt lat="45.81131" lon="1.88177">
        <ele>726</ele>
        <time>2026-07-09T09:37:41.000Z</time>
      </trkpt>
      <trkpt lat="45.8113" lon="1.88178">
        <ele>725.5</ele>
        <time>2026-07-09T09:37:42.000Z</time>
      </trkpt>
      <trkpt lat="45.81129" lon="1.88179">
        <ele>725.5</ele>
        <time>2026-07-09T09:37:43.000Z</time>
      </trkpt>
      <trkpt lat="45.81127" lon="1.8818">
        <ele>725.5</ele>
        <time>2026-07-09T09:37:44.000Z</time>
      </trkpt>
      <trkpt lat="45.81126" lon="1.88182">
        <ele>727.1</ele>
        <time>2026-07-09T09:37:45.000Z</time>
      </trkpt>
      <trkpt lat="45.81124" lon="1.88183">
        <ele>727.2</ele>
        <time>2026-07-09T09:37:46.000Z</time>
      </trkpt>
      <trkpt lat="45.81123" lon="1.88185">
        <ele>726.8</ele>
        <time>2026-07-09T09:37:47.000Z</time>
      </trkpt>
      <trkpt lat="45.81121" lon="1.88186">
        <ele>727.1</ele>
        <time>2026-07-09T09:37:48.000Z</time>
      </trkpt>
      <trkpt lat="45.8112" lon="1.88186">
        <ele>725.9</ele>
        <time>2026-07-09T09:37:49.000Z</time>
      </trkpt>
      <trkpt lat="45.81119" lon="1.88187">
        <ele>725.5</ele>
        <time>2026-07-09T09:37:50.000Z</time>
      </trkpt>
      <trkpt lat="45.81118" lon="1.88187">
        <ele>725.5</ele>
        <time>2026-07-09T09:37:51.000Z</time>
      </trkpt>
      <trkpt lat="45.81116" lon="1.88188">
        <ele>725.9</ele>
        <time>2026-07-09T09:37:52.000Z</time>
      </trkpt>
      <trkpt lat="45.81115" lon="1.88189">
        <ele>726.1</ele>
        <time>2026-07-09T09:37:53.000Z</time>
      </trkpt>
      <trkpt lat="45.81113" lon="1.8819">
        <ele>725.8</ele>
        <time>2026-07-09T09:37:54.000Z</time>
      </trkpt>
      <trkpt lat="45.81111" lon="1.8819">
        <ele>725</ele>
        <time>2026-07-09T09:37:55.000Z</time>
      </trkpt>
      <trkpt lat="45.8111" lon="1.88191">
        <ele>724.9</ele>
        <time>2026-07-09T09:37:56.000Z</time>
      </trkpt>
      <trkpt lat="45.81108" lon="1.88192">
        <ele>724.8</ele>
        <time>2026-07-09T09:37:57.000Z</time>
      </trkpt>
      <trkpt lat="45.81106" lon="1.88192">
        <ele>724.2</ele>
        <time>2026-07-09T09:37:58.000Z</time>
      </trkpt>
      <trkpt lat="45.81105" lon="1.88193">
        <ele>723.8</ele>
        <time>2026-07-09T09:37:59.000Z</time>
      </trkpt>
      <trkpt lat="45.81103" lon="1.88193">
        <ele>723.7</ele>
        <time>2026-07-09T09:38:00.000Z</time>
      </trkpt>
      <trkpt lat="45.81101" lon="1.88194">
        <ele>723.7</ele>
        <time>2026-07-09T09:38:01.000Z</time>
      </trkpt>
      <trkpt lat="45.81099" lon="1.88192">
        <ele>723.9</ele>
        <time>2026-07-09T09:38:02.000Z</time>
      </trkpt>
      <trkpt lat="45.81098" lon="1.88188">
        <ele>723.8</ele>
        <time>2026-07-09T09:38:03.000Z</time>
      </trkpt>
      <trkpt lat="45.811" lon="1.88186">
        <ele>726.3</ele>
        <time>2026-07-09T09:38:04.000Z</time>
      </trkpt>
      <trkpt lat="45.81101" lon="1.88185">
        <ele>727.1</ele>
        <time>2026-07-09T09:38:05.000Z</time>
      </trkpt>
      <trkpt lat="45.81101" lon="1.88183">
        <ele>727.8</ele>
        <time>2026-07-09T09:38:06.000Z</time>
      </trkpt>
      <trkpt lat="45.81098" lon="1.88179">
        <ele>730.8</ele>
        <time>2026-07-09T09:38:07.000Z</time>
      </trkpt>
      <trkpt lat="45.81095" lon="1.88178">
        <ele>731.9</ele>
        <time>2026-07-09T09:38:08.000Z</time>
      </trkpt>
      <trkpt lat="45.81092" lon="1.88179">
        <ele>732.2</ele>
        <time>2026-07-09T09:38:09.000Z</time>
      </trkpt>
      <trkpt lat="45.81089" lon="1.88181">
        <ele>732.7</ele>
        <time>2026-07-09T09:38:10.000Z</time>
      </trkpt>
      <trkpt lat="45.81087" lon="1.88182">
        <ele>732.9</ele>
        <time>2026-07-09T09:38:11.000Z</time>
      </trkpt>
      <trkpt lat="45.81084" lon="1.88184">
        <ele>733.2</ele>
        <time>2026-07-09T09:38:12.000Z</time>
      </trkpt>
      <trkpt lat="45.81082" lon="1.88185">
        <ele>732.6</ele>
        <time>2026-07-09T09:38:13.000Z</time>
      </trkpt>
      <trkpt lat="45.8108" lon="1.88187">
        <ele>732.4</ele>
        <time>2026-07-09T09:38:14.000Z</time>
      </trkpt>
      <trkpt lat="45.81078" lon="1.88188">
        <ele>731.9</ele>
        <time>2026-07-09T09:38:15.000Z</time>
      </trkpt>
      <trkpt lat="45.81077" lon="1.88189">
        <ele>731.3</ele>
        <time>2026-07-09T09:38:16.000Z</time>
      </trkpt>
      <trkpt lat="45.81075" lon="1.8819">
        <ele>731.3</ele>
        <time>2026-07-09T09:38:17.000Z</time>
      </trkpt>
      <trkpt lat="45.81073" lon="1.8819">
        <ele>731.3</ele>
        <time>2026-07-09T09:38:18.000Z</time>
      </trkpt>
      <trkpt lat="45.81072" lon="1.88191">
        <ele>731.2</ele>
        <time>2026-07-09T09:38:19.000Z</time>
      </trkpt>
      <trkpt lat="45.8107" lon="1.88191">
        <ele>730.2</ele>
        <time>2026-07-09T09:38:20.000Z</time>
      </trkpt>
      <trkpt lat="45.81068" lon="1.88192">
        <ele>730.3</ele>
        <time>2026-07-09T09:38:21.000Z</time>
      </trkpt>
      <trkpt lat="45.81067" lon="1.88192">
        <ele>730.2</ele>
        <time>2026-07-09T09:38:22.000Z</time>
      </trkpt>
      <trkpt lat="45.81065" lon="1.88192">
        <ele>729.8</ele>
        <time>2026-07-09T09:38:23.000Z</time>
      </trkpt>
      <trkpt lat="45.81063" lon="1.88191">
        <ele>729.5</ele>
        <time>2026-07-09T09:38:24.000Z</time>
      </trkpt>
      <trkpt lat="45.81061" lon="1.88191">
        <ele>729.2</ele>
        <time>2026-07-09T09:38:25.000Z</time>
      </trkpt>
      <trkpt lat="45.81059" lon="1.88191">
        <ele>728.7</ele>
        <time>2026-07-09T09:38:26.000Z</time>
      </trkpt>
      <trkpt lat="45.81057" lon="1.88191">
        <ele>728.3</ele>
        <time>2026-07-09T09:38:27.000Z</time>
      </trkpt>
      <trkpt lat="45.81056" lon="1.88191">
        <ele>728.2</ele>
        <time>2026-07-09T09:38:28.000Z</time>
      </trkpt>
      <trkpt lat="45.81054" lon="1.8819">
        <ele>728</ele>
        <time>2026-07-09T09:38:29.000Z</time>
      </trkpt>
      <trkpt lat="45.81052" lon="1.8819">
        <ele>727.8</ele>
        <time>2026-07-09T09:38:30.000Z</time>
      </trkpt>
      <trkpt lat="45.81051" lon="1.88189">
        <ele>727.6</ele>
        <time>2026-07-09T09:38:31.000Z</time>
      </trkpt>
      <trkpt lat="45.81049" lon="1.88188">
        <ele>727.3</ele>
        <time>2026-07-09T09:38:32.000Z</time>
      </trkpt>
      <trkpt lat="45.81048" lon="1.88187">
        <ele>727.1</ele>
        <time>2026-07-09T09:38:33.000Z</time>
      </trkpt>
      <trkpt lat="45.81046" lon="1.88186">
        <ele>727.1</ele>
        <time>2026-07-09T09:38:34.000Z</time>
      </trkpt>
      <trkpt lat="45.81044" lon="1.88186">
        <ele>727.1</ele>
        <time>2026-07-09T09:38:35.000Z</time>
      </trkpt>
      <trkpt lat="45.81043" lon="1.88184">
        <ele>726.8</ele>
        <time>2026-07-09T09:38:36.000Z</time>
      </trkpt>
      <trkpt lat="45.81041" lon="1.88183">
        <ele>726.6</ele>
        <time>2026-07-09T09:38:37.000Z</time>
      </trkpt>
      <trkpt lat="45.81039" lon="1.88182">
        <ele>726.3</ele>
        <time>2026-07-09T09:38:38.000Z</time>
      </trkpt>
      <trkpt lat="45.81038" lon="1.88181">
        <ele>726.1</ele>
        <time>2026-07-09T09:38:39.000Z</time>
      </trkpt>
      <trkpt lat="45.81036" lon="1.8818">
        <ele>726.1</ele>
        <time>2026-07-09T09:38:40.000Z</time>
      </trkpt>
      <trkpt lat="45.81035" lon="1.88179">
        <ele>726</ele>
        <time>2026-07-09T09:38:41.000Z</time>
      </trkpt>
      <trkpt lat="45.81033" lon="1.88177">
        <ele>725.6</ele>
        <time>2026-07-09T09:38:42.000Z</time>
      </trkpt>
      <trkpt lat="45.81031" lon="1.88176">
        <ele>725.5</ele>
        <time>2026-07-09T09:38:43.000Z</time>
      </trkpt>
      <trkpt lat="45.8103" lon="1.88176">
        <ele>725.3</ele>
        <time>2026-07-09T09:38:44.000Z</time>
      </trkpt>
      <trkpt lat="45.81028" lon="1.88175">
        <ele>725.1</ele>
        <time>2026-07-09T09:38:45.000Z</time>
      </trkpt>
      <trkpt lat="45.81027" lon="1.88173">
        <ele>724.6</ele>
        <time>2026-07-09T09:38:46.000Z</time>
      </trkpt>
      <trkpt lat="45.81026" lon="1.88172">
        <ele>724.4</ele>
        <time>2026-07-09T09:38:47.000Z</time>
      </trkpt>
      <trkpt lat="45.81024" lon="1.88171">
        <ele>724.2</ele>
        <time>2026-07-09T09:38:48.000Z</time>
      </trkpt>
      <trkpt lat="45.81023" lon="1.8817">
        <ele>724.2</ele>
        <time>2026-07-09T09:38:49.000Z</time>
      </trkpt>
      <trkpt lat="45.81021" lon="1.8817">
        <ele>723.9</ele>
        <time>2026-07-09T09:38:50.000Z</time>
      </trkpt>
      <trkpt lat="45.8102" lon="1.88169">
        <ele>724</ele>
        <time>2026-07-09T09:38:51.000Z</time>
      </trkpt>
      <trkpt lat="45.81018" lon="1.88168">
        <ele>723.8</ele>
        <time>2026-07-09T09:38:52.000Z</time>
      </trkpt>
      <trkpt lat="45.81017" lon="1.88166">
        <ele>723.4</ele>
        <time>2026-07-09T09:38:53.000Z</time>
      </trkpt>
      <trkpt lat="45.81015" lon="1.88165">
        <ele>723.3</ele>
        <time>2026-07-09T09:38:54.000Z</time>
      </trkpt>
      <trkpt lat="45.81013" lon="1.88164">
        <ele>723.1</ele>
        <time>2026-07-09T09:38:55.000Z</time>
      </trkpt>
      <trkpt lat="45.81012" lon="1.88163">
        <ele>722.8</ele>
        <time>2026-07-09T09:38:56.000Z</time>
      </trkpt>
      <trkpt lat="45.8101" lon="1.88162">
        <ele>722.8</ele>
        <time>2026-07-09T09:38:57.000Z</time>
      </trkpt>
      <trkpt lat="45.81009" lon="1.88161">
        <ele>722.8</ele>
        <time>2026-07-09T09:38:58.000Z</time>
      </trkpt>
      <trkpt lat="45.81007" lon="1.8816">
        <ele>722.4</ele>
        <time>2026-07-09T09:38:59.000Z</time>
      </trkpt>
      <trkpt lat="45.81006" lon="1.88159">
        <ele>722</ele>
        <time>2026-07-09T09:39:00.000Z</time>
      </trkpt>
      <trkpt lat="45.81005" lon="1.88158">
        <ele>722</ele>
        <time>2026-07-09T09:39:01.000Z</time>
      </trkpt>
      <trkpt lat="45.81003" lon="1.88156">
        <ele>721.6</ele>
        <time>2026-07-09T09:39:02.000Z</time>
      </trkpt>
      <trkpt lat="45.81002" lon="1.88155">
        <ele>721.8</ele>
        <time>2026-07-09T09:39:03.000Z</time>
      </trkpt>
      <trkpt lat="45.81" lon="1.88154">
        <ele>721.6</ele>
        <time>2026-07-09T09:39:04.000Z</time>
      </trkpt>
      <trkpt lat="45.80998" lon="1.88154">
        <ele>721.7</ele>
        <time>2026-07-09T09:39:05.000Z</time>
      </trkpt>
      <trkpt lat="45.80996" lon="1.88153">
        <ele>721.7</ele>
        <time>2026-07-09T09:39:06.000Z</time>
      </trkpt>
      <trkpt lat="45.80995" lon="1.88151">
        <ele>721.5</ele>
        <time>2026-07-09T09:39:07.000Z</time>
      </trkpt>
      <trkpt lat="45.80993" lon="1.8815">
        <ele>721.5</ele>
        <time>2026-07-09T09:39:08.000Z</time>
      </trkpt>
      <trkpt lat="45.80992" lon="1.88149">
        <ele>721.6</ele>
        <time>2026-07-09T09:39:09.000Z</time>
      </trkpt>
      <trkpt lat="45.80991" lon="1.88148">
        <ele>721.6</ele>
        <time>2026-07-09T09:39:10.000Z</time>
      </trkpt>
      <trkpt lat="45.80989" lon="1.88146">
        <ele>721.4</ele>
        <time>2026-07-09T09:39:11.000Z</time>
      </trkpt>
      <trkpt lat="45.80987" lon="1.88145">
        <ele>721</ele>
        <time>2026-07-09T09:39:12.000Z</time>
      </trkpt>
      <trkpt lat="45.80986" lon="1.88144">
        <ele>720.9</ele>
        <time>2026-07-09T09:39:13.000Z</time>
      </trkpt>
      <trkpt lat="45.80985" lon="1.88142">
        <ele>721</ele>
        <time>2026-07-09T09:39:14.000Z</time>
      </trkpt>
      <trkpt lat="45.80983" lon="1.88141">
        <ele>721</ele>
        <time>2026-07-09T09:39:15.000Z</time>
      </trkpt>
      <trkpt lat="45.80982" lon="1.8814">
        <ele>721</ele>
        <time>2026-07-09T09:39:16.000Z</time>
      </trkpt>
      <trkpt lat="45.8098" lon="1.88142">
        <ele>721</ele>
        <time>2026-07-09T09:39:17.000Z</time>
      </trkpt>
      <trkpt lat="45.80979" lon="1.88137">
        <ele>720.4</ele>
        <time>2026-07-09T09:39:18.000Z</time>
      </trkpt>
      <trkpt lat="45.80977" lon="1.88135">
        <ele>720.7</ele>
        <time>2026-07-09T09:39:19.000Z</time>
      </trkpt>
      <trkpt lat="45.80976" lon="1.88134">
        <ele>721</ele>
        <time>2026-07-09T09:39:20.000Z</time>
      </trkpt>
      <trkpt lat="45.80974" lon="1.88133">
        <ele>721</ele>
        <time>2026-07-09T09:39:21.000Z</time>
      </trkpt>
      <trkpt lat="45.80973" lon="1.88132">
        <ele>721.2</ele>
        <time>2026-07-09T09:39:22.000Z</time>
      </trkpt>
      <trkpt lat="45.80971" lon="1.88131">
        <ele>720.6</ele>
        <time>2026-07-09T09:39:23.000Z</time>
      </trkpt>
      <trkpt lat="45.80969" lon="1.8813">
        <ele>720.6</ele>
        <time>2026-07-09T09:39:24.000Z</time>
      </trkpt>
      <trkpt lat="45.80968" lon="1.88128">
        <ele>720.6</ele>
        <time>2026-07-09T09:39:25.000Z</time>
      </trkpt>
      <trkpt lat="45.80966" lon="1.88128">
        <ele>720.5</ele>
        <time>2026-07-09T09:39:26.000Z</time>
      </trkpt>
      <trkpt lat="45.80964" lon="1.88127">
        <ele>720.5</ele>
        <time>2026-07-09T09:39:27.000Z</time>
      </trkpt>
      <trkpt lat="45.80963" lon="1.88126">
        <ele>720.3</ele>
        <time>2026-07-09T09:39:28.000Z</time>
      </trkpt>
      <trkpt lat="45.80961" lon="1.88124">
        <ele>720</ele>
        <time>2026-07-09T09:39:29.000Z</time>
      </trkpt>
      <trkpt lat="45.80959" lon="1.88123">
        <ele>719.8</ele>
        <time>2026-07-09T09:39:30.000Z</time>
      </trkpt>
      <trkpt lat="45.80958" lon="1.88123">
        <ele>720.2</ele>
        <time>2026-07-09T09:39:31.000Z</time>
      </trkpt>
      <trkpt lat="45.80956" lon="1.88122">
        <ele>719.9</ele>
        <time>2026-07-09T09:39:32.000Z</time>
      </trkpt>
      <trkpt lat="45.80954" lon="1.88121">
        <ele>720</ele>
        <time>2026-07-09T09:39:33.000Z</time>
      </trkpt>
      <trkpt lat="45.80952" lon="1.88121">
        <ele>719.5</ele>
        <time>2026-07-09T09:39:34.000Z</time>
      </trkpt>
      <trkpt lat="45.80951" lon="1.8812">
        <ele>719.3</ele>
        <time>2026-07-09T09:39:35.000Z</time>
      </trkpt>
      <trkpt lat="45.80949" lon="1.8812">
        <ele>718.8</ele>
        <time>2026-07-09T09:39:36.000Z</time>
      </trkpt>
      <trkpt lat="45.80948" lon="1.8812">
        <ele>718.6</ele>
        <time>2026-07-09T09:39:37.000Z</time>
      </trkpt>
      <trkpt lat="45.80946" lon="1.88119">
        <ele>718.3</ele>
        <time>2026-07-09T09:39:38.000Z</time>
      </trkpt>
      <trkpt lat="45.80944" lon="1.88119">
        <ele>718.1</ele>
        <time>2026-07-09T09:39:39.000Z</time>
      </trkpt>
      <trkpt lat="45.80942" lon="1.88119">
        <ele>716.4</ele>
        <time>2026-07-09T09:39:40.000Z</time>
      </trkpt>
      <trkpt lat="45.80941" lon="1.88114">
        <ele>716</ele>
        <time>2026-07-09T09:39:41.000Z</time>
      </trkpt>
      <trkpt lat="45.80939" lon="1.88117">
        <ele>716.6</ele>
        <time>2026-07-09T09:39:42.000Z</time>
      </trkpt>
      <trkpt lat="45.80937" lon="1.88118">
        <ele>716.7</ele>
        <time>2026-07-09T09:39:43.000Z</time>
      </trkpt>
      <trkpt lat="45.80935" lon="1.88118">
        <ele>716.9</ele>
        <time>2026-07-09T09:39:44.000Z</time>
      </trkpt>
      <trkpt lat="45.80933" lon="1.88118">
        <ele>716.6</ele>
        <time>2026-07-09T09:39:45.000Z</time>
      </trkpt>
      <trkpt lat="45.80931" lon="1.88118">
        <ele>716.9</ele>
        <time>2026-07-09T09:39:46.000Z</time>
      </trkpt>
      <trkpt lat="45.8093" lon="1.88117">
        <ele>716.6</ele>
        <time>2026-07-09T09:39:47.000Z</time>
      </trkpt>
      <trkpt lat="45.80928" lon="1.88116">
        <ele>716.5</ele>
        <time>2026-07-09T09:39:48.000Z</time>
      </trkpt>
      <trkpt lat="45.80926" lon="1.88116">
        <ele>716.8</ele>
        <time>2026-07-09T09:39:49.000Z</time>
      </trkpt>
      <trkpt lat="45.80924" lon="1.88116">
        <ele>716.9</ele>
        <time>2026-07-09T09:39:50.000Z</time>
      </trkpt>
      <trkpt lat="45.80922" lon="1.88115">
        <ele>714.9</ele>
        <time>2026-07-09T09:39:51.000Z</time>
      </trkpt>
      <trkpt lat="45.8092" lon="1.88115">
        <ele>713.9</ele>
        <time>2026-07-09T09:39:52.000Z</time>
      </trkpt>
      <trkpt lat="45.80919" lon="1.88114">
        <ele>713.7</ele>
        <time>2026-07-09T09:39:53.000Z</time>
      </trkpt>
      <trkpt lat="45.80917" lon="1.88115">
        <ele>713.6</ele>
        <time>2026-07-09T09:39:54.000Z</time>
      </trkpt>
      <trkpt lat="45.80915" lon="1.88116">
        <ele>713.5</ele>
        <time>2026-07-09T09:39:55.000Z</time>
      </trkpt>
      <trkpt lat="45.80914" lon="1.88116">
        <ele>713.6</ele>
        <time>2026-07-09T09:39:56.000Z</time>
      </trkpt>
      <trkpt lat="45.80912" lon="1.88115">
        <ele>714.1</ele>
        <time>2026-07-09T09:39:57.000Z</time>
      </trkpt>
      <trkpt lat="45.8091" lon="1.88115">
        <ele>714.7</ele>
        <time>2026-07-09T09:39:58.000Z</time>
      </trkpt>
      <trkpt lat="45.80909" lon="1.88114">
        <ele>714.4</ele>
        <time>2026-07-09T09:39:59.000Z</time>
      </trkpt>
      <trkpt lat="45.80907" lon="1.88114">
        <ele>714.2</ele>
        <time>2026-07-09T09:40:00.000Z</time>
      </trkpt>
      <trkpt lat="45.80905" lon="1.88114">
        <ele>713.9</ele>
        <time>2026-07-09T09:40:01.000Z</time>
      </trkpt>
      <trkpt lat="45.80903" lon="1.88114">
        <ele>713.8</ele>
        <time>2026-07-09T09:40:02.000Z</time>
      </trkpt>
      <trkpt lat="45.80901" lon="1.88113">
        <ele>714.5</ele>
        <time>2026-07-09T09:40:03.000Z</time>
      </trkpt>
      <trkpt lat="45.80899" lon="1.88113">
        <ele>714.3</ele>
        <time>2026-07-09T09:40:04.000Z</time>
      </trkpt>
      <trkpt lat="45.80897" lon="1.88113">
        <ele>714.4</ele>
        <time>2026-07-09T09:40:05.000Z</time>
      </trkpt>
      <trkpt lat="45.80895" lon="1.88112">
        <ele>714</ele>
        <time>2026-07-09T09:40:06.000Z</time>
      </trkpt>
      <trkpt lat="45.80893" lon="1.88112">
        <ele>713.9</ele>
        <time>2026-07-09T09:40:07.000Z</time>
      </trkpt>
      <trkpt lat="45.80892" lon="1.88111">
        <ele>713.6</ele>
        <time>2026-07-09T09:40:08.000Z</time>
      </trkpt>
      <trkpt lat="45.8089" lon="1.88111">
        <ele>713.2</ele>
        <time>2026-07-09T09:40:09.000Z</time>
      </trkpt>
      <trkpt lat="45.80888" lon="1.8811">
        <ele>713.1</ele>
        <time>2026-07-09T09:40:10.000Z</time>
      </trkpt>
      <trkpt lat="45.80886" lon="1.8811">
        <ele>713.6</ele>
        <time>2026-07-09T09:40:11.000Z</time>
      </trkpt>
      <trkpt lat="45.80884" lon="1.8811">
        <ele>713.3</ele>
        <time>2026-07-09T09:40:12.000Z</time>
      </trkpt>
      <trkpt lat="45.80883" lon="1.8811">
        <ele>713.3</ele>
        <time>2026-07-09T09:40:13.000Z</time>
      </trkpt>
      <trkpt lat="45.80881" lon="1.8811">
        <ele>713.2</ele>
        <time>2026-07-09T09:40:14.000Z</time>
      </trkpt>
      <trkpt lat="45.80879" lon="1.88109">
        <ele>713.4</ele>
        <time>2026-07-09T09:40:15.000Z</time>
      </trkpt>
      <trkpt lat="45.80878" lon="1.88108">
        <ele>713.9</ele>
        <time>2026-07-09T09:40:16.000Z</time>
      </trkpt>
      <trkpt lat="45.80876" lon="1.88108">
        <ele>714</ele>
        <time>2026-07-09T09:40:17.000Z</time>
      </trkpt>
      <trkpt lat="45.80874" lon="1.88107">
        <ele>713.8</ele>
        <time>2026-07-09T09:40:18.000Z</time>
      </trkpt>
      <trkpt lat="45.80872" lon="1.88107">
        <ele>712.9</ele>
        <time>2026-07-09T09:40:19.000Z</time>
      </trkpt>
      <trkpt lat="45.80871" lon="1.88106">
        <ele>712.3</ele>
        <time>2026-07-09T09:40:20.000Z</time>
      </trkpt>
      <trkpt lat="45.80869" lon="1.88106">
        <ele>712.6</ele>
        <time>2026-07-09T09:40:21.000Z</time>
      </trkpt>
      <trkpt lat="45.80867" lon="1.88105">
        <ele>712</ele>
        <time>2026-07-09T09:40:22.000Z</time>
      </trkpt>
      <trkpt lat="45.80866" lon="1.88104">
        <ele>712.2</ele>
        <time>2026-07-09T09:40:23.000Z</time>
      </trkpt>
      <trkpt lat="45.80864" lon="1.88102">
        <ele>712.4</ele>
        <time>2026-07-09T09:40:24.000Z</time>
      </trkpt>
      <trkpt lat="45.80863" lon="1.88101">
        <ele>712.5</ele>
        <time>2026-07-09T09:40:25.000Z</time>
      </trkpt>
      <trkpt lat="45.80861" lon="1.88099">
        <ele>713.6</ele>
        <time>2026-07-09T09:40:26.000Z</time>
      </trkpt>
      <trkpt lat="45.80859" lon="1.88098">
        <ele>712.8</ele>
        <time>2026-07-09T09:40:27.000Z</time>
      </trkpt>
      <trkpt lat="45.80858" lon="1.88096">
        <ele>714.1</ele>
        <time>2026-07-09T09:40:28.000Z</time>
      </trkpt>
      <trkpt lat="45.80856" lon="1.88094">
        <ele>714.7</ele>
        <time>2026-07-09T09:40:29.000Z</time>
      </trkpt>
      <trkpt lat="45.80854" lon="1.88092">
        <ele>715.5</ele>
        <time>2026-07-09T09:40:30.000Z</time>
      </trkpt>
      <trkpt lat="45.80852" lon="1.8809">
        <ele>715.4</ele>
        <time>2026-07-09T09:40:31.000Z</time>
      </trkpt>
      <trkpt lat="45.8085" lon="1.88088">
        <ele>715</ele>
        <time>2026-07-09T09:40:32.000Z</time>
      </trkpt>
      <trkpt lat="45.80848" lon="1.88086">
        <ele>714.9</ele>
        <time>2026-07-09T09:40:33.000Z</time>
      </trkpt>
      <trkpt lat="45.80846" lon="1.88084">
        <ele>714.6</ele>
        <time>2026-07-09T09:40:34.000Z</time>
      </trkpt>
      <trkpt lat="45.80844" lon="1.88083">
        <ele>714.7</ele>
        <time>2026-07-09T09:40:35.000Z</time>
      </trkpt>
      <trkpt lat="45.80842" lon="1.8808">
        <ele>714.7</ele>
        <time>2026-07-09T09:40:36.000Z</time>
      </trkpt>
      <trkpt lat="45.80839" lon="1.88079">
        <ele>713.7</ele>
        <time>2026-07-09T09:40:37.000Z</time>
      </trkpt>
      <trkpt lat="45.80837" lon="1.8808">
        <ele>710</ele>
        <time>2026-07-09T09:40:38.000Z</time>
      </trkpt>
      <trkpt lat="45.80835" lon="1.88078">
        <ele>708.8</ele>
        <time>2026-07-09T09:40:39.000Z</time>
      </trkpt>
      <trkpt lat="45.80835" lon="1.88076">
        <ele>709.4</ele>
        <time>2026-07-09T09:40:40.000Z</time>
      </trkpt>
      <trkpt lat="45.80834" lon="1.88075">
        <ele>709.2</ele>
        <time>2026-07-09T09:40:41.000Z</time>
      </trkpt>
      <trkpt lat="45.80833" lon="1.88073">
        <ele>709.5</ele>
        <time>2026-07-09T09:40:42.000Z</time>
      </trkpt>
      <trkpt lat="45.80832" lon="1.8807">
        <ele>710</ele>
        <time>2026-07-09T09:40:43.000Z</time>
      </trkpt>
      <trkpt lat="45.80831" lon="1.88067">
        <ele>710.8</ele>
        <time>2026-07-09T09:40:44.000Z</time>
      </trkpt>
      <trkpt lat="45.8083" lon="1.88064">
        <ele>711.4</ele>
        <time>2026-07-09T09:40:45.000Z</time>
      </trkpt>
      <trkpt lat="45.80828" lon="1.88061">
        <ele>711.5</ele>
        <time>2026-07-09T09:40:46.000Z</time>
      </trkpt>
      <trkpt lat="45.80827" lon="1.88058">
        <ele>711</ele>
        <time>2026-07-09T09:40:47.000Z</time>
      </trkpt>
      <trkpt lat="45.80826" lon="1.88055">
        <ele>710.8</ele>
        <time>2026-07-09T09:40:48.000Z</time>
      </trkpt>
      <trkpt lat="45.80826" lon="1.88053">
        <ele>711.2</ele>
        <time>2026-07-09T09:40:49.000Z</time>
      </trkpt>
      <trkpt lat="45.80825" lon="1.88051">
        <ele>711.7</ele>
        <time>2026-07-09T09:40:50.000Z</time>
      </trkpt>
      <trkpt lat="45.80824" lon="1.88049">
        <ele>712.3</ele>
        <time>2026-07-09T09:40:51.000Z</time>
      </trkpt>
      <trkpt lat="45.80824" lon="1.88046">
        <ele>712.8</ele>
        <time>2026-07-09T09:40:52.000Z</time>
      </trkpt>
      <trkpt lat="45.80822" lon="1.88043">
        <ele>712.9</ele>
        <time>2026-07-09T09:40:53.000Z</time>
      </trkpt>
      <trkpt lat="45.80822" lon="1.88039">
        <ele>715.6</ele>
        <time>2026-07-09T09:40:54.000Z</time>
      </trkpt>
      <trkpt lat="45.80821" lon="1.88036">
        <ele>716.1</ele>
        <time>2026-07-09T09:40:55.000Z</time>
      </trkpt>
      <trkpt lat="45.8082" lon="1.88034">
        <ele>716.8</ele>
        <time>2026-07-09T09:40:56.000Z</time>
      </trkpt>
      <trkpt lat="45.80819" lon="1.88031">
        <ele>716</ele>
        <time>2026-07-09T09:40:57.000Z</time>
      </trkpt>
      <trkpt lat="45.80819" lon="1.88029">
        <ele>716.3</ele>
        <time>2026-07-09T09:40:58.000Z</time>
      </trkpt>
      <trkpt lat="45.80818" lon="1.88027">
        <ele>717.3</ele>
        <time>2026-07-09T09:40:59.000Z</time>
      </trkpt>
      <trkpt lat="45.80818" lon="1.88025">
        <ele>717.5</ele>
        <time>2026-07-09T09:41:00.000Z</time>
      </trkpt>
      <trkpt lat="45.80817" lon="1.88023">
        <ele>716.9</ele>
        <time>2026-07-09T09:41:01.000Z</time>
      </trkpt>
      <trkpt lat="45.80817" lon="1.88021">
        <ele>717.1</ele>
        <time>2026-07-09T09:41:02.000Z</time>
      </trkpt>
      <trkpt lat="45.80816" lon="1.88019">
        <ele>717.4</ele>
        <time>2026-07-09T09:41:03.000Z</time>
      </trkpt>
      <trkpt lat="45.80815" lon="1.88018">
        <ele>717.5</ele>
        <time>2026-07-09T09:41:04.000Z</time>
      </trkpt>
      <trkpt lat="45.80814" lon="1.88016">
        <ele>718.1</ele>
        <time>2026-07-09T09:41:05.000Z</time>
      </trkpt>
      <trkpt lat="45.80813" lon="1.88014">
        <ele>717.4</ele>
        <time>2026-07-09T09:41:06.000Z</time>
      </trkpt>
      <trkpt lat="45.80812" lon="1.88012">
        <ele>717.8</ele>
        <time>2026-07-09T09:41:07.000Z</time>
      </trkpt>
      <trkpt lat="45.80811" lon="1.88011">
        <ele>717.9</ele>
        <time>2026-07-09T09:41:08.000Z</time>
      </trkpt>
      <trkpt lat="45.8081" lon="1.88009">
        <ele>718.1</ele>
        <time>2026-07-09T09:41:09.000Z</time>
      </trkpt>
      <trkpt lat="45.80809" lon="1.88008">
        <ele>718</ele>
        <time>2026-07-09T09:41:10.000Z</time>
      </trkpt>
      <trkpt lat="45.80807" lon="1.88006">
        <ele>718.2</ele>
        <time>2026-07-09T09:41:11.000Z</time>
      </trkpt>
      <trkpt lat="45.80806" lon="1.88005">
        <ele>718.8</ele>
        <time>2026-07-09T09:41:12.000Z</time>
      </trkpt>
      <trkpt lat="45.80805" lon="1.88003">
        <ele>718.9</ele>
        <time>2026-07-09T09:41:13.000Z</time>
      </trkpt>
      <trkpt lat="45.80804" lon="1.88002">
        <ele>719.2</ele>
        <time>2026-07-09T09:41:14.000Z</time>
      </trkpt>
      <trkpt lat="45.80803" lon="1.88">
        <ele>718.9</ele>
        <time>2026-07-09T09:41:15.000Z</time>
      </trkpt>
      <trkpt lat="45.80802" lon="1.87999">
        <ele>718.5</ele>
        <time>2026-07-09T09:41:16.000Z</time>
      </trkpt>
      <trkpt lat="45.808" lon="1.87998">
        <ele>718.3</ele>
        <time>2026-07-09T09:41:17.000Z</time>
      </trkpt>
      <trkpt lat="45.80799" lon="1.87997">
        <ele>718.4</ele>
        <time>2026-07-09T09:41:18.000Z</time>
      </trkpt>
      <trkpt lat="45.80797" lon="1.87996">
        <ele>718.6</ele>
        <time>2026-07-09T09:41:19.000Z</time>
      </trkpt>
      <trkpt lat="45.80796" lon="1.87995">
        <ele>718.5</ele>
        <time>2026-07-09T09:41:20.000Z</time>
      </trkpt>
      <trkpt lat="45.80794" lon="1.87994">
        <ele>718.4</ele>
        <time>2026-07-09T09:41:21.000Z</time>
      </trkpt>
      <trkpt lat="45.80792" lon="1.87994">
        <ele>718.8</ele>
        <time>2026-07-09T09:41:22.000Z</time>
      </trkpt>
      <trkpt lat="45.80791" lon="1.87994">
        <ele>718.4</ele>
        <time>2026-07-09T09:41:23.000Z</time>
      </trkpt>
      <trkpt lat="45.80789" lon="1.87993">
        <ele>718.5</ele>
        <time>2026-07-09T09:41:24.000Z</time>
      </trkpt>
      <trkpt lat="45.80788" lon="1.87992">
        <ele>718.6</ele>
        <time>2026-07-09T09:41:25.000Z</time>
      </trkpt>
      <trkpt lat="45.80787" lon="1.87991">
        <ele>717.1</ele>
        <time>2026-07-09T09:41:26.000Z</time>
      </trkpt>
      <trkpt lat="45.80785" lon="1.8799">
        <ele>716.4</ele>
        <time>2026-07-09T09:41:27.000Z</time>
      </trkpt>
      <trkpt lat="45.80784" lon="1.87988">
        <ele>715.7</ele>
        <time>2026-07-09T09:41:28.000Z</time>
      </trkpt>
      <trkpt lat="45.80782" lon="1.87987">
        <ele>716.9</ele>
        <time>2026-07-09T09:41:29.000Z</time>
      </trkpt>
      <trkpt lat="45.80781" lon="1.87986">
        <ele>717.9</ele>
        <time>2026-07-09T09:41:30.000Z</time>
      </trkpt>
      <trkpt lat="45.8078" lon="1.87985">
        <ele>718.4</ele>
        <time>2026-07-09T09:41:31.000Z</time>
      </trkpt>
      <trkpt lat="45.80778" lon="1.87984">
        <ele>719.4</ele>
        <time>2026-07-09T09:41:32.000Z</time>
      </trkpt>
      <trkpt lat="45.80777" lon="1.87984">
        <ele>720.4</ele>
        <time>2026-07-09T09:41:33.000Z</time>
      </trkpt>
      <trkpt lat="45.80775" lon="1.87982">
        <ele>720.5</ele>
        <time>2026-07-09T09:41:34.000Z</time>
      </trkpt>
      <trkpt lat="45.80774" lon="1.87981">
        <ele>721.5</ele>
        <time>2026-07-09T09:41:35.000Z</time>
      </trkpt>
      <trkpt lat="45.80772" lon="1.8798">
        <ele>720.4</ele>
        <time>2026-07-09T09:41:36.000Z</time>
      </trkpt>
      <trkpt lat="45.8077" lon="1.87979">
        <ele>720.2</ele>
        <time>2026-07-09T09:41:37.000Z</time>
      </trkpt>
      <trkpt lat="45.80768" lon="1.87978">
        <ele>720.5</ele>
        <time>2026-07-09T09:41:38.000Z</time>
      </trkpt>
      <trkpt lat="45.80767" lon="1.87977">
        <ele>720.6</ele>
        <time>2026-07-09T09:41:39.000Z</time>
      </trkpt>
      <trkpt lat="45.80765" lon="1.87976">
        <ele>721.1</ele>
        <time>2026-07-09T09:41:40.000Z</time>
      </trkpt>
      <trkpt lat="45.80764" lon="1.87974">
        <ele>720.9</ele>
        <time>2026-07-09T09:41:41.000Z</time>
      </trkpt>
      <trkpt lat="45.80762" lon="1.87973">
        <ele>720</ele>
        <time>2026-07-09T09:41:42.000Z</time>
      </trkpt>
      <trkpt lat="45.8076" lon="1.87972">
        <ele>720.2</ele>
        <time>2026-07-09T09:41:43.000Z</time>
      </trkpt>
      <trkpt lat="45.80759" lon="1.87971">
        <ele>721.4</ele>
        <time>2026-07-09T09:41:44.000Z</time>
      </trkpt>
      <trkpt lat="45.80757" lon="1.8797">
        <ele>721.5</ele>
        <time>2026-07-09T09:41:45.000Z</time>
      </trkpt>
      <trkpt lat="45.80755" lon="1.87969">
        <ele>721.4</ele>
        <time>2026-07-09T09:41:46.000Z</time>
      </trkpt>
      <trkpt lat="45.80754" lon="1.87968">
        <ele>721.3</ele>
        <time>2026-07-09T09:41:47.000Z</time>
      </trkpt>
      <trkpt lat="45.80752" lon="1.87967">
        <ele>721.5</ele>
        <time>2026-07-09T09:41:48.000Z</time>
      </trkpt>
      <trkpt lat="45.8075" lon="1.87967">
        <ele>720.9</ele>
        <time>2026-07-09T09:41:49.000Z</time>
      </trkpt>
      <trkpt lat="45.80748" lon="1.87966">
        <ele>720.8</ele>
        <time>2026-07-09T09:41:50.000Z</time>
      </trkpt>
      <trkpt lat="45.80746" lon="1.87965">
        <ele>720</ele>
        <time>2026-07-09T09:41:51.000Z</time>
      </trkpt>
      <trkpt lat="45.80744" lon="1.87964">
        <ele>719.2</ele>
        <time>2026-07-09T09:41:52.000Z</time>
      </trkpt>
      <trkpt lat="45.80742" lon="1.87963">
        <ele>718.3</ele>
        <time>2026-07-09T09:41:53.000Z</time>
      </trkpt>
      <trkpt lat="45.80741" lon="1.87963">
        <ele>718.4</ele>
        <time>2026-07-09T09:41:54.000Z</time>
      </trkpt>
      <trkpt lat="45.80739" lon="1.87963">
        <ele>718.6</ele>
        <time>2026-07-09T09:41:55.000Z</time>
      </trkpt>
      <trkpt lat="45.80738" lon="1.87963">
        <ele>717.9</ele>
        <time>2026-07-09T09:41:56.000Z</time>
      </trkpt>
      <trkpt lat="45.80736" lon="1.87962">
        <ele>718.1</ele>
        <time>2026-07-09T09:41:57.000Z</time>
      </trkpt>
      <trkpt lat="45.80735" lon="1.87961">
        <ele>718.1</ele>
        <time>2026-07-09T09:41:58.000Z</time>
      </trkpt>
      <trkpt lat="45.80734" lon="1.8796">
        <ele>717.2</ele>
        <time>2026-07-09T09:41:59.000Z</time>
      </trkpt>
      <trkpt lat="45.80733" lon="1.8796">
        <ele>716.8</ele>
        <time>2026-07-09T09:42:00.000Z</time>
      </trkpt>
      <trkpt lat="45.80731" lon="1.8796">
        <ele>716.4</ele>
        <time>2026-07-09T09:42:01.000Z</time>
      </trkpt>
      <trkpt lat="45.8073" lon="1.8796">
        <ele>716.3</ele>
        <time>2026-07-09T09:42:02.000Z</time>
      </trkpt>
      <trkpt lat="45.80728" lon="1.8796">
        <ele>716.6</ele>
        <time>2026-07-09T09:42:03.000Z</time>
      </trkpt>
      <trkpt lat="45.80726" lon="1.87959">
        <ele>716.6</ele>
        <time>2026-07-09T09:42:04.000Z</time>
      </trkpt>
      <trkpt lat="45.80725" lon="1.87958">
        <ele>715.5</ele>
        <time>2026-07-09T09:42:05.000Z</time>
      </trkpt>
      <trkpt lat="45.80723" lon="1.87957">
        <ele>715.1</ele>
        <time>2026-07-09T09:42:06.000Z</time>
      </trkpt>
      <trkpt lat="45.80721" lon="1.87957">
        <ele>715.1</ele>
        <time>2026-07-09T09:42:07.000Z</time>
      </trkpt>
      <trkpt lat="45.8072" lon="1.87957">
        <ele>715</ele>
        <time>2026-07-09T09:42:08.000Z</time>
      </trkpt>
      <trkpt lat="45.80718" lon="1.87956">
        <ele>715</ele>
        <time>2026-07-09T09:42:09.000Z</time>
      </trkpt>
      <trkpt lat="45.80717" lon="1.87956">
        <ele>716.1</ele>
        <time>2026-07-09T09:42:10.000Z</time>
      </trkpt>
      <trkpt lat="45.80715" lon="1.87956">
        <ele>716.3</ele>
        <time>2026-07-09T09:42:11.000Z</time>
      </trkpt>
      <trkpt lat="45.80714" lon="1.87956">
        <ele>715.8</ele>
        <time>2026-07-09T09:42:12.000Z</time>
      </trkpt>
      <trkpt lat="45.80712" lon="1.87955">
        <ele>714.4</ele>
        <time>2026-07-09T09:42:13.000Z</time>
      </trkpt>
      <trkpt lat="45.80711" lon="1.87955">
        <ele>714.3</ele>
        <time>2026-07-09T09:42:14.000Z</time>
      </trkpt>
      <trkpt lat="45.80709" lon="1.87954">
        <ele>714.4</ele>
        <time>2026-07-09T09:42:15.000Z</time>
      </trkpt>
      <trkpt lat="45.80707" lon="1.87954">
        <ele>713.9</ele>
        <time>2026-07-09T09:42:16.000Z</time>
      </trkpt>
      <trkpt lat="45.80706" lon="1.87953">
        <ele>714.3</ele>
        <time>2026-07-09T09:42:17.000Z</time>
      </trkpt>
      <trkpt lat="45.80704" lon="1.87952">
        <ele>714.1</ele>
        <time>2026-07-09T09:42:18.000Z</time>
      </trkpt>
      <trkpt lat="45.80703" lon="1.87952">
        <ele>713.9</ele>
        <time>2026-07-09T09:42:19.000Z</time>
      </trkpt>
      <trkpt lat="45.80701" lon="1.87951">
        <ele>713.5</ele>
        <time>2026-07-09T09:42:20.000Z</time>
      </trkpt>
      <trkpt lat="45.80699" lon="1.87951">
        <ele>711.5</ele>
        <time>2026-07-09T09:42:21.000Z</time>
      </trkpt>
      <trkpt lat="45.80697" lon="1.8795">
        <ele>711.6</ele>
        <time>2026-07-09T09:42:22.000Z</time>
      </trkpt>
      <trkpt lat="45.80696" lon="1.8795">
        <ele>711.1</ele>
        <time>2026-07-09T09:42:23.000Z</time>
      </trkpt>
      <trkpt lat="45.80694" lon="1.8795">
        <ele>710.9</ele>
        <time>2026-07-09T09:42:24.000Z</time>
      </trkpt>
      <trkpt lat="45.80693" lon="1.8795">
        <ele>710.8</ele>
        <time>2026-07-09T09:42:25.000Z</time>
      </trkpt>
      <trkpt lat="45.80692" lon="1.8795">
        <ele>710.6</ele>
        <time>2026-07-09T09:42:26.000Z</time>
      </trkpt>
      <trkpt lat="45.8069" lon="1.87949">
        <ele>710.3</ele>
        <time>2026-07-09T09:42:27.000Z</time>
      </trkpt>
      <trkpt lat="45.80689" lon="1.87948">
        <ele>710.8</ele>
        <time>2026-07-09T09:42:28.000Z</time>
      </trkpt>
      <trkpt lat="45.80687" lon="1.87948">
        <ele>711.2</ele>
        <time>2026-07-09T09:42:29.000Z</time>
      </trkpt>
      <trkpt lat="45.80686" lon="1.87948">
        <ele>711.3</ele>
        <time>2026-07-09T09:42:30.000Z</time>
      </trkpt>
      <trkpt lat="45.80684" lon="1.87946">
        <ele>711.8</ele>
        <time>2026-07-09T09:42:31.000Z</time>
      </trkpt>
      <trkpt lat="45.80683" lon="1.87946">
        <ele>711.6</ele>
        <time>2026-07-09T09:42:32.000Z</time>
      </trkpt>
      <trkpt lat="45.80681" lon="1.87947">
        <ele>712.9</ele>
        <time>2026-07-09T09:42:33.000Z</time>
      </trkpt>
      <trkpt lat="45.80679" lon="1.87946">
        <ele>711.6</ele>
        <time>2026-07-09T09:42:34.000Z</time>
      </trkpt>
      <trkpt lat="45.80678" lon="1.87946">
        <ele>711.4</ele>
        <time>2026-07-09T09:42:35.000Z</time>
      </trkpt>
      <trkpt lat="45.80676" lon="1.87945">
        <ele>711.1</ele>
        <time>2026-07-09T09:42:36.000Z</time>
      </trkpt>
      <trkpt lat="45.80674" lon="1.87945">
        <ele>711.4</ele>
        <time>2026-07-09T09:42:37.000Z</time>
      </trkpt>
      <trkpt lat="45.80672" lon="1.87944">
        <ele>712.9</ele>
        <time>2026-07-09T09:42:38.000Z</time>
      </trkpt>
      <trkpt lat="45.8067" lon="1.87944">
        <ele>712.2</ele>
        <time>2026-07-09T09:42:39.000Z</time>
      </trkpt>
      <trkpt lat="45.80667" lon="1.87943">
        <ele>712.5</ele>
        <time>2026-07-09T09:42:40.000Z</time>
      </trkpt>
      <trkpt lat="45.80665" lon="1.87943">
        <ele>711.6</ele>
        <time>2026-07-09T09:42:41.000Z</time>
      </trkpt>
      <trkpt lat="45.80664" lon="1.87943">
        <ele>711.6</ele>
        <time>2026-07-09T09:42:42.000Z</time>
      </trkpt>
      <trkpt lat="45.80662" lon="1.87943">
        <ele>711.4</ele>
        <time>2026-07-09T09:42:43.000Z</time>
      </trkpt>
      <trkpt lat="45.80661" lon="1.87943">
        <ele>711.9</ele>
        <time>2026-07-09T09:42:44.000Z</time>
      </trkpt>
      <trkpt lat="45.80659" lon="1.87942">
        <ele>712.8</ele>
        <time>2026-07-09T09:42:45.000Z</time>
      </trkpt>
      <trkpt lat="45.80659" lon="1.87941">
        <ele>714.1</ele>
        <time>2026-07-09T09:42:46.000Z</time>
      </trkpt>
      <trkpt lat="45.80658" lon="1.87941">
        <ele>714.3</ele>
        <time>2026-07-09T09:42:47.000Z</time>
      </trkpt>
      <trkpt lat="45.80658" lon="1.87941">
        <ele>714.3</ele>
        <time>2026-07-09T09:42:48.000Z</time>
      </trkpt>
      <trkpt lat="45.80658" lon="1.8794">
        <ele>714.3</ele>
        <time>2026-07-09T09:42:49.000Z</time>
      </trkpt>
      <trkpt lat="45.80658" lon="1.8794">
        <ele>714</ele>
        <time>2026-07-09T09:42:50.000Z</time>
      </trkpt>
      <trkpt lat="45.80657" lon="1.8794">
        <ele>714.4</ele>
        <time>2026-07-09T09:42:51.000Z</time>
      </trkpt>
      <trkpt lat="45.80656" lon="1.8794">
        <ele>714.4</ele>
        <time>2026-07-09T09:42:52.000Z</time>
      </trkpt>
      <trkpt lat="45.80654" lon="1.87939">
        <ele>713.1</ele>
        <time>2026-07-09T09:42:53.000Z</time>
      </trkpt>
      <trkpt lat="45.80652" lon="1.87938">
        <ele>713.2</ele>
        <time>2026-07-09T09:42:54.000Z</time>
      </trkpt>
      <trkpt lat="45.8065" lon="1.87937">
        <ele>713</ele>
        <time>2026-07-09T09:42:55.000Z</time>
      </trkpt>
      <trkpt lat="45.80649" lon="1.87937">
        <ele>712.5</ele>
        <time>2026-07-09T09:42:56.000Z</time>
      </trkpt>
      <trkpt lat="45.80647" lon="1.87936">
        <ele>713.3</ele>
        <time>2026-07-09T09:42:57.000Z</time>
      </trkpt>
      <trkpt lat="45.80645" lon="1.87936">
        <ele>714.5</ele>
        <time>2026-07-09T09:42:58.000Z</time>
      </trkpt>
      <trkpt lat="45.80643" lon="1.87935">
        <ele>715.7</ele>
        <time>2026-07-09T09:42:59.000Z</time>
      </trkpt>
      <trkpt lat="45.80641" lon="1.87934">
        <ele>716.4</ele>
        <time>2026-07-09T09:43:00.000Z</time>
      </trkpt>
      <trkpt lat="45.8064" lon="1.87934">
        <ele>717.9</ele>
        <time>2026-07-09T09:43:01.000Z</time>
      </trkpt>
      <trkpt lat="45.80638" lon="1.87934">
        <ele>716.7</ele>
        <time>2026-07-09T09:43:02.000Z</time>
      </trkpt>
      <trkpt lat="45.80636" lon="1.87934">
        <ele>716.1</ele>
        <time>2026-07-09T09:43:03.000Z</time>
      </trkpt>
      <trkpt lat="45.80635" lon="1.87934">
        <ele>716.4</ele>
        <time>2026-07-09T09:43:04.000Z</time>
      </trkpt>
      <trkpt lat="45.80633" lon="1.87934">
        <ele>717.2</ele>
        <time>2026-07-09T09:43:05.000Z</time>
      </trkpt>
      <trkpt lat="45.80631" lon="1.87934">
        <ele>717.6</ele>
        <time>2026-07-09T09:43:06.000Z</time>
      </trkpt>
      <trkpt lat="45.8063" lon="1.87934">
        <ele>717.4</ele>
        <time>2026-07-09T09:43:07.000Z</time>
      </trkpt>
      <trkpt lat="45.80628" lon="1.87934">
        <ele>716.3</ele>
        <time>2026-07-09T09:43:08.000Z</time>
      </trkpt>
      <trkpt lat="45.80626" lon="1.87933">
        <ele>715.7</ele>
        <time>2026-07-09T09:43:09.000Z</time>
      </trkpt>
      <trkpt lat="45.80625" lon="1.87933">
        <ele>715.5</ele>
        <time>2026-07-09T09:43:10.000Z</time>
      </trkpt>
      <trkpt lat="45.80623" lon="1.87932">
        <ele>715.2</ele>
        <time>2026-07-09T09:43:11.000Z</time>
      </trkpt>
      <trkpt lat="45.80621" lon="1.87931">
        <ele>714.8</ele>
        <time>2026-07-09T09:43:12.000Z</time>
      </trkpt>
      <trkpt lat="45.80619" lon="1.87931">
        <ele>715.5</ele>
        <time>2026-07-09T09:43:13.000Z</time>
      </trkpt>
      <trkpt lat="45.80618" lon="1.8793">
        <ele>715.2</ele>
        <time>2026-07-09T09:43:14.000Z</time>
      </trkpt>
      <trkpt lat="45.80616" lon="1.8793">
        <ele>716</ele>
        <time>2026-07-09T09:43:15.000Z</time>
      </trkpt>
      <trkpt lat="45.80614" lon="1.8793">
        <ele>716</ele>
        <time>2026-07-09T09:43:16.000Z</time>
      </trkpt>
      <trkpt lat="45.80613" lon="1.8793">
        <ele>715.8</ele>
        <time>2026-07-09T09:43:17.000Z</time>
      </trkpt>
      <trkpt lat="45.80611" lon="1.8793">
        <ele>715.9</ele>
        <time>2026-07-09T09:43:18.000Z</time>
      </trkpt>
      <trkpt lat="45.80609" lon="1.8793">
        <ele>715.2</ele>
        <time>2026-07-09T09:43:19.000Z</time>
      </trkpt>
      <trkpt lat="45.80607" lon="1.8793">
        <ele>713.6</ele>
        <time>2026-07-09T09:43:20.000Z</time>
      </trkpt>
      <trkpt lat="45.80606" lon="1.8793">
        <ele>713.9</ele>
        <time>2026-07-09T09:43:21.000Z</time>
      </trkpt>
      <trkpt lat="45.80604" lon="1.8793">
        <ele>713.8</ele>
        <time>2026-07-09T09:43:22.000Z</time>
      </trkpt>
      <trkpt lat="45.80602" lon="1.87928">
        <ele>714.6</ele>
        <time>2026-07-09T09:43:23.000Z</time>
      </trkpt>
      <trkpt lat="45.806" lon="1.87928">
        <ele>714.9</ele>
        <time>2026-07-09T09:43:24.000Z</time>
      </trkpt>
      <trkpt lat="45.80598" lon="1.87928">
        <ele>713.1</ele>
        <time>2026-07-09T09:43:25.000Z</time>
      </trkpt>
      <trkpt lat="45.80597" lon="1.87928">
        <ele>712.9</ele>
        <time>2026-07-09T09:43:26.000Z</time>
      </trkpt>
      <trkpt lat="45.80595" lon="1.87929">
        <ele>712.8</ele>
        <time>2026-07-09T09:43:27.000Z</time>
      </trkpt>
      <trkpt lat="45.80594" lon="1.87929">
        <ele>711.5</ele>
        <time>2026-07-09T09:43:28.000Z</time>
      </trkpt>
      <trkpt lat="45.80592" lon="1.8793">
        <ele>711.4</ele>
        <time>2026-07-09T09:43:29.000Z</time>
      </trkpt>
      <trkpt lat="45.80591" lon="1.87931">
        <ele>710.2</ele>
        <time>2026-07-09T09:43:30.000Z</time>
      </trkpt>
      <trkpt lat="45.80589" lon="1.87932">
        <ele>710.7</ele>
        <time>2026-07-09T09:43:31.000Z</time>
      </trkpt>
      <trkpt lat="45.80588" lon="1.87932">
        <ele>711.4</ele>
        <time>2026-07-09T09:43:32.000Z</time>
      </trkpt>
      <trkpt lat="45.80588" lon="1.87936">
        <ele>711.8</ele>
        <time>2026-07-09T09:43:33.000Z</time>
      </trkpt>
      <trkpt lat="45.80588" lon="1.87936">
        <ele>713.4</ele>
        <time>2026-07-09T09:43:34.000Z</time>
      </trkpt>
      <trkpt lat="45.80587" lon="1.87934">
        <ele>713.8</ele>
        <time>2026-07-09T09:43:35.000Z</time>
      </trkpt>
      <trkpt lat="45.80586" lon="1.87934">
        <ele>713.3</ele>
        <time>2026-07-09T09:43:36.000Z</time>
      </trkpt>
      <trkpt lat="45.80585" lon="1.87934">
        <ele>712.3</ele>
        <time>2026-07-09T09:43:37.000Z</time>
      </trkpt>
      <trkpt lat="45.80584" lon="1.87934">
        <ele>712.2</ele>
        <time>2026-07-09T09:43:38.000Z</time>
      </trkpt>
      <trkpt lat="45.80583" lon="1.87934">
        <ele>712.9</ele>
        <time>2026-07-09T09:43:39.000Z</time>
      </trkpt>
      <trkpt lat="45.80582" lon="1.87935">
        <ele>712.1</ele>
        <time>2026-07-09T09:43:40.000Z</time>
      </trkpt>
      <trkpt lat="45.8058" lon="1.87935">
        <ele>711.8</ele>
        <time>2026-07-09T09:43:41.000Z</time>
      </trkpt>
      <trkpt lat="45.80579" lon="1.87936">
        <ele>712</ele>
        <time>2026-07-09T09:43:42.000Z</time>
      </trkpt>
      <trkpt lat="45.80578" lon="1.87937">
        <ele>711</ele>
        <time>2026-07-09T09:43:43.000Z</time>
      </trkpt>
      <trkpt lat="45.80576" lon="1.87938">
        <ele>710.5</ele>
        <time>2026-07-09T09:43:44.000Z</time>
      </trkpt>
      <trkpt lat="45.80574" lon="1.87939">
        <ele>710.3</ele>
        <time>2026-07-09T09:43:45.000Z</time>
      </trkpt>
      <trkpt lat="45.80573" lon="1.8794">
        <ele>711</ele>
        <time>2026-07-09T09:43:46.000Z</time>
      </trkpt>
      <trkpt lat="45.80571" lon="1.8794">
        <ele>710.1</ele>
        <time>2026-07-09T09:43:47.000Z</time>
      </trkpt>
      <trkpt lat="45.80569" lon="1.87941">
        <ele>709.6</ele>
        <time>2026-07-09T09:43:48.000Z</time>
      </trkpt>
      <trkpt lat="45.80567" lon="1.87942">
        <ele>710.4</ele>
        <time>2026-07-09T09:43:49.000Z</time>
      </trkpt>
      <trkpt lat="45.80565" lon="1.87943">
        <ele>710.1</ele>
        <time>2026-07-09T09:43:50.000Z</time>
      </trkpt>
      <trkpt lat="45.80563" lon="1.87944">
        <ele>710.2</ele>
        <time>2026-07-09T09:43:51.000Z</time>
      </trkpt>
      <trkpt lat="45.80561" lon="1.87945">
        <ele>710.7</ele>
        <time>2026-07-09T09:43:52.000Z</time>
      </trkpt>
      <trkpt lat="45.80559" lon="1.87946">
        <ele>710.5</ele>
        <time>2026-07-09T09:43:53.000Z</time>
      </trkpt>
      <trkpt lat="45.80558" lon="1.87946">
        <ele>711.4</ele>
        <time>2026-07-09T09:43:54.000Z</time>
      </trkpt>
      <trkpt lat="45.80557" lon="1.87947">
        <ele>709.8</ele>
        <time>2026-07-09T09:43:55.000Z</time>
      </trkpt>
      <trkpt lat="45.80556" lon="1.87948">
        <ele>709.5</ele>
        <time>2026-07-09T09:43:56.000Z</time>
      </trkpt>
      <trkpt lat="45.80554" lon="1.87949">
        <ele>709.1</ele>
        <time>2026-07-09T09:43:57.000Z</time>
      </trkpt>
      <trkpt lat="45.80553" lon="1.8795">
        <ele>708.9</ele>
        <time>2026-07-09T09:43:58.000Z</time>
      </trkpt>
      <trkpt lat="45.80552" lon="1.87951">
        <ele>709.6</ele>
        <time>2026-07-09T09:43:59.000Z</time>
      </trkpt>
      <trkpt lat="45.80551" lon="1.87952">
        <ele>709.2</ele>
        <time>2026-07-09T09:44:00.000Z</time>
      </trkpt>
      <trkpt lat="45.8055" lon="1.87953">
        <ele>707.6</ele>
        <time>2026-07-09T09:44:01.000Z</time>
      </trkpt>
      <trkpt lat="45.80548" lon="1.87954">
        <ele>706.3</ele>
        <time>2026-07-09T09:44:02.000Z</time>
      </trkpt>
      <trkpt lat="45.80546" lon="1.87956">
        <ele>708.1</ele>
        <time>2026-07-09T09:44:03.000Z</time>
      </trkpt>
      <trkpt lat="45.80545" lon="1.87958">
        <ele>706.9</ele>
        <time>2026-07-09T09:44:04.000Z</time>
      </trkpt>
      <trkpt lat="45.80542" lon="1.87959">
        <ele>707.3</ele>
        <time>2026-07-09T09:44:05.000Z</time>
      </trkpt>
      <trkpt lat="45.80541" lon="1.87961">
        <ele>708</ele>
        <time>2026-07-09T09:44:06.000Z</time>
      </trkpt>
      <trkpt lat="45.80539" lon="1.87962">
        <ele>708.4</ele>
        <time>2026-07-09T09:44:07.000Z</time>
      </trkpt>
      <trkpt lat="45.80537" lon="1.87963">
        <ele>708.7</ele>
        <time>2026-07-09T09:44:08.000Z</time>
      </trkpt>
      <trkpt lat="45.80535" lon="1.87964">
        <ele>708.7</ele>
        <time>2026-07-09T09:44:09.000Z</time>
      </trkpt>
      <trkpt lat="45.80533" lon="1.87966">
        <ele>709.1</ele>
        <time>2026-07-09T09:44:10.000Z</time>
      </trkpt>
      <trkpt lat="45.80532" lon="1.87967">
        <ele>709.2</ele>
        <time>2026-07-09T09:44:11.000Z</time>
      </trkpt>
      <trkpt lat="45.8053" lon="1.87968">
        <ele>708.6</ele>
        <time>2026-07-09T09:44:12.000Z</time>
      </trkpt>
      <trkpt lat="45.80528" lon="1.87969">
        <ele>708.6</ele>
        <time>2026-07-09T09:44:13.000Z</time>
      </trkpt>
      <trkpt lat="45.80528" lon="1.87972">
        <ele>708.8</ele>
        <time>2026-07-09T09:44:14.000Z</time>
      </trkpt>
      <trkpt lat="45.80526" lon="1.87973">
        <ele>709.1</ele>
        <time>2026-07-09T09:44:15.000Z</time>
      </trkpt>
      <trkpt lat="45.80525" lon="1.87974">
        <ele>709.3</ele>
        <time>2026-07-09T09:44:16.000Z</time>
      </trkpt>
      <trkpt lat="45.80523" lon="1.87974">
        <ele>709</ele>
        <time>2026-07-09T09:44:17.000Z</time>
      </trkpt>
      <trkpt lat="45.80521" lon="1.87975">
        <ele>708.7</ele>
        <time>2026-07-09T09:44:18.000Z</time>
      </trkpt>
      <trkpt lat="45.8052" lon="1.87975">
        <ele>708.9</ele>
        <time>2026-07-09T09:44:19.000Z</time>
      </trkpt>
      <trkpt lat="45.80518" lon="1.87976">
        <ele>708.9</ele>
        <time>2026-07-09T09:44:20.000Z</time>
      </trkpt>
      <trkpt lat="45.80516" lon="1.87977">
        <ele>708.9</ele>
        <time>2026-07-09T09:44:21.000Z</time>
      </trkpt>
      <trkpt lat="45.80514" lon="1.87978">
        <ele>709.3</ele>
        <time>2026-07-09T09:44:22.000Z</time>
      </trkpt>
      <trkpt lat="45.80513" lon="1.87979">
        <ele>709.5</ele>
        <time>2026-07-09T09:44:23.000Z</time>
      </trkpt>
      <trkpt lat="45.80511" lon="1.87979">
        <ele>709.8</ele>
        <time>2026-07-09T09:44:24.000Z</time>
      </trkpt>
      <trkpt lat="45.80509" lon="1.8798">
        <ele>710</ele>
        <time>2026-07-09T09:44:25.000Z</time>
      </trkpt>
      <trkpt lat="45.80507" lon="1.8798">
        <ele>710.1</ele>
        <time>2026-07-09T09:44:26.000Z</time>
      </trkpt>
      <trkpt lat="45.80506" lon="1.8798">
        <ele>710.1</ele>
        <time>2026-07-09T09:44:27.000Z</time>
      </trkpt>
      <trkpt lat="45.80504" lon="1.8798">
        <ele>709.7</ele>
        <time>2026-07-09T09:44:28.000Z</time>
      </trkpt>
      <trkpt lat="45.80503" lon="1.87981">
        <ele>710</ele>
        <time>2026-07-09T09:44:29.000Z</time>
      </trkpt>
      <trkpt lat="45.80501" lon="1.87982">
        <ele>710.2</ele>
        <time>2026-07-09T09:44:30.000Z</time>
      </trkpt>
      <trkpt lat="45.805" lon="1.87982">
        <ele>710.3</ele>
        <time>2026-07-09T09:44:31.000Z</time>
      </trkpt>
      <trkpt lat="45.80498" lon="1.87981">
        <ele>710.4</ele>
        <time>2026-07-09T09:44:32.000Z</time>
      </trkpt>
      <trkpt lat="45.80497" lon="1.87981">
        <ele>710.5</ele>
        <time>2026-07-09T09:44:33.000Z</time>
      </trkpt>
      <trkpt lat="45.80496" lon="1.8798">
        <ele>710.5</ele>
        <time>2026-07-09T09:44:34.000Z</time>
      </trkpt>
      <trkpt lat="45.80494" lon="1.87978">
        <ele>710.1</ele>
        <time>2026-07-09T09:44:35.000Z</time>
      </trkpt>
      <trkpt lat="45.80493" lon="1.87977">
        <ele>710.6</ele>
        <time>2026-07-09T09:44:36.000Z</time>
      </trkpt>
      <trkpt lat="45.80492" lon="1.87976">
        <ele>710</ele>
        <time>2026-07-09T09:44:37.000Z</time>
      </trkpt>
      <trkpt lat="45.8049" lon="1.87975">
        <ele>710.7</ele>
        <time>2026-07-09T09:44:38.000Z</time>
      </trkpt>
      <trkpt lat="45.80489" lon="1.87973">
        <ele>710.5</ele>
        <time>2026-07-09T09:44:39.000Z</time>
      </trkpt>
      <trkpt lat="45.80488" lon="1.8797">
        <ele>710.4</ele>
        <time>2026-07-09T09:44:40.000Z</time>
      </trkpt>
      <trkpt lat="45.80487" lon="1.87967">
        <ele>710.4</ele>
        <time>2026-07-09T09:44:41.000Z</time>
      </trkpt>
      <trkpt lat="45.80486" lon="1.87965">
        <ele>710.1</ele>
        <time>2026-07-09T09:44:42.000Z</time>
      </trkpt>
      <trkpt lat="45.80485" lon="1.87963">
        <ele>709.8</ele>
        <time>2026-07-09T09:44:43.000Z</time>
      </trkpt>
      <trkpt lat="45.80484" lon="1.8796">
        <ele>709.2</ele>
        <time>2026-07-09T09:44:44.000Z</time>
      </trkpt>
      <trkpt lat="45.80484" lon="1.87959">
        <ele>708.7</ele>
        <time>2026-07-09T09:44:45.000Z</time>
      </trkpt>
      <trkpt lat="45.80484" lon="1.87958">
        <ele>707.7</ele>
        <time>2026-07-09T09:44:46.000Z</time>
      </trkpt>
      <trkpt lat="45.80483" lon="1.87957">
        <ele>707.2</ele>
        <time>2026-07-09T09:44:47.000Z</time>
      </trkpt>
      <trkpt lat="45.80482" lon="1.87955">
        <ele>707.8</ele>
        <time>2026-07-09T09:44:48.000Z</time>
      </trkpt>
      <trkpt lat="45.80481" lon="1.87954">
        <ele>707.9</ele>
        <time>2026-07-09T09:44:49.000Z</time>
      </trkpt>
      <trkpt lat="45.80481" lon="1.87952">
        <ele>706.6</ele>
        <time>2026-07-09T09:44:50.000Z</time>
      </trkpt>
      <trkpt lat="45.8048" lon="1.8795">
        <ele>706.6</ele>
        <time>2026-07-09T09:44:51.000Z</time>
      </trkpt>
      <trkpt lat="45.80479" lon="1.87949">
        <ele>706.6</ele>
        <time>2026-07-09T09:44:52.000Z</time>
      </trkpt>
      <trkpt lat="45.80478" lon="1.87947">
        <ele>707.5</ele>
        <time>2026-07-09T09:44:53.000Z</time>
      </trkpt>
      <trkpt lat="45.80477" lon="1.87946">
        <ele>708.5</ele>
        <time>2026-07-09T09:44:54.000Z</time>
      </trkpt>
      <trkpt lat="45.80475" lon="1.87944">
        <ele>707.6</ele>
        <time>2026-07-09T09:44:55.000Z</time>
      </trkpt>
      <trkpt lat="45.80473" lon="1.87942">
        <ele>707.3</ele>
        <time>2026-07-09T09:44:56.000Z</time>
      </trkpt>
      <trkpt lat="45.80472" lon="1.87941">
        <ele>706.2</ele>
        <time>2026-07-09T09:44:57.000Z</time>
      </trkpt>
      <trkpt lat="45.80471" lon="1.87939">
        <ele>706.2</ele>
        <time>2026-07-09T09:44:58.000Z</time>
      </trkpt>
      <trkpt lat="45.8047" lon="1.87937">
        <ele>705.9</ele>
        <time>2026-07-09T09:44:59.000Z</time>
      </trkpt>
      <trkpt lat="45.80469" lon="1.87935">
        <ele>706.1</ele>
        <time>2026-07-09T09:45:00.000Z</time>
      </trkpt>
      <trkpt lat="45.80468" lon="1.87934">
        <ele>704.9</ele>
        <time>2026-07-09T09:45:01.000Z</time>
      </trkpt>
      <trkpt lat="45.80467" lon="1.87931">
        <ele>706.3</ele>
        <time>2026-07-09T09:45:02.000Z</time>
      </trkpt>
      <trkpt lat="45.80466" lon="1.87929">
        <ele>706.2</ele>
        <time>2026-07-09T09:45:03.000Z</time>
      </trkpt>
      <trkpt lat="45.80465" lon="1.87927">
        <ele>706</ele>
        <time>2026-07-09T09:45:04.000Z</time>
      </trkpt>
      <trkpt lat="45.80463" lon="1.87925">
        <ele>706.2</ele>
        <time>2026-07-09T09:45:05.000Z</time>
      </trkpt>
      <trkpt lat="45.80462" lon="1.87923">
        <ele>705.8</ele>
        <time>2026-07-09T09:45:06.000Z</time>
      </trkpt>
      <trkpt lat="45.80461" lon="1.87921">
        <ele>705.7</ele>
        <time>2026-07-09T09:45:07.000Z</time>
      </trkpt>
      <trkpt lat="45.8046" lon="1.8792">
        <ele>705.9</ele>
        <time>2026-07-09T09:45:08.000Z</time>
      </trkpt>
      <trkpt lat="45.80459" lon="1.87919">
        <ele>706.4</ele>
        <time>2026-07-09T09:45:09.000Z</time>
      </trkpt>
      <trkpt lat="45.80458" lon="1.87917">
        <ele>706.2</ele>
        <time>2026-07-09T09:45:10.000Z</time>
      </trkpt>
      <trkpt lat="45.80457" lon="1.87915">
        <ele>706.4</ele>
        <time>2026-07-09T09:45:11.000Z</time>
      </trkpt>
      <trkpt lat="45.80456" lon="1.87913">
        <ele>706</ele>
        <time>2026-07-09T09:45:12.000Z</time>
      </trkpt>
      <trkpt lat="45.80455" lon="1.87911">
        <ele>706.5</ele>
        <time>2026-07-09T09:45:13.000Z</time>
      </trkpt>
      <trkpt lat="45.80454" lon="1.87908">
        <ele>706.7</ele>
        <time>2026-07-09T09:45:14.000Z</time>
      </trkpt>
      <trkpt lat="45.80454" lon="1.87905">
        <ele>706.9</ele>
        <time>2026-07-09T09:45:15.000Z</time>
      </trkpt>
      <trkpt lat="45.80453" lon="1.87902">
        <ele>707.3</ele>
        <time>2026-07-09T09:45:16.000Z</time>
      </trkpt>
      <trkpt lat="45.80453" lon="1.87899">
        <ele>707.1</ele>
        <time>2026-07-09T09:45:17.000Z</time>
      </trkpt>
      <trkpt lat="45.80452" lon="1.87897">
        <ele>707.2</ele>
        <time>2026-07-09T09:45:18.000Z</time>
      </trkpt>
      <trkpt lat="45.80451" lon="1.87895">
        <ele>707.9</ele>
        <time>2026-07-09T09:45:19.000Z</time>
      </trkpt>
      <trkpt lat="45.80451" lon="1.87893">
        <ele>707.7</ele>
        <time>2026-07-09T09:45:20.000Z</time>
      </trkpt>
      <trkpt lat="45.8045" lon="1.87891">
        <ele>708.1</ele>
        <time>2026-07-09T09:45:21.000Z</time>
      </trkpt>
      <trkpt lat="45.80449" lon="1.8789">
        <ele>706.7</ele>
        <time>2026-07-09T09:45:22.000Z</time>
      </trkpt>
      <trkpt lat="45.80449" lon="1.87888">
        <ele>707</ele>
        <time>2026-07-09T09:45:23.000Z</time>
      </trkpt>
      <trkpt lat="45.80448" lon="1.87886">
        <ele>707.2</ele>
        <time>2026-07-09T09:45:24.000Z</time>
      </trkpt>
      <trkpt lat="45.80447" lon="1.87884">
        <ele>706.9</ele>
        <time>2026-07-09T09:45:25.000Z</time>
      </trkpt>
      <trkpt lat="45.80447" lon="1.87881">
        <ele>707.7</ele>
        <time>2026-07-09T09:45:26.000Z</time>
      </trkpt>
      <trkpt lat="45.80446" lon="1.87879">
        <ele>707.6</ele>
        <time>2026-07-09T09:45:27.000Z</time>
      </trkpt>
      <trkpt lat="45.80445" lon="1.87877">
        <ele>707.9</ele>
        <time>2026-07-09T09:45:28.000Z</time>
      </trkpt>
      <trkpt lat="45.80445" lon="1.87874">
        <ele>707.8</ele>
        <time>2026-07-09T09:45:29.000Z</time>
      </trkpt>
      <trkpt lat="45.80444" lon="1.87872">
        <ele>706.4</ele>
        <time>2026-07-09T09:45:30.000Z</time>
      </trkpt>
      <trkpt lat="45.80443" lon="1.87869">
        <ele>706.1</ele>
        <time>2026-07-09T09:45:31.000Z</time>
      </trkpt>
      <trkpt lat="45.80443" lon="1.87866">
        <ele>706.2</ele>
        <time>2026-07-09T09:45:32.000Z</time>
      </trkpt>
      <trkpt lat="45.80442" lon="1.87864">
        <ele>706</ele>
        <time>2026-07-09T09:45:33.000Z</time>
      </trkpt>
      <trkpt lat="45.80441" lon="1.87861">
        <ele>706.7</ele>
        <time>2026-07-09T09:45:34.000Z</time>
      </trkpt>
      <trkpt lat="45.8044" lon="1.87859">
        <ele>706.4</ele>
        <time>2026-07-09T09:45:35.000Z</time>
      </trkpt>
      <trkpt lat="45.80439" lon="1.87855">
        <ele>704.8</ele>
        <time>2026-07-09T09:45:36.000Z</time>
      </trkpt>
      <trkpt lat="45.80438" lon="1.87853">
        <ele>705.3</ele>
        <time>2026-07-09T09:45:37.000Z</time>
      </trkpt>
      <trkpt lat="45.80437" lon="1.87851">
        <ele>705.5</ele>
        <time>2026-07-09T09:45:38.000Z</time>
      </trkpt>
      <trkpt lat="45.80435" lon="1.87849">
        <ele>705.8</ele>
        <time>2026-07-09T09:45:39.000Z</time>
      </trkpt>
      <trkpt lat="45.80434" lon="1.87847">
        <ele>706.6</ele>
        <time>2026-07-09T09:45:40.000Z</time>
      </trkpt>
      <trkpt lat="45.80432" lon="1.87845">
        <ele>707.4</ele>
        <time>2026-07-09T09:45:41.000Z</time>
      </trkpt>
      <trkpt lat="45.8043" lon="1.87842">
        <ele>707.4</ele>
        <time>2026-07-09T09:45:42.000Z</time>
      </trkpt>
      <trkpt lat="45.80429" lon="1.87839">
        <ele>707.2</ele>
        <time>2026-07-09T09:45:43.000Z</time>
      </trkpt>
      <trkpt lat="45.80428" lon="1.87837">
        <ele>706.6</ele>
        <time>2026-07-09T09:45:44.000Z</time>
      </trkpt>
      <trkpt lat="45.80427" lon="1.87835">
        <ele>705.9</ele>
        <time>2026-07-09T09:45:45.000Z</time>
      </trkpt>
      <trkpt lat="45.80426" lon="1.87834">
        <ele>705.8</ele>
        <time>2026-07-09T09:45:46.000Z</time>
      </trkpt>
      <trkpt lat="45.80426" lon="1.87832">
        <ele>707.8</ele>
        <time>2026-07-09T09:45:47.000Z</time>
      </trkpt>
      <trkpt lat="45.80425" lon="1.8783">
        <ele>708.1</ele>
        <time>2026-07-09T09:45:48.000Z</time>
      </trkpt>
      <trkpt lat="45.80424" lon="1.87828">
        <ele>708.8</ele>
        <time>2026-07-09T09:45:49.000Z</time>
      </trkpt>
      <trkpt lat="45.80423" lon="1.87826">
        <ele>708.7</ele>
        <time>2026-07-09T09:45:50.000Z</time>
      </trkpt>
      <trkpt lat="45.80422" lon="1.87824">
        <ele>707.9</ele>
        <time>2026-07-09T09:45:51.000Z</time>
      </trkpt>
      <trkpt lat="45.80421" lon="1.87822">
        <ele>707.1</ele>
        <time>2026-07-09T09:45:52.000Z</time>
      </trkpt>
      <trkpt lat="45.80421" lon="1.87819">
        <ele>706.9</ele>
        <time>2026-07-09T09:45:53.000Z</time>
      </trkpt>
      <trkpt lat="45.8042" lon="1.87817">
        <ele>706.3</ele>
        <time>2026-07-09T09:45:54.000Z</time>
      </trkpt>
      <trkpt lat="45.80419" lon="1.87815">
        <ele>707.4</ele>
        <time>2026-07-09T09:45:55.000Z</time>
      </trkpt>
      <trkpt lat="45.80418" lon="1.87813">
        <ele>707.6</ele>
        <time>2026-07-09T09:45:56.000Z</time>
      </trkpt>
      <trkpt lat="45.80416" lon="1.87812">
        <ele>708.5</ele>
        <time>2026-07-09T09:45:57.000Z</time>
      </trkpt>
      <trkpt lat="45.80414" lon="1.87811">
        <ele>708.6</ele>
        <time>2026-07-09T09:45:58.000Z</time>
      </trkpt>
      <trkpt lat="45.80413" lon="1.87811">
        <ele>709.4</ele>
        <time>2026-07-09T09:45:59.000Z</time>
      </trkpt>
      <trkpt lat="45.80412" lon="1.8781">
        <ele>709</ele>
        <time>2026-07-09T09:46:00.000Z</time>
      </trkpt>
      <trkpt lat="45.8041" lon="1.87809">
        <ele>708.2</ele>
        <time>2026-07-09T09:46:01.000Z</time>
      </trkpt>
      <trkpt lat="45.80409" lon="1.87809">
        <ele>707.1</ele>
        <time>2026-07-09T09:46:02.000Z</time>
      </trkpt>
      <trkpt lat="45.80408" lon="1.87807">
        <ele>707</ele>
        <time>2026-07-09T09:46:03.000Z</time>
      </trkpt>
      <trkpt lat="45.80406" lon="1.87806">
        <ele>706.7</ele>
        <time>2026-07-09T09:46:04.000Z</time>
      </trkpt>
      <trkpt lat="45.80405" lon="1.87805">
        <ele>705.6</ele>
        <time>2026-07-09T09:46:05.000Z</time>
      </trkpt>
      <trkpt lat="45.80404" lon="1.87805">
        <ele>705.2</ele>
        <time>2026-07-09T09:46:06.000Z</time>
      </trkpt>
      <trkpt lat="45.80402" lon="1.87805">
        <ele>705.5</ele>
        <time>2026-07-09T09:46:07.000Z</time>
      </trkpt>
      <trkpt lat="45.80401" lon="1.87804">
        <ele>705.6</ele>
        <time>2026-07-09T09:46:08.000Z</time>
      </trkpt>
      <trkpt lat="45.804" lon="1.87803">
        <ele>705.4</ele>
        <time>2026-07-09T09:46:09.000Z</time>
      </trkpt>
      <trkpt lat="45.80398" lon="1.87802">
        <ele>705</ele>
        <time>2026-07-09T09:46:10.000Z</time>
      </trkpt>
      <trkpt lat="45.80397" lon="1.878">
        <ele>704.9</ele>
        <time>2026-07-09T09:46:11.000Z</time>
      </trkpt>
      <trkpt lat="45.80396" lon="1.87799">
        <ele>705.3</ele>
        <time>2026-07-09T09:46:12.000Z</time>
      </trkpt>
      <trkpt lat="45.80395" lon="1.87797">
        <ele>705.2</ele>
        <time>2026-07-09T09:46:13.000Z</time>
      </trkpt>
      <trkpt lat="45.80394" lon="1.87796">
        <ele>705.5</ele>
        <time>2026-07-09T09:46:14.000Z</time>
      </trkpt>
      <trkpt lat="45.80393" lon="1.87794">
        <ele>704.9</ele>
        <time>2026-07-09T09:46:15.000Z</time>
      </trkpt>
      <trkpt lat="45.80391" lon="1.87792">
        <ele>704.8</ele>
        <time>2026-07-09T09:46:16.000Z</time>
      </trkpt>
      <trkpt lat="45.80389" lon="1.8779">
        <ele>704.2</ele>
        <time>2026-07-09T09:46:17.000Z</time>
      </trkpt>
      <trkpt lat="45.80387" lon="1.87789">
        <ele>703.8</ele>
        <time>2026-07-09T09:46:18.000Z</time>
      </trkpt>
      <trkpt lat="45.80386" lon="1.87788">
        <ele>703.8</ele>
        <time>2026-07-09T09:46:19.000Z</time>
      </trkpt>
      <trkpt lat="45.80384" lon="1.87788">
        <ele>704.4</ele>
        <time>2026-07-09T09:46:20.000Z</time>
      </trkpt>
      <trkpt lat="45.80382" lon="1.87787">
        <ele>704.2</ele>
        <time>2026-07-09T09:46:21.000Z</time>
      </trkpt>
      <trkpt lat="45.80381" lon="1.87786">
        <ele>704.9</ele>
        <time>2026-07-09T09:46:22.000Z</time>
      </trkpt>
      <trkpt lat="45.80379" lon="1.87785">
        <ele>705.6</ele>
        <time>2026-07-09T09:46:23.000Z</time>
      </trkpt>
      <trkpt lat="45.80378" lon="1.87783">
        <ele>706.5</ele>
        <time>2026-07-09T09:46:24.000Z</time>
      </trkpt>
      <trkpt lat="45.80377" lon="1.87782">
        <ele>706.6</ele>
        <time>2026-07-09T09:46:25.000Z</time>
      </trkpt>
      <trkpt lat="45.80376" lon="1.8778">
        <ele>706.9</ele>
        <time>2026-07-09T09:46:26.000Z</time>
      </trkpt>
      <trkpt lat="45.80375" lon="1.87778">
        <ele>706.7</ele>
        <time>2026-07-09T09:46:27.000Z</time>
      </trkpt>
      <trkpt lat="45.80373" lon="1.87777">
        <ele>706.8</ele>
        <time>2026-07-09T09:46:28.000Z</time>
      </trkpt>
      <trkpt lat="45.80372" lon="1.87776">
        <ele>706.5</ele>
        <time>2026-07-09T09:46:29.000Z</time>
      </trkpt>
      <trkpt lat="45.80371" lon="1.87774">
        <ele>706.2</ele>
        <time>2026-07-09T09:46:30.000Z</time>
      </trkpt>
      <trkpt lat="45.80369" lon="1.87773">
        <ele>704.7</ele>
        <time>2026-07-09T09:46:31.000Z</time>
      </trkpt>
      <trkpt lat="45.80368" lon="1.87772">
        <ele>703.8</ele>
        <time>2026-07-09T09:46:32.000Z</time>
      </trkpt>
      <trkpt lat="45.80367" lon="1.8777">
        <ele>703.4</ele>
        <time>2026-07-09T09:46:33.000Z</time>
      </trkpt>
      <trkpt lat="45.80366" lon="1.87769">
        <ele>702.7</ele>
        <time>2026-07-09T09:46:34.000Z</time>
      </trkpt>
      <trkpt lat="45.80365" lon="1.87767">
        <ele>701</ele>
        <time>2026-07-09T09:46:35.000Z</time>
      </trkpt>
      <trkpt lat="45.80364" lon="1.87766">
        <ele>701.1</ele>
        <time>2026-07-09T09:46:36.000Z</time>
      </trkpt>
      <trkpt lat="45.80363" lon="1.87764">
        <ele>700.8</ele>
        <time>2026-07-09T09:46:37.000Z</time>
      </trkpt>
      <trkpt lat="45.80362" lon="1.87762">
        <ele>700.6</ele>
        <time>2026-07-09T09:46:38.000Z</time>
      </trkpt>
      <trkpt lat="45.80361" lon="1.87761">
        <ele>699.6</ele>
        <time>2026-07-09T09:46:39.000Z</time>
      </trkpt>
      <trkpt lat="45.8036" lon="1.87759">
        <ele>701.3</ele>
        <time>2026-07-09T09:46:40.000Z</time>
      </trkpt>
      <trkpt lat="45.80359" lon="1.87757">
        <ele>700.6</ele>
        <time>2026-07-09T09:46:41.000Z</time>
      </trkpt>
      <trkpt lat="45.80359" lon="1.87755">
        <ele>700.6</ele>
        <time>2026-07-09T09:46:42.000Z</time>
      </trkpt>
      <trkpt lat="45.80358" lon="1.87753">
        <ele>700.5</ele>
        <time>2026-07-09T09:46:43.000Z</time>
      </trkpt>
      <trkpt lat="45.80357" lon="1.87751">
        <ele>700.3</ele>
        <time>2026-07-09T09:46:44.000Z</time>
      </trkpt>
      <trkpt lat="45.80355" lon="1.87749">
        <ele>699.1</ele>
        <time>2026-07-09T09:46:45.000Z</time>
      </trkpt>
      <trkpt lat="45.80355" lon="1.87747">
        <ele>698.1</ele>
        <time>2026-07-09T09:46:46.000Z</time>
      </trkpt>
      <trkpt lat="45.80355" lon="1.87744">
        <ele>697.6</ele>
        <time>2026-07-09T09:46:47.000Z</time>
      </trkpt>
      <trkpt lat="45.80354" lon="1.87742">
        <ele>697.5</ele>
        <time>2026-07-09T09:46:48.000Z</time>
      </trkpt>
      <trkpt lat="45.80353" lon="1.87741">
        <ele>697.6</ele>
        <time>2026-07-09T09:46:49.000Z</time>
      </trkpt>
      <trkpt lat="45.80352" lon="1.87739">
        <ele>697.3</ele>
        <time>2026-07-09T09:46:50.000Z</time>
      </trkpt>
      <trkpt lat="45.80351" lon="1.87737">
        <ele>697.1</ele>
        <time>2026-07-09T09:46:51.000Z</time>
      </trkpt>
      <trkpt lat="45.80351" lon="1.87735">
        <ele>698</ele>
        <time>2026-07-09T09:46:52.000Z</time>
      </trkpt>
      <trkpt lat="45.80349" lon="1.87734">
        <ele>698.1</ele>
        <time>2026-07-09T09:46:53.000Z</time>
      </trkpt>
      <trkpt lat="45.80348" lon="1.87733">
        <ele>698.6</ele>
        <time>2026-07-09T09:46:54.000Z</time>
      </trkpt>
      <trkpt lat="45.80347" lon="1.87731">
        <ele>698.6</ele>
        <time>2026-07-09T09:46:55.000Z</time>
      </trkpt>
      <trkpt lat="45.80346" lon="1.87729">
        <ele>698.4</ele>
        <time>2026-07-09T09:46:56.000Z</time>
      </trkpt>
      <trkpt lat="45.80345" lon="1.87728">
        <ele>698.7</ele>
        <time>2026-07-09T09:46:57.000Z</time>
      </trkpt>
      <trkpt lat="45.80344" lon="1.87726">
        <ele>698.4</ele>
        <time>2026-07-09T09:46:58.000Z</time>
      </trkpt>
      <trkpt lat="45.80343" lon="1.87725">
        <ele>698.1</ele>
        <time>2026-07-09T09:46:59.000Z</time>
      </trkpt>
      <trkpt lat="45.80342" lon="1.87722">
        <ele>697.7</ele>
        <time>2026-07-09T09:47:00.000Z</time>
      </trkpt>
      <trkpt lat="45.80341" lon="1.87721">
        <ele>697.4</ele>
        <time>2026-07-09T09:47:01.000Z</time>
      </trkpt>
      <trkpt lat="45.8034" lon="1.8772">
        <ele>697.2</ele>
        <time>2026-07-09T09:47:02.000Z</time>
      </trkpt>
      <trkpt lat="45.80339" lon="1.87719">
        <ele>696.7</ele>
        <time>2026-07-09T09:47:03.000Z</time>
      </trkpt>
      <trkpt lat="45.80338" lon="1.87717">
        <ele>696.2</ele>
        <time>2026-07-09T09:47:04.000Z</time>
      </trkpt>
      <trkpt lat="45.80337" lon="1.87715">
        <ele>694</ele>
        <time>2026-07-09T09:47:05.000Z</time>
      </trkpt>
      <trkpt lat="45.80335" lon="1.87714">
        <ele>694.1</ele>
        <time>2026-07-09T09:47:06.000Z</time>
      </trkpt>
      <trkpt lat="45.80334" lon="1.87712">
        <ele>694.5</ele>
        <time>2026-07-09T09:47:07.000Z</time>
      </trkpt>
      <trkpt lat="45.80333" lon="1.87711">
        <ele>694.4</ele>
        <time>2026-07-09T09:47:08.000Z</time>
      </trkpt>
      <trkpt lat="45.80332" lon="1.8771">
        <ele>693.6</ele>
        <time>2026-07-09T09:47:09.000Z</time>
      </trkpt>
      <trkpt lat="45.80332" lon="1.87709">
        <ele>693.6</ele>
        <time>2026-07-09T09:47:10.000Z</time>
      </trkpt>
      <trkpt lat="45.80331" lon="1.87707">
        <ele>695.5</ele>
        <time>2026-07-09T09:47:11.000Z</time>
      </trkpt>
      <trkpt lat="45.80329" lon="1.87706">
        <ele>696.3</ele>
        <time>2026-07-09T09:47:12.000Z</time>
      </trkpt>
      <trkpt lat="45.80328" lon="1.87705">
        <ele>697.1</ele>
        <time>2026-07-09T09:47:13.000Z</time>
      </trkpt>
      <trkpt lat="45.80327" lon="1.87704">
        <ele>697.5</ele>
        <time>2026-07-09T09:47:14.000Z</time>
      </trkpt>
      <trkpt lat="45.80326" lon="1.87703">
        <ele>698.6</ele>
        <time>2026-07-09T09:47:15.000Z</time>
      </trkpt>
      <trkpt lat="45.80325" lon="1.87702">
        <ele>699.6</ele>
        <time>2026-07-09T09:47:16.000Z</time>
      </trkpt>
      <trkpt lat="45.80324" lon="1.87701">
        <ele>699.6</ele>
        <time>2026-07-09T09:47:17.000Z</time>
      </trkpt>
      <trkpt lat="45.80323" lon="1.87701">
        <ele>700</ele>
        <time>2026-07-09T09:47:18.000Z</time>
      </trkpt>
      <trkpt lat="45.80321" lon="1.877">
        <ele>699.5</ele>
        <time>2026-07-09T09:47:19.000Z</time>
      </trkpt>
      <trkpt lat="45.8032" lon="1.87699">
        <ele>699.7</ele>
        <time>2026-07-09T09:47:20.000Z</time>
      </trkpt>
      <trkpt lat="45.80319" lon="1.87697">
        <ele>698.5</ele>
        <time>2026-07-09T09:47:21.000Z</time>
      </trkpt>
      <trkpt lat="45.80318" lon="1.87696">
        <ele>699.2</ele>
        <time>2026-07-09T09:47:22.000Z</time>
      </trkpt>
      <trkpt lat="45.80316" lon="1.87695">
        <ele>699.4</ele>
        <time>2026-07-09T09:47:23.000Z</time>
      </trkpt>
      <trkpt lat="45.80315" lon="1.87693">
        <ele>698.9</ele>
        <time>2026-07-09T09:47:24.000Z</time>
      </trkpt>
      <trkpt lat="45.80313" lon="1.87692">
        <ele>698.5</ele>
        <time>2026-07-09T09:47:25.000Z</time>
      </trkpt>
      <trkpt lat="45.80312" lon="1.87691">
        <ele>697.8</ele>
        <time>2026-07-09T09:47:26.000Z</time>
      </trkpt>
      <trkpt lat="45.80311" lon="1.87689">
        <ele>698.7</ele>
        <time>2026-07-09T09:47:27.000Z</time>
      </trkpt>
      <trkpt lat="45.8031" lon="1.87689">
        <ele>698.2</ele>
        <time>2026-07-09T09:47:28.000Z</time>
      </trkpt>
      <trkpt lat="45.80308" lon="1.87688">
        <ele>697.8</ele>
        <time>2026-07-09T09:47:29.000Z</time>
      </trkpt>
      <trkpt lat="45.80307" lon="1.87687">
        <ele>698.8</ele>
        <time>2026-07-09T09:47:30.000Z</time>
      </trkpt>
      <trkpt lat="45.80306" lon="1.87686">
        <ele>699.1</ele>
        <time>2026-07-09T09:47:31.000Z</time>
      </trkpt>
      <trkpt lat="45.80305" lon="1.87685">
        <ele>698.4</ele>
        <time>2026-07-09T09:47:32.000Z</time>
      </trkpt>
      <trkpt lat="45.80303" lon="1.87685">
        <ele>697.9</ele>
        <time>2026-07-09T09:47:33.000Z</time>
      </trkpt>
      <trkpt lat="45.80302" lon="1.87683">
        <ele>698.3</ele>
        <time>2026-07-09T09:47:34.000Z</time>
      </trkpt>
      <trkpt lat="45.803" lon="1.87683">
        <ele>697.9</ele>
        <time>2026-07-09T09:47:35.000Z</time>
      </trkpt>
      <trkpt lat="45.80299" lon="1.87682">
        <ele>698.2</ele>
        <time>2026-07-09T09:47:36.000Z</time>
      </trkpt>
      <trkpt lat="45.80298" lon="1.87681">
        <ele>698.1</ele>
        <time>2026-07-09T09:47:37.000Z</time>
      </trkpt>
      <trkpt lat="45.80297" lon="1.8768">
        <ele>698</ele>
        <time>2026-07-09T09:47:38.000Z</time>
      </trkpt>
      <trkpt lat="45.80296" lon="1.8768">
        <ele>697.1</ele>
        <time>2026-07-09T09:47:39.000Z</time>
      </trkpt>
      <trkpt lat="45.80294" lon="1.87678">
        <ele>697.6</ele>
        <time>2026-07-09T09:47:40.000Z</time>
      </trkpt>
      <trkpt lat="45.80293" lon="1.87677">
        <ele>697.2</ele>
        <time>2026-07-09T09:47:41.000Z</time>
      </trkpt>
      <trkpt lat="45.80292" lon="1.87676">
        <ele>696.9</ele>
        <time>2026-07-09T09:47:42.000Z</time>
      </trkpt>
      <trkpt lat="45.80291" lon="1.87675">
        <ele>697.1</ele>
        <time>2026-07-09T09:47:43.000Z</time>
      </trkpt>
      <trkpt lat="45.8029" lon="1.87674">
        <ele>696.5</ele>
        <time>2026-07-09T09:47:44.000Z</time>
      </trkpt>
      <trkpt lat="45.80289" lon="1.87672">
        <ele>696.2</ele>
        <time>2026-07-09T09:47:45.000Z</time>
      </trkpt>
      <trkpt lat="45.80287" lon="1.87671">
        <ele>696.5</ele>
        <time>2026-07-09T09:47:46.000Z</time>
      </trkpt>
      <trkpt lat="45.80286" lon="1.8767">
        <ele>697.4</ele>
        <time>2026-07-09T09:47:47.000Z</time>
      </trkpt>
      <trkpt lat="45.80285" lon="1.87668">
        <ele>698.5</ele>
        <time>2026-07-09T09:47:48.000Z</time>
      </trkpt>
      <trkpt lat="45.80283" lon="1.87667">
        <ele>698.6</ele>
        <time>2026-07-09T09:47:49.000Z</time>
      </trkpt>
      <trkpt lat="45.80282" lon="1.87666">
        <ele>697.9</ele>
        <time>2026-07-09T09:47:50.000Z</time>
      </trkpt>
      <trkpt lat="45.8028" lon="1.87664">
        <ele>698.6</ele>
        <time>2026-07-09T09:47:51.000Z</time>
      </trkpt>
      <trkpt lat="45.80279" lon="1.87663">
        <ele>698</ele>
        <time>2026-07-09T09:47:52.000Z</time>
      </trkpt>
      <trkpt lat="45.80278" lon="1.87661">
        <ele>698.4</ele>
        <time>2026-07-09T09:47:53.000Z</time>
      </trkpt>
      <trkpt lat="45.80276" lon="1.87659">
        <ele>698.1</ele>
        <time>2026-07-09T09:47:54.000Z</time>
      </trkpt>
      <trkpt lat="45.80274" lon="1.87657">
        <ele>697.7</ele>
        <time>2026-07-09T09:47:55.000Z</time>
      </trkpt>
      <trkpt lat="45.80272" lon="1.87656">
        <ele>696.2</ele>
        <time>2026-07-09T09:47:56.000Z</time>
      </trkpt>
      <trkpt lat="45.8027" lon="1.87655">
        <ele>696.3</ele>
        <time>2026-07-09T09:47:57.000Z</time>
      </trkpt>
      <trkpt lat="45.80269" lon="1.87654">
        <ele>697.6</ele>
        <time>2026-07-09T09:47:58.000Z</time>
      </trkpt>
      <trkpt lat="45.80268" lon="1.87653">
        <ele>697.6</ele>
        <time>2026-07-09T09:47:59.000Z</time>
      </trkpt>
      <trkpt lat="45.80267" lon="1.87652">
        <ele>697.9</ele>
        <time>2026-07-09T09:48:00.000Z</time>
      </trkpt>
      <trkpt lat="45.80266" lon="1.87651">
        <ele>698.1</ele>
        <time>2026-07-09T09:48:01.000Z</time>
      </trkpt>
      <trkpt lat="45.80265" lon="1.8765">
        <ele>697.7</ele>
        <time>2026-07-09T09:48:02.000Z</time>
      </trkpt>
      <trkpt lat="45.80264" lon="1.87649">
        <ele>697.4</ele>
        <time>2026-07-09T09:48:03.000Z</time>
      </trkpt>
      <trkpt lat="45.80263" lon="1.87648">
        <ele>696.8</ele>
        <time>2026-07-09T09:48:04.000Z</time>
      </trkpt>
      <trkpt lat="45.80261" lon="1.87647">
        <ele>696.8</ele>
        <time>2026-07-09T09:48:05.000Z</time>
      </trkpt>
      <trkpt lat="45.8026" lon="1.87646">
        <ele>696.1</ele>
        <time>2026-07-09T09:48:06.000Z</time>
      </trkpt>
      <trkpt lat="45.80259" lon="1.87645">
        <ele>696.2</ele>
        <time>2026-07-09T09:48:07.000Z</time>
      </trkpt>
      <trkpt lat="45.80258" lon="1.87644">
        <ele>695.8</ele>
        <time>2026-07-09T09:48:08.000Z</time>
      </trkpt>
      <trkpt lat="45.80256" lon="1.87642">
        <ele>696.6</ele>
        <time>2026-07-09T09:48:09.000Z</time>
      </trkpt>
      <trkpt lat="45.80255" lon="1.8764">
        <ele>697.3</ele>
        <time>2026-07-09T09:48:10.000Z</time>
      </trkpt>
      <trkpt lat="45.80253" lon="1.87639">
        <ele>696.8</ele>
        <time>2026-07-09T09:48:11.000Z</time>
      </trkpt>
      <trkpt lat="45.80252" lon="1.87638">
        <ele>698.2</ele>
        <time>2026-07-09T09:48:12.000Z</time>
      </trkpt>
      <trkpt lat="45.8025" lon="1.87637">
        <ele>698.6</ele>
        <time>2026-07-09T09:48:13.000Z</time>
      </trkpt>
      <trkpt lat="45.80249" lon="1.87636">
        <ele>698.1</ele>
        <time>2026-07-09T09:48:14.000Z</time>
      </trkpt>
      <trkpt lat="45.80248" lon="1.87634">
        <ele>698</ele>
        <time>2026-07-09T09:48:15.000Z</time>
      </trkpt>
      <trkpt lat="45.80246" lon="1.87632">
        <ele>698.7</ele>
        <time>2026-07-09T09:48:16.000Z</time>
      </trkpt>
      <trkpt lat="45.80245" lon="1.87632">
        <ele>698.7</ele>
        <time>2026-07-09T09:48:17.000Z</time>
      </trkpt>
      <trkpt lat="45.80244" lon="1.87632">
        <ele>698.4</ele>
        <time>2026-07-09T09:48:18.000Z</time>
      </trkpt>
      <trkpt lat="45.80244" lon="1.87632">
        <ele>698.9</ele>
        <time>2026-07-09T09:48:19.000Z</time>
      </trkpt>
      <trkpt lat="45.80244" lon="1.87632">
        <ele>698.1</ele>
        <time>2026-07-09T09:48:20.000Z</time>
      </trkpt>
      <trkpt lat="45.80244" lon="1.87632">
        <ele>698.2</ele>
        <time>2026-07-09T09:48:21.000Z</time>
      </trkpt>
      <trkpt lat="45.80245" lon="1.87632">
        <ele>698.8</ele>
        <time>2026-07-09T09:48:22.000Z</time>
      </trkpt>
      <trkpt lat="45.80245" lon="1.87633">
        <ele>698.6</ele>
        <time>2026-07-09T09:48:23.000Z</time>
      </trkpt>
      <trkpt lat="45.80245" lon="1.87634">
        <ele>699.1</ele>
        <time>2026-07-09T09:48:24.000Z</time>
      </trkpt>
      <trkpt lat="45.80245" lon="1.87634">
        <ele>699.5</ele>
        <time>2026-07-09T09:48:25.000Z</time>
      </trkpt>
      <trkpt lat="45.80246" lon="1.87636">
        <ele>698.9</ele>
        <time>2026-07-09T09:48:26.000Z</time>
      </trkpt>
      <trkpt lat="45.80244" lon="1.87638">
        <ele>697.5</ele>
        <time>2026-07-09T09:48:27.000Z</time>
      </trkpt>
      <trkpt lat="45.80245" lon="1.87639">
        <ele>697</ele>
        <time>2026-07-09T09:48:28.000Z</time>
      </trkpt>
      <trkpt lat="45.80246" lon="1.8764">
        <ele>695</ele>
        <time>2026-07-09T09:48:29.000Z</time>
      </trkpt>
      <trkpt lat="45.80245" lon="1.87642">
        <ele>693.5</ele>
        <time>2026-07-09T09:48:30.000Z</time>
      </trkpt>
      <trkpt lat="45.80244" lon="1.87644">
        <ele>691.2</ele>
        <time>2026-07-09T09:48:31.000Z</time>
      </trkpt>
      <trkpt lat="45.80242" lon="1.87646">
        <ele>690</ele>
        <time>2026-07-09T09:48:32.000Z</time>
      </trkpt>
      <trkpt lat="45.80238" lon="1.87642">
        <ele>690.1</ele>
        <time>2026-07-09T09:48:33.000Z</time>
      </trkpt>
      <trkpt lat="45.80236" lon="1.8764">
        <ele>691.4</ele>
        <time>2026-07-09T09:48:34.000Z</time>
      </trkpt>
      <trkpt lat="45.80234" lon="1.87639">
        <ele>691.2</ele>
        <time>2026-07-09T09:48:35.000Z</time>
      </trkpt>
      <trkpt lat="45.80232" lon="1.87637">
        <ele>691.5</ele>
        <time>2026-07-09T09:48:36.000Z</time>
      </trkpt>
      <trkpt lat="45.80231" lon="1.87636">
        <ele>691.1</ele>
        <time>2026-07-09T09:48:37.000Z</time>
      </trkpt>
      <trkpt lat="45.80229" lon="1.87635">
        <ele>690.5</ele>
        <time>2026-07-09T09:48:38.000Z</time>
      </trkpt>
      <trkpt lat="45.80227" lon="1.87634">
        <ele>690</ele>
        <time>2026-07-09T09:48:39.000Z</time>
      </trkpt>
      <trkpt lat="45.80226" lon="1.87633">
        <ele>689.1</ele>
        <time>2026-07-09T09:48:40.000Z</time>
      </trkpt>
      <trkpt lat="45.80224" lon="1.87632">
        <ele>689.1</ele>
        <time>2026-07-09T09:48:41.000Z</time>
      </trkpt>
      <trkpt lat="45.80223" lon="1.87631">
        <ele>688.9</ele>
        <time>2026-07-09T09:48:42.000Z</time>
      </trkpt>
      <trkpt lat="45.80222" lon="1.8763">
        <ele>688.6</ele>
        <time>2026-07-09T09:48:43.000Z</time>
      </trkpt>
      <trkpt lat="45.8022" lon="1.87629">
        <ele>688</ele>
        <time>2026-07-09T09:48:44.000Z</time>
      </trkpt>
      <trkpt lat="45.80219" lon="1.87628">
        <ele>686.6</ele>
        <time>2026-07-09T09:48:45.000Z</time>
      </trkpt>
      <trkpt lat="45.80218" lon="1.87627">
        <ele>687.2</ele>
        <time>2026-07-09T09:48:46.000Z</time>
      </trkpt>
      <trkpt lat="45.80217" lon="1.87625">
        <ele>689.1</ele>
        <time>2026-07-09T09:48:47.000Z</time>
      </trkpt>
      <trkpt lat="45.80215" lon="1.87623">
        <ele>689.2</ele>
        <time>2026-07-09T09:48:48.000Z</time>
      </trkpt>
      <trkpt lat="45.80214" lon="1.87621">
        <ele>689</ele>
        <time>2026-07-09T09:48:49.000Z</time>
      </trkpt>
      <trkpt lat="45.80212" lon="1.87619">
        <ele>688.9</ele>
        <time>2026-07-09T09:48:50.000Z</time>
      </trkpt>
      <trkpt lat="45.8021" lon="1.87618">
        <ele>689</ele>
        <time>2026-07-09T09:48:51.000Z</time>
      </trkpt>
      <trkpt lat="45.80208" lon="1.87616">
        <ele>688.7</ele>
        <time>2026-07-09T09:48:52.000Z</time>
      </trkpt>
      <trkpt lat="45.80207" lon="1.87615">
        <ele>688.6</ele>
        <time>2026-07-09T09:48:53.000Z</time>
      </trkpt>
      <trkpt lat="45.80205" lon="1.87613">
        <ele>688.7</ele>
        <time>2026-07-09T09:48:54.000Z</time>
      </trkpt>
      <trkpt lat="45.80204" lon="1.87612">
        <ele>688.8</ele>
        <time>2026-07-09T09:48:55.000Z</time>
      </trkpt>
      <trkpt lat="45.80202" lon="1.8761">
        <ele>688.4</ele>
        <time>2026-07-09T09:48:56.000Z</time>
      </trkpt>
      <trkpt lat="45.80201" lon="1.87609">
        <ele>688.4</ele>
        <time>2026-07-09T09:48:57.000Z</time>
      </trkpt>
      <trkpt lat="45.80199" lon="1.87607">
        <ele>687.7</ele>
        <time>2026-07-09T09:48:58.000Z</time>
      </trkpt>
      <trkpt lat="45.80198" lon="1.87606">
        <ele>688.2</ele>
        <time>2026-07-09T09:48:59.000Z</time>
      </trkpt>
      <trkpt lat="45.80198" lon="1.87602">
        <ele>690.2</ele>
        <time>2026-07-09T09:49:00.000Z</time>
      </trkpt>
      <trkpt lat="45.80197" lon="1.87599">
        <ele>691.4</ele>
        <time>2026-07-09T09:49:01.000Z</time>
      </trkpt>
      <trkpt lat="45.80196" lon="1.87596">
        <ele>690.5</ele>
        <time>2026-07-09T09:49:02.000Z</time>
      </trkpt>
      <trkpt lat="45.80195" lon="1.87594">
        <ele>689.4</ele>
        <time>2026-07-09T09:49:03.000Z</time>
      </trkpt>
      <trkpt lat="45.80194" lon="1.87592">
        <ele>689.9</ele>
        <time>2026-07-09T09:49:04.000Z</time>
      </trkpt>
      <trkpt lat="45.80193" lon="1.87589">
        <ele>691</ele>
        <time>2026-07-09T09:49:05.000Z</time>
      </trkpt>
      <trkpt lat="45.80192" lon="1.87586">
        <ele>692.2</ele>
        <time>2026-07-09T09:49:06.000Z</time>
      </trkpt>
      <trkpt lat="45.80191" lon="1.87584">
        <ele>691.7</ele>
        <time>2026-07-09T09:49:07.000Z</time>
      </trkpt>
      <trkpt lat="45.8019" lon="1.87581">
        <ele>693.2</ele>
        <time>2026-07-09T09:49:08.000Z</time>
      </trkpt>
      <trkpt lat="45.80189" lon="1.87579">
        <ele>693.3</ele>
        <time>2026-07-09T09:49:09.000Z</time>
      </trkpt>
      <trkpt lat="45.80188" lon="1.87577">
        <ele>693.3</ele>
        <time>2026-07-09T09:49:10.000Z</time>
      </trkpt>
      <trkpt lat="45.80187" lon="1.87576">
        <ele>692.3</ele>
        <time>2026-07-09T09:49:11.000Z</time>
      </trkpt>
      <trkpt lat="45.80186" lon="1.87574">
        <ele>692.9</ele>
        <time>2026-07-09T09:49:12.000Z</time>
      </trkpt>
      <trkpt lat="45.80185" lon="1.87573">
        <ele>692.4</ele>
        <time>2026-07-09T09:49:13.000Z</time>
      </trkpt>
      <trkpt lat="45.80183" lon="1.87571">
        <ele>693</ele>
        <time>2026-07-09T09:49:14.000Z</time>
      </trkpt>
      <trkpt lat="45.80182" lon="1.87569">
        <ele>693</ele>
        <time>2026-07-09T09:49:15.000Z</time>
      </trkpt>
      <trkpt lat="45.80181" lon="1.87568">
        <ele>692.6</ele>
        <time>2026-07-09T09:49:16.000Z</time>
      </trkpt>
      <trkpt lat="45.80181" lon="1.87565">
        <ele>693.5</ele>
        <time>2026-07-09T09:49:17.000Z</time>
      </trkpt>
      <trkpt lat="45.80179" lon="1.87563">
        <ele>694.4</ele>
        <time>2026-07-09T09:49:18.000Z</time>
      </trkpt>
      <trkpt lat="45.80178" lon="1.87562">
        <ele>694</ele>
        <time>2026-07-09T09:49:19.000Z</time>
      </trkpt>
      <trkpt lat="45.80177" lon="1.8756">
        <ele>694</ele>
        <time>2026-07-09T09:49:20.000Z</time>
      </trkpt>
      <trkpt lat="45.80175" lon="1.87558">
        <ele>694</ele>
        <time>2026-07-09T09:49:21.000Z</time>
      </trkpt>
      <trkpt lat="45.80173" lon="1.87556">
        <ele>695</ele>
        <time>2026-07-09T09:49:22.000Z</time>
      </trkpt>
      <trkpt lat="45.80172" lon="1.87555">
        <ele>695</ele>
        <time>2026-07-09T09:49:23.000Z</time>
      </trkpt>
      <trkpt lat="45.80171" lon="1.87553">
        <ele>694.7</ele>
        <time>2026-07-09T09:49:24.000Z</time>
      </trkpt>
      <trkpt lat="45.80169" lon="1.87551">
        <ele>694</ele>
        <time>2026-07-09T09:49:25.000Z</time>
      </trkpt>
      <trkpt lat="45.80167" lon="1.8755">
        <ele>694.3</ele>
        <time>2026-07-09T09:49:26.000Z</time>
      </trkpt>
      <trkpt lat="45.80166" lon="1.8755">
        <ele>693.5</ele>
        <time>2026-07-09T09:49:27.000Z</time>
      </trkpt>
      <trkpt lat="45.80164" lon="1.87549">
        <ele>694.3</ele>
        <time>2026-07-09T09:49:28.000Z</time>
      </trkpt>
      <trkpt lat="45.80163" lon="1.87548">
        <ele>694.3</ele>
        <time>2026-07-09T09:49:29.000Z</time>
      </trkpt>
      <trkpt lat="45.80162" lon="1.87547">
        <ele>695.5</ele>
        <time>2026-07-09T09:49:30.000Z</time>
      </trkpt>
      <trkpt lat="45.8016" lon="1.87546">
        <ele>695.3</ele>
        <time>2026-07-09T09:49:31.000Z</time>
      </trkpt>
      <trkpt lat="45.80159" lon="1.87545">
        <ele>694.2</ele>
        <time>2026-07-09T09:49:32.000Z</time>
      </trkpt>
      <trkpt lat="45.80158" lon="1.87544">
        <ele>694.7</ele>
        <time>2026-07-09T09:49:33.000Z</time>
      </trkpt>
      <trkpt lat="45.80157" lon="1.87542">
        <ele>694.7</ele>
        <time>2026-07-09T09:49:34.000Z</time>
      </trkpt>
      <trkpt lat="45.80157" lon="1.87541">
        <ele>694.8</ele>
        <time>2026-07-09T09:49:35.000Z</time>
      </trkpt>
      <trkpt lat="45.80154" lon="1.8754">
        <ele>695.3</ele>
        <time>2026-07-09T09:49:36.000Z</time>
      </trkpt>
      <trkpt lat="45.80152" lon="1.87537">
        <ele>695.9</ele>
        <time>2026-07-09T09:49:37.000Z</time>
      </trkpt>
      <trkpt lat="45.8015" lon="1.87535">
        <ele>696</ele>
        <time>2026-07-09T09:49:38.000Z</time>
      </trkpt>
      <trkpt lat="45.80148" lon="1.87534">
        <ele>696.3</ele>
        <time>2026-07-09T09:49:39.000Z</time>
      </trkpt>
      <trkpt lat="45.80147" lon="1.87533">
        <ele>697.9</ele>
        <time>2026-07-09T09:49:40.000Z</time>
      </trkpt>
      <trkpt lat="45.80146" lon="1.87532">
        <ele>697.7</ele>
        <time>2026-07-09T09:49:41.000Z</time>
      </trkpt>
      <trkpt lat="45.80144" lon="1.87531">
        <ele>698.2</ele>
        <time>2026-07-09T09:49:42.000Z</time>
      </trkpt>
      <trkpt lat="45.80143" lon="1.8753">
        <ele>698.6</ele>
        <time>2026-07-09T09:49:43.000Z</time>
      </trkpt>
      <trkpt lat="45.80141" lon="1.87529">
        <ele>698.7</ele>
        <time>2026-07-09T09:49:44.000Z</time>
      </trkpt>
      <trkpt lat="45.8014" lon="1.87529">
        <ele>698.6</ele>
        <time>2026-07-09T09:49:45.000Z</time>
      </trkpt>
      <trkpt lat="45.80139" lon="1.87529">
        <ele>699.1</ele>
        <time>2026-07-09T09:49:46.000Z</time>
      </trkpt>
      <trkpt lat="45.80137" lon="1.87528">
        <ele>698.9</ele>
        <time>2026-07-09T09:49:47.000Z</time>
      </trkpt>
      <trkpt lat="45.80136" lon="1.87527">
        <ele>698.3</ele>
        <time>2026-07-09T09:49:48.000Z</time>
      </trkpt>
      <trkpt lat="45.80135" lon="1.87526">
        <ele>697.6</ele>
        <time>2026-07-09T09:49:49.000Z</time>
      </trkpt>
      <trkpt lat="45.80134" lon="1.87525">
        <ele>697.6</ele>
        <time>2026-07-09T09:49:50.000Z</time>
      </trkpt>
      <trkpt lat="45.80132" lon="1.87524">
        <ele>697.6</ele>
        <time>2026-07-09T09:49:51.000Z</time>
      </trkpt>
      <trkpt lat="45.80131" lon="1.87524">
        <ele>697.4</ele>
        <time>2026-07-09T09:49:52.000Z</time>
      </trkpt>
      <trkpt lat="45.8013" lon="1.87523">
        <ele>697.8</ele>
        <time>2026-07-09T09:49:53.000Z</time>
      </trkpt>
      <trkpt lat="45.80128" lon="1.87523">
        <ele>697.3</ele>
        <time>2026-07-09T09:49:54.000Z</time>
      </trkpt>
      <trkpt lat="45.80127" lon="1.87523">
        <ele>696.3</ele>
        <time>2026-07-09T09:49:55.000Z</time>
      </trkpt>
      <trkpt lat="45.80126" lon="1.87522">
        <ele>696.4</ele>
        <time>2026-07-09T09:49:56.000Z</time>
      </trkpt>
      <trkpt lat="45.80124" lon="1.87522">
        <ele>695.9</ele>
        <time>2026-07-09T09:49:57.000Z</time>
      </trkpt>
      <trkpt lat="45.80123" lon="1.87521">
        <ele>695.8</ele>
        <time>2026-07-09T09:49:58.000Z</time>
      </trkpt>
      <trkpt lat="45.80121" lon="1.8752">
        <ele>695.8</ele>
        <time>2026-07-09T09:49:59.000Z</time>
      </trkpt>
      <trkpt lat="45.8012" lon="1.87519">
        <ele>696.9</ele>
        <time>2026-07-09T09:50:00.000Z</time>
      </trkpt>
      <trkpt lat="45.80118" lon="1.87518">
        <ele>697.5</ele>
        <time>2026-07-09T09:50:01.000Z</time>
      </trkpt>
      <trkpt lat="45.80117" lon="1.87517">
        <ele>697.4</ele>
        <time>2026-07-09T09:50:02.000Z</time>
      </trkpt>
      <trkpt lat="45.80116" lon="1.87517">
        <ele>697.5</ele>
        <time>2026-07-09T09:50:03.000Z</time>
      </trkpt>
      <trkpt lat="45.80115" lon="1.87517">
        <ele>697.3</ele>
        <time>2026-07-09T09:50:04.000Z</time>
      </trkpt>
      <trkpt lat="45.80113" lon="1.87516">
        <ele>697.1</ele>
        <time>2026-07-09T09:50:05.000Z</time>
      </trkpt>
      <trkpt lat="45.80112" lon="1.87516">
        <ele>696.3</ele>
        <time>2026-07-09T09:50:06.000Z</time>
      </trkpt>
      <trkpt lat="45.80111" lon="1.87515">
        <ele>695.7</ele>
        <time>2026-07-09T09:50:07.000Z</time>
      </trkpt>
      <trkpt lat="45.80109" lon="1.87514">
        <ele>695.5</ele>
        <time>2026-07-09T09:50:08.000Z</time>
      </trkpt>
      <trkpt lat="45.80108" lon="1.87514">
        <ele>696</ele>
        <time>2026-07-09T09:50:09.000Z</time>
      </trkpt>
      <trkpt lat="45.80106" lon="1.87513">
        <ele>696.4</ele>
        <time>2026-07-09T09:50:10.000Z</time>
      </trkpt>
      <trkpt lat="45.80104" lon="1.87512">
        <ele>696.4</ele>
        <time>2026-07-09T09:50:11.000Z</time>
      </trkpt>
      <trkpt lat="45.80103" lon="1.87511">
        <ele>696.3</ele>
        <time>2026-07-09T09:50:12.000Z</time>
      </trkpt>
      <trkpt lat="45.80101" lon="1.8751">
        <ele>696.3</ele>
        <time>2026-07-09T09:50:13.000Z</time>
      </trkpt>
      <trkpt lat="45.801" lon="1.8751">
        <ele>696.7</ele>
        <time>2026-07-09T09:50:14.000Z</time>
      </trkpt>
      <trkpt lat="45.80099" lon="1.8751">
        <ele>696.6</ele>
        <time>2026-07-09T09:50:15.000Z</time>
      </trkpt>
      <trkpt lat="45.80097" lon="1.8751">
        <ele>696.6</ele>
        <time>2026-07-09T09:50:16.000Z</time>
      </trkpt>
      <trkpt lat="45.80096" lon="1.87509">
        <ele>696.6</ele>
        <time>2026-07-09T09:50:17.000Z</time>
      </trkpt>
      <trkpt lat="45.80095" lon="1.87508">
        <ele>697.3</ele>
        <time>2026-07-09T09:50:18.000Z</time>
      </trkpt>
      <trkpt lat="45.80094" lon="1.87507">
        <ele>698.2</ele>
        <time>2026-07-09T09:50:19.000Z</time>
      </trkpt>
      <trkpt lat="45.80092" lon="1.87506">
        <ele>697.9</ele>
        <time>2026-07-09T09:50:20.000Z</time>
      </trkpt>
      <trkpt lat="45.80091" lon="1.87505">
        <ele>697.4</ele>
        <time>2026-07-09T09:50:21.000Z</time>
      </trkpt>
      <trkpt lat="45.80089" lon="1.87505">
        <ele>697</ele>
        <time>2026-07-09T09:50:22.000Z</time>
      </trkpt>
      <trkpt lat="45.80088" lon="1.87505">
        <ele>697.1</ele>
        <time>2026-07-09T09:50:23.000Z</time>
      </trkpt>
      <trkpt lat="45.80086" lon="1.87504">
        <ele>697</ele>
        <time>2026-07-09T09:50:24.000Z</time>
      </trkpt>
      <trkpt lat="45.80085" lon="1.87503">
        <ele>697.1</ele>
        <time>2026-07-09T09:50:25.000Z</time>
      </trkpt>
      <trkpt lat="45.80083" lon="1.87503">
        <ele>697.4</ele>
        <time>2026-07-09T09:50:26.000Z</time>
      </trkpt>
      <trkpt lat="45.80082" lon="1.87502">
        <ele>698</ele>
        <time>2026-07-09T09:50:27.000Z</time>
      </trkpt>
      <trkpt lat="45.8008" lon="1.87503">
        <ele>697.6</ele>
        <time>2026-07-09T09:50:28.000Z</time>
      </trkpt>
      <trkpt lat="45.80079" lon="1.87503">
        <ele>697.7</ele>
        <time>2026-07-09T09:50:29.000Z</time>
      </trkpt>
      <trkpt lat="45.80077" lon="1.87503">
        <ele>698</ele>
        <time>2026-07-09T09:50:30.000Z</time>
      </trkpt>
      <trkpt lat="45.80076" lon="1.87503">
        <ele>697.4</ele>
        <time>2026-07-09T09:50:31.000Z</time>
      </trkpt>
      <trkpt lat="45.80075" lon="1.87503">
        <ele>697.4</ele>
        <time>2026-07-09T09:50:32.000Z</time>
      </trkpt>
      <trkpt lat="45.80073" lon="1.87503">
        <ele>697.6</ele>
        <time>2026-07-09T09:50:33.000Z</time>
      </trkpt>
      <trkpt lat="45.80072" lon="1.87503">
        <ele>697.9</ele>
        <time>2026-07-09T09:50:34.000Z</time>
      </trkpt>
      <trkpt lat="45.8007" lon="1.87503">
        <ele>698</ele>
        <time>2026-07-09T09:50:35.000Z</time>
      </trkpt>
      <trkpt lat="45.80069" lon="1.87503">
        <ele>698</ele>
        <time>2026-07-09T09:50:36.000Z</time>
      </trkpt>
      <trkpt lat="45.80067" lon="1.87504">
        <ele>697.8</ele>
        <time>2026-07-09T09:50:37.000Z</time>
      </trkpt>
      <trkpt lat="45.80066" lon="1.87504">
        <ele>697.1</ele>
        <time>2026-07-09T09:50:38.000Z</time>
      </trkpt>
      <trkpt lat="45.80065" lon="1.87504">
        <ele>697.2</ele>
        <time>2026-07-09T09:50:39.000Z</time>
      </trkpt>
      <trkpt lat="45.80063" lon="1.87504">
        <ele>697.5</ele>
        <time>2026-07-09T09:50:40.000Z</time>
      </trkpt>
      <trkpt lat="45.80062" lon="1.87504">
        <ele>696.9</ele>
        <time>2026-07-09T09:50:41.000Z</time>
      </trkpt>
      <trkpt lat="45.8006" lon="1.87505">
        <ele>697.3</ele>
        <time>2026-07-09T09:50:42.000Z</time>
      </trkpt>
      <trkpt lat="45.80059" lon="1.87506">
        <ele>697.6</ele>
        <time>2026-07-09T09:50:43.000Z</time>
      </trkpt>
      <trkpt lat="45.80058" lon="1.87506">
        <ele>697.1</ele>
        <time>2026-07-09T09:50:44.000Z</time>
      </trkpt>
      <trkpt lat="45.80057" lon="1.87505">
        <ele>697.5</ele>
        <time>2026-07-09T09:50:45.000Z</time>
      </trkpt>
      <trkpt lat="45.80056" lon="1.87506">
        <ele>696.4</ele>
        <time>2026-07-09T09:50:46.000Z</time>
      </trkpt>
      <trkpt lat="45.80055" lon="1.87506">
        <ele>695.7</ele>
        <time>2026-07-09T09:50:47.000Z</time>
      </trkpt>
      <trkpt lat="45.80053" lon="1.87507">
        <ele>695.3</ele>
        <time>2026-07-09T09:50:48.000Z</time>
      </trkpt>
      <trkpt lat="45.80051" lon="1.87508">
        <ele>694.7</ele>
        <time>2026-07-09T09:50:49.000Z</time>
      </trkpt>
      <trkpt lat="45.80049" lon="1.87508">
        <ele>694.7</ele>
        <time>2026-07-09T09:50:50.000Z</time>
      </trkpt>
      <trkpt lat="45.80048" lon="1.87508">
        <ele>694.5</ele>
        <time>2026-07-09T09:50:51.000Z</time>
      </trkpt>
      <trkpt lat="45.80047" lon="1.87509">
        <ele>694.4</ele>
        <time>2026-07-09T09:50:52.000Z</time>
      </trkpt>
      <trkpt lat="45.80046" lon="1.87509">
        <ele>693.9</ele>
        <time>2026-07-09T09:50:53.000Z</time>
      </trkpt>
      <trkpt lat="45.80045" lon="1.87509">
        <ele>693.1</ele>
        <time>2026-07-09T09:50:54.000Z</time>
      </trkpt>
      <trkpt lat="45.80043" lon="1.87508">
        <ele>694.3</ele>
        <time>2026-07-09T09:50:55.000Z</time>
      </trkpt>
      <trkpt lat="45.80041" lon="1.87507">
        <ele>695.1</ele>
        <time>2026-07-09T09:50:56.000Z</time>
      </trkpt>
      <trkpt lat="45.8004" lon="1.87507">
        <ele>694.6</ele>
        <time>2026-07-09T09:50:57.000Z</time>
      </trkpt>
      <trkpt lat="45.80038" lon="1.87507">
        <ele>693.7</ele>
        <time>2026-07-09T09:50:58.000Z</time>
      </trkpt>
      <trkpt lat="45.80036" lon="1.87507">
        <ele>693.9</ele>
        <time>2026-07-09T09:50:59.000Z</time>
      </trkpt>
      <trkpt lat="45.80035" lon="1.87507">
        <ele>693.1</ele>
        <time>2026-07-09T09:51:00.000Z</time>
      </trkpt>
      <trkpt lat="45.80033" lon="1.87506">
        <ele>694.3</ele>
        <time>2026-07-09T09:51:01.000Z</time>
      </trkpt>
      <trkpt lat="45.80032" lon="1.87503">
        <ele>694.3</ele>
        <time>2026-07-09T09:51:02.000Z</time>
      </trkpt>
      <trkpt lat="45.80031" lon="1.87501">
        <ele>694.3</ele>
        <time>2026-07-09T09:51:03.000Z</time>
      </trkpt>
      <trkpt lat="45.80029" lon="1.875">
        <ele>695.3</ele>
        <time>2026-07-09T09:51:04.000Z</time>
      </trkpt>
      <trkpt lat="45.80027" lon="1.87498">
        <ele>694.2</ele>
        <time>2026-07-09T09:51:05.000Z</time>
      </trkpt>
      <trkpt lat="45.80026" lon="1.87497">
        <ele>694.3</ele>
        <time>2026-07-09T09:51:06.000Z</time>
      </trkpt>
      <trkpt lat="45.80025" lon="1.87495">
        <ele>695.5</ele>
        <time>2026-07-09T09:51:07.000Z</time>
      </trkpt>
      <trkpt lat="45.80023" lon="1.87494">
        <ele>695.2</ele>
        <time>2026-07-09T09:51:08.000Z</time>
      </trkpt>
      <trkpt lat="45.80022" lon="1.87494">
        <ele>695.6</ele>
        <time>2026-07-09T09:51:09.000Z</time>
      </trkpt>
      <trkpt lat="45.80021" lon="1.87492">
        <ele>696.3</ele>
        <time>2026-07-09T09:51:10.000Z</time>
      </trkpt>
      <trkpt lat="45.8002" lon="1.8749">
        <ele>696.7</ele>
        <time>2026-07-09T09:51:11.000Z</time>
      </trkpt>
      <trkpt lat="45.80019" lon="1.87488">
        <ele>697.3</ele>
        <time>2026-07-09T09:51:12.000Z</time>
      </trkpt>
      <trkpt lat="45.80018" lon="1.87487">
        <ele>697.5</ele>
        <time>2026-07-09T09:51:13.000Z</time>
      </trkpt>
      <trkpt lat="45.80017" lon="1.87485">
        <ele>698</ele>
        <time>2026-07-09T09:51:14.000Z</time>
      </trkpt>
      <trkpt lat="45.80016" lon="1.87483">
        <ele>699.1</ele>
        <time>2026-07-09T09:51:15.000Z</time>
      </trkpt>
      <trkpt lat="45.80014" lon="1.87481">
        <ele>698.8</ele>
        <time>2026-07-09T09:51:16.000Z</time>
      </trkpt>
      <trkpt lat="45.80013" lon="1.87481">
        <ele>698.5</ele>
        <time>2026-07-09T09:51:17.000Z</time>
      </trkpt>
      <trkpt lat="45.80012" lon="1.87479">
        <ele>699.7</ele>
        <time>2026-07-09T09:51:18.000Z</time>
      </trkpt>
      <trkpt lat="45.80011" lon="1.87477">
        <ele>699.6</ele>
        <time>2026-07-09T09:51:19.000Z</time>
      </trkpt>
      <trkpt lat="45.80009" lon="1.87476">
        <ele>699.3</ele>
        <time>2026-07-09T09:51:20.000Z</time>
      </trkpt>
      <trkpt lat="45.80008" lon="1.87475">
        <ele>698.8</ele>
        <time>2026-07-09T09:51:21.000Z</time>
      </trkpt>
      <trkpt lat="45.80006" lon="1.87473">
        <ele>698.7</ele>
        <time>2026-07-09T09:51:22.000Z</time>
      </trkpt>
      <trkpt lat="45.80005" lon="1.87471">
        <ele>699.3</ele>
        <time>2026-07-09T09:51:23.000Z</time>
      </trkpt>
      <trkpt lat="45.80005" lon="1.8747">
        <ele>699.5</ele>
        <time>2026-07-09T09:51:24.000Z</time>
      </trkpt>
      <trkpt lat="45.80004" lon="1.87469">
        <ele>699</ele>
        <time>2026-07-09T09:51:25.000Z</time>
      </trkpt>
      <trkpt lat="45.80004" lon="1.87469">
        <ele>699</ele>
        <time>2026-07-09T09:51:26.000Z</time>
      </trkpt>
      <trkpt lat="45.80003" lon="1.87469">
        <ele>699.1</ele>
        <time>2026-07-09T09:51:27.000Z</time>
      </trkpt>
      <trkpt lat="45.80002" lon="1.87468">
        <ele>699.9</ele>
        <time>2026-07-09T09:51:28.000Z</time>
      </trkpt>
      <trkpt lat="45.80002" lon="1.87466">
        <ele>700.1</ele>
        <time>2026-07-09T09:51:29.000Z</time>
      </trkpt>
      <trkpt lat="45.8" lon="1.87463">
        <ele>701.3</ele>
        <time>2026-07-09T09:51:30.000Z</time>
      </trkpt>
      <trkpt lat="45.79999" lon="1.87461">
        <ele>701.3</ele>
        <time>2026-07-09T09:51:31.000Z</time>
      </trkpt>
      <trkpt lat="45.79997" lon="1.8746">
        <ele>701.1</ele>
        <time>2026-07-09T09:51:32.000Z</time>
      </trkpt>
      <trkpt lat="45.79995" lon="1.87459">
        <ele>701.7</ele>
        <time>2026-07-09T09:51:33.000Z</time>
      </trkpt>
      <trkpt lat="45.79994" lon="1.87459">
        <ele>701.8</ele>
        <time>2026-07-09T09:51:34.000Z</time>
      </trkpt>
      <trkpt lat="45.79993" lon="1.87458">
        <ele>702.2</ele>
        <time>2026-07-09T09:51:35.000Z</time>
      </trkpt>
      <trkpt lat="45.79991" lon="1.87458">
        <ele>701.8</ele>
        <time>2026-07-09T09:51:36.000Z</time>
      </trkpt>
      <trkpt lat="45.7999" lon="1.87457">
        <ele>701.8</ele>
        <time>2026-07-09T09:51:37.000Z</time>
      </trkpt>
      <trkpt lat="45.79989" lon="1.87456">
        <ele>701</ele>
        <time>2026-07-09T09:51:38.000Z</time>
      </trkpt>
      <trkpt lat="45.79987" lon="1.87455">
        <ele>701.3</ele>
        <time>2026-07-09T09:51:39.000Z</time>
      </trkpt>
      <trkpt lat="45.79986" lon="1.87455">
        <ele>701.2</ele>
        <time>2026-07-09T09:51:40.000Z</time>
      </trkpt>
      <trkpt lat="45.79985" lon="1.87453">
        <ele>701.6</ele>
        <time>2026-07-09T09:51:41.000Z</time>
      </trkpt>
      <trkpt lat="45.79983" lon="1.87452">
        <ele>701.5</ele>
        <time>2026-07-09T09:51:42.000Z</time>
      </trkpt>
      <trkpt lat="45.79982" lon="1.87451">
        <ele>702.3</ele>
        <time>2026-07-09T09:51:43.000Z</time>
      </trkpt>
      <trkpt lat="45.79981" lon="1.8745">
        <ele>703.2</ele>
        <time>2026-07-09T09:51:44.000Z</time>
      </trkpt>
      <trkpt lat="45.7998" lon="1.87449">
        <ele>702.6</ele>
        <time>2026-07-09T09:51:45.000Z</time>
      </trkpt>
      <trkpt lat="45.79979" lon="1.87449">
        <ele>702.2</ele>
        <time>2026-07-09T09:51:46.000Z</time>
      </trkpt>
      <trkpt lat="45.79977" lon="1.87449">
        <ele>701.7</ele>
        <time>2026-07-09T09:51:47.000Z</time>
      </trkpt>
      <trkpt lat="45.79976" lon="1.87449">
        <ele>701.2</ele>
        <time>2026-07-09T09:51:48.000Z</time>
      </trkpt>
      <trkpt lat="45.79975" lon="1.87449">
        <ele>701.3</ele>
        <time>2026-07-09T09:51:49.000Z</time>
      </trkpt>
      <trkpt lat="45.79973" lon="1.87449">
        <ele>702.1</ele>
        <time>2026-07-09T09:51:50.000Z</time>
      </trkpt>
      <trkpt lat="45.79972" lon="1.8745">
        <ele>701.9</ele>
        <time>2026-07-09T09:51:51.000Z</time>
      </trkpt>
      <trkpt lat="45.79972" lon="1.8745">
        <ele>702</ele>
        <time>2026-07-09T09:51:52.000Z</time>
      </trkpt>
      <trkpt lat="45.79972" lon="1.8745">
        <ele>702.2</ele>
        <time>2026-07-09T09:51:53.000Z</time>
      </trkpt>
      <trkpt lat="45.79972" lon="1.87449">
        <ele>702.6</ele>
        <time>2026-07-09T09:51:54.000Z</time>
      </trkpt>
      <trkpt lat="45.7997" lon="1.87451">
        <ele>698.9</ele>
        <time>2026-07-09T09:51:55.000Z</time>
      </trkpt>
      <trkpt lat="45.79968" lon="1.87452">
        <ele>695.8</ele>
        <time>2026-07-09T09:51:56.000Z</time>
      </trkpt>
      <trkpt lat="45.79966" lon="1.87453">
        <ele>693.3</ele>
        <time>2026-07-09T09:51:57.000Z</time>
      </trkpt>
      <trkpt lat="45.79965" lon="1.87453">
        <ele>692.8</ele>
        <time>2026-07-09T09:51:58.000Z</time>
      </trkpt>
      <trkpt lat="45.79964" lon="1.87453">
        <ele>692.1</ele>
        <time>2026-07-09T09:51:59.000Z</time>
      </trkpt>
      <trkpt lat="45.79963" lon="1.87453">
        <ele>691.7</ele>
        <time>2026-07-09T09:52:00.000Z</time>
      </trkpt>
      <trkpt lat="45.79962" lon="1.87452">
        <ele>691.8</ele>
        <time>2026-07-09T09:52:01.000Z</time>
      </trkpt>
      <trkpt lat="45.7996" lon="1.87453">
        <ele>691.3</ele>
        <time>2026-07-09T09:52:02.000Z</time>
      </trkpt>
      <trkpt lat="45.79959" lon="1.87453">
        <ele>691</ele>
        <time>2026-07-09T09:52:03.000Z</time>
      </trkpt>
      <trkpt lat="45.79957" lon="1.87453">
        <ele>690.9</ele>
        <time>2026-07-09T09:52:04.000Z</time>
      </trkpt>
      <trkpt lat="45.79956" lon="1.87453">
        <ele>691.5</ele>
        <time>2026-07-09T09:52:05.000Z</time>
      </trkpt>
      <trkpt lat="45.79955" lon="1.87453">
        <ele>690.8</ele>
        <time>2026-07-09T09:52:06.000Z</time>
      </trkpt>
      <trkpt lat="45.79954" lon="1.87453">
        <ele>690.5</ele>
        <time>2026-07-09T09:52:07.000Z</time>
      </trkpt>
      <trkpt lat="45.79953" lon="1.87451">
        <ele>691.4</ele>
        <time>2026-07-09T09:52:08.000Z</time>
      </trkpt>
      <trkpt lat="45.79952" lon="1.87451">
        <ele>691.2</ele>
        <time>2026-07-09T09:52:09.000Z</time>
      </trkpt>
      <trkpt lat="45.79951" lon="1.87449">
        <ele>690.9</ele>
        <time>2026-07-09T09:52:10.000Z</time>
      </trkpt>
      <trkpt lat="45.7995" lon="1.87449">
        <ele>690.4</ele>
        <time>2026-07-09T09:52:11.000Z</time>
      </trkpt>
      <trkpt lat="45.79949" lon="1.87447">
        <ele>690</ele>
        <time>2026-07-09T09:52:12.000Z</time>
      </trkpt>
      <trkpt lat="45.79948" lon="1.87445">
        <ele>690.2</ele>
        <time>2026-07-09T09:52:13.000Z</time>
      </trkpt>
      <trkpt lat="45.79948" lon="1.87445">
        <ele>690</ele>
        <time>2026-07-09T09:52:14.000Z</time>
      </trkpt>
      <trkpt lat="45.79949" lon="1.87445">
        <ele>690</ele>
        <time>2026-07-09T09:52:15.000Z</time>
      </trkpt>
      <trkpt lat="45.79949" lon="1.87445">
        <ele>690</ele>
        <time>2026-07-09T09:52:16.000Z</time>
      </trkpt>
      <trkpt lat="45.79949" lon="1.87445">
        <ele>690</ele>
        <time>2026-07-09T09:52:17.000Z</time>
      </trkpt>
      <trkpt lat="45.79948" lon="1.87445">
        <ele>689.7</ele>
        <time>2026-07-09T09:52:18.000Z</time>
      </trkpt>
      <trkpt lat="45.79947" lon="1.87444">
        <ele>689.9</ele>
        <time>2026-07-09T09:52:19.000Z</time>
      </trkpt>
      <trkpt lat="45.79946" lon="1.87445">
        <ele>689.4</ele>
        <time>2026-07-09T09:52:20.000Z</time>
      </trkpt>
      <trkpt lat="45.79944" lon="1.87446">
        <ele>689.4</ele>
        <time>2026-07-09T09:52:21.000Z</time>
      </trkpt>
      <trkpt lat="45.79943" lon="1.87447">
        <ele>689.3</ele>
        <time>2026-07-09T09:52:22.000Z</time>
      </trkpt>
      <trkpt lat="45.79943" lon="1.87446">
        <ele>689.3</ele>
        <time>2026-07-09T09:52:23.000Z</time>
      </trkpt>
      <trkpt lat="45.79943" lon="1.87445">
        <ele>689.6</ele>
        <time>2026-07-09T09:52:24.000Z</time>
      </trkpt>
      <trkpt lat="45.79943" lon="1.87442">
        <ele>692.2</ele>
        <time>2026-07-09T09:52:25.000Z</time>
      </trkpt>
      <trkpt lat="45.79943" lon="1.87439">
        <ele>692.2</ele>
        <time>2026-07-09T09:52:26.000Z</time>
      </trkpt>
      <trkpt lat="45.79943" lon="1.87438">
        <ele>692.2</ele>
        <time>2026-07-09T09:52:27.000Z</time>
      </trkpt>
      <trkpt lat="45.79943" lon="1.87437">
        <ele>692.5</ele>
        <time>2026-07-09T09:52:28.000Z</time>
      </trkpt>
      <trkpt lat="45.79942" lon="1.87436">
        <ele>692.3</ele>
        <time>2026-07-09T09:52:29.000Z</time>
      </trkpt>
      <trkpt lat="45.79941" lon="1.87435">
        <ele>692.6</ele>
        <time>2026-07-09T09:52:30.000Z</time>
      </trkpt>
      <trkpt lat="45.7994" lon="1.87433">
        <ele>692.2</ele>
        <time>2026-07-09T09:52:31.000Z</time>
      </trkpt>
      <trkpt lat="45.79939" lon="1.87432">
        <ele>692.1</ele>
        <time>2026-07-09T09:52:32.000Z</time>
      </trkpt>
      <trkpt lat="45.79939" lon="1.87429">
        <ele>695.1</ele>
        <time>2026-07-09T09:52:33.000Z</time>
      </trkpt>
      <trkpt lat="45.79938" lon="1.87427">
        <ele>696</ele>
        <time>2026-07-09T09:52:34.000Z</time>
      </trkpt>
      <trkpt lat="45.79938" lon="1.87425">
        <ele>696.8</ele>
        <time>2026-07-09T09:52:35.000Z</time>
      </trkpt>
      <trkpt lat="45.79937" lon="1.87423">
        <ele>698.9</ele>
        <time>2026-07-09T09:52:36.000Z</time>
      </trkpt>
      <trkpt lat="45.79937" lon="1.87422">
        <ele>699.8</ele>
        <time>2026-07-09T09:52:37.000Z</time>
      </trkpt>
      <trkpt lat="45.79936" lon="1.87421">
        <ele>699.7</ele>
        <time>2026-07-09T09:52:38.000Z</time>
      </trkpt>
      <trkpt lat="45.79934" lon="1.8742">
        <ele>699.6</ele>
        <time>2026-07-09T09:52:39.000Z</time>
      </trkpt>
      <trkpt lat="45.79933" lon="1.8742">
        <ele>699.7</ele>
        <time>2026-07-09T09:52:40.000Z</time>
      </trkpt>
      <trkpt lat="45.79932" lon="1.8742">
        <ele>699.9</ele>
        <time>2026-07-09T09:52:41.000Z</time>
      </trkpt>
      <trkpt lat="45.79931" lon="1.87419">
        <ele>699.6</ele>
        <time>2026-07-09T09:52:42.000Z</time>
      </trkpt>
      <trkpt lat="45.7993" lon="1.87418">
        <ele>699.7</ele>
        <time>2026-07-09T09:52:43.000Z</time>
      </trkpt>
      <trkpt lat="45.79929" lon="1.87417">
        <ele>699.3</ele>
        <time>2026-07-09T09:52:44.000Z</time>
      </trkpt>
      <trkpt lat="45.79928" lon="1.87415">
        <ele>699.8</ele>
        <time>2026-07-09T09:52:45.000Z</time>
      </trkpt>
      <trkpt lat="45.79927" lon="1.87413">
        <ele>700.1</ele>
        <time>2026-07-09T09:52:46.000Z</time>
      </trkpt>
      <trkpt lat="45.79926" lon="1.87413">
        <ele>701.2</ele>
        <time>2026-07-09T09:52:47.000Z</time>
      </trkpt>
      <trkpt lat="45.79925" lon="1.8741">
        <ele>701.6</ele>
        <time>2026-07-09T09:52:48.000Z</time>
      </trkpt>
      <trkpt lat="45.79922" lon="1.87411">
        <ele>701.6</ele>
        <time>2026-07-09T09:52:49.000Z</time>
      </trkpt>
      <trkpt lat="45.79921" lon="1.87412">
        <ele>701.4</ele>
        <time>2026-07-09T09:52:50.000Z</time>
      </trkpt>
      <trkpt lat="45.7992" lon="1.87412">
        <ele>702.7</ele>
        <time>2026-07-09T09:52:51.000Z</time>
      </trkpt>
      <trkpt lat="45.79919" lon="1.87411">
        <ele>702.7</ele>
        <time>2026-07-09T09:52:52.000Z</time>
      </trkpt>
      <trkpt lat="45.79918" lon="1.87412">
        <ele>702.3</ele>
        <time>2026-07-09T09:52:53.000Z</time>
      </trkpt>
      <trkpt lat="45.79917" lon="1.87412">
        <ele>702.2</ele>
        <time>2026-07-09T09:52:54.000Z</time>
      </trkpt>
      <trkpt lat="45.79915" lon="1.87412">
        <ele>700.5</ele>
        <time>2026-07-09T09:52:55.000Z</time>
      </trkpt>
      <trkpt lat="45.79914" lon="1.87412">
        <ele>700</ele>
        <time>2026-07-09T09:52:56.000Z</time>
      </trkpt>
      <trkpt lat="45.79913" lon="1.87413">
        <ele>699.8</ele>
        <time>2026-07-09T09:52:57.000Z</time>
      </trkpt>
      <trkpt lat="45.79911" lon="1.87412">
        <ele>700.7</ele>
        <time>2026-07-09T09:52:58.000Z</time>
      </trkpt>
      <trkpt lat="45.7991" lon="1.87411">
        <ele>700.6</ele>
        <time>2026-07-09T09:52:59.000Z</time>
      </trkpt>
      <trkpt lat="45.7991" lon="1.8741">
        <ele>701.2</ele>
        <time>2026-07-09T09:53:00.000Z</time>
      </trkpt>
      <trkpt lat="45.79909" lon="1.8741">
        <ele>701.2</ele>
        <time>2026-07-09T09:53:01.000Z</time>
      </trkpt>
      <trkpt lat="45.79909" lon="1.87409">
        <ele>701.2</ele>
        <time>2026-07-09T09:53:02.000Z</time>
      </trkpt>
      <trkpt lat="45.79909" lon="1.8741">
        <ele>702.1</ele>
        <time>2026-07-09T09:53:03.000Z</time>
      </trkpt>
      <trkpt lat="45.79909" lon="1.8741">
        <ele>702.1</ele>
        <time>2026-07-09T09:53:04.000Z</time>
      </trkpt>
      <trkpt lat="45.79906" lon="1.87407">
        <ele>701.6</ele>
        <time>2026-07-09T09:53:05.000Z</time>
      </trkpt>
      <trkpt lat="45.79904" lon="1.87407">
        <ele>700.9</ele>
        <time>2026-07-09T09:53:06.000Z</time>
      </trkpt>
      <trkpt lat="45.79903" lon="1.87406">
        <ele>699.5</ele>
        <time>2026-07-09T09:53:07.000Z</time>
      </trkpt>
      <trkpt lat="45.79902" lon="1.87405">
        <ele>699.8</ele>
        <time>2026-07-09T09:53:08.000Z</time>
      </trkpt>
      <trkpt lat="45.79901" lon="1.87404">
        <ele>698.9</ele>
        <time>2026-07-09T09:53:09.000Z</time>
      </trkpt>
      <trkpt lat="45.799" lon="1.87404">
        <ele>699</ele>
        <time>2026-07-09T09:53:10.000Z</time>
      </trkpt>
      <trkpt lat="45.79898" lon="1.87404">
        <ele>700.3</ele>
        <time>2026-07-09T09:53:11.000Z</time>
      </trkpt>
      <trkpt lat="45.79896" lon="1.87403">
        <ele>698.4</ele>
        <time>2026-07-09T09:53:12.000Z</time>
      </trkpt>
      <trkpt lat="45.79895" lon="1.87403">
        <ele>699.1</ele>
        <time>2026-07-09T09:53:13.000Z</time>
      </trkpt>
      <trkpt lat="45.79894" lon="1.87402">
        <ele>699.3</ele>
        <time>2026-07-09T09:53:14.000Z</time>
      </trkpt>
      <trkpt lat="45.79892" lon="1.87402">
        <ele>699.6</ele>
        <time>2026-07-09T09:53:15.000Z</time>
      </trkpt>
      <trkpt lat="45.7989" lon="1.87402">
        <ele>699.6</ele>
        <time>2026-07-09T09:53:16.000Z</time>
      </trkpt>
      <trkpt lat="45.79889" lon="1.87402">
        <ele>698.7</ele>
        <time>2026-07-09T09:53:17.000Z</time>
      </trkpt>
      <trkpt lat="45.79887" lon="1.87401">
        <ele>699.1</ele>
        <time>2026-07-09T09:53:18.000Z</time>
      </trkpt>
      <trkpt lat="45.79886" lon="1.87401">
        <ele>699</ele>
        <time>2026-07-09T09:53:19.000Z</time>
      </trkpt>
      <trkpt lat="45.79884" lon="1.87401">
        <ele>697.1</ele>
        <time>2026-07-09T09:53:20.000Z</time>
      </trkpt>
      <trkpt lat="45.79882" lon="1.874">
        <ele>696.5</ele>
        <time>2026-07-09T09:53:21.000Z</time>
      </trkpt>
      <trkpt lat="45.7988" lon="1.874">
        <ele>696.6</ele>
        <time>2026-07-09T09:53:22.000Z</time>
      </trkpt>
      <trkpt lat="45.79878" lon="1.87399">
        <ele>697.3</ele>
        <time>2026-07-09T09:53:23.000Z</time>
      </trkpt>
      <trkpt lat="45.79877" lon="1.87398">
        <ele>698.2</ele>
        <time>2026-07-09T09:53:24.000Z</time>
      </trkpt>
      <trkpt lat="45.79875" lon="1.87397">
        <ele>698.5</ele>
        <time>2026-07-09T09:53:25.000Z</time>
      </trkpt>
      <trkpt lat="45.79874" lon="1.87397">
        <ele>698.5</ele>
        <time>2026-07-09T09:53:26.000Z</time>
      </trkpt>
      <trkpt lat="45.79873" lon="1.87396">
        <ele>698.2</ele>
        <time>2026-07-09T09:53:27.000Z</time>
      </trkpt>
      <trkpt lat="45.79872" lon="1.87397">
        <ele>697.3</ele>
        <time>2026-07-09T09:53:28.000Z</time>
      </trkpt>
      <trkpt lat="45.79871" lon="1.87397">
        <ele>696.9</ele>
        <time>2026-07-09T09:53:29.000Z</time>
      </trkpt>
      <trkpt lat="45.7987" lon="1.87398">
        <ele>697</ele>
        <time>2026-07-09T09:53:30.000Z</time>
      </trkpt>
      <trkpt lat="45.79868" lon="1.87398">
        <ele>696.4</ele>
        <time>2026-07-09T09:53:31.000Z</time>
      </trkpt>
      <trkpt lat="45.79867" lon="1.87397">
        <ele>696.9</ele>
        <time>2026-07-09T09:53:32.000Z</time>
      </trkpt>
      <trkpt lat="45.79866" lon="1.87397">
        <ele>697</ele>
        <time>2026-07-09T09:53:33.000Z</time>
      </trkpt>
      <trkpt lat="45.79864" lon="1.87397">
        <ele>697.3</ele>
        <time>2026-07-09T09:53:34.000Z</time>
      </trkpt>
      <trkpt lat="45.79863" lon="1.87396">
        <ele>698.2</ele>
        <time>2026-07-09T09:53:35.000Z</time>
      </trkpt>
      <trkpt lat="45.79861" lon="1.87396">
        <ele>698.3</ele>
        <time>2026-07-09T09:53:36.000Z</time>
      </trkpt>
      <trkpt lat="45.7986" lon="1.87396">
        <ele>697.4</ele>
        <time>2026-07-09T09:53:37.000Z</time>
      </trkpt>
      <trkpt lat="45.79859" lon="1.87396">
        <ele>696.9</ele>
        <time>2026-07-09T09:53:38.000Z</time>
      </trkpt>
      <trkpt lat="45.79857" lon="1.87395">
        <ele>697.1</ele>
        <time>2026-07-09T09:53:39.000Z</time>
      </trkpt>
      <trkpt lat="45.79856" lon="1.87395">
        <ele>697.6</ele>
        <time>2026-07-09T09:53:40.000Z</time>
      </trkpt>
      <trkpt lat="45.79855" lon="1.87395">
        <ele>697.7</ele>
        <time>2026-07-09T09:53:41.000Z</time>
      </trkpt>
      <trkpt lat="45.79853" lon="1.87394">
        <ele>697.5</ele>
        <time>2026-07-09T09:53:42.000Z</time>
      </trkpt>
      <trkpt lat="45.79852" lon="1.87395">
        <ele>697.7</ele>
        <time>2026-07-09T09:53:43.000Z</time>
      </trkpt>
      <trkpt lat="45.79852" lon="1.87395">
        <ele>697.6</ele>
        <time>2026-07-09T09:53:44.000Z</time>
      </trkpt>
      <trkpt lat="45.79852" lon="1.87395">
        <ele>697.5</ele>
        <time>2026-07-09T09:53:45.000Z</time>
      </trkpt>
      <trkpt lat="45.79852" lon="1.87395">
        <ele>697.4</ele>
        <time>2026-07-09T09:53:46.000Z</time>
      </trkpt>
      <trkpt lat="45.79852" lon="1.87395">
        <ele>697.4</ele>
        <time>2026-07-09T09:53:47.000Z</time>
      </trkpt>
      <trkpt lat="45.79851" lon="1.87395">
        <ele>697.2</ele>
        <time>2026-07-09T09:53:48.000Z</time>
      </trkpt>
      <trkpt lat="45.79851" lon="1.87395">
        <ele>697.1</ele>
        <time>2026-07-09T09:53:49.000Z</time>
      </trkpt>
      <trkpt lat="45.79851" lon="1.87395">
        <ele>697.1</ele>
        <time>2026-07-09T09:53:50.000Z</time>
      </trkpt>
      <trkpt lat="45.7985" lon="1.87395">
        <ele>697.6</ele>
        <time>2026-07-09T09:53:51.000Z</time>
      </trkpt>
      <trkpt lat="45.7985" lon="1.87395">
        <ele>698</ele>
        <time>2026-07-09T09:53:52.000Z</time>
      </trkpt>
      <trkpt lat="45.79849" lon="1.87395">
        <ele>697.9</ele>
        <time>2026-07-09T09:53:53.000Z</time>
      </trkpt>
      <trkpt lat="45.79849" lon="1.87395">
        <ele>697.9</ele>
        <time>2026-07-09T09:53:54.000Z</time>
      </trkpt>
      <trkpt lat="45.7985" lon="1.87394">
        <ele>698.4</ele>
        <time>2026-07-09T09:53:55.000Z</time>
      </trkpt>
      <trkpt lat="45.79851" lon="1.87394">
        <ele>698.2</ele>
        <time>2026-07-09T09:53:56.000Z</time>
      </trkpt>
      <trkpt lat="45.7985" lon="1.87394">
        <ele>698.4</ele>
        <time>2026-07-09T09:53:57.000Z</time>
      </trkpt>
      <trkpt lat="45.7985" lon="1.87394">
        <ele>698.5</ele>
        <time>2026-07-09T09:53:58.000Z</time>
      </trkpt>
      <trkpt lat="45.7985" lon="1.87394">
        <ele>698.5</ele>
        <time>2026-07-09T09:53:59.000Z</time>
      </trkpt>
      <trkpt lat="45.7985" lon="1.87394">
        <ele>698.5</ele>
        <time>2026-07-09T09:54:00.000Z</time>
      </trkpt>
      <trkpt lat="45.7985" lon="1.87394">
        <ele>698.5</ele>
        <time>2026-07-09T09:54:01.000Z</time>
      </trkpt>
      <trkpt lat="45.7985" lon="1.87395">
        <ele>698.3</ele>
        <time>2026-07-09T09:54:02.000Z</time>
      </trkpt>
      <trkpt lat="45.79849" lon="1.87396">
        <ele>698.6</ele>
        <time>2026-07-09T09:54:03.000Z</time>
      </trkpt>
      <trkpt lat="45.79847" lon="1.87396">
        <ele>699.6</ele>
        <time>2026-07-09T09:54:04.000Z</time>
      </trkpt>
      <trkpt lat="45.79846" lon="1.87397">
        <ele>700</ele>
        <time>2026-07-09T09:54:05.000Z</time>
      </trkpt>
      <trkpt lat="45.79844" lon="1.87398">
        <ele>700.5</ele>
        <time>2026-07-09T09:54:06.000Z</time>
      </trkpt>
      <trkpt lat="45.79843" lon="1.87399">
        <ele>701.6</ele>
        <time>2026-07-09T09:54:07.000Z</time>
      </trkpt>
      <trkpt lat="45.79843" lon="1.87401">
        <ele>702.4</ele>
        <time>2026-07-09T09:54:08.000Z</time>
      </trkpt>
      <trkpt lat="45.79842" lon="1.87403">
        <ele>702.9</ele>
        <time>2026-07-09T09:54:09.000Z</time>
      </trkpt>
      <trkpt lat="45.79843" lon="1.87406">
        <ele>702.4</ele>
        <time>2026-07-09T09:54:10.000Z</time>
      </trkpt>
      <trkpt lat="45.79843" lon="1.87408">
        <ele>703.7</ele>
        <time>2026-07-09T09:54:11.000Z</time>
      </trkpt>
      <trkpt lat="45.79843" lon="1.87411">
        <ele>703.8</ele>
        <time>2026-07-09T09:54:12.000Z</time>
      </trkpt>
      <trkpt lat="45.79843" lon="1.87415">
        <ele>703.5</ele>
        <time>2026-07-09T09:54:13.000Z</time>
      </trkpt>
      <trkpt lat="45.79843" lon="1.87418">
        <ele>703.7</ele>
        <time>2026-07-09T09:54:14.000Z</time>
      </trkpt>
      <trkpt lat="45.79842" lon="1.87421">
        <ele>705</ele>
        <time>2026-07-09T09:54:15.000Z</time>
      </trkpt>
      <trkpt lat="45.79842" lon="1.87423">
        <ele>705.7</ele>
        <time>2026-07-09T09:54:16.000Z</time>
      </trkpt>
      <trkpt lat="45.79842" lon="1.87426">
        <ele>706.8</ele>
        <time>2026-07-09T09:54:17.000Z</time>
      </trkpt>
      <trkpt lat="45.79842" lon="1.87426">
        <ele>706.8</ele>
        <time>2026-07-09T09:54:18.000Z</time>
      </trkpt>
      <trkpt lat="45.79844" lon="1.87428">
        <ele>706.8</ele>
        <time>2026-07-09T09:54:19.000Z</time>
      </trkpt>
      <trkpt lat="45.79844" lon="1.8743">
        <ele>707.5</ele>
        <time>2026-07-09T09:54:20.000Z</time>
      </trkpt>
      <trkpt lat="45.79845" lon="1.87431">
        <ele>709.1</ele>
        <time>2026-07-09T09:54:21.000Z</time>
      </trkpt>
      <trkpt lat="45.79845" lon="1.87432">
        <ele>709.3</ele>
        <time>2026-07-09T09:54:22.000Z</time>
      </trkpt>
      <trkpt lat="45.79844" lon="1.87433">
        <ele>709.1</ele>
        <time>2026-07-09T09:54:23.000Z</time>
      </trkpt>
      <trkpt lat="45.79842" lon="1.87435">
        <ele>710.5</ele>
        <time>2026-07-09T09:54:24.000Z</time>
      </trkpt>
      <trkpt lat="45.79841" lon="1.87435">
        <ele>711.8</ele>
        <time>2026-07-09T09:54:25.000Z</time>
      </trkpt>
      <trkpt lat="45.7984" lon="1.87437">
        <ele>712.4</ele>
        <time>2026-07-09T09:54:26.000Z</time>
      </trkpt>
      <trkpt lat="45.79839" lon="1.87439">
        <ele>711.9</ele>
        <time>2026-07-09T09:54:27.000Z</time>
      </trkpt>
      <trkpt lat="45.79839" lon="1.8744">
        <ele>712.4</ele>
        <time>2026-07-09T09:54:28.000Z</time>
      </trkpt>
      <trkpt lat="45.79839" lon="1.87442">
        <ele>712.9</ele>
        <time>2026-07-09T09:54:29.000Z</time>
      </trkpt>
      <trkpt lat="45.79838" lon="1.87443">
        <ele>714.3</ele>
        <time>2026-07-09T09:54:30.000Z</time>
      </trkpt>
      <trkpt lat="45.79838" lon="1.87445">
        <ele>715.1</ele>
        <time>2026-07-09T09:54:31.000Z</time>
      </trkpt>
      <trkpt lat="45.79838" lon="1.87447">
        <ele>715.2</ele>
        <time>2026-07-09T09:54:32.000Z</time>
      </trkpt>
      <trkpt lat="45.79839" lon="1.87448">
        <ele>715.6</ele>
        <time>2026-07-09T09:54:33.000Z</time>
      </trkpt>
      <trkpt lat="45.79839" lon="1.8745">
        <ele>714.6</ele>
        <time>2026-07-09T09:54:34.000Z</time>
      </trkpt>
      <trkpt lat="45.79839" lon="1.87452">
        <ele>714.3</ele>
        <time>2026-07-09T09:54:35.000Z</time>
      </trkpt>
      <trkpt lat="45.79838" lon="1.87453">
        <ele>714.5</ele>
        <time>2026-07-09T09:54:36.000Z</time>
      </trkpt>
      <trkpt lat="45.79838" lon="1.87455">
        <ele>715.7</ele>
        <time>2026-07-09T09:54:37.000Z</time>
      </trkpt>
      <trkpt lat="45.79838" lon="1.87457">
        <ele>716.3</ele>
        <time>2026-07-09T09:54:38.000Z</time>
      </trkpt>
      <trkpt lat="45.79838" lon="1.87458">
        <ele>716.4</ele>
        <time>2026-07-09T09:54:39.000Z</time>
      </trkpt>
      <trkpt lat="45.79838" lon="1.87459">
        <ele>716.6</ele>
        <time>2026-07-09T09:54:40.000Z</time>
      </trkpt>
      <trkpt lat="45.79838" lon="1.87461">
        <ele>716.6</ele>
        <time>2026-07-09T09:54:41.000Z</time>
      </trkpt>
      <trkpt lat="45.79838" lon="1.87462">
        <ele>717.5</ele>
        <time>2026-07-09T09:54:42.000Z</time>
      </trkpt>
      <trkpt lat="45.79838" lon="1.87464">
        <ele>717.9</ele>
        <time>2026-07-09T09:54:43.000Z</time>
      </trkpt>
      <trkpt lat="45.79837" lon="1.87465">
        <ele>719.2</ele>
        <time>2026-07-09T09:54:44.000Z</time>
      </trkpt>
      <trkpt lat="45.79836" lon="1.87467">
        <ele>719.8</ele>
        <time>2026-07-09T09:54:45.000Z</time>
      </trkpt>
      <trkpt lat="45.79836" lon="1.87467">
        <ele>720.5</ele>
        <time>2026-07-09T09:54:46.000Z</time>
      </trkpt>
      <trkpt lat="45.79835" lon="1.87468">
        <ele>721</ele>
        <time>2026-07-09T09:54:47.000Z</time>
      </trkpt>
      <trkpt lat="45.79833" lon="1.87469">
        <ele>722.1</ele>
        <time>2026-07-09T09:54:48.000Z</time>
      </trkpt>
      <trkpt lat="45.79833" lon="1.8747">
        <ele>722.6</ele>
        <time>2026-07-09T09:54:49.000Z</time>
      </trkpt>
      <trkpt lat="45.79833" lon="1.87471">
        <ele>723.2</ele>
        <time>2026-07-09T09:54:50.000Z</time>
      </trkpt>
      <trkpt lat="45.79833" lon="1.87473">
        <ele>724.2</ele>
        <time>2026-07-09T09:54:51.000Z</time>
      </trkpt>
      <trkpt lat="45.79833" lon="1.87475">
        <ele>724.9</ele>
        <time>2026-07-09T09:54:52.000Z</time>
      </trkpt>
      <trkpt lat="45.79833" lon="1.87476">
        <ele>724.1</ele>
        <time>2026-07-09T09:54:53.000Z</time>
      </trkpt>
      <trkpt lat="45.79833" lon="1.87478">
        <ele>724.2</ele>
        <time>2026-07-09T09:54:54.000Z</time>
      </trkpt>
      <trkpt lat="45.79832" lon="1.87479">
        <ele>724.4</ele>
        <time>2026-07-09T09:54:55.000Z</time>
      </trkpt>
      <trkpt lat="45.79833" lon="1.87481">
        <ele>725.2</ele>
        <time>2026-07-09T09:54:56.000Z</time>
      </trkpt>
      <trkpt lat="45.79833" lon="1.87484">
        <ele>725.5</ele>
        <time>2026-07-09T09:54:57.000Z</time>
      </trkpt>
      <trkpt lat="45.79833" lon="1.87485">
        <ele>726</ele>
        <time>2026-07-09T09:54:58.000Z</time>
      </trkpt>
      <trkpt lat="45.79832" lon="1.87487">
        <ele>725.8</ele>
        <time>2026-07-09T09:54:59.000Z</time>
      </trkpt>
      <trkpt lat="45.79832" lon="1.87489">
        <ele>725.9</ele>
        <time>2026-07-09T09:55:00.000Z</time>
      </trkpt>
      <trkpt lat="45.79832" lon="1.87491">
        <ele>726.5</ele>
        <time>2026-07-09T09:55:01.000Z</time>
      </trkpt>
      <trkpt lat="45.79832" lon="1.87493">
        <ele>725.5</ele>
        <time>2026-07-09T09:55:02.000Z</time>
      </trkpt>
      <trkpt lat="45.79832" lon="1.87495">
        <ele>725.7</ele>
        <time>2026-07-09T09:55:03.000Z</time>
      </trkpt>
      <trkpt lat="45.79831" lon="1.87497">
        <ele>725.9</ele>
        <time>2026-07-09T09:55:04.000Z</time>
      </trkpt>
      <trkpt lat="45.7983" lon="1.87499">
        <ele>727.3</ele>
        <time>2026-07-09T09:55:05.000Z</time>
      </trkpt>
      <trkpt lat="45.79829" lon="1.875">
        <ele>728.2</ele>
        <time>2026-07-09T09:55:06.000Z</time>
      </trkpt>
      <trkpt lat="45.79828" lon="1.87502">
        <ele>728.8</ele>
        <time>2026-07-09T09:55:07.000Z</time>
      </trkpt>
      <trkpt lat="45.79827" lon="1.87503">
        <ele>729</ele>
        <time>2026-07-09T09:55:08.000Z</time>
      </trkpt>
      <trkpt lat="45.79826" lon="1.87505">
        <ele>729.5</ele>
        <time>2026-07-09T09:55:09.000Z</time>
      </trkpt>
      <trkpt lat="45.79826" lon="1.87506">
        <ele>729.3</ele>
        <time>2026-07-09T09:55:10.000Z</time>
      </trkpt>
      <trkpt lat="45.79825" lon="1.87509">
        <ele>729.5</ele>
        <time>2026-07-09T09:55:11.000Z</time>
      </trkpt>
      <trkpt lat="45.79826" lon="1.87511">
        <ele>728.8</ele>
        <time>2026-07-09T09:55:12.000Z</time>
      </trkpt>
      <trkpt lat="45.79826" lon="1.87512">
        <ele>728.1</ele>
        <time>2026-07-09T09:55:13.000Z</time>
      </trkpt>
      <trkpt lat="45.79826" lon="1.87514">
        <ele>728.1</ele>
        <time>2026-07-09T09:55:14.000Z</time>
      </trkpt>
      <trkpt lat="45.79825" lon="1.87517">
        <ele>727.3</ele>
        <time>2026-07-09T09:55:15.000Z</time>
      </trkpt>
      <trkpt lat="45.79825" lon="1.87519">
        <ele>728.5</ele>
        <time>2026-07-09T09:55:16.000Z</time>
      </trkpt>
      <trkpt lat="45.79824" lon="1.87521">
        <ele>727.8</ele>
        <time>2026-07-09T09:55:17.000Z</time>
      </trkpt>
      <trkpt lat="45.79823" lon="1.87522">
        <ele>728.1</ele>
        <time>2026-07-09T09:55:18.000Z</time>
      </trkpt>
      <trkpt lat="45.79822" lon="1.87523">
        <ele>727.6</ele>
        <time>2026-07-09T09:55:19.000Z</time>
      </trkpt>
      <trkpt lat="45.79822" lon="1.87524">
        <ele>726.9</ele>
        <time>2026-07-09T09:55:20.000Z</time>
      </trkpt>
      <trkpt lat="45.79821" lon="1.87526">
        <ele>726.4</ele>
        <time>2026-07-09T09:55:21.000Z</time>
      </trkpt>
      <trkpt lat="45.79821" lon="1.87528">
        <ele>727.5</ele>
        <time>2026-07-09T09:55:22.000Z</time>
      </trkpt>
      <trkpt lat="45.7982" lon="1.87529">
        <ele>726.4</ele>
        <time>2026-07-09T09:55:23.000Z</time>
      </trkpt>
      <trkpt lat="45.7982" lon="1.87531">
        <ele>725.9</ele>
        <time>2026-07-09T09:55:24.000Z</time>
      </trkpt>
      <trkpt lat="45.79819" lon="1.87533">
        <ele>725.3</ele>
        <time>2026-07-09T09:55:25.000Z</time>
      </trkpt>
      <trkpt lat="45.79819" lon="1.87534">
        <ele>724.7</ele>
        <time>2026-07-09T09:55:26.000Z</time>
      </trkpt>
      <trkpt lat="45.79818" lon="1.87535">
        <ele>723.9</ele>
        <time>2026-07-09T09:55:27.000Z</time>
      </trkpt>
      <trkpt lat="45.79817" lon="1.87537">
        <ele>723.2</ele>
        <time>2026-07-09T09:55:28.000Z</time>
      </trkpt>
      <trkpt lat="45.79816" lon="1.87538">
        <ele>724.4</ele>
        <time>2026-07-09T09:55:29.000Z</time>
      </trkpt>
      <trkpt lat="45.79816" lon="1.87541">
        <ele>724.1</ele>
        <time>2026-07-09T09:55:30.000Z</time>
      </trkpt>
      <trkpt lat="45.79816" lon="1.87542">
        <ele>724.4</ele>
        <time>2026-07-09T09:55:31.000Z</time>
      </trkpt>
      <trkpt lat="45.79816" lon="1.87543">
        <ele>724.8</ele>
        <time>2026-07-09T09:55:32.000Z</time>
      </trkpt>
      <trkpt lat="45.79815" lon="1.87545">
        <ele>725.6</ele>
        <time>2026-07-09T09:55:33.000Z</time>
      </trkpt>
      <trkpt lat="45.79815" lon="1.87546">
        <ele>726.9</ele>
        <time>2026-07-09T09:55:34.000Z</time>
      </trkpt>
      <trkpt lat="45.79815" lon="1.87548">
        <ele>726.7</ele>
        <time>2026-07-09T09:55:35.000Z</time>
      </trkpt>
      <trkpt lat="45.79816" lon="1.87546">
        <ele>727.8</ele>
        <time>2026-07-09T09:55:36.000Z</time>
      </trkpt>
      <trkpt lat="45.79816" lon="1.87546">
        <ele>728.3</ele>
        <time>2026-07-09T09:55:37.000Z</time>
      </trkpt>
      <trkpt lat="45.79816" lon="1.87545">
        <ele>728.4</ele>
        <time>2026-07-09T09:55:38.000Z</time>
      </trkpt>
      <trkpt lat="45.79816" lon="1.87545">
        <ele>728.4</ele>
        <time>2026-07-09T09:55:39.000Z</time>
      </trkpt>
      <trkpt lat="45.79815" lon="1.87546">
        <ele>728.4</ele>
        <time>2026-07-09T09:55:40.000Z</time>
      </trkpt>
      <trkpt lat="45.79815" lon="1.87547">
        <ele>728.1</ele>
        <time>2026-07-09T09:55:41.000Z</time>
      </trkpt>
      <trkpt lat="45.79814" lon="1.87549">
        <ele>727.4</ele>
        <time>2026-07-09T09:55:42.000Z</time>
      </trkpt>
      <trkpt lat="45.79813" lon="1.87551">
        <ele>726.6</ele>
        <time>2026-07-09T09:55:43.000Z</time>
      </trkpt>
      <trkpt lat="45.79812" lon="1.87554">
        <ele>728</ele>
        <time>2026-07-09T09:55:44.000Z</time>
      </trkpt>
      <trkpt lat="45.79811" lon="1.87555">
        <ele>728.2</ele>
        <time>2026-07-09T09:55:45.000Z</time>
      </trkpt>
      <trkpt lat="45.79811" lon="1.87556">
        <ele>727.9</ele>
        <time>2026-07-09T09:55:46.000Z</time>
      </trkpt>
      <trkpt lat="45.79811" lon="1.87557">
        <ele>727.5</ele>
        <time>2026-07-09T09:55:47.000Z</time>
      </trkpt>
      <trkpt lat="45.7981" lon="1.87558">
        <ele>729.2</ele>
        <time>2026-07-09T09:55:48.000Z</time>
      </trkpt>
      <trkpt lat="45.79809" lon="1.8756">
        <ele>729.4</ele>
        <time>2026-07-09T09:55:49.000Z</time>
      </trkpt>
      <trkpt lat="45.79808" lon="1.87562">
        <ele>730.8</ele>
        <time>2026-07-09T09:55:50.000Z</time>
      </trkpt>
      <trkpt lat="45.79808" lon="1.87564">
        <ele>730.9</ele>
        <time>2026-07-09T09:55:51.000Z</time>
      </trkpt>
      <trkpt lat="45.79809" lon="1.87567">
        <ele>732.1</ele>
        <time>2026-07-09T09:55:52.000Z</time>
      </trkpt>
      <trkpt lat="45.79809" lon="1.8757">
        <ele>731.9</ele>
        <time>2026-07-09T09:55:53.000Z</time>
      </trkpt>
      <trkpt lat="45.7981" lon="1.87573">
        <ele>731</ele>
        <time>2026-07-09T09:55:54.000Z</time>
      </trkpt>
      <trkpt lat="45.79812" lon="1.87575">
        <ele>731</ele>
        <time>2026-07-09T09:55:55.000Z</time>
      </trkpt>
      <trkpt lat="45.79813" lon="1.87577">
        <ele>731.6</ele>
        <time>2026-07-09T09:55:56.000Z</time>
      </trkpt>
      <trkpt lat="45.79814" lon="1.87579">
        <ele>732.7</ele>
        <time>2026-07-09T09:55:57.000Z</time>
      </trkpt>
      <trkpt lat="45.79815" lon="1.87582">
        <ele>733.9</ele>
        <time>2026-07-09T09:55:58.000Z</time>
      </trkpt>
      <trkpt lat="45.79816" lon="1.87584">
        <ele>735.3</ele>
        <time>2026-07-09T09:55:59.000Z</time>
      </trkpt>
      <trkpt lat="45.79817" lon="1.87585">
        <ele>735.2</ele>
        <time>2026-07-09T09:56:00.000Z</time>
      </trkpt>
      <trkpt lat="45.79818" lon="1.87587">
        <ele>735.4</ele>
        <time>2026-07-09T09:56:01.000Z</time>
      </trkpt>
      <trkpt lat="45.79818" lon="1.87589">
        <ele>734.9</ele>
        <time>2026-07-09T09:56:02.000Z</time>
      </trkpt>
      <trkpt lat="45.79819" lon="1.8759">
        <ele>735.1</ele>
        <time>2026-07-09T09:56:03.000Z</time>
      </trkpt>
      <trkpt lat="45.7982" lon="1.87592">
        <ele>734.7</ele>
        <time>2026-07-09T09:56:04.000Z</time>
      </trkpt>
      <trkpt lat="45.79821" lon="1.87594">
        <ele>734.9</ele>
        <time>2026-07-09T09:56:05.000Z</time>
      </trkpt>
      <trkpt lat="45.79822" lon="1.87595">
        <ele>734.8</ele>
        <time>2026-07-09T09:56:06.000Z</time>
      </trkpt>
      <trkpt lat="45.79823" lon="1.87595">
        <ele>734.6</ele>
        <time>2026-07-09T09:56:07.000Z</time>
      </trkpt>
      <trkpt lat="45.79824" lon="1.87595">
        <ele>733.9</ele>
        <time>2026-07-09T09:56:08.000Z</time>
      </trkpt>
      <trkpt lat="45.79824" lon="1.87596">
        <ele>737</ele>
        <time>2026-07-09T09:56:09.000Z</time>
      </trkpt>
      <trkpt lat="45.79824" lon="1.87598">
        <ele>737.8</ele>
        <time>2026-07-09T09:56:10.000Z</time>
      </trkpt>
      <trkpt lat="45.79824" lon="1.87598">
        <ele>738</ele>
        <time>2026-07-09T09:56:11.000Z</time>
      </trkpt>
      <trkpt lat="45.79824" lon="1.87598">
        <ele>738</ele>
        <time>2026-07-09T09:56:12.000Z</time>
      </trkpt>
      <trkpt lat="45.79825" lon="1.876">
        <ele>738.6</ele>
        <time>2026-07-09T09:56:13.000Z</time>
      </trkpt>
      <trkpt lat="45.79825" lon="1.87602">
        <ele>738.4</ele>
        <time>2026-07-09T09:56:14.000Z</time>
      </trkpt>
      <trkpt lat="45.79826" lon="1.87605">
        <ele>738.5</ele>
        <time>2026-07-09T09:56:15.000Z</time>
      </trkpt>
      <trkpt lat="45.79826" lon="1.87608">
        <ele>738.1</ele>
        <time>2026-07-09T09:56:16.000Z</time>
      </trkpt>
      <trkpt lat="45.79826" lon="1.8761">
        <ele>737.8</ele>
        <time>2026-07-09T09:56:17.000Z</time>
      </trkpt>
      <trkpt lat="45.79826" lon="1.87612">
        <ele>738.3</ele>
        <time>2026-07-09T09:56:18.000Z</time>
      </trkpt>
      <trkpt lat="45.79826" lon="1.87614">
        <ele>738.7</ele>
        <time>2026-07-09T09:56:19.000Z</time>
      </trkpt>
      <trkpt lat="45.79826" lon="1.87616">
        <ele>739.4</ele>
        <time>2026-07-09T09:56:20.000Z</time>
      </trkpt>
      <trkpt lat="45.79826" lon="1.87617">
        <ele>739</ele>
        <time>2026-07-09T09:56:21.000Z</time>
      </trkpt>
      <trkpt lat="45.79826" lon="1.87618">
        <ele>740.1</ele>
        <time>2026-07-09T09:56:22.000Z</time>
      </trkpt>
      <trkpt lat="45.79826" lon="1.87619">
        <ele>740.5</ele>
        <time>2026-07-09T09:56:23.000Z</time>
      </trkpt>
      <trkpt lat="45.79825" lon="1.8762">
        <ele>740.6</ele>
        <time>2026-07-09T09:56:24.000Z</time>
      </trkpt>
      <trkpt lat="45.79825" lon="1.87621">
        <ele>740.3</ele>
        <time>2026-07-09T09:56:25.000Z</time>
      </trkpt>
      <trkpt lat="45.79824" lon="1.87623">
        <ele>741</ele>
        <time>2026-07-09T09:56:26.000Z</time>
      </trkpt>
      <trkpt lat="45.79824" lon="1.87624">
        <ele>741.2</ele>
        <time>2026-07-09T09:56:27.000Z</time>
      </trkpt>
      <trkpt lat="45.79823" lon="1.87625">
        <ele>741.8</ele>
        <time>2026-07-09T09:56:28.000Z</time>
      </trkpt>
      <trkpt lat="45.79823" lon="1.87627">
        <ele>742.3</ele>
        <time>2026-07-09T09:56:29.000Z</time>
      </trkpt>
      <trkpt lat="45.79823" lon="1.8763">
        <ele>742.4</ele>
        <time>2026-07-09T09:56:30.000Z</time>
      </trkpt>
      <trkpt lat="45.79822" lon="1.87631">
        <ele>742.7</ele>
        <time>2026-07-09T09:56:31.000Z</time>
      </trkpt>
      <trkpt lat="45.79821" lon="1.87633">
        <ele>743.4</ele>
        <time>2026-07-09T09:56:32.000Z</time>
      </trkpt>
      <trkpt lat="45.79821" lon="1.87636">
        <ele>744.7</ele>
        <time>2026-07-09T09:56:33.000Z</time>
      </trkpt>
      <trkpt lat="45.7982" lon="1.87638">
        <ele>745.3</ele>
        <time>2026-07-09T09:56:34.000Z</time>
      </trkpt>
      <trkpt lat="45.79819" lon="1.87641">
        <ele>747.1</ele>
        <time>2026-07-09T09:56:35.000Z</time>
      </trkpt>
      <trkpt lat="45.79819" lon="1.87642">
        <ele>746.4</ele>
        <time>2026-07-09T09:56:36.000Z</time>
      </trkpt>
      <trkpt lat="45.79818" lon="1.87644">
        <ele>747.1</ele>
        <time>2026-07-09T09:56:37.000Z</time>
      </trkpt>
      <trkpt lat="45.79818" lon="1.87645">
        <ele>746.4</ele>
        <time>2026-07-09T09:56:38.000Z</time>
      </trkpt>
      <trkpt lat="45.79818" lon="1.87647">
        <ele>746</ele>
        <time>2026-07-09T09:56:39.000Z</time>
      </trkpt>
      <trkpt lat="45.79818" lon="1.87649">
        <ele>745.5</ele>
        <time>2026-07-09T09:56:40.000Z</time>
      </trkpt>
      <trkpt lat="45.79818" lon="1.87651">
        <ele>746.6</ele>
        <time>2026-07-09T09:56:41.000Z</time>
      </trkpt>
      <trkpt lat="45.79818" lon="1.87652">
        <ele>746.7</ele>
        <time>2026-07-09T09:56:42.000Z</time>
      </trkpt>
      <trkpt lat="45.79819" lon="1.87654">
        <ele>746</ele>
        <time>2026-07-09T09:56:43.000Z</time>
      </trkpt>
      <trkpt lat="45.79819" lon="1.87656">
        <ele>745.5</ele>
        <time>2026-07-09T09:56:44.000Z</time>
      </trkpt>
      <trkpt lat="45.79818" lon="1.87658">
        <ele>746</ele>
        <time>2026-07-09T09:56:45.000Z</time>
      </trkpt>
      <trkpt lat="45.79818" lon="1.87659">
        <ele>745.2</ele>
        <time>2026-07-09T09:56:46.000Z</time>
      </trkpt>
      <trkpt lat="45.79818" lon="1.87661">
        <ele>745.3</ele>
        <time>2026-07-09T09:56:47.000Z</time>
      </trkpt>
      <trkpt lat="45.79818" lon="1.87663">
        <ele>745.1</ele>
        <time>2026-07-09T09:56:48.000Z</time>
      </trkpt>
      <trkpt lat="45.79819" lon="1.87665">
        <ele>745</ele>
        <time>2026-07-09T09:56:49.000Z</time>
      </trkpt>
      <trkpt lat="45.7982" lon="1.87668">
        <ele>745.6</ele>
        <time>2026-07-09T09:56:50.000Z</time>
      </trkpt>
      <trkpt lat="45.7982" lon="1.8767">
        <ele>745.3</ele>
        <time>2026-07-09T09:56:51.000Z</time>
      </trkpt>
      <trkpt lat="45.79821" lon="1.87671">
        <ele>744.4</ele>
        <time>2026-07-09T09:56:52.000Z</time>
      </trkpt>
      <trkpt lat="45.79821" lon="1.87673">
        <ele>744.6</ele>
        <time>2026-07-09T09:56:53.000Z</time>
      </trkpt>
      <trkpt lat="45.79821" lon="1.87675">
        <ele>744.8</ele>
        <time>2026-07-09T09:56:54.000Z</time>
      </trkpt>
      <trkpt lat="45.79821" lon="1.87676">
        <ele>744.6</ele>
        <time>2026-07-09T09:56:55.000Z</time>
      </trkpt>
      <trkpt lat="45.7982" lon="1.87678">
        <ele>744.3</ele>
        <time>2026-07-09T09:56:56.000Z</time>
      </trkpt>
      <trkpt lat="45.7982" lon="1.8768">
        <ele>744.5</ele>
        <time>2026-07-09T09:56:57.000Z</time>
      </trkpt>
      <trkpt lat="45.7982" lon="1.87682">
        <ele>744.5</ele>
        <time>2026-07-09T09:56:58.000Z</time>
      </trkpt>
      <trkpt lat="45.79821" lon="1.87684">
        <ele>744</ele>
        <time>2026-07-09T09:56:59.000Z</time>
      </trkpt>
      <trkpt lat="45.79821" lon="1.87685">
        <ele>744.1</ele>
        <time>2026-07-09T09:57:00.000Z</time>
      </trkpt>
      <trkpt lat="45.79821" lon="1.87686">
        <ele>745.1</ele>
        <time>2026-07-09T09:57:01.000Z</time>
      </trkpt>
      <trkpt lat="45.7982" lon="1.87688">
        <ele>745.1</ele>
        <time>2026-07-09T09:57:02.000Z</time>
      </trkpt>
      <trkpt lat="45.7982" lon="1.8769">
        <ele>745.7</ele>
        <time>2026-07-09T09:57:03.000Z</time>
      </trkpt>
      <trkpt lat="45.7982" lon="1.87692">
        <ele>745</ele>
        <time>2026-07-09T09:57:04.000Z</time>
      </trkpt>
      <trkpt lat="45.7982" lon="1.87695">
        <ele>744.9</ele>
        <time>2026-07-09T09:57:05.000Z</time>
      </trkpt>
      <trkpt lat="45.7982" lon="1.87697">
        <ele>745.3</ele>
        <time>2026-07-09T09:57:06.000Z</time>
      </trkpt>
      <trkpt lat="45.79821" lon="1.877">
        <ele>745.8</ele>
        <time>2026-07-09T09:57:07.000Z</time>
      </trkpt>
      <trkpt lat="45.7982" lon="1.87703">
        <ele>746.5</ele>
        <time>2026-07-09T09:57:08.000Z</time>
      </trkpt>
      <trkpt lat="45.79819" lon="1.87706">
        <ele>748.5</ele>
        <time>2026-07-09T09:57:09.000Z</time>
      </trkpt>
      <trkpt lat="45.79818" lon="1.87707">
        <ele>750</ele>
        <time>2026-07-09T09:57:10.000Z</time>
      </trkpt>
      <trkpt lat="45.79817" lon="1.87709">
        <ele>750.7</ele>
        <time>2026-07-09T09:57:11.000Z</time>
      </trkpt>
      <trkpt lat="45.79817" lon="1.87711">
        <ele>749.8</ele>
        <time>2026-07-09T09:57:12.000Z</time>
      </trkpt>
      <trkpt lat="45.79817" lon="1.87713">
        <ele>749.4</ele>
        <time>2026-07-09T09:57:13.000Z</time>
      </trkpt>
      <trkpt lat="45.79817" lon="1.87715">
        <ele>749.7</ele>
        <time>2026-07-09T09:57:14.000Z</time>
      </trkpt>
      <trkpt lat="45.79816" lon="1.87716">
        <ele>749.6</ele>
        <time>2026-07-09T09:57:15.000Z</time>
      </trkpt>
      <trkpt lat="45.79816" lon="1.87717">
        <ele>749.9</ele>
        <time>2026-07-09T09:57:16.000Z</time>
      </trkpt>
      <trkpt lat="45.79815" lon="1.87719">
        <ele>749.9</ele>
        <time>2026-07-09T09:57:17.000Z</time>
      </trkpt>
      <trkpt lat="45.79815" lon="1.87721">
        <ele>749.6</ele>
        <time>2026-07-09T09:57:18.000Z</time>
      </trkpt>
      <trkpt lat="45.79814" lon="1.87722">
        <ele>749.7</ele>
        <time>2026-07-09T09:57:19.000Z</time>
      </trkpt>
      <trkpt lat="45.79814" lon="1.87724">
        <ele>749.6</ele>
        <time>2026-07-09T09:57:20.000Z</time>
      </trkpt>
      <trkpt lat="45.79814" lon="1.87726">
        <ele>750.2</ele>
        <time>2026-07-09T09:57:21.000Z</time>
      </trkpt>
      <trkpt lat="45.79815" lon="1.87728">
        <ele>750.7</ele>
        <time>2026-07-09T09:57:22.000Z</time>
      </trkpt>
      <trkpt lat="45.79815" lon="1.8773">
        <ele>750.6</ele>
        <time>2026-07-09T09:57:23.000Z</time>
      </trkpt>
      <trkpt lat="45.79815" lon="1.87732">
        <ele>750.2</ele>
        <time>2026-07-09T09:57:24.000Z</time>
      </trkpt>
      <trkpt lat="45.79815" lon="1.87734">
        <ele>750.8</ele>
        <time>2026-07-09T09:57:25.000Z</time>
      </trkpt>
      <trkpt lat="45.79814" lon="1.87736">
        <ele>751.3</ele>
        <time>2026-07-09T09:57:26.000Z</time>
      </trkpt>
      <trkpt lat="45.79814" lon="1.87737">
        <ele>751.5</ele>
        <time>2026-07-09T09:57:27.000Z</time>
      </trkpt>
      <trkpt lat="45.79814" lon="1.87739">
        <ele>751.9</ele>
        <time>2026-07-09T09:57:28.000Z</time>
      </trkpt>
      <trkpt lat="45.79814" lon="1.87741">
        <ele>752.3</ele>
        <time>2026-07-09T09:57:29.000Z</time>
      </trkpt>
      <trkpt lat="45.79814" lon="1.87743">
        <ele>751.9</ele>
        <time>2026-07-09T09:57:30.000Z</time>
      </trkpt>
      <trkpt lat="45.79814" lon="1.87745">
        <ele>752.1</ele>
        <time>2026-07-09T09:57:31.000Z</time>
      </trkpt>
      <trkpt lat="45.79814" lon="1.87747">
        <ele>753</ele>
        <time>2026-07-09T09:57:32.000Z</time>
      </trkpt>
      <trkpt lat="45.79814" lon="1.87749">
        <ele>753.2</ele>
        <time>2026-07-09T09:57:33.000Z</time>
      </trkpt>
      <trkpt lat="45.79814" lon="1.87751">
        <ele>753.3</ele>
        <time>2026-07-09T09:57:34.000Z</time>
      </trkpt>
      <trkpt lat="45.79813" lon="1.87753">
        <ele>753.2</ele>
        <time>2026-07-09T09:57:35.000Z</time>
      </trkpt>
      <trkpt lat="45.79813" lon="1.87754">
        <ele>753.8</ele>
        <time>2026-07-09T09:57:36.000Z</time>
      </trkpt>
      <trkpt lat="45.79812" lon="1.87756">
        <ele>754.5</ele>
        <time>2026-07-09T09:57:37.000Z</time>
      </trkpt>
      <trkpt lat="45.79812" lon="1.87758">
        <ele>754.4</ele>
        <time>2026-07-09T09:57:38.000Z</time>
      </trkpt>
      <trkpt lat="45.79812" lon="1.87759">
        <ele>754.6</ele>
        <time>2026-07-09T09:57:39.000Z</time>
      </trkpt>
      <trkpt lat="45.79812" lon="1.87761">
        <ele>754.8</ele>
        <time>2026-07-09T09:57:40.000Z</time>
      </trkpt>
      <trkpt lat="45.79812" lon="1.87763">
        <ele>755.5</ele>
        <time>2026-07-09T09:57:41.000Z</time>
      </trkpt>
      <trkpt lat="45.79811" lon="1.87765">
        <ele>756.7</ele>
        <time>2026-07-09T09:57:42.000Z</time>
      </trkpt>
      <trkpt lat="45.79811" lon="1.87766">
        <ele>756.1</ele>
        <time>2026-07-09T09:57:43.000Z</time>
      </trkpt>
      <trkpt lat="45.7981" lon="1.87768">
        <ele>757.2</ele>
        <time>2026-07-09T09:57:44.000Z</time>
      </trkpt>
      <trkpt lat="45.7981" lon="1.87771">
        <ele>757.5</ele>
        <time>2026-07-09T09:57:45.000Z</time>
      </trkpt>
      <trkpt lat="45.79809" lon="1.87773">
        <ele>757.6</ele>
        <time>2026-07-09T09:57:46.000Z</time>
      </trkpt>
      <trkpt lat="45.79809" lon="1.87776">
        <ele>757</ele>
        <time>2026-07-09T09:57:47.000Z</time>
      </trkpt>
      <trkpt lat="45.79808" lon="1.87778">
        <ele>757.8</ele>
        <time>2026-07-09T09:57:48.000Z</time>
      </trkpt>
      <trkpt lat="45.79808" lon="1.87781">
        <ele>758.2</ele>
        <time>2026-07-09T09:57:49.000Z</time>
      </trkpt>
      <trkpt lat="45.79808" lon="1.87783">
        <ele>756.8</ele>
        <time>2026-07-09T09:57:50.000Z</time>
      </trkpt>
      <trkpt lat="45.79808" lon="1.87785">
        <ele>756.6</ele>
        <time>2026-07-09T09:57:51.000Z</time>
      </trkpt>
      <trkpt lat="45.79808" lon="1.87788">
        <ele>757.7</ele>
        <time>2026-07-09T09:57:52.000Z</time>
      </trkpt>
      <trkpt lat="45.79808" lon="1.8779">
        <ele>759</ele>
        <time>2026-07-09T09:57:53.000Z</time>
      </trkpt>
      <trkpt lat="45.79808" lon="1.87791">
        <ele>759.5</ele>
        <time>2026-07-09T09:57:54.000Z</time>
      </trkpt>
      <trkpt lat="45.79807" lon="1.87793">
        <ele>759.6</ele>
        <time>2026-07-09T09:57:55.000Z</time>
      </trkpt>
      <trkpt lat="45.79807" lon="1.87794">
        <ele>760.8</ele>
        <time>2026-07-09T09:57:56.000Z</time>
      </trkpt>
      <trkpt lat="45.79807" lon="1.87796">
        <ele>763.1</ele>
        <time>2026-07-09T09:57:57.000Z</time>
      </trkpt>
      <trkpt lat="45.79807" lon="1.87797">
        <ele>762.9</ele>
        <time>2026-07-09T09:57:58.000Z</time>
      </trkpt>
      <trkpt lat="45.79807" lon="1.87799">
        <ele>762</ele>
        <time>2026-07-09T09:57:59.000Z</time>
      </trkpt>
      <trkpt lat="45.79807" lon="1.87801">
        <ele>763.1</ele>
        <time>2026-07-09T09:58:00.000Z</time>
      </trkpt>
      <trkpt lat="45.79807" lon="1.87802">
        <ele>762.4</ele>
        <time>2026-07-09T09:58:01.000Z</time>
      </trkpt>
      <trkpt lat="45.79807" lon="1.87804">
        <ele>762.3</ele>
        <time>2026-07-09T09:58:02.000Z</time>
      </trkpt>
      <trkpt lat="45.79807" lon="1.87805">
        <ele>761.9</ele>
        <time>2026-07-09T09:58:03.000Z</time>
      </trkpt>
      <trkpt lat="45.79806" lon="1.87807">
        <ele>762.6</ele>
        <time>2026-07-09T09:58:04.000Z</time>
      </trkpt>
      <trkpt lat="45.79806" lon="1.87809">
        <ele>762.3</ele>
        <time>2026-07-09T09:58:05.000Z</time>
      </trkpt>
      <trkpt lat="45.79805" lon="1.8781">
        <ele>762.1</ele>
        <time>2026-07-09T09:58:06.000Z</time>
      </trkpt>
      <trkpt lat="45.79805" lon="1.87812">
        <ele>761.2</ele>
        <time>2026-07-09T09:58:07.000Z</time>
      </trkpt>
      <trkpt lat="45.79806" lon="1.87814">
        <ele>761.8</ele>
        <time>2026-07-09T09:58:08.000Z</time>
      </trkpt>
      <trkpt lat="45.79806" lon="1.87815">
        <ele>762</ele>
        <time>2026-07-09T09:58:09.000Z</time>
      </trkpt>
      <trkpt lat="45.79806" lon="1.87816">
        <ele>761.7</ele>
        <time>2026-07-09T09:58:10.000Z</time>
      </trkpt>
      <trkpt lat="45.79806" lon="1.87818">
        <ele>761.3</ele>
        <time>2026-07-09T09:58:11.000Z</time>
      </trkpt>
      <trkpt lat="45.79806" lon="1.8782">
        <ele>761.1</ele>
        <time>2026-07-09T09:58:12.000Z</time>
      </trkpt>
      <trkpt lat="45.79806" lon="1.87821">
        <ele>760.4</ele>
        <time>2026-07-09T09:58:13.000Z</time>
      </trkpt>
      <trkpt lat="45.79805" lon="1.87823">
        <ele>760.8</ele>
        <time>2026-07-09T09:58:14.000Z</time>
      </trkpt>
      <trkpt lat="45.79805" lon="1.87825">
        <ele>761.2</ele>
        <time>2026-07-09T09:58:15.000Z</time>
      </trkpt>
      <trkpt lat="45.79805" lon="1.87827">
        <ele>761.1</ele>
        <time>2026-07-09T09:58:16.000Z</time>
      </trkpt>
      <trkpt lat="45.79805" lon="1.87828">
        <ele>760.8</ele>
        <time>2026-07-09T09:58:17.000Z</time>
      </trkpt>
      <trkpt lat="45.79804" lon="1.8783">
        <ele>762</ele>
        <time>2026-07-09T09:58:18.000Z</time>
      </trkpt>
      <trkpt lat="45.79804" lon="1.87832">
        <ele>761.8</ele>
        <time>2026-07-09T09:58:19.000Z</time>
      </trkpt>
      <trkpt lat="45.79804" lon="1.87834">
        <ele>763.2</ele>
        <time>2026-07-09T09:58:20.000Z</time>
      </trkpt>
      <trkpt lat="45.79804" lon="1.87835">
        <ele>763.6</ele>
        <time>2026-07-09T09:58:21.000Z</time>
      </trkpt>
      <trkpt lat="45.79804" lon="1.87838">
        <ele>763.1</ele>
        <time>2026-07-09T09:58:22.000Z</time>
      </trkpt>
      <trkpt lat="45.79804" lon="1.8784">
        <ele>763.6</ele>
        <time>2026-07-09T09:58:23.000Z</time>
      </trkpt>
      <trkpt lat="45.79804" lon="1.87842">
        <ele>763.7</ele>
        <time>2026-07-09T09:58:24.000Z</time>
      </trkpt>
      <trkpt lat="45.79804" lon="1.87844">
        <ele>763.4</ele>
        <time>2026-07-09T09:58:25.000Z</time>
      </trkpt>
      <trkpt lat="45.79805" lon="1.87846">
        <ele>763.8</ele>
        <time>2026-07-09T09:58:26.000Z</time>
      </trkpt>
      <trkpt lat="45.79805" lon="1.87848">
        <ele>763.6</ele>
        <time>2026-07-09T09:58:27.000Z</time>
      </trkpt>
      <trkpt lat="45.79805" lon="1.8785">
        <ele>763.9</ele>
        <time>2026-07-09T09:58:28.000Z</time>
      </trkpt>
      <trkpt lat="45.79805" lon="1.87852">
        <ele>763.4</ele>
        <time>2026-07-09T09:58:29.000Z</time>
      </trkpt>
      <trkpt lat="45.79805" lon="1.87855">
        <ele>763.4</ele>
        <time>2026-07-09T09:58:30.000Z</time>
      </trkpt>
      <trkpt lat="45.79804" lon="1.87857">
        <ele>762.6</ele>
        <time>2026-07-09T09:58:31.000Z</time>
      </trkpt>
      <trkpt lat="45.79804" lon="1.87858">
        <ele>762.1</ele>
        <time>2026-07-09T09:58:32.000Z</time>
      </trkpt>
      <trkpt lat="45.79803" lon="1.8786">
        <ele>762</ele>
        <time>2026-07-09T09:58:33.000Z</time>
      </trkpt>
      <trkpt lat="45.79803" lon="1.87862">
        <ele>762.4</ele>
        <time>2026-07-09T09:58:34.000Z</time>
      </trkpt>
      <trkpt lat="45.79803" lon="1.87864">
        <ele>763.1</ele>
        <time>2026-07-09T09:58:35.000Z</time>
      </trkpt>
      <trkpt lat="45.79804" lon="1.87866">
        <ele>763.8</ele>
        <time>2026-07-09T09:58:36.000Z</time>
      </trkpt>
      <trkpt lat="45.79804" lon="1.87868">
        <ele>764</ele>
        <time>2026-07-09T09:58:37.000Z</time>
      </trkpt>
      <trkpt lat="45.79805" lon="1.87869">
        <ele>763.5</ele>
        <time>2026-07-09T09:58:38.000Z</time>
      </trkpt>
      <trkpt lat="45.79805" lon="1.87871">
        <ele>762.9</ele>
        <time>2026-07-09T09:58:39.000Z</time>
      </trkpt>
      <trkpt lat="45.79805" lon="1.87872">
        <ele>763.1</ele>
        <time>2026-07-09T09:58:40.000Z</time>
      </trkpt>
      <trkpt lat="45.79806" lon="1.87874">
        <ele>763</ele>
        <time>2026-07-09T09:58:41.000Z</time>
      </trkpt>
      <trkpt lat="45.79806" lon="1.87876">
        <ele>762.4</ele>
        <time>2026-07-09T09:58:42.000Z</time>
      </trkpt>
      <trkpt lat="45.79806" lon="1.87877">
        <ele>762</ele>
        <time>2026-07-09T09:58:43.000Z</time>
      </trkpt>
      <trkpt lat="45.79805" lon="1.87879">
        <ele>762.7</ele>
        <time>2026-07-09T09:58:44.000Z</time>
      </trkpt>
      <trkpt lat="45.79804" lon="1.87881">
        <ele>764.2</ele>
        <time>2026-07-09T09:58:45.000Z</time>
      </trkpt>
      <trkpt lat="45.79803" lon="1.87882">
        <ele>764.3</ele>
        <time>2026-07-09T09:58:46.000Z</time>
      </trkpt>
      <trkpt lat="45.79803" lon="1.87885">
        <ele>764.3</ele>
        <time>2026-07-09T09:58:47.000Z</time>
      </trkpt>
      <trkpt lat="45.79803" lon="1.87886">
        <ele>765.3</ele>
        <time>2026-07-09T09:58:48.000Z</time>
      </trkpt>
      <trkpt lat="45.79804" lon="1.87888">
        <ele>766.2</ele>
        <time>2026-07-09T09:58:49.000Z</time>
      </trkpt>
      <trkpt lat="45.79803" lon="1.8789">
        <ele>766.3</ele>
        <time>2026-07-09T09:58:50.000Z</time>
      </trkpt>
      <trkpt lat="45.79803" lon="1.87892">
        <ele>766.1</ele>
        <time>2026-07-09T09:58:51.000Z</time>
      </trkpt>
      <trkpt lat="45.79803" lon="1.87893">
        <ele>766.2</ele>
        <time>2026-07-09T09:58:52.000Z</time>
      </trkpt>
      <trkpt lat="45.79802" lon="1.87895">
        <ele>766.8</ele>
        <time>2026-07-09T09:58:53.000Z</time>
      </trkpt>
      <trkpt lat="45.79802" lon="1.87897">
        <ele>767.5</ele>
        <time>2026-07-09T09:58:54.000Z</time>
      </trkpt>
      <trkpt lat="45.79802" lon="1.87898">
        <ele>768.7</ele>
        <time>2026-07-09T09:58:55.000Z</time>
      </trkpt>
      <trkpt lat="45.79802" lon="1.879">
        <ele>769.3</ele>
        <time>2026-07-09T09:58:56.000Z</time>
      </trkpt>
      <trkpt lat="45.79802" lon="1.87902">
        <ele>769.1</ele>
        <time>2026-07-09T09:58:57.000Z</time>
      </trkpt>
      <trkpt lat="45.79802" lon="1.87904">
        <ele>769.3</ele>
        <time>2026-07-09T09:58:58.000Z</time>
      </trkpt>
      <trkpt lat="45.79802" lon="1.87906">
        <ele>769.4</ele>
        <time>2026-07-09T09:58:59.000Z</time>
      </trkpt>
      <trkpt lat="45.79802" lon="1.87907">
        <ele>769.5</ele>
        <time>2026-07-09T09:59:00.000Z</time>
      </trkpt>
      <trkpt lat="45.79801" lon="1.87909">
        <ele>770.2</ele>
        <time>2026-07-09T09:59:01.000Z</time>
      </trkpt>
      <trkpt lat="45.79801" lon="1.87911">
        <ele>770.7</ele>
        <time>2026-07-09T09:59:02.000Z</time>
      </trkpt>
      <trkpt lat="45.798" lon="1.87912">
        <ele>771.2</ele>
        <time>2026-07-09T09:59:03.000Z</time>
      </trkpt>
      <trkpt lat="45.798" lon="1.87914">
        <ele>771.6</ele>
        <time>2026-07-09T09:59:04.000Z</time>
      </trkpt>
      <trkpt lat="45.79799" lon="1.87915">
        <ele>771.5</ele>
        <time>2026-07-09T09:59:05.000Z</time>
      </trkpt>
      <trkpt lat="45.79799" lon="1.87917">
        <ele>771.6</ele>
        <time>2026-07-09T09:59:06.000Z</time>
      </trkpt>
      <trkpt lat="45.79799" lon="1.87919">
        <ele>771.5</ele>
        <time>2026-07-09T09:59:07.000Z</time>
      </trkpt>
      <trkpt lat="45.79799" lon="1.8792">
        <ele>770.9</ele>
        <time>2026-07-09T09:59:08.000Z</time>
      </trkpt>
      <trkpt lat="45.79799" lon="1.87922">
        <ele>771.8</ele>
        <time>2026-07-09T09:59:09.000Z</time>
      </trkpt>
      <trkpt lat="45.79799" lon="1.87924">
        <ele>771.8</ele>
        <time>2026-07-09T09:59:10.000Z</time>
      </trkpt>
      <trkpt lat="45.79799" lon="1.87925">
        <ele>771.8</ele>
        <time>2026-07-09T09:59:11.000Z</time>
      </trkpt>
      <trkpt lat="45.79798" lon="1.87927">
        <ele>772.5</ele>
        <time>2026-07-09T09:59:12.000Z</time>
      </trkpt>
      <trkpt lat="45.79798" lon="1.87929">
        <ele>773.1</ele>
        <time>2026-07-09T09:59:13.000Z</time>
      </trkpt>
      <trkpt lat="45.79798" lon="1.8793">
        <ele>773.2</ele>
        <time>2026-07-09T09:59:14.000Z</time>
      </trkpt>
      <trkpt lat="45.79798" lon="1.87932">
        <ele>772.7</ele>
        <time>2026-07-09T09:59:15.000Z</time>
      </trkpt>
      <trkpt lat="45.79798" lon="1.87934">
        <ele>773</ele>
        <time>2026-07-09T09:59:16.000Z</time>
      </trkpt>
      <trkpt lat="45.79798" lon="1.87936">
        <ele>772.9</ele>
        <time>2026-07-09T09:59:17.000Z</time>
      </trkpt>
      <trkpt lat="45.79798" lon="1.87939">
        <ele>772.7</ele>
        <time>2026-07-09T09:59:18.000Z</time>
      </trkpt>
      <trkpt lat="45.79798" lon="1.87941">
        <ele>773.9</ele>
        <time>2026-07-09T09:59:19.000Z</time>
      </trkpt>
      <trkpt lat="45.79797" lon="1.87943">
        <ele>774.2</ele>
        <time>2026-07-09T09:59:20.000Z</time>
      </trkpt>
      <trkpt lat="45.79797" lon="1.87945">
        <ele>774.9</ele>
        <time>2026-07-09T09:59:21.000Z</time>
      </trkpt>
      <trkpt lat="45.79797" lon="1.87945">
        <ele>775.1</ele>
        <time>2026-07-09T09:59:22.000Z</time>
      </trkpt>
      <trkpt lat="45.79796" lon="1.87945">
        <ele>775.1</ele>
        <time>2026-07-09T09:59:23.000Z</time>
      </trkpt>
      <trkpt lat="45.79796" lon="1.87946">
        <ele>775.4</ele>
        <time>2026-07-09T09:59:24.000Z</time>
      </trkpt>
      <trkpt lat="45.79796" lon="1.87948">
        <ele>775.8</ele>
        <time>2026-07-09T09:59:25.000Z</time>
      </trkpt>
      <trkpt lat="45.79795" lon="1.8795">
        <ele>776.5</ele>
        <time>2026-07-09T09:59:26.000Z</time>
      </trkpt>
      <trkpt lat="45.79795" lon="1.87952">
        <ele>776.4</ele>
        <time>2026-07-09T09:59:27.000Z</time>
      </trkpt>
      <trkpt lat="45.79794" lon="1.87955">
        <ele>777</ele>
        <time>2026-07-09T09:59:28.000Z</time>
      </trkpt>
      <trkpt lat="45.79794" lon="1.87957">
        <ele>777.7</ele>
        <time>2026-07-09T09:59:29.000Z</time>
      </trkpt>
      <trkpt lat="45.79794" lon="1.87958">
        <ele>778.1</ele>
        <time>2026-07-09T09:59:30.000Z</time>
      </trkpt>
      <trkpt lat="45.79794" lon="1.87958">
        <ele>778.2</ele>
        <time>2026-07-09T09:59:31.000Z</time>
      </trkpt>
      <trkpt lat="45.79794" lon="1.87958">
        <ele>778.2</ele>
        <time>2026-07-09T09:59:32.000Z</time>
      </trkpt>
      <trkpt lat="45.79794" lon="1.87958">
        <ele>778.2</ele>
        <time>2026-07-09T09:59:33.000Z</time>
      </trkpt>
      <trkpt lat="45.79794" lon="1.87958">
        <ele>778.2</ele>
        <time>2026-07-09T09:59:34.000Z</time>
      </trkpt>
      <trkpt lat="45.79794" lon="1.87959">
        <ele>778.1</ele>
        <time>2026-07-09T09:59:35.000Z</time>
      </trkpt>
      <trkpt lat="45.79794" lon="1.87961">
        <ele>778.4</ele>
        <time>2026-07-09T09:59:36.000Z</time>
      </trkpt>
      <trkpt lat="45.79793" lon="1.87964">
        <ele>778.7</ele>
        <time>2026-07-09T09:59:37.000Z</time>
      </trkpt>
      <trkpt lat="45.79793" lon="1.87966">
        <ele>779.2</ele>
        <time>2026-07-09T09:59:38.000Z</time>
      </trkpt>
      <trkpt lat="45.79794" lon="1.87969">
        <ele>779.7</ele>
        <time>2026-07-09T09:59:39.000Z</time>
      </trkpt>
      <trkpt lat="45.79794" lon="1.8797">
        <ele>779.7</ele>
        <time>2026-07-09T09:59:40.000Z</time>
      </trkpt>
      <trkpt lat="45.79794" lon="1.87973">
        <ele>779.9</ele>
        <time>2026-07-09T09:59:41.000Z</time>
      </trkpt>
      <trkpt lat="45.79793" lon="1.87975">
        <ele>780.2</ele>
        <time>2026-07-09T09:59:42.000Z</time>
      </trkpt>
      <trkpt lat="45.79792" lon="1.87977">
        <ele>781.1</ele>
        <time>2026-07-09T09:59:43.000Z</time>
      </trkpt>
      <trkpt lat="45.79792" lon="1.87979">
        <ele>781.5</ele>
        <time>2026-07-09T09:59:44.000Z</time>
      </trkpt>
      <trkpt lat="45.79792" lon="1.87981">
        <ele>781.6</ele>
        <time>2026-07-09T09:59:45.000Z</time>
      </trkpt>
      <trkpt lat="45.79792" lon="1.87983">
        <ele>782.3</ele>
        <time>2026-07-09T09:59:46.000Z</time>
      </trkpt>
      <trkpt lat="45.79792" lon="1.87986">
        <ele>782.6</ele>
        <time>2026-07-09T09:59:47.000Z</time>
      </trkpt>
      <trkpt lat="45.79792" lon="1.87988">
        <ele>783</ele>
        <time>2026-07-09T09:59:48.000Z</time>
      </trkpt>
      <trkpt lat="45.79792" lon="1.8799">
        <ele>783.9</ele>
        <time>2026-07-09T09:59:49.000Z</time>
      </trkpt>
      <trkpt lat="45.79793" lon="1.87992">
        <ele>784.1</ele>
        <time>2026-07-09T09:59:50.000Z</time>
      </trkpt>
      <trkpt lat="45.79793" lon="1.87994">
        <ele>784.7</ele>
        <time>2026-07-09T09:59:51.000Z</time>
      </trkpt>
      <trkpt lat="45.79793" lon="1.87997">
        <ele>784.5</ele>
        <time>2026-07-09T09:59:52.000Z</time>
      </trkpt>
      <trkpt lat="45.79792" lon="1.87999">
        <ele>784.7</ele>
        <time>2026-07-09T09:59:53.000Z</time>
      </trkpt>
      <trkpt lat="45.79793" lon="1.88001">
        <ele>784.9</ele>
        <time>2026-07-09T09:59:54.000Z</time>
      </trkpt>
      <trkpt lat="45.79793" lon="1.88003">
        <ele>785</ele>
        <time>2026-07-09T09:59:55.000Z</time>
      </trkpt>
      <trkpt lat="45.79793" lon="1.88005">
        <ele>784.9</ele>
        <time>2026-07-09T09:59:56.000Z</time>
      </trkpt>
      <trkpt lat="45.79793" lon="1.88007">
        <ele>785.2</ele>
        <time>2026-07-09T09:59:57.000Z</time>
      </trkpt>
      <trkpt lat="45.79793" lon="1.88009">
        <ele>784.4</ele>
        <time>2026-07-09T09:59:58.000Z</time>
      </trkpt>
      <trkpt lat="45.79793" lon="1.88011">
        <ele>784.7</ele>
        <time>2026-07-09T09:59:59.000Z</time>
      </trkpt>
      <trkpt lat="45.79793" lon="1.88012">
        <ele>784.5</ele>
        <time>2026-07-09T10:00:00.000Z</time>
      </trkpt>
      <trkpt lat="45.79792" lon="1.88015">
        <ele>785</ele>
        <time>2026-07-09T10:00:01.000Z</time>
      </trkpt>
      <trkpt lat="45.79792" lon="1.88016">
        <ele>785.9</ele>
        <time>2026-07-09T10:00:02.000Z</time>
      </trkpt>
      <trkpt lat="45.79792" lon="1.88018">
        <ele>785.3</ele>
        <time>2026-07-09T10:00:03.000Z</time>
      </trkpt>
      <trkpt lat="45.79792" lon="1.8802">
        <ele>784.7</ele>
        <time>2026-07-09T10:00:04.000Z</time>
      </trkpt>
      <trkpt lat="45.79792" lon="1.88022">
        <ele>785.2</ele>
        <time>2026-07-09T10:00:05.000Z</time>
      </trkpt>
      <trkpt lat="45.79791" lon="1.88024">
        <ele>785</ele>
        <time>2026-07-09T10:00:06.000Z</time>
      </trkpt>
      <trkpt lat="45.79791" lon="1.88023">
        <ele>785.2</ele>
        <time>2026-07-09T10:00:07.000Z</time>
      </trkpt>
      <trkpt lat="45.79791" lon="1.88023">
        <ele>785.2</ele>
        <time>2026-07-09T10:00:08.000Z</time>
      </trkpt>
      <trkpt lat="45.79791" lon="1.88023">
        <ele>785.2</ele>
        <time>2026-07-09T10:00:09.000Z</time>
      </trkpt>
      <trkpt lat="45.79791" lon="1.88023">
        <ele>785.2</ele>
        <time>2026-07-09T10:00:10.000Z</time>
      </trkpt>
      <trkpt lat="45.79791" lon="1.88023">
        <ele>785.2</ele>
        <time>2026-07-09T10:00:11.000Z</time>
      </trkpt>
      <trkpt lat="45.79791" lon="1.88023">
        <ele>784.9</ele>
        <time>2026-07-09T10:00:12.000Z</time>
      </trkpt>
      <trkpt lat="45.79791" lon="1.88023">
        <ele>784.9</ele>
        <time>2026-07-09T10:00:13.000Z</time>
      </trkpt>
      <trkpt lat="45.7979" lon="1.88022">
        <ele>784.7</ele>
        <time>2026-07-09T10:00:14.000Z</time>
      </trkpt>
      <trkpt lat="45.7979" lon="1.88024">
        <ele>784.7</ele>
        <time>2026-07-09T10:00:15.000Z</time>
      </trkpt>
      <trkpt lat="45.7979" lon="1.88025">
        <ele>784.7</ele>
        <time>2026-07-09T10:00:16.000Z</time>
      </trkpt>
      <trkpt lat="45.79791" lon="1.88027">
        <ele>784.3</ele>
        <time>2026-07-09T10:00:17.000Z</time>
      </trkpt>
      <trkpt lat="45.79791" lon="1.88029">
        <ele>784.4</ele>
        <time>2026-07-09T10:00:18.000Z</time>
      </trkpt>
      <trkpt lat="45.79791" lon="1.88031">
        <ele>785</ele>
        <time>2026-07-09T10:00:19.000Z</time>
      </trkpt>
      <trkpt lat="45.79793" lon="1.88034">
        <ele>786.9</ele>
        <time>2026-07-09T10:00:20.000Z</time>
      </trkpt>
      <trkpt lat="45.79793" lon="1.88036">
        <ele>787.6</ele>
        <time>2026-07-09T10:00:21.000Z</time>
      </trkpt>
      <trkpt lat="45.79793" lon="1.88038">
        <ele>788.2</ele>
        <time>2026-07-09T10:00:22.000Z</time>
      </trkpt>
      <trkpt lat="45.79792" lon="1.88039">
        <ele>788.5</ele>
        <time>2026-07-09T10:00:23.000Z</time>
      </trkpt>
      <trkpt lat="45.79792" lon="1.88041">
        <ele>789</ele>
        <time>2026-07-09T10:00:24.000Z</time>
      </trkpt>
      <trkpt lat="45.79792" lon="1.88042">
        <ele>789.2</ele>
        <time>2026-07-09T10:00:25.000Z</time>
      </trkpt>
      <trkpt lat="45.79792" lon="1.88043">
        <ele>789.4</ele>
        <time>2026-07-09T10:00:26.000Z</time>
      </trkpt>
      <trkpt lat="45.79792" lon="1.88044">
        <ele>789.5</ele>
        <time>2026-07-09T10:00:27.000Z</time>
      </trkpt>
      <trkpt lat="45.79792" lon="1.88044">
        <ele>789.6</ele>
        <time>2026-07-09T10:00:28.000Z</time>
      </trkpt>
      <trkpt lat="45.79792" lon="1.88044">
        <ele>789.6</ele>
        <time>2026-07-09T10:00:29.000Z</time>
      </trkpt>
      <trkpt lat="45.79792" lon="1.88044">
        <ele>789.6</ele>
        <time>2026-07-09T10:00:30.000Z</time>
      </trkpt>
      <trkpt lat="45.79791" lon="1.88047">
        <ele>789.3</ele>
        <time>2026-07-09T10:00:31.000Z</time>
      </trkpt>
      <trkpt lat="45.79791" lon="1.88047">
        <ele>789.2</ele>
        <time>2026-07-09T10:00:32.000Z</time>
      </trkpt>
      <trkpt lat="45.79791" lon="1.88047">
        <ele>789.2</ele>
        <time>2026-07-09T10:00:33.000Z</time>
      </trkpt>
      <trkpt lat="45.79791" lon="1.88047">
        <ele>789.2</ele>
        <time>2026-07-09T10:00:34.000Z</time>
      </trkpt>
      <trkpt lat="45.79791" lon="1.88047">
        <ele>789.2</ele>
        <time>2026-07-09T10:00:35.000Z</time>
      </trkpt>
      <trkpt lat="45.79791" lon="1.88047">
        <ele>789.2</ele>
        <time>2026-07-09T10:00:36.000Z</time>
      </trkpt>
      <trkpt lat="45.79791" lon="1.88047">
        <ele>789.2</ele>
        <time>2026-07-09T10:00:37.000Z</time>
      </trkpt>
      <trkpt lat="45.79791" lon="1.88047">
        <ele>789.2</ele>
        <time>2026-07-09T10:00:38.000Z</time>
      </trkpt>
      <trkpt lat="45.79791" lon="1.88048">
        <ele>789.4</ele>
        <time>2026-07-09T10:00:39.000Z</time>
      </trkpt>
      <trkpt lat="45.79791" lon="1.88049">
        <ele>789.6</ele>
        <time>2026-07-09T10:00:40.000Z</time>
      </trkpt>
      <trkpt lat="45.79791" lon="1.88051">
        <ele>790.4</ele>
        <time>2026-07-09T10:00:41.000Z</time>
      </trkpt>
      <trkpt lat="45.79791" lon="1.88053">
        <ele>791</ele>
        <time>2026-07-09T10:00:42.000Z</time>
      </trkpt>
      <trkpt lat="45.7979" lon="1.88054">
        <ele>790.9</ele>
        <time>2026-07-09T10:00:43.000Z</time>
      </trkpt>
      <trkpt lat="45.7979" lon="1.88054">
        <ele>791.2</ele>
        <time>2026-07-09T10:00:44.000Z</time>
      </trkpt>
      <trkpt lat="45.7979" lon="1.88053">
        <ele>791.2</ele>
        <time>2026-07-09T10:00:45.000Z</time>
      </trkpt>
      <trkpt lat="45.79789" lon="1.88053">
        <ele>791.3</ele>
        <time>2026-07-09T10:00:46.000Z</time>
      </trkpt>
      <trkpt lat="45.79789" lon="1.88053">
        <ele>791.3</ele>
        <time>2026-07-09T10:00:47.000Z</time>
      </trkpt>
      <trkpt lat="45.79789" lon="1.88053">
        <ele>791.4</ele>
        <time>2026-07-09T10:00:48.000Z</time>
      </trkpt>
      <trkpt lat="45.79789" lon="1.88053">
        <ele>791.4</ele>
        <time>2026-07-09T10:00:49.000Z</time>
      </trkpt>
      <trkpt lat="45.79789" lon="1.88053">
        <ele>791.4</ele>
        <time>2026-07-09T10:00:50.000Z</time>
      </trkpt>
      <trkpt lat="45.79789" lon="1.88053">
        <ele>791.4</ele>
        <time>2026-07-09T10:00:51.000Z</time>
      </trkpt>
      <trkpt lat="45.79789" lon="1.88053">
        <ele>791.3</ele>
        <time>2026-07-09T10:00:52.000Z</time>
      </trkpt>
      <trkpt lat="45.79789" lon="1.88053">
        <ele>791.3</ele>
        <time>2026-07-09T10:00:53.000Z</time>
      </trkpt>
      <trkpt lat="45.79789" lon="1.88053">
        <ele>791.3</ele>
        <time>2026-07-09T10:00:54.000Z</time>
      </trkpt>
      <trkpt lat="45.79789" lon="1.88053">
        <ele>791.3</ele>
        <time>2026-07-09T10:00:55.000Z</time>
      </trkpt>
      <trkpt lat="45.79789" lon="1.88053">
        <ele>791.3</ele>
        <time>2026-07-09T10:00:56.000Z</time>
      </trkpt>
      <trkpt lat="45.79789" lon="1.88051">
        <ele>791.6</ele>
        <time>2026-07-09T10:00:57.000Z</time>
      </trkpt>
      <trkpt lat="45.79789" lon="1.88051">
        <ele>791.7</ele>
        <time>2026-07-09T10:00:58.000Z</time>
      </trkpt>
      <trkpt lat="45.79789" lon="1.88051">
        <ele>791.6</ele>
        <time>2026-07-09T10:00:59.000Z</time>
      </trkpt>
      <trkpt lat="45.79789" lon="1.88051">
        <ele>791.6</ele>
        <time>2026-07-09T10:01:00.000Z</time>
      </trkpt>
      <trkpt lat="45.79789" lon="1.8805">
        <ele>791.9</ele>
        <time>2026-07-09T10:01:01.000Z</time>
      </trkpt>
      <trkpt lat="45.79789" lon="1.8805">
        <ele>791.7</ele>
        <time>2026-07-09T10:01:02.000Z</time>
      </trkpt>
      <trkpt lat="45.79789" lon="1.8805">
        <ele>791.7</ele>
        <time>2026-07-09T10:01:03.000Z</time>
      </trkpt>
      <trkpt lat="45.79789" lon="1.8805">
        <ele>791.7</ele>
        <time>2026-07-09T10:01:04.000Z</time>
      </trkpt>
      <trkpt lat="45.79789" lon="1.88051">
        <ele>791.9</ele>
        <time>2026-07-09T10:01:05.000Z</time>
      </trkpt>
      <trkpt lat="45.79789" lon="1.88051">
        <ele>791.5</ele>
        <time>2026-07-09T10:01:06.000Z</time>
      </trkpt>
      <trkpt lat="45.79789" lon="1.88051">
        <ele>791.5</ele>
        <time>2026-07-09T10:01:07.000Z</time>
      </trkpt>
      <trkpt lat="45.79789" lon="1.88051">
        <ele>791.4</ele>
        <time>2026-07-09T10:01:08.000Z</time>
      </trkpt>
      <trkpt lat="45.79789" lon="1.88051">
        <ele>791.4</ele>
        <time>2026-07-09T10:01:09.000Z</time>
      </trkpt>
      <trkpt lat="45.79789" lon="1.88051">
        <ele>791.4</ele>
        <time>2026-07-09T10:01:10.000Z</time>
      </trkpt>
      <trkpt lat="45.79788" lon="1.88052">
        <ele>791.5</ele>
        <time>2026-07-09T10:01:11.000Z</time>
      </trkpt>
      <trkpt lat="45.79788" lon="1.88053">
        <ele>791.8</ele>
        <time>2026-07-09T10:01:12.000Z</time>
      </trkpt>
      <trkpt lat="45.79788" lon="1.88053">
        <ele>792.1</ele>
        <time>2026-07-09T10:01:13.000Z</time>
      </trkpt>
      <trkpt lat="45.79788" lon="1.88054">
        <ele>792.5</ele>
        <time>2026-07-09T10:01:14.000Z</time>
      </trkpt>
      <trkpt lat="45.79788" lon="1.88054">
        <ele>792.4</ele>
        <time>2026-07-09T10:01:15.000Z</time>
      </trkpt>
      <trkpt lat="45.79788" lon="1.88054">
        <ele>792.3</ele>
        <time>2026-07-09T10:01:16.000Z</time>
      </trkpt>
      <trkpt lat="45.79788" lon="1.88055">
        <ele>792.3</ele>
        <time>2026-07-09T10:01:17.000Z</time>
      </trkpt>
      <trkpt lat="45.79788" lon="1.88056">
        <ele>792.5</ele>
        <time>2026-07-09T10:01:18.000Z</time>
      </trkpt>
      <trkpt lat="45.79787" lon="1.88057">
        <ele>792.5</ele>
        <time>2026-07-09T10:01:19.000Z</time>
      </trkpt>
      <trkpt lat="45.79787" lon="1.88058">
        <ele>792.7</ele>
        <time>2026-07-09T10:01:20.000Z</time>
      </trkpt>
      <trkpt lat="45.79787" lon="1.88059">
        <ele>792.8</ele>
        <time>2026-07-09T10:01:21.000Z</time>
      </trkpt>
      <trkpt lat="45.79787" lon="1.88059">
        <ele>792.8</ele>
        <time>2026-07-09T10:01:22.000Z</time>
      </trkpt>
      <trkpt lat="45.79786" lon="1.88061">
        <ele>792.9</ele>
        <time>2026-07-09T10:01:23.000Z</time>
      </trkpt>
      <trkpt lat="45.79786" lon="1.88062">
        <ele>792.6</ele>
        <time>2026-07-09T10:01:24.000Z</time>
      </trkpt>
      <trkpt lat="45.79785" lon="1.88062">
        <ele>792.3</ele>
        <time>2026-07-09T10:01:25.000Z</time>
      </trkpt>
      <trkpt lat="45.79784" lon="1.88063">
        <ele>792.4</ele>
        <time>2026-07-09T10:01:26.000Z</time>
      </trkpt>
      <trkpt lat="45.79783" lon="1.88064">
        <ele>792.2</ele>
        <time>2026-07-09T10:01:27.000Z</time>
      </trkpt>
      <trkpt lat="45.79782" lon="1.88064">
        <ele>792</ele>
        <time>2026-07-09T10:01:28.000Z</time>
      </trkpt>
      <trkpt lat="45.79782" lon="1.88066">
        <ele>790.9</ele>
        <time>2026-07-09T10:01:29.000Z</time>
      </trkpt>
      <trkpt lat="45.7978" lon="1.88066">
        <ele>791.1</ele>
        <time>2026-07-09T10:01:30.000Z</time>
      </trkpt>
      <trkpt lat="45.79779" lon="1.88066">
        <ele>791.1</ele>
        <time>2026-07-09T10:01:31.000Z</time>
      </trkpt>
      <trkpt lat="45.79776" lon="1.88063">
        <ele>792.1</ele>
        <time>2026-07-09T10:01:32.000Z</time>
      </trkpt>
      <trkpt lat="45.79774" lon="1.88064">
        <ele>792.2</ele>
        <time>2026-07-09T10:01:33.000Z</time>
      </trkpt>
      <trkpt lat="45.79773" lon="1.88065">
        <ele>792.2</ele>
        <time>2026-07-09T10:01:34.000Z</time>
      </trkpt>
      <trkpt lat="45.79772" lon="1.88066">
        <ele>792.1</ele>
        <time>2026-07-09T10:01:35.000Z</time>
      </trkpt>
      <trkpt lat="45.79771" lon="1.88068">
        <ele>792</ele>
        <time>2026-07-09T10:01:36.000Z</time>
      </trkpt>
      <trkpt lat="45.7977" lon="1.88069">
        <ele>792.2</ele>
        <time>2026-07-09T10:01:37.000Z</time>
      </trkpt>
      <trkpt lat="45.79769" lon="1.8807">
        <ele>792.2</ele>
        <time>2026-07-09T10:01:38.000Z</time>
      </trkpt>
      <trkpt lat="45.79768" lon="1.88071">
        <ele>792.3</ele>
        <time>2026-07-09T10:01:39.000Z</time>
      </trkpt>
      <trkpt lat="45.79766" lon="1.88072">
        <ele>792.4</ele>
        <time>2026-07-09T10:01:40.000Z</time>
      </trkpt>
      <trkpt lat="45.79765" lon="1.88072">
        <ele>792.7</ele>
        <time>2026-07-09T10:01:41.000Z</time>
      </trkpt>
      <trkpt lat="45.79765" lon="1.88073">
        <ele>792.8</ele>
        <time>2026-07-09T10:01:42.000Z</time>
      </trkpt>
      <trkpt lat="45.79765" lon="1.88074">
        <ele>792.6</ele>
        <time>2026-07-09T10:01:43.000Z</time>
      </trkpt>
      <trkpt lat="45.79765" lon="1.88074">
        <ele>792.6</ele>
        <time>2026-07-09T10:01:44.000Z</time>
      </trkpt>
      <trkpt lat="45.79765" lon="1.88074">
        <ele>792.6</ele>
        <time>2026-07-09T10:01:45.000Z</time>
      </trkpt>
      <trkpt lat="45.79765" lon="1.88074">
        <ele>792.6</ele>
        <time>2026-07-09T10:01:46.000Z</time>
      </trkpt>
      <trkpt lat="45.79765" lon="1.88074">
        <ele>792.6</ele>
        <time>2026-07-09T10:01:47.000Z</time>
      </trkpt>
      <trkpt lat="45.79765" lon="1.88074">
        <ele>792.9</ele>
        <time>2026-07-09T10:01:48.000Z</time>
      </trkpt>
      <trkpt lat="45.79765" lon="1.88074">
        <ele>792.6</ele>
        <time>2026-07-09T10:01:49.000Z</time>
      </trkpt>
      <trkpt lat="45.79765" lon="1.88074">
        <ele>792.6</ele>
        <time>2026-07-09T10:01:50.000Z</time>
      </trkpt>
      <trkpt lat="45.79765" lon="1.88074">
        <ele>792.5</ele>
        <time>2026-07-09T10:01:51.000Z</time>
      </trkpt>
      <trkpt lat="45.79765" lon="1.88074">
        <ele>792.8</ele>
        <time>2026-07-09T10:01:52.000Z</time>
      </trkpt>
      <trkpt lat="45.79765" lon="1.88074">
        <ele>792.8</ele>
        <time>2026-07-09T10:01:53.000Z</time>
      </trkpt>
      <trkpt lat="45.79765" lon="1.88074">
        <ele>792.8</ele>
        <time>2026-07-09T10:01:54.000Z</time>
      </trkpt>
      <trkpt lat="45.79766" lon="1.88074">
        <ele>793.1</ele>
        <time>2026-07-09T10:01:55.000Z</time>
      </trkpt>
      <trkpt lat="45.79766" lon="1.88074">
        <ele>793.1</ele>
        <time>2026-07-09T10:01:56.000Z</time>
      </trkpt>
      <trkpt lat="45.79766" lon="1.88074">
        <ele>793.2</ele>
        <time>2026-07-09T10:01:57.000Z</time>
      </trkpt>
      <trkpt lat="45.79766" lon="1.88073">
        <ele>792.9</ele>
        <time>2026-07-09T10:01:58.000Z</time>
      </trkpt>
      <trkpt lat="45.79766" lon="1.88073">
        <ele>792.9</ele>
        <time>2026-07-09T10:01:59.000Z</time>
      </trkpt>
      <trkpt lat="45.79766" lon="1.88074">
        <ele>792.9</ele>
        <time>2026-07-09T10:02:00.000Z</time>
      </trkpt>
      <trkpt lat="45.79765" lon="1.88074">
        <ele>793</ele>
        <time>2026-07-09T10:02:01.000Z</time>
      </trkpt>
      <trkpt lat="45.79765" lon="1.88073">
        <ele>792.9</ele>
        <time>2026-07-09T10:02:02.000Z</time>
      </trkpt>
      <trkpt lat="45.79765" lon="1.88072">
        <ele>793.1</ele>
        <time>2026-07-09T10:02:03.000Z</time>
      </trkpt>
      <trkpt lat="45.79764" lon="1.88071">
        <ele>792.9</ele>
        <time>2026-07-09T10:02:04.000Z</time>
      </trkpt>
      <trkpt lat="45.79763" lon="1.88071">
        <ele>792.9</ele>
        <time>2026-07-09T10:02:05.000Z</time>
      </trkpt>
      <trkpt lat="45.79763" lon="1.88072">
        <ele>793.1</ele>
        <time>2026-07-09T10:02:06.000Z</time>
      </trkpt>
      <trkpt lat="45.79763" lon="1.88073">
        <ele>793.1</ele>
        <time>2026-07-09T10:02:07.000Z</time>
      </trkpt>
      <trkpt lat="45.79763" lon="1.88074">
        <ele>792.8</ele>
        <time>2026-07-09T10:02:08.000Z</time>
      </trkpt>
      <trkpt lat="45.79763" lon="1.88074">
        <ele>792.6</ele>
        <time>2026-07-09T10:02:09.000Z</time>
      </trkpt>
      <trkpt lat="45.79763" lon="1.88073">
        <ele>792.4</ele>
        <time>2026-07-09T10:02:10.000Z</time>
      </trkpt>
      <trkpt lat="45.79763" lon="1.88073">
        <ele>792.6</ele>
        <time>2026-07-09T10:02:11.000Z</time>
      </trkpt>
      <trkpt lat="45.79763" lon="1.88073">
        <ele>792.6</ele>
        <time>2026-07-09T10:02:12.000Z</time>
      </trkpt>
      <trkpt lat="45.79763" lon="1.88073">
        <ele>792.6</ele>
        <time>2026-07-09T10:02:13.000Z</time>
      </trkpt>
      <trkpt lat="45.79764" lon="1.88073">
        <ele>792.6</ele>
        <time>2026-07-09T10:02:14.000Z</time>
      </trkpt>
      <trkpt lat="45.79764" lon="1.88073">
        <ele>792.6</ele>
        <time>2026-07-09T10:02:15.000Z</time>
      </trkpt>
      <trkpt lat="45.79764" lon="1.88073">
        <ele>792.6</ele>
        <time>2026-07-09T10:02:16.000Z</time>
      </trkpt>
      <trkpt lat="45.79764" lon="1.88073">
        <ele>792.2</ele>
        <time>2026-07-09T10:02:17.000Z</time>
      </trkpt>
      <trkpt lat="45.79764" lon="1.88073">
        <ele>792.4</ele>
        <time>2026-07-09T10:02:18.000Z</time>
      </trkpt>
      <trkpt lat="45.79764" lon="1.88073">
        <ele>792.5</ele>
        <time>2026-07-09T10:02:19.000Z</time>
      </trkpt>
      <trkpt lat="45.79764" lon="1.88073">
        <ele>792.5</ele>
        <time>2026-07-09T10:02:20.000Z</time>
      </trkpt>
      <trkpt lat="45.79764" lon="1.88073">
        <ele>792.5</ele>
        <time>2026-07-09T10:02:21.000Z</time>
      </trkpt>
      <trkpt lat="45.79764" lon="1.88073">
        <ele>791.9</ele>
        <time>2026-07-09T10:02:22.000Z</time>
      </trkpt>
      <trkpt lat="45.79763" lon="1.88073">
        <ele>791.7</ele>
        <time>2026-07-09T10:02:23.000Z</time>
      </trkpt>
      <trkpt lat="45.79762" lon="1.88074">
        <ele>791.8</ele>
        <time>2026-07-09T10:02:24.000Z</time>
      </trkpt>
      <trkpt lat="45.79762" lon="1.88075">
        <ele>791.8</ele>
        <time>2026-07-09T10:02:25.000Z</time>
      </trkpt>
      <trkpt lat="45.79762" lon="1.88075">
        <ele>791.6</ele>
        <time>2026-07-09T10:02:26.000Z</time>
      </trkpt>
      <trkpt lat="45.79762" lon="1.88075">
        <ele>791.5</ele>
        <time>2026-07-09T10:02:27.000Z</time>
      </trkpt>
      <trkpt lat="45.79762" lon="1.88075">
        <ele>791.6</ele>
        <time>2026-07-09T10:02:28.000Z</time>
      </trkpt>
      <trkpt lat="45.79762" lon="1.88075">
        <ele>791.6</ele>
        <time>2026-07-09T10:02:29.000Z</time>
      </trkpt>
      <trkpt lat="45.79762" lon="1.88075">
        <ele>791.6</ele>
        <time>2026-07-09T10:02:30.000Z</time>
      </trkpt>
      <trkpt lat="45.79762" lon="1.88075">
        <ele>791.6</ele>
        <time>2026-07-09T10:02:31.000Z</time>
      </trkpt>
      <trkpt lat="45.79762" lon="1.88075">
        <ele>791.4</ele>
        <time>2026-07-09T10:02:32.000Z</time>
      </trkpt>
      <trkpt lat="45.79762" lon="1.88075">
        <ele>791</ele>
        <time>2026-07-09T10:02:33.000Z</time>
      </trkpt>
      <trkpt lat="45.79762" lon="1.88074">
        <ele>791.4</ele>
        <time>2026-07-09T10:02:34.000Z</time>
      </trkpt>
      <trkpt lat="45.79762" lon="1.88074">
        <ele>791.1</ele>
        <time>2026-07-09T10:02:35.000Z</time>
      </trkpt>
      <trkpt lat="45.79762" lon="1.88074">
        <ele>791.2</ele>
        <time>2026-07-09T10:02:36.000Z</time>
      </trkpt>
      <trkpt lat="45.79762" lon="1.88074">
        <ele>791</ele>
        <time>2026-07-09T10:02:37.000Z</time>
      </trkpt>
      <trkpt lat="45.79762" lon="1.88073">
        <ele>790.9</ele>
        <time>2026-07-09T10:02:38.000Z</time>
      </trkpt>
      <trkpt lat="45.79762" lon="1.88073">
        <ele>791.1</ele>
        <time>2026-07-09T10:02:39.000Z</time>
      </trkpt>
      <trkpt lat="45.79762" lon="1.88073">
        <ele>791.1</ele>
        <time>2026-07-09T10:02:40.000Z</time>
      </trkpt>
      <trkpt lat="45.79762" lon="1.88073">
        <ele>791.1</ele>
        <time>2026-07-09T10:02:41.000Z</time>
      </trkpt>
      <trkpt lat="45.79762" lon="1.88073">
        <ele>791.1</ele>
        <time>2026-07-09T10:02:42.000Z</time>
      </trkpt>
      <trkpt lat="45.79762" lon="1.88073">
        <ele>791.1</ele>
        <time>2026-07-09T10:02:43.000Z</time>
      </trkpt>
      <trkpt lat="45.79762" lon="1.88073">
        <ele>791.1</ele>
        <time>2026-07-09T10:02:44.000Z</time>
      </trkpt>
      <trkpt lat="45.79762" lon="1.88073">
        <ele>791</ele>
        <time>2026-07-09T10:02:45.000Z</time>
      </trkpt>
      <trkpt lat="45.79762" lon="1.88073">
        <ele>791</ele>
        <time>2026-07-09T10:02:46.000Z</time>
      </trkpt>
      <trkpt lat="45.79762" lon="1.88073">
        <ele>791</ele>
        <time>2026-07-09T10:02:47.000Z</time>
      </trkpt>
      <trkpt lat="45.79761" lon="1.88073">
        <ele>790.7</ele>
        <time>2026-07-09T10:02:48.000Z</time>
      </trkpt>
      <trkpt lat="45.79761" lon="1.88073">
        <ele>790.9</ele>
        <time>2026-07-09T10:02:49.000Z</time>
      </trkpt>
      <trkpt lat="45.79761" lon="1.88073">
        <ele>791.1</ele>
        <time>2026-07-09T10:02:50.000Z</time>
      </trkpt>
      <trkpt lat="45.79761" lon="1.88073">
        <ele>791.2</ele>
        <time>2026-07-09T10:02:51.000Z</time>
      </trkpt>
      <trkpt lat="45.79762" lon="1.88073">
        <ele>791</ele>
        <time>2026-07-09T10:02:52.000Z</time>
      </trkpt>
      <trkpt lat="45.79764" lon="1.88073">
        <ele>791.2</ele>
        <time>2026-07-09T10:02:53.000Z</time>
      </trkpt>
      <trkpt lat="45.79765" lon="1.88073">
        <ele>791.3</ele>
        <time>2026-07-09T10:02:54.000Z</time>
      </trkpt>
      <trkpt lat="45.79766" lon="1.88073">
        <ele>791.3</ele>
        <time>2026-07-09T10:02:55.000Z</time>
      </trkpt>
      <trkpt lat="45.79767" lon="1.88072">
        <ele>791.3</ele>
        <time>2026-07-09T10:02:56.000Z</time>
      </trkpt>
      <trkpt lat="45.79768" lon="1.88071">
        <ele>791.1</ele>
        <time>2026-07-09T10:02:57.000Z</time>
      </trkpt>
      <trkpt lat="45.79769" lon="1.8807">
        <ele>791.4</ele>
        <time>2026-07-09T10:02:58.000Z</time>
      </trkpt>
      <trkpt lat="45.7977" lon="1.8807">
        <ele>791.1</ele>
        <time>2026-07-09T10:02:59.000Z</time>
      </trkpt>
      <trkpt lat="45.7977" lon="1.8807">
        <ele>791.1</ele>
        <time>2026-07-09T10:03:00.000Z</time>
      </trkpt>
      <trkpt lat="45.7977" lon="1.88071">
        <ele>791.1</ele>
        <time>2026-07-09T10:03:01.000Z</time>
      </trkpt>
      <trkpt lat="45.7977" lon="1.88071">
        <ele>791.1</ele>
        <time>2026-07-09T10:03:02.000Z</time>
      </trkpt>
      <trkpt lat="45.7977" lon="1.88071">
        <ele>791.1</ele>
        <time>2026-07-09T10:03:03.000Z</time>
      </trkpt>
      <trkpt lat="45.7977" lon="1.88071">
        <ele>791.1</ele>
        <time>2026-07-09T10:03:04.000Z</time>
      </trkpt>
      <trkpt lat="45.7977" lon="1.88071">
        <ele>791.1</ele>
        <time>2026-07-09T10:03:05.000Z</time>
      </trkpt>
      <trkpt lat="45.79771" lon="1.88072">
        <ele>791</ele>
        <time>2026-07-09T10:03:06.000Z</time>
      </trkpt>
      <trkpt lat="45.79771" lon="1.88074">
        <ele>790.9</ele>
        <time>2026-07-09T10:03:07.000Z</time>
      </trkpt>
      <trkpt lat="45.79771" lon="1.88075">
        <ele>790.9</ele>
        <time>2026-07-09T10:03:08.000Z</time>
      </trkpt>
      <trkpt lat="45.79771" lon="1.88077">
        <ele>791.6</ele>
        <time>2026-07-09T10:03:09.000Z</time>
      </trkpt>
      <trkpt lat="45.79772" lon="1.88078">
        <ele>791.4</ele>
        <time>2026-07-09T10:03:10.000Z</time>
      </trkpt>
      <trkpt lat="45.79772" lon="1.88079">
        <ele>791.3</ele>
        <time>2026-07-09T10:03:11.000Z</time>
      </trkpt>
      <trkpt lat="45.79772" lon="1.8808">
        <ele>791.3</ele>
        <time>2026-07-09T10:03:12.000Z</time>
      </trkpt>
      <trkpt lat="45.79772" lon="1.88082">
        <ele>791.5</ele>
        <time>2026-07-09T10:03:13.000Z</time>
      </trkpt>
      <trkpt lat="45.79772" lon="1.88082">
        <ele>791.9</ele>
        <time>2026-07-09T10:03:14.000Z</time>
      </trkpt>
      <trkpt lat="45.79772" lon="1.88083">
        <ele>791.9</ele>
        <time>2026-07-09T10:03:15.000Z</time>
      </trkpt>
      <trkpt lat="45.79771" lon="1.88083">
        <ele>791.9</ele>
        <time>2026-07-09T10:03:16.000Z</time>
      </trkpt>
      <trkpt lat="45.79771" lon="1.88083">
        <ele>791.9</ele>
        <time>2026-07-09T10:03:17.000Z</time>
      </trkpt>
      <trkpt lat="45.79771" lon="1.88083">
        <ele>791.9</ele>
        <time>2026-07-09T10:03:18.000Z</time>
      </trkpt>
      <trkpt lat="45.79771" lon="1.88083">
        <ele>791.9</ele>
        <time>2026-07-09T10:03:19.000Z</time>
      </trkpt>
      <trkpt lat="45.79771" lon="1.88083">
        <ele>791.9</ele>
        <time>2026-07-09T10:03:20.000Z</time>
      </trkpt>
      <trkpt lat="45.79772" lon="1.88082">
        <ele>791.8</ele>
        <time>2026-07-09T10:03:21.000Z</time>
      </trkpt>
      <trkpt lat="45.79771" lon="1.88082">
        <ele>791.8</ele>
        <time>2026-07-09T10:03:22.000Z</time>
      </trkpt>
      <trkpt lat="45.79771" lon="1.88081">
        <ele>791.8</ele>
        <time>2026-07-09T10:03:23.000Z</time>
      </trkpt>
      <trkpt lat="45.79771" lon="1.88081">
        <ele>791.7</ele>
        <time>2026-07-09T10:03:24.000Z</time>
      </trkpt>
      <trkpt lat="45.79771" lon="1.88081">
        <ele>791.7</ele>
        <time>2026-07-09T10:03:25.000Z</time>
      </trkpt>
      <trkpt lat="45.79771" lon="1.88081">
        <ele>791.7</ele>
        <time>2026-07-09T10:03:26.000Z</time>
      </trkpt>
      <trkpt lat="45.79771" lon="1.88081">
        <ele>791.7</ele>
        <time>2026-07-09T10:03:27.000Z</time>
      </trkpt>
      <trkpt lat="45.79771" lon="1.88081">
        <ele>791.7</ele>
        <time>2026-07-09T10:03:28.000Z</time>
      </trkpt>
      <trkpt lat="45.79771" lon="1.88081">
        <ele>791.7</ele>
        <time>2026-07-09T10:03:29.000Z</time>
      </trkpt>
      <trkpt lat="45.79771" lon="1.8808">
        <ele>791.7</ele>
        <time>2026-07-09T10:03:30.000Z</time>
      </trkpt>
      <trkpt lat="45.79771" lon="1.8808">
        <ele>791.7</ele>
        <time>2026-07-09T10:03:31.000Z</time>
      </trkpt>
      <trkpt lat="45.79771" lon="1.8808">
        <ele>791.7</ele>
        <time>2026-07-09T10:03:32.000Z</time>
      </trkpt>
      <trkpt lat="45.79771" lon="1.8808">
        <ele>791.7</ele>
        <time>2026-07-09T10:03:33.000Z</time>
      </trkpt>
      <trkpt lat="45.79771" lon="1.8808">
        <ele>791.7</ele>
        <time>2026-07-09T10:03:34.000Z</time>
      </trkpt>
      <trkpt lat="45.79771" lon="1.8808">
        <ele>791.7</ele>
        <time>2026-07-09T10:03:35.000Z</time>
      </trkpt>
      <trkpt lat="45.79771" lon="1.8808">
        <ele>791.7</ele>
        <time>2026-07-09T10:03:36.000Z</time>
      </trkpt>
      <trkpt lat="45.79771" lon="1.8808">
        <ele>791.7</ele>
        <time>2026-07-09T10:03:37.000Z</time>
      </trkpt>
      <trkpt lat="45.79771" lon="1.8808">
        <ele>791.9</ele>
        <time>2026-07-09T10:03:38.000Z</time>
      </trkpt>
      <trkpt lat="45.79771" lon="1.8808">
        <ele>791.9</ele>
        <time>2026-07-09T10:03:39.000Z</time>
      </trkpt>
      <trkpt lat="45.79771" lon="1.8808">
        <ele>791.9</ele>
        <time>2026-07-09T10:03:40.000Z</time>
      </trkpt>
      <trkpt lat="45.79771" lon="1.8808">
        <ele>791.9</ele>
        <time>2026-07-09T10:03:41.000Z</time>
      </trkpt>
      <trkpt lat="45.79771" lon="1.8808">
        <ele>792.1</ele>
        <time>2026-07-09T10:03:42.000Z</time>
      </trkpt>
      <trkpt lat="45.79771" lon="1.88081">
        <ele>792.1</ele>
        <time>2026-07-09T10:03:43.000Z</time>
      </trkpt>
      <trkpt lat="45.79771" lon="1.88081">
        <ele>792.1</ele>
        <time>2026-07-09T10:03:44.000Z</time>
      </trkpt>
      <trkpt lat="45.79771" lon="1.88081">
        <ele>792.1</ele>
        <time>2026-07-09T10:03:45.000Z</time>
      </trkpt>
      <trkpt lat="45.79771" lon="1.88081">
        <ele>792.1</ele>
        <time>2026-07-09T10:03:46.000Z</time>
      </trkpt>
      <trkpt lat="45.79771" lon="1.88081">
        <ele>792.1</ele>
        <time>2026-07-09T10:03:47.000Z</time>
      </trkpt>
      <trkpt lat="45.79771" lon="1.88081">
        <ele>792.1</ele>
        <time>2026-07-09T10:03:48.000Z</time>
      </trkpt>
      <trkpt lat="45.79771" lon="1.88081">
        <ele>792.1</ele>
        <time>2026-07-09T10:03:49.000Z</time>
      </trkpt>
      <trkpt lat="45.79771" lon="1.88081">
        <ele>792.1</ele>
        <time>2026-07-09T10:03:50.000Z</time>
      </trkpt>
      <trkpt lat="45.79771" lon="1.88081">
        <ele>792.2</ele>
        <time>2026-07-09T10:03:51.000Z</time>
      </trkpt>
      <trkpt lat="45.79771" lon="1.88081">
        <ele>792.2</ele>
        <time>2026-07-09T10:03:52.000Z</time>
      </trkpt>
      <trkpt lat="45.79771" lon="1.88081">
        <ele>792.2</ele>
        <time>2026-07-09T10:03:53.000Z</time>
      </trkpt>
      <trkpt lat="45.79771" lon="1.88081">
        <ele>792.2</ele>
        <time>2026-07-09T10:03:54.000Z</time>
      </trkpt>
      <trkpt lat="45.79771" lon="1.88081">
        <ele>792.2</ele>
        <time>2026-07-09T10:03:55.000Z</time>
      </trkpt>
      <trkpt lat="45.79771" lon="1.88081">
        <ele>792.2</ele>
        <time>2026-07-09T10:03:56.000Z</time>
      </trkpt>
      <trkpt lat="45.79771" lon="1.88081">
        <ele>792.2</ele>
        <time>2026-07-09T10:03:57.000Z</time>
      </trkpt>
      <trkpt lat="45.79771" lon="1.88081">
        <ele>792.1</ele>
        <time>2026-07-09T10:03:58.000Z</time>
      </trkpt>
      <trkpt lat="45.79771" lon="1.88081">
        <ele>792.1</ele>
        <time>2026-07-09T10:03:59.000Z</time>
      </trkpt>
      <trkpt lat="45.79771" lon="1.88081">
        <ele>792.1</ele>
        <time>2026-07-09T10:04:00.000Z</time>
      </trkpt>
      <trkpt lat="45.79771" lon="1.88081">
        <ele>792.2</ele>
        <time>2026-07-09T10:04:01.000Z</time>
      </trkpt>
      <trkpt lat="45.79771" lon="1.88081">
        <ele>792.1</ele>
        <time>2026-07-09T10:04:02.000Z</time>
      </trkpt>
      <trkpt lat="45.79771" lon="1.88081">
        <ele>792.1</ele>
        <time>2026-07-09T10:04:03.000Z</time>
      </trkpt>
      <trkpt lat="45.79771" lon="1.88081">
        <ele>792.1</ele>
        <time>2026-07-09T10:04:04.000Z</time>
      </trkpt>
      <trkpt lat="45.79771" lon="1.88081">
        <ele>792.1</ele>
        <time>2026-07-09T10:04:05.000Z</time>
      </trkpt>
      <trkpt lat="45.79771" lon="1.88081">
        <ele>792.1</ele>
        <time>2026-07-09T10:04:06.000Z</time>
      </trkpt>
      <trkpt lat="45.79771" lon="1.88081">
        <ele>792.1</ele>
        <time>2026-07-09T10:04:07.000Z</time>
      </trkpt>
      <trkpt lat="45.79771" lon="1.88081">
        <ele>792.1</ele>
        <time>2026-07-09T10:04:08.000Z</time>
      </trkpt>
      <trkpt lat="45.79771" lon="1.88081">
        <ele>792.1</ele>
        <time>2026-07-09T10:04:09.000Z</time>
      </trkpt>
      <trkpt lat="45.7977" lon="1.88081">
        <ele>792.2</ele>
        <time>2026-07-09T10:04:10.000Z</time>
      </trkpt>
      <trkpt lat="45.79769" lon="1.88081">
        <ele>792.3</ele>
        <time>2026-07-09T10:04:11.000Z</time>
      </trkpt>
      <trkpt lat="45.79769" lon="1.8808">
        <ele>792.3</ele>
        <time>2026-07-09T10:04:12.000Z</time>
      </trkpt>
      <trkpt lat="45.79769" lon="1.88079">
        <ele>792.3</ele>
        <time>2026-07-09T10:04:13.000Z</time>
      </trkpt>
      <trkpt lat="45.79768" lon="1.88077">
        <ele>792.6</ele>
        <time>2026-07-09T10:04:14.000Z</time>
      </trkpt>
      <trkpt lat="45.79769" lon="1.88076">
        <ele>792.4</ele>
        <time>2026-07-09T10:04:15.000Z</time>
      </trkpt>
      <trkpt lat="45.79769" lon="1.88074">
        <ele>792.5</ele>
        <time>2026-07-09T10:04:16.000Z</time>
      </trkpt>
      <trkpt lat="45.79769" lon="1.88072">
        <ele>792.5</ele>
        <time>2026-07-09T10:04:17.000Z</time>
      </trkpt>
      <trkpt lat="45.79769" lon="1.8807">
        <ele>792.5</ele>
        <time>2026-07-09T10:04:18.000Z</time>
      </trkpt>
      <trkpt lat="45.79769" lon="1.88069">
        <ele>792.4</ele>
        <time>2026-07-09T10:04:19.000Z</time>
      </trkpt>
      <trkpt lat="45.79768" lon="1.88068">
        <ele>792.4</ele>
        <time>2026-07-09T10:04:20.000Z</time>
      </trkpt>
      <trkpt lat="45.79767" lon="1.88067">
        <ele>792.3</ele>
        <time>2026-07-09T10:04:21.000Z</time>
      </trkpt>
      <trkpt lat="45.79766" lon="1.88067">
        <ele>792.3</ele>
        <time>2026-07-09T10:04:22.000Z</time>
      </trkpt>
      <trkpt lat="45.79766" lon="1.88066">
        <ele>792.2</ele>
        <time>2026-07-09T10:04:23.000Z</time>
      </trkpt>
      <trkpt lat="45.79764" lon="1.88065">
        <ele>792.1</ele>
        <time>2026-07-09T10:04:24.000Z</time>
      </trkpt>
      <trkpt lat="45.79763" lon="1.88064">
        <ele>792</ele>
        <time>2026-07-09T10:04:25.000Z</time>
      </trkpt>
      <trkpt lat="45.79762" lon="1.88063">
        <ele>791.8</ele>
        <time>2026-07-09T10:04:26.000Z</time>
      </trkpt>
      <trkpt lat="45.7976" lon="1.88062">
        <ele>791.8</ele>
        <time>2026-07-09T10:04:27.000Z</time>
      </trkpt>
      <trkpt lat="45.79759" lon="1.88061">
        <ele>791.5</ele>
        <time>2026-07-09T10:04:28.000Z</time>
      </trkpt>
      <trkpt lat="45.79758" lon="1.88061">
        <ele>791.3</ele>
        <time>2026-07-09T10:04:29.000Z</time>
      </trkpt>
      <trkpt lat="45.79756" lon="1.8806">
        <ele>791.3</ele>
        <time>2026-07-09T10:04:30.000Z</time>
      </trkpt>
      <trkpt lat="45.79755" lon="1.88058">
        <ele>791.2</ele>
        <time>2026-07-09T10:04:31.000Z</time>
      </trkpt>
      <trkpt lat="45.79754" lon="1.88057">
        <ele>791.1</ele>
        <time>2026-07-09T10:04:32.000Z</time>
      </trkpt>
      <trkpt lat="45.79753" lon="1.88055">
        <ele>791.1</ele>
        <time>2026-07-09T10:04:33.000Z</time>
      </trkpt>
      <trkpt lat="45.79752" lon="1.88053">
        <ele>790.8</ele>
        <time>2026-07-09T10:04:34.000Z</time>
      </trkpt>
      <trkpt lat="45.79751" lon="1.88052">
        <ele>790.6</ele>
        <time>2026-07-09T10:04:35.000Z</time>
      </trkpt>
      <trkpt lat="45.7975" lon="1.88051">
        <ele>790.7</ele>
        <time>2026-07-09T10:04:36.000Z</time>
      </trkpt>
      <trkpt lat="45.79748" lon="1.8805">
        <ele>790.8</ele>
        <time>2026-07-09T10:04:37.000Z</time>
      </trkpt>
      <trkpt lat="45.79747" lon="1.88049">
        <ele>790.6</ele>
        <time>2026-07-09T10:04:38.000Z</time>
      </trkpt>
      <trkpt lat="45.79746" lon="1.88048">
        <ele>790.4</ele>
        <time>2026-07-09T10:04:39.000Z</time>
      </trkpt>
      <trkpt lat="45.79744" lon="1.88048">
        <ele>790.3</ele>
        <time>2026-07-09T10:04:40.000Z</time>
      </trkpt>
      <trkpt lat="45.79743" lon="1.88048">
        <ele>790.2</ele>
        <time>2026-07-09T10:04:41.000Z</time>
      </trkpt>
      <trkpt lat="45.79741" lon="1.88048">
        <ele>790</ele>
        <time>2026-07-09T10:04:42.000Z</time>
      </trkpt>
      <trkpt lat="45.7974" lon="1.88048">
        <ele>790.2</ele>
        <time>2026-07-09T10:04:43.000Z</time>
      </trkpt>
      <trkpt lat="45.79738" lon="1.88048">
        <ele>790.2</ele>
        <time>2026-07-09T10:04:44.000Z</time>
      </trkpt>
      <trkpt lat="45.79737" lon="1.88048">
        <ele>790.1</ele>
        <time>2026-07-09T10:04:45.000Z</time>
      </trkpt>
      <trkpt lat="45.79735" lon="1.88049">
        <ele>790</ele>
        <time>2026-07-09T10:04:46.000Z</time>
      </trkpt>
      <trkpt lat="45.79733" lon="1.88049">
        <ele>790</ele>
        <time>2026-07-09T10:04:47.000Z</time>
      </trkpt>
      <trkpt lat="45.79732" lon="1.8805">
        <ele>789.8</ele>
        <time>2026-07-09T10:04:48.000Z</time>
      </trkpt>
      <trkpt lat="45.7973" lon="1.8805">
        <ele>789.9</ele>
        <time>2026-07-09T10:04:49.000Z</time>
      </trkpt>
      <trkpt lat="45.79729" lon="1.88051">
        <ele>789.8</ele>
        <time>2026-07-09T10:04:50.000Z</time>
      </trkpt>
      <trkpt lat="45.79728" lon="1.88052">
        <ele>789.6</ele>
        <time>2026-07-09T10:04:51.000Z</time>
      </trkpt>
      <trkpt lat="45.79707" lon="1.88055">
        <ele>788.7</ele>
        <time>2026-07-09T10:05:04.000Z</time>
      </trkpt>
      <trkpt lat="45.79705" lon="1.88053">
        <ele>788.2</ele>
        <time>2026-07-09T10:05:05.000Z</time>
      </trkpt>
      <trkpt lat="45.79703" lon="1.88052">
        <ele>788</ele>
        <time>2026-07-09T10:05:06.000Z</time>
      </trkpt>
      <trkpt lat="45.79702" lon="1.88051">
        <ele>787.6</ele>
        <time>2026-07-09T10:05:07.000Z</time>
      </trkpt>
      <trkpt lat="45.79701" lon="1.8805">
        <ele>787</ele>
        <time>2026-07-09T10:05:08.000Z</time>
      </trkpt>
      <trkpt lat="45.797" lon="1.88049">
        <ele>786.9</ele>
        <time>2026-07-09T10:05:09.000Z</time>
      </trkpt>
      <trkpt lat="45.79698" lon="1.88047">
        <ele>786.6</ele>
        <time>2026-07-09T10:05:10.000Z</time>
      </trkpt>
      <trkpt lat="45.79697" lon="1.88046">
        <ele>786.5</ele>
        <time>2026-07-09T10:05:11.000Z</time>
      </trkpt>
      <trkpt lat="45.79695" lon="1.88045">
        <ele>786.5</ele>
        <time>2026-07-09T10:05:12.000Z</time>
      </trkpt>
      <trkpt lat="45.79694" lon="1.88043">
        <ele>786.5</ele>
        <time>2026-07-09T10:05:13.000Z</time>
      </trkpt>
      <trkpt lat="45.79693" lon="1.88041">
        <ele>786.3</ele>
        <time>2026-07-09T10:05:14.000Z</time>
      </trkpt>
      <trkpt lat="45.79692" lon="1.8804">
        <ele>786.1</ele>
        <time>2026-07-09T10:05:15.000Z</time>
      </trkpt>
      <trkpt lat="45.7969" lon="1.88038">
        <ele>785.9</ele>
        <time>2026-07-09T10:05:16.000Z</time>
      </trkpt>
      <trkpt lat="45.79689" lon="1.88036">
        <ele>785.7</ele>
        <time>2026-07-09T10:05:17.000Z</time>
      </trkpt>
      <trkpt lat="45.79688" lon="1.88034">
        <ele>785.5</ele>
        <time>2026-07-09T10:05:18.000Z</time>
      </trkpt>
      <trkpt lat="45.79687" lon="1.88032">
        <ele>785.6</ele>
        <time>2026-07-09T10:05:19.000Z</time>
      </trkpt>
      <trkpt lat="45.79686" lon="1.8803">
        <ele>785.5</ele>
        <time>2026-07-09T10:05:20.000Z</time>
      </trkpt>
      <trkpt lat="45.79686" lon="1.88027">
        <ele>785.1</ele>
        <time>2026-07-09T10:05:21.000Z</time>
      </trkpt>
      <trkpt lat="45.79685" lon="1.88025">
        <ele>784.8</ele>
        <time>2026-07-09T10:05:22.000Z</time>
      </trkpt>
      <trkpt lat="45.79684" lon="1.88024">
        <ele>784.4</ele>
        <time>2026-07-09T10:05:23.000Z</time>
      </trkpt>
      <trkpt lat="45.79683" lon="1.88022">
        <ele>784.7</ele>
        <time>2026-07-09T10:05:24.000Z</time>
      </trkpt>
      <trkpt lat="45.79682" lon="1.8802">
        <ele>784.5</ele>
        <time>2026-07-09T10:05:25.000Z</time>
      </trkpt>
      <trkpt lat="45.79681" lon="1.88018">
        <ele>784.7</ele>
        <time>2026-07-09T10:05:26.000Z</time>
      </trkpt>
      <trkpt lat="45.7968" lon="1.88016">
        <ele>785.1</ele>
        <time>2026-07-09T10:05:27.000Z</time>
      </trkpt>
      <trkpt lat="45.79678" lon="1.88014">
        <ele>784.6</ele>
        <time>2026-07-09T10:05:28.000Z</time>
      </trkpt>
      <trkpt lat="45.79677" lon="1.88013">
        <ele>784.8</ele>
        <time>2026-07-09T10:05:29.000Z</time>
      </trkpt>
      <trkpt lat="45.79676" lon="1.88011">
        <ele>785.2</ele>
        <time>2026-07-09T10:05:30.000Z</time>
      </trkpt>
      <trkpt lat="45.79676" lon="1.88011">
        <ele>785.1</ele>
        <time>2026-07-09T10:05:31.000Z</time>
      </trkpt>
      <trkpt lat="45.79676" lon="1.88011">
        <ele>785.1</ele>
        <time>2026-07-09T10:05:32.000Z</time>
      </trkpt>
      <trkpt lat="45.79676" lon="1.88011">
        <ele>785.1</ele>
        <time>2026-07-09T10:05:33.000Z</time>
      </trkpt>
      <trkpt lat="45.79676" lon="1.88011">
        <ele>785.1</ele>
        <time>2026-07-09T10:05:34.000Z</time>
      </trkpt>
      <trkpt lat="45.79676" lon="1.88011">
        <ele>785.1</ele>
        <time>2026-07-09T10:05:35.000Z</time>
      </trkpt>
      <trkpt lat="45.79676" lon="1.88011">
        <ele>785.2</ele>
        <time>2026-07-09T10:05:36.000Z</time>
      </trkpt>
      <trkpt lat="45.79676" lon="1.8801">
        <ele>785.2</ele>
        <time>2026-07-09T10:05:37.000Z</time>
      </trkpt>
      <trkpt lat="45.79676" lon="1.8801">
        <ele>785.2</ele>
        <time>2026-07-09T10:05:38.000Z</time>
      </trkpt>
      <trkpt lat="45.79676" lon="1.8801">
        <ele>785.2</ele>
        <time>2026-07-09T10:05:39.000Z</time>
      </trkpt>
      <trkpt lat="45.79676" lon="1.8801">
        <ele>785.2</ele>
        <time>2026-07-09T10:05:40.000Z</time>
      </trkpt>
      <trkpt lat="45.79676" lon="1.8801">
        <ele>785.2</ele>
        <time>2026-07-09T10:05:41.000Z</time>
      </trkpt>
      <trkpt lat="45.79676" lon="1.8801">
        <ele>785.2</ele>
        <time>2026-07-09T10:05:42.000Z</time>
      </trkpt>
      <trkpt lat="45.79676" lon="1.8801">
        <ele>785.3</ele>
        <time>2026-07-09T10:05:43.000Z</time>
      </trkpt>
      <trkpt lat="45.79676" lon="1.8801">
        <ele>785.7</ele>
        <time>2026-07-09T10:05:44.000Z</time>
      </trkpt>
      <trkpt lat="45.79676" lon="1.88009">
        <ele>785.7</ele>
        <time>2026-07-09T10:05:45.000Z</time>
      </trkpt>
      <trkpt lat="45.79677" lon="1.88009">
        <ele>785.7</ele>
        <time>2026-07-09T10:05:46.000Z</time>
      </trkpt>
      <trkpt lat="45.79677" lon="1.88009">
        <ele>785.7</ele>
        <time>2026-07-09T10:05:47.000Z</time>
      </trkpt>
      <trkpt lat="45.79677" lon="1.88009">
        <ele>785.7</ele>
        <time>2026-07-09T10:05:48.000Z</time>
      </trkpt>
      <trkpt lat="45.79677" lon="1.88009">
        <ele>785.7</ele>
        <time>2026-07-09T10:05:49.000Z</time>
      </trkpt>
      <trkpt lat="45.79677" lon="1.88009">
        <ele>785.7</ele>
        <time>2026-07-09T10:05:50.000Z</time>
      </trkpt>
      <trkpt lat="45.79677" lon="1.88009">
        <ele>785.7</ele>
        <time>2026-07-09T10:05:51.000Z</time>
      </trkpt>
      <trkpt lat="45.79677" lon="1.88009">
        <ele>785.7</ele>
        <time>2026-07-09T10:05:52.000Z</time>
      </trkpt>
      <trkpt lat="45.79677" lon="1.88009">
        <ele>785.7</ele>
        <time>2026-07-09T10:05:53.000Z</time>
      </trkpt>
      <trkpt lat="45.79677" lon="1.88009">
        <ele>785.7</ele>
        <time>2026-07-09T10:05:54.000Z</time>
      </trkpt>
      <trkpt lat="45.79677" lon="1.88009">
        <ele>785.7</ele>
        <time>2026-07-09T10:05:55.000Z</time>
      </trkpt>
      <trkpt lat="45.79677" lon="1.88009">
        <ele>785.7</ele>
        <time>2026-07-09T10:05:56.000Z</time>
      </trkpt>
      <trkpt lat="45.79677" lon="1.88009">
        <ele>785.7</ele>
        <time>2026-07-09T10:05:57.000Z</time>
      </trkpt>
      <trkpt lat="45.79676" lon="1.88007">
        <ele>786.3</ele>
        <time>2026-07-09T10:05:58.000Z</time>
      </trkpt>
      <trkpt lat="45.79675" lon="1.88006">
        <ele>786.2</ele>
        <time>2026-07-09T10:05:59.000Z</time>
      </trkpt>
      <trkpt lat="45.79675" lon="1.88006">
        <ele>786.2</ele>
        <time>2026-07-09T10:06:00.000Z</time>
      </trkpt>
      <trkpt lat="45.79676" lon="1.88006">
        <ele>786.5</ele>
        <time>2026-07-09T10:06:01.000Z</time>
      </trkpt>
      <trkpt lat="45.79676" lon="1.88007">
        <ele>786.3</ele>
        <time>2026-07-09T10:06:02.000Z</time>
      </trkpt>
      <trkpt lat="45.79676" lon="1.88007">
        <ele>786.4</ele>
        <time>2026-07-09T10:06:03.000Z</time>
      </trkpt>
      <trkpt lat="45.79676" lon="1.88006">
        <ele>786.3</ele>
        <time>2026-07-09T10:06:04.000Z</time>
      </trkpt>
      <trkpt lat="45.79676" lon="1.88005">
        <ele>787.5</ele>
        <time>2026-07-09T10:06:05.000Z</time>
      </trkpt>
      <trkpt lat="45.79676" lon="1.88003">
        <ele>788</ele>
        <time>2026-07-09T10:06:06.000Z</time>
      </trkpt>
      <trkpt lat="45.79675" lon="1.88001">
        <ele>788.4</ele>
        <time>2026-07-09T10:06:07.000Z</time>
      </trkpt>
      <trkpt lat="45.79675" lon="1.87999">
        <ele>788.2</ele>
        <time>2026-07-09T10:06:08.000Z</time>
      </trkpt>
      <trkpt lat="45.79675" lon="1.87998">
        <ele>787.8</ele>
        <time>2026-07-09T10:06:09.000Z</time>
      </trkpt>
      <trkpt lat="45.79675" lon="1.87997">
        <ele>787.1</ele>
        <time>2026-07-09T10:06:10.000Z</time>
      </trkpt>
      <trkpt lat="45.79675" lon="1.87997">
        <ele>787</ele>
        <time>2026-07-09T10:06:11.000Z</time>
      </trkpt>
      <trkpt lat="45.79675" lon="1.87997">
        <ele>787.1</ele>
        <time>2026-07-09T10:06:12.000Z</time>
      </trkpt>
      <trkpt lat="45.79674" lon="1.87997">
        <ele>787.3</ele>
        <time>2026-07-09T10:06:13.000Z</time>
      </trkpt>
      <trkpt lat="45.79674" lon="1.87998">
        <ele>787.3</ele>
        <time>2026-07-09T10:06:14.000Z</time>
      </trkpt>
      <trkpt lat="45.79673" lon="1.88">
        <ele>786.6</ele>
        <time>2026-07-09T10:06:15.000Z</time>
      </trkpt>
      <trkpt lat="45.79673" lon="1.88001">
        <ele>785.5</ele>
        <time>2026-07-09T10:06:16.000Z</time>
      </trkpt>
      <trkpt lat="45.79672" lon="1.88003">
        <ele>784.7</ele>
        <time>2026-07-09T10:06:17.000Z</time>
      </trkpt>
      <trkpt lat="45.79672" lon="1.88004">
        <ele>784.2</ele>
        <time>2026-07-09T10:06:18.000Z</time>
      </trkpt>
      <trkpt lat="45.79672" lon="1.88004">
        <ele>786</ele>
        <time>2026-07-09T10:06:19.000Z</time>
      </trkpt>
      <trkpt lat="45.79673" lon="1.88006">
        <ele>786</ele>
        <time>2026-07-09T10:06:20.000Z</time>
      </trkpt>
      <trkpt lat="45.79673" lon="1.88006">
        <ele>785.7</ele>
        <time>2026-07-09T10:06:21.000Z</time>
      </trkpt>
      <trkpt lat="45.79673" lon="1.88006">
        <ele>785.4</ele>
        <time>2026-07-09T10:06:22.000Z</time>
      </trkpt>
      <trkpt lat="45.79673" lon="1.88006">
        <ele>785</ele>
        <time>2026-07-09T10:06:23.000Z</time>
      </trkpt>
      <trkpt lat="45.79673" lon="1.88005">
        <ele>785</ele>
        <time>2026-07-09T10:06:24.000Z</time>
      </trkpt>
      <trkpt lat="45.79673" lon="1.88005">
        <ele>785</ele>
        <time>2026-07-09T10:06:25.000Z</time>
      </trkpt>
      <trkpt lat="45.79673" lon="1.88005">
        <ele>785</ele>
        <time>2026-07-09T10:06:26.000Z</time>
      </trkpt>
      <trkpt lat="45.79673" lon="1.88005">
        <ele>785</ele>
        <time>2026-07-09T10:06:27.000Z</time>
      </trkpt>
      <trkpt lat="45.79673" lon="1.88005">
        <ele>785</ele>
        <time>2026-07-09T10:06:28.000Z</time>
      </trkpt>
      <trkpt lat="45.79673" lon="1.88005">
        <ele>785</ele>
        <time>2026-07-09T10:06:29.000Z</time>
      </trkpt>
      <trkpt lat="45.79673" lon="1.88005">
        <ele>785</ele>
        <time>2026-07-09T10:06:30.000Z</time>
      </trkpt>
      <trkpt lat="45.79674" lon="1.88005">
        <ele>784.1</ele>
        <time>2026-07-09T10:06:31.000Z</time>
      </trkpt>
      <trkpt lat="45.79675" lon="1.88004">
        <ele>785.3</ele>
        <time>2026-07-09T10:06:32.000Z</time>
      </trkpt>
      <trkpt lat="45.79676" lon="1.88003">
        <ele>785.2</ele>
        <time>2026-07-09T10:06:33.000Z</time>
      </trkpt>
      <trkpt lat="45.79676" lon="1.88003">
        <ele>786.3</ele>
        <time>2026-07-09T10:06:34.000Z</time>
      </trkpt>
      <trkpt lat="45.79676" lon="1.88002">
        <ele>786.4</ele>
        <time>2026-07-09T10:06:35.000Z</time>
      </trkpt>
      <trkpt lat="45.79676" lon="1.88001">
        <ele>785.5</ele>
        <time>2026-07-09T10:06:36.000Z</time>
      </trkpt>
      <trkpt lat="45.79675" lon="1.88002">
        <ele>785.3</ele>
        <time>2026-07-09T10:06:37.000Z</time>
      </trkpt>
      <trkpt lat="45.79673" lon="1.88002">
        <ele>784.4</ele>
        <time>2026-07-09T10:06:38.000Z</time>
      </trkpt>
      <trkpt lat="45.79672" lon="1.88003">
        <ele>784</ele>
        <time>2026-07-09T10:06:39.000Z</time>
      </trkpt>
      <trkpt lat="45.79671" lon="1.88004">
        <ele>784.4</ele>
        <time>2026-07-09T10:06:40.000Z</time>
      </trkpt>
      <trkpt lat="45.79669" lon="1.88003">
        <ele>784.8</ele>
        <time>2026-07-09T10:06:41.000Z</time>
      </trkpt>
      <trkpt lat="45.79668" lon="1.88003">
        <ele>783.8</ele>
        <time>2026-07-09T10:06:42.000Z</time>
      </trkpt>
      <trkpt lat="45.79667" lon="1.88002">
        <ele>783.7</ele>
        <time>2026-07-09T10:06:43.000Z</time>
      </trkpt>
      <trkpt lat="45.79667" lon="1.88002">
        <ele>784.4</ele>
        <time>2026-07-09T10:06:44.000Z</time>
      </trkpt>
      <trkpt lat="45.79667" lon="1.88002">
        <ele>784.2</ele>
        <time>2026-07-09T10:06:45.000Z</time>
      </trkpt>
      <trkpt lat="45.79666" lon="1.88002">
        <ele>784</ele>
        <time>2026-07-09T10:06:46.000Z</time>
      </trkpt>
      <trkpt lat="45.79666" lon="1.88002">
        <ele>784</ele>
        <time>2026-07-09T10:06:47.000Z</time>
      </trkpt>
      <trkpt lat="45.79666" lon="1.88002">
        <ele>784</ele>
        <time>2026-07-09T10:06:48.000Z</time>
      </trkpt>
      <trkpt lat="45.79666" lon="1.88002">
        <ele>784</ele>
        <time>2026-07-09T10:06:49.000Z</time>
      </trkpt>
      <trkpt lat="45.79666" lon="1.88002">
        <ele>784</ele>
        <time>2026-07-09T10:06:50.000Z</time>
      </trkpt>
      <trkpt lat="45.79666" lon="1.88002">
        <ele>784.1</ele>
        <time>2026-07-09T10:06:51.000Z</time>
      </trkpt>
      <trkpt lat="45.79666" lon="1.88002">
        <ele>783.9</ele>
        <time>2026-07-09T10:06:52.000Z</time>
      </trkpt>
      <trkpt lat="45.79667" lon="1.88003">
        <ele>783.5</ele>
        <time>2026-07-09T10:06:53.000Z</time>
      </trkpt>
      <trkpt lat="45.79667" lon="1.88003">
        <ele>783.5</ele>
        <time>2026-07-09T10:06:54.000Z</time>
      </trkpt>
      <trkpt lat="45.79668" lon="1.88004">
        <ele>783.2</ele>
        <time>2026-07-09T10:06:55.000Z</time>
      </trkpt>
      <trkpt lat="45.79668" lon="1.88004">
        <ele>783.2</ele>
        <time>2026-07-09T10:06:56.000Z</time>
      </trkpt>
      <trkpt lat="45.79669" lon="1.88004">
        <ele>782.8</ele>
        <time>2026-07-09T10:06:57.000Z</time>
      </trkpt>
      <trkpt lat="45.79669" lon="1.88004">
        <ele>782.8</ele>
        <time>2026-07-09T10:06:58.000Z</time>
      </trkpt>
      <trkpt lat="45.79669" lon="1.88005">
        <ele>782.8</ele>
        <time>2026-07-09T10:06:59.000Z</time>
      </trkpt>
      <trkpt lat="45.79669" lon="1.88005">
        <ele>782.8</ele>
        <time>2026-07-09T10:07:00.000Z</time>
      </trkpt>
      <trkpt lat="45.79669" lon="1.88005">
        <ele>782.6</ele>
        <time>2026-07-09T10:07:01.000Z</time>
      </trkpt>
      <trkpt lat="45.7967" lon="1.88005">
        <ele>782.9</ele>
        <time>2026-07-09T10:07:02.000Z</time>
      </trkpt>
      <trkpt lat="45.79671" lon="1.88005">
        <ele>782.7</ele>
        <time>2026-07-09T10:07:03.000Z</time>
      </trkpt>
      <trkpt lat="45.79671" lon="1.88004">
        <ele>782.6</ele>
        <time>2026-07-09T10:07:04.000Z</time>
      </trkpt>
      <trkpt lat="45.7967" lon="1.88004">
        <ele>782.1</ele>
        <time>2026-07-09T10:07:05.000Z</time>
      </trkpt>
      <trkpt lat="45.79669" lon="1.88004">
        <ele>782.2</ele>
        <time>2026-07-09T10:07:06.000Z</time>
      </trkpt>
      <trkpt lat="45.79668" lon="1.88003">
        <ele>781.2</ele>
        <time>2026-07-09T10:07:07.000Z</time>
      </trkpt>
      <trkpt lat="45.79667" lon="1.88003">
        <ele>781.1</ele>
        <time>2026-07-09T10:07:08.000Z</time>
      </trkpt>
      <trkpt lat="45.79665" lon="1.88002">
        <ele>781</ele>
        <time>2026-07-09T10:07:09.000Z</time>
      </trkpt>
      <trkpt lat="45.79663" lon="1.88001">
        <ele>780.5</ele>
        <time>2026-07-09T10:07:10.000Z</time>
      </trkpt>
      <trkpt lat="45.79661" lon="1.88">
        <ele>779.8</ele>
        <time>2026-07-09T10:07:11.000Z</time>
      </trkpt>
      <trkpt lat="45.7966" lon="1.88">
        <ele>780.3</ele>
        <time>2026-07-09T10:07:12.000Z</time>
      </trkpt>
      <trkpt lat="45.79658" lon="1.87999">
        <ele>780.1</ele>
        <time>2026-07-09T10:07:13.000Z</time>
      </trkpt>
      <trkpt lat="45.79657" lon="1.87998">
        <ele>780.5</ele>
        <time>2026-07-09T10:07:14.000Z</time>
      </trkpt>
      <trkpt lat="45.79655" lon="1.87997">
        <ele>781</ele>
        <time>2026-07-09T10:07:15.000Z</time>
      </trkpt>
      <trkpt lat="45.79653" lon="1.87997">
        <ele>780.9</ele>
        <time>2026-07-09T10:07:16.000Z</time>
      </trkpt>
      <trkpt lat="45.79652" lon="1.87996">
        <ele>780.6</ele>
        <time>2026-07-09T10:07:17.000Z</time>
      </trkpt>
      <trkpt lat="45.7965" lon="1.87995">
        <ele>780.2</ele>
        <time>2026-07-09T10:07:18.000Z</time>
      </trkpt>
      <trkpt lat="45.79648" lon="1.87995">
        <ele>779.8</ele>
        <time>2026-07-09T10:07:19.000Z</time>
      </trkpt>
      <trkpt lat="45.79646" lon="1.87994">
        <ele>779.6</ele>
        <time>2026-07-09T10:07:20.000Z</time>
      </trkpt>
      <trkpt lat="45.79645" lon="1.87993">
        <ele>780.1</ele>
        <time>2026-07-09T10:07:21.000Z</time>
      </trkpt>
      <trkpt lat="45.79643" lon="1.87992">
        <ele>780.1</ele>
        <time>2026-07-09T10:07:22.000Z</time>
      </trkpt>
      <trkpt lat="45.79642" lon="1.87991">
        <ele>780</ele>
        <time>2026-07-09T10:07:23.000Z</time>
      </trkpt>
      <trkpt lat="45.7964" lon="1.8799">
        <ele>779.9</ele>
        <time>2026-07-09T10:07:24.000Z</time>
      </trkpt>
      <trkpt lat="45.79638" lon="1.87989">
        <ele>779.5</ele>
        <time>2026-07-09T10:07:25.000Z</time>
      </trkpt>
      <trkpt lat="45.79637" lon="1.87989">
        <ele>779.5</ele>
        <time>2026-07-09T10:07:26.000Z</time>
      </trkpt>
      <trkpt lat="45.79635" lon="1.87988">
        <ele>779.9</ele>
        <time>2026-07-09T10:07:27.000Z</time>
      </trkpt>
      <trkpt lat="45.79633" lon="1.87987">
        <ele>779.3</ele>
        <time>2026-07-09T10:07:28.000Z</time>
      </trkpt>
      <trkpt lat="45.79631" lon="1.87987">
        <ele>779.1</ele>
        <time>2026-07-09T10:07:29.000Z</time>
      </trkpt>
      <trkpt lat="45.7963" lon="1.87987">
        <ele>779</ele>
        <time>2026-07-09T10:07:30.000Z</time>
      </trkpt>
      <trkpt lat="45.79628" lon="1.87986">
        <ele>779.2</ele>
        <time>2026-07-09T10:07:31.000Z</time>
      </trkpt>
      <trkpt lat="45.79626" lon="1.87985">
        <ele>779.1</ele>
        <time>2026-07-09T10:07:32.000Z</time>
      </trkpt>
      <trkpt lat="45.79625" lon="1.87985">
        <ele>779.2</ele>
        <time>2026-07-09T10:07:33.000Z</time>
      </trkpt>
      <trkpt lat="45.79623" lon="1.87984">
        <ele>779.2</ele>
        <time>2026-07-09T10:07:34.000Z</time>
      </trkpt>
      <trkpt lat="45.79622" lon="1.87983">
        <ele>779</ele>
        <time>2026-07-09T10:07:35.000Z</time>
      </trkpt>
      <trkpt lat="45.7962" lon="1.87983">
        <ele>779.1</ele>
        <time>2026-07-09T10:07:36.000Z</time>
      </trkpt>
      <trkpt lat="45.79618" lon="1.87982">
        <ele>779.8</ele>
        <time>2026-07-09T10:07:37.000Z</time>
      </trkpt>
      <trkpt lat="45.79617" lon="1.87981">
        <ele>779.8</ele>
        <time>2026-07-09T10:07:38.000Z</time>
      </trkpt>
      <trkpt lat="45.79615" lon="1.8798">
        <ele>780</ele>
        <time>2026-07-09T10:07:39.000Z</time>
      </trkpt>
      <trkpt lat="45.79613" lon="1.87979">
        <ele>780.4</ele>
        <time>2026-07-09T10:07:40.000Z</time>
      </trkpt>
      <trkpt lat="45.79612" lon="1.87979">
        <ele>780.4</ele>
        <time>2026-07-09T10:07:41.000Z</time>
      </trkpt>
      <trkpt lat="45.7961" lon="1.87978">
        <ele>779.9</ele>
        <time>2026-07-09T10:07:42.000Z</time>
      </trkpt>
      <trkpt lat="45.79608" lon="1.87978">
        <ele>780.2</ele>
        <time>2026-07-09T10:07:43.000Z</time>
      </trkpt>
      <trkpt lat="45.79606" lon="1.87978">
        <ele>779.8</ele>
        <time>2026-07-09T10:07:44.000Z</time>
      </trkpt>
      <trkpt lat="45.79605" lon="1.87977">
        <ele>780.1</ele>
        <time>2026-07-09T10:07:45.000Z</time>
      </trkpt>
      <trkpt lat="45.79603" lon="1.87977">
        <ele>780.1</ele>
        <time>2026-07-09T10:07:46.000Z</time>
      </trkpt>
      <trkpt lat="45.79601" lon="1.87976">
        <ele>780</ele>
        <time>2026-07-09T10:07:47.000Z</time>
      </trkpt>
      <trkpt lat="45.79599" lon="1.87976">
        <ele>780</ele>
        <time>2026-07-09T10:07:48.000Z</time>
      </trkpt>
      <trkpt lat="45.79598" lon="1.87976">
        <ele>780</ele>
        <time>2026-07-09T10:07:49.000Z</time>
      </trkpt>
      <trkpt lat="45.79596" lon="1.87976">
        <ele>779.8</ele>
        <time>2026-07-09T10:07:50.000Z</time>
      </trkpt>
      <trkpt lat="45.79595" lon="1.87976">
        <ele>780.2</ele>
        <time>2026-07-09T10:07:51.000Z</time>
      </trkpt>
      <trkpt lat="45.79593" lon="1.87976">
        <ele>779.9</ele>
        <time>2026-07-09T10:07:52.000Z</time>
      </trkpt>
      <trkpt lat="45.79591" lon="1.87976">
        <ele>779.9</ele>
        <time>2026-07-09T10:07:53.000Z</time>
      </trkpt>
      <trkpt lat="45.79589" lon="1.87976">
        <ele>780.2</ele>
        <time>2026-07-09T10:07:54.000Z</time>
      </trkpt>
      <trkpt lat="45.79588" lon="1.87976">
        <ele>779.8</ele>
        <time>2026-07-09T10:07:55.000Z</time>
      </trkpt>
      <trkpt lat="45.79586" lon="1.87976">
        <ele>779.9</ele>
        <time>2026-07-09T10:07:56.000Z</time>
      </trkpt>
      <trkpt lat="45.79584" lon="1.87976">
        <ele>779.6</ele>
        <time>2026-07-09T10:07:57.000Z</time>
      </trkpt>
      <trkpt lat="45.79583" lon="1.87976">
        <ele>779.6</ele>
        <time>2026-07-09T10:07:58.000Z</time>
      </trkpt>
      <trkpt lat="45.79581" lon="1.87976">
        <ele>779.3</ele>
        <time>2026-07-09T10:07:59.000Z</time>
      </trkpt>
      <trkpt lat="45.79579" lon="1.87976">
        <ele>779.1</ele>
        <time>2026-07-09T10:08:00.000Z</time>
      </trkpt>
      <trkpt lat="45.79578" lon="1.87977">
        <ele>778.6</ele>
        <time>2026-07-09T10:08:01.000Z</time>
      </trkpt>
      <trkpt lat="45.79576" lon="1.87977">
        <ele>778.9</ele>
        <time>2026-07-09T10:08:02.000Z</time>
      </trkpt>
      <trkpt lat="45.79574" lon="1.87977">
        <ele>778.7</ele>
        <time>2026-07-09T10:08:03.000Z</time>
      </trkpt>
      <trkpt lat="45.79572" lon="1.87977">
        <ele>778.5</ele>
        <time>2026-07-09T10:08:04.000Z</time>
      </trkpt>
      <trkpt lat="45.7957" lon="1.87977">
        <ele>777.9</ele>
        <time>2026-07-09T10:08:05.000Z</time>
      </trkpt>
      <trkpt lat="45.79569" lon="1.87978">
        <ele>778</ele>
        <time>2026-07-09T10:08:06.000Z</time>
      </trkpt>
      <trkpt lat="45.79567" lon="1.87979">
        <ele>778</ele>
        <time>2026-07-09T10:08:07.000Z</time>
      </trkpt>
      <trkpt lat="45.79566" lon="1.8798">
        <ele>777.9</ele>
        <time>2026-07-09T10:08:08.000Z</time>
      </trkpt>
      <trkpt lat="45.79564" lon="1.87982">
        <ele>778.1</ele>
        <time>2026-07-09T10:08:09.000Z</time>
      </trkpt>
      <trkpt lat="45.79562" lon="1.87983">
        <ele>778.5</ele>
        <time>2026-07-09T10:08:10.000Z</time>
      </trkpt>
      <trkpt lat="45.7956" lon="1.87985">
        <ele>778.4</ele>
        <time>2026-07-09T10:08:11.000Z</time>
      </trkpt>
      <trkpt lat="45.79559" lon="1.87987">
        <ele>778.8</ele>
        <time>2026-07-09T10:08:12.000Z</time>
      </trkpt>
      <trkpt lat="45.79558" lon="1.87988">
        <ele>777.9</ele>
        <time>2026-07-09T10:08:13.000Z</time>
      </trkpt>
      <trkpt lat="45.79556" lon="1.8799">
        <ele>777.9</ele>
        <time>2026-07-09T10:08:14.000Z</time>
      </trkpt>
      <trkpt lat="45.79555" lon="1.87991">
        <ele>778.1</ele>
        <time>2026-07-09T10:08:15.000Z</time>
      </trkpt>
      <trkpt lat="45.79554" lon="1.87993">
        <ele>778.6</ele>
        <time>2026-07-09T10:08:16.000Z</time>
      </trkpt>
      <trkpt lat="45.79553" lon="1.87995">
        <ele>779.1</ele>
        <time>2026-07-09T10:08:17.000Z</time>
      </trkpt>
      <trkpt lat="45.79553" lon="1.87997">
        <ele>777.7</ele>
        <time>2026-07-09T10:08:18.000Z</time>
      </trkpt>
      <trkpt lat="45.79552" lon="1.88">
        <ele>778.3</ele>
        <time>2026-07-09T10:08:19.000Z</time>
      </trkpt>
      <trkpt lat="45.79551" lon="1.88002">
        <ele>777.8</ele>
        <time>2026-07-09T10:08:20.000Z</time>
      </trkpt>
      <trkpt lat="45.7955" lon="1.88004">
        <ele>777.3</ele>
        <time>2026-07-09T10:08:21.000Z</time>
      </trkpt>
      <trkpt lat="45.7955" lon="1.88006">
        <ele>776.6</ele>
        <time>2026-07-09T10:08:22.000Z</time>
      </trkpt>
      <trkpt lat="45.7955" lon="1.88008">
        <ele>776</ele>
        <time>2026-07-09T10:08:23.000Z</time>
      </trkpt>
      <trkpt lat="45.7955" lon="1.88011">
        <ele>775.4</ele>
        <time>2026-07-09T10:08:24.000Z</time>
      </trkpt>
      <trkpt lat="45.7955" lon="1.88013">
        <ele>774.8</ele>
        <time>2026-07-09T10:08:25.000Z</time>
      </trkpt>
      <trkpt lat="45.79549" lon="1.88016">
        <ele>774.6</ele>
        <time>2026-07-09T10:08:26.000Z</time>
      </trkpt>
      <trkpt lat="45.79549" lon="1.88018">
        <ele>774.2</ele>
        <time>2026-07-09T10:08:27.000Z</time>
      </trkpt>
      <trkpt lat="45.79548" lon="1.8802">
        <ele>774.4</ele>
        <time>2026-07-09T10:08:28.000Z</time>
      </trkpt>
      <trkpt lat="45.79548" lon="1.88023">
        <ele>774</ele>
        <time>2026-07-09T10:08:29.000Z</time>
      </trkpt>
      <trkpt lat="45.79548" lon="1.88025">
        <ele>774</ele>
        <time>2026-07-09T10:08:30.000Z</time>
      </trkpt>
      <trkpt lat="45.79548" lon="1.88028">
        <ele>773.8</ele>
        <time>2026-07-09T10:08:31.000Z</time>
      </trkpt>
      <trkpt lat="45.79548" lon="1.8803">
        <ele>773.2</ele>
        <time>2026-07-09T10:08:32.000Z</time>
      </trkpt>
      <trkpt lat="45.79548" lon="1.88032">
        <ele>772.3</ele>
        <time>2026-07-09T10:08:33.000Z</time>
      </trkpt>
      <trkpt lat="45.79548" lon="1.88035">
        <ele>772.3</ele>
        <time>2026-07-09T10:08:34.000Z</time>
      </trkpt>
      <trkpt lat="45.79548" lon="1.88037">
        <ele>772</ele>
        <time>2026-07-09T10:08:35.000Z</time>
      </trkpt>
      <trkpt lat="45.79548" lon="1.88039">
        <ele>771.4</ele>
        <time>2026-07-09T10:08:36.000Z</time>
      </trkpt>
      <trkpt lat="45.79548" lon="1.88042">
        <ele>771.9</ele>
        <time>2026-07-09T10:08:37.000Z</time>
      </trkpt>
      <trkpt lat="45.79548" lon="1.88044">
        <ele>771.9</ele>
        <time>2026-07-09T10:08:38.000Z</time>
      </trkpt>
      <trkpt lat="45.79549" lon="1.88046">
        <ele>771.7</ele>
        <time>2026-07-09T10:08:39.000Z</time>
      </trkpt>
      <trkpt lat="45.79549" lon="1.88048">
        <ele>772.2</ele>
        <time>2026-07-09T10:08:40.000Z</time>
      </trkpt>
      <trkpt lat="45.7955" lon="1.88051">
        <ele>772.5</ele>
        <time>2026-07-09T10:08:41.000Z</time>
      </trkpt>
      <trkpt lat="45.79551" lon="1.88053">
        <ele>772.4</ele>
        <time>2026-07-09T10:08:42.000Z</time>
      </trkpt>
      <trkpt lat="45.79551" lon="1.88054">
        <ele>772.9</ele>
        <time>2026-07-09T10:08:43.000Z</time>
      </trkpt>
      <trkpt lat="45.79552" lon="1.88056">
        <ele>772.8</ele>
        <time>2026-07-09T10:08:44.000Z</time>
      </trkpt>
      <trkpt lat="45.79552" lon="1.88058">
        <ele>772.4</ele>
        <time>2026-07-09T10:08:45.000Z</time>
      </trkpt>
      <trkpt lat="45.79553" lon="1.88061">
        <ele>772.2</ele>
        <time>2026-07-09T10:08:46.000Z</time>
      </trkpt>
      <trkpt lat="45.79554" lon="1.88063">
        <ele>771.9</ele>
        <time>2026-07-09T10:08:47.000Z</time>
      </trkpt>
      <trkpt lat="45.79554" lon="1.88064">
        <ele>771.8</ele>
        <time>2026-07-09T10:08:48.000Z</time>
      </trkpt>
      <trkpt lat="45.79555" lon="1.88066">
        <ele>771.8</ele>
        <time>2026-07-09T10:08:49.000Z</time>
      </trkpt>
      <trkpt lat="45.79556" lon="1.88069">
        <ele>772</ele>
        <time>2026-07-09T10:08:50.000Z</time>
      </trkpt>
      <trkpt lat="45.79557" lon="1.88071">
        <ele>772.1</ele>
        <time>2026-07-09T10:08:51.000Z</time>
      </trkpt>
      <trkpt lat="45.79557" lon="1.88073">
        <ele>772.1</ele>
        <time>2026-07-09T10:08:52.000Z</time>
      </trkpt>
      <trkpt lat="45.79558" lon="1.88075">
        <ele>772.1</ele>
        <time>2026-07-09T10:08:53.000Z</time>
      </trkpt>
      <trkpt lat="45.79559" lon="1.88076">
        <ele>772.5</ele>
        <time>2026-07-09T10:08:54.000Z</time>
      </trkpt>
      <trkpt lat="45.7956" lon="1.88078">
        <ele>772.5</ele>
        <time>2026-07-09T10:08:55.000Z</time>
      </trkpt>
      <trkpt lat="45.79561" lon="1.88079">
        <ele>772.3</ele>
        <time>2026-07-09T10:08:56.000Z</time>
      </trkpt>
      <trkpt lat="45.79562" lon="1.88081">
        <ele>772.4</ele>
        <time>2026-07-09T10:08:57.000Z</time>
      </trkpt>
      <trkpt lat="45.79563" lon="1.88084">
        <ele>772.6</ele>
        <time>2026-07-09T10:08:58.000Z</time>
      </trkpt>
      <trkpt lat="45.79563" lon="1.88085">
        <ele>772.4</ele>
        <time>2026-07-09T10:08:59.000Z</time>
      </trkpt>
      <trkpt lat="45.79564" lon="1.88087">
        <ele>772.5</ele>
        <time>2026-07-09T10:09:00.000Z</time>
      </trkpt>
      <trkpt lat="45.79565" lon="1.88089">
        <ele>772.4</ele>
        <time>2026-07-09T10:09:01.000Z</time>
      </trkpt>
      <trkpt lat="45.79566" lon="1.8809">
        <ele>772.7</ele>
        <time>2026-07-09T10:09:02.000Z</time>
      </trkpt>
      <trkpt lat="45.79567" lon="1.88092">
        <ele>772.4</ele>
        <time>2026-07-09T10:09:03.000Z</time>
      </trkpt>
      <trkpt lat="45.79568" lon="1.88093">
        <ele>772.3</ele>
        <time>2026-07-09T10:09:04.000Z</time>
      </trkpt>
      <trkpt lat="45.79569" lon="1.88094">
        <ele>772.4</ele>
        <time>2026-07-09T10:09:05.000Z</time>
      </trkpt>
      <trkpt lat="45.7957" lon="1.88096">
        <ele>772.9</ele>
        <time>2026-07-09T10:09:06.000Z</time>
      </trkpt>
      <trkpt lat="45.7957" lon="1.88098">
        <ele>772.9</ele>
        <time>2026-07-09T10:09:07.000Z</time>
      </trkpt>
      <trkpt lat="45.79571" lon="1.881">
        <ele>772.9</ele>
        <time>2026-07-09T10:09:08.000Z</time>
      </trkpt>
      <trkpt lat="45.7957" lon="1.88103">
        <ele>773.6</ele>
        <time>2026-07-09T10:09:09.000Z</time>
      </trkpt>
      <trkpt lat="45.79569" lon="1.88104">
        <ele>773.8</ele>
        <time>2026-07-09T10:09:10.000Z</time>
      </trkpt>
      <trkpt lat="45.79567" lon="1.88105">
        <ele>773.6</ele>
        <time>2026-07-09T10:09:11.000Z</time>
      </trkpt>
      <trkpt lat="45.79566" lon="1.88106">
        <ele>773.2</ele>
        <time>2026-07-09T10:09:12.000Z</time>
      </trkpt>
      <trkpt lat="45.79566" lon="1.88106">
        <ele>773.1</ele>
        <time>2026-07-09T10:09:13.000Z</time>
      </trkpt>
      <trkpt lat="45.79566" lon="1.88106">
        <ele>773.1</ele>
        <time>2026-07-09T10:09:14.000Z</time>
      </trkpt>
      <trkpt lat="45.79566" lon="1.88106">
        <ele>773.6</ele>
        <time>2026-07-09T10:09:15.000Z</time>
      </trkpt>
      <trkpt lat="45.79566" lon="1.88108">
        <ele>774.4</ele>
        <time>2026-07-09T10:09:16.000Z</time>
      </trkpt>
      <trkpt lat="45.79565" lon="1.8811">
        <ele>774.2</ele>
        <time>2026-07-09T10:09:17.000Z</time>
      </trkpt>
      <trkpt lat="45.79565" lon="1.88112">
        <ele>774.8</ele>
        <time>2026-07-09T10:09:18.000Z</time>
      </trkpt>
      <trkpt lat="45.79565" lon="1.88113">
        <ele>773.5</ele>
        <time>2026-07-09T10:09:19.000Z</time>
      </trkpt>
      <trkpt lat="45.79565" lon="1.88114">
        <ele>772.3</ele>
        <time>2026-07-09T10:09:20.000Z</time>
      </trkpt>
      <trkpt lat="45.79566" lon="1.88114">
        <ele>773.2</ele>
        <time>2026-07-09T10:09:21.000Z</time>
      </trkpt>
      <trkpt lat="45.79567" lon="1.88113">
        <ele>772.9</ele>
        <time>2026-07-09T10:09:22.000Z</time>
      </trkpt>
      <trkpt lat="45.79568" lon="1.88112">
        <ele>772</ele>
        <time>2026-07-09T10:09:23.000Z</time>
      </trkpt>
      <trkpt lat="45.79569" lon="1.88111">
        <ele>772</ele>
        <time>2026-07-09T10:09:24.000Z</time>
      </trkpt>
      <trkpt lat="45.7957" lon="1.88112">
        <ele>771.7</ele>
        <time>2026-07-09T10:09:25.000Z</time>
      </trkpt>
      <trkpt lat="45.7957" lon="1.88113">
        <ele>772.2</ele>
        <time>2026-07-09T10:09:26.000Z</time>
      </trkpt>
      <trkpt lat="45.7957" lon="1.88113">
        <ele>771.3</ele>
        <time>2026-07-09T10:09:27.000Z</time>
      </trkpt>
      <trkpt lat="45.79569" lon="1.88113">
        <ele>771.7</ele>
        <time>2026-07-09T10:09:28.000Z</time>
      </trkpt>
      <trkpt lat="45.79569" lon="1.88111">
        <ele>771.3</ele>
        <time>2026-07-09T10:09:29.000Z</time>
      </trkpt>
      <trkpt lat="45.79569" lon="1.88111">
        <ele>771.3</ele>
        <time>2026-07-09T10:09:30.000Z</time>
      </trkpt>
      <trkpt lat="45.79569" lon="1.88111">
        <ele>771.3</ele>
        <time>2026-07-09T10:09:31.000Z</time>
      </trkpt>
      <trkpt lat="45.79569" lon="1.88111">
        <ele>771.3</ele>
        <time>2026-07-09T10:09:32.000Z</time>
      </trkpt>
      <trkpt lat="45.79569" lon="1.88111">
        <ele>771.2</ele>
        <time>2026-07-09T10:09:33.000Z</time>
      </trkpt>
      <trkpt lat="45.79569" lon="1.88111">
        <ele>771.2</ele>
        <time>2026-07-09T10:09:34.000Z</time>
      </trkpt>
      <trkpt lat="45.79569" lon="1.88111">
        <ele>771.2</ele>
        <time>2026-07-09T10:09:35.000Z</time>
      </trkpt>
      <trkpt lat="45.79569" lon="1.8811">
        <ele>771.1</ele>
        <time>2026-07-09T10:09:36.000Z</time>
      </trkpt>
      <trkpt lat="45.79569" lon="1.8811">
        <ele>771.1</ele>
        <time>2026-07-09T10:09:37.000Z</time>
      </trkpt>
      <trkpt lat="45.79569" lon="1.8811">
        <ele>771</ele>
        <time>2026-07-09T10:09:38.000Z</time>
      </trkpt>
      <trkpt lat="45.7957" lon="1.88108">
        <ele>770.6</ele>
        <time>2026-07-09T10:09:39.000Z</time>
      </trkpt>
      <trkpt lat="45.79571" lon="1.88106">
        <ele>770.2</ele>
        <time>2026-07-09T10:09:40.000Z</time>
      </trkpt>
      <trkpt lat="45.79571" lon="1.88104">
        <ele>769.9</ele>
        <time>2026-07-09T10:09:41.000Z</time>
      </trkpt>
      <trkpt lat="45.79571" lon="1.88102">
        <ele>770.1</ele>
        <time>2026-07-09T10:09:42.000Z</time>
      </trkpt>
      <trkpt lat="45.79572" lon="1.88101">
        <ele>770.3</ele>
        <time>2026-07-09T10:09:43.000Z</time>
      </trkpt>
      <trkpt lat="45.79572" lon="1.88101">
        <ele>770</ele>
        <time>2026-07-09T10:09:44.000Z</time>
      </trkpt>
      <trkpt lat="45.79572" lon="1.88101">
        <ele>769.6</ele>
        <time>2026-07-09T10:09:45.000Z</time>
      </trkpt>
      <trkpt lat="45.79572" lon="1.881">
        <ele>769.6</ele>
        <time>2026-07-09T10:09:46.000Z</time>
      </trkpt>
      <trkpt lat="45.79572" lon="1.881">
        <ele>770.2</ele>
        <time>2026-07-09T10:09:47.000Z</time>
      </trkpt>
      <trkpt lat="45.79572" lon="1.881">
        <ele>770.2</ele>
        <time>2026-07-09T10:09:48.000Z</time>
      </trkpt>
      <trkpt lat="45.79572" lon="1.881">
        <ele>769.7</ele>
        <time>2026-07-09T10:09:49.000Z</time>
      </trkpt>
      <trkpt lat="45.79572" lon="1.88101">
        <ele>769.3</ele>
        <time>2026-07-09T10:09:50.000Z</time>
      </trkpt>
      <trkpt lat="45.79572" lon="1.88102">
        <ele>769.5</ele>
        <time>2026-07-09T10:09:51.000Z</time>
      </trkpt>
      <trkpt lat="45.79572" lon="1.88103">
        <ele>769.7</ele>
        <time>2026-07-09T10:09:52.000Z</time>
      </trkpt>
      <trkpt lat="45.79572" lon="1.88104">
        <ele>770.2</ele>
        <time>2026-07-09T10:09:53.000Z</time>
      </trkpt>
      <trkpt lat="45.79572" lon="1.88104">
        <ele>770.3</ele>
        <time>2026-07-09T10:09:54.000Z</time>
      </trkpt>
      <trkpt lat="45.79572" lon="1.88103">
        <ele>770.3</ele>
        <time>2026-07-09T10:09:55.000Z</time>
      </trkpt>
      <trkpt lat="45.79572" lon="1.88102">
        <ele>769.8</ele>
        <time>2026-07-09T10:09:56.000Z</time>
      </trkpt>
      <trkpt lat="45.79572" lon="1.88101">
        <ele>769.8</ele>
        <time>2026-07-09T10:09:57.000Z</time>
      </trkpt>
      <trkpt lat="45.79572" lon="1.88101">
        <ele>769.8</ele>
        <time>2026-07-09T10:09:58.000Z</time>
      </trkpt>
      <trkpt lat="45.79572" lon="1.88101">
        <ele>769.8</ele>
        <time>2026-07-09T10:09:59.000Z</time>
      </trkpt>
      <trkpt lat="45.79572" lon="1.88101">
        <ele>769.8</ele>
        <time>2026-07-09T10:10:00.000Z</time>
      </trkpt>
      <trkpt lat="45.79571" lon="1.88101">
        <ele>769.7</ele>
        <time>2026-07-09T10:10:01.000Z</time>
      </trkpt>
      <trkpt lat="45.7957" lon="1.88101">
        <ele>770.8</ele>
        <time>2026-07-09T10:10:02.000Z</time>
      </trkpt>
      <trkpt lat="45.7957" lon="1.881">
        <ele>771.2</ele>
        <time>2026-07-09T10:10:03.000Z</time>
      </trkpt>
      <trkpt lat="45.79569" lon="1.881">
        <ele>771.8</ele>
        <time>2026-07-09T10:10:04.000Z</time>
      </trkpt>
      <trkpt lat="45.7957" lon="1.88101">
        <ele>772</ele>
        <time>2026-07-09T10:10:05.000Z</time>
      </trkpt>
      <trkpt lat="45.79572" lon="1.88105">
        <ele>770.7</ele>
        <time>2026-07-09T10:10:06.000Z</time>
      </trkpt>
      <trkpt lat="45.79573" lon="1.88106">
        <ele>768.8</ele>
        <time>2026-07-09T10:10:07.000Z</time>
      </trkpt>
      <trkpt lat="45.79576" lon="1.88108">
        <ele>768.7</ele>
        <time>2026-07-09T10:10:08.000Z</time>
      </trkpt>
      <trkpt lat="45.79578" lon="1.8811">
        <ele>769.4</ele>
        <time>2026-07-09T10:10:09.000Z</time>
      </trkpt>
      <trkpt lat="45.79579" lon="1.88113">
        <ele>770</ele>
        <time>2026-07-09T10:10:10.000Z</time>
      </trkpt>
      <trkpt lat="45.7958" lon="1.88115">
        <ele>769.8</ele>
        <time>2026-07-09T10:10:11.000Z</time>
      </trkpt>
      <trkpt lat="45.79582" lon="1.88117">
        <ele>770</ele>
        <time>2026-07-09T10:10:12.000Z</time>
      </trkpt>
      <trkpt lat="45.79584" lon="1.88118">
        <ele>769.7</ele>
        <time>2026-07-09T10:10:13.000Z</time>
      </trkpt>
      <trkpt lat="45.79586" lon="1.88119">
        <ele>769.3</ele>
        <time>2026-07-09T10:10:14.000Z</time>
      </trkpt>
      <trkpt lat="45.79589" lon="1.8812">
        <ele>768.3</ele>
        <time>2026-07-09T10:10:15.000Z</time>
      </trkpt>
      <trkpt lat="45.79591" lon="1.88122">
        <ele>768.9</ele>
        <time>2026-07-09T10:10:16.000Z</time>
      </trkpt>
      <trkpt lat="45.79593" lon="1.88123">
        <ele>768.7</ele>
        <time>2026-07-09T10:10:17.000Z</time>
      </trkpt>
      <trkpt lat="45.79595" lon="1.88124">
        <ele>768.2</ele>
        <time>2026-07-09T10:10:18.000Z</time>
      </trkpt>
      <trkpt lat="45.79597" lon="1.88124">
        <ele>768.3</ele>
        <time>2026-07-09T10:10:19.000Z</time>
      </trkpt>
      <trkpt lat="45.79599" lon="1.88125">
        <ele>768.8</ele>
        <time>2026-07-09T10:10:20.000Z</time>
      </trkpt>
      <trkpt lat="45.796" lon="1.88126">
        <ele>768.1</ele>
        <time>2026-07-09T10:10:21.000Z</time>
      </trkpt>
      <trkpt lat="45.79602" lon="1.88127">
        <ele>768</ele>
        <time>2026-07-09T10:10:22.000Z</time>
      </trkpt>
      <trkpt lat="45.79604" lon="1.88128">
        <ele>767.7</ele>
        <time>2026-07-09T10:10:23.000Z</time>
      </trkpt>
      <trkpt lat="45.79605" lon="1.88129">
        <ele>767.2</ele>
        <time>2026-07-09T10:10:24.000Z</time>
      </trkpt>
      <trkpt lat="45.79607" lon="1.8813">
        <ele>766.6</ele>
        <time>2026-07-09T10:10:25.000Z</time>
      </trkpt>
      <trkpt lat="45.79608" lon="1.88131">
        <ele>766.1</ele>
        <time>2026-07-09T10:10:26.000Z</time>
      </trkpt>
      <trkpt lat="45.7961" lon="1.88132">
        <ele>765.5</ele>
        <time>2026-07-09T10:10:27.000Z</time>
      </trkpt>
      <trkpt lat="45.79612" lon="1.88133">
        <ele>765.2</ele>
        <time>2026-07-09T10:10:28.000Z</time>
      </trkpt>
      <trkpt lat="45.79613" lon="1.88134">
        <ele>765.2</ele>
        <time>2026-07-09T10:10:29.000Z</time>
      </trkpt>
      <trkpt lat="45.79614" lon="1.88135">
        <ele>764.9</ele>
        <time>2026-07-09T10:10:30.000Z</time>
      </trkpt>
      <trkpt lat="45.79616" lon="1.88137">
        <ele>764.9</ele>
        <time>2026-07-09T10:10:31.000Z</time>
      </trkpt>
      <trkpt lat="45.79617" lon="1.8814">
        <ele>764.8</ele>
        <time>2026-07-09T10:10:32.000Z</time>
      </trkpt>
      <trkpt lat="45.79618" lon="1.88142">
        <ele>765</ele>
        <time>2026-07-09T10:10:33.000Z</time>
      </trkpt>
      <trkpt lat="45.7962" lon="1.88144">
        <ele>764.6</ele>
        <time>2026-07-09T10:10:34.000Z</time>
      </trkpt>
      <trkpt lat="45.79621" lon="1.88146">
        <ele>764.1</ele>
        <time>2026-07-09T10:10:35.000Z</time>
      </trkpt>
      <trkpt lat="45.79621" lon="1.88148">
        <ele>764.1</ele>
        <time>2026-07-09T10:10:36.000Z</time>
      </trkpt>
      <trkpt lat="45.79622" lon="1.8815">
        <ele>764.1</ele>
        <time>2026-07-09T10:10:37.000Z</time>
      </trkpt>
      <trkpt lat="45.79623" lon="1.88152">
        <ele>763.8</ele>
        <time>2026-07-09T10:10:38.000Z</time>
      </trkpt>
      <trkpt lat="45.79624" lon="1.88154">
        <ele>763.5</ele>
        <time>2026-07-09T10:10:39.000Z</time>
      </trkpt>
      <trkpt lat="45.79625" lon="1.88156">
        <ele>763.1</ele>
        <time>2026-07-09T10:10:40.000Z</time>
      </trkpt>
      <trkpt lat="45.79626" lon="1.88159">
        <ele>762.9</ele>
        <time>2026-07-09T10:10:41.000Z</time>
      </trkpt>
      <trkpt lat="45.79626" lon="1.88161">
        <ele>763.1</ele>
        <time>2026-07-09T10:10:42.000Z</time>
      </trkpt>
      <trkpt lat="45.79627" lon="1.88164">
        <ele>762.7</ele>
        <time>2026-07-09T10:10:43.000Z</time>
      </trkpt>
      <trkpt lat="45.79628" lon="1.88166">
        <ele>762.6</ele>
        <time>2026-07-09T10:10:44.000Z</time>
      </trkpt>
      <trkpt lat="45.79629" lon="1.88169">
        <ele>762.3</ele>
        <time>2026-07-09T10:10:45.000Z</time>
      </trkpt>
      <trkpt lat="45.7963" lon="1.88171">
        <ele>762.3</ele>
        <time>2026-07-09T10:10:46.000Z</time>
      </trkpt>
      <trkpt lat="45.79631" lon="1.88174">
        <ele>761.8</ele>
        <time>2026-07-09T10:10:47.000Z</time>
      </trkpt>
      <trkpt lat="45.79632" lon="1.88176">
        <ele>761.7</ele>
        <time>2026-07-09T10:10:48.000Z</time>
      </trkpt>
      <trkpt lat="45.79633" lon="1.88178">
        <ele>761.4</ele>
        <time>2026-07-09T10:10:49.000Z</time>
      </trkpt>
      <trkpt lat="45.79634" lon="1.88181">
        <ele>761.3</ele>
        <time>2026-07-09T10:10:50.000Z</time>
      </trkpt>
      <trkpt lat="45.79634" lon="1.88183">
        <ele>761.3</ele>
        <time>2026-07-09T10:10:51.000Z</time>
      </trkpt>
      <trkpt lat="45.79635" lon="1.88185">
        <ele>761</ele>
        <time>2026-07-09T10:10:52.000Z</time>
      </trkpt>
      <trkpt lat="45.79636" lon="1.88188">
        <ele>761.2</ele>
        <time>2026-07-09T10:10:53.000Z</time>
      </trkpt>
      <trkpt lat="45.79636" lon="1.8819">
        <ele>761.1</ele>
        <time>2026-07-09T10:10:54.000Z</time>
      </trkpt>
      <trkpt lat="45.79637" lon="1.88193">
        <ele>760.8</ele>
        <time>2026-07-09T10:10:55.000Z</time>
      </trkpt>
      <trkpt lat="45.79638" lon="1.88196">
        <ele>760.4</ele>
        <time>2026-07-09T10:10:56.000Z</time>
      </trkpt>
      <trkpt lat="45.79638" lon="1.88198">
        <ele>760.6</ele>
        <time>2026-07-09T10:10:57.000Z</time>
      </trkpt>
      <trkpt lat="45.79638" lon="1.882">
        <ele>760.6</ele>
        <time>2026-07-09T10:10:58.000Z</time>
      </trkpt>
      <trkpt lat="45.79639" lon="1.88202">
        <ele>760.1</ele>
        <time>2026-07-09T10:10:59.000Z</time>
      </trkpt>
      <trkpt lat="45.7964" lon="1.88204">
        <ele>760</ele>
        <time>2026-07-09T10:11:00.000Z</time>
      </trkpt>
      <trkpt lat="45.7964" lon="1.88206">
        <ele>759.9</ele>
        <time>2026-07-09T10:11:01.000Z</time>
      </trkpt>
      <trkpt lat="45.79641" lon="1.88208">
        <ele>760</ele>
        <time>2026-07-09T10:11:02.000Z</time>
      </trkpt>
      <trkpt lat="45.79642" lon="1.8821">
        <ele>759.8</ele>
        <time>2026-07-09T10:11:03.000Z</time>
      </trkpt>
      <trkpt lat="45.79643" lon="1.88212">
        <ele>759.8</ele>
        <time>2026-07-09T10:11:04.000Z</time>
      </trkpt>
      <trkpt lat="45.79644" lon="1.88214">
        <ele>759.5</ele>
        <time>2026-07-09T10:11:05.000Z</time>
      </trkpt>
      <trkpt lat="45.79645" lon="1.88215">
        <ele>759.5</ele>
        <time>2026-07-09T10:11:06.000Z</time>
      </trkpt>
      <trkpt lat="45.79646" lon="1.88216">
        <ele>759.6</ele>
        <time>2026-07-09T10:11:07.000Z</time>
      </trkpt>
      <trkpt lat="45.79646" lon="1.88218">
        <ele>759.4</ele>
        <time>2026-07-09T10:11:08.000Z</time>
      </trkpt>
      <trkpt lat="45.79647" lon="1.8822">
        <ele>759.3</ele>
        <time>2026-07-09T10:11:09.000Z</time>
      </trkpt>
      <trkpt lat="45.79648" lon="1.88222">
        <ele>759.1</ele>
        <time>2026-07-09T10:11:10.000Z</time>
      </trkpt>
      <trkpt lat="45.79649" lon="1.88224">
        <ele>759</ele>
        <time>2026-07-09T10:11:11.000Z</time>
      </trkpt>
      <trkpt lat="45.79651" lon="1.88226">
        <ele>759.1</ele>
        <time>2026-07-09T10:11:12.000Z</time>
      </trkpt>
      <trkpt lat="45.79653" lon="1.88228">
        <ele>759</ele>
        <time>2026-07-09T10:11:13.000Z</time>
      </trkpt>
      <trkpt lat="45.79654" lon="1.8823">
        <ele>759</ele>
        <time>2026-07-09T10:11:14.000Z</time>
      </trkpt>
      <trkpt lat="45.79656" lon="1.88232">
        <ele>758.8</ele>
        <time>2026-07-09T10:11:15.000Z</time>
      </trkpt>
      <trkpt lat="45.79658" lon="1.88234">
        <ele>759</ele>
        <time>2026-07-09T10:11:16.000Z</time>
      </trkpt>
      <trkpt lat="45.7966" lon="1.88236">
        <ele>758.6</ele>
        <time>2026-07-09T10:11:17.000Z</time>
      </trkpt>
      <trkpt lat="45.79661" lon="1.88237">
        <ele>758.5</ele>
        <time>2026-07-09T10:11:18.000Z</time>
      </trkpt>
      <trkpt lat="45.79663" lon="1.88239">
        <ele>758.4</ele>
        <time>2026-07-09T10:11:19.000Z</time>
      </trkpt>
      <trkpt lat="45.79664" lon="1.88241">
        <ele>758</ele>
        <time>2026-07-09T10:11:20.000Z</time>
      </trkpt>
      <trkpt lat="45.79666" lon="1.88242">
        <ele>757.9</ele>
        <time>2026-07-09T10:11:21.000Z</time>
      </trkpt>
      <trkpt lat="45.79668" lon="1.88244">
        <ele>758</ele>
        <time>2026-07-09T10:11:22.000Z</time>
      </trkpt>
      <trkpt lat="45.7967" lon="1.88245">
        <ele>757.8</ele>
        <time>2026-07-09T10:11:23.000Z</time>
      </trkpt>
      <trkpt lat="45.79671" lon="1.88247">
        <ele>757.9</ele>
        <time>2026-07-09T10:11:24.000Z</time>
      </trkpt>
      <trkpt lat="45.79673" lon="1.88248">
        <ele>757.5</ele>
        <time>2026-07-09T10:11:25.000Z</time>
      </trkpt>
      <trkpt lat="45.79675" lon="1.88249">
        <ele>757.5</ele>
        <time>2026-07-09T10:11:26.000Z</time>
      </trkpt>
      <trkpt lat="45.79676" lon="1.8825">
        <ele>757.3</ele>
        <time>2026-07-09T10:11:27.000Z</time>
      </trkpt>
      <trkpt lat="45.79678" lon="1.88251">
        <ele>757.3</ele>
        <time>2026-07-09T10:11:28.000Z</time>
      </trkpt>
      <trkpt lat="45.7968" lon="1.88252">
        <ele>757</ele>
        <time>2026-07-09T10:11:29.000Z</time>
      </trkpt>
      <trkpt lat="45.79681" lon="1.88253">
        <ele>756.7</ele>
        <time>2026-07-09T10:11:30.000Z</time>
      </trkpt>
      <trkpt lat="45.79682" lon="1.88255">
        <ele>756.5</ele>
        <time>2026-07-09T10:11:31.000Z</time>
      </trkpt>
      <trkpt lat="45.79683" lon="1.88256">
        <ele>756.4</ele>
        <time>2026-07-09T10:11:32.000Z</time>
      </trkpt>
      <trkpt lat="45.79685" lon="1.88257">
        <ele>756</ele>
        <time>2026-07-09T10:11:33.000Z</time>
      </trkpt>
      <trkpt lat="45.79686" lon="1.88258">
        <ele>755.6</ele>
        <time>2026-07-09T10:11:34.000Z</time>
      </trkpt>
      <trkpt lat="45.79688" lon="1.8826">
        <ele>755.4</ele>
        <time>2026-07-09T10:11:35.000Z</time>
      </trkpt>
      <trkpt lat="45.79689" lon="1.88261">
        <ele>755</ele>
        <time>2026-07-09T10:11:36.000Z</time>
      </trkpt>
      <trkpt lat="45.79691" lon="1.88262">
        <ele>754.8</ele>
        <time>2026-07-09T10:11:37.000Z</time>
      </trkpt>
      <trkpt lat="45.79693" lon="1.88263">
        <ele>754.5</ele>
        <time>2026-07-09T10:11:38.000Z</time>
      </trkpt>
      <trkpt lat="45.79694" lon="1.88264">
        <ele>754.1</ele>
        <time>2026-07-09T10:11:39.000Z</time>
      </trkpt>
      <trkpt lat="45.79696" lon="1.88264">
        <ele>753.9</ele>
        <time>2026-07-09T10:11:40.000Z</time>
      </trkpt>
      <trkpt lat="45.79697" lon="1.88265">
        <ele>753.8</ele>
        <time>2026-07-09T10:11:41.000Z</time>
      </trkpt>
      <trkpt lat="45.79699" lon="1.88266">
        <ele>753.9</ele>
        <time>2026-07-09T10:11:42.000Z</time>
      </trkpt>
      <trkpt lat="45.797" lon="1.88267">
        <ele>753.9</ele>
        <time>2026-07-09T10:11:43.000Z</time>
      </trkpt>
      <trkpt lat="45.79701" lon="1.88267">
        <ele>753.8</ele>
        <time>2026-07-09T10:11:44.000Z</time>
      </trkpt>
      <trkpt lat="45.79704" lon="1.88269">
        <ele>753.9</ele>
        <time>2026-07-09T10:11:45.000Z</time>
      </trkpt>
      <trkpt lat="45.79705" lon="1.8827">
        <ele>753.6</ele>
        <time>2026-07-09T10:11:46.000Z</time>
      </trkpt>
      <trkpt lat="45.79706" lon="1.88271">
        <ele>753.7</ele>
        <time>2026-07-09T10:11:47.000Z</time>
      </trkpt>
      <trkpt lat="45.79708" lon="1.88272">
        <ele>753.5</ele>
        <time>2026-07-09T10:11:48.000Z</time>
      </trkpt>
      <trkpt lat="45.79709" lon="1.88272">
        <ele>753.4</ele>
        <time>2026-07-09T10:11:49.000Z</time>
      </trkpt>
      <trkpt lat="45.79711" lon="1.88273">
        <ele>753.4</ele>
        <time>2026-07-09T10:11:50.000Z</time>
      </trkpt>
      <trkpt lat="45.79712" lon="1.88274">
        <ele>752.7</ele>
        <time>2026-07-09T10:11:51.000Z</time>
      </trkpt>
      <trkpt lat="45.79713" lon="1.88275">
        <ele>751.9</ele>
        <time>2026-07-09T10:11:52.000Z</time>
      </trkpt>
      <trkpt lat="45.79715" lon="1.88276">
        <ele>751</ele>
        <time>2026-07-09T10:11:53.000Z</time>
      </trkpt>
      <trkpt lat="45.79716" lon="1.88278">
        <ele>750.7</ele>
        <time>2026-07-09T10:11:54.000Z</time>
      </trkpt>
      <trkpt lat="45.79717" lon="1.88279">
        <ele>750.2</ele>
        <time>2026-07-09T10:11:55.000Z</time>
      </trkpt>
      <trkpt lat="45.79718" lon="1.88281">
        <ele>750.1</ele>
        <time>2026-07-09T10:11:56.000Z</time>
      </trkpt>
      <trkpt lat="45.7972" lon="1.88283">
        <ele>750</ele>
        <time>2026-07-09T10:11:57.000Z</time>
      </trkpt>
      <trkpt lat="45.79721" lon="1.88284">
        <ele>749.9</ele>
        <time>2026-07-09T10:11:58.000Z</time>
      </trkpt>
      <trkpt lat="45.79722" lon="1.88285">
        <ele>749.7</ele>
        <time>2026-07-09T10:11:59.000Z</time>
      </trkpt>
      <trkpt lat="45.79724" lon="1.88287">
        <ele>749.8</ele>
        <time>2026-07-09T10:12:00.000Z</time>
      </trkpt>
      <trkpt lat="45.79726" lon="1.88288">
        <ele>749.7</ele>
        <time>2026-07-09T10:12:01.000Z</time>
      </trkpt>
      <trkpt lat="45.79727" lon="1.8829">
        <ele>749.7</ele>
        <time>2026-07-09T10:12:02.000Z</time>
      </trkpt>
      <trkpt lat="45.79728" lon="1.88291">
        <ele>749.4</ele>
        <time>2026-07-09T10:12:03.000Z</time>
      </trkpt>
      <trkpt lat="45.7973" lon="1.88293">
        <ele>749.4</ele>
        <time>2026-07-09T10:12:04.000Z</time>
      </trkpt>
      <trkpt lat="45.79732" lon="1.88295">
        <ele>749.2</ele>
        <time>2026-07-09T10:12:05.000Z</time>
      </trkpt>
      <trkpt lat="45.79734" lon="1.88296">
        <ele>749.1</ele>
        <time>2026-07-09T10:12:06.000Z</time>
      </trkpt>
      <trkpt lat="45.79736" lon="1.88297">
        <ele>748.5</ele>
        <time>2026-07-09T10:12:07.000Z</time>
      </trkpt>
      <trkpt lat="45.79738" lon="1.88298">
        <ele>747.6</ele>
        <time>2026-07-09T10:12:08.000Z</time>
      </trkpt>
      <trkpt lat="45.7974" lon="1.88301">
        <ele>748</ele>
        <time>2026-07-09T10:12:09.000Z</time>
      </trkpt>
      <trkpt lat="45.79743" lon="1.88304">
        <ele>748.2</ele>
        <time>2026-07-09T10:12:10.000Z</time>
      </trkpt>
      <trkpt lat="45.79746" lon="1.88307">
        <ele>748.1</ele>
        <time>2026-07-09T10:12:11.000Z</time>
      </trkpt>
      <trkpt lat="45.79749" lon="1.8831">
        <ele>748</ele>
        <time>2026-07-09T10:12:12.000Z</time>
      </trkpt>
      <trkpt lat="45.79752" lon="1.88313">
        <ele>748.1</ele>
        <time>2026-07-09T10:12:13.000Z</time>
      </trkpt>
      <trkpt lat="45.79755" lon="1.88316">
        <ele>749</ele>
        <time>2026-07-09T10:12:14.000Z</time>
      </trkpt>
      <trkpt lat="45.79757" lon="1.88318">
        <ele>749.3</ele>
        <time>2026-07-09T10:12:15.000Z</time>
      </trkpt>
      <trkpt lat="45.79758" lon="1.88321">
        <ele>750.4</ele>
        <time>2026-07-09T10:12:16.000Z</time>
      </trkpt>
      <trkpt lat="45.7976" lon="1.88324">
        <ele>749.8</ele>
        <time>2026-07-09T10:12:17.000Z</time>
      </trkpt>
      <trkpt lat="45.79761" lon="1.88327">
        <ele>749.6</ele>
        <time>2026-07-09T10:12:18.000Z</time>
      </trkpt>
      <trkpt lat="45.79762" lon="1.88331">
        <ele>749.4</ele>
        <time>2026-07-09T10:12:19.000Z</time>
      </trkpt>
      <trkpt lat="45.79763" lon="1.88333">
        <ele>749.3</ele>
        <time>2026-07-09T10:12:20.000Z</time>
      </trkpt>
      <trkpt lat="45.79765" lon="1.88336">
        <ele>749.3</ele>
        <time>2026-07-09T10:12:21.000Z</time>
      </trkpt>
      <trkpt lat="45.79767" lon="1.88338">
        <ele>748.9</ele>
        <time>2026-07-09T10:12:22.000Z</time>
      </trkpt>
      <trkpt lat="45.79769" lon="1.88341">
        <ele>748.3</ele>
        <time>2026-07-09T10:12:23.000Z</time>
      </trkpt>
      <trkpt lat="45.7977" lon="1.88343">
        <ele>747.8</ele>
        <time>2026-07-09T10:12:24.000Z</time>
      </trkpt>
      <trkpt lat="45.79772" lon="1.88345">
        <ele>747.3</ele>
        <time>2026-07-09T10:12:25.000Z</time>
      </trkpt>
      <trkpt lat="45.79774" lon="1.88347">
        <ele>747</ele>
        <time>2026-07-09T10:12:26.000Z</time>
      </trkpt>
      <trkpt lat="45.79776" lon="1.88349">
        <ele>746.3</ele>
        <time>2026-07-09T10:12:27.000Z</time>
      </trkpt>
      <trkpt lat="45.79777" lon="1.88351">
        <ele>745.5</ele>
        <time>2026-07-09T10:12:28.000Z</time>
      </trkpt>
      <trkpt lat="45.7978" lon="1.88351">
        <ele>745.1</ele>
        <time>2026-07-09T10:12:29.000Z</time>
      </trkpt>
      <trkpt lat="45.79783" lon="1.88352">
        <ele>744.1</ele>
        <time>2026-07-09T10:12:30.000Z</time>
      </trkpt>
      <trkpt lat="45.79784" lon="1.88354">
        <ele>743.9</ele>
        <time>2026-07-09T10:12:31.000Z</time>
      </trkpt>
      <trkpt lat="45.79785" lon="1.88356">
        <ele>743.5</ele>
        <time>2026-07-09T10:12:32.000Z</time>
      </trkpt>
      <trkpt lat="45.79787" lon="1.88359">
        <ele>742.9</ele>
        <time>2026-07-09T10:12:33.000Z</time>
      </trkpt>
      <trkpt lat="45.79788" lon="1.88361">
        <ele>742.2</ele>
        <time>2026-07-09T10:12:34.000Z</time>
      </trkpt>
      <trkpt lat="45.79789" lon="1.88363">
        <ele>742</ele>
        <time>2026-07-09T10:12:35.000Z</time>
      </trkpt>
      <trkpt lat="45.79791" lon="1.88366">
        <ele>741.6</ele>
        <time>2026-07-09T10:12:36.000Z</time>
      </trkpt>
      <trkpt lat="45.79792" lon="1.88368">
        <ele>741.4</ele>
        <time>2026-07-09T10:12:37.000Z</time>
      </trkpt>
      <trkpt lat="45.79793" lon="1.88371">
        <ele>741.2</ele>
        <time>2026-07-09T10:12:38.000Z</time>
      </trkpt>
      <trkpt lat="45.79794" lon="1.88373">
        <ele>740.8</ele>
        <time>2026-07-09T10:12:39.000Z</time>
      </trkpt>
      <trkpt lat="45.79795" lon="1.88375">
        <ele>740.6</ele>
        <time>2026-07-09T10:12:40.000Z</time>
      </trkpt>
      <trkpt lat="45.79796" lon="1.88377">
        <ele>740.5</ele>
        <time>2026-07-09T10:12:41.000Z</time>
      </trkpt>
      <trkpt lat="45.79797" lon="1.8838">
        <ele>740.4</ele>
        <time>2026-07-09T10:12:42.000Z</time>
      </trkpt>
      <trkpt lat="45.79798" lon="1.88382">
        <ele>740.9</ele>
        <time>2026-07-09T10:12:43.000Z</time>
      </trkpt>
      <trkpt lat="45.79799" lon="1.88385">
        <ele>741.1</ele>
        <time>2026-07-09T10:12:44.000Z</time>
      </trkpt>
      <trkpt lat="45.79799" lon="1.88387">
        <ele>741</ele>
        <time>2026-07-09T10:12:45.000Z</time>
      </trkpt>
      <trkpt lat="45.798" lon="1.88389">
        <ele>740.9</ele>
        <time>2026-07-09T10:12:46.000Z</time>
      </trkpt>
      <trkpt lat="45.79801" lon="1.88391">
        <ele>741.3</ele>
        <time>2026-07-09T10:12:47.000Z</time>
      </trkpt>
      <trkpt lat="45.79803" lon="1.88393">
        <ele>742</ele>
        <time>2026-07-09T10:12:48.000Z</time>
      </trkpt>
      <trkpt lat="45.79804" lon="1.88395">
        <ele>741.2</ele>
        <time>2026-07-09T10:12:49.000Z</time>
      </trkpt>
      <trkpt lat="45.79805" lon="1.88397">
        <ele>741</ele>
        <time>2026-07-09T10:12:50.000Z</time>
      </trkpt>
      <trkpt lat="45.79807" lon="1.88399">
        <ele>741</ele>
        <time>2026-07-09T10:12:51.000Z</time>
      </trkpt>
      <trkpt lat="45.79808" lon="1.88401">
        <ele>740.5</ele>
        <time>2026-07-09T10:12:52.000Z</time>
      </trkpt>
      <trkpt lat="45.79809" lon="1.88403">
        <ele>739.2</ele>
        <time>2026-07-09T10:12:53.000Z</time>
      </trkpt>
      <trkpt lat="45.79811" lon="1.88405">
        <ele>740.2</ele>
        <time>2026-07-09T10:12:54.000Z</time>
      </trkpt>
      <trkpt lat="45.79812" lon="1.88407">
        <ele>740.2</ele>
        <time>2026-07-09T10:12:55.000Z</time>
      </trkpt>
      <trkpt lat="45.79813" lon="1.88409">
        <ele>740.3</ele>
        <time>2026-07-09T10:12:56.000Z</time>
      </trkpt>
      <trkpt lat="45.79815" lon="1.88411">
        <ele>740</ele>
        <time>2026-07-09T10:12:57.000Z</time>
      </trkpt>
      <trkpt lat="45.79816" lon="1.88413">
        <ele>739.5</ele>
        <time>2026-07-09T10:12:58.000Z</time>
      </trkpt>
      <trkpt lat="45.79817" lon="1.88415">
        <ele>739.6</ele>
        <time>2026-07-09T10:12:59.000Z</time>
      </trkpt>
      <trkpt lat="45.79818" lon="1.88416">
        <ele>740</ele>
        <time>2026-07-09T10:13:00.000Z</time>
      </trkpt>
      <trkpt lat="45.79819" lon="1.88418">
        <ele>739.3</ele>
        <time>2026-07-09T10:13:01.000Z</time>
      </trkpt>
      <trkpt lat="45.79819" lon="1.88418">
        <ele>739.5</ele>
        <time>2026-07-09T10:13:02.000Z</time>
      </trkpt>
      <trkpt lat="45.7982" lon="1.88418">
        <ele>739.5</ele>
        <time>2026-07-09T10:13:03.000Z</time>
      </trkpt>
      <trkpt lat="45.79821" lon="1.88419">
        <ele>739</ele>
        <time>2026-07-09T10:13:04.000Z</time>
      </trkpt>
      <trkpt lat="45.79822" lon="1.88421">
        <ele>739.2</ele>
        <time>2026-07-09T10:13:05.000Z</time>
      </trkpt>
      <trkpt lat="45.79824" lon="1.88423">
        <ele>739</ele>
        <time>2026-07-09T10:13:06.000Z</time>
      </trkpt>
      <trkpt lat="45.79826" lon="1.88424">
        <ele>738.5</ele>
        <time>2026-07-09T10:13:07.000Z</time>
      </trkpt>
      <trkpt lat="45.79827" lon="1.88425">
        <ele>737.3</ele>
        <time>2026-07-09T10:13:08.000Z</time>
      </trkpt>
      <trkpt lat="45.79828" lon="1.88427">
        <ele>738</ele>
        <time>2026-07-09T10:13:09.000Z</time>
      </trkpt>
      <trkpt lat="45.7983" lon="1.88429">
        <ele>736.6</ele>
        <time>2026-07-09T10:13:10.000Z</time>
      </trkpt>
      <trkpt lat="45.79831" lon="1.88431">
        <ele>736.5</ele>
        <time>2026-07-09T10:13:11.000Z</time>
      </trkpt>
      <trkpt lat="45.79833" lon="1.88433">
        <ele>735.8</ele>
        <time>2026-07-09T10:13:12.000Z</time>
      </trkpt>
      <trkpt lat="45.79834" lon="1.88434">
        <ele>734.8</ele>
        <time>2026-07-09T10:13:13.000Z</time>
      </trkpt>
      <trkpt lat="45.79835" lon="1.88436">
        <ele>733.9</ele>
        <time>2026-07-09T10:13:14.000Z</time>
      </trkpt>
      <trkpt lat="45.79836" lon="1.88437">
        <ele>733.5</ele>
        <time>2026-07-09T10:13:15.000Z</time>
      </trkpt>
      <trkpt lat="45.79837" lon="1.88439">
        <ele>732.6</ele>
        <time>2026-07-09T10:13:16.000Z</time>
      </trkpt>
      <trkpt lat="45.79838" lon="1.88441">
        <ele>731.8</ele>
        <time>2026-07-09T10:13:17.000Z</time>
      </trkpt>
      <trkpt lat="45.79839" lon="1.88442">
        <ele>731.4</ele>
        <time>2026-07-09T10:13:18.000Z</time>
      </trkpt>
      <trkpt lat="45.79841" lon="1.88444">
        <ele>730.1</ele>
        <time>2026-07-09T10:13:19.000Z</time>
      </trkpt>
      <trkpt lat="45.79843" lon="1.88447">
        <ele>729.2</ele>
        <time>2026-07-09T10:13:20.000Z</time>
      </trkpt>
      <trkpt lat="45.79843" lon="1.88449">
        <ele>727.6</ele>
        <time>2026-07-09T10:13:21.000Z</time>
      </trkpt>
      <trkpt lat="45.79844" lon="1.88452">
        <ele>727.3</ele>
        <time>2026-07-09T10:13:22.000Z</time>
      </trkpt>
      <trkpt lat="45.79845" lon="1.88454">
        <ele>727.2</ele>
        <time>2026-07-09T10:13:23.000Z</time>
      </trkpt>
      <trkpt lat="45.79846" lon="1.88455">
        <ele>727.4</ele>
        <time>2026-07-09T10:13:24.000Z</time>
      </trkpt>
      <trkpt lat="45.79847" lon="1.88457">
        <ele>727.6</ele>
        <time>2026-07-09T10:13:25.000Z</time>
      </trkpt>
      <trkpt lat="45.79848" lon="1.88459">
        <ele>726.6</ele>
        <time>2026-07-09T10:13:26.000Z</time>
      </trkpt>
      <trkpt lat="45.79849" lon="1.88462">
        <ele>726.7</ele>
        <time>2026-07-09T10:13:27.000Z</time>
      </trkpt>
      <trkpt lat="45.79849" lon="1.88465">
        <ele>726.2</ele>
        <time>2026-07-09T10:13:28.000Z</time>
      </trkpt>
      <trkpt lat="45.79849" lon="1.88468">
        <ele>726.5</ele>
        <time>2026-07-09T10:13:29.000Z</time>
      </trkpt>
      <trkpt lat="45.7985" lon="1.88471">
        <ele>726.8</ele>
        <time>2026-07-09T10:13:30.000Z</time>
      </trkpt>
      <trkpt lat="45.7985" lon="1.88475">
        <ele>728</ele>
        <time>2026-07-09T10:13:31.000Z</time>
      </trkpt>
      <trkpt lat="45.79851" lon="1.88478">
        <ele>727.5</ele>
        <time>2026-07-09T10:13:32.000Z</time>
      </trkpt>
      <trkpt lat="45.79852" lon="1.88481">
        <ele>727.8</ele>
        <time>2026-07-09T10:13:33.000Z</time>
      </trkpt>
      <trkpt lat="45.79852" lon="1.88484">
        <ele>727.1</ele>
        <time>2026-07-09T10:13:34.000Z</time>
      </trkpt>
      <trkpt lat="45.79853" lon="1.88487">
        <ele>726.9</ele>
        <time>2026-07-09T10:13:35.000Z</time>
      </trkpt>
      <trkpt lat="45.79854" lon="1.8849">
        <ele>727.9</ele>
        <time>2026-07-09T10:13:36.000Z</time>
      </trkpt>
      <trkpt lat="45.79855" lon="1.88493">
        <ele>728.2</ele>
        <time>2026-07-09T10:13:37.000Z</time>
      </trkpt>
      <trkpt lat="45.79856" lon="1.88495">
        <ele>728.2</ele>
        <time>2026-07-09T10:13:38.000Z</time>
      </trkpt>
      <trkpt lat="45.79857" lon="1.88498">
        <ele>728.4</ele>
        <time>2026-07-09T10:13:39.000Z</time>
      </trkpt>
      <trkpt lat="45.79857" lon="1.88501">
        <ele>728.6</ele>
        <time>2026-07-09T10:13:40.000Z</time>
      </trkpt>
      <trkpt lat="45.79857" lon="1.88503">
        <ele>728.9</ele>
        <time>2026-07-09T10:13:41.000Z</time>
      </trkpt>
      <trkpt lat="45.79858" lon="1.88505">
        <ele>728.9</ele>
        <time>2026-07-09T10:13:42.000Z</time>
      </trkpt>
      <trkpt lat="45.79858" lon="1.88508">
        <ele>728.8</ele>
        <time>2026-07-09T10:13:43.000Z</time>
      </trkpt>
      <trkpt lat="45.79859" lon="1.8851">
        <ele>728.8</ele>
        <time>2026-07-09T10:13:44.000Z</time>
      </trkpt>
      <trkpt lat="45.7986" lon="1.88512">
        <ele>728.3</ele>
        <time>2026-07-09T10:13:45.000Z</time>
      </trkpt>
      <trkpt lat="45.79861" lon="1.88515">
        <ele>728.3</ele>
        <time>2026-07-09T10:13:46.000Z</time>
      </trkpt>
      <trkpt lat="45.79862" lon="1.88517">
        <ele>727.7</ele>
        <time>2026-07-09T10:13:47.000Z</time>
      </trkpt>
      <trkpt lat="45.79862" lon="1.88519">
        <ele>727.4</ele>
        <time>2026-07-09T10:13:48.000Z</time>
      </trkpt>
      <trkpt lat="45.79863" lon="1.8852">
        <ele>727.8</ele>
        <time>2026-07-09T10:13:49.000Z</time>
      </trkpt>
      <trkpt lat="45.79864" lon="1.88522">
        <ele>727.5</ele>
        <time>2026-07-09T10:13:50.000Z</time>
      </trkpt>
      <trkpt lat="45.79865" lon="1.88524">
        <ele>726.7</ele>
        <time>2026-07-09T10:13:51.000Z</time>
      </trkpt>
      <trkpt lat="45.79865" lon="1.88526">
        <ele>726.4</ele>
        <time>2026-07-09T10:13:52.000Z</time>
      </trkpt>
      <trkpt lat="45.79866" lon="1.88529">
        <ele>726.7</ele>
        <time>2026-07-09T10:13:53.000Z</time>
      </trkpt>
      <trkpt lat="45.79866" lon="1.88531">
        <ele>727</ele>
        <time>2026-07-09T10:13:54.000Z</time>
      </trkpt>
      <trkpt lat="45.79867" lon="1.88533">
        <ele>726.8</ele>
        <time>2026-07-09T10:13:55.000Z</time>
      </trkpt>
      <trkpt lat="45.79868" lon="1.88535">
        <ele>726.1</ele>
        <time>2026-07-09T10:13:56.000Z</time>
      </trkpt>
      <trkpt lat="45.79868" lon="1.88538">
        <ele>725.8</ele>
        <time>2026-07-09T10:13:57.000Z</time>
      </trkpt>
      <trkpt lat="45.79869" lon="1.8854">
        <ele>725.4</ele>
        <time>2026-07-09T10:13:58.000Z</time>
      </trkpt>
      <trkpt lat="45.7987" lon="1.88543">
        <ele>725.8</ele>
        <time>2026-07-09T10:13:59.000Z</time>
      </trkpt>
      <trkpt lat="45.79871" lon="1.88545">
        <ele>728</ele>
        <time>2026-07-09T10:14:00.000Z</time>
      </trkpt>
      <trkpt lat="45.79872" lon="1.88547">
        <ele>728.8</ele>
        <time>2026-07-09T10:14:01.000Z</time>
      </trkpt>
      <trkpt lat="45.79873" lon="1.8855">
        <ele>728.2</ele>
        <time>2026-07-09T10:14:02.000Z</time>
      </trkpt>
      <trkpt lat="45.79874" lon="1.88553">
        <ele>728.1</ele>
        <time>2026-07-09T10:14:03.000Z</time>
      </trkpt>
      <trkpt lat="45.79875" lon="1.88555">
        <ele>728.1</ele>
        <time>2026-07-09T10:14:04.000Z</time>
      </trkpt>
      <trkpt lat="45.79876" lon="1.88556">
        <ele>727.1</ele>
        <time>2026-07-09T10:14:05.000Z</time>
      </trkpt>
      <trkpt lat="45.79878" lon="1.88558">
        <ele>727.4</ele>
        <time>2026-07-09T10:14:06.000Z</time>
      </trkpt>
      <trkpt lat="45.79879" lon="1.8856">
        <ele>728.1</ele>
        <time>2026-07-09T10:14:07.000Z</time>
      </trkpt>
      <trkpt lat="45.7988" lon="1.88563">
        <ele>728</ele>
        <time>2026-07-09T10:14:08.000Z</time>
      </trkpt>
      <trkpt lat="45.79881" lon="1.88565">
        <ele>728.1</ele>
        <time>2026-07-09T10:14:09.000Z</time>
      </trkpt>
      <trkpt lat="45.79882" lon="1.88566">
        <ele>727.8</ele>
        <time>2026-07-09T10:14:10.000Z</time>
      </trkpt>
      <trkpt lat="45.79883" lon="1.88567">
        <ele>727.5</ele>
        <time>2026-07-09T10:14:11.000Z</time>
      </trkpt>
      <trkpt lat="45.79885" lon="1.88568">
        <ele>727.6</ele>
        <time>2026-07-09T10:14:12.000Z</time>
      </trkpt>
      <trkpt lat="45.79886" lon="1.88571">
        <ele>727.9</ele>
        <time>2026-07-09T10:14:13.000Z</time>
      </trkpt>
      <trkpt lat="45.79888" lon="1.88573">
        <ele>727.9</ele>
        <time>2026-07-09T10:14:14.000Z</time>
      </trkpt>
      <trkpt lat="45.79889" lon="1.88575">
        <ele>727.6</ele>
        <time>2026-07-09T10:14:15.000Z</time>
      </trkpt>
      <trkpt lat="45.7989" lon="1.88576">
        <ele>727.2</ele>
        <time>2026-07-09T10:14:16.000Z</time>
      </trkpt>
      <trkpt lat="45.79892" lon="1.88578">
        <ele>727.4</ele>
        <time>2026-07-09T10:14:17.000Z</time>
      </trkpt>
      <trkpt lat="45.79893" lon="1.8858">
        <ele>726.9</ele>
        <time>2026-07-09T10:14:18.000Z</time>
      </trkpt>
      <trkpt lat="45.79895" lon="1.88582">
        <ele>726.6</ele>
        <time>2026-07-09T10:14:19.000Z</time>
      </trkpt>
      <trkpt lat="45.79897" lon="1.88585">
        <ele>727.3</ele>
        <time>2026-07-09T10:14:20.000Z</time>
      </trkpt>
      <trkpt lat="45.79898" lon="1.88588">
        <ele>727.2</ele>
        <time>2026-07-09T10:14:21.000Z</time>
      </trkpt>
      <trkpt lat="45.79899" lon="1.88591">
        <ele>727.8</ele>
        <time>2026-07-09T10:14:22.000Z</time>
      </trkpt>
      <trkpt lat="45.799" lon="1.88594">
        <ele>728.1</ele>
        <time>2026-07-09T10:14:23.000Z</time>
      </trkpt>
      <trkpt lat="45.799" lon="1.88596">
        <ele>727.2</ele>
        <time>2026-07-09T10:14:24.000Z</time>
      </trkpt>
      <trkpt lat="45.79901" lon="1.88598">
        <ele>727.3</ele>
        <time>2026-07-09T10:14:25.000Z</time>
      </trkpt>
      <trkpt lat="45.79902" lon="1.88599">
        <ele>727.6</ele>
        <time>2026-07-09T10:14:26.000Z</time>
      </trkpt>
      <trkpt lat="45.79903" lon="1.886">
        <ele>727.9</ele>
        <time>2026-07-09T10:14:27.000Z</time>
      </trkpt>
      <trkpt lat="45.79904" lon="1.88601">
        <ele>728</ele>
        <time>2026-07-09T10:14:28.000Z</time>
      </trkpt>
      <trkpt lat="45.79905" lon="1.88602">
        <ele>728.1</ele>
        <time>2026-07-09T10:14:29.000Z</time>
      </trkpt>
      <trkpt lat="45.79906" lon="1.88604">
        <ele>727.3</ele>
        <time>2026-07-09T10:14:30.000Z</time>
      </trkpt>
      <trkpt lat="45.79907" lon="1.88605">
        <ele>727.5</ele>
        <time>2026-07-09T10:14:31.000Z</time>
      </trkpt>
      <trkpt lat="45.79908" lon="1.88607">
        <ele>728.1</ele>
        <time>2026-07-09T10:14:32.000Z</time>
      </trkpt>
      <trkpt lat="45.79909" lon="1.88608">
        <ele>727.3</ele>
        <time>2026-07-09T10:14:33.000Z</time>
      </trkpt>
      <trkpt lat="45.7991" lon="1.88609">
        <ele>727.2</ele>
        <time>2026-07-09T10:14:34.000Z</time>
      </trkpt>
      <trkpt lat="45.79911" lon="1.8861">
        <ele>726.7</ele>
        <time>2026-07-09T10:14:35.000Z</time>
      </trkpt>
      <trkpt lat="45.79913" lon="1.88611">
        <ele>727.3</ele>
        <time>2026-07-09T10:14:36.000Z</time>
      </trkpt>
      <trkpt lat="45.79915" lon="1.88613">
        <ele>727</ele>
        <time>2026-07-09T10:14:37.000Z</time>
      </trkpt>
      <trkpt lat="45.79916" lon="1.88614">
        <ele>726.8</ele>
        <time>2026-07-09T10:14:38.000Z</time>
      </trkpt>
      <trkpt lat="45.79918" lon="1.88615">
        <ele>726.7</ele>
        <time>2026-07-09T10:14:39.000Z</time>
      </trkpt>
      <trkpt lat="45.79919" lon="1.88616">
        <ele>727.1</ele>
        <time>2026-07-09T10:14:40.000Z</time>
      </trkpt>
      <trkpt lat="45.79921" lon="1.88617">
        <ele>727.1</ele>
        <time>2026-07-09T10:14:41.000Z</time>
      </trkpt>
      <trkpt lat="45.79922" lon="1.88619">
        <ele>726.9</ele>
        <time>2026-07-09T10:14:42.000Z</time>
      </trkpt>
      <trkpt lat="45.79923" lon="1.8862">
        <ele>726.6</ele>
        <time>2026-07-09T10:14:43.000Z</time>
      </trkpt>
      <trkpt lat="45.79925" lon="1.88621">
        <ele>726.4</ele>
        <time>2026-07-09T10:14:44.000Z</time>
      </trkpt>
      <trkpt lat="45.79928" lon="1.88623">
        <ele>726.6</ele>
        <time>2026-07-09T10:14:45.000Z</time>
      </trkpt>
      <trkpt lat="45.7993" lon="1.88624">
        <ele>727.6</ele>
        <time>2026-07-09T10:14:46.000Z</time>
      </trkpt>
      <trkpt lat="45.79932" lon="1.88625">
        <ele>726.5</ele>
        <time>2026-07-09T10:14:47.000Z</time>
      </trkpt>
      <trkpt lat="45.79933" lon="1.88626">
        <ele>725.8</ele>
        <time>2026-07-09T10:14:48.000Z</time>
      </trkpt>
      <trkpt lat="45.79934" lon="1.88626">
        <ele>725.7</ele>
        <time>2026-07-09T10:14:49.000Z</time>
      </trkpt>
      <trkpt lat="45.79935" lon="1.88626">
        <ele>725.8</ele>
        <time>2026-07-09T10:14:50.000Z</time>
      </trkpt>
      <trkpt lat="45.79936" lon="1.88627">
        <ele>726.7</ele>
        <time>2026-07-09T10:14:51.000Z</time>
      </trkpt>
      <trkpt lat="45.79936" lon="1.88628">
        <ele>726</ele>
        <time>2026-07-09T10:14:52.000Z</time>
      </trkpt>
      <trkpt lat="45.79937" lon="1.88629">
        <ele>725.1</ele>
        <time>2026-07-09T10:14:53.000Z</time>
      </trkpt>
      <trkpt lat="45.79938" lon="1.88631">
        <ele>725.6</ele>
        <time>2026-07-09T10:14:54.000Z</time>
      </trkpt>
      <trkpt lat="45.79939" lon="1.88633">
        <ele>726.5</ele>
        <time>2026-07-09T10:14:55.000Z</time>
      </trkpt>
      <trkpt lat="45.7994" lon="1.88634">
        <ele>727.5</ele>
        <time>2026-07-09T10:14:56.000Z</time>
      </trkpt>
      <trkpt lat="45.79941" lon="1.88635">
        <ele>727.3</ele>
        <time>2026-07-09T10:14:57.000Z</time>
      </trkpt>
      <trkpt lat="45.79943" lon="1.88636">
        <ele>726.8</ele>
        <time>2026-07-09T10:14:58.000Z</time>
      </trkpt>
      <trkpt lat="45.79944" lon="1.88636">
        <ele>724.9</ele>
        <time>2026-07-09T10:14:59.000Z</time>
      </trkpt>
      <trkpt lat="45.79946" lon="1.88638">
        <ele>724.5</ele>
        <time>2026-07-09T10:15:00.000Z</time>
      </trkpt>
      <trkpt lat="45.79946" lon="1.88639">
        <ele>724</ele>
        <time>2026-07-09T10:15:01.000Z</time>
      </trkpt>
      <trkpt lat="45.79947" lon="1.8864">
        <ele>722.8</ele>
        <time>2026-07-09T10:15:02.000Z</time>
      </trkpt>
      <trkpt lat="45.79949" lon="1.88641">
        <ele>722.4</ele>
        <time>2026-07-09T10:15:03.000Z</time>
      </trkpt>
      <trkpt lat="45.79951" lon="1.88642">
        <ele>722.2</ele>
        <time>2026-07-09T10:15:04.000Z</time>
      </trkpt>
      <trkpt lat="45.79953" lon="1.88644">
        <ele>722.7</ele>
        <time>2026-07-09T10:15:05.000Z</time>
      </trkpt>
      <trkpt lat="45.79955" lon="1.88645">
        <ele>723</ele>
        <time>2026-07-09T10:15:06.000Z</time>
      </trkpt>
      <trkpt lat="45.79957" lon="1.88646">
        <ele>723.1</ele>
        <time>2026-07-09T10:15:07.000Z</time>
      </trkpt>
      <trkpt lat="45.79959" lon="1.88647">
        <ele>723.3</ele>
        <time>2026-07-09T10:15:08.000Z</time>
      </trkpt>
      <trkpt lat="45.79961" lon="1.88648">
        <ele>723.9</ele>
        <time>2026-07-09T10:15:09.000Z</time>
      </trkpt>
      <trkpt lat="45.79962" lon="1.88649">
        <ele>723.9</ele>
        <time>2026-07-09T10:15:10.000Z</time>
      </trkpt>
      <trkpt lat="45.79964" lon="1.88649">
        <ele>723.9</ele>
        <time>2026-07-09T10:15:11.000Z</time>
      </trkpt>
      <trkpt lat="45.79966" lon="1.8865">
        <ele>724</ele>
        <time>2026-07-09T10:15:12.000Z</time>
      </trkpt>
      <trkpt lat="45.79968" lon="1.88651">
        <ele>724.1</ele>
        <time>2026-07-09T10:15:13.000Z</time>
      </trkpt>
      <trkpt lat="45.79969" lon="1.88652">
        <ele>724.5</ele>
        <time>2026-07-09T10:15:14.000Z</time>
      </trkpt>
      <trkpt lat="45.79971" lon="1.88653">
        <ele>724.5</ele>
        <time>2026-07-09T10:15:15.000Z</time>
      </trkpt>
      <trkpt lat="45.79973" lon="1.88654">
        <ele>724.6</ele>
        <time>2026-07-09T10:15:16.000Z</time>
      </trkpt>
      <trkpt lat="45.79974" lon="1.88655">
        <ele>724.4</ele>
        <time>2026-07-09T10:15:17.000Z</time>
      </trkpt>
      <trkpt lat="45.79976" lon="1.88656">
        <ele>724.2</ele>
        <time>2026-07-09T10:15:18.000Z</time>
      </trkpt>
      <trkpt lat="45.79978" lon="1.88656">
        <ele>724.2</ele>
        <time>2026-07-09T10:15:19.000Z</time>
      </trkpt>
      <trkpt lat="45.7998" lon="1.88658">
        <ele>724.1</ele>
        <time>2026-07-09T10:15:20.000Z</time>
      </trkpt>
      <trkpt lat="45.79982" lon="1.88659">
        <ele>724.2</ele>
        <time>2026-07-09T10:15:21.000Z</time>
      </trkpt>
      <trkpt lat="45.79983" lon="1.8866">
        <ele>724</ele>
        <time>2026-07-09T10:15:22.000Z</time>
      </trkpt>
      <trkpt lat="45.79985" lon="1.8866">
        <ele>723.8</ele>
        <time>2026-07-09T10:15:23.000Z</time>
      </trkpt>
      <trkpt lat="45.79986" lon="1.8866">
        <ele>723</ele>
        <time>2026-07-09T10:15:24.000Z</time>
      </trkpt>
      <trkpt lat="45.79989" lon="1.88659">
        <ele>723.3</ele>
        <time>2026-07-09T10:15:25.000Z</time>
      </trkpt>
      <trkpt lat="45.79991" lon="1.88659">
        <ele>723.8</ele>
        <time>2026-07-09T10:15:26.000Z</time>
      </trkpt>
      <trkpt lat="45.79992" lon="1.88659">
        <ele>723.7</ele>
        <time>2026-07-09T10:15:27.000Z</time>
      </trkpt>
      <trkpt lat="45.79994" lon="1.88659">
        <ele>723.4</ele>
        <time>2026-07-09T10:15:28.000Z</time>
      </trkpt>
      <trkpt lat="45.79995" lon="1.8866">
        <ele>723.4</ele>
        <time>2026-07-09T10:15:29.000Z</time>
      </trkpt>
      <trkpt lat="45.79996" lon="1.8866">
        <ele>723.1</ele>
        <time>2026-07-09T10:15:30.000Z</time>
      </trkpt>
      <trkpt lat="45.79998" lon="1.8866">
        <ele>722.5</ele>
        <time>2026-07-09T10:15:31.000Z</time>
      </trkpt>
      <trkpt lat="45.79998" lon="1.88661">
        <ele>722.4</ele>
        <time>2026-07-09T10:15:32.000Z</time>
      </trkpt>
      <trkpt lat="45.79999" lon="1.88662">
        <ele>723.5</ele>
        <time>2026-07-09T10:15:33.000Z</time>
      </trkpt>
      <trkpt lat="45.79999" lon="1.88662">
        <ele>723.6</ele>
        <time>2026-07-09T10:15:34.000Z</time>
      </trkpt>
      <trkpt lat="45.79999" lon="1.88662">
        <ele>723.6</ele>
        <time>2026-07-09T10:15:35.000Z</time>
      </trkpt>
      <trkpt lat="45.8" lon="1.88664">
        <ele>725.8</ele>
        <time>2026-07-09T10:15:36.000Z</time>
      </trkpt>
      <trkpt lat="45.80002" lon="1.88665">
        <ele>725.9</ele>
        <time>2026-07-09T10:15:37.000Z</time>
      </trkpt>
      <trkpt lat="45.80004" lon="1.88665">
        <ele>725.2</ele>
        <time>2026-07-09T10:15:38.000Z</time>
      </trkpt>
      <trkpt lat="45.80005" lon="1.88665">
        <ele>724</ele>
        <time>2026-07-09T10:15:39.000Z</time>
      </trkpt>
      <trkpt lat="45.80007" lon="1.88666">
        <ele>723.5</ele>
        <time>2026-07-09T10:15:40.000Z</time>
      </trkpt>
      <trkpt lat="45.80007" lon="1.88666">
        <ele>723.5</ele>
        <time>2026-07-09T10:15:41.000Z</time>
      </trkpt>
      <trkpt lat="45.80009" lon="1.88667">
        <ele>724</ele>
        <time>2026-07-09T10:15:42.000Z</time>
      </trkpt>
      <trkpt lat="45.80009" lon="1.88669">
        <ele>725.7</ele>
        <time>2026-07-09T10:15:43.000Z</time>
      </trkpt>
      <trkpt lat="45.80009" lon="1.88669">
        <ele>725.2</ele>
        <time>2026-07-09T10:15:44.000Z</time>
      </trkpt>
      <trkpt lat="45.80009" lon="1.88669">
        <ele>725.2</ele>
        <time>2026-07-09T10:15:45.000Z</time>
      </trkpt>
      <trkpt lat="45.80009" lon="1.88669">
        <ele>725.2</ele>
        <time>2026-07-09T10:15:46.000Z</time>
      </trkpt>
      <trkpt lat="45.80009" lon="1.88669">
        <ele>725.2</ele>
        <time>2026-07-09T10:15:47.000Z</time>
      </trkpt>
      <trkpt lat="45.80009" lon="1.88669">
        <ele>725.2</ele>
        <time>2026-07-09T10:15:48.000Z</time>
      </trkpt>
      <trkpt lat="45.80009" lon="1.88669">
        <ele>725.2</ele>
        <time>2026-07-09T10:15:49.000Z</time>
      </trkpt>
      <trkpt lat="45.80009" lon="1.88669">
        <ele>725.2</ele>
        <time>2026-07-09T10:15:50.000Z</time>
      </trkpt>
      <trkpt lat="45.80009" lon="1.88669">
        <ele>725.7</ele>
        <time>2026-07-09T10:15:51.000Z</time>
      </trkpt>
      <trkpt lat="45.80009" lon="1.88669">
        <ele>725.7</ele>
        <time>2026-07-09T10:15:52.000Z</time>
      </trkpt>
      <trkpt lat="45.80009" lon="1.88669">
        <ele>725.7</ele>
        <time>2026-07-09T10:15:53.000Z</time>
      </trkpt>
      <trkpt lat="45.8001" lon="1.88669">
        <ele>725.8</ele>
        <time>2026-07-09T10:15:54.000Z</time>
      </trkpt>
      <trkpt lat="45.8001" lon="1.88669">
        <ele>725.8</ele>
        <time>2026-07-09T10:15:55.000Z</time>
      </trkpt>
      <trkpt lat="45.80011" lon="1.88671">
        <ele>726.4</ele>
        <time>2026-07-09T10:15:56.000Z</time>
      </trkpt>
      <trkpt lat="45.80012" lon="1.8867">
        <ele>726.4</ele>
        <time>2026-07-09T10:15:57.000Z</time>
      </trkpt>
      <trkpt lat="45.80014" lon="1.8867">
        <ele>726.3</ele>
        <time>2026-07-09T10:15:58.000Z</time>
      </trkpt>
      <trkpt lat="45.80015" lon="1.88672">
        <ele>727.1</ele>
        <time>2026-07-09T10:15:59.000Z</time>
      </trkpt>
      <trkpt lat="45.80015" lon="1.88673">
        <ele>726.8</ele>
        <time>2026-07-09T10:16:00.000Z</time>
      </trkpt>
      <trkpt lat="45.80016" lon="1.88674">
        <ele>727.3</ele>
        <time>2026-07-09T10:16:01.000Z</time>
      </trkpt>
      <trkpt lat="45.80016" lon="1.88674">
        <ele>727.3</ele>
        <time>2026-07-09T10:16:02.000Z</time>
      </trkpt>
      <trkpt lat="45.80016" lon="1.88674">
        <ele>726.7</ele>
        <time>2026-07-09T10:16:03.000Z</time>
      </trkpt>
      <trkpt lat="45.80016" lon="1.88673">
        <ele>726.7</ele>
        <time>2026-07-09T10:16:04.000Z</time>
      </trkpt>
      <trkpt lat="45.80016" lon="1.88673">
        <ele>726.7</ele>
        <time>2026-07-09T10:16:05.000Z</time>
      </trkpt>
      <trkpt lat="45.80017" lon="1.88673">
        <ele>726.4</ele>
        <time>2026-07-09T10:16:06.000Z</time>
      </trkpt>
      <trkpt lat="45.80018" lon="1.88674">
        <ele>726.2</ele>
        <time>2026-07-09T10:16:07.000Z</time>
      </trkpt>
      <trkpt lat="45.80019" lon="1.88674">
        <ele>726.5</ele>
        <time>2026-07-09T10:16:08.000Z</time>
      </trkpt>
      <trkpt lat="45.8002" lon="1.88673">
        <ele>726.4</ele>
        <time>2026-07-09T10:16:09.000Z</time>
      </trkpt>
      <trkpt lat="45.80021" lon="1.88673">
        <ele>726.3</ele>
        <time>2026-07-09T10:16:10.000Z</time>
      </trkpt>
      <trkpt lat="45.80022" lon="1.88672">
        <ele>726.2</ele>
        <time>2026-07-09T10:16:11.000Z</time>
      </trkpt>
      <trkpt lat="45.80023" lon="1.88671">
        <ele>726.5</ele>
        <time>2026-07-09T10:16:12.000Z</time>
      </trkpt>
      <trkpt lat="45.80025" lon="1.88671">
        <ele>726.9</ele>
        <time>2026-07-09T10:16:13.000Z</time>
      </trkpt>
      <trkpt lat="45.80025" lon="1.88671">
        <ele>726.8</ele>
        <time>2026-07-09T10:16:14.000Z</time>
      </trkpt>
      <trkpt lat="45.80025" lon="1.88671">
        <ele>727</ele>
        <time>2026-07-09T10:16:15.000Z</time>
      </trkpt>
      <trkpt lat="45.80032" lon="1.88643">
        <ele>722.8</ele>
        <time>2026-07-09T10:16:45.000Z</time>
      </trkpt>
      <trkpt lat="45.80033" lon="1.8864">
        <ele>723</ele>
        <time>2026-07-09T10:16:46.000Z</time>
      </trkpt>
      <trkpt lat="45.80033" lon="1.88637">
        <ele>723.2</ele>
        <time>2026-07-09T10:16:47.000Z</time>
      </trkpt>
      <trkpt lat="45.80034" lon="1.88635">
        <ele>723.1</ele>
        <time>2026-07-09T10:16:48.000Z</time>
      </trkpt>
      <trkpt lat="45.80035" lon="1.88632">
        <ele>723.6</ele>
        <time>2026-07-09T10:16:49.000Z</time>
      </trkpt>
      <trkpt lat="45.80036" lon="1.8863">
        <ele>722.9</ele>
        <time>2026-07-09T10:16:50.000Z</time>
      </trkpt>
      <trkpt lat="45.80037" lon="1.88628">
        <ele>722.9</ele>
        <time>2026-07-09T10:16:51.000Z</time>
      </trkpt>
      <trkpt lat="45.80038" lon="1.88625">
        <ele>723.1</ele>
        <time>2026-07-09T10:16:52.000Z</time>
      </trkpt>
      <trkpt lat="45.80039" lon="1.88623">
        <ele>722.9</ele>
        <time>2026-07-09T10:16:53.000Z</time>
      </trkpt>
      <trkpt lat="45.80039" lon="1.88621">
        <ele>723</ele>
        <time>2026-07-09T10:16:54.000Z</time>
      </trkpt>
      <trkpt lat="45.8004" lon="1.88618">
        <ele>723.1</ele>
        <time>2026-07-09T10:16:55.000Z</time>
      </trkpt>
      <trkpt lat="45.80041" lon="1.88616">
        <ele>723.2</ele>
        <time>2026-07-09T10:16:56.000Z</time>
      </trkpt>
      <trkpt lat="45.80042" lon="1.88614">
        <ele>723</ele>
        <time>2026-07-09T10:16:57.000Z</time>
      </trkpt>
      <trkpt lat="45.80043" lon="1.88612">
        <ele>722.6</ele>
        <time>2026-07-09T10:16:58.000Z</time>
      </trkpt>
      <trkpt lat="45.80044" lon="1.8861">
        <ele>722.5</ele>
        <time>2026-07-09T10:16:59.000Z</time>
      </trkpt>
      <trkpt lat="45.80045" lon="1.88609">
        <ele>723.7</ele>
        <time>2026-07-09T10:17:00.000Z</time>
      </trkpt>
      <trkpt lat="45.80046" lon="1.88607">
        <ele>724.8</ele>
        <time>2026-07-09T10:17:01.000Z</time>
      </trkpt>
      <trkpt lat="45.80047" lon="1.88606">
        <ele>724.4</ele>
        <time>2026-07-09T10:17:02.000Z</time>
      </trkpt>
      <trkpt lat="45.80048" lon="1.88604">
        <ele>724.5</ele>
        <time>2026-07-09T10:17:03.000Z</time>
      </trkpt>
      <trkpt lat="45.8005" lon="1.88603">
        <ele>725</ele>
        <time>2026-07-09T10:17:04.000Z</time>
      </trkpt>
      <trkpt lat="45.80051" lon="1.88601">
        <ele>725.3</ele>
        <time>2026-07-09T10:17:05.000Z</time>
      </trkpt>
      <trkpt lat="45.80052" lon="1.88599">
        <ele>724.9</ele>
        <time>2026-07-09T10:17:06.000Z</time>
      </trkpt>
      <trkpt lat="45.80053" lon="1.88598">
        <ele>724.3</ele>
        <time>2026-07-09T10:17:07.000Z</time>
      </trkpt>
      <trkpt lat="45.80054" lon="1.88596">
        <ele>724</ele>
        <time>2026-07-09T10:17:08.000Z</time>
      </trkpt>
      <trkpt lat="45.80055" lon="1.88595">
        <ele>724.1</ele>
        <time>2026-07-09T10:17:09.000Z</time>
      </trkpt>
      <trkpt lat="45.80056" lon="1.88593">
        <ele>724.6</ele>
        <time>2026-07-09T10:17:10.000Z</time>
      </trkpt>
      <trkpt lat="45.80058" lon="1.88592">
        <ele>724</ele>
        <time>2026-07-09T10:17:11.000Z</time>
      </trkpt>
      <trkpt lat="45.8006" lon="1.88591">
        <ele>724</ele>
        <time>2026-07-09T10:17:12.000Z</time>
      </trkpt>
      <trkpt lat="45.80061" lon="1.88589">
        <ele>723.7</ele>
        <time>2026-07-09T10:17:13.000Z</time>
      </trkpt>
      <trkpt lat="45.80063" lon="1.88588">
        <ele>723.4</ele>
        <time>2026-07-09T10:17:14.000Z</time>
      </trkpt>
      <trkpt lat="45.80065" lon="1.88586">
        <ele>723.4</ele>
        <time>2026-07-09T10:17:15.000Z</time>
      </trkpt>
      <trkpt lat="45.80066" lon="1.88584">
        <ele>724.2</ele>
        <time>2026-07-09T10:17:16.000Z</time>
      </trkpt>
      <trkpt lat="45.80067" lon="1.88584">
        <ele>724.9</ele>
        <time>2026-07-09T10:17:17.000Z</time>
      </trkpt>
      <trkpt lat="45.80068" lon="1.88582">
        <ele>725.8</ele>
        <time>2026-07-09T10:17:18.000Z</time>
      </trkpt>
      <trkpt lat="45.80069" lon="1.88581">
        <ele>725.6</ele>
        <time>2026-07-09T10:17:19.000Z</time>
      </trkpt>
      <trkpt lat="45.80071" lon="1.8858">
        <ele>725.6</ele>
        <time>2026-07-09T10:17:20.000Z</time>
      </trkpt>
      <trkpt lat="45.80072" lon="1.88579">
        <ele>724.6</ele>
        <time>2026-07-09T10:17:21.000Z</time>
      </trkpt>
      <trkpt lat="45.80073" lon="1.88578">
        <ele>725.1</ele>
        <time>2026-07-09T10:17:22.000Z</time>
      </trkpt>
      <trkpt lat="45.80074" lon="1.88577">
        <ele>725</ele>
        <time>2026-07-09T10:17:23.000Z</time>
      </trkpt>
      <trkpt lat="45.80075" lon="1.88576">
        <ele>724.8</ele>
        <time>2026-07-09T10:17:24.000Z</time>
      </trkpt>
      <trkpt lat="45.80077" lon="1.88575">
        <ele>724.9</ele>
        <time>2026-07-09T10:17:25.000Z</time>
      </trkpt>
      <trkpt lat="45.80079" lon="1.88574">
        <ele>724</ele>
        <time>2026-07-09T10:17:26.000Z</time>
      </trkpt>
      <trkpt lat="45.8008" lon="1.88573">
        <ele>723.5</ele>
        <time>2026-07-09T10:17:27.000Z</time>
      </trkpt>
      <trkpt lat="45.80082" lon="1.88573">
        <ele>724.2</ele>
        <time>2026-07-09T10:17:28.000Z</time>
      </trkpt>
      <trkpt lat="45.80084" lon="1.88573">
        <ele>724.2</ele>
        <time>2026-07-09T10:17:29.000Z</time>
      </trkpt>
      <trkpt lat="45.80086" lon="1.88573">
        <ele>724.3</ele>
        <time>2026-07-09T10:17:30.000Z</time>
      </trkpt>
      <trkpt lat="45.80087" lon="1.88574">
        <ele>724.6</ele>
        <time>2026-07-09T10:17:31.000Z</time>
      </trkpt>
      <trkpt lat="45.80089" lon="1.88573">
        <ele>724.2</ele>
        <time>2026-07-09T10:17:32.000Z</time>
      </trkpt>
      <trkpt lat="45.80091" lon="1.88573">
        <ele>723.8</ele>
        <time>2026-07-09T10:17:33.000Z</time>
      </trkpt>
      <trkpt lat="45.80092" lon="1.88573">
        <ele>725.9</ele>
        <time>2026-07-09T10:17:34.000Z</time>
      </trkpt>
      <trkpt lat="45.80094" lon="1.88573">
        <ele>725.8</ele>
        <time>2026-07-09T10:17:35.000Z</time>
      </trkpt>
      <trkpt lat="45.80096" lon="1.88573">
        <ele>725.4</ele>
        <time>2026-07-09T10:17:36.000Z</time>
      </trkpt>
      <trkpt lat="45.80098" lon="1.88572">
        <ele>726.1</ele>
        <time>2026-07-09T10:17:37.000Z</time>
      </trkpt>
      <trkpt lat="45.801" lon="1.88571">
        <ele>726.5</ele>
        <time>2026-07-09T10:17:38.000Z</time>
      </trkpt>
      <trkpt lat="45.80102" lon="1.8857">
        <ele>727.2</ele>
        <time>2026-07-09T10:17:39.000Z</time>
      </trkpt>
      <trkpt lat="45.80105" lon="1.88569">
        <ele>727</ele>
        <time>2026-07-09T10:17:40.000Z</time>
      </trkpt>
      <trkpt lat="45.80107" lon="1.88568">
        <ele>725.4</ele>
        <time>2026-07-09T10:17:41.000Z</time>
      </trkpt>
      <trkpt lat="45.8011" lon="1.88567">
        <ele>724.2</ele>
        <time>2026-07-09T10:17:42.000Z</time>
      </trkpt>
      <trkpt lat="45.80114" lon="1.88567">
        <ele>723.6</ele>
        <time>2026-07-09T10:17:43.000Z</time>
      </trkpt>
      <trkpt lat="45.80118" lon="1.88566">
        <ele>722.5</ele>
        <time>2026-07-09T10:17:44.000Z</time>
      </trkpt>
      <trkpt lat="45.80124" lon="1.88567">
        <ele>722.2</ele>
        <time>2026-07-09T10:17:45.000Z</time>
      </trkpt>
      <trkpt lat="45.8013" lon="1.88567">
        <ele>722</ele>
        <time>2026-07-09T10:17:46.000Z</time>
      </trkpt>
      <trkpt lat="45.80135" lon="1.88567">
        <ele>722.9</ele>
        <time>2026-07-09T10:17:47.000Z</time>
      </trkpt>
      <trkpt lat="45.80141" lon="1.88567">
        <ele>723.1</ele>
        <time>2026-07-09T10:17:48.000Z</time>
      </trkpt>
      <trkpt lat="45.80147" lon="1.88566">
        <ele>723.1</ele>
        <time>2026-07-09T10:17:49.000Z</time>
      </trkpt>
      <trkpt lat="45.80154" lon="1.88566">
        <ele>724</ele>
        <time>2026-07-09T10:17:50.000Z</time>
      </trkpt>
      <trkpt lat="45.80161" lon="1.88566">
        <ele>724.3</ele>
        <time>2026-07-09T10:17:51.000Z</time>
      </trkpt>
      <trkpt lat="45.80168" lon="1.88564">
        <ele>724.1</ele>
        <time>2026-07-09T10:17:52.000Z</time>
      </trkpt>
      <trkpt lat="45.80173" lon="1.88563">
        <ele>724.9</ele>
        <time>2026-07-09T10:17:53.000Z</time>
      </trkpt>
      <trkpt lat="45.80178" lon="1.88562">
        <ele>725.2</ele>
        <time>2026-07-09T10:17:54.000Z</time>
      </trkpt>
      <trkpt lat="45.80182" lon="1.88562">
        <ele>726.6</ele>
        <time>2026-07-09T10:17:55.000Z</time>
      </trkpt>
      <trkpt lat="45.80187" lon="1.88562">
        <ele>728.2</ele>
        <time>2026-07-09T10:17:56.000Z</time>
      </trkpt>
      <trkpt lat="45.80192" lon="1.88563">
        <ele>727.8</ele>
        <time>2026-07-09T10:17:57.000Z</time>
      </trkpt>
      <trkpt lat="45.80197" lon="1.88564">
        <ele>728.2</ele>
        <time>2026-07-09T10:17:58.000Z</time>
      </trkpt>
      <trkpt lat="45.80203" lon="1.88566">
        <ele>728.1</ele>
        <time>2026-07-09T10:17:59.000Z</time>
      </trkpt>
      <trkpt lat="45.80207" lon="1.88569">
        <ele>727.8</ele>
        <time>2026-07-09T10:18:00.000Z</time>
      </trkpt>
      <trkpt lat="45.80212" lon="1.88573">
        <ele>728.1</ele>
        <time>2026-07-09T10:18:01.000Z</time>
      </trkpt>
      <trkpt lat="45.80217" lon="1.88575">
        <ele>728.4</ele>
        <time>2026-07-09T10:18:02.000Z</time>
      </trkpt>
      <trkpt lat="45.80223" lon="1.88577">
        <ele>729.5</ele>
        <time>2026-07-09T10:18:03.000Z</time>
      </trkpt>
      <trkpt lat="45.80229" lon="1.88578">
        <ele>729.5</ele>
        <time>2026-07-09T10:18:04.000Z</time>
      </trkpt>
      <trkpt lat="45.80235" lon="1.88578">
        <ele>729.6</ele>
        <time>2026-07-09T10:18:05.000Z</time>
      </trkpt>
      <trkpt lat="45.80241" lon="1.88579">
        <ele>730.3</ele>
        <time>2026-07-09T10:18:06.000Z</time>
      </trkpt>
      <trkpt lat="45.80247" lon="1.88578">
        <ele>731</ele>
        <time>2026-07-09T10:18:07.000Z</time>
      </trkpt>
      <trkpt lat="45.80252" lon="1.88578">
        <ele>731.7</ele>
        <time>2026-07-09T10:18:08.000Z</time>
      </trkpt>
      <trkpt lat="45.80258" lon="1.88577">
        <ele>732.5</ele>
        <time>2026-07-09T10:18:09.000Z</time>
      </trkpt>
      <trkpt lat="45.80263" lon="1.88576">
        <ele>732.3</ele>
        <time>2026-07-09T10:18:10.000Z</time>
      </trkpt>
      <trkpt lat="45.80269" lon="1.88573">
        <ele>731.9</ele>
        <time>2026-07-09T10:18:11.000Z</time>
      </trkpt>
      <trkpt lat="45.80274" lon="1.88571">
        <ele>733.1</ele>
        <time>2026-07-09T10:18:12.000Z</time>
      </trkpt>
      <trkpt lat="45.80279" lon="1.88568">
        <ele>733.7</ele>
        <time>2026-07-09T10:18:13.000Z</time>
      </trkpt>
      <trkpt lat="45.80285" lon="1.88565">
        <ele>733.7</ele>
        <time>2026-07-09T10:18:14.000Z</time>
      </trkpt>
      <trkpt lat="45.8029" lon="1.88561">
        <ele>734.3</ele>
        <time>2026-07-09T10:18:15.000Z</time>
      </trkpt>
      <trkpt lat="45.80295" lon="1.88559">
        <ele>734.3</ele>
        <time>2026-07-09T10:18:16.000Z</time>
      </trkpt>
      <trkpt lat="45.80299" lon="1.88558">
        <ele>734.2</ele>
        <time>2026-07-09T10:18:17.000Z</time>
      </trkpt>
      <trkpt lat="45.80303" lon="1.88555">
        <ele>733.7</ele>
        <time>2026-07-09T10:18:18.000Z</time>
      </trkpt>
      <trkpt lat="45.80308" lon="1.88553">
        <ele>734.3</ele>
        <time>2026-07-09T10:18:19.000Z</time>
      </trkpt>
      <trkpt lat="45.80313" lon="1.8855">
        <ele>734.7</ele>
        <time>2026-07-09T10:18:20.000Z</time>
      </trkpt>
      <trkpt lat="45.80317" lon="1.88547">
        <ele>733.7</ele>
        <time>2026-07-09T10:18:21.000Z</time>
      </trkpt>
      <trkpt lat="45.8032" lon="1.88544">
        <ele>730.4</ele>
        <time>2026-07-09T10:18:22.000Z</time>
      </trkpt>
      <trkpt lat="45.80324" lon="1.88541">
        <ele>730.5</ele>
        <time>2026-07-09T10:18:23.000Z</time>
      </trkpt>
      <trkpt lat="45.80328" lon="1.88539">
        <ele>730.4</ele>
        <time>2026-07-09T10:18:24.000Z</time>
      </trkpt>
      <trkpt lat="45.80333" lon="1.88536">
        <ele>730.7</ele>
        <time>2026-07-09T10:18:25.000Z</time>
      </trkpt>
      <trkpt lat="45.80338" lon="1.88534">
        <ele>729.4</ele>
        <time>2026-07-09T10:18:26.000Z</time>
      </trkpt>
      <trkpt lat="45.80341" lon="1.88531">
        <ele>729.1</ele>
        <time>2026-07-09T10:18:27.000Z</time>
      </trkpt>
      <trkpt lat="45.80345" lon="1.88528">
        <ele>729.2</ele>
        <time>2026-07-09T10:18:28.000Z</time>
      </trkpt>
      <trkpt lat="45.80349" lon="1.88526">
        <ele>729.8</ele>
        <time>2026-07-09T10:18:29.000Z</time>
      </trkpt>
      <trkpt lat="45.80353" lon="1.88524">
        <ele>728</ele>
        <time>2026-07-09T10:18:30.000Z</time>
      </trkpt>
      <trkpt lat="45.80356" lon="1.88522">
        <ele>728.7</ele>
        <time>2026-07-09T10:18:31.000Z</time>
      </trkpt>
      <trkpt lat="45.80359" lon="1.88521">
        <ele>728.4</ele>
        <time>2026-07-09T10:18:32.000Z</time>
      </trkpt>
      <trkpt lat="45.80362" lon="1.88519">
        <ele>728.3</ele>
        <time>2026-07-09T10:18:33.000Z</time>
      </trkpt>
      <trkpt lat="45.80365" lon="1.88517">
        <ele>728.8</ele>
        <time>2026-07-09T10:18:34.000Z</time>
      </trkpt>
      <trkpt lat="45.80369" lon="1.88515">
        <ele>728.5</ele>
        <time>2026-07-09T10:18:35.000Z</time>
      </trkpt>
      <trkpt lat="45.80372" lon="1.88512">
        <ele>727.4</ele>
        <time>2026-07-09T10:18:36.000Z</time>
      </trkpt>
      <trkpt lat="45.80375" lon="1.8851">
        <ele>726.4</ele>
        <time>2026-07-09T10:18:37.000Z</time>
      </trkpt>
      <trkpt lat="45.8038" lon="1.88506">
        <ele>725.6</ele>
        <time>2026-07-09T10:18:38.000Z</time>
      </trkpt>
      <trkpt lat="45.80386" lon="1.88504">
        <ele>724.7</ele>
        <time>2026-07-09T10:18:39.000Z</time>
      </trkpt>
      <trkpt lat="45.80393" lon="1.88501">
        <ele>725.5</ele>
        <time>2026-07-09T10:18:40.000Z</time>
      </trkpt>
      <trkpt lat="45.80399" lon="1.88498">
        <ele>727.6</ele>
        <time>2026-07-09T10:18:41.000Z</time>
      </trkpt>
      <trkpt lat="45.80405" lon="1.88496">
        <ele>729.2</ele>
        <time>2026-07-09T10:18:42.000Z</time>
      </trkpt>
      <trkpt lat="45.80411" lon="1.88492">
        <ele>730.3</ele>
        <time>2026-07-09T10:18:43.000Z</time>
      </trkpt>
      <trkpt lat="45.80416" lon="1.8849">
        <ele>731.9</ele>
        <time>2026-07-09T10:18:44.000Z</time>
      </trkpt>
      <trkpt lat="45.80421" lon="1.88487">
        <ele>732.7</ele>
        <time>2026-07-09T10:18:45.000Z</time>
      </trkpt>
      <trkpt lat="45.80425" lon="1.88484">
        <ele>735.4</ele>
        <time>2026-07-09T10:18:46.000Z</time>
      </trkpt>
      <trkpt lat="45.80429" lon="1.8848">
        <ele>736.7</ele>
        <time>2026-07-09T10:18:47.000Z</time>
      </trkpt>
      <trkpt lat="45.80432" lon="1.88477">
        <ele>736.7</ele>
        <time>2026-07-09T10:18:48.000Z</time>
      </trkpt>
      <trkpt lat="45.80436" lon="1.88474">
        <ele>737.4</ele>
        <time>2026-07-09T10:18:49.000Z</time>
      </trkpt>
      <trkpt lat="45.80438" lon="1.88472">
        <ele>735.3</ele>
        <time>2026-07-09T10:18:50.000Z</time>
      </trkpt>
      <trkpt lat="45.80439" lon="1.88471">
        <ele>735.1</ele>
        <time>2026-07-09T10:18:51.000Z</time>
      </trkpt>
      <trkpt lat="45.8044" lon="1.88468">
        <ele>733.6</ele>
        <time>2026-07-09T10:18:52.000Z</time>
      </trkpt>
      <trkpt lat="45.80441" lon="1.88466">
        <ele>731.3</ele>
        <time>2026-07-09T10:18:53.000Z</time>
      </trkpt>
      <trkpt lat="45.80442" lon="1.88463">
        <ele>729.4</ele>
        <time>2026-07-09T10:18:54.000Z</time>
      </trkpt>
      <trkpt lat="45.80444" lon="1.8846">
        <ele>728.4</ele>
        <time>2026-07-09T10:18:55.000Z</time>
      </trkpt>
      <trkpt lat="45.80447" lon="1.88457">
        <ele>728.2</ele>
        <time>2026-07-09T10:18:56.000Z</time>
      </trkpt>
      <trkpt lat="45.8045" lon="1.88456">
        <ele>727</ele>
        <time>2026-07-09T10:18:57.000Z</time>
      </trkpt>
      <trkpt lat="45.80452" lon="1.88454">
        <ele>727.6</ele>
        <time>2026-07-09T10:18:58.000Z</time>
      </trkpt>
      <trkpt lat="45.80454" lon="1.88452">
        <ele>725.9</ele>
        <time>2026-07-09T10:18:59.000Z</time>
      </trkpt>
      <trkpt lat="45.80457" lon="1.8845">
        <ele>724.9</ele>
        <time>2026-07-09T10:19:00.000Z</time>
      </trkpt>
      <trkpt lat="45.80459" lon="1.88449">
        <ele>725.7</ele>
        <time>2026-07-09T10:19:01.000Z</time>
      </trkpt>
      <trkpt lat="45.80461" lon="1.88447">
        <ele>726.1</ele>
        <time>2026-07-09T10:19:02.000Z</time>
      </trkpt>
      <trkpt lat="45.80462" lon="1.88446">
        <ele>724.8</ele>
        <time>2026-07-09T10:19:03.000Z</time>
      </trkpt>
      <trkpt lat="45.80463" lon="1.88445">
        <ele>725</ele>
        <time>2026-07-09T10:19:04.000Z</time>
      </trkpt>
      <trkpt lat="45.80464" lon="1.88445">
        <ele>724.4</ele>
        <time>2026-07-09T10:19:05.000Z</time>
      </trkpt>
      <trkpt lat="45.80465" lon="1.88445">
        <ele>725.5</ele>
        <time>2026-07-09T10:19:06.000Z</time>
      </trkpt>
      <trkpt lat="45.80467" lon="1.88444">
        <ele>725.6</ele>
        <time>2026-07-09T10:19:07.000Z</time>
      </trkpt>
      <trkpt lat="45.80468" lon="1.88443">
        <ele>725.6</ele>
        <time>2026-07-09T10:19:08.000Z</time>
      </trkpt>
      <trkpt lat="45.80469" lon="1.88443">
        <ele>724.3</ele>
        <time>2026-07-09T10:19:09.000Z</time>
      </trkpt>
      <trkpt lat="45.80471" lon="1.88442">
        <ele>724.2</ele>
        <time>2026-07-09T10:19:10.000Z</time>
      </trkpt>
      <trkpt lat="45.80472" lon="1.88442">
        <ele>723.6</ele>
        <time>2026-07-09T10:19:11.000Z</time>
      </trkpt>
      <trkpt lat="45.80473" lon="1.88441">
        <ele>723.2</ele>
        <time>2026-07-09T10:19:12.000Z</time>
      </trkpt>
      <trkpt lat="45.80475" lon="1.88439">
        <ele>723</ele>
        <time>2026-07-09T10:19:13.000Z</time>
      </trkpt>
      <trkpt lat="45.80476" lon="1.88438">
        <ele>722.1</ele>
        <time>2026-07-09T10:19:14.000Z</time>
      </trkpt>
      <trkpt lat="45.80478" lon="1.88437">
        <ele>721.6</ele>
        <time>2026-07-09T10:19:15.000Z</time>
      </trkpt>
      <trkpt lat="45.8048" lon="1.88436">
        <ele>721.5</ele>
        <time>2026-07-09T10:19:16.000Z</time>
      </trkpt>
      <trkpt lat="45.80482" lon="1.88435">
        <ele>720</ele>
        <time>2026-07-09T10:19:17.000Z</time>
      </trkpt>
      <trkpt lat="45.80484" lon="1.88434">
        <ele>720.3</ele>
        <time>2026-07-09T10:19:18.000Z</time>
      </trkpt>
      <trkpt lat="45.80485" lon="1.88434">
        <ele>720</ele>
        <time>2026-07-09T10:19:19.000Z</time>
      </trkpt>
      <trkpt lat="45.80487" lon="1.88434">
        <ele>719.5</ele>
        <time>2026-07-09T10:19:20.000Z</time>
      </trkpt>
      <trkpt lat="45.80489" lon="1.88433">
        <ele>719.1</ele>
        <time>2026-07-09T10:19:21.000Z</time>
      </trkpt>
      <trkpt lat="45.80491" lon="1.88433">
        <ele>718.9</ele>
        <time>2026-07-09T10:19:22.000Z</time>
      </trkpt>
      <trkpt lat="45.80493" lon="1.88432">
        <ele>718</ele>
        <time>2026-07-09T10:19:23.000Z</time>
      </trkpt>
      <trkpt lat="45.80495" lon="1.88431">
        <ele>718.5</ele>
        <time>2026-07-09T10:19:24.000Z</time>
      </trkpt>
      <trkpt lat="45.80497" lon="1.8843">
        <ele>718.3</ele>
        <time>2026-07-09T10:19:25.000Z</time>
      </trkpt>
      <trkpt lat="45.80498" lon="1.88427">
        <ele>720.2</ele>
        <time>2026-07-09T10:19:26.000Z</time>
      </trkpt>
      <trkpt lat="45.80499" lon="1.88424">
        <ele>720</ele>
        <time>2026-07-09T10:19:27.000Z</time>
      </trkpt>
      <trkpt lat="45.80501" lon="1.88423">
        <ele>721.1</ele>
        <time>2026-07-09T10:19:28.000Z</time>
      </trkpt>
      <trkpt lat="45.80503" lon="1.88421">
        <ele>721.7</ele>
        <time>2026-07-09T10:19:29.000Z</time>
      </trkpt>
      <trkpt lat="45.80505" lon="1.8842">
        <ele>722.1</ele>
        <time>2026-07-09T10:19:30.000Z</time>
      </trkpt>
      <trkpt lat="45.80508" lon="1.88419">
        <ele>722.2</ele>
        <time>2026-07-09T10:19:31.000Z</time>
      </trkpt>
      <trkpt lat="45.8051" lon="1.88419">
        <ele>722</ele>
        <time>2026-07-09T10:19:32.000Z</time>
      </trkpt>
      <trkpt lat="45.80512" lon="1.88419">
        <ele>721.8</ele>
        <time>2026-07-09T10:19:33.000Z</time>
      </trkpt>
      <trkpt lat="45.80513" lon="1.88418">
        <ele>722.2</ele>
        <time>2026-07-09T10:19:34.000Z</time>
      </trkpt>
      <trkpt lat="45.80516" lon="1.88417">
        <ele>722</ele>
        <time>2026-07-09T10:19:35.000Z</time>
      </trkpt>
      <trkpt lat="45.80518" lon="1.88416">
        <ele>722.1</ele>
        <time>2026-07-09T10:19:36.000Z</time>
      </trkpt>
      <trkpt lat="45.80521" lon="1.88415">
        <ele>721.9</ele>
        <time>2026-07-09T10:19:37.000Z</time>
      </trkpt>
      <trkpt lat="45.80523" lon="1.88414">
        <ele>721.4</ele>
        <time>2026-07-09T10:19:38.000Z</time>
      </trkpt>
      <trkpt lat="45.80525" lon="1.88412">
        <ele>720.9</ele>
        <time>2026-07-09T10:19:39.000Z</time>
      </trkpt>
      <trkpt lat="45.80527" lon="1.8841">
        <ele>720.1</ele>
        <time>2026-07-09T10:19:40.000Z</time>
      </trkpt>
      <trkpt lat="45.80528" lon="1.88407">
        <ele>719.8</ele>
        <time>2026-07-09T10:19:41.000Z</time>
      </trkpt>
      <trkpt lat="45.8053" lon="1.88406">
        <ele>719.9</ele>
        <time>2026-07-09T10:19:42.000Z</time>
      </trkpt>
      <trkpt lat="45.80531" lon="1.88405">
        <ele>720.5</ele>
        <time>2026-07-09T10:19:43.000Z</time>
      </trkpt>
      <trkpt lat="45.80533" lon="1.88407">
        <ele>720.3</ele>
        <time>2026-07-09T10:19:44.000Z</time>
      </trkpt>
      <trkpt lat="45.80535" lon="1.88409">
        <ele>721</ele>
        <time>2026-07-09T10:19:45.000Z</time>
      </trkpt>
      <trkpt lat="45.80534" lon="1.8841">
        <ele>721.5</ele>
        <time>2026-07-09T10:19:46.000Z</time>
      </trkpt>
      <trkpt lat="45.80533" lon="1.8841">
        <ele>721.5</ele>
        <time>2026-07-09T10:19:47.000Z</time>
      </trkpt>
      <trkpt lat="45.80534" lon="1.88411">
        <ele>721.4</ele>
        <time>2026-07-09T10:19:48.000Z</time>
      </trkpt>
      <trkpt lat="45.80534" lon="1.88412">
        <ele>721.3</ele>
        <time>2026-07-09T10:19:49.000Z</time>
      </trkpt>
      <trkpt lat="45.80534" lon="1.88412">
        <ele>721.3</ele>
        <time>2026-07-09T10:19:50.000Z</time>
      </trkpt>
      <trkpt lat="45.80534" lon="1.88412">
        <ele>721.3</ele>
        <time>2026-07-09T10:19:51.000Z</time>
      </trkpt>
      <trkpt lat="45.80535" lon="1.88412">
        <ele>721.3</ele>
        <time>2026-07-09T10:19:52.000Z</time>
      </trkpt>
      <trkpt lat="45.80537" lon="1.88413">
        <ele>721.2</ele>
        <time>2026-07-09T10:19:53.000Z</time>
      </trkpt>
      <trkpt lat="45.80537" lon="1.88415">
        <ele>721.3</ele>
        <time>2026-07-09T10:19:54.000Z</time>
      </trkpt>
      <trkpt lat="45.80537" lon="1.88418">
        <ele>720.5</ele>
        <time>2026-07-09T10:19:55.000Z</time>
      </trkpt>
      <trkpt lat="45.80536" lon="1.8842">
        <ele>720.7</ele>
        <time>2026-07-09T10:19:56.000Z</time>
      </trkpt>
      <trkpt lat="45.80536" lon="1.88423">
        <ele>721.3</ele>
        <time>2026-07-09T10:19:57.000Z</time>
      </trkpt>
      <trkpt lat="45.80535" lon="1.88426">
        <ele>721.1</ele>
        <time>2026-07-09T10:19:58.000Z</time>
      </trkpt>
      <trkpt lat="45.80535" lon="1.88428">
        <ele>722.3</ele>
        <time>2026-07-09T10:19:59.000Z</time>
      </trkpt>
      <trkpt lat="45.80535" lon="1.88431">
        <ele>722.4</ele>
        <time>2026-07-09T10:20:00.000Z</time>
      </trkpt>
      <trkpt lat="45.80535" lon="1.88434">
        <ele>722.4</ele>
        <time>2026-07-09T10:20:01.000Z</time>
      </trkpt>
      <trkpt lat="45.80536" lon="1.88437">
        <ele>722.5</ele>
        <time>2026-07-09T10:20:02.000Z</time>
      </trkpt>
      <trkpt lat="45.80537" lon="1.88439">
        <ele>723.2</ele>
        <time>2026-07-09T10:20:03.000Z</time>
      </trkpt>
      <trkpt lat="45.80537" lon="1.88442">
        <ele>724.4</ele>
        <time>2026-07-09T10:20:04.000Z</time>
      </trkpt>
      <trkpt lat="45.80537" lon="1.88445">
        <ele>724.4</ele>
        <time>2026-07-09T10:20:05.000Z</time>
      </trkpt>
      <trkpt lat="45.80537" lon="1.88448">
        <ele>725</ele>
        <time>2026-07-09T10:20:06.000Z</time>
      </trkpt>
      <trkpt lat="45.80537" lon="1.8845">
        <ele>725.2</ele>
        <time>2026-07-09T10:20:07.000Z</time>
      </trkpt>
      <trkpt lat="45.80538" lon="1.88453">
        <ele>725.1</ele>
        <time>2026-07-09T10:20:08.000Z</time>
      </trkpt>
      <trkpt lat="45.80539" lon="1.88455">
        <ele>725.4</ele>
        <time>2026-07-09T10:20:09.000Z</time>
      </trkpt>
      <trkpt lat="45.80539" lon="1.88458">
        <ele>726.1</ele>
        <time>2026-07-09T10:20:10.000Z</time>
      </trkpt>
      <trkpt lat="45.80539" lon="1.88461">
        <ele>726</ele>
        <time>2026-07-09T10:20:11.000Z</time>
      </trkpt>
      <trkpt lat="45.8054" lon="1.88463">
        <ele>725.5</ele>
        <time>2026-07-09T10:20:12.000Z</time>
      </trkpt>
      <trkpt lat="45.80541" lon="1.88466">
        <ele>725.2</ele>
        <time>2026-07-09T10:20:13.000Z</time>
      </trkpt>
      <trkpt lat="45.80542" lon="1.88468">
        <ele>723.6</ele>
        <time>2026-07-09T10:20:14.000Z</time>
      </trkpt>
      <trkpt lat="45.80544" lon="1.88471">
        <ele>723.5</ele>
        <time>2026-07-09T10:20:15.000Z</time>
      </trkpt>
      <trkpt lat="45.80545" lon="1.88473">
        <ele>722.8</ele>
        <time>2026-07-09T10:20:16.000Z</time>
      </trkpt>
      <trkpt lat="45.80545" lon="1.88476">
        <ele>722.7</ele>
        <time>2026-07-09T10:20:17.000Z</time>
      </trkpt>
      <trkpt lat="45.80546" lon="1.88479">
        <ele>722.1</ele>
        <time>2026-07-09T10:20:18.000Z</time>
      </trkpt>
      <trkpt lat="45.80546" lon="1.88482">
        <ele>722</ele>
        <time>2026-07-09T10:20:19.000Z</time>
      </trkpt>
      <trkpt lat="45.80547" lon="1.88485">
        <ele>721.9</ele>
        <time>2026-07-09T10:20:20.000Z</time>
      </trkpt>
      <trkpt lat="45.80547" lon="1.88488">
        <ele>721.8</ele>
        <time>2026-07-09T10:20:21.000Z</time>
      </trkpt>
      <trkpt lat="45.80548" lon="1.88491">
        <ele>721.5</ele>
        <time>2026-07-09T10:20:22.000Z</time>
      </trkpt>
      <trkpt lat="45.80548" lon="1.88493">
        <ele>721.9</ele>
        <time>2026-07-09T10:20:23.000Z</time>
      </trkpt>
      <trkpt lat="45.80548" lon="1.88496">
        <ele>722.6</ele>
        <time>2026-07-09T10:20:24.000Z</time>
      </trkpt>
      <trkpt lat="45.80548" lon="1.88499">
        <ele>723.1</ele>
        <time>2026-07-09T10:20:25.000Z</time>
      </trkpt>
      <trkpt lat="45.80548" lon="1.88501">
        <ele>723.3</ele>
        <time>2026-07-09T10:20:26.000Z</time>
      </trkpt>
      <trkpt lat="45.80548" lon="1.88504">
        <ele>723.7</ele>
        <time>2026-07-09T10:20:27.000Z</time>
      </trkpt>
      <trkpt lat="45.80548" lon="1.88506">
        <ele>723.7</ele>
        <time>2026-07-09T10:20:28.000Z</time>
      </trkpt>
      <trkpt lat="45.80548" lon="1.88509">
        <ele>724.1</ele>
        <time>2026-07-09T10:20:29.000Z</time>
      </trkpt>
      <trkpt lat="45.80548" lon="1.88511">
        <ele>724.8</ele>
        <time>2026-07-09T10:20:30.000Z</time>
      </trkpt>
      <trkpt lat="45.80548" lon="1.88514">
        <ele>724.9</ele>
        <time>2026-07-09T10:20:31.000Z</time>
      </trkpt>
      <trkpt lat="45.80548" lon="1.88517">
        <ele>724.6</ele>
        <time>2026-07-09T10:20:32.000Z</time>
      </trkpt>
      <trkpt lat="45.80548" lon="1.88519">
        <ele>724.9</ele>
        <time>2026-07-09T10:20:33.000Z</time>
      </trkpt>
      <trkpt lat="45.80548" lon="1.88522">
        <ele>725.2</ele>
        <time>2026-07-09T10:20:34.000Z</time>
      </trkpt>
      <trkpt lat="45.80547" lon="1.88524">
        <ele>727.5</ele>
        <time>2026-07-09T10:20:35.000Z</time>
      </trkpt>
      <trkpt lat="45.80547" lon="1.88526">
        <ele>726.8</ele>
        <time>2026-07-09T10:20:36.000Z</time>
      </trkpt>
      <trkpt lat="45.80545" lon="1.88528">
        <ele>727.1</ele>
        <time>2026-07-09T10:20:37.000Z</time>
      </trkpt>
      <trkpt lat="45.80544" lon="1.88531">
        <ele>728.7</ele>
        <time>2026-07-09T10:20:38.000Z</time>
      </trkpt>
      <trkpt lat="45.80544" lon="1.88534">
        <ele>728.6</ele>
        <time>2026-07-09T10:20:39.000Z</time>
      </trkpt>
      <trkpt lat="45.80545" lon="1.88536">
        <ele>729</ele>
        <time>2026-07-09T10:20:40.000Z</time>
      </trkpt>
      <trkpt lat="45.80546" lon="1.88538">
        <ele>729.1</ele>
        <time>2026-07-09T10:20:41.000Z</time>
      </trkpt>
      <trkpt lat="45.8055" lon="1.88541">
        <ele>726.6</ele>
        <time>2026-07-09T10:20:42.000Z</time>
      </trkpt>
      <trkpt lat="45.80551" lon="1.88542">
        <ele>726.6</ele>
        <time>2026-07-09T10:20:43.000Z</time>
      </trkpt>
      <trkpt lat="45.80552" lon="1.88544">
        <ele>726</ele>
        <time>2026-07-09T10:20:44.000Z</time>
      </trkpt>
      <trkpt lat="45.80552" lon="1.88547">
        <ele>725.8</ele>
        <time>2026-07-09T10:20:45.000Z</time>
      </trkpt>
      <trkpt lat="45.80553" lon="1.88548">
        <ele>726.4</ele>
        <time>2026-07-09T10:20:46.000Z</time>
      </trkpt>
      <trkpt lat="45.80554" lon="1.88549">
        <ele>725.4</ele>
        <time>2026-07-09T10:20:47.000Z</time>
      </trkpt>
      <trkpt lat="45.80556" lon="1.8855">
        <ele>725.3</ele>
        <time>2026-07-09T10:20:48.000Z</time>
      </trkpt>
      <trkpt lat="45.80558" lon="1.8855">
        <ele>725.1</ele>
        <time>2026-07-09T10:20:49.000Z</time>
      </trkpt>
      <trkpt lat="45.80559" lon="1.8855">
        <ele>725.6</ele>
        <time>2026-07-09T10:20:50.000Z</time>
      </trkpt>
      <trkpt lat="45.80562" lon="1.88549">
        <ele>726.2</ele>
        <time>2026-07-09T10:20:51.000Z</time>
      </trkpt>
      <trkpt lat="45.80564" lon="1.88549">
        <ele>726.5</ele>
        <time>2026-07-09T10:20:52.000Z</time>
      </trkpt>
      <trkpt lat="45.80566" lon="1.88548">
        <ele>726.1</ele>
        <time>2026-07-09T10:20:53.000Z</time>
      </trkpt>
      <trkpt lat="45.80568" lon="1.88547">
        <ele>726</ele>
        <time>2026-07-09T10:20:54.000Z</time>
      </trkpt>
      <trkpt lat="45.8057" lon="1.88546">
        <ele>725.5</ele>
        <time>2026-07-09T10:20:55.000Z</time>
      </trkpt>
      <trkpt lat="45.80572" lon="1.88546">
        <ele>727.7</ele>
        <time>2026-07-09T10:20:56.000Z</time>
      </trkpt>
      <trkpt lat="45.80574" lon="1.88546">
        <ele>727.9</ele>
        <time>2026-07-09T10:20:57.000Z</time>
      </trkpt>
      <trkpt lat="45.80576" lon="1.88545">
        <ele>726.9</ele>
        <time>2026-07-09T10:20:58.000Z</time>
      </trkpt>
      <trkpt lat="45.80578" lon="1.88544">
        <ele>726.4</ele>
        <time>2026-07-09T10:20:59.000Z</time>
      </trkpt>
      <trkpt lat="45.8058" lon="1.88543">
        <ele>726.5</ele>
        <time>2026-07-09T10:21:00.000Z</time>
      </trkpt>
      <trkpt lat="45.80582" lon="1.88542">
        <ele>726.6</ele>
        <time>2026-07-09T10:21:01.000Z</time>
      </trkpt>
      <trkpt lat="45.80583" lon="1.88541">
        <ele>726.5</ele>
        <time>2026-07-09T10:21:02.000Z</time>
      </trkpt>
      <trkpt lat="45.80585" lon="1.8854">
        <ele>726.8</ele>
        <time>2026-07-09T10:21:03.000Z</time>
      </trkpt>
      <trkpt lat="45.80587" lon="1.88539">
        <ele>727.3</ele>
        <time>2026-07-09T10:21:04.000Z</time>
      </trkpt>
      <trkpt lat="45.80589" lon="1.88538">
        <ele>727.1</ele>
        <time>2026-07-09T10:21:05.000Z</time>
      </trkpt>
      <trkpt lat="45.80591" lon="1.88537">
        <ele>728.2</ele>
        <time>2026-07-09T10:21:06.000Z</time>
      </trkpt>
      <trkpt lat="45.80593" lon="1.88535">
        <ele>728.1</ele>
        <time>2026-07-09T10:21:07.000Z</time>
      </trkpt>
      <trkpt lat="45.80595" lon="1.88535">
        <ele>728.6</ele>
        <time>2026-07-09T10:21:08.000Z</time>
      </trkpt>
      <trkpt lat="45.80597" lon="1.88535">
        <ele>727.8</ele>
        <time>2026-07-09T10:21:09.000Z</time>
      </trkpt>
      <trkpt lat="45.80598" lon="1.88535">
        <ele>728.6</ele>
        <time>2026-07-09T10:21:10.000Z</time>
      </trkpt>
      <trkpt lat="45.806" lon="1.88535">
        <ele>728.3</ele>
        <time>2026-07-09T10:21:11.000Z</time>
      </trkpt>
      <trkpt lat="45.80601" lon="1.88534">
        <ele>728.9</ele>
        <time>2026-07-09T10:21:12.000Z</time>
      </trkpt>
      <trkpt lat="45.80603" lon="1.88534">
        <ele>728</ele>
        <time>2026-07-09T10:21:13.000Z</time>
      </trkpt>
      <trkpt lat="45.80604" lon="1.88534">
        <ele>727.9</ele>
        <time>2026-07-09T10:21:14.000Z</time>
      </trkpt>
      <trkpt lat="45.80606" lon="1.88534">
        <ele>728.1</ele>
        <time>2026-07-09T10:21:15.000Z</time>
      </trkpt>
      <trkpt lat="45.80608" lon="1.88534">
        <ele>728</ele>
        <time>2026-07-09T10:21:16.000Z</time>
      </trkpt>
      <trkpt lat="45.8061" lon="1.88535">
        <ele>728.6</ele>
        <time>2026-07-09T10:21:17.000Z</time>
      </trkpt>
      <trkpt lat="45.80612" lon="1.88536">
        <ele>728</ele>
        <time>2026-07-09T10:21:18.000Z</time>
      </trkpt>
      <trkpt lat="45.80614" lon="1.88536">
        <ele>728</ele>
        <time>2026-07-09T10:21:19.000Z</time>
      </trkpt>
      <trkpt lat="45.80617" lon="1.88537">
        <ele>727.8</ele>
        <time>2026-07-09T10:21:20.000Z</time>
      </trkpt>
      <trkpt lat="45.8062" lon="1.88538">
        <ele>727.9</ele>
        <time>2026-07-09T10:21:21.000Z</time>
      </trkpt>
      <trkpt lat="45.80623" lon="1.88538">
        <ele>728.2</ele>
        <time>2026-07-09T10:21:22.000Z</time>
      </trkpt>
      <trkpt lat="45.80625" lon="1.88538">
        <ele>727.3</ele>
        <time>2026-07-09T10:21:23.000Z</time>
      </trkpt>
      <trkpt lat="45.80627" lon="1.88538">
        <ele>726.6</ele>
        <time>2026-07-09T10:21:24.000Z</time>
      </trkpt>
      <trkpt lat="45.80629" lon="1.88538">
        <ele>726</ele>
        <time>2026-07-09T10:21:25.000Z</time>
      </trkpt>
      <trkpt lat="45.80632" lon="1.88539">
        <ele>724.3</ele>
        <time>2026-07-09T10:21:26.000Z</time>
      </trkpt>
      <trkpt lat="45.80635" lon="1.88539">
        <ele>724.6</ele>
        <time>2026-07-09T10:21:27.000Z</time>
      </trkpt>
      <trkpt lat="45.80639" lon="1.88539">
        <ele>725.2</ele>
        <time>2026-07-09T10:21:28.000Z</time>
      </trkpt>
      <trkpt lat="45.80643" lon="1.88541">
        <ele>724.2</ele>
        <time>2026-07-09T10:21:29.000Z</time>
      </trkpt>
      <trkpt lat="45.80647" lon="1.88543">
        <ele>723.9</ele>
        <time>2026-07-09T10:21:30.000Z</time>
      </trkpt>
      <trkpt lat="45.8065" lon="1.88545">
        <ele>724.8</ele>
        <time>2026-07-09T10:21:31.000Z</time>
      </trkpt>
      <trkpt lat="45.80653" lon="1.88547">
        <ele>724.8</ele>
        <time>2026-07-09T10:21:32.000Z</time>
      </trkpt>
      <trkpt lat="45.80656" lon="1.88548">
        <ele>724.7</ele>
        <time>2026-07-09T10:21:33.000Z</time>
      </trkpt>
      <trkpt lat="45.80658" lon="1.88549">
        <ele>726</ele>
        <time>2026-07-09T10:21:34.000Z</time>
      </trkpt>
      <trkpt lat="45.80661" lon="1.88549">
        <ele>726.1</ele>
        <time>2026-07-09T10:21:35.000Z</time>
      </trkpt>
      <trkpt lat="45.80665" lon="1.88551">
        <ele>726.8</ele>
        <time>2026-07-09T10:21:36.000Z</time>
      </trkpt>
      <trkpt lat="45.8067" lon="1.88553">
        <ele>728.2</ele>
        <time>2026-07-09T10:21:37.000Z</time>
      </trkpt>
      <trkpt lat="45.80674" lon="1.88555">
        <ele>729.2</ele>
        <time>2026-07-09T10:21:38.000Z</time>
      </trkpt>
      <trkpt lat="45.80679" lon="1.88556">
        <ele>731.1</ele>
        <time>2026-07-09T10:21:39.000Z</time>
      </trkpt>
      <trkpt lat="45.80683" lon="1.88556">
        <ele>731.8</ele>
        <time>2026-07-09T10:21:40.000Z</time>
      </trkpt>
      <trkpt lat="45.80686" lon="1.88556">
        <ele>733</ele>
        <time>2026-07-09T10:21:41.000Z</time>
      </trkpt>
      <trkpt lat="45.80689" lon="1.88556">
        <ele>733.5</ele>
        <time>2026-07-09T10:21:42.000Z</time>
      </trkpt>
      <trkpt lat="45.80691" lon="1.88556">
        <ele>733.7</ele>
        <time>2026-07-09T10:21:43.000Z</time>
      </trkpt>
      <trkpt lat="45.80694" lon="1.88556">
        <ele>734.2</ele>
        <time>2026-07-09T10:21:44.000Z</time>
      </trkpt>
      <trkpt lat="45.80696" lon="1.88555">
        <ele>735.7</ele>
        <time>2026-07-09T10:21:45.000Z</time>
      </trkpt>
      <trkpt lat="45.80699" lon="1.88555">
        <ele>736.3</ele>
        <time>2026-07-09T10:21:46.000Z</time>
      </trkpt>
      <trkpt lat="45.80701" lon="1.88554">
        <ele>736.7</ele>
        <time>2026-07-09T10:21:47.000Z</time>
      </trkpt>
      <trkpt lat="45.80704" lon="1.88554">
        <ele>736.2</ele>
        <time>2026-07-09T10:21:48.000Z</time>
      </trkpt>
      <trkpt lat="45.80707" lon="1.88553">
        <ele>736.1</ele>
        <time>2026-07-09T10:21:49.000Z</time>
      </trkpt>
      <trkpt lat="45.80709" lon="1.88552">
        <ele>735.6</ele>
        <time>2026-07-09T10:21:50.000Z</time>
      </trkpt>
      <trkpt lat="45.80712" lon="1.88551">
        <ele>735.5</ele>
        <time>2026-07-09T10:21:51.000Z</time>
      </trkpt>
      <trkpt lat="45.80714" lon="1.88552">
        <ele>736.6</ele>
        <time>2026-07-09T10:21:52.000Z</time>
      </trkpt>
      <trkpt lat="45.80717" lon="1.88554">
        <ele>736.4</ele>
        <time>2026-07-09T10:21:53.000Z</time>
      </trkpt>
      <trkpt lat="45.80718" lon="1.88554">
        <ele>735.8</ele>
        <time>2026-07-09T10:21:54.000Z</time>
      </trkpt>
      <trkpt lat="45.80718" lon="1.88554">
        <ele>736.9</ele>
        <time>2026-07-09T10:21:55.000Z</time>
      </trkpt>
      <trkpt lat="45.80719" lon="1.88554">
        <ele>737.4</ele>
        <time>2026-07-09T10:21:56.000Z</time>
      </trkpt>
      <trkpt lat="45.8072" lon="1.88554">
        <ele>737.2</ele>
        <time>2026-07-09T10:21:57.000Z</time>
      </trkpt>
      <trkpt lat="45.80722" lon="1.88553">
        <ele>736.7</ele>
        <time>2026-07-09T10:21:58.000Z</time>
      </trkpt>
      <trkpt lat="45.80723" lon="1.88552">
        <ele>735.4</ele>
        <time>2026-07-09T10:21:59.000Z</time>
      </trkpt>
      <trkpt lat="45.80725" lon="1.88552">
        <ele>735</ele>
        <time>2026-07-09T10:22:00.000Z</time>
      </trkpt>
      <trkpt lat="45.80727" lon="1.88551">
        <ele>735.5</ele>
        <time>2026-07-09T10:22:01.000Z</time>
      </trkpt>
      <trkpt lat="45.8073" lon="1.8855">
        <ele>735.8</ele>
        <time>2026-07-09T10:22:02.000Z</time>
      </trkpt>
      <trkpt lat="45.80732" lon="1.8855">
        <ele>734.9</ele>
        <time>2026-07-09T10:22:03.000Z</time>
      </trkpt>
      <trkpt lat="45.80734" lon="1.88551">
        <ele>734.6</ele>
        <time>2026-07-09T10:22:04.000Z</time>
      </trkpt>
      <trkpt lat="45.80737" lon="1.8855">
        <ele>735.3</ele>
        <time>2026-07-09T10:22:05.000Z</time>
      </trkpt>
      <trkpt lat="45.80739" lon="1.88548">
        <ele>735.4</ele>
        <time>2026-07-09T10:22:06.000Z</time>
      </trkpt>
      <trkpt lat="45.80742" lon="1.88547">
        <ele>735.4</ele>
        <time>2026-07-09T10:22:07.000Z</time>
      </trkpt>
      <trkpt lat="45.80745" lon="1.88547">
        <ele>734.9</ele>
        <time>2026-07-09T10:22:08.000Z</time>
      </trkpt>
      <trkpt lat="45.80748" lon="1.88546">
        <ele>733.3</ele>
        <time>2026-07-09T10:22:09.000Z</time>
      </trkpt>
      <trkpt lat="45.8075" lon="1.88545">
        <ele>732.1</ele>
        <time>2026-07-09T10:22:10.000Z</time>
      </trkpt>
      <trkpt lat="45.80752" lon="1.88544">
        <ele>731.8</ele>
        <time>2026-07-09T10:22:11.000Z</time>
      </trkpt>
      <trkpt lat="45.80754" lon="1.88543">
        <ele>732.1</ele>
        <time>2026-07-09T10:22:12.000Z</time>
      </trkpt>
      <trkpt lat="45.80757" lon="1.88541">
        <ele>731.8</ele>
        <time>2026-07-09T10:22:13.000Z</time>
      </trkpt>
      <trkpt lat="45.80761" lon="1.88538">
        <ele>731.7</ele>
        <time>2026-07-09T10:22:14.000Z</time>
      </trkpt>
      <trkpt lat="45.80764" lon="1.88536">
        <ele>730.9</ele>
        <time>2026-07-09T10:22:15.000Z</time>
      </trkpt>
      <trkpt lat="45.80768" lon="1.88533">
        <ele>729.6</ele>
        <time>2026-07-09T10:22:16.000Z</time>
      </trkpt>
      <trkpt lat="45.80772" lon="1.8853">
        <ele>729.3</ele>
        <time>2026-07-09T10:22:17.000Z</time>
      </trkpt>
      <trkpt lat="45.80776" lon="1.88527">
        <ele>730.3</ele>
        <time>2026-07-09T10:22:18.000Z</time>
      </trkpt>
      <trkpt lat="45.80782" lon="1.88523">
        <ele>729.8</ele>
        <time>2026-07-09T10:22:19.000Z</time>
      </trkpt>
      <trkpt lat="45.80788" lon="1.88519">
        <ele>730.3</ele>
        <time>2026-07-09T10:22:20.000Z</time>
      </trkpt>
      <trkpt lat="45.80792" lon="1.88516">
        <ele>730.3</ele>
        <time>2026-07-09T10:22:21.000Z</time>
      </trkpt>
      <trkpt lat="45.80797" lon="1.88513">
        <ele>731.3</ele>
        <time>2026-07-09T10:22:22.000Z</time>
      </trkpt>
      <trkpt lat="45.80801" lon="1.8851">
        <ele>731.9</ele>
        <time>2026-07-09T10:22:23.000Z</time>
      </trkpt>
      <trkpt lat="45.80805" lon="1.88508">
        <ele>731.5</ele>
        <time>2026-07-09T10:22:24.000Z</time>
      </trkpt>
      <trkpt lat="45.8081" lon="1.88505">
        <ele>732.2</ele>
        <time>2026-07-09T10:22:25.000Z</time>
      </trkpt>
      <trkpt lat="45.80816" lon="1.88501">
        <ele>731.9</ele>
        <time>2026-07-09T10:22:26.000Z</time>
      </trkpt>
      <trkpt lat="45.80821" lon="1.88497">
        <ele>731.6</ele>
        <time>2026-07-09T10:22:27.000Z</time>
      </trkpt>
      <trkpt lat="45.80826" lon="1.88494">
        <ele>732</ele>
        <time>2026-07-09T10:22:28.000Z</time>
      </trkpt>
      <trkpt lat="45.8083" lon="1.8849">
        <ele>731.8</ele>
        <time>2026-07-09T10:22:29.000Z</time>
      </trkpt>
      <trkpt lat="45.80833" lon="1.88486">
        <ele>731.7</ele>
        <time>2026-07-09T10:22:30.000Z</time>
      </trkpt>
      <trkpt lat="45.80835" lon="1.88482">
        <ele>731.7</ele>
        <time>2026-07-09T10:22:31.000Z</time>
      </trkpt>
      <trkpt lat="45.80837" lon="1.88478">
        <ele>731.6</ele>
        <time>2026-07-09T10:22:32.000Z</time>
      </trkpt>
      <trkpt lat="45.8084" lon="1.88472">
        <ele>731.6</ele>
        <time>2026-07-09T10:22:33.000Z</time>
      </trkpt>
      <trkpt lat="45.80842" lon="1.88465">
        <ele>732.7</ele>
        <time>2026-07-09T10:22:34.000Z</time>
      </trkpt>
      <trkpt lat="45.80844" lon="1.88458">
        <ele>733.9</ele>
        <time>2026-07-09T10:22:35.000Z</time>
      </trkpt>
      <trkpt lat="45.80846" lon="1.88451">
        <ele>734.5</ele>
        <time>2026-07-09T10:22:36.000Z</time>
      </trkpt>
      <trkpt lat="45.80848" lon="1.88443">
        <ele>736.3</ele>
        <time>2026-07-09T10:22:37.000Z</time>
      </trkpt>
      <trkpt lat="45.80849" lon="1.88436">
        <ele>735.7</ele>
        <time>2026-07-09T10:22:38.000Z</time>
      </trkpt>
      <trkpt lat="45.8085" lon="1.88429">
        <ele>736.1</ele>
        <time>2026-07-09T10:22:39.000Z</time>
      </trkpt>
      <trkpt lat="45.80852" lon="1.88423">
        <ele>737.1</ele>
        <time>2026-07-09T10:22:40.000Z</time>
      </trkpt>
      <trkpt lat="45.80853" lon="1.88417">
        <ele>737.4</ele>
        <time>2026-07-09T10:22:41.000Z</time>
      </trkpt>
      <trkpt lat="45.80852" lon="1.88412">
        <ele>738.3</ele>
        <time>2026-07-09T10:22:42.000Z</time>
      </trkpt>
      <trkpt lat="45.80852" lon="1.88406">
        <ele>739.6</ele>
        <time>2026-07-09T10:22:43.000Z</time>
      </trkpt>
      <trkpt lat="45.80848" lon="1.88402">
        <ele>740.7</ele>
        <time>2026-07-09T10:22:44.000Z</time>
      </trkpt>
      <trkpt lat="45.80845" lon="1.88403">
        <ele>742.4</ele>
        <time>2026-07-09T10:22:45.000Z</time>
      </trkpt>
      <trkpt lat="45.80844" lon="1.88406">
        <ele>745.7</ele>
        <time>2026-07-09T10:22:46.000Z</time>
      </trkpt>
      <trkpt lat="45.80844" lon="1.8841">
        <ele>745.7</ele>
        <time>2026-07-09T10:22:47.000Z</time>
      </trkpt>
      <trkpt lat="45.80845" lon="1.88414">
        <ele>742.9</ele>
        <time>2026-07-09T10:22:48.000Z</time>
      </trkpt>
      <trkpt lat="45.80846" lon="1.88416">
        <ele>742.9</ele>
        <time>2026-07-09T10:22:49.000Z</time>
      </trkpt>
      <trkpt lat="45.80847" lon="1.88419">
        <ele>742.3</ele>
        <time>2026-07-09T10:22:50.000Z</time>
      </trkpt>
      <trkpt lat="45.80847" lon="1.88422">
        <ele>742.6</ele>
        <time>2026-07-09T10:22:51.000Z</time>
      </trkpt>
      <trkpt lat="45.80848" lon="1.88425">
        <ele>743.2</ele>
        <time>2026-07-09T10:22:52.000Z</time>
      </trkpt>
      <trkpt lat="45.80849" lon="1.88428">
        <ele>743.1</ele>
        <time>2026-07-09T10:22:53.000Z</time>
      </trkpt>
      <trkpt lat="45.80849" lon="1.88431">
        <ele>743.1</ele>
        <time>2026-07-09T10:22:54.000Z</time>
      </trkpt>
      <trkpt lat="45.80851" lon="1.88435">
        <ele>742.8</ele>
        <time>2026-07-09T10:22:55.000Z</time>
      </trkpt>
      <trkpt lat="45.80853" lon="1.88438">
        <ele>742.6</ele>
        <time>2026-07-09T10:22:56.000Z</time>
      </trkpt>
      <trkpt lat="45.80853" lon="1.88441">
        <ele>742.1</ele>
        <time>2026-07-09T10:22:57.000Z</time>
      </trkpt>
      <trkpt lat="45.80853" lon="1.88444">
        <ele>742.4</ele>
        <time>2026-07-09T10:22:58.000Z</time>
      </trkpt>
      <trkpt lat="45.80853" lon="1.88447">
        <ele>742.6</ele>
        <time>2026-07-09T10:22:59.000Z</time>
      </trkpt>
      <trkpt lat="45.80853" lon="1.88449">
        <ele>742.8</ele>
        <time>2026-07-09T10:23:00.000Z</time>
      </trkpt>
      <trkpt lat="45.80852" lon="1.88452">
        <ele>743.1</ele>
        <time>2026-07-09T10:23:01.000Z</time>
      </trkpt>
      <trkpt lat="45.80852" lon="1.88454">
        <ele>743.3</ele>
        <time>2026-07-09T10:23:02.000Z</time>
      </trkpt>
      <trkpt lat="45.80852" lon="1.88456">
        <ele>743.4</ele>
        <time>2026-07-09T10:23:03.000Z</time>
      </trkpt>
      <trkpt lat="45.80852" lon="1.88458">
        <ele>744.2</ele>
        <time>2026-07-09T10:23:04.000Z</time>
      </trkpt>
      <trkpt lat="45.80852" lon="1.88459">
        <ele>745.8</ele>
        <time>2026-07-09T10:23:05.000Z</time>
      </trkpt>
      <trkpt lat="45.80851" lon="1.8846">
        <ele>746.4</ele>
        <time>2026-07-09T10:23:06.000Z</time>
      </trkpt>
      <trkpt lat="45.80851" lon="1.88462">
        <ele>745.9</ele>
        <time>2026-07-09T10:23:07.000Z</time>
      </trkpt>
      <trkpt lat="45.80851" lon="1.88463">
        <ele>744.2</ele>
        <time>2026-07-09T10:23:08.000Z</time>
      </trkpt>
      <trkpt lat="45.80851" lon="1.88465">
        <ele>744.4</ele>
        <time>2026-07-09T10:23:09.000Z</time>
      </trkpt>
      <trkpt lat="45.8085" lon="1.88468">
        <ele>743.8</ele>
        <time>2026-07-09T10:23:10.000Z</time>
      </trkpt>
      <trkpt lat="45.8085" lon="1.8847">
        <ele>743.5</ele>
        <time>2026-07-09T10:23:11.000Z</time>
      </trkpt>
      <trkpt lat="45.8085" lon="1.88473">
        <ele>742.4</ele>
        <time>2026-07-09T10:23:12.000Z</time>
      </trkpt>
      <trkpt lat="45.80849" lon="1.88476">
        <ele>742.1</ele>
        <time>2026-07-09T10:23:13.000Z</time>
      </trkpt>
      <trkpt lat="45.80848" lon="1.88478">
        <ele>740.2</ele>
        <time>2026-07-09T10:23:14.000Z</time>
      </trkpt>
      <trkpt lat="45.80847" lon="1.8848">
        <ele>740</ele>
        <time>2026-07-09T10:23:15.000Z</time>
      </trkpt>
      <trkpt lat="45.80846" lon="1.88482">
        <ele>740.7</ele>
        <time>2026-07-09T10:23:16.000Z</time>
      </trkpt>
      <trkpt lat="45.80844" lon="1.88484">
        <ele>740.7</ele>
        <time>2026-07-09T10:23:17.000Z</time>
      </trkpt>
      <trkpt lat="45.80843" lon="1.88485">
        <ele>741.1</ele>
        <time>2026-07-09T10:23:18.000Z</time>
      </trkpt>
      <trkpt lat="45.80841" lon="1.88487">
        <ele>741.8</ele>
        <time>2026-07-09T10:23:19.000Z</time>
      </trkpt>
      <trkpt lat="45.8084" lon="1.88489">
        <ele>742</ele>
        <time>2026-07-09T10:23:20.000Z</time>
      </trkpt>
      <trkpt lat="45.80838" lon="1.8849">
        <ele>741.8</ele>
        <time>2026-07-09T10:23:21.000Z</time>
      </trkpt>
      <trkpt lat="45.80837" lon="1.88491">
        <ele>741.9</ele>
        <time>2026-07-09T10:23:22.000Z</time>
      </trkpt>
      <trkpt lat="45.80835" lon="1.88491">
        <ele>741.1</ele>
        <time>2026-07-09T10:23:23.000Z</time>
      </trkpt>
      <trkpt lat="45.80833" lon="1.88492">
        <ele>741.5</ele>
        <time>2026-07-09T10:23:24.000Z</time>
      </trkpt>
      <trkpt lat="45.80831" lon="1.8849">
        <ele>742.4</ele>
        <time>2026-07-09T10:23:25.000Z</time>
      </trkpt>
      <trkpt lat="45.80829" lon="1.8849">
        <ele>741.6</ele>
        <time>2026-07-09T10:23:26.000Z</time>
      </trkpt>
      <trkpt lat="45.80827" lon="1.88491">
        <ele>741.6</ele>
        <time>2026-07-09T10:23:27.000Z</time>
      </trkpt>
      <trkpt lat="45.80825" lon="1.88492">
        <ele>741.8</ele>
        <time>2026-07-09T10:23:28.000Z</time>
      </trkpt>
      <trkpt lat="45.80824" lon="1.88494">
        <ele>742.1</ele>
        <time>2026-07-09T10:23:29.000Z</time>
      </trkpt>
      <trkpt lat="45.80822" lon="1.88495">
        <ele>741.6</ele>
        <time>2026-07-09T10:23:30.000Z</time>
      </trkpt>
      <trkpt lat="45.8082" lon="1.88495">
        <ele>741.2</ele>
        <time>2026-07-09T10:23:31.000Z</time>
      </trkpt>
      <trkpt lat="45.80818" lon="1.88497">
        <ele>741.6</ele>
        <time>2026-07-09T10:23:32.000Z</time>
      </trkpt>
      <trkpt lat="45.80816" lon="1.88498">
        <ele>742</ele>
        <time>2026-07-09T10:23:33.000Z</time>
      </trkpt>
      <trkpt lat="45.80815" lon="1.88499">
        <ele>742.8</ele>
        <time>2026-07-09T10:23:34.000Z</time>
      </trkpt>
      <trkpt lat="45.80813" lon="1.885">
        <ele>741.7</ele>
        <time>2026-07-09T10:23:35.000Z</time>
      </trkpt>
      <trkpt lat="45.80812" lon="1.88501">
        <ele>741.7</ele>
        <time>2026-07-09T10:23:36.000Z</time>
      </trkpt>
      <trkpt lat="45.8081" lon="1.88501">
        <ele>742.4</ele>
        <time>2026-07-09T10:23:37.000Z</time>
      </trkpt>
      <trkpt lat="45.80806" lon="1.88502">
        <ele>743.5</ele>
        <time>2026-07-09T10:23:38.000Z</time>
      </trkpt>
      <trkpt lat="45.80803" lon="1.88502">
        <ele>743.6</ele>
        <time>2026-07-09T10:23:39.000Z</time>
      </trkpt>
      <trkpt lat="45.80801" lon="1.88503">
        <ele>743.9</ele>
        <time>2026-07-09T10:23:40.000Z</time>
      </trkpt>
      <trkpt lat="45.808" lon="1.88506">
        <ele>742.8</ele>
        <time>2026-07-09T10:23:41.000Z</time>
      </trkpt>
      <trkpt lat="45.80799" lon="1.88509">
        <ele>741.9</ele>
        <time>2026-07-09T10:23:42.000Z</time>
      </trkpt>
      <trkpt lat="45.808" lon="1.88513">
        <ele>739.2</ele>
        <time>2026-07-09T10:23:43.000Z</time>
      </trkpt>
      <trkpt lat="45.80803" lon="1.88517">
        <ele>738.7</ele>
        <time>2026-07-09T10:23:44.000Z</time>
      </trkpt>
      <trkpt lat="45.80806" lon="1.8852">
        <ele>737.9</ele>
        <time>2026-07-09T10:23:45.000Z</time>
      </trkpt>
      <trkpt lat="45.80809" lon="1.88522">
        <ele>738.9</ele>
        <time>2026-07-09T10:23:46.000Z</time>
      </trkpt>
      <trkpt lat="45.80812" lon="1.88525">
        <ele>738.4</ele>
        <time>2026-07-09T10:23:47.000Z</time>
      </trkpt>
      <trkpt lat="45.80815" lon="1.88526">
        <ele>738</ele>
        <time>2026-07-09T10:23:48.000Z</time>
      </trkpt>
      <trkpt lat="45.80817" lon="1.88528">
        <ele>738.9</ele>
        <time>2026-07-09T10:23:49.000Z</time>
      </trkpt>
      <trkpt lat="45.80817" lon="1.88529">
        <ele>738.3</ele>
        <time>2026-07-09T10:23:50.000Z</time>
      </trkpt>
      <trkpt lat="45.80818" lon="1.88532">
        <ele>738.7</ele>
        <time>2026-07-09T10:23:51.000Z</time>
      </trkpt>
      <trkpt lat="45.80819" lon="1.88535">
        <ele>738.9</ele>
        <time>2026-07-09T10:23:52.000Z</time>
      </trkpt>
      <trkpt lat="45.8082" lon="1.88538">
        <ele>740</ele>
        <time>2026-07-09T10:23:53.000Z</time>
      </trkpt>
      <trkpt lat="45.80821" lon="1.8854">
        <ele>739.4</ele>
        <time>2026-07-09T10:23:54.000Z</time>
      </trkpt>
      <trkpt lat="45.80822" lon="1.88543">
        <ele>739</ele>
        <time>2026-07-09T10:23:55.000Z</time>
      </trkpt>
      <trkpt lat="45.80822" lon="1.88546">
        <ele>739.6</ele>
        <time>2026-07-09T10:23:56.000Z</time>
      </trkpt>
      <trkpt lat="45.80823" lon="1.88548">
        <ele>740.3</ele>
        <time>2026-07-09T10:23:57.000Z</time>
      </trkpt>
      <trkpt lat="45.80824" lon="1.8855">
        <ele>740.1</ele>
        <time>2026-07-09T10:23:58.000Z</time>
      </trkpt>
      <trkpt lat="45.80825" lon="1.88552">
        <ele>739.3</ele>
        <time>2026-07-09T10:23:59.000Z</time>
      </trkpt>
      <trkpt lat="45.80825" lon="1.88554">
        <ele>738.6</ele>
        <time>2026-07-09T10:24:00.000Z</time>
      </trkpt>
      <trkpt lat="45.80826" lon="1.88556">
        <ele>740</ele>
        <time>2026-07-09T10:24:01.000Z</time>
      </trkpt>
      <trkpt lat="45.80826" lon="1.88558">
        <ele>740.2</ele>
        <time>2026-07-09T10:24:02.000Z</time>
      </trkpt>
      <trkpt lat="45.80827" lon="1.88559">
        <ele>739.6</ele>
        <time>2026-07-09T10:24:03.000Z</time>
      </trkpt>
      <trkpt lat="45.80828" lon="1.88561">
        <ele>739.2</ele>
        <time>2026-07-09T10:24:04.000Z</time>
      </trkpt>
      <trkpt lat="45.80828" lon="1.88563">
        <ele>739.3</ele>
        <time>2026-07-09T10:24:05.000Z</time>
      </trkpt>
      <trkpt lat="45.80829" lon="1.88565">
        <ele>740.4</ele>
        <time>2026-07-09T10:24:06.000Z</time>
      </trkpt>
      <trkpt lat="45.8083" lon="1.88567">
        <ele>741.1</ele>
        <time>2026-07-09T10:24:07.000Z</time>
      </trkpt>
      <trkpt lat="45.80831" lon="1.88569">
        <ele>740.4</ele>
        <time>2026-07-09T10:24:08.000Z</time>
      </trkpt>
      <trkpt lat="45.80832" lon="1.88572">
        <ele>740.3</ele>
        <time>2026-07-09T10:24:09.000Z</time>
      </trkpt>
      <trkpt lat="45.80832" lon="1.88574">
        <ele>740.3</ele>
        <time>2026-07-09T10:24:10.000Z</time>
      </trkpt>
      <trkpt lat="45.80833" lon="1.88577">
        <ele>739.8</ele>
        <time>2026-07-09T10:24:11.000Z</time>
      </trkpt>
      <trkpt lat="45.80834" lon="1.8858">
        <ele>740</ele>
        <time>2026-07-09T10:24:12.000Z</time>
      </trkpt>
      <trkpt lat="45.80835" lon="1.88583">
        <ele>740.9</ele>
        <time>2026-07-09T10:24:13.000Z</time>
      </trkpt>
      <trkpt lat="45.80837" lon="1.88586">
        <ele>741</ele>
        <time>2026-07-09T10:24:14.000Z</time>
      </trkpt>
      <trkpt lat="45.80838" lon="1.88589">
        <ele>741.9</ele>
        <time>2026-07-09T10:24:15.000Z</time>
      </trkpt>
      <trkpt lat="45.80839" lon="1.88591">
        <ele>742.8</ele>
        <time>2026-07-09T10:24:16.000Z</time>
      </trkpt>
      <trkpt lat="45.8084" lon="1.88594">
        <ele>742.5</ele>
        <time>2026-07-09T10:24:17.000Z</time>
      </trkpt>
      <trkpt lat="45.80841" lon="1.88596">
        <ele>742.8</ele>
        <time>2026-07-09T10:24:18.000Z</time>
      </trkpt>
      <trkpt lat="45.80842" lon="1.88598">
        <ele>744.1</ele>
        <time>2026-07-09T10:24:19.000Z</time>
      </trkpt>
      <trkpt lat="45.80843" lon="1.886">
        <ele>744.2</ele>
        <time>2026-07-09T10:24:20.000Z</time>
      </trkpt>
      <trkpt lat="45.80844" lon="1.88602">
        <ele>744.2</ele>
        <time>2026-07-09T10:24:21.000Z</time>
      </trkpt>
      <trkpt lat="45.80846" lon="1.88603">
        <ele>744</ele>
        <time>2026-07-09T10:24:22.000Z</time>
      </trkpt>
      <trkpt lat="45.80847" lon="1.88606">
        <ele>744.2</ele>
        <time>2026-07-09T10:24:23.000Z</time>
      </trkpt>
      <trkpt lat="45.80848" lon="1.88609">
        <ele>742.7</ele>
        <time>2026-07-09T10:24:24.000Z</time>
      </trkpt>
      <trkpt lat="45.8085" lon="1.88611">
        <ele>743.3</ele>
        <time>2026-07-09T10:24:25.000Z</time>
      </trkpt>
      <trkpt lat="45.80851" lon="1.88614">
        <ele>742.3</ele>
        <time>2026-07-09T10:24:26.000Z</time>
      </trkpt>
      <trkpt lat="45.80852" lon="1.88616">
        <ele>742.1</ele>
        <time>2026-07-09T10:24:27.000Z</time>
      </trkpt>
      <trkpt lat="45.80852" lon="1.88618">
        <ele>742</ele>
        <time>2026-07-09T10:24:28.000Z</time>
      </trkpt>
      <trkpt lat="45.80852" lon="1.8862">
        <ele>741.8</ele>
        <time>2026-07-09T10:24:29.000Z</time>
      </trkpt>
      <trkpt lat="45.80851" lon="1.88621">
        <ele>740.4</ele>
        <time>2026-07-09T10:24:30.000Z</time>
      </trkpt>
      <trkpt lat="45.8085" lon="1.88621">
        <ele>740.5</ele>
        <time>2026-07-09T10:24:31.000Z</time>
      </trkpt>
      <trkpt lat="45.8085" lon="1.88622">
        <ele>741.5</ele>
        <time>2026-07-09T10:24:32.000Z</time>
      </trkpt>
      <trkpt lat="45.80849" lon="1.88624">
        <ele>742</ele>
        <time>2026-07-09T10:24:33.000Z</time>
      </trkpt>
      <trkpt lat="45.80849" lon="1.88627">
        <ele>741.4</ele>
        <time>2026-07-09T10:24:34.000Z</time>
      </trkpt>
      <trkpt lat="45.80848" lon="1.88629">
        <ele>741.5</ele>
        <time>2026-07-09T10:24:35.000Z</time>
      </trkpt>
      <trkpt lat="45.80847" lon="1.88632">
        <ele>740.3</ele>
        <time>2026-07-09T10:24:36.000Z</time>
      </trkpt>
      <trkpt lat="45.80847" lon="1.88634">
        <ele>739.7</ele>
        <time>2026-07-09T10:24:37.000Z</time>
      </trkpt>
      <trkpt lat="45.80846" lon="1.88637">
        <ele>739.1</ele>
        <time>2026-07-09T10:24:38.000Z</time>
      </trkpt>
      <trkpt lat="45.80846" lon="1.8864">
        <ele>738.7</ele>
        <time>2026-07-09T10:24:39.000Z</time>
      </trkpt>
      <trkpt lat="45.80847" lon="1.88644">
        <ele>738</ele>
        <time>2026-07-09T10:24:40.000Z</time>
      </trkpt>
      <trkpt lat="45.80848" lon="1.88647">
        <ele>738.2</ele>
        <time>2026-07-09T10:24:41.000Z</time>
      </trkpt>
      <trkpt lat="45.80848" lon="1.8865">
        <ele>737.5</ele>
        <time>2026-07-09T10:24:42.000Z</time>
      </trkpt>
      <trkpt lat="45.80848" lon="1.88653">
        <ele>737.3</ele>
        <time>2026-07-09T10:24:43.000Z</time>
      </trkpt>
      <trkpt lat="45.80848" lon="1.88656">
        <ele>736.7</ele>
        <time>2026-07-09T10:24:44.000Z</time>
      </trkpt>
      <trkpt lat="45.80847" lon="1.88659">
        <ele>736.9</ele>
        <time>2026-07-09T10:24:45.000Z</time>
      </trkpt>
      <trkpt lat="45.80845" lon="1.88661">
        <ele>736.7</ele>
        <time>2026-07-09T10:24:46.000Z</time>
      </trkpt>
      <trkpt lat="45.80844" lon="1.88663">
        <ele>737.2</ele>
        <time>2026-07-09T10:24:47.000Z</time>
      </trkpt>
      <trkpt lat="45.80843" lon="1.88664">
        <ele>736.2</ele>
        <time>2026-07-09T10:24:48.000Z</time>
      </trkpt>
      <trkpt lat="45.80842" lon="1.88665">
        <ele>736.3</ele>
        <time>2026-07-09T10:24:49.000Z</time>
      </trkpt>
      <trkpt lat="45.80841" lon="1.88666">
        <ele>735.8</ele>
        <time>2026-07-09T10:24:50.000Z</time>
      </trkpt>
      <trkpt lat="45.8084" lon="1.88667">
        <ele>736.3</ele>
        <time>2026-07-09T10:24:51.000Z</time>
      </trkpt>
      <trkpt lat="45.80839" lon="1.88669">
        <ele>735.7</ele>
        <time>2026-07-09T10:24:52.000Z</time>
      </trkpt>
      <trkpt lat="45.80837" lon="1.8867">
        <ele>735.2</ele>
        <time>2026-07-09T10:24:53.000Z</time>
      </trkpt>
      <trkpt lat="45.80836" lon="1.8867">
        <ele>734.6</ele>
        <time>2026-07-09T10:24:54.000Z</time>
      </trkpt>
      <trkpt lat="45.80834" lon="1.88671">
        <ele>735.2</ele>
        <time>2026-07-09T10:24:55.000Z</time>
      </trkpt>
      <trkpt lat="45.80833" lon="1.88673">
        <ele>735</ele>
        <time>2026-07-09T10:24:56.000Z</time>
      </trkpt>
      <trkpt lat="45.80832" lon="1.88675">
        <ele>735.4</ele>
        <time>2026-07-09T10:24:57.000Z</time>
      </trkpt>
      <trkpt lat="45.80831" lon="1.88677">
        <ele>734.9</ele>
        <time>2026-07-09T10:24:58.000Z</time>
      </trkpt>
      <trkpt lat="45.8083" lon="1.88678">
        <ele>734.5</ele>
        <time>2026-07-09T10:24:59.000Z</time>
      </trkpt>
      <trkpt lat="45.8083" lon="1.8868">
        <ele>733.9</ele>
        <time>2026-07-09T10:25:00.000Z</time>
      </trkpt>
      <trkpt lat="45.80829" lon="1.88681">
        <ele>733.6</ele>
        <time>2026-07-09T10:25:01.000Z</time>
      </trkpt>
      <trkpt lat="45.80828" lon="1.88682">
        <ele>733.1</ele>
        <time>2026-07-09T10:25:02.000Z</time>
      </trkpt>
      <trkpt lat="45.80828" lon="1.88683">
        <ele>733</ele>
        <time>2026-07-09T10:25:03.000Z</time>
      </trkpt>
      <trkpt lat="45.80828" lon="1.88684">
        <ele>732.4</ele>
        <time>2026-07-09T10:25:04.000Z</time>
      </trkpt>
      <trkpt lat="45.80828" lon="1.88686">
        <ele>731.9</ele>
        <time>2026-07-09T10:25:05.000Z</time>
      </trkpt>
      <trkpt lat="45.80828" lon="1.88688">
        <ele>732.4</ele>
        <time>2026-07-09T10:25:06.000Z</time>
      </trkpt>
      <trkpt lat="45.80827" lon="1.8869">
        <ele>731.6</ele>
        <time>2026-07-09T10:25:07.000Z</time>
      </trkpt>
      <trkpt lat="45.80827" lon="1.88693">
        <ele>731.5</ele>
        <time>2026-07-09T10:25:08.000Z</time>
      </trkpt>
      <trkpt lat="45.80827" lon="1.88696">
        <ele>731.9</ele>
        <time>2026-07-09T10:25:09.000Z</time>
      </trkpt>
      <trkpt lat="45.80828" lon="1.88699">
        <ele>732.4</ele>
        <time>2026-07-09T10:25:10.000Z</time>
      </trkpt>
      <trkpt lat="45.80829" lon="1.88702">
        <ele>731.9</ele>
        <time>2026-07-09T10:25:11.000Z</time>
      </trkpt>
      <trkpt lat="45.8083" lon="1.88705">
        <ele>731.2</ele>
        <time>2026-07-09T10:25:12.000Z</time>
      </trkpt>
      <trkpt lat="45.80831" lon="1.88707">
        <ele>731.1</ele>
        <time>2026-07-09T10:25:13.000Z</time>
      </trkpt>
      <trkpt lat="45.80833" lon="1.88708">
        <ele>730.9</ele>
        <time>2026-07-09T10:25:14.000Z</time>
      </trkpt>
      <trkpt lat="45.80834" lon="1.8871">
        <ele>730.3</ele>
        <time>2026-07-09T10:25:15.000Z</time>
      </trkpt>
      <trkpt lat="45.80835" lon="1.88712">
        <ele>729.6</ele>
        <time>2026-07-09T10:25:16.000Z</time>
      </trkpt>
      <trkpt lat="45.80837" lon="1.88713">
        <ele>730</ele>
        <time>2026-07-09T10:25:17.000Z</time>
      </trkpt>
      <trkpt lat="45.80838" lon="1.88715">
        <ele>729.4</ele>
        <time>2026-07-09T10:25:18.000Z</time>
      </trkpt>
      <trkpt lat="45.8084" lon="1.88716">
        <ele>729.5</ele>
        <time>2026-07-09T10:25:19.000Z</time>
      </trkpt>
      <trkpt lat="45.80841" lon="1.88717">
        <ele>729.9</ele>
        <time>2026-07-09T10:25:20.000Z</time>
      </trkpt>
      <trkpt lat="45.80843" lon="1.88718">
        <ele>729.6</ele>
        <time>2026-07-09T10:25:21.000Z</time>
      </trkpt>
      <trkpt lat="45.80845" lon="1.8872">
        <ele>728.9</ele>
        <time>2026-07-09T10:25:22.000Z</time>
      </trkpt>
      <trkpt lat="45.80847" lon="1.88722">
        <ele>729.8</ele>
        <time>2026-07-09T10:25:23.000Z</time>
      </trkpt>
      <trkpt lat="45.80848" lon="1.88724">
        <ele>729.1</ele>
        <time>2026-07-09T10:25:24.000Z</time>
      </trkpt>
      <trkpt lat="45.80849" lon="1.88726">
        <ele>729.2</ele>
        <time>2026-07-09T10:25:25.000Z</time>
      </trkpt>
      <trkpt lat="45.8085" lon="1.88728">
        <ele>728.9</ele>
        <time>2026-07-09T10:25:26.000Z</time>
      </trkpt>
      <trkpt lat="45.80851" lon="1.8873">
        <ele>727.9</ele>
        <time>2026-07-09T10:25:27.000Z</time>
      </trkpt>
      <trkpt lat="45.80852" lon="1.88731">
        <ele>727.9</ele>
        <time>2026-07-09T10:25:28.000Z</time>
      </trkpt>
      <trkpt lat="45.80853" lon="1.88733">
        <ele>728.4</ele>
        <time>2026-07-09T10:25:29.000Z</time>
      </trkpt>
      <trkpt lat="45.80854" lon="1.88735">
        <ele>727.7</ele>
        <time>2026-07-09T10:25:30.000Z</time>
      </trkpt>
      <trkpt lat="45.80856" lon="1.88736">
        <ele>727.9</ele>
        <time>2026-07-09T10:25:31.000Z</time>
      </trkpt>
      <trkpt lat="45.80857" lon="1.88736">
        <ele>727.5</ele>
        <time>2026-07-09T10:25:32.000Z</time>
      </trkpt>
      <trkpt lat="45.80858" lon="1.88737">
        <ele>727.5</ele>
        <time>2026-07-09T10:25:33.000Z</time>
      </trkpt>
      <trkpt lat="45.8086" lon="1.88737">
        <ele>726.8</ele>
        <time>2026-07-09T10:25:34.000Z</time>
      </trkpt>
      <trkpt lat="45.80861" lon="1.88737">
        <ele>727.6</ele>
        <time>2026-07-09T10:25:35.000Z</time>
      </trkpt>
      <trkpt lat="45.80863" lon="1.88736">
        <ele>727.8</ele>
        <time>2026-07-09T10:25:36.000Z</time>
      </trkpt>
      <trkpt lat="45.80864" lon="1.88734">
        <ele>727.8</ele>
        <time>2026-07-09T10:25:37.000Z</time>
      </trkpt>
      <trkpt lat="45.80865" lon="1.88733">
        <ele>728</ele>
        <time>2026-07-09T10:25:38.000Z</time>
      </trkpt>
      <trkpt lat="45.80867" lon="1.88732">
        <ele>727.1</ele>
        <time>2026-07-09T10:25:39.000Z</time>
      </trkpt>
      <trkpt lat="45.80868" lon="1.88731">
        <ele>726.9</ele>
        <time>2026-07-09T10:25:40.000Z</time>
      </trkpt>
      <trkpt lat="45.8087" lon="1.88731">
        <ele>726.9</ele>
        <time>2026-07-09T10:25:41.000Z</time>
      </trkpt>
      <trkpt lat="45.80871" lon="1.8873">
        <ele>726.8</ele>
        <time>2026-07-09T10:25:42.000Z</time>
      </trkpt>
      <trkpt lat="45.80872" lon="1.88729">
        <ele>726.6</ele>
        <time>2026-07-09T10:25:43.000Z</time>
      </trkpt>
      <trkpt lat="45.80873" lon="1.88729">
        <ele>725.9</ele>
        <time>2026-07-09T10:25:44.000Z</time>
      </trkpt>
      <trkpt lat="45.80874" lon="1.88728">
        <ele>727.1</ele>
        <time>2026-07-09T10:25:45.000Z</time>
      </trkpt>
      <trkpt lat="45.80875" lon="1.88728">
        <ele>727.1</ele>
        <time>2026-07-09T10:25:46.000Z</time>
      </trkpt>
      <trkpt lat="45.80876" lon="1.88727">
        <ele>728</ele>
        <time>2026-07-09T10:25:47.000Z</time>
      </trkpt>
      <trkpt lat="45.80877" lon="1.88726">
        <ele>726.4</ele>
        <time>2026-07-09T10:25:48.000Z</time>
      </trkpt>
      <trkpt lat="45.80879" lon="1.88724">
        <ele>725.1</ele>
        <time>2026-07-09T10:25:49.000Z</time>
      </trkpt>
      <trkpt lat="45.80881" lon="1.88723">
        <ele>725.3</ele>
        <time>2026-07-09T10:25:50.000Z</time>
      </trkpt>
      <trkpt lat="45.80884" lon="1.88722">
        <ele>725.4</ele>
        <time>2026-07-09T10:25:51.000Z</time>
      </trkpt>
      <trkpt lat="45.80887" lon="1.88721">
        <ele>726</ele>
        <time>2026-07-09T10:25:52.000Z</time>
      </trkpt>
      <trkpt lat="45.80889" lon="1.88721">
        <ele>725.4</ele>
        <time>2026-07-09T10:25:53.000Z</time>
      </trkpt>
      <trkpt lat="45.80891" lon="1.88721">
        <ele>725.2</ele>
        <time>2026-07-09T10:25:54.000Z</time>
      </trkpt>
      <trkpt lat="45.80893" lon="1.8872">
        <ele>725</ele>
        <time>2026-07-09T10:25:55.000Z</time>
      </trkpt>
      <trkpt lat="45.80895" lon="1.88719">
        <ele>725.9</ele>
        <time>2026-07-09T10:25:56.000Z</time>
      </trkpt>
      <trkpt lat="45.80897" lon="1.88718">
        <ele>726.4</ele>
        <time>2026-07-09T10:25:57.000Z</time>
      </trkpt>
      <trkpt lat="45.80899" lon="1.88717">
        <ele>726</ele>
        <time>2026-07-09T10:25:58.000Z</time>
      </trkpt>
      <trkpt lat="45.809" lon="1.88716">
        <ele>725.4</ele>
        <time>2026-07-09T10:25:59.000Z</time>
      </trkpt>
      <trkpt lat="45.80902" lon="1.88715">
        <ele>725.6</ele>
        <time>2026-07-09T10:26:00.000Z</time>
      </trkpt>
      <trkpt lat="45.80904" lon="1.88715">
        <ele>725.1</ele>
        <time>2026-07-09T10:26:01.000Z</time>
      </trkpt>
      <trkpt lat="45.80905" lon="1.88714">
        <ele>725.3</ele>
        <time>2026-07-09T10:26:02.000Z</time>
      </trkpt>
      <trkpt lat="45.80907" lon="1.88713">
        <ele>725.1</ele>
        <time>2026-07-09T10:26:03.000Z</time>
      </trkpt>
      <trkpt lat="45.80909" lon="1.88712">
        <ele>726.8</ele>
        <time>2026-07-09T10:26:04.000Z</time>
      </trkpt>
      <trkpt lat="45.8091" lon="1.88711">
        <ele>726.9</ele>
        <time>2026-07-09T10:26:05.000Z</time>
      </trkpt>
      <trkpt lat="45.80912" lon="1.88711">
        <ele>726.9</ele>
        <time>2026-07-09T10:26:06.000Z</time>
      </trkpt>
      <trkpt lat="45.80914" lon="1.8871">
        <ele>726.3</ele>
        <time>2026-07-09T10:26:07.000Z</time>
      </trkpt>
      <trkpt lat="45.80916" lon="1.8871">
        <ele>725.4</ele>
        <time>2026-07-09T10:26:08.000Z</time>
      </trkpt>
      <trkpt lat="45.80917" lon="1.88709">
        <ele>724.6</ele>
        <time>2026-07-09T10:26:09.000Z</time>
      </trkpt>
      <trkpt lat="45.80919" lon="1.88709">
        <ele>724.5</ele>
        <time>2026-07-09T10:26:10.000Z</time>
      </trkpt>
      <trkpt lat="45.80921" lon="1.88709">
        <ele>723.6</ele>
        <time>2026-07-09T10:26:11.000Z</time>
      </trkpt>
      <trkpt lat="45.80922" lon="1.88708">
        <ele>723.2</ele>
        <time>2026-07-09T10:26:12.000Z</time>
      </trkpt>
      <trkpt lat="45.80924" lon="1.88708">
        <ele>723</ele>
        <time>2026-07-09T10:26:13.000Z</time>
      </trkpt>
      <trkpt lat="45.80926" lon="1.88708">
        <ele>722.9</ele>
        <time>2026-07-09T10:26:14.000Z</time>
      </trkpt>
      <trkpt lat="45.80928" lon="1.88708">
        <ele>722.9</ele>
        <time>2026-07-09T10:26:15.000Z</time>
      </trkpt>
      <trkpt lat="45.8093" lon="1.88708">
        <ele>722.6</ele>
        <time>2026-07-09T10:26:16.000Z</time>
      </trkpt>
      <trkpt lat="45.80932" lon="1.88707">
        <ele>723.2</ele>
        <time>2026-07-09T10:26:17.000Z</time>
      </trkpt>
      <trkpt lat="45.80934" lon="1.88707">
        <ele>723.2</ele>
        <time>2026-07-09T10:26:18.000Z</time>
      </trkpt>
      <trkpt lat="45.80936" lon="1.88707">
        <ele>725.5</ele>
        <time>2026-07-09T10:26:19.000Z</time>
      </trkpt>
      <trkpt lat="45.80938" lon="1.88707">
        <ele>725.9</ele>
        <time>2026-07-09T10:26:20.000Z</time>
      </trkpt>
      <trkpt lat="45.8094" lon="1.88707">
        <ele>728.2</ele>
        <time>2026-07-09T10:26:21.000Z</time>
      </trkpt>
      <trkpt lat="45.80942" lon="1.88706">
        <ele>726.2</ele>
        <time>2026-07-09T10:26:22.000Z</time>
      </trkpt>
      <trkpt lat="45.80943" lon="1.88705">
        <ele>726.6</ele>
        <time>2026-07-09T10:26:23.000Z</time>
      </trkpt>
      <trkpt lat="45.80945" lon="1.88704">
        <ele>725.9</ele>
        <time>2026-07-09T10:26:24.000Z</time>
      </trkpt>
      <trkpt lat="45.80947" lon="1.88704">
        <ele>725.7</ele>
        <time>2026-07-09T10:26:25.000Z</time>
      </trkpt>
      <trkpt lat="45.80949" lon="1.88703">
        <ele>726.8</ele>
        <time>2026-07-09T10:26:26.000Z</time>
      </trkpt>
      <trkpt lat="45.80951" lon="1.88702">
        <ele>726.8</ele>
        <time>2026-07-09T10:26:27.000Z</time>
      </trkpt>
      <trkpt lat="45.80952" lon="1.88702">
        <ele>726.4</ele>
        <time>2026-07-09T10:26:28.000Z</time>
      </trkpt>
      <trkpt lat="45.80954" lon="1.88702">
        <ele>726.5</ele>
        <time>2026-07-09T10:26:29.000Z</time>
      </trkpt>
      <trkpt lat="45.80955" lon="1.88701">
        <ele>725.7</ele>
        <time>2026-07-09T10:26:30.000Z</time>
      </trkpt>
      <trkpt lat="45.80956" lon="1.887">
        <ele>724.1</ele>
        <time>2026-07-09T10:26:31.000Z</time>
      </trkpt>
      <trkpt lat="45.80956" lon="1.887">
        <ele>725.2</ele>
        <time>2026-07-09T10:26:32.000Z</time>
      </trkpt>
      <trkpt lat="45.80957" lon="1.887">
        <ele>724.9</ele>
        <time>2026-07-09T10:26:33.000Z</time>
      </trkpt>
      <trkpt lat="45.80959" lon="1.88701">
        <ele>726.5</ele>
        <time>2026-07-09T10:26:34.000Z</time>
      </trkpt>
      <trkpt lat="45.8096" lon="1.88701">
        <ele>727.2</ele>
        <time>2026-07-09T10:26:35.000Z</time>
      </trkpt>
      <trkpt lat="45.80961" lon="1.887">
        <ele>726.8</ele>
        <time>2026-07-09T10:26:36.000Z</time>
      </trkpt>
      <trkpt lat="45.80963" lon="1.88699">
        <ele>726.1</ele>
        <time>2026-07-09T10:26:37.000Z</time>
      </trkpt>
      <trkpt lat="45.80964" lon="1.88698">
        <ele>726.1</ele>
        <time>2026-07-09T10:26:38.000Z</time>
      </trkpt>
      <trkpt lat="45.80966" lon="1.88697">
        <ele>725.8</ele>
        <time>2026-07-09T10:26:39.000Z</time>
      </trkpt>
      <trkpt lat="45.80967" lon="1.88696">
        <ele>724.9</ele>
        <time>2026-07-09T10:26:40.000Z</time>
      </trkpt>
      <trkpt lat="45.80968" lon="1.88695">
        <ele>724.2</ele>
        <time>2026-07-09T10:26:41.000Z</time>
      </trkpt>
      <trkpt lat="45.80969" lon="1.88693">
        <ele>724.3</ele>
        <time>2026-07-09T10:26:42.000Z</time>
      </trkpt>
      <trkpt lat="45.80971" lon="1.88691">
        <ele>723.8</ele>
        <time>2026-07-09T10:26:43.000Z</time>
      </trkpt>
      <trkpt lat="45.80973" lon="1.8869">
        <ele>723.6</ele>
        <time>2026-07-09T10:26:44.000Z</time>
      </trkpt>
      <trkpt lat="45.80975" lon="1.88688">
        <ele>723.8</ele>
        <time>2026-07-09T10:26:45.000Z</time>
      </trkpt>
      <trkpt lat="45.80976" lon="1.88687">
        <ele>723.8</ele>
        <time>2026-07-09T10:26:46.000Z</time>
      </trkpt>
      <trkpt lat="45.80977" lon="1.88684">
        <ele>723.1</ele>
        <time>2026-07-09T10:26:47.000Z</time>
      </trkpt>
      <trkpt lat="45.80977" lon="1.88682">
        <ele>723.3</ele>
        <time>2026-07-09T10:26:48.000Z</time>
      </trkpt>
      <trkpt lat="45.80978" lon="1.8868">
        <ele>722.8</ele>
        <time>2026-07-09T10:26:49.000Z</time>
      </trkpt>
      <trkpt lat="45.80978" lon="1.88678">
        <ele>722.4</ele>
        <time>2026-07-09T10:26:50.000Z</time>
      </trkpt>
      <trkpt lat="45.80979" lon="1.88676">
        <ele>721.7</ele>
        <time>2026-07-09T10:26:51.000Z</time>
      </trkpt>
      <trkpt lat="45.8098" lon="1.88673">
        <ele>721.2</ele>
        <time>2026-07-09T10:26:52.000Z</time>
      </trkpt>
      <trkpt lat="45.80981" lon="1.8867">
        <ele>719.9</ele>
        <time>2026-07-09T10:26:53.000Z</time>
      </trkpt>
      <trkpt lat="45.80981" lon="1.88668">
        <ele>720.3</ele>
        <time>2026-07-09T10:26:54.000Z</time>
      </trkpt>
      <trkpt lat="45.80982" lon="1.88665">
        <ele>720</ele>
        <time>2026-07-09T10:26:55.000Z</time>
      </trkpt>
      <trkpt lat="45.80982" lon="1.88663">
        <ele>720.8</ele>
        <time>2026-07-09T10:26:56.000Z</time>
      </trkpt>
      <trkpt lat="45.80983" lon="1.8866">
        <ele>721.6</ele>
        <time>2026-07-09T10:26:57.000Z</time>
      </trkpt>
      <trkpt lat="45.80984" lon="1.88658">
        <ele>721.7</ele>
        <time>2026-07-09T10:26:58.000Z</time>
      </trkpt>
      <trkpt lat="45.80984" lon="1.88655">
        <ele>721.3</ele>
        <time>2026-07-09T10:26:59.000Z</time>
      </trkpt>
      <trkpt lat="45.80985" lon="1.88653">
        <ele>721.2</ele>
        <time>2026-07-09T10:27:00.000Z</time>
      </trkpt>
      <trkpt lat="45.80986" lon="1.8865">
        <ele>721.6</ele>
        <time>2026-07-09T10:27:01.000Z</time>
      </trkpt>
      <trkpt lat="45.80987" lon="1.88648">
        <ele>720.9</ele>
        <time>2026-07-09T10:27:02.000Z</time>
      </trkpt>
      <trkpt lat="45.80988" lon="1.88646">
        <ele>721</ele>
        <time>2026-07-09T10:27:03.000Z</time>
      </trkpt>
      <trkpt lat="45.80989" lon="1.88644">
        <ele>720.8</ele>
        <time>2026-07-09T10:27:04.000Z</time>
      </trkpt>
      <trkpt lat="45.80991" lon="1.88642">
        <ele>721.1</ele>
        <time>2026-07-09T10:27:05.000Z</time>
      </trkpt>
      <trkpt lat="45.80992" lon="1.8864">
        <ele>722</ele>
        <time>2026-07-09T10:27:06.000Z</time>
      </trkpt>
      <trkpt lat="45.80993" lon="1.88639">
        <ele>722.1</ele>
        <time>2026-07-09T10:27:07.000Z</time>
      </trkpt>
      <trkpt lat="45.80995" lon="1.88637">
        <ele>721.3</ele>
        <time>2026-07-09T10:27:08.000Z</time>
      </trkpt>
      <trkpt lat="45.80996" lon="1.88635">
        <ele>721.3</ele>
        <time>2026-07-09T10:27:09.000Z</time>
      </trkpt>
      <trkpt lat="45.80998" lon="1.88634">
        <ele>720.9</ele>
        <time>2026-07-09T10:27:10.000Z</time>
      </trkpt>
      <trkpt lat="45.80999" lon="1.88632">
        <ele>721</ele>
        <time>2026-07-09T10:27:11.000Z</time>
      </trkpt>
      <trkpt lat="45.81" lon="1.88631">
        <ele>721.1</ele>
        <time>2026-07-09T10:27:12.000Z</time>
      </trkpt>
      <trkpt lat="45.81002" lon="1.88629">
        <ele>720.3</ele>
        <time>2026-07-09T10:27:13.000Z</time>
      </trkpt>
      <trkpt lat="45.81003" lon="1.88628">
        <ele>720.9</ele>
        <time>2026-07-09T10:27:14.000Z</time>
      </trkpt>
      <trkpt lat="45.81005" lon="1.88627">
        <ele>720.5</ele>
        <time>2026-07-09T10:27:15.000Z</time>
      </trkpt>
      <trkpt lat="45.81006" lon="1.88626">
        <ele>721.7</ele>
        <time>2026-07-09T10:27:16.000Z</time>
      </trkpt>
      <trkpt lat="45.81008" lon="1.88624">
        <ele>722.4</ele>
        <time>2026-07-09T10:27:17.000Z</time>
      </trkpt>
      <trkpt lat="45.81009" lon="1.88623">
        <ele>722.2</ele>
        <time>2026-07-09T10:27:18.000Z</time>
      </trkpt>
      <trkpt lat="45.8101" lon="1.88622">
        <ele>721.3</ele>
        <time>2026-07-09T10:27:19.000Z</time>
      </trkpt>
      <trkpt lat="45.81011" lon="1.88621">
        <ele>722.1</ele>
        <time>2026-07-09T10:27:20.000Z</time>
      </trkpt>
      <trkpt lat="45.81013" lon="1.8862">
        <ele>721</ele>
        <time>2026-07-09T10:27:21.000Z</time>
      </trkpt>
      <trkpt lat="45.81013" lon="1.88619">
        <ele>721.8</ele>
        <time>2026-07-09T10:27:22.000Z</time>
      </trkpt>
      <trkpt lat="45.81015" lon="1.88618">
        <ele>722.1</ele>
        <time>2026-07-09T10:27:23.000Z</time>
      </trkpt>
      <trkpt lat="45.81016" lon="1.88617">
        <ele>721.5</ele>
        <time>2026-07-09T10:27:24.000Z</time>
      </trkpt>
      <trkpt lat="45.81017" lon="1.88616">
        <ele>721.8</ele>
        <time>2026-07-09T10:27:25.000Z</time>
      </trkpt>
      <trkpt lat="45.81019" lon="1.88615">
        <ele>721.3</ele>
        <time>2026-07-09T10:27:26.000Z</time>
      </trkpt>
      <trkpt lat="45.8102" lon="1.88614">
        <ele>719.9</ele>
        <time>2026-07-09T10:27:27.000Z</time>
      </trkpt>
      <trkpt lat="45.81022" lon="1.88614">
        <ele>720.5</ele>
        <time>2026-07-09T10:27:28.000Z</time>
      </trkpt>
      <trkpt lat="45.81024" lon="1.88614">
        <ele>720.8</ele>
        <time>2026-07-09T10:27:29.000Z</time>
      </trkpt>
      <trkpt lat="45.81026" lon="1.88614">
        <ele>720</ele>
        <time>2026-07-09T10:27:30.000Z</time>
      </trkpt>
      <trkpt lat="45.81027" lon="1.88614">
        <ele>720.5</ele>
        <time>2026-07-09T10:27:31.000Z</time>
      </trkpt>
      <trkpt lat="45.81029" lon="1.88613">
        <ele>721.8</ele>
        <time>2026-07-09T10:27:32.000Z</time>
      </trkpt>
      <trkpt lat="45.81031" lon="1.88613">
        <ele>722.6</ele>
        <time>2026-07-09T10:27:33.000Z</time>
      </trkpt>
      <trkpt lat="45.81034" lon="1.88613">
        <ele>723.7</ele>
        <time>2026-07-09T10:27:34.000Z</time>
      </trkpt>
      <trkpt lat="45.81036" lon="1.88614">
        <ele>723.8</ele>
        <time>2026-07-09T10:27:35.000Z</time>
      </trkpt>
      <trkpt lat="45.81038" lon="1.88614">
        <ele>724.8</ele>
        <time>2026-07-09T10:27:36.000Z</time>
      </trkpt>
      <trkpt lat="45.8104" lon="1.88615">
        <ele>724.2</ele>
        <time>2026-07-09T10:27:37.000Z</time>
      </trkpt>
      <trkpt lat="45.81042" lon="1.88616">
        <ele>724.4</ele>
        <time>2026-07-09T10:27:38.000Z</time>
      </trkpt>
      <trkpt lat="45.81044" lon="1.88617">
        <ele>724.6</ele>
        <time>2026-07-09T10:27:39.000Z</time>
      </trkpt>
      <trkpt lat="45.81045" lon="1.88618">
        <ele>724.8</ele>
        <time>2026-07-09T10:27:40.000Z</time>
      </trkpt>
      <trkpt lat="45.81047" lon="1.8862">
        <ele>723.7</ele>
        <time>2026-07-09T10:27:41.000Z</time>
      </trkpt>
      <trkpt lat="45.81049" lon="1.88622">
        <ele>723.4</ele>
        <time>2026-07-09T10:27:42.000Z</time>
      </trkpt>
      <trkpt lat="45.8105" lon="1.88624">
        <ele>723</ele>
        <time>2026-07-09T10:27:43.000Z</time>
      </trkpt>
      <trkpt lat="45.81051" lon="1.88626">
        <ele>722.3</ele>
        <time>2026-07-09T10:27:44.000Z</time>
      </trkpt>
      <trkpt lat="45.81052" lon="1.88627">
        <ele>722.3</ele>
        <time>2026-07-09T10:27:45.000Z</time>
      </trkpt>
      <trkpt lat="45.81053" lon="1.88629">
        <ele>722.9</ele>
        <time>2026-07-09T10:27:46.000Z</time>
      </trkpt>
      <trkpt lat="45.81054" lon="1.88631">
        <ele>724.1</ele>
        <time>2026-07-09T10:27:47.000Z</time>
      </trkpt>
      <trkpt lat="45.81056" lon="1.88634">
        <ele>724.8</ele>
        <time>2026-07-09T10:27:48.000Z</time>
      </trkpt>
      <trkpt lat="45.81057" lon="1.88636">
        <ele>725.5</ele>
        <time>2026-07-09T10:27:49.000Z</time>
      </trkpt>
      <trkpt lat="45.81058" lon="1.88639">
        <ele>726.9</ele>
        <time>2026-07-09T10:27:50.000Z</time>
      </trkpt>
      <trkpt lat="45.8106" lon="1.88642">
        <ele>726.1</ele>
        <time>2026-07-09T10:27:51.000Z</time>
      </trkpt>
      <trkpt lat="45.81062" lon="1.88645">
        <ele>726.1</ele>
        <time>2026-07-09T10:27:52.000Z</time>
      </trkpt>
      <trkpt lat="45.81064" lon="1.88648">
        <ele>726.9</ele>
        <time>2026-07-09T10:27:53.000Z</time>
      </trkpt>
      <trkpt lat="45.81066" lon="1.8865">
        <ele>726.9</ele>
        <time>2026-07-09T10:27:54.000Z</time>
      </trkpt>
      <trkpt lat="45.81068" lon="1.88652">
        <ele>726.9</ele>
        <time>2026-07-09T10:27:55.000Z</time>
      </trkpt>
      <trkpt lat="45.81069" lon="1.88654">
        <ele>726.8</ele>
        <time>2026-07-09T10:27:56.000Z</time>
      </trkpt>
      <trkpt lat="45.81071" lon="1.88655">
        <ele>727</ele>
        <time>2026-07-09T10:27:57.000Z</time>
      </trkpt>
      <trkpt lat="45.81073" lon="1.88656">
        <ele>727.4</ele>
        <time>2026-07-09T10:27:58.000Z</time>
      </trkpt>
      <trkpt lat="45.81075" lon="1.88657">
        <ele>727.4</ele>
        <time>2026-07-09T10:27:59.000Z</time>
      </trkpt>
      <trkpt lat="45.81077" lon="1.88657">
        <ele>727.8</ele>
        <time>2026-07-09T10:28:00.000Z</time>
      </trkpt>
      <trkpt lat="45.8108" lon="1.88657">
        <ele>727.3</ele>
        <time>2026-07-09T10:28:01.000Z</time>
      </trkpt>
      <trkpt lat="45.81082" lon="1.88658">
        <ele>727.3</ele>
        <time>2026-07-09T10:28:02.000Z</time>
      </trkpt>
      <trkpt lat="45.81084" lon="1.88658">
        <ele>727.8</ele>
        <time>2026-07-09T10:28:03.000Z</time>
      </trkpt>
      <trkpt lat="45.81086" lon="1.88658">
        <ele>728.2</ele>
        <time>2026-07-09T10:28:04.000Z</time>
      </trkpt>
      <trkpt lat="45.81088" lon="1.88659">
        <ele>728.6</ele>
        <time>2026-07-09T10:28:05.000Z</time>
      </trkpt>
      <trkpt lat="45.81089" lon="1.88659">
        <ele>728.1</ele>
        <time>2026-07-09T10:28:06.000Z</time>
      </trkpt>
      <trkpt lat="45.81091" lon="1.88659">
        <ele>728.8</ele>
        <time>2026-07-09T10:28:07.000Z</time>
      </trkpt>
      <trkpt lat="45.81093" lon="1.88665">
        <ele>728.3</ele>
        <time>2026-07-09T10:28:08.000Z</time>
      </trkpt>
      <trkpt lat="45.8109" lon="1.8867">
        <ele>727.5</ele>
        <time>2026-07-09T10:28:09.000Z</time>
      </trkpt>
      <trkpt lat="45.81086" lon="1.8867">
        <ele>723.7</ele>
        <time>2026-07-09T10:28:10.000Z</time>
      </trkpt>
      <trkpt lat="45.81084" lon="1.88669">
        <ele>724.9</ele>
        <time>2026-07-09T10:28:11.000Z</time>
      </trkpt>
      <trkpt lat="45.81082" lon="1.88662">
        <ele>724.9</ele>
        <time>2026-07-09T10:28:12.000Z</time>
      </trkpt>
      <trkpt lat="45.81092" lon="1.88661">
        <ele>727.7</ele>
        <time>2026-07-09T10:28:13.000Z</time>
      </trkpt>
      <trkpt lat="45.81093" lon="1.88661">
        <ele>728</ele>
        <time>2026-07-09T10:28:14.000Z</time>
      </trkpt>
      <trkpt lat="45.81095" lon="1.88661">
        <ele>728.4</ele>
        <time>2026-07-09T10:28:15.000Z</time>
      </trkpt>
      <trkpt lat="45.81097" lon="1.88661">
        <ele>727.7</ele>
        <time>2026-07-09T10:28:16.000Z</time>
      </trkpt>
      <trkpt lat="45.811" lon="1.88661">
        <ele>727.8</ele>
        <time>2026-07-09T10:28:17.000Z</time>
      </trkpt>
      <trkpt lat="45.81101" lon="1.88659">
        <ele>728.1</ele>
        <time>2026-07-09T10:28:18.000Z</time>
      </trkpt>
      <trkpt lat="45.81103" lon="1.88659">
        <ele>728.6</ele>
        <time>2026-07-09T10:28:19.000Z</time>
      </trkpt>
      <trkpt lat="45.81105" lon="1.88658">
        <ele>728.5</ele>
        <time>2026-07-09T10:28:20.000Z</time>
      </trkpt>
      <trkpt lat="45.81107" lon="1.88658">
        <ele>728.4</ele>
        <time>2026-07-09T10:28:21.000Z</time>
      </trkpt>
      <trkpt lat="45.81108" lon="1.88657">
        <ele>728.1</ele>
        <time>2026-07-09T10:28:22.000Z</time>
      </trkpt>
      <trkpt lat="45.8111" lon="1.88657">
        <ele>728.2</ele>
        <time>2026-07-09T10:28:23.000Z</time>
      </trkpt>
      <trkpt lat="45.81112" lon="1.88656">
        <ele>728.5</ele>
        <time>2026-07-09T10:28:24.000Z</time>
      </trkpt>
      <trkpt lat="45.81114" lon="1.88655">
        <ele>728.2</ele>
        <time>2026-07-09T10:28:25.000Z</time>
      </trkpt>
      <trkpt lat="45.81116" lon="1.88655">
        <ele>728</ele>
        <time>2026-07-09T10:28:26.000Z</time>
      </trkpt>
      <trkpt lat="45.81118" lon="1.88655">
        <ele>729.4</ele>
        <time>2026-07-09T10:28:27.000Z</time>
      </trkpt>
      <trkpt lat="45.8112" lon="1.88655">
        <ele>729.8</ele>
        <time>2026-07-09T10:28:28.000Z</time>
      </trkpt>
      <trkpt lat="45.81122" lon="1.88655">
        <ele>729.6</ele>
        <time>2026-07-09T10:28:29.000Z</time>
      </trkpt>
      <trkpt lat="45.81123" lon="1.88655">
        <ele>729.5</ele>
        <time>2026-07-09T10:28:30.000Z</time>
      </trkpt>
      <trkpt lat="45.81125" lon="1.88655">
        <ele>729.4</ele>
        <time>2026-07-09T10:28:31.000Z</time>
      </trkpt>
      <trkpt lat="45.81127" lon="1.88655">
        <ele>729.5</ele>
        <time>2026-07-09T10:28:32.000Z</time>
      </trkpt>
      <trkpt lat="45.81129" lon="1.88655">
        <ele>729.4</ele>
        <time>2026-07-09T10:28:33.000Z</time>
      </trkpt>
      <trkpt lat="45.81131" lon="1.88654">
        <ele>729.9</ele>
        <time>2026-07-09T10:28:34.000Z</time>
      </trkpt>
      <trkpt lat="45.81132" lon="1.88654">
        <ele>730.6</ele>
        <time>2026-07-09T10:28:35.000Z</time>
      </trkpt>
      <trkpt lat="45.81135" lon="1.88653">
        <ele>730.8</ele>
        <time>2026-07-09T10:28:36.000Z</time>
      </trkpt>
      <trkpt lat="45.81136" lon="1.88654">
        <ele>730.8</ele>
        <time>2026-07-09T10:28:37.000Z</time>
      </trkpt>
      <trkpt lat="45.81138" lon="1.88654">
        <ele>730.8</ele>
        <time>2026-07-09T10:28:38.000Z</time>
      </trkpt>
      <trkpt lat="45.8114" lon="1.88655">
        <ele>730.3</ele>
        <time>2026-07-09T10:28:39.000Z</time>
      </trkpt>
      <trkpt lat="45.81141" lon="1.88656">
        <ele>730.4</ele>
        <time>2026-07-09T10:28:40.000Z</time>
      </trkpt>
      <trkpt lat="45.81142" lon="1.88657">
        <ele>730.2</ele>
        <time>2026-07-09T10:28:41.000Z</time>
      </trkpt>
      <trkpt lat="45.81143" lon="1.88658">
        <ele>730.3</ele>
        <time>2026-07-09T10:28:42.000Z</time>
      </trkpt>
      <trkpt lat="45.81145" lon="1.8866">
        <ele>731.6</ele>
        <time>2026-07-09T10:28:43.000Z</time>
      </trkpt>
      <trkpt lat="45.81145" lon="1.88662">
        <ele>732.4</ele>
        <time>2026-07-09T10:28:44.000Z</time>
      </trkpt>
      <trkpt lat="45.81147" lon="1.88663">
        <ele>731.6</ele>
        <time>2026-07-09T10:28:45.000Z</time>
      </trkpt>
      <trkpt lat="45.81148" lon="1.88665">
        <ele>731.5</ele>
        <time>2026-07-09T10:28:46.000Z</time>
      </trkpt>
      <trkpt lat="45.81149" lon="1.88666">
        <ele>730.8</ele>
        <time>2026-07-09T10:28:47.000Z</time>
      </trkpt>
      <trkpt lat="45.81151" lon="1.88668">
        <ele>731.2</ele>
        <time>2026-07-09T10:28:48.000Z</time>
      </trkpt>
      <trkpt lat="45.81152" lon="1.88669">
        <ele>730.9</ele>
        <time>2026-07-09T10:28:49.000Z</time>
      </trkpt>
      <trkpt lat="45.81152" lon="1.88672">
        <ele>729.6</ele>
        <time>2026-07-09T10:28:50.000Z</time>
      </trkpt>
      <trkpt lat="45.81151" lon="1.88674">
        <ele>729.5</ele>
        <time>2026-07-09T10:28:51.000Z</time>
      </trkpt>
      <trkpt lat="45.81151" lon="1.88676">
        <ele>729.6</ele>
        <time>2026-07-09T10:28:52.000Z</time>
      </trkpt>
      <trkpt lat="45.81151" lon="1.88678">
        <ele>729</ele>
        <time>2026-07-09T10:28:53.000Z</time>
      </trkpt>
      <trkpt lat="45.81151" lon="1.8868">
        <ele>728.8</ele>
        <time>2026-07-09T10:28:54.000Z</time>
      </trkpt>
      <trkpt lat="45.81153" lon="1.88683">
        <ele>729.2</ele>
        <time>2026-07-09T10:28:55.000Z</time>
      </trkpt>
      <trkpt lat="45.81154" lon="1.88684">
        <ele>729.2</ele>
        <time>2026-07-09T10:28:56.000Z</time>
      </trkpt>
      <trkpt lat="45.81155" lon="1.88686">
        <ele>729.2</ele>
        <time>2026-07-09T10:28:57.000Z</time>
      </trkpt>
      <trkpt lat="45.81156" lon="1.88688">
        <ele>729.5</ele>
        <time>2026-07-09T10:28:58.000Z</time>
      </trkpt>
      <trkpt lat="45.81157" lon="1.8869">
        <ele>729.5</ele>
        <time>2026-07-09T10:28:59.000Z</time>
      </trkpt>
      <trkpt lat="45.81159" lon="1.88692">
        <ele>729.5</ele>
        <time>2026-07-09T10:29:00.000Z</time>
      </trkpt>
      <trkpt lat="45.8116" lon="1.88693">
        <ele>728.9</ele>
        <time>2026-07-09T10:29:01.000Z</time>
      </trkpt>
      <trkpt lat="45.81161" lon="1.88695">
        <ele>728.9</ele>
        <time>2026-07-09T10:29:02.000Z</time>
      </trkpt>
      <trkpt lat="45.81162" lon="1.88698">
        <ele>729.1</ele>
        <time>2026-07-09T10:29:03.000Z</time>
      </trkpt>
      <trkpt lat="45.81164" lon="1.887">
        <ele>729.2</ele>
        <time>2026-07-09T10:29:04.000Z</time>
      </trkpt>
      <trkpt lat="45.81165" lon="1.88702">
        <ele>729</ele>
        <time>2026-07-09T10:29:05.000Z</time>
      </trkpt>
      <trkpt lat="45.81166" lon="1.88705">
        <ele>729</ele>
        <time>2026-07-09T10:29:06.000Z</time>
      </trkpt>
      <trkpt lat="45.81167" lon="1.88706">
        <ele>728.8</ele>
        <time>2026-07-09T10:29:07.000Z</time>
      </trkpt>
      <trkpt lat="45.81169" lon="1.88708">
        <ele>727.7</ele>
        <time>2026-07-09T10:29:08.000Z</time>
      </trkpt>
      <trkpt lat="45.81171" lon="1.88709">
        <ele>727.2</ele>
        <time>2026-07-09T10:29:09.000Z</time>
      </trkpt>
      <trkpt lat="45.81172" lon="1.88711">
        <ele>726.4</ele>
        <time>2026-07-09T10:29:10.000Z</time>
      </trkpt>
      <trkpt lat="45.81173" lon="1.88713">
        <ele>726.2</ele>
        <time>2026-07-09T10:29:11.000Z</time>
      </trkpt>
      <trkpt lat="45.81174" lon="1.88715">
        <ele>726.1</ele>
        <time>2026-07-09T10:29:12.000Z</time>
      </trkpt>
      <trkpt lat="45.81175" lon="1.88717">
        <ele>725.7</ele>
        <time>2026-07-09T10:29:13.000Z</time>
      </trkpt>
      <trkpt lat="45.81176" lon="1.88719">
        <ele>724.4</ele>
        <time>2026-07-09T10:29:14.000Z</time>
      </trkpt>
      <trkpt lat="45.81178" lon="1.88721">
        <ele>724.2</ele>
        <time>2026-07-09T10:29:15.000Z</time>
      </trkpt>
      <trkpt lat="45.81179" lon="1.88723">
        <ele>724.2</ele>
        <time>2026-07-09T10:29:16.000Z</time>
      </trkpt>
      <trkpt lat="45.8118" lon="1.88725">
        <ele>724.4</ele>
        <time>2026-07-09T10:29:17.000Z</time>
      </trkpt>
      <trkpt lat="45.81181" lon="1.88727">
        <ele>724</ele>
        <time>2026-07-09T10:29:18.000Z</time>
      </trkpt>
      <trkpt lat="45.81182" lon="1.88729">
        <ele>724.9</ele>
        <time>2026-07-09T10:29:19.000Z</time>
      </trkpt>
      <trkpt lat="45.81183" lon="1.88731">
        <ele>725.2</ele>
        <time>2026-07-09T10:29:20.000Z</time>
      </trkpt>
      <trkpt lat="45.81184" lon="1.88733">
        <ele>725.1</ele>
        <time>2026-07-09T10:29:21.000Z</time>
      </trkpt>
      <trkpt lat="45.81185" lon="1.88736">
        <ele>724.9</ele>
        <time>2026-07-09T10:29:22.000Z</time>
      </trkpt>
      <trkpt lat="45.81186" lon="1.88737">
        <ele>724.9</ele>
        <time>2026-07-09T10:29:23.000Z</time>
      </trkpt>
      <trkpt lat="45.81187" lon="1.8874">
        <ele>725.5</ele>
        <time>2026-07-09T10:29:24.000Z</time>
      </trkpt>
      <trkpt lat="45.81188" lon="1.88742">
        <ele>726.1</ele>
        <time>2026-07-09T10:29:25.000Z</time>
      </trkpt>
      <trkpt lat="45.81189" lon="1.88744">
        <ele>726.4</ele>
        <time>2026-07-09T10:29:26.000Z</time>
      </trkpt>
      <trkpt lat="45.81189" lon="1.88744">
        <ele>725.6</ele>
        <time>2026-07-09T10:29:27.000Z</time>
      </trkpt>
      <trkpt lat="45.81189" lon="1.88746">
        <ele>725.6</ele>
        <time>2026-07-09T10:29:28.000Z</time>
      </trkpt>
      <trkpt lat="45.81189" lon="1.88748">
        <ele>725.5</ele>
        <time>2026-07-09T10:29:29.000Z</time>
      </trkpt>
      <trkpt lat="45.81191" lon="1.8875">
        <ele>725.7</ele>
        <time>2026-07-09T10:29:30.000Z</time>
      </trkpt>
      <trkpt lat="45.81192" lon="1.88752">
        <ele>726.2</ele>
        <time>2026-07-09T10:29:31.000Z</time>
      </trkpt>
      <trkpt lat="45.81193" lon="1.88754">
        <ele>726.1</ele>
        <time>2026-07-09T10:29:32.000Z</time>
      </trkpt>
      <trkpt lat="45.81193" lon="1.88756">
        <ele>726.3</ele>
        <time>2026-07-09T10:29:33.000Z</time>
      </trkpt>
      <trkpt lat="45.81194" lon="1.88758">
        <ele>726.3</ele>
        <time>2026-07-09T10:29:34.000Z</time>
      </trkpt>
      <trkpt lat="45.81195" lon="1.8876">
        <ele>726.7</ele>
        <time>2026-07-09T10:29:35.000Z</time>
      </trkpt>
      <trkpt lat="45.81196" lon="1.88762">
        <ele>727.1</ele>
        <time>2026-07-09T10:29:36.000Z</time>
      </trkpt>
      <trkpt lat="45.81197" lon="1.88764">
        <ele>727.3</ele>
        <time>2026-07-09T10:29:37.000Z</time>
      </trkpt>
      <trkpt lat="45.81198" lon="1.88767">
        <ele>727.5</ele>
        <time>2026-07-09T10:29:38.000Z</time>
      </trkpt>
      <trkpt lat="45.81199" lon="1.88769">
        <ele>727.4</ele>
        <time>2026-07-09T10:29:39.000Z</time>
      </trkpt>
      <trkpt lat="45.812" lon="1.88771">
        <ele>727.8</ele>
        <time>2026-07-09T10:29:40.000Z</time>
      </trkpt>
      <trkpt lat="45.81201" lon="1.88774">
        <ele>727.9</ele>
        <time>2026-07-09T10:29:41.000Z</time>
      </trkpt>
      <trkpt lat="45.81202" lon="1.88775">
        <ele>727.7</ele>
        <time>2026-07-09T10:29:42.000Z</time>
      </trkpt>
      <trkpt lat="45.81203" lon="1.88777">
        <ele>727.6</ele>
        <time>2026-07-09T10:29:43.000Z</time>
      </trkpt>
      <trkpt lat="45.81203" lon="1.88779">
        <ele>727.9</ele>
        <time>2026-07-09T10:29:44.000Z</time>
      </trkpt>
      <trkpt lat="45.81204" lon="1.88782">
        <ele>728</ele>
        <time>2026-07-09T10:29:45.000Z</time>
      </trkpt>
      <trkpt lat="45.81205" lon="1.88784">
        <ele>728</ele>
        <time>2026-07-09T10:29:46.000Z</time>
      </trkpt>
      <trkpt lat="45.81206" lon="1.88786">
        <ele>728.1</ele>
        <time>2026-07-09T10:29:47.000Z</time>
      </trkpt>
      <trkpt lat="45.81207" lon="1.88788">
        <ele>728.2</ele>
        <time>2026-07-09T10:29:48.000Z</time>
      </trkpt>
      <trkpt lat="45.81208" lon="1.8879">
        <ele>728.1</ele>
        <time>2026-07-09T10:29:49.000Z</time>
      </trkpt>
      <trkpt lat="45.81209" lon="1.88792">
        <ele>728.2</ele>
        <time>2026-07-09T10:29:50.000Z</time>
      </trkpt>
      <trkpt lat="45.8121" lon="1.88795">
        <ele>728</ele>
        <time>2026-07-09T10:29:51.000Z</time>
      </trkpt>
      <trkpt lat="45.81211" lon="1.88796">
        <ele>728</ele>
        <time>2026-07-09T10:29:52.000Z</time>
      </trkpt>
      <trkpt lat="45.81212" lon="1.88798">
        <ele>728</ele>
        <time>2026-07-09T10:29:53.000Z</time>
      </trkpt>
      <trkpt lat="45.81213" lon="1.888">
        <ele>728.2</ele>
        <time>2026-07-09T10:29:54.000Z</time>
      </trkpt>
      <trkpt lat="45.81214" lon="1.88802">
        <ele>728.2</ele>
        <time>2026-07-09T10:29:55.000Z</time>
      </trkpt>
      <trkpt lat="45.81215" lon="1.88803">
        <ele>728.2</ele>
        <time>2026-07-09T10:29:56.000Z</time>
      </trkpt>
      <trkpt lat="45.81216" lon="1.88805">
        <ele>728</ele>
        <time>2026-07-09T10:29:57.000Z</time>
      </trkpt>
      <trkpt lat="45.81217" lon="1.88807">
        <ele>728.2</ele>
        <time>2026-07-09T10:29:58.000Z</time>
      </trkpt>
      <trkpt lat="45.81218" lon="1.88809">
        <ele>728.1</ele>
        <time>2026-07-09T10:29:59.000Z</time>
      </trkpt>
      <trkpt lat="45.81219" lon="1.88811">
        <ele>728.4</ele>
        <time>2026-07-09T10:30:00.000Z</time>
      </trkpt>
      <trkpt lat="45.8122" lon="1.88813">
        <ele>728.7</ele>
        <time>2026-07-09T10:30:01.000Z</time>
      </trkpt>
      <trkpt lat="45.81221" lon="1.88814">
        <ele>728.8</ele>
        <time>2026-07-09T10:30:02.000Z</time>
      </trkpt>
      <trkpt lat="45.81222" lon="1.88816">
        <ele>729</ele>
        <time>2026-07-09T10:30:03.000Z</time>
      </trkpt>
      <trkpt lat="45.81223" lon="1.88818">
        <ele>729</ele>
        <time>2026-07-09T10:30:04.000Z</time>
      </trkpt>
      <trkpt lat="45.81224" lon="1.8882">
        <ele>729.1</ele>
        <time>2026-07-09T10:30:05.000Z</time>
      </trkpt>
      <trkpt lat="45.81225" lon="1.88822">
        <ele>729.2</ele>
        <time>2026-07-09T10:30:06.000Z</time>
      </trkpt>
      <trkpt lat="45.81226" lon="1.88824">
        <ele>729</ele>
        <time>2026-07-09T10:30:07.000Z</time>
      </trkpt>
      <trkpt lat="45.81227" lon="1.88826">
        <ele>729.3</ele>
        <time>2026-07-09T10:30:08.000Z</time>
      </trkpt>
      <trkpt lat="45.81228" lon="1.88828">
        <ele>729.4</ele>
        <time>2026-07-09T10:30:09.000Z</time>
      </trkpt>
      <trkpt lat="45.81229" lon="1.8883">
        <ele>729.4</ele>
        <time>2026-07-09T10:30:10.000Z</time>
      </trkpt>
      <trkpt lat="45.81229" lon="1.88832">
        <ele>729.6</ele>
        <time>2026-07-09T10:30:11.000Z</time>
      </trkpt>
      <trkpt lat="45.8123" lon="1.88834">
        <ele>729.8</ele>
        <time>2026-07-09T10:30:12.000Z</time>
      </trkpt>
      <trkpt lat="45.81231" lon="1.88835">
        <ele>729.9</ele>
        <time>2026-07-09T10:30:13.000Z</time>
      </trkpt>
      <trkpt lat="45.81232" lon="1.88837">
        <ele>730.1</ele>
        <time>2026-07-09T10:30:14.000Z</time>
      </trkpt>
      <trkpt lat="45.81233" lon="1.88839">
        <ele>730.1</ele>
        <time>2026-07-09T10:30:15.000Z</time>
      </trkpt>
      <trkpt lat="45.81233" lon="1.88841">
        <ele>730</ele>
        <time>2026-07-09T10:30:16.000Z</time>
      </trkpt>
      <trkpt lat="45.81232" lon="1.88843">
        <ele>730.8</ele>
        <time>2026-07-09T10:30:17.000Z</time>
      </trkpt>
      <trkpt lat="45.81232" lon="1.88845">
        <ele>730.7</ele>
        <time>2026-07-09T10:30:18.000Z</time>
      </trkpt>
      <trkpt lat="45.81232" lon="1.88847">
        <ele>730.6</ele>
        <time>2026-07-09T10:30:19.000Z</time>
      </trkpt>
      <trkpt lat="45.81231" lon="1.88849">
        <ele>730.4</ele>
        <time>2026-07-09T10:30:20.000Z</time>
      </trkpt>
      <trkpt lat="45.8123" lon="1.8885">
        <ele>729.6</ele>
        <time>2026-07-09T10:30:21.000Z</time>
      </trkpt>
      <trkpt lat="45.81229" lon="1.88852">
        <ele>729.1</ele>
        <time>2026-07-09T10:30:22.000Z</time>
      </trkpt>
      <trkpt lat="45.81228" lon="1.88853">
        <ele>728.9</ele>
        <time>2026-07-09T10:30:23.000Z</time>
      </trkpt>
      <trkpt lat="45.81227" lon="1.88854">
        <ele>728.2</ele>
        <time>2026-07-09T10:30:24.000Z</time>
      </trkpt>
      <trkpt lat="45.81225" lon="1.88855">
        <ele>729</ele>
        <time>2026-07-09T10:30:25.000Z</time>
      </trkpt>
      <trkpt lat="45.81224" lon="1.88856">
        <ele>729.1</ele>
        <time>2026-07-09T10:30:26.000Z</time>
      </trkpt>
      <trkpt lat="45.81223" lon="1.88858">
        <ele>729.1</ele>
        <time>2026-07-09T10:30:27.000Z</time>
      </trkpt>
      <trkpt lat="45.81221" lon="1.8886">
        <ele>728.6</ele>
        <time>2026-07-09T10:30:28.000Z</time>
      </trkpt>
      <trkpt lat="45.8122" lon="1.88862">
        <ele>728.5</ele>
        <time>2026-07-09T10:30:29.000Z</time>
      </trkpt>
      <trkpt lat="45.81219" lon="1.88864">
        <ele>728.6</ele>
        <time>2026-07-09T10:30:30.000Z</time>
      </trkpt>
      <trkpt lat="45.81219" lon="1.88867">
        <ele>727.6</ele>
        <time>2026-07-09T10:30:31.000Z</time>
      </trkpt>
      <trkpt lat="45.81219" lon="1.88869">
        <ele>727.4</ele>
        <time>2026-07-09T10:30:32.000Z</time>
      </trkpt>
      <trkpt lat="45.8122" lon="1.88871">
        <ele>727.1</ele>
        <time>2026-07-09T10:30:33.000Z</time>
      </trkpt>
      <trkpt lat="45.81221" lon="1.88873">
        <ele>727.1</ele>
        <time>2026-07-09T10:30:34.000Z</time>
      </trkpt>
      <trkpt lat="45.81222" lon="1.88875">
        <ele>727.4</ele>
        <time>2026-07-09T10:30:35.000Z</time>
      </trkpt>
      <trkpt lat="45.81223" lon="1.88877">
        <ele>727.6</ele>
        <time>2026-07-09T10:30:36.000Z</time>
      </trkpt>
      <trkpt lat="45.81224" lon="1.88879">
        <ele>727.7</ele>
        <time>2026-07-09T10:30:37.000Z</time>
      </trkpt>
      <trkpt lat="45.81225" lon="1.8888">
        <ele>727.8</ele>
        <time>2026-07-09T10:30:38.000Z</time>
      </trkpt>
      <trkpt lat="45.81226" lon="1.88882">
        <ele>727.9</ele>
        <time>2026-07-09T10:30:39.000Z</time>
      </trkpt>
      <trkpt lat="45.81227" lon="1.88883">
        <ele>728.1</ele>
        <time>2026-07-09T10:30:40.000Z</time>
      </trkpt>
      <trkpt lat="45.81228" lon="1.88885">
        <ele>728.4</ele>
        <time>2026-07-09T10:30:41.000Z</time>
      </trkpt>
      <trkpt lat="45.81229" lon="1.88887">
        <ele>728.7</ele>
        <time>2026-07-09T10:30:42.000Z</time>
      </trkpt>
      <trkpt lat="45.8123" lon="1.88889">
        <ele>728.2</ele>
        <time>2026-07-09T10:30:43.000Z</time>
      </trkpt>
      <trkpt lat="45.81231" lon="1.8889">
        <ele>727.6</ele>
        <time>2026-07-09T10:30:44.000Z</time>
      </trkpt>
      <trkpt lat="45.81231" lon="1.88893">
        <ele>727.3</ele>
        <time>2026-07-09T10:30:45.000Z</time>
      </trkpt>
      <trkpt lat="45.81231" lon="1.88895">
        <ele>726.7</ele>
        <time>2026-07-09T10:30:46.000Z</time>
      </trkpt>
      <trkpt lat="45.81231" lon="1.88897">
        <ele>726.9</ele>
        <time>2026-07-09T10:30:47.000Z</time>
      </trkpt>
      <trkpt lat="45.81231" lon="1.88899">
        <ele>727.1</ele>
        <time>2026-07-09T10:30:48.000Z</time>
      </trkpt>
      <trkpt lat="45.8123" lon="1.88901">
        <ele>726.5</ele>
        <time>2026-07-09T10:30:49.000Z</time>
      </trkpt>
      <trkpt lat="45.8123" lon="1.88904">
        <ele>726.4</ele>
        <time>2026-07-09T10:30:50.000Z</time>
      </trkpt>
      <trkpt lat="45.81229" lon="1.88906">
        <ele>726.7</ele>
        <time>2026-07-09T10:30:51.000Z</time>
      </trkpt>
      <trkpt lat="45.81228" lon="1.88908">
        <ele>726.6</ele>
        <time>2026-07-09T10:30:52.000Z</time>
      </trkpt>
      <trkpt lat="45.81227" lon="1.8891">
        <ele>726.3</ele>
        <time>2026-07-09T10:30:53.000Z</time>
      </trkpt>
      <trkpt lat="45.81225" lon="1.88912">
        <ele>725.9</ele>
        <time>2026-07-09T10:30:54.000Z</time>
      </trkpt>
      <trkpt lat="45.81225" lon="1.88914">
        <ele>725</ele>
        <time>2026-07-09T10:30:55.000Z</time>
      </trkpt>
      <trkpt lat="45.81224" lon="1.88916">
        <ele>724</ele>
        <time>2026-07-09T10:30:56.000Z</time>
      </trkpt>
      <trkpt lat="45.81224" lon="1.88918">
        <ele>723.1</ele>
        <time>2026-07-09T10:30:57.000Z</time>
      </trkpt>
      <trkpt lat="45.81224" lon="1.8892">
        <ele>722.9</ele>
        <time>2026-07-09T10:30:58.000Z</time>
      </trkpt>
      <trkpt lat="45.81224" lon="1.88923">
        <ele>722.2</ele>
        <time>2026-07-09T10:30:59.000Z</time>
      </trkpt>
      <trkpt lat="45.81224" lon="1.88925">
        <ele>722.4</ele>
        <time>2026-07-09T10:31:00.000Z</time>
      </trkpt>
      <trkpt lat="45.81225" lon="1.88926">
        <ele>721.9</ele>
        <time>2026-07-09T10:31:01.000Z</time>
      </trkpt>
      <trkpt lat="45.81225" lon="1.88928">
        <ele>722.1</ele>
        <time>2026-07-09T10:31:02.000Z</time>
      </trkpt>
      <trkpt lat="45.81226" lon="1.8893">
        <ele>722.2</ele>
        <time>2026-07-09T10:31:03.000Z</time>
      </trkpt>
      <trkpt lat="45.81226" lon="1.88933">
        <ele>722.4</ele>
        <time>2026-07-09T10:31:04.000Z</time>
      </trkpt>
      <trkpt lat="45.81227" lon="1.88935">
        <ele>722.4</ele>
        <time>2026-07-09T10:31:05.000Z</time>
      </trkpt>
      <trkpt lat="45.81227" lon="1.88938">
        <ele>722.6</ele>
        <time>2026-07-09T10:31:06.000Z</time>
      </trkpt>
      <trkpt lat="45.81228" lon="1.8894">
        <ele>722.8</ele>
        <time>2026-07-09T10:31:07.000Z</time>
      </trkpt>
      <trkpt lat="45.81228" lon="1.88942">
        <ele>722.5</ele>
        <time>2026-07-09T10:31:08.000Z</time>
      </trkpt>
      <trkpt lat="45.81229" lon="1.88945">
        <ele>722.6</ele>
        <time>2026-07-09T10:31:09.000Z</time>
      </trkpt>
      <trkpt lat="45.81229" lon="1.88947">
        <ele>722.5</ele>
        <time>2026-07-09T10:31:10.000Z</time>
      </trkpt>
      <trkpt lat="45.8123" lon="1.88949">
        <ele>723.2</ele>
        <time>2026-07-09T10:31:11.000Z</time>
      </trkpt>
      <trkpt lat="45.81231" lon="1.88951">
        <ele>723</ele>
        <time>2026-07-09T10:31:12.000Z</time>
      </trkpt>
      <trkpt lat="45.81232" lon="1.88954">
        <ele>723</ele>
        <time>2026-07-09T10:31:13.000Z</time>
      </trkpt>
      <trkpt lat="45.81232" lon="1.88956">
        <ele>722.8</ele>
        <time>2026-07-09T10:31:14.000Z</time>
      </trkpt>
      <trkpt lat="45.81233" lon="1.88958">
        <ele>722.7</ele>
        <time>2026-07-09T10:31:15.000Z</time>
      </trkpt>
      <trkpt lat="45.81234" lon="1.8896">
        <ele>722.9</ele>
        <time>2026-07-09T10:31:16.000Z</time>
      </trkpt>
      <trkpt lat="45.81235" lon="1.88963">
        <ele>722.2</ele>
        <time>2026-07-09T10:31:17.000Z</time>
      </trkpt>
      <trkpt lat="45.81236" lon="1.88966">
        <ele>722.3</ele>
        <time>2026-07-09T10:31:18.000Z</time>
      </trkpt>
      <trkpt lat="45.81237" lon="1.88968">
        <ele>722.8</ele>
        <time>2026-07-09T10:31:19.000Z</time>
      </trkpt>
      <trkpt lat="45.81238" lon="1.88971">
        <ele>722.7</ele>
        <time>2026-07-09T10:31:20.000Z</time>
      </trkpt>
      <trkpt lat="45.81238" lon="1.88973">
        <ele>722.3</ele>
        <time>2026-07-09T10:31:21.000Z</time>
      </trkpt>
      <trkpt lat="45.81239" lon="1.88976">
        <ele>720.9</ele>
        <time>2026-07-09T10:31:22.000Z</time>
      </trkpt>
      <trkpt lat="45.8124" lon="1.88978">
        <ele>720.6</ele>
        <time>2026-07-09T10:31:23.000Z</time>
      </trkpt>
      <trkpt lat="45.81241" lon="1.8898">
        <ele>721.1</ele>
        <time>2026-07-09T10:31:24.000Z</time>
      </trkpt>
      <trkpt lat="45.81242" lon="1.88983">
        <ele>720.9</ele>
        <time>2026-07-09T10:31:25.000Z</time>
      </trkpt>
      <trkpt lat="45.81244" lon="1.88986">
        <ele>721.5</ele>
        <time>2026-07-09T10:31:26.000Z</time>
      </trkpt>
      <trkpt lat="45.81245" lon="1.88989">
        <ele>720.5</ele>
        <time>2026-07-09T10:31:27.000Z</time>
      </trkpt>
      <trkpt lat="45.81247" lon="1.88991">
        <ele>720.8</ele>
        <time>2026-07-09T10:31:28.000Z</time>
      </trkpt>
      <trkpt lat="45.81248" lon="1.88993">
        <ele>720.7</ele>
        <time>2026-07-09T10:31:29.000Z</time>
      </trkpt>
      <trkpt lat="45.81248" lon="1.88994">
        <ele>721.2</ele>
        <time>2026-07-09T10:31:30.000Z</time>
      </trkpt>
      <trkpt lat="45.81249" lon="1.88995">
        <ele>720.7</ele>
        <time>2026-07-09T10:31:31.000Z</time>
      </trkpt>
      <trkpt lat="45.8125" lon="1.88996">
        <ele>720.6</ele>
        <time>2026-07-09T10:31:32.000Z</time>
      </trkpt>
      <trkpt lat="45.81251" lon="1.88998">
        <ele>720.4</ele>
        <time>2026-07-09T10:31:33.000Z</time>
      </trkpt>
      <trkpt lat="45.81251" lon="1.88999">
        <ele>720.5</ele>
        <time>2026-07-09T10:31:34.000Z</time>
      </trkpt>
      <trkpt lat="45.81252" lon="1.89">
        <ele>721</ele>
        <time>2026-07-09T10:31:35.000Z</time>
      </trkpt>
      <trkpt lat="45.81253" lon="1.89002">
        <ele>721.1</ele>
        <time>2026-07-09T10:31:36.000Z</time>
      </trkpt>
      <trkpt lat="45.81253" lon="1.89003">
        <ele>720</ele>
        <time>2026-07-09T10:31:37.000Z</time>
      </trkpt>
      <trkpt lat="45.81254" lon="1.89006">
        <ele>720.1</ele>
        <time>2026-07-09T10:31:38.000Z</time>
      </trkpt>
      <trkpt lat="45.81255" lon="1.89008">
        <ele>720.3</ele>
        <time>2026-07-09T10:31:39.000Z</time>
      </trkpt>
      <trkpt lat="45.81256" lon="1.8901">
        <ele>720.5</ele>
        <time>2026-07-09T10:31:40.000Z</time>
      </trkpt>
      <trkpt lat="45.81257" lon="1.89012">
        <ele>720.4</ele>
        <time>2026-07-09T10:31:41.000Z</time>
      </trkpt>
      <trkpt lat="45.81259" lon="1.89014">
        <ele>721.1</ele>
        <time>2026-07-09T10:31:42.000Z</time>
      </trkpt>
      <trkpt lat="45.8126" lon="1.89016">
        <ele>721.2</ele>
        <time>2026-07-09T10:31:43.000Z</time>
      </trkpt>
      <trkpt lat="45.8126" lon="1.89019">
        <ele>721.7</ele>
        <time>2026-07-09T10:31:44.000Z</time>
      </trkpt>
      <trkpt lat="45.81262" lon="1.8902">
        <ele>722.2</ele>
        <time>2026-07-09T10:31:45.000Z</time>
      </trkpt>
      <trkpt lat="45.81263" lon="1.89022">
        <ele>722.6</ele>
        <time>2026-07-09T10:31:46.000Z</time>
      </trkpt>
      <trkpt lat="45.81264" lon="1.89024">
        <ele>722.9</ele>
        <time>2026-07-09T10:31:47.000Z</time>
      </trkpt>
      <trkpt lat="45.81264" lon="1.89026">
        <ele>721.9</ele>
        <time>2026-07-09T10:31:48.000Z</time>
      </trkpt>
      <trkpt lat="45.81265" lon="1.89028">
        <ele>721.8</ele>
        <time>2026-07-09T10:31:49.000Z</time>
      </trkpt>
      <trkpt lat="45.81267" lon="1.8903">
        <ele>722.3</ele>
        <time>2026-07-09T10:31:50.000Z</time>
      </trkpt>
      <trkpt lat="45.81268" lon="1.89032">
        <ele>722.7</ele>
        <time>2026-07-09T10:31:51.000Z</time>
      </trkpt>
      <trkpt lat="45.81269" lon="1.89034">
        <ele>723.2</ele>
        <time>2026-07-09T10:31:52.000Z</time>
      </trkpt>
      <trkpt lat="45.8127" lon="1.89036">
        <ele>723.4</ele>
        <time>2026-07-09T10:31:53.000Z</time>
      </trkpt>
      <trkpt lat="45.81271" lon="1.89039">
        <ele>723.7</ele>
        <time>2026-07-09T10:31:54.000Z</time>
      </trkpt>
      <trkpt lat="45.81273" lon="1.89041">
        <ele>723.7</ele>
        <time>2026-07-09T10:31:55.000Z</time>
      </trkpt>
      <trkpt lat="45.81274" lon="1.89044">
        <ele>723.6</ele>
        <time>2026-07-09T10:31:56.000Z</time>
      </trkpt>
      <trkpt lat="45.81275" lon="1.89047">
        <ele>723</ele>
        <time>2026-07-09T10:31:57.000Z</time>
      </trkpt>
      <trkpt lat="45.81276" lon="1.89049">
        <ele>723.5</ele>
        <time>2026-07-09T10:31:58.000Z</time>
      </trkpt>
      <trkpt lat="45.81277" lon="1.89052">
        <ele>722.8</ele>
        <time>2026-07-09T10:31:59.000Z</time>
      </trkpt>
      <trkpt lat="45.81278" lon="1.89054">
        <ele>723.3</ele>
        <time>2026-07-09T10:32:00.000Z</time>
      </trkpt>
      <trkpt lat="45.81278" lon="1.89057">
        <ele>723.5</ele>
        <time>2026-07-09T10:32:01.000Z</time>
      </trkpt>
      <trkpt lat="45.81279" lon="1.8906">
        <ele>723.8</ele>
        <time>2026-07-09T10:32:02.000Z</time>
      </trkpt>
      <trkpt lat="45.81279" lon="1.89062">
        <ele>724.8</ele>
        <time>2026-07-09T10:32:03.000Z</time>
      </trkpt>
      <trkpt lat="45.81278" lon="1.89065">
        <ele>725.5</ele>
        <time>2026-07-09T10:32:04.000Z</time>
      </trkpt>
      <trkpt lat="45.81278" lon="1.89067">
        <ele>725.6</ele>
        <time>2026-07-09T10:32:05.000Z</time>
      </trkpt>
      <trkpt lat="45.81278" lon="1.8907">
        <ele>725.5</ele>
        <time>2026-07-09T10:32:06.000Z</time>
      </trkpt>
      <trkpt lat="45.81277" lon="1.89072">
        <ele>724.9</ele>
        <time>2026-07-09T10:32:07.000Z</time>
      </trkpt>
      <trkpt lat="45.81277" lon="1.89075">
        <ele>724.7</ele>
        <time>2026-07-09T10:32:08.000Z</time>
      </trkpt>
      <trkpt lat="45.81277" lon="1.89077">
        <ele>725.3</ele>
        <time>2026-07-09T10:32:09.000Z</time>
      </trkpt>
      <trkpt lat="45.81276" lon="1.89079">
        <ele>725.4</ele>
        <time>2026-07-09T10:32:10.000Z</time>
      </trkpt>
      <trkpt lat="45.81276" lon="1.89082">
        <ele>725.3</ele>
        <time>2026-07-09T10:32:11.000Z</time>
      </trkpt>
      <trkpt lat="45.81275" lon="1.89084">
        <ele>725</ele>
        <time>2026-07-09T10:32:12.000Z</time>
      </trkpt>
      <trkpt lat="45.81275" lon="1.89086">
        <ele>725.5</ele>
        <time>2026-07-09T10:32:13.000Z</time>
      </trkpt>
      <trkpt lat="45.81274" lon="1.89088">
        <ele>725.8</ele>
        <time>2026-07-09T10:32:14.000Z</time>
      </trkpt>
      <trkpt lat="45.81273" lon="1.8909">
        <ele>725.5</ele>
        <time>2026-07-09T10:32:15.000Z</time>
      </trkpt>
      <trkpt lat="45.81272" lon="1.89093">
        <ele>724.8</ele>
        <time>2026-07-09T10:32:16.000Z</time>
      </trkpt>
      <trkpt lat="45.81271" lon="1.89095">
        <ele>725.1</ele>
        <time>2026-07-09T10:32:17.000Z</time>
      </trkpt>
      <trkpt lat="45.8127" lon="1.89097">
        <ele>724</ele>
        <time>2026-07-09T10:32:18.000Z</time>
      </trkpt>
      <trkpt lat="45.81269" lon="1.89099">
        <ele>723.3</ele>
        <time>2026-07-09T10:32:19.000Z</time>
      </trkpt>
      <trkpt lat="45.81268" lon="1.89101">
        <ele>722.2</ele>
        <time>2026-07-09T10:32:20.000Z</time>
      </trkpt>
      <trkpt lat="45.81267" lon="1.89104">
        <ele>722.7</ele>
        <time>2026-07-09T10:32:21.000Z</time>
      </trkpt>
      <trkpt lat="45.81266" lon="1.89106">
        <ele>722.9</ele>
        <time>2026-07-09T10:32:22.000Z</time>
      </trkpt>
      <trkpt lat="45.81265" lon="1.89108">
        <ele>723.8</ele>
        <time>2026-07-09T10:32:23.000Z</time>
      </trkpt>
      <trkpt lat="45.81264" lon="1.8911">
        <ele>723.4</ele>
        <time>2026-07-09T10:32:24.000Z</time>
      </trkpt>
      <trkpt lat="45.81264" lon="1.89112">
        <ele>722.6</ele>
        <time>2026-07-09T10:32:25.000Z</time>
      </trkpt>
      <trkpt lat="45.81263" lon="1.89114">
        <ele>723.9</ele>
        <time>2026-07-09T10:32:26.000Z</time>
      </trkpt>
      <trkpt lat="45.81262" lon="1.89116">
        <ele>724.3</ele>
        <time>2026-07-09T10:32:27.000Z</time>
      </trkpt>
      <trkpt lat="45.81261" lon="1.89118">
        <ele>724.5</ele>
        <time>2026-07-09T10:32:28.000Z</time>
      </trkpt>
      <trkpt lat="45.8126" lon="1.8912">
        <ele>724.3</ele>
        <time>2026-07-09T10:32:29.000Z</time>
      </trkpt>
      <trkpt lat="45.81258" lon="1.89122">
        <ele>724.1</ele>
        <time>2026-07-09T10:32:30.000Z</time>
      </trkpt>
      <trkpt lat="45.81257" lon="1.89123">
        <ele>724.6</ele>
        <time>2026-07-09T10:32:31.000Z</time>
      </trkpt>
      <trkpt lat="45.81256" lon="1.89125">
        <ele>724.9</ele>
        <time>2026-07-09T10:32:32.000Z</time>
      </trkpt>
      <trkpt lat="45.81254" lon="1.89126">
        <ele>724.6</ele>
        <time>2026-07-09T10:32:33.000Z</time>
      </trkpt>
      <trkpt lat="45.81253" lon="1.89127">
        <ele>724.2</ele>
        <time>2026-07-09T10:32:34.000Z</time>
      </trkpt>
      <trkpt lat="45.81251" lon="1.89129">
        <ele>725.4</ele>
        <time>2026-07-09T10:32:35.000Z</time>
      </trkpt>
      <trkpt lat="45.8125" lon="1.89131">
        <ele>724.4</ele>
        <time>2026-07-09T10:32:36.000Z</time>
      </trkpt>
      <trkpt lat="45.81249" lon="1.89133">
        <ele>724.4</ele>
        <time>2026-07-09T10:32:37.000Z</time>
      </trkpt>
      <trkpt lat="45.81248" lon="1.89135">
        <ele>724.1</ele>
        <time>2026-07-09T10:32:38.000Z</time>
      </trkpt>
      <trkpt lat="45.81247" lon="1.89137">
        <ele>723.5</ele>
        <time>2026-07-09T10:32:39.000Z</time>
      </trkpt>
      <trkpt lat="45.81246" lon="1.89139">
        <ele>724.7</ele>
        <time>2026-07-09T10:32:40.000Z</time>
      </trkpt>
      <trkpt lat="45.81245" lon="1.8914">
        <ele>732</ele>
        <time>2026-07-09T10:32:41.000Z</time>
      </trkpt>
      <trkpt lat="45.81244" lon="1.89141">
        <ele>732.4</ele>
        <time>2026-07-09T10:32:42.000Z</time>
      </trkpt>
      <trkpt lat="45.81243" lon="1.89142">
        <ele>733</ele>
        <time>2026-07-09T10:32:43.000Z</time>
      </trkpt>
      <trkpt lat="45.81241" lon="1.89141">
        <ele>733.9</ele>
        <time>2026-07-09T10:32:44.000Z</time>
      </trkpt>
      <trkpt lat="45.8124" lon="1.89141">
        <ele>734.3</ele>
        <time>2026-07-09T10:32:45.000Z</time>
      </trkpt>
      <trkpt lat="45.81238" lon="1.8914">
        <ele>734</ele>
        <time>2026-07-09T10:32:46.000Z</time>
      </trkpt>
      <trkpt lat="45.81236" lon="1.89141">
        <ele>733.2</ele>
        <time>2026-07-09T10:32:47.000Z</time>
      </trkpt>
      <trkpt lat="45.81235" lon="1.89142">
        <ele>731</ele>
        <time>2026-07-09T10:32:48.000Z</time>
      </trkpt>
      <trkpt lat="45.81233" lon="1.89144">
        <ele>729</ele>
        <time>2026-07-09T10:32:49.000Z</time>
      </trkpt>
      <trkpt lat="45.81232" lon="1.89146">
        <ele>728.4</ele>
        <time>2026-07-09T10:32:50.000Z</time>
      </trkpt>
      <trkpt lat="45.8123" lon="1.89148">
        <ele>727.8</ele>
        <time>2026-07-09T10:32:51.000Z</time>
      </trkpt>
      <trkpt lat="45.81227" lon="1.8915">
        <ele>727.4</ele>
        <time>2026-07-09T10:32:52.000Z</time>
      </trkpt>
      <trkpt lat="45.81226" lon="1.89152">
        <ele>727.4</ele>
        <time>2026-07-09T10:32:53.000Z</time>
      </trkpt>
      <trkpt lat="45.81224" lon="1.89154">
        <ele>726.6</ele>
        <time>2026-07-09T10:32:54.000Z</time>
      </trkpt>
      <trkpt lat="45.81223" lon="1.89156">
        <ele>726.5</ele>
        <time>2026-07-09T10:32:55.000Z</time>
      </trkpt>
      <trkpt lat="45.8122" lon="1.89159">
        <ele>726.3</ele>
        <time>2026-07-09T10:32:56.000Z</time>
      </trkpt>
      <trkpt lat="45.81218" lon="1.89161">
        <ele>725.6</ele>
        <time>2026-07-09T10:32:57.000Z</time>
      </trkpt>
      <trkpt lat="45.81216" lon="1.89163">
        <ele>725.5</ele>
        <time>2026-07-09T10:32:58.000Z</time>
      </trkpt>
      <trkpt lat="45.81214" lon="1.89164">
        <ele>725.6</ele>
        <time>2026-07-09T10:32:59.000Z</time>
      </trkpt>
      <trkpt lat="45.81212" lon="1.89166">
        <ele>726.1</ele>
        <time>2026-07-09T10:33:00.000Z</time>
      </trkpt>
      <trkpt lat="45.8121" lon="1.89167">
        <ele>725.5</ele>
        <time>2026-07-09T10:33:01.000Z</time>
      </trkpt>
      <trkpt lat="45.81208" lon="1.89168">
        <ele>725.2</ele>
        <time>2026-07-09T10:33:02.000Z</time>
      </trkpt>
      <trkpt lat="45.81207" lon="1.89169">
        <ele>725.3</ele>
        <time>2026-07-09T10:33:03.000Z</time>
      </trkpt>
      <trkpt lat="45.81205" lon="1.89169">
        <ele>725.4</ele>
        <time>2026-07-09T10:33:04.000Z</time>
      </trkpt>
      <trkpt lat="45.81204" lon="1.89171">
        <ele>725</ele>
        <time>2026-07-09T10:33:05.000Z</time>
      </trkpt>
      <trkpt lat="45.81202" lon="1.89172">
        <ele>724.7</ele>
        <time>2026-07-09T10:33:06.000Z</time>
      </trkpt>
      <trkpt lat="45.81201" lon="1.89172">
        <ele>724.5</ele>
        <time>2026-07-09T10:33:07.000Z</time>
      </trkpt>
      <trkpt lat="45.81199" lon="1.89172">
        <ele>723.9</ele>
        <time>2026-07-09T10:33:08.000Z</time>
      </trkpt>
      <trkpt lat="45.81197" lon="1.89172">
        <ele>722</ele>
        <time>2026-07-09T10:33:09.000Z</time>
      </trkpt>
      <trkpt lat="45.81196" lon="1.89172">
        <ele>722.8</ele>
        <time>2026-07-09T10:33:10.000Z</time>
      </trkpt>
      <trkpt lat="45.81194" lon="1.89171">
        <ele>722.5</ele>
        <time>2026-07-09T10:33:11.000Z</time>
      </trkpt>
      <trkpt lat="45.81192" lon="1.89172">
        <ele>723.9</ele>
        <time>2026-07-09T10:33:12.000Z</time>
      </trkpt>
      <trkpt lat="45.8119" lon="1.89172">
        <ele>723.3</ele>
        <time>2026-07-09T10:33:13.000Z</time>
      </trkpt>
      <trkpt lat="45.81189" lon="1.89172">
        <ele>723.8</ele>
        <time>2026-07-09T10:33:14.000Z</time>
      </trkpt>
      <trkpt lat="45.81187" lon="1.89172">
        <ele>723.3</ele>
        <time>2026-07-09T10:33:15.000Z</time>
      </trkpt>
      <trkpt lat="45.81185" lon="1.89173">
        <ele>723.7</ele>
        <time>2026-07-09T10:33:16.000Z</time>
      </trkpt>
      <trkpt lat="45.81182" lon="1.89174">
        <ele>724.2</ele>
        <time>2026-07-09T10:33:17.000Z</time>
      </trkpt>
      <trkpt lat="45.8118" lon="1.89175">
        <ele>725</ele>
        <time>2026-07-09T10:33:18.000Z</time>
      </trkpt>
      <trkpt lat="45.81178" lon="1.89175">
        <ele>723.7</ele>
        <time>2026-07-09T10:33:19.000Z</time>
      </trkpt>
      <trkpt lat="45.81176" lon="1.89176">
        <ele>722.2</ele>
        <time>2026-07-09T10:33:20.000Z</time>
      </trkpt>
      <trkpt lat="45.81175" lon="1.89178">
        <ele>721.9</ele>
        <time>2026-07-09T10:33:21.000Z</time>
      </trkpt>
      <trkpt lat="45.81174" lon="1.8918">
        <ele>721.1</ele>
        <time>2026-07-09T10:33:22.000Z</time>
      </trkpt>
      <trkpt lat="45.81173" lon="1.89182">
        <ele>720.4</ele>
        <time>2026-07-09T10:33:23.000Z</time>
      </trkpt>
      <trkpt lat="45.81172" lon="1.89185">
        <ele>720</ele>
        <time>2026-07-09T10:33:24.000Z</time>
      </trkpt>
      <trkpt lat="45.81171" lon="1.89187">
        <ele>720.2</ele>
        <time>2026-07-09T10:33:25.000Z</time>
      </trkpt>
      <trkpt lat="45.8117" lon="1.89189">
        <ele>721.5</ele>
        <time>2026-07-09T10:33:26.000Z</time>
      </trkpt>
      <trkpt lat="45.81169" lon="1.89192">
        <ele>721.5</ele>
        <time>2026-07-09T10:33:27.000Z</time>
      </trkpt>
      <trkpt lat="45.81168" lon="1.89195">
        <ele>721.6</ele>
        <time>2026-07-09T10:33:28.000Z</time>
      </trkpt>
      <trkpt lat="45.81168" lon="1.89198">
        <ele>721.6</ele>
        <time>2026-07-09T10:33:29.000Z</time>
      </trkpt>
      <trkpt lat="45.81169" lon="1.89201">
        <ele>722.1</ele>
        <time>2026-07-09T10:33:30.000Z</time>
      </trkpt>
      <trkpt lat="45.81172" lon="1.89202">
        <ele>721.9</ele>
        <time>2026-07-09T10:33:31.000Z</time>
      </trkpt>
      <trkpt lat="45.81174" lon="1.89201">
        <ele>721.9</ele>
        <time>2026-07-09T10:33:32.000Z</time>
      </trkpt>
      <trkpt lat="45.81174" lon="1.892">
        <ele>721.9</ele>
        <time>2026-07-09T10:33:33.000Z</time>
      </trkpt>
      <trkpt lat="45.81174" lon="1.892">
        <ele>721.9</ele>
        <time>2026-07-09T10:33:34.000Z</time>
      </trkpt>
      <trkpt lat="45.81173" lon="1.892">
        <ele>720.5</ele>
        <time>2026-07-09T10:33:35.000Z</time>
      </trkpt>
      <trkpt lat="45.81176" lon="1.89202">
        <ele>716.9</ele>
        <time>2026-07-09T10:33:36.000Z</time>
      </trkpt>
      <trkpt lat="45.81173" lon="1.89206">
        <ele>716.8</ele>
        <time>2026-07-09T10:33:37.000Z</time>
      </trkpt>
      <trkpt lat="45.81169" lon="1.89205">
        <ele>715.1</ele>
        <time>2026-07-09T10:33:38.000Z</time>
      </trkpt>
      <trkpt lat="45.81167" lon="1.89198">
        <ele>715.7</ele>
        <time>2026-07-09T10:33:39.000Z</time>
      </trkpt>
      <trkpt lat="45.81168" lon="1.89193">
        <ele>715.5</ele>
        <time>2026-07-09T10:33:40.000Z</time>
      </trkpt>
      <trkpt lat="45.8117" lon="1.89191">
        <ele>716.3</ele>
        <time>2026-07-09T10:33:41.000Z</time>
      </trkpt>
      <trkpt lat="45.81171" lon="1.8919">
        <ele>717.2</ele>
        <time>2026-07-09T10:33:42.000Z</time>
      </trkpt>
      <trkpt lat="45.81172" lon="1.89188">
        <ele>717.2</ele>
        <time>2026-07-09T10:33:43.000Z</time>
      </trkpt>
      <trkpt lat="45.81173" lon="1.89188">
        <ele>717.4</ele>
        <time>2026-07-09T10:33:44.000Z</time>
      </trkpt>
      <trkpt lat="45.81172" lon="1.89185">
        <ele>718</ele>
        <time>2026-07-09T10:33:45.000Z</time>
      </trkpt>
      <trkpt lat="45.81171" lon="1.89182">
        <ele>717.7</ele>
        <time>2026-07-09T10:33:46.000Z</time>
      </trkpt>
      <trkpt lat="45.81168" lon="1.89182">
        <ele>718</ele>
        <time>2026-07-09T10:33:47.000Z</time>
      </trkpt>
      <trkpt lat="45.81168" lon="1.8918">
        <ele>719.8</ele>
        <time>2026-07-09T10:33:48.000Z</time>
      </trkpt>
      <trkpt lat="45.81168" lon="1.89179">
        <ele>719.7</ele>
        <time>2026-07-09T10:33:49.000Z</time>
      </trkpt>
      <trkpt lat="45.81168" lon="1.89179">
        <ele>719.7</ele>
        <time>2026-07-09T10:33:50.000Z</time>
      </trkpt>
      <trkpt lat="45.81168" lon="1.89179">
        <ele>719.7</ele>
        <time>2026-07-09T10:33:51.000Z</time>
      </trkpt>
      <trkpt lat="45.81168" lon="1.89179">
        <ele>719.7</ele>
        <time>2026-07-09T10:33:52.000Z</time>
      </trkpt>
      <trkpt lat="45.81168" lon="1.89179">
        <ele>719.7</ele>
        <time>2026-07-09T10:33:53.000Z</time>
      </trkpt>
      <trkpt lat="45.81168" lon="1.8918">
        <ele>720.5</ele>
        <time>2026-07-09T10:33:54.000Z</time>
      </trkpt>
      <trkpt lat="45.81163" lon="1.89179">
        <ele>720.5</ele>
        <time>2026-07-09T10:33:55.000Z</time>
      </trkpt>
      <trkpt lat="45.81162" lon="1.89175">
        <ele>720.4</ele>
        <time>2026-07-09T10:33:56.000Z</time>
      </trkpt>
      <trkpt lat="45.81161" lon="1.89174">
        <ele>718.1</ele>
        <time>2026-07-09T10:33:57.000Z</time>
      </trkpt>
      <trkpt lat="45.81161" lon="1.89173">
        <ele>717.4</ele>
        <time>2026-07-09T10:33:58.000Z</time>
      </trkpt>
      <trkpt lat="45.8116" lon="1.89172">
        <ele>717</ele>
        <time>2026-07-09T10:33:59.000Z</time>
      </trkpt>
      <trkpt lat="45.81159" lon="1.89171">
        <ele>717.6</ele>
        <time>2026-07-09T10:34:00.000Z</time>
      </trkpt>
      <trkpt lat="45.81157" lon="1.8917">
        <ele>716.5</ele>
        <time>2026-07-09T10:34:01.000Z</time>
      </trkpt>
      <trkpt lat="45.81155" lon="1.89172">
        <ele>716.9</ele>
        <time>2026-07-09T10:34:02.000Z</time>
      </trkpt>
      <trkpt lat="45.81152" lon="1.89174">
        <ele>716.2</ele>
        <time>2026-07-09T10:34:03.000Z</time>
      </trkpt>
      <trkpt lat="45.8115" lon="1.89178">
        <ele>715.7</ele>
        <time>2026-07-09T10:34:04.000Z</time>
      </trkpt>
      <trkpt lat="45.81149" lon="1.89182">
        <ele>715.5</ele>
        <time>2026-07-09T10:34:05.000Z</time>
      </trkpt>
      <trkpt lat="45.81149" lon="1.89186">
        <ele>714.8</ele>
        <time>2026-07-09T10:34:06.000Z</time>
      </trkpt>
      <trkpt lat="45.81148" lon="1.89191">
        <ele>715.4</ele>
        <time>2026-07-09T10:34:07.000Z</time>
      </trkpt>
      <trkpt lat="45.81148" lon="1.89195">
        <ele>715.7</ele>
        <time>2026-07-09T10:34:08.000Z</time>
      </trkpt>
      <trkpt lat="45.81148" lon="1.89199">
        <ele>716.1</ele>
        <time>2026-07-09T10:34:09.000Z</time>
      </trkpt>
      <trkpt lat="45.81148" lon="1.89204">
        <ele>715.4</ele>
        <time>2026-07-09T10:34:10.000Z</time>
      </trkpt>
      <trkpt lat="45.81148" lon="1.89208">
        <ele>714.8</ele>
        <time>2026-07-09T10:34:11.000Z</time>
      </trkpt>
      <trkpt lat="45.81148" lon="1.89212">
        <ele>715.8</ele>
        <time>2026-07-09T10:34:12.000Z</time>
      </trkpt>
      <trkpt lat="45.81147" lon="1.89217">
        <ele>715.4</ele>
        <time>2026-07-09T10:34:13.000Z</time>
      </trkpt>
      <trkpt lat="45.81146" lon="1.89221">
        <ele>714.5</ele>
        <time>2026-07-09T10:34:14.000Z</time>
      </trkpt>
      <trkpt lat="45.81144" lon="1.89225">
        <ele>713.7</ele>
        <time>2026-07-09T10:34:15.000Z</time>
      </trkpt>
      <trkpt lat="45.81143" lon="1.89227">
        <ele>714.4</ele>
        <time>2026-07-09T10:34:16.000Z</time>
      </trkpt>
      <trkpt lat="45.81141" lon="1.8923">
        <ele>713.5</ele>
        <time>2026-07-09T10:34:17.000Z</time>
      </trkpt>
      <trkpt lat="45.81141" lon="1.89233">
        <ele>712.8</ele>
        <time>2026-07-09T10:34:18.000Z</time>
      </trkpt>
      <trkpt lat="45.8114" lon="1.89236">
        <ele>712.6</ele>
        <time>2026-07-09T10:34:19.000Z</time>
      </trkpt>
      <trkpt lat="45.81139" lon="1.8924">
        <ele>712.7</ele>
        <time>2026-07-09T10:34:20.000Z</time>
      </trkpt>
      <trkpt lat="45.81139" lon="1.89242">
        <ele>711.7</ele>
        <time>2026-07-09T10:34:21.000Z</time>
      </trkpt>
      <trkpt lat="45.81138" lon="1.89245">
        <ele>710.9</ele>
        <time>2026-07-09T10:34:22.000Z</time>
      </trkpt>
      <trkpt lat="45.81139" lon="1.89249">
        <ele>710.6</ele>
        <time>2026-07-09T10:34:23.000Z</time>
      </trkpt>
      <trkpt lat="45.81139" lon="1.89252">
        <ele>710.7</ele>
        <time>2026-07-09T10:34:24.000Z</time>
      </trkpt>
      <trkpt lat="45.81139" lon="1.89255">
        <ele>710.2</ele>
        <time>2026-07-09T10:34:25.000Z</time>
      </trkpt>
      <trkpt lat="45.81139" lon="1.89258">
        <ele>709.8</ele>
        <time>2026-07-09T10:34:26.000Z</time>
      </trkpt>
      <trkpt lat="45.8114" lon="1.89261">
        <ele>709.3</ele>
        <time>2026-07-09T10:34:27.000Z</time>
      </trkpt>
      <trkpt lat="45.8114" lon="1.89263">
        <ele>708.7</ele>
        <time>2026-07-09T10:34:28.000Z</time>
      </trkpt>
      <trkpt lat="45.81141" lon="1.89266">
        <ele>708.6</ele>
        <time>2026-07-09T10:34:29.000Z</time>
      </trkpt>
      <trkpt lat="45.81142" lon="1.89269">
        <ele>708.2</ele>
        <time>2026-07-09T10:34:30.000Z</time>
      </trkpt>
      <trkpt lat="45.81143" lon="1.89272">
        <ele>708.2</ele>
        <time>2026-07-09T10:34:31.000Z</time>
      </trkpt>
      <trkpt lat="45.81144" lon="1.89274">
        <ele>708.8</ele>
        <time>2026-07-09T10:34:32.000Z</time>
      </trkpt>
      <trkpt lat="45.81146" lon="1.89276">
        <ele>708.9</ele>
        <time>2026-07-09T10:34:33.000Z</time>
      </trkpt>
      <trkpt lat="45.81147" lon="1.89278">
        <ele>709.4</ele>
        <time>2026-07-09T10:34:34.000Z</time>
      </trkpt>
      <trkpt lat="45.81148" lon="1.8928">
        <ele>709.2</ele>
        <time>2026-07-09T10:34:35.000Z</time>
      </trkpt>
      <trkpt lat="45.81149" lon="1.89282">
        <ele>709.5</ele>
        <time>2026-07-09T10:34:36.000Z</time>
      </trkpt>
      <trkpt lat="45.81151" lon="1.89285">
        <ele>709.9</ele>
        <time>2026-07-09T10:34:37.000Z</time>
      </trkpt>
      <trkpt lat="45.81152" lon="1.89288">
        <ele>710.7</ele>
        <time>2026-07-09T10:34:38.000Z</time>
      </trkpt>
      <trkpt lat="45.81153" lon="1.8929">
        <ele>711.6</ele>
        <time>2026-07-09T10:34:39.000Z</time>
      </trkpt>
      <trkpt lat="45.81154" lon="1.89293">
        <ele>712</ele>
        <time>2026-07-09T10:34:40.000Z</time>
      </trkpt>
      <trkpt lat="45.81155" lon="1.89295">
        <ele>712</ele>
        <time>2026-07-09T10:34:41.000Z</time>
      </trkpt>
      <trkpt lat="45.81156" lon="1.89298">
        <ele>712</ele>
        <time>2026-07-09T10:34:42.000Z</time>
      </trkpt>
      <trkpt lat="45.81157" lon="1.89299">
        <ele>712.1</ele>
        <time>2026-07-09T10:34:43.000Z</time>
      </trkpt>
      <trkpt lat="45.81158" lon="1.89302">
        <ele>712.6</ele>
        <time>2026-07-09T10:34:44.000Z</time>
      </trkpt>
      <trkpt lat="45.81159" lon="1.89304">
        <ele>712.2</ele>
        <time>2026-07-09T10:34:45.000Z</time>
      </trkpt>
      <trkpt lat="45.81159" lon="1.89305">
        <ele>711.8</ele>
        <time>2026-07-09T10:34:46.000Z</time>
      </trkpt>
      <trkpt lat="45.81159" lon="1.89308">
        <ele>711.5</ele>
        <time>2026-07-09T10:34:47.000Z</time>
      </trkpt>
      <trkpt lat="45.81159" lon="1.8931">
        <ele>711.7</ele>
        <time>2026-07-09T10:34:48.000Z</time>
      </trkpt>
      <trkpt lat="45.81159" lon="1.89312">
        <ele>711.1</ele>
        <time>2026-07-09T10:34:49.000Z</time>
      </trkpt>
      <trkpt lat="45.81158" lon="1.89315">
        <ele>712.7</ele>
        <time>2026-07-09T10:34:50.000Z</time>
      </trkpt>
      <trkpt lat="45.81157" lon="1.89316">
        <ele>711.9</ele>
        <time>2026-07-09T10:34:51.000Z</time>
      </trkpt>
      <trkpt lat="45.81156" lon="1.89317">
        <ele>712.3</ele>
        <time>2026-07-09T10:34:52.000Z</time>
      </trkpt>
      <trkpt lat="45.81154" lon="1.89317">
        <ele>712.7</ele>
        <time>2026-07-09T10:34:53.000Z</time>
      </trkpt>
      <trkpt lat="45.81153" lon="1.89318">
        <ele>712.8</ele>
        <time>2026-07-09T10:34:54.000Z</time>
      </trkpt>
      <trkpt lat="45.81152" lon="1.89318">
        <ele>713.1</ele>
        <time>2026-07-09T10:34:55.000Z</time>
      </trkpt>
      <trkpt lat="45.8115" lon="1.89318">
        <ele>712.9</ele>
        <time>2026-07-09T10:34:56.000Z</time>
      </trkpt>
      <trkpt lat="45.81148" lon="1.89319">
        <ele>713.5</ele>
        <time>2026-07-09T10:34:57.000Z</time>
      </trkpt>
      <trkpt lat="45.81146" lon="1.89318">
        <ele>714.4</ele>
        <time>2026-07-09T10:34:58.000Z</time>
      </trkpt>
      <trkpt lat="45.81144" lon="1.89319">
        <ele>714.3</ele>
        <time>2026-07-09T10:34:59.000Z</time>
      </trkpt>
      <trkpt lat="45.81143" lon="1.8932">
        <ele>714.7</ele>
        <time>2026-07-09T10:35:00.000Z</time>
      </trkpt>
      <trkpt lat="45.81142" lon="1.89321">
        <ele>713.1</ele>
        <time>2026-07-09T10:35:01.000Z</time>
      </trkpt>
      <trkpt lat="45.8114" lon="1.89322">
        <ele>711.6</ele>
        <time>2026-07-09T10:35:02.000Z</time>
      </trkpt>
      <trkpt lat="45.81139" lon="1.89323">
        <ele>711.1</ele>
        <time>2026-07-09T10:35:03.000Z</time>
      </trkpt>
      <trkpt lat="45.81138" lon="1.89325">
        <ele>710.3</ele>
        <time>2026-07-09T10:35:04.000Z</time>
      </trkpt>
      <trkpt lat="45.81138" lon="1.89327">
        <ele>709.4</ele>
        <time>2026-07-09T10:35:05.000Z</time>
      </trkpt>
      <trkpt lat="45.81137" lon="1.89328">
        <ele>709.3</ele>
        <time>2026-07-09T10:35:06.000Z</time>
      </trkpt>
      <trkpt lat="45.81136" lon="1.8933">
        <ele>706.5</ele>
        <time>2026-07-09T10:35:07.000Z</time>
      </trkpt>
      <trkpt lat="45.81135" lon="1.89332">
        <ele>705.3</ele>
        <time>2026-07-09T10:35:08.000Z</time>
      </trkpt>
      <trkpt lat="45.81135" lon="1.89333">
        <ele>704.3</ele>
        <time>2026-07-09T10:35:09.000Z</time>
      </trkpt>
      <trkpt lat="45.81135" lon="1.89335">
        <ele>704.2</ele>
        <time>2026-07-09T10:35:10.000Z</time>
      </trkpt>
      <trkpt lat="45.81136" lon="1.89337">
        <ele>703.7</ele>
        <time>2026-07-09T10:35:11.000Z</time>
      </trkpt>
      <trkpt lat="45.81136" lon="1.89339">
        <ele>703.5</ele>
        <time>2026-07-09T10:35:12.000Z</time>
      </trkpt>
      <trkpt lat="45.81136" lon="1.89341">
        <ele>702.3</ele>
        <time>2026-07-09T10:35:13.000Z</time>
      </trkpt>
      <trkpt lat="45.81137" lon="1.89344">
        <ele>701.8</ele>
        <time>2026-07-09T10:35:14.000Z</time>
      </trkpt>
      <trkpt lat="45.81136" lon="1.89345">
        <ele>701.2</ele>
        <time>2026-07-09T10:35:15.000Z</time>
      </trkpt>
      <trkpt lat="45.81136" lon="1.89348">
        <ele>701.6</ele>
        <time>2026-07-09T10:35:16.000Z</time>
      </trkpt>
      <trkpt lat="45.81135" lon="1.8935">
        <ele>702.3</ele>
        <time>2026-07-09T10:35:17.000Z</time>
      </trkpt>
      <trkpt lat="45.81134" lon="1.89353">
        <ele>700.3</ele>
        <time>2026-07-09T10:35:18.000Z</time>
      </trkpt>
      <trkpt lat="45.81133" lon="1.89355">
        <ele>702</ele>
        <time>2026-07-09T10:35:19.000Z</time>
      </trkpt>
      <trkpt lat="45.81132" lon="1.89357">
        <ele>702</ele>
        <time>2026-07-09T10:35:20.000Z</time>
      </trkpt>
      <trkpt lat="45.81131" lon="1.89359">
        <ele>702.3</ele>
        <time>2026-07-09T10:35:21.000Z</time>
      </trkpt>
      <trkpt lat="45.8113" lon="1.89361">
        <ele>703.5</ele>
        <time>2026-07-09T10:35:22.000Z</time>
      </trkpt>
      <trkpt lat="45.81128" lon="1.89362">
        <ele>703.2</ele>
        <time>2026-07-09T10:35:23.000Z</time>
      </trkpt>
      <trkpt lat="45.81127" lon="1.89364">
        <ele>703.3</ele>
        <time>2026-07-09T10:35:24.000Z</time>
      </trkpt>
      <trkpt lat="45.81127" lon="1.89366">
        <ele>702.3</ele>
        <time>2026-07-09T10:35:25.000Z</time>
      </trkpt>
      <trkpt lat="45.81125" lon="1.89369">
        <ele>701.8</ele>
        <time>2026-07-09T10:35:26.000Z</time>
      </trkpt>
      <trkpt lat="45.81124" lon="1.89372">
        <ele>701.9</ele>
        <time>2026-07-09T10:35:27.000Z</time>
      </trkpt>
      <trkpt lat="45.81123" lon="1.89374">
        <ele>703.1</ele>
        <time>2026-07-09T10:35:28.000Z</time>
      </trkpt>
      <trkpt lat="45.81121" lon="1.89376">
        <ele>704.1</ele>
        <time>2026-07-09T10:35:29.000Z</time>
      </trkpt>
      <trkpt lat="45.8112" lon="1.89378">
        <ele>705.5</ele>
        <time>2026-07-09T10:35:30.000Z</time>
      </trkpt>
      <trkpt lat="45.81118" lon="1.89379">
        <ele>705.5</ele>
        <time>2026-07-09T10:35:31.000Z</time>
      </trkpt>
      <trkpt lat="45.81117" lon="1.89381">
        <ele>705.5</ele>
        <time>2026-07-09T10:35:32.000Z</time>
      </trkpt>
      <trkpt lat="45.81116" lon="1.89384">
        <ele>705.3</ele>
        <time>2026-07-09T10:35:33.000Z</time>
      </trkpt>
      <trkpt lat="45.81115" lon="1.89386">
        <ele>705.3</ele>
        <time>2026-07-09T10:35:34.000Z</time>
      </trkpt>
      <trkpt lat="45.81113" lon="1.89389">
        <ele>706</ele>
        <time>2026-07-09T10:35:35.000Z</time>
      </trkpt>
      <trkpt lat="45.81112" lon="1.8939">
        <ele>707</ele>
        <time>2026-07-09T10:35:36.000Z</time>
      </trkpt>
      <trkpt lat="45.81111" lon="1.89393">
        <ele>708.8</ele>
        <time>2026-07-09T10:35:37.000Z</time>
      </trkpt>
      <trkpt lat="45.8111" lon="1.89395">
        <ele>709.2</ele>
        <time>2026-07-09T10:35:38.000Z</time>
      </trkpt>
      <trkpt lat="45.81108" lon="1.89397">
        <ele>709.8</ele>
        <time>2026-07-09T10:35:39.000Z</time>
      </trkpt>
      <trkpt lat="45.81108" lon="1.89399">
        <ele>710.2</ele>
        <time>2026-07-09T10:35:40.000Z</time>
      </trkpt>
      <trkpt lat="45.81107" lon="1.89402">
        <ele>709.5</ele>
        <time>2026-07-09T10:35:41.000Z</time>
      </trkpt>
      <trkpt lat="45.81107" lon="1.89404">
        <ele>708.3</ele>
        <time>2026-07-09T10:35:42.000Z</time>
      </trkpt>
      <trkpt lat="45.81107" lon="1.89406">
        <ele>708.5</ele>
        <time>2026-07-09T10:35:43.000Z</time>
      </trkpt>
      <trkpt lat="45.81107" lon="1.89409">
        <ele>708.4</ele>
        <time>2026-07-09T10:35:44.000Z</time>
      </trkpt>
      <trkpt lat="45.81106" lon="1.89411">
        <ele>708.8</ele>
        <time>2026-07-09T10:35:45.000Z</time>
      </trkpt>
      <trkpt lat="45.81104" lon="1.89413">
        <ele>709.3</ele>
        <time>2026-07-09T10:35:46.000Z</time>
      </trkpt>
      <trkpt lat="45.81102" lon="1.89414">
        <ele>709.6</ele>
        <time>2026-07-09T10:35:47.000Z</time>
      </trkpt>
      <trkpt lat="45.811" lon="1.89416">
        <ele>708.6</ele>
        <time>2026-07-09T10:35:48.000Z</time>
      </trkpt>
      <trkpt lat="45.81099" lon="1.89418">
        <ele>707.3</ele>
        <time>2026-07-09T10:35:49.000Z</time>
      </trkpt>
      <trkpt lat="45.81098" lon="1.8942">
        <ele>707.8</ele>
        <time>2026-07-09T10:35:50.000Z</time>
      </trkpt>
      <trkpt lat="45.81096" lon="1.89422">
        <ele>707.1</ele>
        <time>2026-07-09T10:35:51.000Z</time>
      </trkpt>
      <trkpt lat="45.81095" lon="1.89424">
        <ele>707.5</ele>
        <time>2026-07-09T10:35:52.000Z</time>
      </trkpt>
      <trkpt lat="45.81094" lon="1.89426">
        <ele>706.6</ele>
        <time>2026-07-09T10:35:53.000Z</time>
      </trkpt>
      <trkpt lat="45.81093" lon="1.89429">
        <ele>706.7</ele>
        <time>2026-07-09T10:35:54.000Z</time>
      </trkpt>
      <trkpt lat="45.81092" lon="1.89431">
        <ele>706.6</ele>
        <time>2026-07-09T10:35:55.000Z</time>
      </trkpt>
      <trkpt lat="45.81092" lon="1.89433">
        <ele>705.7</ele>
        <time>2026-07-09T10:35:56.000Z</time>
      </trkpt>
      <trkpt lat="45.81091" lon="1.89436">
        <ele>705.4</ele>
        <time>2026-07-09T10:35:57.000Z</time>
      </trkpt>
      <trkpt lat="45.81089" lon="1.89438">
        <ele>705.6</ele>
        <time>2026-07-09T10:35:58.000Z</time>
      </trkpt>
      <trkpt lat="45.81088" lon="1.8944">
        <ele>704.7</ele>
        <time>2026-07-09T10:35:59.000Z</time>
      </trkpt>
      <trkpt lat="45.81087" lon="1.89443">
        <ele>704.4</ele>
        <time>2026-07-09T10:36:00.000Z</time>
      </trkpt>
      <trkpt lat="45.81085" lon="1.89446">
        <ele>705.1</ele>
        <time>2026-07-09T10:36:01.000Z</time>
      </trkpt>
      <trkpt lat="45.81084" lon="1.89448">
        <ele>706</ele>
        <time>2026-07-09T10:36:02.000Z</time>
      </trkpt>
      <trkpt lat="45.81083" lon="1.89449">
        <ele>706.3</ele>
        <time>2026-07-09T10:36:03.000Z</time>
      </trkpt>
      <trkpt lat="45.81081" lon="1.89451">
        <ele>706.4</ele>
        <time>2026-07-09T10:36:04.000Z</time>
      </trkpt>
      <trkpt lat="45.8108" lon="1.89453">
        <ele>706.3</ele>
        <time>2026-07-09T10:36:05.000Z</time>
      </trkpt>
      <trkpt lat="45.81078" lon="1.89455">
        <ele>706.5</ele>
        <time>2026-07-09T10:36:06.000Z</time>
      </trkpt>
      <trkpt lat="45.81077" lon="1.89457">
        <ele>706.7</ele>
        <time>2026-07-09T10:36:07.000Z</time>
      </trkpt>
      <trkpt lat="45.81075" lon="1.89459">
        <ele>706.4</ele>
        <time>2026-07-09T10:36:08.000Z</time>
      </trkpt>
      <trkpt lat="45.81073" lon="1.8946">
        <ele>705.4</ele>
        <time>2026-07-09T10:36:09.000Z</time>
      </trkpt>
      <trkpt lat="45.81072" lon="1.89462">
        <ele>704.9</ele>
        <time>2026-07-09T10:36:10.000Z</time>
      </trkpt>
      <trkpt lat="45.81071" lon="1.89463">
        <ele>705</ele>
        <time>2026-07-09T10:36:11.000Z</time>
      </trkpt>
      <trkpt lat="45.81069" lon="1.89465">
        <ele>704.8</ele>
        <time>2026-07-09T10:36:12.000Z</time>
      </trkpt>
      <trkpt lat="45.81068" lon="1.89467">
        <ele>705.6</ele>
        <time>2026-07-09T10:36:13.000Z</time>
      </trkpt>
      <trkpt lat="45.81067" lon="1.89468">
        <ele>706.8</ele>
        <time>2026-07-09T10:36:14.000Z</time>
      </trkpt>
      <trkpt lat="45.81065" lon="1.89469">
        <ele>706.2</ele>
        <time>2026-07-09T10:36:15.000Z</time>
      </trkpt>
      <trkpt lat="45.81063" lon="1.89471">
        <ele>706.6</ele>
        <time>2026-07-09T10:36:16.000Z</time>
      </trkpt>
      <trkpt lat="45.81062" lon="1.89472">
        <ele>706</ele>
        <time>2026-07-09T10:36:17.000Z</time>
      </trkpt>
      <trkpt lat="45.8106" lon="1.89475">
        <ele>704.8</ele>
        <time>2026-07-09T10:36:18.000Z</time>
      </trkpt>
      <trkpt lat="45.81058" lon="1.89477">
        <ele>704.3</ele>
        <time>2026-07-09T10:36:19.000Z</time>
      </trkpt>
      <trkpt lat="45.81057" lon="1.89479">
        <ele>705.1</ele>
        <time>2026-07-09T10:36:20.000Z</time>
      </trkpt>
      <trkpt lat="45.81055" lon="1.89481">
        <ele>704.3</ele>
        <time>2026-07-09T10:36:21.000Z</time>
      </trkpt>
      <trkpt lat="45.81053" lon="1.89482">
        <ele>704.9</ele>
        <time>2026-07-09T10:36:22.000Z</time>
      </trkpt>
      <trkpt lat="45.81052" lon="1.89483">
        <ele>705.6</ele>
        <time>2026-07-09T10:36:23.000Z</time>
      </trkpt>
      <trkpt lat="45.8105" lon="1.89486">
        <ele>705.7</ele>
        <time>2026-07-09T10:36:24.000Z</time>
      </trkpt>
      <trkpt lat="45.81049" lon="1.89488">
        <ele>705.9</ele>
        <time>2026-07-09T10:36:25.000Z</time>
      </trkpt>
      <trkpt lat="45.81047" lon="1.89489">
        <ele>705.8</ele>
        <time>2026-07-09T10:36:26.000Z</time>
      </trkpt>
      <trkpt lat="45.81045" lon="1.89491">
        <ele>705.5</ele>
        <time>2026-07-09T10:36:27.000Z</time>
      </trkpt>
      <trkpt lat="45.81044" lon="1.89493">
        <ele>705.3</ele>
        <time>2026-07-09T10:36:28.000Z</time>
      </trkpt>
      <trkpt lat="45.81042" lon="1.89494">
        <ele>705.2</ele>
        <time>2026-07-09T10:36:29.000Z</time>
      </trkpt>
      <trkpt lat="45.8104" lon="1.89496">
        <ele>705.4</ele>
        <time>2026-07-09T10:36:30.000Z</time>
      </trkpt>
      <trkpt lat="45.81039" lon="1.89497">
        <ele>705.9</ele>
        <time>2026-07-09T10:36:31.000Z</time>
      </trkpt>
      <trkpt lat="45.81037" lon="1.89497">
        <ele>705.7</ele>
        <time>2026-07-09T10:36:32.000Z</time>
      </trkpt>
      <trkpt lat="45.81035" lon="1.89498">
        <ele>706.1</ele>
        <time>2026-07-09T10:36:33.000Z</time>
      </trkpt>
      <trkpt lat="45.81034" lon="1.89499">
        <ele>706.4</ele>
        <time>2026-07-09T10:36:34.000Z</time>
      </trkpt>
      <trkpt lat="45.81032" lon="1.895">
        <ele>707</ele>
        <time>2026-07-09T10:36:35.000Z</time>
      </trkpt>
      <trkpt lat="45.8103" lon="1.89501">
        <ele>706.8</ele>
        <time>2026-07-09T10:36:36.000Z</time>
      </trkpt>
      <trkpt lat="45.81028" lon="1.89503">
        <ele>707.7</ele>
        <time>2026-07-09T10:36:37.000Z</time>
      </trkpt>
      <trkpt lat="45.81026" lon="1.89503">
        <ele>706.3</ele>
        <time>2026-07-09T10:36:38.000Z</time>
      </trkpt>
      <trkpt lat="45.81024" lon="1.89503">
        <ele>707.3</ele>
        <time>2026-07-09T10:36:39.000Z</time>
      </trkpt>
      <trkpt lat="45.81022" lon="1.89503">
        <ele>707</ele>
        <time>2026-07-09T10:36:40.000Z</time>
      </trkpt>
      <trkpt lat="45.81021" lon="1.89503">
        <ele>707.1</ele>
        <time>2026-07-09T10:36:41.000Z</time>
      </trkpt>
      <trkpt lat="45.81019" lon="1.89502">
        <ele>706.9</ele>
        <time>2026-07-09T10:36:42.000Z</time>
      </trkpt>
      <trkpt lat="45.81017" lon="1.89501">
        <ele>706.4</ele>
        <time>2026-07-09T10:36:43.000Z</time>
      </trkpt>
      <trkpt lat="45.81015" lon="1.895">
        <ele>706.7</ele>
        <time>2026-07-09T10:36:44.000Z</time>
      </trkpt>
      <trkpt lat="45.81014" lon="1.895">
        <ele>706.4</ele>
        <time>2026-07-09T10:36:45.000Z</time>
      </trkpt>
      <trkpt lat="45.81012" lon="1.895">
        <ele>706.1</ele>
        <time>2026-07-09T10:36:46.000Z</time>
      </trkpt>
      <trkpt lat="45.8101" lon="1.89501">
        <ele>706.3</ele>
        <time>2026-07-09T10:36:47.000Z</time>
      </trkpt>
      <trkpt lat="45.81008" lon="1.89501">
        <ele>706.5</ele>
        <time>2026-07-09T10:36:48.000Z</time>
      </trkpt>
      <trkpt lat="45.81006" lon="1.89501">
        <ele>707.4</ele>
        <time>2026-07-09T10:36:49.000Z</time>
      </trkpt>
      <trkpt lat="45.81004" lon="1.895">
        <ele>706.9</ele>
        <time>2026-07-09T10:36:50.000Z</time>
      </trkpt>
      <trkpt lat="45.81001" lon="1.89499">
        <ele>706.7</ele>
        <time>2026-07-09T10:36:51.000Z</time>
      </trkpt>
      <trkpt lat="45.80999" lon="1.89498">
        <ele>707</ele>
        <time>2026-07-09T10:36:52.000Z</time>
      </trkpt>
      <trkpt lat="45.80997" lon="1.89496">
        <ele>707.3</ele>
        <time>2026-07-09T10:36:53.000Z</time>
      </trkpt>
      <trkpt lat="45.80996" lon="1.89495">
        <ele>707.6</ele>
        <time>2026-07-09T10:36:54.000Z</time>
      </trkpt>
      <trkpt lat="45.80995" lon="1.89493">
        <ele>707.5</ele>
        <time>2026-07-09T10:36:55.000Z</time>
      </trkpt>
      <trkpt lat="45.80993" lon="1.89491">
        <ele>707</ele>
        <time>2026-07-09T10:36:56.000Z</time>
      </trkpt>
      <trkpt lat="45.80992" lon="1.8949">
        <ele>707.5</ele>
        <time>2026-07-09T10:36:57.000Z</time>
      </trkpt>
      <trkpt lat="45.80991" lon="1.89489">
        <ele>707.5</ele>
        <time>2026-07-09T10:36:58.000Z</time>
      </trkpt>
      <trkpt lat="45.80989" lon="1.89488">
        <ele>707.1</ele>
        <time>2026-07-09T10:36:59.000Z</time>
      </trkpt>
      <trkpt lat="45.80988" lon="1.89487">
        <ele>706.6</ele>
        <time>2026-07-09T10:37:00.000Z</time>
      </trkpt>
      <trkpt lat="45.80987" lon="1.89486">
        <ele>706.8</ele>
        <time>2026-07-09T10:37:01.000Z</time>
      </trkpt>
      <trkpt lat="45.80985" lon="1.89486">
        <ele>706.9</ele>
        <time>2026-07-09T10:37:02.000Z</time>
      </trkpt>
      <trkpt lat="45.80984" lon="1.89485">
        <ele>707.2</ele>
        <time>2026-07-09T10:37:03.000Z</time>
      </trkpt>
      <trkpt lat="45.80982" lon="1.89485">
        <ele>707.5</ele>
        <time>2026-07-09T10:37:04.000Z</time>
      </trkpt>
      <trkpt lat="45.8098" lon="1.89485">
        <ele>707.1</ele>
        <time>2026-07-09T10:37:05.000Z</time>
      </trkpt>
      <trkpt lat="45.80978" lon="1.89485">
        <ele>706</ele>
        <time>2026-07-09T10:37:06.000Z</time>
      </trkpt>
      <trkpt lat="45.80976" lon="1.89486">
        <ele>705.1</ele>
        <time>2026-07-09T10:37:07.000Z</time>
      </trkpt>
      <trkpt lat="45.80975" lon="1.89486">
        <ele>704.6</ele>
        <time>2026-07-09T10:37:08.000Z</time>
      </trkpt>
      <trkpt lat="45.80973" lon="1.89486">
        <ele>704.4</ele>
        <time>2026-07-09T10:37:09.000Z</time>
      </trkpt>
      <trkpt lat="45.80971" lon="1.89487">
        <ele>703.4</ele>
        <time>2026-07-09T10:37:10.000Z</time>
      </trkpt>
      <trkpt lat="45.80969" lon="1.89486">
        <ele>703.6</ele>
        <time>2026-07-09T10:37:11.000Z</time>
      </trkpt>
      <trkpt lat="45.80967" lon="1.89484">
        <ele>702.7</ele>
        <time>2026-07-09T10:37:12.000Z</time>
      </trkpt>
      <trkpt lat="45.80966" lon="1.89484">
        <ele>702.6</ele>
        <time>2026-07-09T10:37:13.000Z</time>
      </trkpt>
      <trkpt lat="45.80964" lon="1.89484">
        <ele>702.1</ele>
        <time>2026-07-09T10:37:14.000Z</time>
      </trkpt>
      <trkpt lat="45.80962" lon="1.89484">
        <ele>702.6</ele>
        <time>2026-07-09T10:37:15.000Z</time>
      </trkpt>
      <trkpt lat="45.8096" lon="1.89484">
        <ele>701.8</ele>
        <time>2026-07-09T10:37:16.000Z</time>
      </trkpt>
      <trkpt lat="45.80958" lon="1.89484">
        <ele>701.3</ele>
        <time>2026-07-09T10:37:17.000Z</time>
      </trkpt>
      <trkpt lat="45.80957" lon="1.89484">
        <ele>701.6</ele>
        <time>2026-07-09T10:37:18.000Z</time>
      </trkpt>
      <trkpt lat="45.80955" lon="1.89484">
        <ele>701.2</ele>
        <time>2026-07-09T10:37:19.000Z</time>
      </trkpt>
      <trkpt lat="45.80953" lon="1.89484">
        <ele>701.1</ele>
        <time>2026-07-09T10:37:20.000Z</time>
      </trkpt>
      <trkpt lat="45.80952" lon="1.89483">
        <ele>701.4</ele>
        <time>2026-07-09T10:37:21.000Z</time>
      </trkpt>
      <trkpt lat="45.8095" lon="1.89483">
        <ele>701.4</ele>
        <time>2026-07-09T10:37:22.000Z</time>
      </trkpt>
      <trkpt lat="45.80949" lon="1.89482">
        <ele>701.4</ele>
        <time>2026-07-09T10:37:23.000Z</time>
      </trkpt>
      <trkpt lat="45.80948" lon="1.89481">
        <ele>702</ele>
        <time>2026-07-09T10:37:24.000Z</time>
      </trkpt>
      <trkpt lat="45.80946" lon="1.8948">
        <ele>701.7</ele>
        <time>2026-07-09T10:37:25.000Z</time>
      </trkpt>
      <trkpt lat="45.80945" lon="1.89479">
        <ele>703.3</ele>
        <time>2026-07-09T10:37:26.000Z</time>
      </trkpt>
      <trkpt lat="45.80944" lon="1.89478">
        <ele>703.4</ele>
        <time>2026-07-09T10:37:27.000Z</time>
      </trkpt>
      <trkpt lat="45.80944" lon="1.89478">
        <ele>703.4</ele>
        <time>2026-07-09T10:37:28.000Z</time>
      </trkpt>
      <trkpt lat="45.80944" lon="1.89478">
        <ele>703.4</ele>
        <time>2026-07-09T10:37:29.000Z</time>
      </trkpt>
      <trkpt lat="45.80944" lon="1.89477">
        <ele>703.4</ele>
        <time>2026-07-09T10:37:30.000Z</time>
      </trkpt>
      <trkpt lat="45.80944" lon="1.89477">
        <ele>703.5</ele>
        <time>2026-07-09T10:37:31.000Z</time>
      </trkpt>
      <trkpt lat="45.80944" lon="1.89477">
        <ele>703</ele>
        <time>2026-07-09T10:37:32.000Z</time>
      </trkpt>
      <trkpt lat="45.80943" lon="1.89476">
        <ele>702.9</ele>
        <time>2026-07-09T10:37:33.000Z</time>
      </trkpt>
      <trkpt lat="45.80943" lon="1.89476">
        <ele>702.9</ele>
        <time>2026-07-09T10:37:34.000Z</time>
      </trkpt>
      <trkpt lat="45.80943" lon="1.89476">
        <ele>702.9</ele>
        <time>2026-07-09T10:37:35.000Z</time>
      </trkpt>
      <trkpt lat="45.80943" lon="1.89476">
        <ele>702.9</ele>
        <time>2026-07-09T10:37:36.000Z</time>
      </trkpt>
    </trkseg>
  </trk>
</gpx>